<?xml version="1.0" encoding="UTF-8" standalone="no" ?>
<gpx xmlns="http://www.topografix.com/GPX/1/1" xmlns:xsi="http://www.w3.org/2001/XMLSchema-instance" xsi:schemaLocation="http://www.topografix.com/GPX/1/1 http://www.topografix.com/GPX/1/1/gpx.xsd" version="1.1" creator="VisuGPX - https://www.visugpx.com">
  <metadata>
    <name>UTMB UTB PSB</name>
  </metadata>
  <trk>
    <name><![CDATA[Trail du petit St Bernard 40kil]]></name>
    <extensions>
      <line xmlns="http://www.topografix.com/GPX/gpx_style/0/2">
        <color>FF0000</color>
        <width>4</width>
      </line>
    </extensions>
    <trkseg>
      <trkpt lat="45.67176" lon="6.87573">
        <ele>2253</ele>
        <time>2019-10-06T06:01:09Z</time>
      </trkpt>
      <trkpt lat="45.67176" lon="6.87574">
        <ele>2253</ele>
        <time>2019-10-06T06:01:10Z</time>
      </trkpt>
      <trkpt lat="45.67176" lon="6.87575">
        <ele>2253</ele>
        <time>2019-10-06T06:01:11Z</time>
      </trkpt>
      <trkpt lat="45.67176" lon="6.87576">
        <ele>2253</ele>
        <time>2019-10-06T06:01:12Z</time>
      </trkpt>
      <trkpt lat="45.67176" lon="6.87577">
        <ele>2253</ele>
        <time>2019-10-06T06:01:13Z</time>
      </trkpt>
      <trkpt lat="45.67176" lon="6.87578">
        <ele>2253</ele>
        <time>2019-10-06T06:01:14Z</time>
      </trkpt>
      <trkpt lat="45.67176" lon="6.87579">
        <ele>2253</ele>
        <time>2019-10-06T06:01:15Z</time>
      </trkpt>
      <trkpt lat="45.67176" lon="6.8758">
        <ele>2253</ele>
        <time>2019-10-06T06:01:16Z</time>
      </trkpt>
      <trkpt lat="45.67177" lon="6.87581">
        <ele>2253</ele>
        <time>2019-10-06T06:01:17Z</time>
      </trkpt>
      <trkpt lat="45.67178" lon="6.8759">
        <ele>2253</ele>
        <time>2019-10-06T06:01:18Z</time>
      </trkpt>
      <trkpt lat="45.67178" lon="6.87592">
        <ele>2254</ele>
        <time>2019-10-06T06:01:19Z</time>
      </trkpt>
      <trkpt lat="45.67179" lon="6.87593">
        <ele>2254</ele>
        <time>2019-10-06T06:01:20Z</time>
      </trkpt>
      <trkpt lat="45.67179" lon="6.87594">
        <ele>2254</ele>
        <time>2019-10-06T06:01:21Z</time>
      </trkpt>
      <trkpt lat="45.6718" lon="6.87596">
        <ele>2254</ele>
        <time>2019-10-06T06:01:22Z</time>
      </trkpt>
      <trkpt lat="45.67182" lon="6.87602">
        <ele>2254</ele>
        <time>2019-10-06T06:01:23Z</time>
      </trkpt>
      <trkpt lat="45.67182" lon="6.87602">
        <ele>2255</ele>
        <time>2019-10-06T06:01:27Z</time>
      </trkpt>
      <trkpt lat="45.67182" lon="6.87602">
        <ele>2254</ele>
        <time>2019-10-06T06:01:31Z</time>
      </trkpt>
      <trkpt lat="45.6719" lon="6.8761">
        <ele>2254</ele>
        <time>2019-10-06T06:01:35Z</time>
      </trkpt>
      <trkpt lat="45.6719" lon="6.8761">
        <ele>2254</ele>
        <time>2019-10-06T06:01:36Z</time>
      </trkpt>
      <trkpt lat="45.6719" lon="6.8761">
        <ele>2255</ele>
        <time>2019-10-06T06:01:40Z</time>
      </trkpt>
      <trkpt lat="45.67198" lon="6.87618">
        <ele>2255</ele>
        <time>2019-10-06T06:01:43Z</time>
      </trkpt>
      <trkpt lat="45.67198" lon="6.87618">
        <ele>2255</ele>
        <time>2019-10-06T06:01:45Z</time>
      </trkpt>
      <trkpt lat="45.67198" lon="6.87618">
        <ele>2255</ele>
        <time>2019-10-06T06:01:49Z</time>
      </trkpt>
      <trkpt lat="45.67206" lon="6.87625">
        <ele>2255</ele>
        <time>2019-10-06T06:01:53Z</time>
      </trkpt>
      <trkpt lat="45.67206" lon="6.87625">
        <ele>2255</ele>
        <time>2019-10-06T06:01:54Z</time>
      </trkpt>
      <trkpt lat="45.67206" lon="6.87625">
        <ele>2255</ele>
        <time>2019-10-06T06:01:58Z</time>
      </trkpt>
      <trkpt lat="45.67214" lon="6.87631">
        <ele>2255</ele>
        <time>2019-10-06T06:01:59Z</time>
      </trkpt>
      <trkpt lat="45.67224" lon="6.87639">
        <ele>2254</ele>
        <time>2019-10-06T06:02:03Z</time>
      </trkpt>
      <trkpt lat="45.67225" lon="6.8764">
        <ele>2254</ele>
        <time>2019-10-06T06:02:04Z</time>
      </trkpt>
      <trkpt lat="45.67226" lon="6.87641">
        <ele>2254</ele>
        <time>2019-10-06T06:02:05Z</time>
      </trkpt>
      <trkpt lat="45.67227" lon="6.87642">
        <ele>2254</ele>
        <time>2019-10-06T06:02:06Z</time>
      </trkpt>
      <trkpt lat="45.67228" lon="6.87643">
        <ele>2254</ele>
        <time>2019-10-06T06:02:07Z</time>
      </trkpt>
      <trkpt lat="45.67233" lon="6.87647">
        <ele>2254</ele>
        <time>2019-10-06T06:02:08Z</time>
      </trkpt>
      <trkpt lat="45.67241" lon="6.87654">
        <ele>2254</ele>
        <time>2019-10-06T06:02:12Z</time>
      </trkpt>
      <trkpt lat="45.67241" lon="6.87654">
        <ele>2253</ele>
        <time>2019-10-06T06:02:13Z</time>
      </trkpt>
      <trkpt lat="45.67248" lon="6.87662">
        <ele>2253</ele>
        <time>2019-10-06T06:02:16Z</time>
      </trkpt>
      <trkpt lat="45.67248" lon="6.87662">
        <ele>2253</ele>
        <time>2019-10-06T06:02:18Z</time>
      </trkpt>
      <trkpt lat="45.67256" lon="6.87669">
        <ele>2253</ele>
        <time>2019-10-06T06:02:20Z</time>
      </trkpt>
      <trkpt lat="45.67256" lon="6.87669">
        <ele>2253</ele>
        <time>2019-10-06T06:02:23Z</time>
      </trkpt>
      <trkpt lat="45.67265" lon="6.87675">
        <ele>2253</ele>
        <time>2019-10-06T06:02:24Z</time>
      </trkpt>
      <trkpt lat="45.67265" lon="6.87675">
        <ele>2253</ele>
        <time>2019-10-06T06:02:28Z</time>
      </trkpt>
      <trkpt lat="45.67274" lon="6.87683">
        <ele>2253</ele>
        <time>2019-10-06T06:02:29Z</time>
      </trkpt>
      <trkpt lat="45.67275" lon="6.87684">
        <ele>2253</ele>
        <time>2019-10-06T06:02:30Z</time>
      </trkpt>
      <trkpt lat="45.67276" lon="6.87685">
        <ele>2254</ele>
        <time>2019-10-06T06:02:31Z</time>
      </trkpt>
      <trkpt lat="45.67277" lon="6.87686">
        <ele>2254</ele>
        <time>2019-10-06T06:02:32Z</time>
      </trkpt>
      <trkpt lat="45.67278" lon="6.87687">
        <ele>2254</ele>
        <time>2019-10-06T06:02:33Z</time>
      </trkpt>
      <trkpt lat="45.67282" lon="6.87691">
        <ele>2254</ele>
        <time>2019-10-06T06:02:34Z</time>
      </trkpt>
      <trkpt lat="45.67282" lon="6.87691">
        <ele>2254</ele>
        <time>2019-10-06T06:02:38Z</time>
      </trkpt>
      <trkpt lat="45.67291" lon="6.87698">
        <ele>2254</ele>
        <time>2019-10-06T06:02:39Z</time>
      </trkpt>
      <trkpt lat="45.67291" lon="6.87698">
        <ele>2255</ele>
        <time>2019-10-06T06:02:43Z</time>
      </trkpt>
      <trkpt lat="45.673" lon="6.87707">
        <ele>2255</ele>
        <time>2019-10-06T06:02:44Z</time>
      </trkpt>
      <trkpt lat="45.67301" lon="6.87707">
        <ele>2255</ele>
        <time>2019-10-06T06:02:45Z</time>
      </trkpt>
      <trkpt lat="45.67302" lon="6.87708">
        <ele>2255</ele>
        <time>2019-10-06T06:02:46Z</time>
      </trkpt>
      <trkpt lat="45.67303" lon="6.87709">
        <ele>2255</ele>
        <time>2019-10-06T06:02:47Z</time>
      </trkpt>
      <trkpt lat="45.67304" lon="6.8771">
        <ele>2255</ele>
        <time>2019-10-06T06:02:48Z</time>
      </trkpt>
      <trkpt lat="45.6731" lon="6.87714">
        <ele>2255</ele>
        <time>2019-10-06T06:02:49Z</time>
      </trkpt>
      <trkpt lat="45.67311" lon="6.87715">
        <ele>2255</ele>
        <time>2019-10-06T06:02:50Z</time>
      </trkpt>
      <trkpt lat="45.67312" lon="6.87716">
        <ele>2255</ele>
        <time>2019-10-06T06:02:51Z</time>
      </trkpt>
      <trkpt lat="45.67312" lon="6.87717">
        <ele>2255</ele>
        <time>2019-10-06T06:02:52Z</time>
      </trkpt>
      <trkpt lat="45.67313" lon="6.87717">
        <ele>2255</ele>
        <time>2019-10-06T06:02:53Z</time>
      </trkpt>
      <trkpt lat="45.67319" lon="6.87722">
        <ele>2255</ele>
        <time>2019-10-06T06:02:54Z</time>
      </trkpt>
      <trkpt lat="45.6732" lon="6.87722">
        <ele>2255</ele>
        <time>2019-10-06T06:02:55Z</time>
      </trkpt>
      <trkpt lat="45.67321" lon="6.87723">
        <ele>2256</ele>
        <time>2019-10-06T06:02:56Z</time>
      </trkpt>
      <trkpt lat="45.67322" lon="6.87724">
        <ele>2256</ele>
        <time>2019-10-06T06:02:57Z</time>
      </trkpt>
      <trkpt lat="45.67323" lon="6.87724">
        <ele>2257</ele>
        <time>2019-10-06T06:02:58Z</time>
      </trkpt>
      <trkpt lat="45.67328" lon="6.87729">
        <ele>2257</ele>
        <time>2019-10-06T06:02:59Z</time>
      </trkpt>
      <trkpt lat="45.67329" lon="6.8773">
        <ele>2257</ele>
        <time>2019-10-06T06:03:00Z</time>
      </trkpt>
      <trkpt lat="45.6733" lon="6.87731">
        <ele>2257</ele>
        <time>2019-10-06T06:03:01Z</time>
      </trkpt>
      <trkpt lat="45.67331" lon="6.87732">
        <ele>2257</ele>
        <time>2019-10-06T06:03:02Z</time>
      </trkpt>
      <trkpt lat="45.67332" lon="6.87732">
        <ele>2257</ele>
        <time>2019-10-06T06:03:03Z</time>
      </trkpt>
      <trkpt lat="45.67336" lon="6.87737">
        <ele>2257</ele>
        <time>2019-10-06T06:03:04Z</time>
      </trkpt>
      <trkpt lat="45.67336" lon="6.87737">
        <ele>2257</ele>
        <time>2019-10-06T06:03:08Z</time>
      </trkpt>
      <trkpt lat="45.67345" lon="6.87745">
        <ele>2257</ele>
        <time>2019-10-06T06:03:09Z</time>
      </trkpt>
      <trkpt lat="45.67345" lon="6.87745">
        <ele>2258</ele>
        <time>2019-10-06T06:03:13Z</time>
      </trkpt>
      <trkpt lat="45.67353" lon="6.87754">
        <ele>2258</ele>
        <time>2019-10-06T06:03:14Z</time>
      </trkpt>
      <trkpt lat="45.67354" lon="6.87755">
        <ele>2258</ele>
        <time>2019-10-06T06:03:15Z</time>
      </trkpt>
      <trkpt lat="45.67355" lon="6.87756">
        <ele>2258</ele>
        <time>2019-10-06T06:03:16Z</time>
      </trkpt>
      <trkpt lat="45.67355" lon="6.87757">
        <ele>2258</ele>
        <time>2019-10-06T06:03:17Z</time>
      </trkpt>
      <trkpt lat="45.67356" lon="6.87757">
        <ele>2258</ele>
        <time>2019-10-06T06:03:18Z</time>
      </trkpt>
      <trkpt lat="45.67357" lon="6.87758">
        <ele>2258</ele>
        <time>2019-10-06T06:03:19Z</time>
      </trkpt>
      <trkpt lat="45.67361" lon="6.87763">
        <ele>2259</ele>
        <time>2019-10-06T06:03:20Z</time>
      </trkpt>
      <trkpt lat="45.67369" lon="6.87771">
        <ele>2260</ele>
        <time>2019-10-06T06:03:24Z</time>
      </trkpt>
      <trkpt lat="45.67369" lon="6.87771">
        <ele>2259</ele>
        <time>2019-10-06T06:03:25Z</time>
      </trkpt>
      <trkpt lat="45.67375" lon="6.87776">
        <ele>2259</ele>
        <time>2019-10-06T06:03:27Z</time>
      </trkpt>
      <trkpt lat="45.67378" lon="6.87778">
        <ele>2259</ele>
        <time>2019-10-06T06:03:28Z</time>
      </trkpt>
      <trkpt lat="45.67381" lon="6.87779">
        <ele>2259</ele>
        <time>2019-10-06T06:03:30Z</time>
      </trkpt>
      <trkpt lat="45.67383" lon="6.8778">
        <ele>2259</ele>
        <time>2019-10-06T06:03:31Z</time>
      </trkpt>
      <trkpt lat="45.67385" lon="6.87781">
        <ele>2260</ele>
        <time>2019-10-06T06:03:32Z</time>
      </trkpt>
      <trkpt lat="45.67387" lon="6.87783">
        <ele>2260</ele>
        <time>2019-10-06T06:03:33Z</time>
      </trkpt>
      <trkpt lat="45.67389" lon="6.87785">
        <ele>2260</ele>
        <time>2019-10-06T06:03:34Z</time>
      </trkpt>
      <trkpt lat="45.6739" lon="6.87787">
        <ele>2260</ele>
        <time>2019-10-06T06:03:35Z</time>
      </trkpt>
      <trkpt lat="45.67392" lon="6.87789">
        <ele>2261</ele>
        <time>2019-10-06T06:03:36Z</time>
      </trkpt>
      <trkpt lat="45.67394" lon="6.87791">
        <ele>2261</ele>
        <time>2019-10-06T06:03:37Z</time>
      </trkpt>
      <trkpt lat="45.67396" lon="6.87793">
        <ele>2261</ele>
        <time>2019-10-06T06:03:38Z</time>
      </trkpt>
      <trkpt lat="45.67397" lon="6.87795">
        <ele>2261</ele>
        <time>2019-10-06T06:03:39Z</time>
      </trkpt>
      <trkpt lat="45.67399" lon="6.87797">
        <ele>2261</ele>
        <time>2019-10-06T06:03:40Z</time>
      </trkpt>
      <trkpt lat="45.674" lon="6.87799">
        <ele>2261</ele>
        <time>2019-10-06T06:03:41Z</time>
      </trkpt>
      <trkpt lat="45.67402" lon="6.87802">
        <ele>2261</ele>
        <time>2019-10-06T06:03:42Z</time>
      </trkpt>
      <trkpt lat="45.67404" lon="6.87804">
        <ele>2261</ele>
        <time>2019-10-06T06:03:43Z</time>
      </trkpt>
      <trkpt lat="45.67405" lon="6.87806">
        <ele>2261</ele>
        <time>2019-10-06T06:03:44Z</time>
      </trkpt>
      <trkpt lat="45.67407" lon="6.87808">
        <ele>2261</ele>
        <time>2019-10-06T06:03:45Z</time>
      </trkpt>
      <trkpt lat="45.67409" lon="6.8781">
        <ele>2262</ele>
        <time>2019-10-06T06:03:46Z</time>
      </trkpt>
      <trkpt lat="45.67411" lon="6.87812">
        <ele>2262</ele>
        <time>2019-10-06T06:03:47Z</time>
      </trkpt>
      <trkpt lat="45.67413" lon="6.87814">
        <ele>2262</ele>
        <time>2019-10-06T06:03:48Z</time>
      </trkpt>
      <trkpt lat="45.67415" lon="6.87816">
        <ele>2262</ele>
        <time>2019-10-06T06:03:49Z</time>
      </trkpt>
      <trkpt lat="45.67416" lon="6.87818">
        <ele>2262</ele>
        <time>2019-10-06T06:03:50Z</time>
      </trkpt>
      <trkpt lat="45.67418" lon="6.87821">
        <ele>2262</ele>
        <time>2019-10-06T06:03:51Z</time>
      </trkpt>
      <trkpt lat="45.6742" lon="6.87823">
        <ele>2262</ele>
        <time>2019-10-06T06:03:52Z</time>
      </trkpt>
      <trkpt lat="45.67422" lon="6.87825">
        <ele>2262</ele>
        <time>2019-10-06T06:03:53Z</time>
      </trkpt>
      <trkpt lat="45.67424" lon="6.87828">
        <ele>2262</ele>
        <time>2019-10-06T06:03:55Z</time>
      </trkpt>
      <trkpt lat="45.67427" lon="6.87831">
        <ele>2262</ele>
        <time>2019-10-06T06:03:57Z</time>
      </trkpt>
      <trkpt lat="45.6743" lon="6.87833">
        <ele>2262</ele>
        <time>2019-10-06T06:03:59Z</time>
      </trkpt>
      <trkpt lat="45.67432" lon="6.87835">
        <ele>2262</ele>
        <time>2019-10-06T06:04:00Z</time>
      </trkpt>
      <trkpt lat="45.67434" lon="6.87837">
        <ele>2262</ele>
        <time>2019-10-06T06:04:01Z</time>
      </trkpt>
      <trkpt lat="45.67436" lon="6.87839">
        <ele>2261</ele>
        <time>2019-10-06T06:04:02Z</time>
      </trkpt>
      <trkpt lat="45.67438" lon="6.87841">
        <ele>2261</ele>
        <time>2019-10-06T06:04:03Z</time>
      </trkpt>
      <trkpt lat="45.67439" lon="6.87843">
        <ele>2262</ele>
        <time>2019-10-06T06:04:04Z</time>
      </trkpt>
      <trkpt lat="45.67442" lon="6.87846">
        <ele>2262</ele>
        <time>2019-10-06T06:04:06Z</time>
      </trkpt>
      <trkpt lat="45.67445" lon="6.87849">
        <ele>2262</ele>
        <time>2019-10-06T06:04:08Z</time>
      </trkpt>
      <trkpt lat="45.67447" lon="6.8785">
        <ele>2262</ele>
        <time>2019-10-06T06:04:09Z</time>
      </trkpt>
      <trkpt lat="45.67449" lon="6.87852">
        <ele>2262</ele>
        <time>2019-10-06T06:04:10Z</time>
      </trkpt>
      <trkpt lat="45.67451" lon="6.87853">
        <ele>2262</ele>
        <time>2019-10-06T06:04:11Z</time>
      </trkpt>
      <trkpt lat="45.67453" lon="6.87855">
        <ele>2262</ele>
        <time>2019-10-06T06:04:12Z</time>
      </trkpt>
      <trkpt lat="45.67454" lon="6.87856">
        <ele>2263</ele>
        <time>2019-10-06T06:04:13Z</time>
      </trkpt>
      <trkpt lat="45.67456" lon="6.87858">
        <ele>2263</ele>
        <time>2019-10-06T06:04:14Z</time>
      </trkpt>
      <trkpt lat="45.67458" lon="6.87859">
        <ele>2263</ele>
        <time>2019-10-06T06:04:15Z</time>
      </trkpt>
      <trkpt lat="45.67459" lon="6.87861">
        <ele>2263</ele>
        <time>2019-10-06T06:04:16Z</time>
      </trkpt>
      <trkpt lat="45.67461" lon="6.87863">
        <ele>2263</ele>
        <time>2019-10-06T06:04:17Z</time>
      </trkpt>
      <trkpt lat="45.67464" lon="6.87866">
        <ele>2263</ele>
        <time>2019-10-06T06:04:19Z</time>
      </trkpt>
      <trkpt lat="45.67466" lon="6.87867">
        <ele>2263</ele>
        <time>2019-10-06T06:04:20Z</time>
      </trkpt>
      <trkpt lat="45.67468" lon="6.87868">
        <ele>2263</ele>
        <time>2019-10-06T06:04:21Z</time>
      </trkpt>
      <trkpt lat="45.6747" lon="6.87872">
        <ele>2263</ele>
        <time>2019-10-06T06:04:23Z</time>
      </trkpt>
      <trkpt lat="45.67471" lon="6.87873">
        <ele>2263</ele>
        <time>2019-10-06T06:04:24Z</time>
      </trkpt>
      <trkpt lat="45.67473" lon="6.87875">
        <ele>2263</ele>
        <time>2019-10-06T06:04:25Z</time>
      </trkpt>
      <trkpt lat="45.67474" lon="6.87876">
        <ele>2263</ele>
        <time>2019-10-06T06:04:26Z</time>
      </trkpt>
      <trkpt lat="45.67476" lon="6.87878">
        <ele>2263</ele>
        <time>2019-10-06T06:04:27Z</time>
      </trkpt>
      <trkpt lat="45.67478" lon="6.8788">
        <ele>2263</ele>
        <time>2019-10-06T06:04:28Z</time>
      </trkpt>
      <trkpt lat="45.6748" lon="6.87881">
        <ele>2263</ele>
        <time>2019-10-06T06:04:29Z</time>
      </trkpt>
      <trkpt lat="45.67482" lon="6.87883">
        <ele>2263</ele>
        <time>2019-10-06T06:04:30Z</time>
      </trkpt>
      <trkpt lat="45.67484" lon="6.87885">
        <ele>2263</ele>
        <time>2019-10-06T06:04:31Z</time>
      </trkpt>
      <trkpt lat="45.67486" lon="6.87887">
        <ele>2263</ele>
        <time>2019-10-06T06:04:32Z</time>
      </trkpt>
      <trkpt lat="45.67488" lon="6.87889">
        <ele>2263</ele>
        <time>2019-10-06T06:04:33Z</time>
      </trkpt>
      <trkpt lat="45.6749" lon="6.87891">
        <ele>2263</ele>
        <time>2019-10-06T06:04:34Z</time>
      </trkpt>
      <trkpt lat="45.67491" lon="6.87892">
        <ele>2263</ele>
        <time>2019-10-06T06:04:35Z</time>
      </trkpt>
      <trkpt lat="45.67493" lon="6.87894">
        <ele>2263</ele>
        <time>2019-10-06T06:04:36Z</time>
      </trkpt>
      <trkpt lat="45.67494" lon="6.87896">
        <ele>2262</ele>
        <time>2019-10-06T06:04:37Z</time>
      </trkpt>
      <trkpt lat="45.67496" lon="6.87898">
        <ele>2262</ele>
        <time>2019-10-06T06:04:38Z</time>
      </trkpt>
      <trkpt lat="45.67498" lon="6.87899">
        <ele>2262</ele>
        <time>2019-10-06T06:04:39Z</time>
      </trkpt>
      <trkpt lat="45.675" lon="6.87901">
        <ele>2262</ele>
        <time>2019-10-06T06:04:40Z</time>
      </trkpt>
      <trkpt lat="45.67502" lon="6.87903">
        <ele>2262</ele>
        <time>2019-10-06T06:04:41Z</time>
      </trkpt>
      <trkpt lat="45.67505" lon="6.87905">
        <ele>2262</ele>
        <time>2019-10-06T06:04:43Z</time>
      </trkpt>
      <trkpt lat="45.67507" lon="6.87908">
        <ele>2262</ele>
        <time>2019-10-06T06:04:44Z</time>
      </trkpt>
      <trkpt lat="45.67508" lon="6.8791">
        <ele>2262</ele>
        <time>2019-10-06T06:04:45Z</time>
      </trkpt>
      <trkpt lat="45.6751" lon="6.87911">
        <ele>2262</ele>
        <time>2019-10-06T06:04:46Z</time>
      </trkpt>
      <trkpt lat="45.67512" lon="6.87913">
        <ele>2262</ele>
        <time>2019-10-06T06:04:47Z</time>
      </trkpt>
      <trkpt lat="45.67514" lon="6.87915">
        <ele>2263</ele>
        <time>2019-10-06T06:04:48Z</time>
      </trkpt>
      <trkpt lat="45.67518" lon="6.87917">
        <ele>2263</ele>
        <time>2019-10-06T06:04:50Z</time>
      </trkpt>
      <trkpt lat="45.6752" lon="6.87918">
        <ele>2263</ele>
        <time>2019-10-06T06:04:51Z</time>
      </trkpt>
      <trkpt lat="45.67521" lon="6.8792">
        <ele>2263</ele>
        <time>2019-10-06T06:04:52Z</time>
      </trkpt>
      <trkpt lat="45.67523" lon="6.87921">
        <ele>2263</ele>
        <time>2019-10-06T06:04:53Z</time>
      </trkpt>
      <trkpt lat="45.67524" lon="6.87923">
        <ele>2263</ele>
        <time>2019-10-06T06:04:54Z</time>
      </trkpt>
      <trkpt lat="45.67526" lon="6.87924">
        <ele>2262</ele>
        <time>2019-10-06T06:04:55Z</time>
      </trkpt>
      <trkpt lat="45.67528" lon="6.87926">
        <ele>2262</ele>
        <time>2019-10-06T06:04:56Z</time>
      </trkpt>
      <trkpt lat="45.67532" lon="6.8793">
        <ele>2262</ele>
        <time>2019-10-06T06:04:57Z</time>
      </trkpt>
      <trkpt lat="45.67533" lon="6.8793">
        <ele>2262</ele>
        <time>2019-10-06T06:04:58Z</time>
      </trkpt>
      <trkpt lat="45.67535" lon="6.87932">
        <ele>2262</ele>
        <time>2019-10-06T06:04:59Z</time>
      </trkpt>
      <trkpt lat="45.67537" lon="6.87934">
        <ele>2262</ele>
        <time>2019-10-06T06:05:00Z</time>
      </trkpt>
      <trkpt lat="45.67539" lon="6.87935">
        <ele>2262</ele>
        <time>2019-10-06T06:05:01Z</time>
      </trkpt>
      <trkpt lat="45.67541" lon="6.87936">
        <ele>2262</ele>
        <time>2019-10-06T06:05:02Z</time>
      </trkpt>
      <trkpt lat="45.67544" lon="6.87938">
        <ele>2262</ele>
        <time>2019-10-06T06:05:03Z</time>
      </trkpt>
      <trkpt lat="45.67547" lon="6.87939">
        <ele>2261</ele>
        <time>2019-10-06T06:05:05Z</time>
      </trkpt>
      <trkpt lat="45.67549" lon="6.87941">
        <ele>2261</ele>
        <time>2019-10-06T06:05:07Z</time>
      </trkpt>
      <trkpt lat="45.67551" lon="6.87943">
        <ele>2261</ele>
        <time>2019-10-06T06:05:08Z</time>
      </trkpt>
      <trkpt lat="45.67552" lon="6.87946">
        <ele>2261</ele>
        <time>2019-10-06T06:05:09Z</time>
      </trkpt>
      <trkpt lat="45.67554" lon="6.87948">
        <ele>2261</ele>
        <time>2019-10-06T06:05:10Z</time>
      </trkpt>
      <trkpt lat="45.67556" lon="6.8795">
        <ele>2261</ele>
        <time>2019-10-06T06:05:11Z</time>
      </trkpt>
      <trkpt lat="45.67558" lon="6.87952">
        <ele>2261</ele>
        <time>2019-10-06T06:05:12Z</time>
      </trkpt>
      <trkpt lat="45.6756" lon="6.87954">
        <ele>2261</ele>
        <time>2019-10-06T06:05:13Z</time>
      </trkpt>
      <trkpt lat="45.67562" lon="6.87956">
        <ele>2262</ele>
        <time>2019-10-06T06:05:14Z</time>
      </trkpt>
      <trkpt lat="45.67564" lon="6.87958">
        <ele>2262</ele>
        <time>2019-10-06T06:05:15Z</time>
      </trkpt>
      <trkpt lat="45.67566" lon="6.8796">
        <ele>2262</ele>
        <time>2019-10-06T06:05:16Z</time>
      </trkpt>
      <trkpt lat="45.67568" lon="6.87962">
        <ele>2262</ele>
        <time>2019-10-06T06:05:17Z</time>
      </trkpt>
      <trkpt lat="45.6757" lon="6.87964">
        <ele>2262</ele>
        <time>2019-10-06T06:05:18Z</time>
      </trkpt>
      <trkpt lat="45.67573" lon="6.87966">
        <ele>2262</ele>
        <time>2019-10-06T06:05:19Z</time>
      </trkpt>
      <trkpt lat="45.67574" lon="6.87968">
        <ele>2262</ele>
        <time>2019-10-06T06:05:20Z</time>
      </trkpt>
      <trkpt lat="45.67576" lon="6.8797">
        <ele>2262</ele>
        <time>2019-10-06T06:05:21Z</time>
      </trkpt>
      <trkpt lat="45.67578" lon="6.87972">
        <ele>2262</ele>
        <time>2019-10-06T06:05:22Z</time>
      </trkpt>
      <trkpt lat="45.67581" lon="6.87974">
        <ele>2261</ele>
        <time>2019-10-06T06:05:23Z</time>
      </trkpt>
      <trkpt lat="45.67583" lon="6.87975">
        <ele>2261</ele>
        <time>2019-10-06T06:05:24Z</time>
      </trkpt>
      <trkpt lat="45.67585" lon="6.87978">
        <ele>2261</ele>
        <time>2019-10-06T06:05:25Z</time>
      </trkpt>
      <trkpt lat="45.67587" lon="6.8798">
        <ele>2261</ele>
        <time>2019-10-06T06:05:26Z</time>
      </trkpt>
      <trkpt lat="45.6759" lon="6.87982">
        <ele>2261</ele>
        <time>2019-10-06T06:05:27Z</time>
      </trkpt>
      <trkpt lat="45.67591" lon="6.87984">
        <ele>2261</ele>
        <time>2019-10-06T06:05:28Z</time>
      </trkpt>
      <trkpt lat="45.67594" lon="6.87986">
        <ele>2261</ele>
        <time>2019-10-06T06:05:29Z</time>
      </trkpt>
      <trkpt lat="45.67596" lon="6.87987">
        <ele>2260</ele>
        <time>2019-10-06T06:05:30Z</time>
      </trkpt>
      <trkpt lat="45.67598" lon="6.8799">
        <ele>2260</ele>
        <time>2019-10-06T06:05:31Z</time>
      </trkpt>
      <trkpt lat="45.676" lon="6.87992">
        <ele>2260</ele>
        <time>2019-10-06T06:05:32Z</time>
      </trkpt>
      <trkpt lat="45.67602" lon="6.87994">
        <ele>2260</ele>
        <time>2019-10-06T06:05:33Z</time>
      </trkpt>
      <trkpt lat="45.67605" lon="6.87996">
        <ele>2260</ele>
        <time>2019-10-06T06:05:34Z</time>
      </trkpt>
      <trkpt lat="45.67607" lon="6.87998">
        <ele>2260</ele>
        <time>2019-10-06T06:05:35Z</time>
      </trkpt>
      <trkpt lat="45.67609" lon="6.88">
        <ele>2259</ele>
        <time>2019-10-06T06:05:36Z</time>
      </trkpt>
      <trkpt lat="45.6761" lon="6.88002">
        <ele>2259</ele>
        <time>2019-10-06T06:05:37Z</time>
      </trkpt>
      <trkpt lat="45.67612" lon="6.88004">
        <ele>2259</ele>
        <time>2019-10-06T06:05:38Z</time>
      </trkpt>
      <trkpt lat="45.67614" lon="6.88006">
        <ele>2260</ele>
        <time>2019-10-06T06:05:39Z</time>
      </trkpt>
      <trkpt lat="45.67616" lon="6.88008">
        <ele>2260</ele>
        <time>2019-10-06T06:05:40Z</time>
      </trkpt>
      <trkpt lat="45.67617" lon="6.8801">
        <ele>2260</ele>
        <time>2019-10-06T06:05:41Z</time>
      </trkpt>
      <trkpt lat="45.67619" lon="6.88012">
        <ele>2260</ele>
        <time>2019-10-06T06:05:42Z</time>
      </trkpt>
      <trkpt lat="45.67621" lon="6.88013">
        <ele>2260</ele>
        <time>2019-10-06T06:05:43Z</time>
      </trkpt>
      <trkpt lat="45.67623" lon="6.88015">
        <ele>2260</ele>
        <time>2019-10-06T06:05:44Z</time>
      </trkpt>
      <trkpt lat="45.67624" lon="6.88016">
        <ele>2260</ele>
        <time>2019-10-06T06:05:45Z</time>
      </trkpt>
      <trkpt lat="45.67626" lon="6.88018">
        <ele>2260</ele>
        <time>2019-10-06T06:05:46Z</time>
      </trkpt>
      <trkpt lat="45.67628" lon="6.88019">
        <ele>2260</ele>
        <time>2019-10-06T06:05:47Z</time>
      </trkpt>
      <trkpt lat="45.6763" lon="6.88021">
        <ele>2260</ele>
        <time>2019-10-06T06:05:48Z</time>
      </trkpt>
      <trkpt lat="45.67632" lon="6.88023">
        <ele>2260</ele>
        <time>2019-10-06T06:05:49Z</time>
      </trkpt>
      <trkpt lat="45.67634" lon="6.88024">
        <ele>2260</ele>
        <time>2019-10-06T06:05:50Z</time>
      </trkpt>
      <trkpt lat="45.67636" lon="6.88026">
        <ele>2259</ele>
        <time>2019-10-06T06:05:51Z</time>
      </trkpt>
      <trkpt lat="45.67637" lon="6.88028">
        <ele>2259</ele>
        <time>2019-10-06T06:05:52Z</time>
      </trkpt>
      <trkpt lat="45.67639" lon="6.8803">
        <ele>2260</ele>
        <time>2019-10-06T06:05:53Z</time>
      </trkpt>
      <trkpt lat="45.67641" lon="6.88031">
        <ele>2260</ele>
        <time>2019-10-06T06:05:54Z</time>
      </trkpt>
      <trkpt lat="45.67643" lon="6.88033">
        <ele>2260</ele>
        <time>2019-10-06T06:05:55Z</time>
      </trkpt>
      <trkpt lat="45.67644" lon="6.88034">
        <ele>2260</ele>
        <time>2019-10-06T06:05:56Z</time>
      </trkpt>
      <trkpt lat="45.67646" lon="6.88035">
        <ele>2260</ele>
        <time>2019-10-06T06:05:57Z</time>
      </trkpt>
      <trkpt lat="45.67648" lon="6.88037">
        <ele>2260</ele>
        <time>2019-10-06T06:05:58Z</time>
      </trkpt>
      <trkpt lat="45.6765" lon="6.88038">
        <ele>2260</ele>
        <time>2019-10-06T06:05:59Z</time>
      </trkpt>
      <trkpt lat="45.67652" lon="6.88041">
        <ele>2260</ele>
        <time>2019-10-06T06:06:01Z</time>
      </trkpt>
      <trkpt lat="45.67654" lon="6.88043">
        <ele>2260</ele>
        <time>2019-10-06T06:06:02Z</time>
      </trkpt>
      <trkpt lat="45.67655" lon="6.88045">
        <ele>2260</ele>
        <time>2019-10-06T06:06:03Z</time>
      </trkpt>
      <trkpt lat="45.67656" lon="6.88046">
        <ele>2261</ele>
        <time>2019-10-06T06:06:04Z</time>
      </trkpt>
      <trkpt lat="45.67658" lon="6.88048">
        <ele>2262</ele>
        <time>2019-10-06T06:06:05Z</time>
      </trkpt>
      <trkpt lat="45.6766" lon="6.88049">
        <ele>2262</ele>
        <time>2019-10-06T06:06:06Z</time>
      </trkpt>
      <trkpt lat="45.67662" lon="6.88051">
        <ele>2262</ele>
        <time>2019-10-06T06:06:07Z</time>
      </trkpt>
      <trkpt lat="45.67663" lon="6.88052">
        <ele>2263</ele>
        <time>2019-10-06T06:06:08Z</time>
      </trkpt>
      <trkpt lat="45.67665" lon="6.88054">
        <ele>2263</ele>
        <time>2019-10-06T06:06:09Z</time>
      </trkpt>
      <trkpt lat="45.67666" lon="6.88057">
        <ele>2263</ele>
        <time>2019-10-06T06:06:10Z</time>
      </trkpt>
      <trkpt lat="45.67668" lon="6.88059">
        <ele>2263</ele>
        <time>2019-10-06T06:06:11Z</time>
      </trkpt>
      <trkpt lat="45.67669" lon="6.8806">
        <ele>2263</ele>
        <time>2019-10-06T06:06:12Z</time>
      </trkpt>
      <trkpt lat="45.67671" lon="6.88062">
        <ele>2263</ele>
        <time>2019-10-06T06:06:13Z</time>
      </trkpt>
      <trkpt lat="45.67672" lon="6.88064">
        <ele>2263</ele>
        <time>2019-10-06T06:06:14Z</time>
      </trkpt>
      <trkpt lat="45.67674" lon="6.88065">
        <ele>2263</ele>
        <time>2019-10-06T06:06:15Z</time>
      </trkpt>
      <trkpt lat="45.67676" lon="6.88067">
        <ele>2263</ele>
        <time>2019-10-06T06:06:16Z</time>
      </trkpt>
      <trkpt lat="45.67678" lon="6.88068">
        <ele>2263</ele>
        <time>2019-10-06T06:06:17Z</time>
      </trkpt>
      <trkpt lat="45.67681" lon="6.8807">
        <ele>2264</ele>
        <time>2019-10-06T06:06:19Z</time>
      </trkpt>
      <trkpt lat="45.67683" lon="6.88071">
        <ele>2264</ele>
        <time>2019-10-06T06:06:20Z</time>
      </trkpt>
      <trkpt lat="45.67685" lon="6.88073">
        <ele>2264</ele>
        <time>2019-10-06T06:06:21Z</time>
      </trkpt>
      <trkpt lat="45.67687" lon="6.88075">
        <ele>2264</ele>
        <time>2019-10-06T06:06:22Z</time>
      </trkpt>
      <trkpt lat="45.67688" lon="6.88077">
        <ele>2264</ele>
        <time>2019-10-06T06:06:23Z</time>
      </trkpt>
      <trkpt lat="45.6769" lon="6.88078">
        <ele>2264</ele>
        <time>2019-10-06T06:06:24Z</time>
      </trkpt>
      <trkpt lat="45.67691" lon="6.88081">
        <ele>2264</ele>
        <time>2019-10-06T06:06:25Z</time>
      </trkpt>
      <trkpt lat="45.67693" lon="6.88082">
        <ele>2265</ele>
        <time>2019-10-06T06:06:26Z</time>
      </trkpt>
      <trkpt lat="45.67695" lon="6.88085">
        <ele>2265</ele>
        <time>2019-10-06T06:06:27Z</time>
      </trkpt>
      <trkpt lat="45.67697" lon="6.88087">
        <ele>2265</ele>
        <time>2019-10-06T06:06:28Z</time>
      </trkpt>
      <trkpt lat="45.67699" lon="6.88089">
        <ele>2265</ele>
        <time>2019-10-06T06:06:29Z</time>
      </trkpt>
      <trkpt lat="45.67701" lon="6.88091">
        <ele>2265</ele>
        <time>2019-10-06T06:06:30Z</time>
      </trkpt>
      <trkpt lat="45.67703" lon="6.88092">
        <ele>2265</ele>
        <time>2019-10-06T06:06:31Z</time>
      </trkpt>
      <trkpt lat="45.67705" lon="6.88094">
        <ele>2265</ele>
        <time>2019-10-06T06:06:32Z</time>
      </trkpt>
      <trkpt lat="45.67706" lon="6.88096">
        <ele>2265</ele>
        <time>2019-10-06T06:06:33Z</time>
      </trkpt>
      <trkpt lat="45.67708" lon="6.88098">
        <ele>2265</ele>
        <time>2019-10-06T06:06:34Z</time>
      </trkpt>
      <trkpt lat="45.6771" lon="6.881">
        <ele>2265</ele>
        <time>2019-10-06T06:06:35Z</time>
      </trkpt>
      <trkpt lat="45.67711" lon="6.88102">
        <ele>2265</ele>
        <time>2019-10-06T06:06:36Z</time>
      </trkpt>
      <trkpt lat="45.67713" lon="6.88104">
        <ele>2266</ele>
        <time>2019-10-06T06:06:37Z</time>
      </trkpt>
      <trkpt lat="45.67715" lon="6.88106">
        <ele>2267</ele>
        <time>2019-10-06T06:06:38Z</time>
      </trkpt>
      <trkpt lat="45.67716" lon="6.88107">
        <ele>2267</ele>
        <time>2019-10-06T06:06:39Z</time>
      </trkpt>
      <trkpt lat="45.67718" lon="6.88108">
        <ele>2267</ele>
        <time>2019-10-06T06:06:40Z</time>
      </trkpt>
      <trkpt lat="45.67721" lon="6.88111">
        <ele>2266</ele>
        <time>2019-10-06T06:06:42Z</time>
      </trkpt>
      <trkpt lat="45.67722" lon="6.88112">
        <ele>2267</ele>
        <time>2019-10-06T06:06:43Z</time>
      </trkpt>
      <trkpt lat="45.67724" lon="6.88114">
        <ele>2268</ele>
        <time>2019-10-06T06:06:44Z</time>
      </trkpt>
      <trkpt lat="45.67727" lon="6.88115">
        <ele>2268</ele>
        <time>2019-10-06T06:06:46Z</time>
      </trkpt>
      <trkpt lat="45.67729" lon="6.88117">
        <ele>2268</ele>
        <time>2019-10-06T06:06:47Z</time>
      </trkpt>
      <trkpt lat="45.6773" lon="6.88118">
        <ele>2268</ele>
        <time>2019-10-06T06:06:48Z</time>
      </trkpt>
      <trkpt lat="45.67732" lon="6.8812">
        <ele>2268</ele>
        <time>2019-10-06T06:06:49Z</time>
      </trkpt>
      <trkpt lat="45.67734" lon="6.88121">
        <ele>2268</ele>
        <time>2019-10-06T06:06:50Z</time>
      </trkpt>
      <trkpt lat="45.67737" lon="6.88124">
        <ele>2268</ele>
        <time>2019-10-06T06:06:52Z</time>
      </trkpt>
      <trkpt lat="45.67738" lon="6.88125">
        <ele>2268</ele>
        <time>2019-10-06T06:06:53Z</time>
      </trkpt>
      <trkpt lat="45.6774" lon="6.88127">
        <ele>2269</ele>
        <time>2019-10-06T06:06:54Z</time>
      </trkpt>
      <trkpt lat="45.67742" lon="6.88128">
        <ele>2270</ele>
        <time>2019-10-06T06:06:55Z</time>
      </trkpt>
      <trkpt lat="45.67743" lon="6.8813">
        <ele>2270</ele>
        <time>2019-10-06T06:06:56Z</time>
      </trkpt>
      <trkpt lat="45.67745" lon="6.88131">
        <ele>2270</ele>
        <time>2019-10-06T06:06:57Z</time>
      </trkpt>
      <trkpt lat="45.67748" lon="6.88133">
        <ele>2271</ele>
        <time>2019-10-06T06:06:59Z</time>
      </trkpt>
      <trkpt lat="45.67751" lon="6.88135">
        <ele>2271</ele>
        <time>2019-10-06T06:07:01Z</time>
      </trkpt>
      <trkpt lat="45.67754" lon="6.88138">
        <ele>2272</ele>
        <time>2019-10-06T06:07:03Z</time>
      </trkpt>
      <trkpt lat="45.67756" lon="6.88139">
        <ele>2272</ele>
        <time>2019-10-06T06:07:04Z</time>
      </trkpt>
      <trkpt lat="45.67757" lon="6.88141">
        <ele>2272</ele>
        <time>2019-10-06T06:07:05Z</time>
      </trkpt>
      <trkpt lat="45.67759" lon="6.88142">
        <ele>2272</ele>
        <time>2019-10-06T06:07:06Z</time>
      </trkpt>
      <trkpt lat="45.67761" lon="6.88143">
        <ele>2272</ele>
        <time>2019-10-06T06:07:07Z</time>
      </trkpt>
      <trkpt lat="45.67762" lon="6.88144">
        <ele>2272</ele>
        <time>2019-10-06T06:07:08Z</time>
      </trkpt>
      <trkpt lat="45.67765" lon="6.88148">
        <ele>2274</ele>
        <time>2019-10-06T06:07:10Z</time>
      </trkpt>
      <trkpt lat="45.67766" lon="6.88149">
        <ele>2274</ele>
        <time>2019-10-06T06:07:11Z</time>
      </trkpt>
      <trkpt lat="45.67769" lon="6.88153">
        <ele>2274</ele>
        <time>2019-10-06T06:07:13Z</time>
      </trkpt>
      <trkpt lat="45.67771" lon="6.88154">
        <ele>2274</ele>
        <time>2019-10-06T06:07:14Z</time>
      </trkpt>
      <trkpt lat="45.67774" lon="6.88156">
        <ele>2275</ele>
        <time>2019-10-06T06:07:16Z</time>
      </trkpt>
      <trkpt lat="45.67776" lon="6.88157">
        <ele>2275</ele>
        <time>2019-10-06T06:07:17Z</time>
      </trkpt>
      <trkpt lat="45.67778" lon="6.88158">
        <ele>2275</ele>
        <time>2019-10-06T06:07:18Z</time>
      </trkpt>
      <trkpt lat="45.67779" lon="6.8816">
        <ele>2275</ele>
        <time>2019-10-06T06:07:19Z</time>
      </trkpt>
      <trkpt lat="45.67781" lon="6.88162">
        <ele>2275</ele>
        <time>2019-10-06T06:07:20Z</time>
      </trkpt>
      <trkpt lat="45.67783" lon="6.88164">
        <ele>2275</ele>
        <time>2019-10-06T06:07:21Z</time>
      </trkpt>
      <trkpt lat="45.67784" lon="6.88166">
        <ele>2275</ele>
        <time>2019-10-06T06:07:22Z</time>
      </trkpt>
      <trkpt lat="45.67786" lon="6.88168">
        <ele>2276</ele>
        <time>2019-10-06T06:07:23Z</time>
      </trkpt>
      <trkpt lat="45.67787" lon="6.88169">
        <ele>2276</ele>
        <time>2019-10-06T06:07:24Z</time>
      </trkpt>
      <trkpt lat="45.67789" lon="6.88171">
        <ele>2276</ele>
        <time>2019-10-06T06:07:25Z</time>
      </trkpt>
      <trkpt lat="45.67791" lon="6.88173">
        <ele>2276</ele>
        <time>2019-10-06T06:07:26Z</time>
      </trkpt>
      <trkpt lat="45.67793" lon="6.88174">
        <ele>2275</ele>
        <time>2019-10-06T06:07:27Z</time>
      </trkpt>
      <trkpt lat="45.67795" lon="6.88176">
        <ele>2275</ele>
        <time>2019-10-06T06:07:28Z</time>
      </trkpt>
      <trkpt lat="45.67796" lon="6.88178">
        <ele>2275</ele>
        <time>2019-10-06T06:07:29Z</time>
      </trkpt>
      <trkpt lat="45.67798" lon="6.8818">
        <ele>2276</ele>
        <time>2019-10-06T06:07:30Z</time>
      </trkpt>
      <trkpt lat="45.678" lon="6.88181">
        <ele>2277</ele>
        <time>2019-10-06T06:07:31Z</time>
      </trkpt>
      <trkpt lat="45.67802" lon="6.88183">
        <ele>2277</ele>
        <time>2019-10-06T06:07:32Z</time>
      </trkpt>
      <trkpt lat="45.67803" lon="6.88184">
        <ele>2277</ele>
        <time>2019-10-06T06:07:33Z</time>
      </trkpt>
      <trkpt lat="45.67805" lon="6.88185">
        <ele>2277</ele>
        <time>2019-10-06T06:07:34Z</time>
      </trkpt>
      <trkpt lat="45.67809" lon="6.88187">
        <ele>2277</ele>
        <time>2019-10-06T06:07:36Z</time>
      </trkpt>
      <trkpt lat="45.6781" lon="6.88188">
        <ele>2278</ele>
        <time>2019-10-06T06:07:37Z</time>
      </trkpt>
      <trkpt lat="45.67812" lon="6.88189">
        <ele>2278</ele>
        <time>2019-10-06T06:07:38Z</time>
      </trkpt>
      <trkpt lat="45.67814" lon="6.8819">
        <ele>2278</ele>
        <time>2019-10-06T06:07:39Z</time>
      </trkpt>
      <trkpt lat="45.67816" lon="6.88191">
        <ele>2278</ele>
        <time>2019-10-06T06:07:40Z</time>
      </trkpt>
      <trkpt lat="45.67819" lon="6.88194">
        <ele>2278</ele>
        <time>2019-10-06T06:07:42Z</time>
      </trkpt>
      <trkpt lat="45.67821" lon="6.88195">
        <ele>2278</ele>
        <time>2019-10-06T06:07:43Z</time>
      </trkpt>
      <trkpt lat="45.67822" lon="6.88196">
        <ele>2278</ele>
        <time>2019-10-06T06:07:44Z</time>
      </trkpt>
      <trkpt lat="45.67825" lon="6.88198">
        <ele>2279</ele>
        <time>2019-10-06T06:07:46Z</time>
      </trkpt>
      <trkpt lat="45.67827" lon="6.88198">
        <ele>2279</ele>
        <time>2019-10-06T06:07:47Z</time>
      </trkpt>
      <trkpt lat="45.6783" lon="6.882">
        <ele>2279</ele>
        <time>2019-10-06T06:07:49Z</time>
      </trkpt>
      <trkpt lat="45.67833" lon="6.88202">
        <ele>2279</ele>
        <time>2019-10-06T06:07:51Z</time>
      </trkpt>
      <trkpt lat="45.67836" lon="6.88203">
        <ele>2280</ele>
        <time>2019-10-06T06:07:53Z</time>
      </trkpt>
      <trkpt lat="45.67839" lon="6.88205">
        <ele>2281</ele>
        <time>2019-10-06T06:07:55Z</time>
      </trkpt>
      <trkpt lat="45.67841" lon="6.88206">
        <ele>2281</ele>
        <time>2019-10-06T06:07:56Z</time>
      </trkpt>
      <trkpt lat="45.67845" lon="6.88207">
        <ele>2281</ele>
        <time>2019-10-06T06:07:58Z</time>
      </trkpt>
      <trkpt lat="45.67848" lon="6.88207">
        <ele>2282</ele>
        <time>2019-10-06T06:07:59Z</time>
      </trkpt>
      <trkpt lat="45.6785" lon="6.88208">
        <ele>2282</ele>
        <time>2019-10-06T06:08:00Z</time>
      </trkpt>
      <trkpt lat="45.67852" lon="6.88209">
        <ele>2282</ele>
        <time>2019-10-06T06:08:01Z</time>
      </trkpt>
      <trkpt lat="45.67854" lon="6.8821">
        <ele>2282</ele>
        <time>2019-10-06T06:08:02Z</time>
      </trkpt>
      <trkpt lat="45.67856" lon="6.8821">
        <ele>2282</ele>
        <time>2019-10-06T06:08:03Z</time>
      </trkpt>
      <trkpt lat="45.67858" lon="6.8821">
        <ele>2282</ele>
        <time>2019-10-06T06:08:04Z</time>
      </trkpt>
      <trkpt lat="45.6786" lon="6.88211">
        <ele>2282</ele>
        <time>2019-10-06T06:08:05Z</time>
      </trkpt>
      <trkpt lat="45.67862" lon="6.88212">
        <ele>2283</ele>
        <time>2019-10-06T06:08:06Z</time>
      </trkpt>
      <trkpt lat="45.67865" lon="6.88213">
        <ele>2283</ele>
        <time>2019-10-06T06:08:07Z</time>
      </trkpt>
      <trkpt lat="45.67866" lon="6.88213">
        <ele>2283</ele>
        <time>2019-10-06T06:08:08Z</time>
      </trkpt>
      <trkpt lat="45.67868" lon="6.88214">
        <ele>2283</ele>
        <time>2019-10-06T06:08:09Z</time>
      </trkpt>
      <trkpt lat="45.6787" lon="6.88215">
        <ele>2283</ele>
        <time>2019-10-06T06:08:10Z</time>
      </trkpt>
      <trkpt lat="45.67872" lon="6.88216">
        <ele>2283</ele>
        <time>2019-10-06T06:08:11Z</time>
      </trkpt>
      <trkpt lat="45.67874" lon="6.88216">
        <ele>2283</ele>
        <time>2019-10-06T06:08:12Z</time>
      </trkpt>
      <trkpt lat="45.67876" lon="6.88217">
        <ele>2283</ele>
        <time>2019-10-06T06:08:13Z</time>
      </trkpt>
      <trkpt lat="45.67878" lon="6.88219">
        <ele>2284</ele>
        <time>2019-10-06T06:08:14Z</time>
      </trkpt>
      <trkpt lat="45.67881" lon="6.8822">
        <ele>2284</ele>
        <time>2019-10-06T06:08:15Z</time>
      </trkpt>
      <trkpt lat="45.67883" lon="6.88222">
        <ele>2284</ele>
        <time>2019-10-06T06:08:16Z</time>
      </trkpt>
      <trkpt lat="45.67884" lon="6.88223">
        <ele>2284</ele>
        <time>2019-10-06T06:08:17Z</time>
      </trkpt>
      <trkpt lat="45.67886" lon="6.88225">
        <ele>2284</ele>
        <time>2019-10-06T06:08:18Z</time>
      </trkpt>
      <trkpt lat="45.67888" lon="6.88226">
        <ele>2284</ele>
        <time>2019-10-06T06:08:19Z</time>
      </trkpt>
      <trkpt lat="45.67889" lon="6.88228">
        <ele>2284</ele>
        <time>2019-10-06T06:08:20Z</time>
      </trkpt>
      <trkpt lat="45.67891" lon="6.88229">
        <ele>2284</ele>
        <time>2019-10-06T06:08:21Z</time>
      </trkpt>
      <trkpt lat="45.67893" lon="6.88231">
        <ele>2285</ele>
        <time>2019-10-06T06:08:22Z</time>
      </trkpt>
      <trkpt lat="45.67894" lon="6.88232">
        <ele>2285</ele>
        <time>2019-10-06T06:08:23Z</time>
      </trkpt>
      <trkpt lat="45.67897" lon="6.88235">
        <ele>2285</ele>
        <time>2019-10-06T06:08:25Z</time>
      </trkpt>
      <trkpt lat="45.67899" lon="6.88238">
        <ele>2285</ele>
        <time>2019-10-06T06:08:27Z</time>
      </trkpt>
      <trkpt lat="45.67901" lon="6.88239">
        <ele>2286</ele>
        <time>2019-10-06T06:08:28Z</time>
      </trkpt>
      <trkpt lat="45.67903" lon="6.88241">
        <ele>2286</ele>
        <time>2019-10-06T06:08:29Z</time>
      </trkpt>
      <trkpt lat="45.67904" lon="6.88242">
        <ele>2287</ele>
        <time>2019-10-06T06:08:30Z</time>
      </trkpt>
      <trkpt lat="45.67906" lon="6.88243">
        <ele>2287</ele>
        <time>2019-10-06T06:08:31Z</time>
      </trkpt>
      <trkpt lat="45.67908" lon="6.88244">
        <ele>2287</ele>
        <time>2019-10-06T06:08:32Z</time>
      </trkpt>
      <trkpt lat="45.6791" lon="6.88245">
        <ele>2287</ele>
        <time>2019-10-06T06:08:33Z</time>
      </trkpt>
      <trkpt lat="45.67912" lon="6.88246">
        <ele>2287</ele>
        <time>2019-10-06T06:08:34Z</time>
      </trkpt>
      <trkpt lat="45.67914" lon="6.88248">
        <ele>2287</ele>
        <time>2019-10-06T06:08:35Z</time>
      </trkpt>
      <trkpt lat="45.67916" lon="6.88249">
        <ele>2287</ele>
        <time>2019-10-06T06:08:36Z</time>
      </trkpt>
      <trkpt lat="45.67919" lon="6.88251">
        <ele>2287</ele>
        <time>2019-10-06T06:08:37Z</time>
      </trkpt>
      <trkpt lat="45.67921" lon="6.88253">
        <ele>2287</ele>
        <time>2019-10-06T06:08:38Z</time>
      </trkpt>
      <trkpt lat="45.67922" lon="6.88254">
        <ele>2287</ele>
        <time>2019-10-06T06:08:39Z</time>
      </trkpt>
      <trkpt lat="45.67924" lon="6.88256">
        <ele>2287</ele>
        <time>2019-10-06T06:08:40Z</time>
      </trkpt>
      <trkpt lat="45.67926" lon="6.88258">
        <ele>2288</ele>
        <time>2019-10-06T06:08:41Z</time>
      </trkpt>
      <trkpt lat="45.67928" lon="6.88259">
        <ele>2288</ele>
        <time>2019-10-06T06:08:42Z</time>
      </trkpt>
      <trkpt lat="45.67931" lon="6.88261">
        <ele>2288</ele>
        <time>2019-10-06T06:08:44Z</time>
      </trkpt>
      <trkpt lat="45.67934" lon="6.88263">
        <ele>2288</ele>
        <time>2019-10-06T06:08:46Z</time>
      </trkpt>
      <trkpt lat="45.67936" lon="6.88264">
        <ele>2288</ele>
        <time>2019-10-06T06:08:47Z</time>
      </trkpt>
      <trkpt lat="45.67939" lon="6.88265">
        <ele>2288</ele>
        <time>2019-10-06T06:08:48Z</time>
      </trkpt>
      <trkpt lat="45.67941" lon="6.88265">
        <ele>2289</ele>
        <time>2019-10-06T06:08:49Z</time>
      </trkpt>
      <trkpt lat="45.67943" lon="6.88265">
        <ele>2289</ele>
        <time>2019-10-06T06:08:50Z</time>
      </trkpt>
      <trkpt lat="45.67946" lon="6.88265">
        <ele>2289</ele>
        <time>2019-10-06T06:08:51Z</time>
      </trkpt>
      <trkpt lat="45.67948" lon="6.88266">
        <ele>2290</ele>
        <time>2019-10-06T06:08:52Z</time>
      </trkpt>
      <trkpt lat="45.67951" lon="6.88266">
        <ele>2290</ele>
        <time>2019-10-06T06:08:53Z</time>
      </trkpt>
      <trkpt lat="45.67953" lon="6.88267">
        <ele>2290</ele>
        <time>2019-10-06T06:08:54Z</time>
      </trkpt>
      <trkpt lat="45.67955" lon="6.88268">
        <ele>2290</ele>
        <time>2019-10-06T06:08:55Z</time>
      </trkpt>
      <trkpt lat="45.67958" lon="6.88269">
        <ele>2290</ele>
        <time>2019-10-06T06:08:56Z</time>
      </trkpt>
      <trkpt lat="45.6796" lon="6.8827">
        <ele>2289</ele>
        <time>2019-10-06T06:08:57Z</time>
      </trkpt>
      <trkpt lat="45.67962" lon="6.88271">
        <ele>2289</ele>
        <time>2019-10-06T06:08:58Z</time>
      </trkpt>
      <trkpt lat="45.67964" lon="6.88273">
        <ele>2289</ele>
        <time>2019-10-06T06:08:59Z</time>
      </trkpt>
      <trkpt lat="45.67966" lon="6.88274">
        <ele>2289</ele>
        <time>2019-10-06T06:09:00Z</time>
      </trkpt>
      <trkpt lat="45.67969" lon="6.88275">
        <ele>2289</ele>
        <time>2019-10-06T06:09:01Z</time>
      </trkpt>
      <trkpt lat="45.67971" lon="6.88277">
        <ele>2288</ele>
        <time>2019-10-06T06:09:02Z</time>
      </trkpt>
      <trkpt lat="45.67973" lon="6.88278">
        <ele>2288</ele>
        <time>2019-10-06T06:09:03Z</time>
      </trkpt>
      <trkpt lat="45.67975" lon="6.88279">
        <ele>2288</ele>
        <time>2019-10-06T06:09:04Z</time>
      </trkpt>
      <trkpt lat="45.67977" lon="6.88281">
        <ele>2288</ele>
        <time>2019-10-06T06:09:05Z</time>
      </trkpt>
      <trkpt lat="45.67979" lon="6.88282">
        <ele>2287</ele>
        <time>2019-10-06T06:09:06Z</time>
      </trkpt>
      <trkpt lat="45.67982" lon="6.88282">
        <ele>2289</ele>
        <time>2019-10-06T06:09:08Z</time>
      </trkpt>
      <trkpt lat="45.67985" lon="6.88282">
        <ele>2289</ele>
        <time>2019-10-06T06:09:10Z</time>
      </trkpt>
      <trkpt lat="45.67987" lon="6.88283">
        <ele>2289</ele>
        <time>2019-10-06T06:09:12Z</time>
      </trkpt>
      <trkpt lat="45.67989" lon="6.88285">
        <ele>2289</ele>
        <time>2019-10-06T06:09:14Z</time>
      </trkpt>
      <trkpt lat="45.6799" lon="6.88287">
        <ele>2289</ele>
        <time>2019-10-06T06:09:15Z</time>
      </trkpt>
      <trkpt lat="45.67993" lon="6.8829">
        <ele>2290</ele>
        <time>2019-10-06T06:09:17Z</time>
      </trkpt>
      <trkpt lat="45.67994" lon="6.88293">
        <ele>2290</ele>
        <time>2019-10-06T06:09:18Z</time>
      </trkpt>
      <trkpt lat="45.67995" lon="6.88295">
        <ele>2290</ele>
        <time>2019-10-06T06:09:19Z</time>
      </trkpt>
      <trkpt lat="45.67997" lon="6.88297">
        <ele>2289</ele>
        <time>2019-10-06T06:09:20Z</time>
      </trkpt>
      <trkpt lat="45.67998" lon="6.88299">
        <ele>2289</ele>
        <time>2019-10-06T06:09:21Z</time>
      </trkpt>
      <trkpt lat="45.68" lon="6.88301">
        <ele>2290</ele>
        <time>2019-10-06T06:09:22Z</time>
      </trkpt>
      <trkpt lat="45.68001" lon="6.88303">
        <ele>2290</ele>
        <time>2019-10-06T06:09:23Z</time>
      </trkpt>
      <trkpt lat="45.68005" lon="6.88306">
        <ele>2290</ele>
        <time>2019-10-06T06:09:25Z</time>
      </trkpt>
      <trkpt lat="45.68006" lon="6.88307">
        <ele>2290</ele>
        <time>2019-10-06T06:09:26Z</time>
      </trkpt>
      <trkpt lat="45.68009" lon="6.8831">
        <ele>2291</ele>
        <time>2019-10-06T06:09:28Z</time>
      </trkpt>
      <trkpt lat="45.68011" lon="6.88311">
        <ele>2291</ele>
        <time>2019-10-06T06:09:29Z</time>
      </trkpt>
      <trkpt lat="45.68013" lon="6.88313">
        <ele>2291</ele>
        <time>2019-10-06T06:09:30Z</time>
      </trkpt>
      <trkpt lat="45.68015" lon="6.88314">
        <ele>2291</ele>
        <time>2019-10-06T06:09:31Z</time>
      </trkpt>
      <trkpt lat="45.68017" lon="6.88316">
        <ele>2291</ele>
        <time>2019-10-06T06:09:32Z</time>
      </trkpt>
      <trkpt lat="45.68019" lon="6.88317">
        <ele>2291</ele>
        <time>2019-10-06T06:09:33Z</time>
      </trkpt>
      <trkpt lat="45.6802" lon="6.88319">
        <ele>2291</ele>
        <time>2019-10-06T06:09:34Z</time>
      </trkpt>
      <trkpt lat="45.68022" lon="6.8832">
        <ele>2291</ele>
        <time>2019-10-06T06:09:35Z</time>
      </trkpt>
      <trkpt lat="45.68024" lon="6.88322">
        <ele>2291</ele>
        <time>2019-10-06T06:09:36Z</time>
      </trkpt>
      <trkpt lat="45.68026" lon="6.88323">
        <ele>2292</ele>
        <time>2019-10-06T06:09:37Z</time>
      </trkpt>
      <trkpt lat="45.68029" lon="6.88324">
        <ele>2292</ele>
        <time>2019-10-06T06:09:38Z</time>
      </trkpt>
      <trkpt lat="45.68031" lon="6.88325">
        <ele>2292</ele>
        <time>2019-10-06T06:09:39Z</time>
      </trkpt>
      <trkpt lat="45.68033" lon="6.88326">
        <ele>2292</ele>
        <time>2019-10-06T06:09:40Z</time>
      </trkpt>
      <trkpt lat="45.68035" lon="6.88328">
        <ele>2292</ele>
        <time>2019-10-06T06:09:41Z</time>
      </trkpt>
      <trkpt lat="45.68037" lon="6.88329">
        <ele>2292</ele>
        <time>2019-10-06T06:09:42Z</time>
      </trkpt>
      <trkpt lat="45.68039" lon="6.8833">
        <ele>2292</ele>
        <time>2019-10-06T06:09:43Z</time>
      </trkpt>
      <trkpt lat="45.68042" lon="6.88332">
        <ele>2292</ele>
        <time>2019-10-06T06:09:44Z</time>
      </trkpt>
      <trkpt lat="45.68044" lon="6.88334">
        <ele>2291</ele>
        <time>2019-10-06T06:09:45Z</time>
      </trkpt>
      <trkpt lat="45.68046" lon="6.88335">
        <ele>2291</ele>
        <time>2019-10-06T06:09:46Z</time>
      </trkpt>
      <trkpt lat="45.68048" lon="6.88337">
        <ele>2291</ele>
        <time>2019-10-06T06:09:47Z</time>
      </trkpt>
      <trkpt lat="45.6805" lon="6.88339">
        <ele>2291</ele>
        <time>2019-10-06T06:09:48Z</time>
      </trkpt>
      <trkpt lat="45.68052" lon="6.88342">
        <ele>2291</ele>
        <time>2019-10-06T06:09:49Z</time>
      </trkpt>
      <trkpt lat="45.68054" lon="6.88344">
        <ele>2291</ele>
        <time>2019-10-06T06:09:50Z</time>
      </trkpt>
      <trkpt lat="45.68056" lon="6.88346">
        <ele>2291</ele>
        <time>2019-10-06T06:09:51Z</time>
      </trkpt>
      <trkpt lat="45.68058" lon="6.88348">
        <ele>2291</ele>
        <time>2019-10-06T06:09:52Z</time>
      </trkpt>
      <trkpt lat="45.6806" lon="6.88351">
        <ele>2291</ele>
        <time>2019-10-06T06:09:53Z</time>
      </trkpt>
      <trkpt lat="45.68062" lon="6.88353">
        <ele>2290</ele>
        <time>2019-10-06T06:09:54Z</time>
      </trkpt>
      <trkpt lat="45.68064" lon="6.88355">
        <ele>2290</ele>
        <time>2019-10-06T06:09:55Z</time>
      </trkpt>
      <trkpt lat="45.68066" lon="6.88357">
        <ele>2290</ele>
        <time>2019-10-06T06:09:56Z</time>
      </trkpt>
      <trkpt lat="45.68067" lon="6.8836">
        <ele>2290</ele>
        <time>2019-10-06T06:09:57Z</time>
      </trkpt>
      <trkpt lat="45.68069" lon="6.88362">
        <ele>2290</ele>
        <time>2019-10-06T06:09:58Z</time>
      </trkpt>
      <trkpt lat="45.68071" lon="6.88364">
        <ele>2290</ele>
        <time>2019-10-06T06:09:59Z</time>
      </trkpt>
      <trkpt lat="45.68072" lon="6.88366">
        <ele>2290</ele>
        <time>2019-10-06T06:10:00Z</time>
      </trkpt>
      <trkpt lat="45.68074" lon="6.88368">
        <ele>2290</ele>
        <time>2019-10-06T06:10:01Z</time>
      </trkpt>
      <trkpt lat="45.68076" lon="6.88371">
        <ele>2290</ele>
        <time>2019-10-06T06:10:02Z</time>
      </trkpt>
      <trkpt lat="45.68078" lon="6.88373">
        <ele>2290</ele>
        <time>2019-10-06T06:10:03Z</time>
      </trkpt>
      <trkpt lat="45.6808" lon="6.88375">
        <ele>2289</ele>
        <time>2019-10-06T06:10:04Z</time>
      </trkpt>
      <trkpt lat="45.68082" lon="6.88378">
        <ele>2290</ele>
        <time>2019-10-06T06:10:05Z</time>
      </trkpt>
      <trkpt lat="45.68083" lon="6.8838">
        <ele>2290</ele>
        <time>2019-10-06T06:10:06Z</time>
      </trkpt>
      <trkpt lat="45.68084" lon="6.88383">
        <ele>2290</ele>
        <time>2019-10-06T06:10:07Z</time>
      </trkpt>
      <trkpt lat="45.68086" lon="6.88385">
        <ele>2290</ele>
        <time>2019-10-06T06:10:08Z</time>
      </trkpt>
      <trkpt lat="45.68087" lon="6.88388">
        <ele>2290</ele>
        <time>2019-10-06T06:10:09Z</time>
      </trkpt>
      <trkpt lat="45.68089" lon="6.8839">
        <ele>2290</ele>
        <time>2019-10-06T06:10:10Z</time>
      </trkpt>
      <trkpt lat="45.6809" lon="6.88392">
        <ele>2290</ele>
        <time>2019-10-06T06:10:11Z</time>
      </trkpt>
      <trkpt lat="45.68092" lon="6.88394">
        <ele>2290</ele>
        <time>2019-10-06T06:10:12Z</time>
      </trkpt>
      <trkpt lat="45.68094" lon="6.88395">
        <ele>2290</ele>
        <time>2019-10-06T06:10:13Z</time>
      </trkpt>
      <trkpt lat="45.68097" lon="6.88397">
        <ele>2290</ele>
        <time>2019-10-06T06:10:15Z</time>
      </trkpt>
      <trkpt lat="45.68099" lon="6.88398">
        <ele>2290</ele>
        <time>2019-10-06T06:10:16Z</time>
      </trkpt>
      <trkpt lat="45.68101" lon="6.88399">
        <ele>2290</ele>
        <time>2019-10-06T06:10:17Z</time>
      </trkpt>
      <trkpt lat="45.68103" lon="6.884">
        <ele>2290</ele>
        <time>2019-10-06T06:10:18Z</time>
      </trkpt>
      <trkpt lat="45.68105" lon="6.88401">
        <ele>2291</ele>
        <time>2019-10-06T06:10:19Z</time>
      </trkpt>
      <trkpt lat="45.68107" lon="6.88402">
        <ele>2291</ele>
        <time>2019-10-06T06:10:20Z</time>
      </trkpt>
      <trkpt lat="45.68109" lon="6.88403">
        <ele>2291</ele>
        <time>2019-10-06T06:10:21Z</time>
      </trkpt>
      <trkpt lat="45.68112" lon="6.88404">
        <ele>2291</ele>
        <time>2019-10-06T06:10:22Z</time>
      </trkpt>
      <trkpt lat="45.68114" lon="6.88405">
        <ele>2291</ele>
        <time>2019-10-06T06:10:23Z</time>
      </trkpt>
      <trkpt lat="45.68116" lon="6.88406">
        <ele>2292</ele>
        <time>2019-10-06T06:10:24Z</time>
      </trkpt>
      <trkpt lat="45.68118" lon="6.88407">
        <ele>2292</ele>
        <time>2019-10-06T06:10:25Z</time>
      </trkpt>
      <trkpt lat="45.6812" lon="6.88407">
        <ele>2292</ele>
        <time>2019-10-06T06:10:26Z</time>
      </trkpt>
      <trkpt lat="45.68122" lon="6.88408">
        <ele>2292</ele>
        <time>2019-10-06T06:10:27Z</time>
      </trkpt>
      <trkpt lat="45.68124" lon="6.88408">
        <ele>2292</ele>
        <time>2019-10-06T06:10:28Z</time>
      </trkpt>
      <trkpt lat="45.68127" lon="6.88409">
        <ele>2292</ele>
        <time>2019-10-06T06:10:30Z</time>
      </trkpt>
      <trkpt lat="45.68129" lon="6.88409">
        <ele>2292</ele>
        <time>2019-10-06T06:10:31Z</time>
      </trkpt>
      <trkpt lat="45.68131" lon="6.88408">
        <ele>2292</ele>
        <time>2019-10-06T06:10:32Z</time>
      </trkpt>
      <trkpt lat="45.68133" lon="6.88408">
        <ele>2292</ele>
        <time>2019-10-06T06:10:33Z</time>
      </trkpt>
      <trkpt lat="45.68136" lon="6.88408">
        <ele>2292</ele>
        <time>2019-10-06T06:10:34Z</time>
      </trkpt>
      <trkpt lat="45.68138" lon="6.88408">
        <ele>2292</ele>
        <time>2019-10-06T06:10:35Z</time>
      </trkpt>
      <trkpt lat="45.6814" lon="6.88409">
        <ele>2292</ele>
        <time>2019-10-06T06:10:36Z</time>
      </trkpt>
      <trkpt lat="45.68142" lon="6.8841">
        <ele>2292</ele>
        <time>2019-10-06T06:10:37Z</time>
      </trkpt>
      <trkpt lat="45.68144" lon="6.8841">
        <ele>2293</ele>
        <time>2019-10-06T06:10:38Z</time>
      </trkpt>
      <trkpt lat="45.68146" lon="6.88411">
        <ele>2293</ele>
        <time>2019-10-06T06:10:39Z</time>
      </trkpt>
      <trkpt lat="45.68148" lon="6.88412">
        <ele>2293</ele>
        <time>2019-10-06T06:10:40Z</time>
      </trkpt>
      <trkpt lat="45.6815" lon="6.88413">
        <ele>2293</ele>
        <time>2019-10-06T06:10:41Z</time>
      </trkpt>
      <trkpt lat="45.68152" lon="6.88414">
        <ele>2293</ele>
        <time>2019-10-06T06:10:42Z</time>
      </trkpt>
      <trkpt lat="45.68154" lon="6.88415">
        <ele>2293</ele>
        <time>2019-10-06T06:10:43Z</time>
      </trkpt>
      <trkpt lat="45.68156" lon="6.88416">
        <ele>2293</ele>
        <time>2019-10-06T06:10:44Z</time>
      </trkpt>
      <trkpt lat="45.68158" lon="6.88417">
        <ele>2293</ele>
        <time>2019-10-06T06:10:45Z</time>
      </trkpt>
      <trkpt lat="45.6816" lon="6.88418">
        <ele>2293</ele>
        <time>2019-10-06T06:10:46Z</time>
      </trkpt>
      <trkpt lat="45.68162" lon="6.8842">
        <ele>2293</ele>
        <time>2019-10-06T06:10:47Z</time>
      </trkpt>
      <trkpt lat="45.68164" lon="6.88421">
        <ele>2293</ele>
        <time>2019-10-06T06:10:48Z</time>
      </trkpt>
      <trkpt lat="45.68166" lon="6.88422">
        <ele>2293</ele>
        <time>2019-10-06T06:10:49Z</time>
      </trkpt>
      <trkpt lat="45.68169" lon="6.88423">
        <ele>2293</ele>
        <time>2019-10-06T06:10:50Z</time>
      </trkpt>
      <trkpt lat="45.68171" lon="6.88425">
        <ele>2292</ele>
        <time>2019-10-06T06:10:51Z</time>
      </trkpt>
      <trkpt lat="45.68172" lon="6.88426">
        <ele>2292</ele>
        <time>2019-10-06T06:10:52Z</time>
      </trkpt>
      <trkpt lat="45.68174" lon="6.88428">
        <ele>2292</ele>
        <time>2019-10-06T06:10:53Z</time>
      </trkpt>
      <trkpt lat="45.68176" lon="6.88429">
        <ele>2292</ele>
        <time>2019-10-06T06:10:54Z</time>
      </trkpt>
      <trkpt lat="45.68178" lon="6.88431">
        <ele>2292</ele>
        <time>2019-10-06T06:10:55Z</time>
      </trkpt>
      <trkpt lat="45.6818" lon="6.88432">
        <ele>2292</ele>
        <time>2019-10-06T06:10:56Z</time>
      </trkpt>
      <trkpt lat="45.68182" lon="6.88434">
        <ele>2291</ele>
        <time>2019-10-06T06:10:57Z</time>
      </trkpt>
      <trkpt lat="45.68184" lon="6.88436">
        <ele>2291</ele>
        <time>2019-10-06T06:10:58Z</time>
      </trkpt>
      <trkpt lat="45.68186" lon="6.88438">
        <ele>2291</ele>
        <time>2019-10-06T06:10:59Z</time>
      </trkpt>
      <trkpt lat="45.68188" lon="6.88439">
        <ele>2291</ele>
        <time>2019-10-06T06:11:00Z</time>
      </trkpt>
      <trkpt lat="45.6819" lon="6.88441">
        <ele>2291</ele>
        <time>2019-10-06T06:11:01Z</time>
      </trkpt>
      <trkpt lat="45.68192" lon="6.88442">
        <ele>2291</ele>
        <time>2019-10-06T06:11:02Z</time>
      </trkpt>
      <trkpt lat="45.68193" lon="6.88444">
        <ele>2291</ele>
        <time>2019-10-06T06:11:03Z</time>
      </trkpt>
      <trkpt lat="45.68195" lon="6.88445">
        <ele>2291</ele>
        <time>2019-10-06T06:11:04Z</time>
      </trkpt>
      <trkpt lat="45.68197" lon="6.88447">
        <ele>2290</ele>
        <time>2019-10-06T06:11:05Z</time>
      </trkpt>
      <trkpt lat="45.68199" lon="6.88448">
        <ele>2290</ele>
        <time>2019-10-06T06:11:06Z</time>
      </trkpt>
      <trkpt lat="45.682" lon="6.88449">
        <ele>2289</ele>
        <time>2019-10-06T06:11:07Z</time>
      </trkpt>
      <trkpt lat="45.68202" lon="6.88451">
        <ele>2289</ele>
        <time>2019-10-06T06:11:08Z</time>
      </trkpt>
      <trkpt lat="45.68204" lon="6.88453">
        <ele>2289</ele>
        <time>2019-10-06T06:11:09Z</time>
      </trkpt>
      <trkpt lat="45.68207" lon="6.88456">
        <ele>2288</ele>
        <time>2019-10-06T06:11:11Z</time>
      </trkpt>
      <trkpt lat="45.68208" lon="6.88458">
        <ele>2287</ele>
        <time>2019-10-06T06:11:12Z</time>
      </trkpt>
      <trkpt lat="45.68209" lon="6.8846">
        <ele>2287</ele>
        <time>2019-10-06T06:11:13Z</time>
      </trkpt>
      <trkpt lat="45.68211" lon="6.88463">
        <ele>2286</ele>
        <time>2019-10-06T06:11:14Z</time>
      </trkpt>
      <trkpt lat="45.68212" lon="6.88465">
        <ele>2286</ele>
        <time>2019-10-06T06:11:15Z</time>
      </trkpt>
      <trkpt lat="45.68214" lon="6.88468">
        <ele>2286</ele>
        <time>2019-10-06T06:11:16Z</time>
      </trkpt>
      <trkpt lat="45.68216" lon="6.8847">
        <ele>2286</ele>
        <time>2019-10-06T06:11:17Z</time>
      </trkpt>
      <trkpt lat="45.68218" lon="6.88473">
        <ele>2286</ele>
        <time>2019-10-06T06:11:18Z</time>
      </trkpt>
      <trkpt lat="45.6822" lon="6.88475">
        <ele>2286</ele>
        <time>2019-10-06T06:11:19Z</time>
      </trkpt>
      <trkpt lat="45.68221" lon="6.88477">
        <ele>2285</ele>
        <time>2019-10-06T06:11:20Z</time>
      </trkpt>
      <trkpt lat="45.68223" lon="6.8848">
        <ele>2285</ele>
        <time>2019-10-06T06:11:21Z</time>
      </trkpt>
      <trkpt lat="45.68225" lon="6.88482">
        <ele>2285</ele>
        <time>2019-10-06T06:11:22Z</time>
      </trkpt>
      <trkpt lat="45.68227" lon="6.88484">
        <ele>2285</ele>
        <time>2019-10-06T06:11:23Z</time>
      </trkpt>
      <trkpt lat="45.68228" lon="6.88487">
        <ele>2285</ele>
        <time>2019-10-06T06:11:24Z</time>
      </trkpt>
      <trkpt lat="45.6823" lon="6.88489">
        <ele>2286</ele>
        <time>2019-10-06T06:11:25Z</time>
      </trkpt>
      <trkpt lat="45.68232" lon="6.88491">
        <ele>2286</ele>
        <time>2019-10-06T06:11:26Z</time>
      </trkpt>
      <trkpt lat="45.68233" lon="6.88494">
        <ele>2286</ele>
        <time>2019-10-06T06:11:27Z</time>
      </trkpt>
      <trkpt lat="45.68235" lon="6.88496">
        <ele>2286</ele>
        <time>2019-10-06T06:11:28Z</time>
      </trkpt>
      <trkpt lat="45.68237" lon="6.88499">
        <ele>2286</ele>
        <time>2019-10-06T06:11:29Z</time>
      </trkpt>
      <trkpt lat="45.68238" lon="6.88501">
        <ele>2286</ele>
        <time>2019-10-06T06:11:30Z</time>
      </trkpt>
      <trkpt lat="45.6824" lon="6.88503">
        <ele>2286</ele>
        <time>2019-10-06T06:11:31Z</time>
      </trkpt>
      <trkpt lat="45.68242" lon="6.88505">
        <ele>2286</ele>
        <time>2019-10-06T06:11:32Z</time>
      </trkpt>
      <trkpt lat="45.68244" lon="6.88506">
        <ele>2286</ele>
        <time>2019-10-06T06:11:33Z</time>
      </trkpt>
      <trkpt lat="45.68246" lon="6.88508">
        <ele>2286</ele>
        <time>2019-10-06T06:11:34Z</time>
      </trkpt>
      <trkpt lat="45.68248" lon="6.8851">
        <ele>2286</ele>
        <time>2019-10-06T06:11:35Z</time>
      </trkpt>
      <trkpt lat="45.6825" lon="6.88512">
        <ele>2286</ele>
        <time>2019-10-06T06:11:36Z</time>
      </trkpt>
      <trkpt lat="45.68252" lon="6.88514">
        <ele>2286</ele>
        <time>2019-10-06T06:11:37Z</time>
      </trkpt>
      <trkpt lat="45.68254" lon="6.88515">
        <ele>2285</ele>
        <time>2019-10-06T06:11:38Z</time>
      </trkpt>
      <trkpt lat="45.68256" lon="6.88516">
        <ele>2286</ele>
        <time>2019-10-06T06:11:39Z</time>
      </trkpt>
      <trkpt lat="45.68258" lon="6.88517">
        <ele>2286</ele>
        <time>2019-10-06T06:11:40Z</time>
      </trkpt>
      <trkpt lat="45.6826" lon="6.88519">
        <ele>2287</ele>
        <time>2019-10-06T06:11:41Z</time>
      </trkpt>
      <trkpt lat="45.68263" lon="6.8852">
        <ele>2287</ele>
        <time>2019-10-06T06:11:42Z</time>
      </trkpt>
      <trkpt lat="45.68265" lon="6.88522">
        <ele>2287</ele>
        <time>2019-10-06T06:11:43Z</time>
      </trkpt>
      <trkpt lat="45.68267" lon="6.88523">
        <ele>2287</ele>
        <time>2019-10-06T06:11:44Z</time>
      </trkpt>
      <trkpt lat="45.6827" lon="6.88525">
        <ele>2287</ele>
        <time>2019-10-06T06:11:45Z</time>
      </trkpt>
      <trkpt lat="45.68272" lon="6.88527">
        <ele>2287</ele>
        <time>2019-10-06T06:11:46Z</time>
      </trkpt>
      <trkpt lat="45.68275" lon="6.88528">
        <ele>2287</ele>
        <time>2019-10-06T06:11:47Z</time>
      </trkpt>
      <trkpt lat="45.68277" lon="6.8853">
        <ele>2287</ele>
        <time>2019-10-06T06:11:48Z</time>
      </trkpt>
      <trkpt lat="45.68279" lon="6.88533">
        <ele>2287</ele>
        <time>2019-10-06T06:11:49Z</time>
      </trkpt>
      <trkpt lat="45.68282" lon="6.88535">
        <ele>2287</ele>
        <time>2019-10-06T06:11:50Z</time>
      </trkpt>
      <trkpt lat="45.68284" lon="6.88537">
        <ele>2287</ele>
        <time>2019-10-06T06:11:51Z</time>
      </trkpt>
      <trkpt lat="45.68286" lon="6.88539">
        <ele>2287</ele>
        <time>2019-10-06T06:11:52Z</time>
      </trkpt>
      <trkpt lat="45.68288" lon="6.88541">
        <ele>2287</ele>
        <time>2019-10-06T06:11:53Z</time>
      </trkpt>
      <trkpt lat="45.6829" lon="6.88543">
        <ele>2287</ele>
        <time>2019-10-06T06:11:54Z</time>
      </trkpt>
      <trkpt lat="45.68292" lon="6.88546">
        <ele>2286</ele>
        <time>2019-10-06T06:11:55Z</time>
      </trkpt>
      <trkpt lat="45.68295" lon="6.88548">
        <ele>2286</ele>
        <time>2019-10-06T06:11:56Z</time>
      </trkpt>
      <trkpt lat="45.68296" lon="6.88551">
        <ele>2286</ele>
        <time>2019-10-06T06:11:57Z</time>
      </trkpt>
      <trkpt lat="45.68298" lon="6.88553">
        <ele>2286</ele>
        <time>2019-10-06T06:11:58Z</time>
      </trkpt>
      <trkpt lat="45.683" lon="6.88555">
        <ele>2286</ele>
        <time>2019-10-06T06:11:59Z</time>
      </trkpt>
      <trkpt lat="45.68302" lon="6.88556">
        <ele>2286</ele>
        <time>2019-10-06T06:12:00Z</time>
      </trkpt>
      <trkpt lat="45.68305" lon="6.88558">
        <ele>2286</ele>
        <time>2019-10-06T06:12:01Z</time>
      </trkpt>
      <trkpt lat="45.68307" lon="6.88559">
        <ele>2286</ele>
        <time>2019-10-06T06:12:02Z</time>
      </trkpt>
      <trkpt lat="45.68309" lon="6.8856">
        <ele>2286</ele>
        <time>2019-10-06T06:12:03Z</time>
      </trkpt>
      <trkpt lat="45.68312" lon="6.88561">
        <ele>2286</ele>
        <time>2019-10-06T06:12:04Z</time>
      </trkpt>
      <trkpt lat="45.68314" lon="6.88562">
        <ele>2286</ele>
        <time>2019-10-06T06:12:05Z</time>
      </trkpt>
      <trkpt lat="45.68316" lon="6.88563">
        <ele>2286</ele>
        <time>2019-10-06T06:12:06Z</time>
      </trkpt>
      <trkpt lat="45.68319" lon="6.88564">
        <ele>2285</ele>
        <time>2019-10-06T06:12:07Z</time>
      </trkpt>
      <trkpt lat="45.68321" lon="6.88564">
        <ele>2285</ele>
        <time>2019-10-06T06:12:08Z</time>
      </trkpt>
      <trkpt lat="45.68324" lon="6.88565">
        <ele>2285</ele>
        <time>2019-10-06T06:12:09Z</time>
      </trkpt>
      <trkpt lat="45.68326" lon="6.88565">
        <ele>2285</ele>
        <time>2019-10-06T06:12:10Z</time>
      </trkpt>
      <trkpt lat="45.68329" lon="6.88566">
        <ele>2285</ele>
        <time>2019-10-06T06:12:11Z</time>
      </trkpt>
      <trkpt lat="45.68331" lon="6.88567">
        <ele>2285</ele>
        <time>2019-10-06T06:12:12Z</time>
      </trkpt>
      <trkpt lat="45.68333" lon="6.88568">
        <ele>2286</ele>
        <time>2019-10-06T06:12:13Z</time>
      </trkpt>
      <trkpt lat="45.68335" lon="6.88569">
        <ele>2286</ele>
        <time>2019-10-06T06:12:14Z</time>
      </trkpt>
      <trkpt lat="45.68337" lon="6.88571">
        <ele>2286</ele>
        <time>2019-10-06T06:12:15Z</time>
      </trkpt>
      <trkpt lat="45.68339" lon="6.88572">
        <ele>2286</ele>
        <time>2019-10-06T06:12:16Z</time>
      </trkpt>
      <trkpt lat="45.68341" lon="6.88574">
        <ele>2286</ele>
        <time>2019-10-06T06:12:17Z</time>
      </trkpt>
      <trkpt lat="45.68343" lon="6.88576">
        <ele>2286</ele>
        <time>2019-10-06T06:12:18Z</time>
      </trkpt>
      <trkpt lat="45.68346" lon="6.88578">
        <ele>2286</ele>
        <time>2019-10-06T06:12:19Z</time>
      </trkpt>
      <trkpt lat="45.68348" lon="6.8858">
        <ele>2285</ele>
        <time>2019-10-06T06:12:20Z</time>
      </trkpt>
      <trkpt lat="45.6835" lon="6.88582">
        <ele>2285</ele>
        <time>2019-10-06T06:12:21Z</time>
      </trkpt>
      <trkpt lat="45.68352" lon="6.88584">
        <ele>2285</ele>
        <time>2019-10-06T06:12:22Z</time>
      </trkpt>
      <trkpt lat="45.68355" lon="6.88587">
        <ele>2285</ele>
        <time>2019-10-06T06:12:23Z</time>
      </trkpt>
      <trkpt lat="45.68357" lon="6.88589">
        <ele>2284</ele>
        <time>2019-10-06T06:12:24Z</time>
      </trkpt>
      <trkpt lat="45.68359" lon="6.88591">
        <ele>2284</ele>
        <time>2019-10-06T06:12:25Z</time>
      </trkpt>
      <trkpt lat="45.68361" lon="6.88593">
        <ele>2284</ele>
        <time>2019-10-06T06:12:26Z</time>
      </trkpt>
      <trkpt lat="45.68363" lon="6.88595">
        <ele>2284</ele>
        <time>2019-10-06T06:12:27Z</time>
      </trkpt>
      <trkpt lat="45.68365" lon="6.88597">
        <ele>2284</ele>
        <time>2019-10-06T06:12:28Z</time>
      </trkpt>
      <trkpt lat="45.68367" lon="6.88599">
        <ele>2284</ele>
        <time>2019-10-06T06:12:29Z</time>
      </trkpt>
      <trkpt lat="45.68369" lon="6.88601">
        <ele>2284</ele>
        <time>2019-10-06T06:12:30Z</time>
      </trkpt>
      <trkpt lat="45.68371" lon="6.88603">
        <ele>2284</ele>
        <time>2019-10-06T06:12:31Z</time>
      </trkpt>
      <trkpt lat="45.68373" lon="6.88604">
        <ele>2284</ele>
        <time>2019-10-06T06:12:32Z</time>
      </trkpt>
      <trkpt lat="45.68375" lon="6.88604">
        <ele>2284</ele>
        <time>2019-10-06T06:12:33Z</time>
      </trkpt>
      <trkpt lat="45.68378" lon="6.88604">
        <ele>2284</ele>
        <time>2019-10-06T06:12:34Z</time>
      </trkpt>
      <trkpt lat="45.6838" lon="6.88603">
        <ele>2283</ele>
        <time>2019-10-06T06:12:35Z</time>
      </trkpt>
      <trkpt lat="45.68382" lon="6.88602">
        <ele>2283</ele>
        <time>2019-10-06T06:12:36Z</time>
      </trkpt>
      <trkpt lat="45.68384" lon="6.886">
        <ele>2284</ele>
        <time>2019-10-06T06:12:37Z</time>
      </trkpt>
      <trkpt lat="45.68386" lon="6.88598">
        <ele>2284</ele>
        <time>2019-10-06T06:12:38Z</time>
      </trkpt>
      <trkpt lat="45.68388" lon="6.88597">
        <ele>2284</ele>
        <time>2019-10-06T06:12:39Z</time>
      </trkpt>
      <trkpt lat="45.68391" lon="6.88595">
        <ele>2284</ele>
        <time>2019-10-06T06:12:40Z</time>
      </trkpt>
      <trkpt lat="45.68393" lon="6.88594">
        <ele>2284</ele>
        <time>2019-10-06T06:12:41Z</time>
      </trkpt>
      <trkpt lat="45.68396" lon="6.88593">
        <ele>2285</ele>
        <time>2019-10-06T06:12:42Z</time>
      </trkpt>
      <trkpt lat="45.68398" lon="6.88592">
        <ele>2285</ele>
        <time>2019-10-06T06:12:43Z</time>
      </trkpt>
      <trkpt lat="45.684" lon="6.88591">
        <ele>2286</ele>
        <time>2019-10-06T06:12:44Z</time>
      </trkpt>
      <trkpt lat="45.68402" lon="6.8859">
        <ele>2287</ele>
        <time>2019-10-06T06:12:45Z</time>
      </trkpt>
      <trkpt lat="45.68405" lon="6.8859">
        <ele>2287</ele>
        <time>2019-10-06T06:12:46Z</time>
      </trkpt>
      <trkpt lat="45.68407" lon="6.88589">
        <ele>2288</ele>
        <time>2019-10-06T06:12:47Z</time>
      </trkpt>
      <trkpt lat="45.68409" lon="6.88589">
        <ele>2288</ele>
        <time>2019-10-06T06:12:48Z</time>
      </trkpt>
      <trkpt lat="45.68412" lon="6.88589">
        <ele>2288</ele>
        <time>2019-10-06T06:12:49Z</time>
      </trkpt>
      <trkpt lat="45.68414" lon="6.8859">
        <ele>2288</ele>
        <time>2019-10-06T06:12:50Z</time>
      </trkpt>
      <trkpt lat="45.68417" lon="6.8859">
        <ele>2288</ele>
        <time>2019-10-06T06:12:51Z</time>
      </trkpt>
      <trkpt lat="45.68419" lon="6.88591">
        <ele>2288</ele>
        <time>2019-10-06T06:12:52Z</time>
      </trkpt>
      <trkpt lat="45.68422" lon="6.88592">
        <ele>2288</ele>
        <time>2019-10-06T06:12:53Z</time>
      </trkpt>
      <trkpt lat="45.68424" lon="6.88594">
        <ele>2288</ele>
        <time>2019-10-06T06:12:54Z</time>
      </trkpt>
      <trkpt lat="45.68426" lon="6.88595">
        <ele>2288</ele>
        <time>2019-10-06T06:12:55Z</time>
      </trkpt>
      <trkpt lat="45.68428" lon="6.88597">
        <ele>2288</ele>
        <time>2019-10-06T06:12:56Z</time>
      </trkpt>
      <trkpt lat="45.68431" lon="6.88599">
        <ele>2288</ele>
        <time>2019-10-06T06:12:57Z</time>
      </trkpt>
      <trkpt lat="45.68433" lon="6.88602">
        <ele>2288</ele>
        <time>2019-10-06T06:12:58Z</time>
      </trkpt>
      <trkpt lat="45.68434" lon="6.88604">
        <ele>2288</ele>
        <time>2019-10-06T06:12:59Z</time>
      </trkpt>
      <trkpt lat="45.68436" lon="6.88607">
        <ele>2288</ele>
        <time>2019-10-06T06:13:00Z</time>
      </trkpt>
      <trkpt lat="45.68438" lon="6.8861">
        <ele>2288</ele>
        <time>2019-10-06T06:13:01Z</time>
      </trkpt>
      <trkpt lat="45.68439" lon="6.88613">
        <ele>2288</ele>
        <time>2019-10-06T06:13:02Z</time>
      </trkpt>
      <trkpt lat="45.68441" lon="6.88616">
        <ele>2288</ele>
        <time>2019-10-06T06:13:03Z</time>
      </trkpt>
      <trkpt lat="45.68443" lon="6.88619">
        <ele>2288</ele>
        <time>2019-10-06T06:13:04Z</time>
      </trkpt>
      <trkpt lat="45.68444" lon="6.88622">
        <ele>2288</ele>
        <time>2019-10-06T06:13:05Z</time>
      </trkpt>
      <trkpt lat="45.68446" lon="6.88624">
        <ele>2288</ele>
        <time>2019-10-06T06:13:06Z</time>
      </trkpt>
      <trkpt lat="45.68448" lon="6.88627">
        <ele>2288</ele>
        <time>2019-10-06T06:13:07Z</time>
      </trkpt>
      <trkpt lat="45.68449" lon="6.8863">
        <ele>2288</ele>
        <time>2019-10-06T06:13:08Z</time>
      </trkpt>
      <trkpt lat="45.68451" lon="6.88633">
        <ele>2288</ele>
        <time>2019-10-06T06:13:09Z</time>
      </trkpt>
      <trkpt lat="45.68452" lon="6.88636">
        <ele>2288</ele>
        <time>2019-10-06T06:13:10Z</time>
      </trkpt>
      <trkpt lat="45.68454" lon="6.88638">
        <ele>2288</ele>
        <time>2019-10-06T06:13:11Z</time>
      </trkpt>
      <trkpt lat="45.68455" lon="6.88641">
        <ele>2288</ele>
        <time>2019-10-06T06:13:12Z</time>
      </trkpt>
      <trkpt lat="45.68457" lon="6.88644">
        <ele>2288</ele>
        <time>2019-10-06T06:13:13Z</time>
      </trkpt>
      <trkpt lat="45.68459" lon="6.88646">
        <ele>2288</ele>
        <time>2019-10-06T06:13:14Z</time>
      </trkpt>
      <trkpt lat="45.6846" lon="6.88649">
        <ele>2288</ele>
        <time>2019-10-06T06:13:15Z</time>
      </trkpt>
      <trkpt lat="45.68461" lon="6.88652">
        <ele>2288</ele>
        <time>2019-10-06T06:13:16Z</time>
      </trkpt>
      <trkpt lat="45.68462" lon="6.88655">
        <ele>2287</ele>
        <time>2019-10-06T06:13:17Z</time>
      </trkpt>
      <trkpt lat="45.68464" lon="6.88657">
        <ele>2287</ele>
        <time>2019-10-06T06:13:18Z</time>
      </trkpt>
      <trkpt lat="45.68465" lon="6.8866">
        <ele>2287</ele>
        <time>2019-10-06T06:13:19Z</time>
      </trkpt>
      <trkpt lat="45.68467" lon="6.88662">
        <ele>2287</ele>
        <time>2019-10-06T06:13:20Z</time>
      </trkpt>
      <trkpt lat="45.68469" lon="6.88665">
        <ele>2286</ele>
        <time>2019-10-06T06:13:21Z</time>
      </trkpt>
      <trkpt lat="45.6847" lon="6.88668">
        <ele>2286</ele>
        <time>2019-10-06T06:13:22Z</time>
      </trkpt>
      <trkpt lat="45.68471" lon="6.8867">
        <ele>2286</ele>
        <time>2019-10-06T06:13:23Z</time>
      </trkpt>
      <trkpt lat="45.68472" lon="6.88673">
        <ele>2285</ele>
        <time>2019-10-06T06:13:24Z</time>
      </trkpt>
      <trkpt lat="45.68474" lon="6.88676">
        <ele>2285</ele>
        <time>2019-10-06T06:13:25Z</time>
      </trkpt>
      <trkpt lat="45.68475" lon="6.88678">
        <ele>2285</ele>
        <time>2019-10-06T06:13:26Z</time>
      </trkpt>
      <trkpt lat="45.68477" lon="6.88681">
        <ele>2284</ele>
        <time>2019-10-06T06:13:27Z</time>
      </trkpt>
      <trkpt lat="45.68478" lon="6.88683">
        <ele>2283</ele>
        <time>2019-10-06T06:13:28Z</time>
      </trkpt>
      <trkpt lat="45.6848" lon="6.88686">
        <ele>2283</ele>
        <time>2019-10-06T06:13:29Z</time>
      </trkpt>
      <trkpt lat="45.68482" lon="6.88689">
        <ele>2282</ele>
        <time>2019-10-06T06:13:30Z</time>
      </trkpt>
      <trkpt lat="45.68484" lon="6.88691">
        <ele>2282</ele>
        <time>2019-10-06T06:13:31Z</time>
      </trkpt>
      <trkpt lat="45.68486" lon="6.88694">
        <ele>2281</ele>
        <time>2019-10-06T06:13:32Z</time>
      </trkpt>
      <trkpt lat="45.68488" lon="6.88697">
        <ele>2280</ele>
        <time>2019-10-06T06:13:33Z</time>
      </trkpt>
      <trkpt lat="45.6849" lon="6.887">
        <ele>2279</ele>
        <time>2019-10-06T06:13:34Z</time>
      </trkpt>
      <trkpt lat="45.68492" lon="6.88703">
        <ele>2278</ele>
        <time>2019-10-06T06:13:35Z</time>
      </trkpt>
      <trkpt lat="45.68494" lon="6.88705">
        <ele>2278</ele>
        <time>2019-10-06T06:13:36Z</time>
      </trkpt>
      <trkpt lat="45.68496" lon="6.88708">
        <ele>2277</ele>
        <time>2019-10-06T06:13:37Z</time>
      </trkpt>
      <trkpt lat="45.68497" lon="6.88709">
        <ele>2276</ele>
        <time>2019-10-06T06:13:38Z</time>
      </trkpt>
      <trkpt lat="45.685" lon="6.88711">
        <ele>2275</ele>
        <time>2019-10-06T06:13:39Z</time>
      </trkpt>
      <trkpt lat="45.68502" lon="6.88713">
        <ele>2275</ele>
        <time>2019-10-06T06:13:40Z</time>
      </trkpt>
      <trkpt lat="45.68503" lon="6.88715">
        <ele>2274</ele>
        <time>2019-10-06T06:13:41Z</time>
      </trkpt>
      <trkpt lat="45.68505" lon="6.88717">
        <ele>2274</ele>
        <time>2019-10-06T06:13:43Z</time>
      </trkpt>
      <trkpt lat="45.68508" lon="6.88719">
        <ele>2272</ele>
        <time>2019-10-06T06:13:45Z</time>
      </trkpt>
      <trkpt lat="45.68508" lon="6.88719">
        <ele>2272</ele>
        <time>2019-10-06T06:13:47Z</time>
      </trkpt>
      <trkpt lat="45.68509" lon="6.88721">
        <ele>2270</ele>
        <time>2019-10-06T06:13:49Z</time>
      </trkpt>
      <trkpt lat="45.68511" lon="6.88722">
        <ele>2268</ele>
        <time>2019-10-06T06:13:52Z</time>
      </trkpt>
      <trkpt lat="45.68511" lon="6.88722">
        <ele>2268</ele>
        <time>2019-10-06T06:13:53Z</time>
      </trkpt>
      <trkpt lat="45.68514" lon="6.88724">
        <ele>2268</ele>
        <time>2019-10-06T06:13:55Z</time>
      </trkpt>
      <trkpt lat="45.68515" lon="6.88725">
        <ele>2267</ele>
        <time>2019-10-06T06:13:57Z</time>
      </trkpt>
      <trkpt lat="45.68518" lon="6.88727">
        <ele>2266</ele>
        <time>2019-10-06T06:13:59Z</time>
      </trkpt>
      <trkpt lat="45.6852" lon="6.88728">
        <ele>2266</ele>
        <time>2019-10-06T06:14:01Z</time>
      </trkpt>
      <trkpt lat="45.6852" lon="6.88728">
        <ele>2267</ele>
        <time>2019-10-06T06:14:03Z</time>
      </trkpt>
      <trkpt lat="45.68523" lon="6.88727">
        <ele>2267</ele>
        <time>2019-10-06T06:14:04Z</time>
      </trkpt>
      <trkpt lat="45.68525" lon="6.88726">
        <ele>2268</ele>
        <time>2019-10-06T06:14:07Z</time>
      </trkpt>
      <trkpt lat="45.68525" lon="6.88726">
        <ele>2269</ele>
        <time>2019-10-06T06:14:09Z</time>
      </trkpt>
      <trkpt lat="45.68527" lon="6.88726">
        <ele>2270</ele>
        <time>2019-10-06T06:14:11Z</time>
      </trkpt>
      <trkpt lat="45.6853" lon="6.88727">
        <ele>2271</ele>
        <time>2019-10-06T06:14:13Z</time>
      </trkpt>
      <trkpt lat="45.68532" lon="6.88728">
        <ele>2272</ele>
        <time>2019-10-06T06:14:15Z</time>
      </trkpt>
      <trkpt lat="45.68534" lon="6.88728">
        <ele>2272</ele>
        <time>2019-10-06T06:14:17Z</time>
      </trkpt>
      <trkpt lat="45.68536" lon="6.88729">
        <ele>2272</ele>
        <time>2019-10-06T06:14:19Z</time>
      </trkpt>
      <trkpt lat="45.68538" lon="6.88732">
        <ele>2271</ele>
        <time>2019-10-06T06:14:21Z</time>
      </trkpt>
      <trkpt lat="45.68541" lon="6.88735">
        <ele>2271</ele>
        <time>2019-10-06T06:14:23Z</time>
      </trkpt>
      <trkpt lat="45.68543" lon="6.88736">
        <ele>2272</ele>
        <time>2019-10-06T06:14:25Z</time>
      </trkpt>
      <trkpt lat="45.68545" lon="6.88739">
        <ele>2272</ele>
        <time>2019-10-06T06:14:27Z</time>
      </trkpt>
      <trkpt lat="45.68547" lon="6.88741">
        <ele>2274</ele>
        <time>2019-10-06T06:14:29Z</time>
      </trkpt>
      <trkpt lat="45.68549" lon="6.88743">
        <ele>2276</ele>
        <time>2019-10-06T06:14:31Z</time>
      </trkpt>
      <trkpt lat="45.68551" lon="6.88746">
        <ele>2276</ele>
        <time>2019-10-06T06:14:33Z</time>
      </trkpt>
      <trkpt lat="45.68554" lon="6.88749">
        <ele>2277</ele>
        <time>2019-10-06T06:14:35Z</time>
      </trkpt>
      <trkpt lat="45.68555" lon="6.88751">
        <ele>2277</ele>
        <time>2019-10-06T06:14:36Z</time>
      </trkpt>
      <trkpt lat="45.68556" lon="6.88753">
        <ele>2277</ele>
        <time>2019-10-06T06:14:37Z</time>
      </trkpt>
      <trkpt lat="45.68557" lon="6.88756">
        <ele>2277</ele>
        <time>2019-10-06T06:14:38Z</time>
      </trkpt>
      <trkpt lat="45.68558" lon="6.88759">
        <ele>2277</ele>
        <time>2019-10-06T06:14:39Z</time>
      </trkpt>
      <trkpt lat="45.68559" lon="6.88762">
        <ele>2276</ele>
        <time>2019-10-06T06:14:40Z</time>
      </trkpt>
      <trkpt lat="45.6856" lon="6.88765">
        <ele>2276</ele>
        <time>2019-10-06T06:14:41Z</time>
      </trkpt>
      <trkpt lat="45.68561" lon="6.88767">
        <ele>2276</ele>
        <time>2019-10-06T06:14:42Z</time>
      </trkpt>
      <trkpt lat="45.68563" lon="6.8877">
        <ele>2276</ele>
        <time>2019-10-06T06:14:43Z</time>
      </trkpt>
      <trkpt lat="45.68564" lon="6.88772">
        <ele>2276</ele>
        <time>2019-10-06T06:14:44Z</time>
      </trkpt>
      <trkpt lat="45.68566" lon="6.88773">
        <ele>2276</ele>
        <time>2019-10-06T06:14:45Z</time>
      </trkpt>
      <trkpt lat="45.68568" lon="6.88774">
        <ele>2275</ele>
        <time>2019-10-06T06:14:46Z</time>
      </trkpt>
      <trkpt lat="45.6857" lon="6.88774">
        <ele>2275</ele>
        <time>2019-10-06T06:14:47Z</time>
      </trkpt>
      <trkpt lat="45.68572" lon="6.88775">
        <ele>2274</ele>
        <time>2019-10-06T06:14:48Z</time>
      </trkpt>
      <trkpt lat="45.68574" lon="6.88776">
        <ele>2272</ele>
        <time>2019-10-06T06:14:49Z</time>
      </trkpt>
      <trkpt lat="45.68575" lon="6.88776">
        <ele>2271</ele>
        <time>2019-10-06T06:14:50Z</time>
      </trkpt>
      <trkpt lat="45.68577" lon="6.88777">
        <ele>2270</ele>
        <time>2019-10-06T06:14:51Z</time>
      </trkpt>
      <trkpt lat="45.68579" lon="6.88778">
        <ele>2269</ele>
        <time>2019-10-06T06:14:52Z</time>
      </trkpt>
      <trkpt lat="45.68581" lon="6.88779">
        <ele>2268</ele>
        <time>2019-10-06T06:14:53Z</time>
      </trkpt>
      <trkpt lat="45.68584" lon="6.8878">
        <ele>2268</ele>
        <time>2019-10-06T06:14:55Z</time>
      </trkpt>
      <trkpt lat="45.68586" lon="6.8878">
        <ele>2267</ele>
        <time>2019-10-06T06:14:56Z</time>
      </trkpt>
      <trkpt lat="45.68588" lon="6.88781">
        <ele>2267</ele>
        <time>2019-10-06T06:14:57Z</time>
      </trkpt>
      <trkpt lat="45.6859" lon="6.88781">
        <ele>2266</ele>
        <time>2019-10-06T06:14:58Z</time>
      </trkpt>
      <trkpt lat="45.68593" lon="6.88781">
        <ele>2265</ele>
        <time>2019-10-06T06:14:59Z</time>
      </trkpt>
      <trkpt lat="45.68595" lon="6.88782">
        <ele>2265</ele>
        <time>2019-10-06T06:15:00Z</time>
      </trkpt>
      <trkpt lat="45.68598" lon="6.88782">
        <ele>2265</ele>
        <time>2019-10-06T06:15:01Z</time>
      </trkpt>
      <trkpt lat="45.686" lon="6.88781">
        <ele>2265</ele>
        <time>2019-10-06T06:15:02Z</time>
      </trkpt>
      <trkpt lat="45.68602" lon="6.8878">
        <ele>2265</ele>
        <time>2019-10-06T06:15:03Z</time>
      </trkpt>
      <trkpt lat="45.68605" lon="6.88779">
        <ele>2264</ele>
        <time>2019-10-06T06:15:04Z</time>
      </trkpt>
      <trkpt lat="45.68607" lon="6.88779">
        <ele>2264</ele>
        <time>2019-10-06T06:15:05Z</time>
      </trkpt>
      <trkpt lat="45.68609" lon="6.88778">
        <ele>2264</ele>
        <time>2019-10-06T06:15:06Z</time>
      </trkpt>
      <trkpt lat="45.68612" lon="6.88778">
        <ele>2263</ele>
        <time>2019-10-06T06:15:07Z</time>
      </trkpt>
      <trkpt lat="45.68614" lon="6.88778">
        <ele>2262</ele>
        <time>2019-10-06T06:15:08Z</time>
      </trkpt>
      <trkpt lat="45.68616" lon="6.88779">
        <ele>2263</ele>
        <time>2019-10-06T06:15:09Z</time>
      </trkpt>
      <trkpt lat="45.68618" lon="6.88779">
        <ele>2263</ele>
        <time>2019-10-06T06:15:10Z</time>
      </trkpt>
      <trkpt lat="45.68621" lon="6.88779">
        <ele>2263</ele>
        <time>2019-10-06T06:15:11Z</time>
      </trkpt>
      <trkpt lat="45.68623" lon="6.88779">
        <ele>2262</ele>
        <time>2019-10-06T06:15:12Z</time>
      </trkpt>
      <trkpt lat="45.68625" lon="6.88778">
        <ele>2262</ele>
        <time>2019-10-06T06:15:13Z</time>
      </trkpt>
      <trkpt lat="45.68627" lon="6.88778">
        <ele>2262</ele>
        <time>2019-10-06T06:15:14Z</time>
      </trkpt>
      <trkpt lat="45.6863" lon="6.88778">
        <ele>2261</ele>
        <time>2019-10-06T06:15:16Z</time>
      </trkpt>
      <trkpt lat="45.68633" lon="6.88779">
        <ele>2260</ele>
        <time>2019-10-06T06:15:18Z</time>
      </trkpt>
      <trkpt lat="45.68636" lon="6.88781">
        <ele>2260</ele>
        <time>2019-10-06T06:15:20Z</time>
      </trkpt>
      <trkpt lat="45.68638" lon="6.88782">
        <ele>2259</ele>
        <time>2019-10-06T06:15:21Z</time>
      </trkpt>
      <trkpt lat="45.6864" lon="6.88783">
        <ele>2259</ele>
        <time>2019-10-06T06:15:22Z</time>
      </trkpt>
      <trkpt lat="45.68642" lon="6.88784">
        <ele>2258</ele>
        <time>2019-10-06T06:15:23Z</time>
      </trkpt>
      <trkpt lat="45.68644" lon="6.88784">
        <ele>2258</ele>
        <time>2019-10-06T06:15:24Z</time>
      </trkpt>
      <trkpt lat="45.68646" lon="6.88784">
        <ele>2258</ele>
        <time>2019-10-06T06:15:25Z</time>
      </trkpt>
      <trkpt lat="45.68648" lon="6.88785">
        <ele>2258</ele>
        <time>2019-10-06T06:15:26Z</time>
      </trkpt>
      <trkpt lat="45.6865" lon="6.88785">
        <ele>2257</ele>
        <time>2019-10-06T06:15:27Z</time>
      </trkpt>
      <trkpt lat="45.68652" lon="6.88786">
        <ele>2257</ele>
        <time>2019-10-06T06:15:28Z</time>
      </trkpt>
      <trkpt lat="45.68654" lon="6.88787">
        <ele>2257</ele>
        <time>2019-10-06T06:15:29Z</time>
      </trkpt>
      <trkpt lat="45.68656" lon="6.88787">
        <ele>2257</ele>
        <time>2019-10-06T06:15:30Z</time>
      </trkpt>
      <trkpt lat="45.68658" lon="6.88788">
        <ele>2257</ele>
        <time>2019-10-06T06:15:31Z</time>
      </trkpt>
      <trkpt lat="45.6866" lon="6.88788">
        <ele>2257</ele>
        <time>2019-10-06T06:15:32Z</time>
      </trkpt>
      <trkpt lat="45.68662" lon="6.88789">
        <ele>2257</ele>
        <time>2019-10-06T06:15:33Z</time>
      </trkpt>
      <trkpt lat="45.68664" lon="6.8879">
        <ele>2256</ele>
        <time>2019-10-06T06:15:34Z</time>
      </trkpt>
      <trkpt lat="45.68666" lon="6.8879">
        <ele>2255</ele>
        <time>2019-10-06T06:15:35Z</time>
      </trkpt>
      <trkpt lat="45.68668" lon="6.88789">
        <ele>2255</ele>
        <time>2019-10-06T06:15:36Z</time>
      </trkpt>
      <trkpt lat="45.6867" lon="6.8879">
        <ele>2255</ele>
        <time>2019-10-06T06:15:37Z</time>
      </trkpt>
      <trkpt lat="45.68674" lon="6.88791">
        <ele>2255</ele>
        <time>2019-10-06T06:15:39Z</time>
      </trkpt>
      <trkpt lat="45.68675" lon="6.88793">
        <ele>2255</ele>
        <time>2019-10-06T06:15:40Z</time>
      </trkpt>
      <trkpt lat="45.68677" lon="6.88795">
        <ele>2254</ele>
        <time>2019-10-06T06:15:41Z</time>
      </trkpt>
      <trkpt lat="45.68679" lon="6.88798">
        <ele>2253</ele>
        <time>2019-10-06T06:15:43Z</time>
      </trkpt>
      <trkpt lat="45.68681" lon="6.88799">
        <ele>2253</ele>
        <time>2019-10-06T06:15:44Z</time>
      </trkpt>
      <trkpt lat="45.68683" lon="6.88798">
        <ele>2252</ele>
        <time>2019-10-06T06:15:45Z</time>
      </trkpt>
      <trkpt lat="45.68685" lon="6.88798">
        <ele>2252</ele>
        <time>2019-10-06T06:15:46Z</time>
      </trkpt>
      <trkpt lat="45.68687" lon="6.88797">
        <ele>2251</ele>
        <time>2019-10-06T06:15:47Z</time>
      </trkpt>
      <trkpt lat="45.6869" lon="6.88797">
        <ele>2250</ele>
        <time>2019-10-06T06:15:48Z</time>
      </trkpt>
      <trkpt lat="45.68693" lon="6.88798">
        <ele>2250</ele>
        <time>2019-10-06T06:15:49Z</time>
      </trkpt>
      <trkpt lat="45.68696" lon="6.88798">
        <ele>2249</ele>
        <time>2019-10-06T06:15:50Z</time>
      </trkpt>
      <trkpt lat="45.68698" lon="6.88799">
        <ele>2249</ele>
        <time>2019-10-06T06:15:51Z</time>
      </trkpt>
      <trkpt lat="45.68701" lon="6.888">
        <ele>2249</ele>
        <time>2019-10-06T06:15:52Z</time>
      </trkpt>
      <trkpt lat="45.68703" lon="6.88801">
        <ele>2248</ele>
        <time>2019-10-06T06:15:53Z</time>
      </trkpt>
      <trkpt lat="45.68706" lon="6.88802">
        <ele>2248</ele>
        <time>2019-10-06T06:15:54Z</time>
      </trkpt>
      <trkpt lat="45.68708" lon="6.88803">
        <ele>2246</ele>
        <time>2019-10-06T06:15:55Z</time>
      </trkpt>
      <trkpt lat="45.68711" lon="6.88804">
        <ele>2245</ele>
        <time>2019-10-06T06:15:57Z</time>
      </trkpt>
      <trkpt lat="45.68714" lon="6.88804">
        <ele>2243</ele>
        <time>2019-10-06T06:15:59Z</time>
      </trkpt>
      <trkpt lat="45.68716" lon="6.88805">
        <ele>2243</ele>
        <time>2019-10-06T06:16:00Z</time>
      </trkpt>
      <trkpt lat="45.68718" lon="6.88806">
        <ele>2243</ele>
        <time>2019-10-06T06:16:01Z</time>
      </trkpt>
      <trkpt lat="45.6872" lon="6.88807">
        <ele>2243</ele>
        <time>2019-10-06T06:16:02Z</time>
      </trkpt>
      <trkpt lat="45.68722" lon="6.88808">
        <ele>2243</ele>
        <time>2019-10-06T06:16:03Z</time>
      </trkpt>
      <trkpt lat="45.68724" lon="6.88808">
        <ele>2242</ele>
        <time>2019-10-06T06:16:04Z</time>
      </trkpt>
      <trkpt lat="45.68727" lon="6.88809">
        <ele>2241</ele>
        <time>2019-10-06T06:16:05Z</time>
      </trkpt>
      <trkpt lat="45.68728" lon="6.8881">
        <ele>2241</ele>
        <time>2019-10-06T06:16:06Z</time>
      </trkpt>
      <trkpt lat="45.6873" lon="6.8881">
        <ele>2241</ele>
        <time>2019-10-06T06:16:07Z</time>
      </trkpt>
      <trkpt lat="45.68734" lon="6.88811">
        <ele>2241</ele>
        <time>2019-10-06T06:16:09Z</time>
      </trkpt>
      <trkpt lat="45.68737" lon="6.88811">
        <ele>2240</ele>
        <time>2019-10-06T06:16:11Z</time>
      </trkpt>
      <trkpt lat="45.6874" lon="6.88812">
        <ele>2239</ele>
        <time>2019-10-06T06:16:13Z</time>
      </trkpt>
      <trkpt lat="45.68743" lon="6.88812">
        <ele>2238</ele>
        <time>2019-10-06T06:16:15Z</time>
      </trkpt>
      <trkpt lat="45.68746" lon="6.88812">
        <ele>2238</ele>
        <time>2019-10-06T06:16:17Z</time>
      </trkpt>
      <trkpt lat="45.68748" lon="6.8881">
        <ele>2237</ele>
        <time>2019-10-06T06:16:19Z</time>
      </trkpt>
      <trkpt lat="45.68751" lon="6.88809">
        <ele>2236</ele>
        <time>2019-10-06T06:16:21Z</time>
      </trkpt>
      <trkpt lat="45.68754" lon="6.88808">
        <ele>2235</ele>
        <time>2019-10-06T06:16:23Z</time>
      </trkpt>
      <trkpt lat="45.68757" lon="6.88807">
        <ele>2235</ele>
        <time>2019-10-06T06:16:25Z</time>
      </trkpt>
      <trkpt lat="45.6876" lon="6.88806">
        <ele>2235</ele>
        <time>2019-10-06T06:16:27Z</time>
      </trkpt>
      <trkpt lat="45.68763" lon="6.88805">
        <ele>2235</ele>
        <time>2019-10-06T06:16:29Z</time>
      </trkpt>
      <trkpt lat="45.68765" lon="6.88804">
        <ele>2235</ele>
        <time>2019-10-06T06:16:30Z</time>
      </trkpt>
      <trkpt lat="45.68767" lon="6.88803">
        <ele>2235</ele>
        <time>2019-10-06T06:16:31Z</time>
      </trkpt>
      <trkpt lat="45.6877" lon="6.88803">
        <ele>2235</ele>
        <time>2019-10-06T06:16:33Z</time>
      </trkpt>
      <trkpt lat="45.68772" lon="6.88803">
        <ele>2234</ele>
        <time>2019-10-06T06:16:35Z</time>
      </trkpt>
      <trkpt lat="45.68774" lon="6.88802">
        <ele>2233</ele>
        <time>2019-10-06T06:16:37Z</time>
      </trkpt>
      <trkpt lat="45.68777" lon="6.88801">
        <ele>2233</ele>
        <time>2019-10-06T06:16:39Z</time>
      </trkpt>
      <trkpt lat="45.6878" lon="6.888">
        <ele>2233</ele>
        <time>2019-10-06T06:16:41Z</time>
      </trkpt>
      <trkpt lat="45.68782" lon="6.888">
        <ele>2232</ele>
        <time>2019-10-06T06:16:44Z</time>
      </trkpt>
      <trkpt lat="45.68782" lon="6.888">
        <ele>2232</ele>
        <time>2019-10-06T06:16:45Z</time>
      </trkpt>
      <trkpt lat="45.68785" lon="6.88799">
        <ele>2232</ele>
        <time>2019-10-06T06:16:47Z</time>
      </trkpt>
      <trkpt lat="45.68787" lon="6.88797">
        <ele>2231</ele>
        <time>2019-10-06T06:16:50Z</time>
      </trkpt>
      <trkpt lat="45.6879" lon="6.88796">
        <ele>2231</ele>
        <time>2019-10-06T06:16:51Z</time>
      </trkpt>
      <trkpt lat="45.68792" lon="6.88797">
        <ele>2230</ele>
        <time>2019-10-06T06:16:52Z</time>
      </trkpt>
      <trkpt lat="45.68795" lon="6.88797">
        <ele>2230</ele>
        <time>2019-10-06T06:16:53Z</time>
      </trkpt>
      <trkpt lat="45.68797" lon="6.88797">
        <ele>2230</ele>
        <time>2019-10-06T06:16:54Z</time>
      </trkpt>
      <trkpt lat="45.688" lon="6.88796">
        <ele>2230</ele>
        <time>2019-10-06T06:16:55Z</time>
      </trkpt>
      <trkpt lat="45.68802" lon="6.88796">
        <ele>2229</ele>
        <time>2019-10-06T06:16:56Z</time>
      </trkpt>
      <trkpt lat="45.68804" lon="6.88796">
        <ele>2230</ele>
        <time>2019-10-06T06:16:57Z</time>
      </trkpt>
      <trkpt lat="45.68807" lon="6.88794">
        <ele>2229</ele>
        <time>2019-10-06T06:16:59Z</time>
      </trkpt>
      <trkpt lat="45.68809" lon="6.88793">
        <ele>2229</ele>
        <time>2019-10-06T06:17:00Z</time>
      </trkpt>
      <trkpt lat="45.68812" lon="6.88792">
        <ele>2230</ele>
        <time>2019-10-06T06:17:02Z</time>
      </trkpt>
      <trkpt lat="45.68815" lon="6.88792">
        <ele>2230</ele>
        <time>2019-10-06T06:17:04Z</time>
      </trkpt>
      <trkpt lat="45.68816" lon="6.88791">
        <ele>2230</ele>
        <time>2019-10-06T06:17:05Z</time>
      </trkpt>
      <trkpt lat="45.68818" lon="6.88792">
        <ele>2230</ele>
        <time>2019-10-06T06:17:06Z</time>
      </trkpt>
      <trkpt lat="45.6882" lon="6.88792">
        <ele>2230</ele>
        <time>2019-10-06T06:17:07Z</time>
      </trkpt>
      <trkpt lat="45.68822" lon="6.88792">
        <ele>2229</ele>
        <time>2019-10-06T06:17:08Z</time>
      </trkpt>
      <trkpt lat="45.68824" lon="6.88792">
        <ele>2229</ele>
        <time>2019-10-06T06:17:09Z</time>
      </trkpt>
      <trkpt lat="45.68826" lon="6.88793">
        <ele>2229</ele>
        <time>2019-10-06T06:17:10Z</time>
      </trkpt>
      <trkpt lat="45.68828" lon="6.88793">
        <ele>2229</ele>
        <time>2019-10-06T06:17:11Z</time>
      </trkpt>
      <trkpt lat="45.68832" lon="6.88794">
        <ele>2229</ele>
        <time>2019-10-06T06:17:13Z</time>
      </trkpt>
      <trkpt lat="45.68835" lon="6.88793">
        <ele>2230</ele>
        <time>2019-10-06T06:17:15Z</time>
      </trkpt>
      <trkpt lat="45.68837" lon="6.88793">
        <ele>2231</ele>
        <time>2019-10-06T06:17:17Z</time>
      </trkpt>
      <trkpt lat="45.68839" lon="6.88794">
        <ele>2231</ele>
        <time>2019-10-06T06:17:19Z</time>
      </trkpt>
      <trkpt lat="45.68839" lon="6.88794">
        <ele>2231</ele>
        <time>2019-10-06T06:17:21Z</time>
      </trkpt>
      <trkpt lat="45.68841" lon="6.88795">
        <ele>2231</ele>
        <time>2019-10-06T06:17:24Z</time>
      </trkpt>
      <trkpt lat="45.68841" lon="6.88795">
        <ele>2231</ele>
        <time>2019-10-06T06:17:26Z</time>
      </trkpt>
      <trkpt lat="45.68843" lon="6.88795">
        <ele>2231</ele>
        <time>2019-10-06T06:17:28Z</time>
      </trkpt>
      <trkpt lat="45.68845" lon="6.88794">
        <ele>2230</ele>
        <time>2019-10-06T06:17:31Z</time>
      </trkpt>
      <trkpt lat="45.68845" lon="6.88794">
        <ele>2230</ele>
        <time>2019-10-06T06:17:32Z</time>
      </trkpt>
      <trkpt lat="45.68847" lon="6.88794">
        <ele>2229</ele>
        <time>2019-10-06T06:17:33Z</time>
      </trkpt>
      <trkpt lat="45.68851" lon="6.88793">
        <ele>2229</ele>
        <time>2019-10-06T06:17:35Z</time>
      </trkpt>
      <trkpt lat="45.68854" lon="6.88792">
        <ele>2229</ele>
        <time>2019-10-06T06:17:37Z</time>
      </trkpt>
      <trkpt lat="45.68858" lon="6.88792">
        <ele>2229</ele>
        <time>2019-10-06T06:17:39Z</time>
      </trkpt>
      <trkpt lat="45.6886" lon="6.88792">
        <ele>2228</ele>
        <time>2019-10-06T06:17:40Z</time>
      </trkpt>
      <trkpt lat="45.68862" lon="6.88793">
        <ele>2228</ele>
        <time>2019-10-06T06:17:41Z</time>
      </trkpt>
      <trkpt lat="45.68864" lon="6.88793">
        <ele>2228</ele>
        <time>2019-10-06T06:17:42Z</time>
      </trkpt>
      <trkpt lat="45.68866" lon="6.88792">
        <ele>2228</ele>
        <time>2019-10-06T06:17:43Z</time>
      </trkpt>
      <trkpt lat="45.68869" lon="6.88793">
        <ele>2228</ele>
        <time>2019-10-06T06:17:44Z</time>
      </trkpt>
      <trkpt lat="45.68871" lon="6.88793">
        <ele>2228</ele>
        <time>2019-10-06T06:17:45Z</time>
      </trkpt>
      <trkpt lat="45.68874" lon="6.88793">
        <ele>2228</ele>
        <time>2019-10-06T06:17:46Z</time>
      </trkpt>
      <trkpt lat="45.68876" lon="6.88793">
        <ele>2228</ele>
        <time>2019-10-06T06:17:47Z</time>
      </trkpt>
      <trkpt lat="45.68879" lon="6.88793">
        <ele>2227</ele>
        <time>2019-10-06T06:17:49Z</time>
      </trkpt>
      <trkpt lat="45.68881" lon="6.88792">
        <ele>2227</ele>
        <time>2019-10-06T06:17:50Z</time>
      </trkpt>
      <trkpt lat="45.68884" lon="6.88792">
        <ele>2227</ele>
        <time>2019-10-06T06:17:51Z</time>
      </trkpt>
      <trkpt lat="45.68886" lon="6.88791">
        <ele>2227</ele>
        <time>2019-10-06T06:17:52Z</time>
      </trkpt>
      <trkpt lat="45.68889" lon="6.88791">
        <ele>2227</ele>
        <time>2019-10-06T06:17:53Z</time>
      </trkpt>
      <trkpt lat="45.68891" lon="6.88791">
        <ele>2226</ele>
        <time>2019-10-06T06:17:54Z</time>
      </trkpt>
      <trkpt lat="45.68894" lon="6.88791">
        <ele>2225</ele>
        <time>2019-10-06T06:17:55Z</time>
      </trkpt>
      <trkpt lat="45.68896" lon="6.88791">
        <ele>2225</ele>
        <time>2019-10-06T06:17:56Z</time>
      </trkpt>
      <trkpt lat="45.68898" lon="6.88791">
        <ele>2225</ele>
        <time>2019-10-06T06:17:57Z</time>
      </trkpt>
      <trkpt lat="45.68901" lon="6.88791">
        <ele>2225</ele>
        <time>2019-10-06T06:17:58Z</time>
      </trkpt>
      <trkpt lat="45.68904" lon="6.88792">
        <ele>2224</ele>
        <time>2019-10-06T06:17:59Z</time>
      </trkpt>
      <trkpt lat="45.68906" lon="6.88792">
        <ele>2224</ele>
        <time>2019-10-06T06:18:00Z</time>
      </trkpt>
      <trkpt lat="45.68909" lon="6.88793">
        <ele>2224</ele>
        <time>2019-10-06T06:18:01Z</time>
      </trkpt>
      <trkpt lat="45.68912" lon="6.88794">
        <ele>2223</ele>
        <time>2019-10-06T06:18:02Z</time>
      </trkpt>
      <trkpt lat="45.68914" lon="6.88795">
        <ele>2223</ele>
        <time>2019-10-06T06:18:03Z</time>
      </trkpt>
      <trkpt lat="45.68916" lon="6.88796">
        <ele>2223</ele>
        <time>2019-10-06T06:18:04Z</time>
      </trkpt>
      <trkpt lat="45.68919" lon="6.88797">
        <ele>2223</ele>
        <time>2019-10-06T06:18:05Z</time>
      </trkpt>
      <trkpt lat="45.68921" lon="6.88798">
        <ele>2222</ele>
        <time>2019-10-06T06:18:06Z</time>
      </trkpt>
      <trkpt lat="45.68924" lon="6.88798">
        <ele>2220</ele>
        <time>2019-10-06T06:18:08Z</time>
      </trkpt>
      <trkpt lat="45.68926" lon="6.88798">
        <ele>2220</ele>
        <time>2019-10-06T06:18:09Z</time>
      </trkpt>
      <trkpt lat="45.68928" lon="6.88798">
        <ele>2220</ele>
        <time>2019-10-06T06:18:10Z</time>
      </trkpt>
      <trkpt lat="45.6893" lon="6.88798">
        <ele>2220</ele>
        <time>2019-10-06T06:18:11Z</time>
      </trkpt>
      <trkpt lat="45.68933" lon="6.88798">
        <ele>2220</ele>
        <time>2019-10-06T06:18:12Z</time>
      </trkpt>
      <trkpt lat="45.68935" lon="6.88799">
        <ele>2219</ele>
        <time>2019-10-06T06:18:13Z</time>
      </trkpt>
      <trkpt lat="45.68937" lon="6.888">
        <ele>2219</ele>
        <time>2019-10-06T06:18:14Z</time>
      </trkpt>
      <trkpt lat="45.6894" lon="6.88801">
        <ele>2219</ele>
        <time>2019-10-06T06:18:15Z</time>
      </trkpt>
      <trkpt lat="45.68942" lon="6.88803">
        <ele>2219</ele>
        <time>2019-10-06T06:18:16Z</time>
      </trkpt>
      <trkpt lat="45.68944" lon="6.88804">
        <ele>2219</ele>
        <time>2019-10-06T06:18:17Z</time>
      </trkpt>
      <trkpt lat="45.68947" lon="6.88806">
        <ele>2218</ele>
        <time>2019-10-06T06:18:18Z</time>
      </trkpt>
      <trkpt lat="45.68949" lon="6.88808">
        <ele>2218</ele>
        <time>2019-10-06T06:18:19Z</time>
      </trkpt>
      <trkpt lat="45.68951" lon="6.8881">
        <ele>2217</ele>
        <time>2019-10-06T06:18:20Z</time>
      </trkpt>
      <trkpt lat="45.68952" lon="6.88812">
        <ele>2216</ele>
        <time>2019-10-06T06:18:21Z</time>
      </trkpt>
      <trkpt lat="45.68954" lon="6.88814">
        <ele>2216</ele>
        <time>2019-10-06T06:18:22Z</time>
      </trkpt>
      <trkpt lat="45.68957" lon="6.88815">
        <ele>2216</ele>
        <time>2019-10-06T06:18:24Z</time>
      </trkpt>
      <trkpt lat="45.68959" lon="6.88816">
        <ele>2216</ele>
        <time>2019-10-06T06:18:25Z</time>
      </trkpt>
      <trkpt lat="45.68961" lon="6.88817">
        <ele>2217</ele>
        <time>2019-10-06T06:18:26Z</time>
      </trkpt>
      <trkpt lat="45.68963" lon="6.88817">
        <ele>2217</ele>
        <time>2019-10-06T06:18:27Z</time>
      </trkpt>
      <trkpt lat="45.68965" lon="6.88818">
        <ele>2217</ele>
        <time>2019-10-06T06:18:28Z</time>
      </trkpt>
      <trkpt lat="45.68967" lon="6.88818">
        <ele>2217</ele>
        <time>2019-10-06T06:18:29Z</time>
      </trkpt>
      <trkpt lat="45.6897" lon="6.88819">
        <ele>2218</ele>
        <time>2019-10-06T06:18:31Z</time>
      </trkpt>
      <trkpt lat="45.68972" lon="6.88819">
        <ele>2218</ele>
        <time>2019-10-06T06:18:32Z</time>
      </trkpt>
      <trkpt lat="45.68974" lon="6.88819">
        <ele>2219</ele>
        <time>2019-10-06T06:18:33Z</time>
      </trkpt>
      <trkpt lat="45.68977" lon="6.88819">
        <ele>2219</ele>
        <time>2019-10-06T06:18:34Z</time>
      </trkpt>
      <trkpt lat="45.68979" lon="6.8882">
        <ele>2219</ele>
        <time>2019-10-06T06:18:35Z</time>
      </trkpt>
      <trkpt lat="45.68981" lon="6.8882">
        <ele>2219</ele>
        <time>2019-10-06T06:18:36Z</time>
      </trkpt>
      <trkpt lat="45.68984" lon="6.8882">
        <ele>2219</ele>
        <time>2019-10-06T06:18:37Z</time>
      </trkpt>
      <trkpt lat="45.68986" lon="6.88821">
        <ele>2219</ele>
        <time>2019-10-06T06:18:38Z</time>
      </trkpt>
      <trkpt lat="45.68988" lon="6.88821">
        <ele>2218</ele>
        <time>2019-10-06T06:18:39Z</time>
      </trkpt>
      <trkpt lat="45.68991" lon="6.88821">
        <ele>2219</ele>
        <time>2019-10-06T06:18:40Z</time>
      </trkpt>
      <trkpt lat="45.68993" lon="6.88822">
        <ele>2219</ele>
        <time>2019-10-06T06:18:41Z</time>
      </trkpt>
      <trkpt lat="45.68995" lon="6.88823">
        <ele>2219</ele>
        <time>2019-10-06T06:18:42Z</time>
      </trkpt>
      <trkpt lat="45.68997" lon="6.88824">
        <ele>2219</ele>
        <time>2019-10-06T06:18:43Z</time>
      </trkpt>
      <trkpt lat="45.69" lon="6.88825">
        <ele>2218</ele>
        <time>2019-10-06T06:18:44Z</time>
      </trkpt>
      <trkpt lat="45.69002" lon="6.88825">
        <ele>2217</ele>
        <time>2019-10-06T06:18:45Z</time>
      </trkpt>
      <trkpt lat="45.69005" lon="6.88825">
        <ele>2217</ele>
        <time>2019-10-06T06:18:46Z</time>
      </trkpt>
      <trkpt lat="45.69007" lon="6.88825">
        <ele>2217</ele>
        <time>2019-10-06T06:18:47Z</time>
      </trkpt>
      <trkpt lat="45.69009" lon="6.88825">
        <ele>2217</ele>
        <time>2019-10-06T06:18:48Z</time>
      </trkpt>
      <trkpt lat="45.69012" lon="6.88826">
        <ele>2217</ele>
        <time>2019-10-06T06:18:49Z</time>
      </trkpt>
      <trkpt lat="45.69014" lon="6.88827">
        <ele>2216</ele>
        <time>2019-10-06T06:18:50Z</time>
      </trkpt>
      <trkpt lat="45.69017" lon="6.88828">
        <ele>2216</ele>
        <time>2019-10-06T06:18:51Z</time>
      </trkpt>
      <trkpt lat="45.69019" lon="6.88829">
        <ele>2216</ele>
        <time>2019-10-06T06:18:52Z</time>
      </trkpt>
      <trkpt lat="45.69021" lon="6.88831">
        <ele>2216</ele>
        <time>2019-10-06T06:18:53Z</time>
      </trkpt>
      <trkpt lat="45.69023" lon="6.88832">
        <ele>2216</ele>
        <time>2019-10-06T06:18:54Z</time>
      </trkpt>
      <trkpt lat="45.69025" lon="6.88834">
        <ele>2215</ele>
        <time>2019-10-06T06:18:55Z</time>
      </trkpt>
      <trkpt lat="45.69027" lon="6.88836">
        <ele>2215</ele>
        <time>2019-10-06T06:18:56Z</time>
      </trkpt>
      <trkpt lat="45.6903" lon="6.88838">
        <ele>2216</ele>
        <time>2019-10-06T06:18:57Z</time>
      </trkpt>
      <trkpt lat="45.69032" lon="6.8884">
        <ele>2216</ele>
        <time>2019-10-06T06:18:58Z</time>
      </trkpt>
      <trkpt lat="45.69034" lon="6.88843">
        <ele>2216</ele>
        <time>2019-10-06T06:18:59Z</time>
      </trkpt>
      <trkpt lat="45.69036" lon="6.88845">
        <ele>2215</ele>
        <time>2019-10-06T06:19:00Z</time>
      </trkpt>
      <trkpt lat="45.69039" lon="6.88847">
        <ele>2215</ele>
        <time>2019-10-06T06:19:01Z</time>
      </trkpt>
      <trkpt lat="45.69041" lon="6.88849">
        <ele>2214</ele>
        <time>2019-10-06T06:19:02Z</time>
      </trkpt>
      <trkpt lat="45.69043" lon="6.88851">
        <ele>2214</ele>
        <time>2019-10-06T06:19:03Z</time>
      </trkpt>
      <trkpt lat="45.69046" lon="6.88854">
        <ele>2214</ele>
        <time>2019-10-06T06:19:04Z</time>
      </trkpt>
      <trkpt lat="45.69048" lon="6.88856">
        <ele>2214</ele>
        <time>2019-10-06T06:19:05Z</time>
      </trkpt>
      <trkpt lat="45.6905" lon="6.88858">
        <ele>2213</ele>
        <time>2019-10-06T06:19:06Z</time>
      </trkpt>
      <trkpt lat="45.69053" lon="6.8886">
        <ele>2212</ele>
        <time>2019-10-06T06:19:07Z</time>
      </trkpt>
      <trkpt lat="45.69056" lon="6.88862">
        <ele>2212</ele>
        <time>2019-10-06T06:19:08Z</time>
      </trkpt>
      <trkpt lat="45.69058" lon="6.88863">
        <ele>2212</ele>
        <time>2019-10-06T06:19:09Z</time>
      </trkpt>
      <trkpt lat="45.69061" lon="6.88865">
        <ele>2212</ele>
        <time>2019-10-06T06:19:10Z</time>
      </trkpt>
      <trkpt lat="45.69064" lon="6.88866">
        <ele>2212</ele>
        <time>2019-10-06T06:19:11Z</time>
      </trkpt>
      <trkpt lat="45.69066" lon="6.88867">
        <ele>2212</ele>
        <time>2019-10-06T06:19:12Z</time>
      </trkpt>
      <trkpt lat="45.69068" lon="6.88868">
        <ele>2212</ele>
        <time>2019-10-06T06:19:13Z</time>
      </trkpt>
      <trkpt lat="45.69071" lon="6.88868">
        <ele>2212</ele>
        <time>2019-10-06T06:19:14Z</time>
      </trkpt>
      <trkpt lat="45.69073" lon="6.88868">
        <ele>2211</ele>
        <time>2019-10-06T06:19:15Z</time>
      </trkpt>
      <trkpt lat="45.69076" lon="6.88867">
        <ele>2210</ele>
        <time>2019-10-06T06:19:16Z</time>
      </trkpt>
      <trkpt lat="45.69078" lon="6.88866">
        <ele>2209</ele>
        <time>2019-10-06T06:19:17Z</time>
      </trkpt>
      <trkpt lat="45.6908" lon="6.88864">
        <ele>2208</ele>
        <time>2019-10-06T06:19:18Z</time>
      </trkpt>
      <trkpt lat="45.69083" lon="6.88863">
        <ele>2208</ele>
        <time>2019-10-06T06:19:19Z</time>
      </trkpt>
      <trkpt lat="45.69085" lon="6.88861">
        <ele>2208</ele>
        <time>2019-10-06T06:19:20Z</time>
      </trkpt>
      <trkpt lat="45.69088" lon="6.8886">
        <ele>2208</ele>
        <time>2019-10-06T06:19:21Z</time>
      </trkpt>
      <trkpt lat="45.69091" lon="6.88859">
        <ele>2207</ele>
        <time>2019-10-06T06:19:22Z</time>
      </trkpt>
      <trkpt lat="45.69093" lon="6.88858">
        <ele>2207</ele>
        <time>2019-10-06T06:19:23Z</time>
      </trkpt>
      <trkpt lat="45.69096" lon="6.88857">
        <ele>2206</ele>
        <time>2019-10-06T06:19:24Z</time>
      </trkpt>
      <trkpt lat="45.69099" lon="6.88857">
        <ele>2206</ele>
        <time>2019-10-06T06:19:25Z</time>
      </trkpt>
      <trkpt lat="45.69101" lon="6.88856">
        <ele>2206</ele>
        <time>2019-10-06T06:19:26Z</time>
      </trkpt>
      <trkpt lat="45.69104" lon="6.88856">
        <ele>2206</ele>
        <time>2019-10-06T06:19:27Z</time>
      </trkpt>
      <trkpt lat="45.69106" lon="6.88855">
        <ele>2206</ele>
        <time>2019-10-06T06:19:28Z</time>
      </trkpt>
      <trkpt lat="45.69108" lon="6.88854">
        <ele>2206</ele>
        <time>2019-10-06T06:19:29Z</time>
      </trkpt>
      <trkpt lat="45.6911" lon="6.88853">
        <ele>2205</ele>
        <time>2019-10-06T06:19:30Z</time>
      </trkpt>
      <trkpt lat="45.69112" lon="6.88851">
        <ele>2205</ele>
        <time>2019-10-06T06:19:31Z</time>
      </trkpt>
      <trkpt lat="45.69113" lon="6.8885">
        <ele>2205</ele>
        <time>2019-10-06T06:19:32Z</time>
      </trkpt>
      <trkpt lat="45.69116" lon="6.88847">
        <ele>2205</ele>
        <time>2019-10-06T06:19:34Z</time>
      </trkpt>
      <trkpt lat="45.69119" lon="6.88844">
        <ele>2205</ele>
        <time>2019-10-06T06:19:36Z</time>
      </trkpt>
      <trkpt lat="45.69121" lon="6.88842">
        <ele>2204</ele>
        <time>2019-10-06T06:19:37Z</time>
      </trkpt>
      <trkpt lat="45.69122" lon="6.8884">
        <ele>2204</ele>
        <time>2019-10-06T06:19:38Z</time>
      </trkpt>
      <trkpt lat="45.69124" lon="6.88838">
        <ele>2204</ele>
        <time>2019-10-06T06:19:39Z</time>
      </trkpt>
      <trkpt lat="45.69125" lon="6.88836">
        <ele>2205</ele>
        <time>2019-10-06T06:19:40Z</time>
      </trkpt>
      <trkpt lat="45.69127" lon="6.88835">
        <ele>2205</ele>
        <time>2019-10-06T06:19:41Z</time>
      </trkpt>
      <trkpt lat="45.69129" lon="6.88833">
        <ele>2205</ele>
        <time>2019-10-06T06:19:42Z</time>
      </trkpt>
      <trkpt lat="45.6913" lon="6.88831">
        <ele>2205</ele>
        <time>2019-10-06T06:19:43Z</time>
      </trkpt>
      <trkpt lat="45.69132" lon="6.88828">
        <ele>2205</ele>
        <time>2019-10-06T06:19:44Z</time>
      </trkpt>
      <trkpt lat="45.69133" lon="6.88825">
        <ele>2205</ele>
        <time>2019-10-06T06:19:45Z</time>
      </trkpt>
      <trkpt lat="45.69134" lon="6.88821">
        <ele>2205</ele>
        <time>2019-10-06T06:19:46Z</time>
      </trkpt>
      <trkpt lat="45.69135" lon="6.88818">
        <ele>2205</ele>
        <time>2019-10-06T06:19:47Z</time>
      </trkpt>
      <trkpt lat="45.69135" lon="6.88815">
        <ele>2205</ele>
        <time>2019-10-06T06:19:48Z</time>
      </trkpt>
      <trkpt lat="45.69135" lon="6.88811">
        <ele>2205</ele>
        <time>2019-10-06T06:19:49Z</time>
      </trkpt>
      <trkpt lat="45.69135" lon="6.88807">
        <ele>2204</ele>
        <time>2019-10-06T06:19:50Z</time>
      </trkpt>
      <trkpt lat="45.69135" lon="6.88804">
        <ele>2204</ele>
        <time>2019-10-06T06:19:51Z</time>
      </trkpt>
      <trkpt lat="45.69135" lon="6.888">
        <ele>2205</ele>
        <time>2019-10-06T06:19:52Z</time>
      </trkpt>
      <trkpt lat="45.69135" lon="6.88796">
        <ele>2206</ele>
        <time>2019-10-06T06:19:53Z</time>
      </trkpt>
      <trkpt lat="45.69134" lon="6.88792">
        <ele>2206</ele>
        <time>2019-10-06T06:19:54Z</time>
      </trkpt>
      <trkpt lat="45.69134" lon="6.88789">
        <ele>2206</ele>
        <time>2019-10-06T06:19:55Z</time>
      </trkpt>
      <trkpt lat="45.69134" lon="6.88785">
        <ele>2206</ele>
        <time>2019-10-06T06:19:56Z</time>
      </trkpt>
      <trkpt lat="45.69134" lon="6.88781">
        <ele>2206</ele>
        <time>2019-10-06T06:19:57Z</time>
      </trkpt>
      <trkpt lat="45.69133" lon="6.88777">
        <ele>2206</ele>
        <time>2019-10-06T06:19:58Z</time>
      </trkpt>
      <trkpt lat="45.69133" lon="6.88773">
        <ele>2206</ele>
        <time>2019-10-06T06:19:59Z</time>
      </trkpt>
      <trkpt lat="45.69133" lon="6.88769">
        <ele>2205</ele>
        <time>2019-10-06T06:20:00Z</time>
      </trkpt>
      <trkpt lat="45.69133" lon="6.88765">
        <ele>2205</ele>
        <time>2019-10-06T06:20:01Z</time>
      </trkpt>
      <trkpt lat="45.69133" lon="6.88761">
        <ele>2205</ele>
        <time>2019-10-06T06:20:02Z</time>
      </trkpt>
      <trkpt lat="45.69133" lon="6.88758">
        <ele>2205</ele>
        <time>2019-10-06T06:20:03Z</time>
      </trkpt>
      <trkpt lat="45.69133" lon="6.88754">
        <ele>2205</ele>
        <time>2019-10-06T06:20:04Z</time>
      </trkpt>
      <trkpt lat="45.69133" lon="6.8875">
        <ele>2205</ele>
        <time>2019-10-06T06:20:05Z</time>
      </trkpt>
      <trkpt lat="45.69132" lon="6.88746">
        <ele>2205</ele>
        <time>2019-10-06T06:20:06Z</time>
      </trkpt>
      <trkpt lat="45.69131" lon="6.88743">
        <ele>2205</ele>
        <time>2019-10-06T06:20:07Z</time>
      </trkpt>
      <trkpt lat="45.69131" lon="6.88739">
        <ele>2204</ele>
        <time>2019-10-06T06:20:08Z</time>
      </trkpt>
      <trkpt lat="45.6913" lon="6.88735">
        <ele>2204</ele>
        <time>2019-10-06T06:20:09Z</time>
      </trkpt>
      <trkpt lat="45.69129" lon="6.88732">
        <ele>2204</ele>
        <time>2019-10-06T06:20:10Z</time>
      </trkpt>
      <trkpt lat="45.69128" lon="6.88728">
        <ele>2204</ele>
        <time>2019-10-06T06:20:11Z</time>
      </trkpt>
      <trkpt lat="45.69127" lon="6.88724">
        <ele>2204</ele>
        <time>2019-10-06T06:20:12Z</time>
      </trkpt>
      <trkpt lat="45.69126" lon="6.8872">
        <ele>2204</ele>
        <time>2019-10-06T06:20:13Z</time>
      </trkpt>
      <trkpt lat="45.69126" lon="6.88717">
        <ele>2204</ele>
        <time>2019-10-06T06:20:14Z</time>
      </trkpt>
      <trkpt lat="45.69125" lon="6.88713">
        <ele>2204</ele>
        <time>2019-10-06T06:20:15Z</time>
      </trkpt>
      <trkpt lat="45.69124" lon="6.88709">
        <ele>2205</ele>
        <time>2019-10-06T06:20:16Z</time>
      </trkpt>
      <trkpt lat="45.69124" lon="6.88705">
        <ele>2205</ele>
        <time>2019-10-06T06:20:17Z</time>
      </trkpt>
      <trkpt lat="45.69123" lon="6.88701">
        <ele>2204</ele>
        <time>2019-10-06T06:20:18Z</time>
      </trkpt>
      <trkpt lat="45.69122" lon="6.88698">
        <ele>2204</ele>
        <time>2019-10-06T06:20:19Z</time>
      </trkpt>
      <trkpt lat="45.69122" lon="6.88694">
        <ele>2204</ele>
        <time>2019-10-06T06:20:20Z</time>
      </trkpt>
      <trkpt lat="45.69121" lon="6.8869">
        <ele>2204</ele>
        <time>2019-10-06T06:20:21Z</time>
      </trkpt>
      <trkpt lat="45.6912" lon="6.88687">
        <ele>2204</ele>
        <time>2019-10-06T06:20:22Z</time>
      </trkpt>
      <trkpt lat="45.69119" lon="6.88683">
        <ele>2204</ele>
        <time>2019-10-06T06:20:23Z</time>
      </trkpt>
      <trkpt lat="45.69119" lon="6.8868">
        <ele>2203</ele>
        <time>2019-10-06T06:20:24Z</time>
      </trkpt>
      <trkpt lat="45.69118" lon="6.88677">
        <ele>2205</ele>
        <time>2019-10-06T06:20:25Z</time>
      </trkpt>
      <trkpt lat="45.69117" lon="6.88673">
        <ele>2205</ele>
        <time>2019-10-06T06:20:26Z</time>
      </trkpt>
      <trkpt lat="45.69116" lon="6.8867">
        <ele>2205</ele>
        <time>2019-10-06T06:20:27Z</time>
      </trkpt>
      <trkpt lat="45.69115" lon="6.88667">
        <ele>2205</ele>
        <time>2019-10-06T06:20:28Z</time>
      </trkpt>
      <trkpt lat="45.69114" lon="6.88664">
        <ele>2205</ele>
        <time>2019-10-06T06:20:29Z</time>
      </trkpt>
      <trkpt lat="45.69113" lon="6.88661">
        <ele>2203</ele>
        <time>2019-10-06T06:20:30Z</time>
      </trkpt>
      <trkpt lat="45.69112" lon="6.88657">
        <ele>2202</ele>
        <time>2019-10-06T06:20:31Z</time>
      </trkpt>
      <trkpt lat="45.69112" lon="6.88654">
        <ele>2202</ele>
        <time>2019-10-06T06:20:32Z</time>
      </trkpt>
      <trkpt lat="45.69112" lon="6.88651">
        <ele>2203</ele>
        <time>2019-10-06T06:20:33Z</time>
      </trkpt>
      <trkpt lat="45.69112" lon="6.88648">
        <ele>2203</ele>
        <time>2019-10-06T06:20:34Z</time>
      </trkpt>
      <trkpt lat="45.69111" lon="6.88645">
        <ele>2204</ele>
        <time>2019-10-06T06:20:35Z</time>
      </trkpt>
      <trkpt lat="45.69111" lon="6.88642">
        <ele>2204</ele>
        <time>2019-10-06T06:20:36Z</time>
      </trkpt>
      <trkpt lat="45.69112" lon="6.88638">
        <ele>2204</ele>
        <time>2019-10-06T06:20:37Z</time>
      </trkpt>
      <trkpt lat="45.69114" lon="6.88634">
        <ele>2204</ele>
        <time>2019-10-06T06:20:38Z</time>
      </trkpt>
      <trkpt lat="45.69116" lon="6.88631">
        <ele>2204</ele>
        <time>2019-10-06T06:20:39Z</time>
      </trkpt>
      <trkpt lat="45.69117" lon="6.88628">
        <ele>2203</ele>
        <time>2019-10-06T06:20:40Z</time>
      </trkpt>
      <trkpt lat="45.69119" lon="6.88626">
        <ele>2203</ele>
        <time>2019-10-06T06:20:41Z</time>
      </trkpt>
      <trkpt lat="45.69121" lon="6.88623">
        <ele>2204</ele>
        <time>2019-10-06T06:20:42Z</time>
      </trkpt>
      <trkpt lat="45.69123" lon="6.88621">
        <ele>2204</ele>
        <time>2019-10-06T06:20:43Z</time>
      </trkpt>
      <trkpt lat="45.69125" lon="6.88619">
        <ele>2204</ele>
        <time>2019-10-06T06:20:44Z</time>
      </trkpt>
      <trkpt lat="45.69127" lon="6.88616">
        <ele>2204</ele>
        <time>2019-10-06T06:20:45Z</time>
      </trkpt>
      <trkpt lat="45.69129" lon="6.88614">
        <ele>2205</ele>
        <time>2019-10-06T06:20:46Z</time>
      </trkpt>
      <trkpt lat="45.69131" lon="6.88612">
        <ele>2205</ele>
        <time>2019-10-06T06:20:47Z</time>
      </trkpt>
      <trkpt lat="45.69133" lon="6.8861">
        <ele>2205</ele>
        <time>2019-10-06T06:20:48Z</time>
      </trkpt>
      <trkpt lat="45.69136" lon="6.88608">
        <ele>2205</ele>
        <time>2019-10-06T06:20:49Z</time>
      </trkpt>
      <trkpt lat="45.69138" lon="6.88606">
        <ele>2205</ele>
        <time>2019-10-06T06:20:50Z</time>
      </trkpt>
      <trkpt lat="45.69141" lon="6.88605">
        <ele>2205</ele>
        <time>2019-10-06T06:20:51Z</time>
      </trkpt>
      <trkpt lat="45.69143" lon="6.88603">
        <ele>2205</ele>
        <time>2019-10-06T06:20:52Z</time>
      </trkpt>
      <trkpt lat="45.69145" lon="6.88602">
        <ele>2205</ele>
        <time>2019-10-06T06:20:53Z</time>
      </trkpt>
      <trkpt lat="45.69148" lon="6.886">
        <ele>2205</ele>
        <time>2019-10-06T06:20:54Z</time>
      </trkpt>
      <trkpt lat="45.6915" lon="6.88599">
        <ele>2205</ele>
        <time>2019-10-06T06:20:55Z</time>
      </trkpt>
      <trkpt lat="45.69153" lon="6.88599">
        <ele>2205</ele>
        <time>2019-10-06T06:20:56Z</time>
      </trkpt>
      <trkpt lat="45.69156" lon="6.88598">
        <ele>2204</ele>
        <time>2019-10-06T06:20:57Z</time>
      </trkpt>
      <trkpt lat="45.69158" lon="6.88597">
        <ele>2204</ele>
        <time>2019-10-06T06:20:58Z</time>
      </trkpt>
      <trkpt lat="45.69161" lon="6.88595">
        <ele>2205</ele>
        <time>2019-10-06T06:20:59Z</time>
      </trkpt>
      <trkpt lat="45.69164" lon="6.88594">
        <ele>2205</ele>
        <time>2019-10-06T06:21:00Z</time>
      </trkpt>
      <trkpt lat="45.69166" lon="6.88594">
        <ele>2205</ele>
        <time>2019-10-06T06:21:01Z</time>
      </trkpt>
      <trkpt lat="45.69169" lon="6.88592">
        <ele>2204</ele>
        <time>2019-10-06T06:21:02Z</time>
      </trkpt>
      <trkpt lat="45.69172" lon="6.88592">
        <ele>2204</ele>
        <time>2019-10-06T06:21:03Z</time>
      </trkpt>
      <trkpt lat="45.69174" lon="6.88591">
        <ele>2204</ele>
        <time>2019-10-06T06:21:04Z</time>
      </trkpt>
      <trkpt lat="45.69177" lon="6.8859">
        <ele>2204</ele>
        <time>2019-10-06T06:21:05Z</time>
      </trkpt>
      <trkpt lat="45.6918" lon="6.88589">
        <ele>2204</ele>
        <time>2019-10-06T06:21:06Z</time>
      </trkpt>
      <trkpt lat="45.69182" lon="6.88587">
        <ele>2204</ele>
        <time>2019-10-06T06:21:07Z</time>
      </trkpt>
      <trkpt lat="45.69184" lon="6.88585">
        <ele>2203</ele>
        <time>2019-10-06T06:21:08Z</time>
      </trkpt>
      <trkpt lat="45.69187" lon="6.88583">
        <ele>2202</ele>
        <time>2019-10-06T06:21:09Z</time>
      </trkpt>
      <trkpt lat="45.69189" lon="6.88581">
        <ele>2202</ele>
        <time>2019-10-06T06:21:10Z</time>
      </trkpt>
      <trkpt lat="45.69191" lon="6.88579">
        <ele>2202</ele>
        <time>2019-10-06T06:21:11Z</time>
      </trkpt>
      <trkpt lat="45.69193" lon="6.88577">
        <ele>2202</ele>
        <time>2019-10-06T06:21:12Z</time>
      </trkpt>
      <trkpt lat="45.69195" lon="6.88574">
        <ele>2203</ele>
        <time>2019-10-06T06:21:13Z</time>
      </trkpt>
      <trkpt lat="45.69196" lon="6.88571">
        <ele>2203</ele>
        <time>2019-10-06T06:21:14Z</time>
      </trkpt>
      <trkpt lat="45.69198" lon="6.88569">
        <ele>2203</ele>
        <time>2019-10-06T06:21:15Z</time>
      </trkpt>
      <trkpt lat="45.69199" lon="6.88566">
        <ele>2203</ele>
        <time>2019-10-06T06:21:16Z</time>
      </trkpt>
      <trkpt lat="45.69201" lon="6.88563">
        <ele>2205</ele>
        <time>2019-10-06T06:21:17Z</time>
      </trkpt>
      <trkpt lat="45.69202" lon="6.8856">
        <ele>2206</ele>
        <time>2019-10-06T06:21:18Z</time>
      </trkpt>
      <trkpt lat="45.69204" lon="6.88558">
        <ele>2207</ele>
        <time>2019-10-06T06:21:19Z</time>
      </trkpt>
      <trkpt lat="45.69206" lon="6.88556">
        <ele>2207</ele>
        <time>2019-10-06T06:21:20Z</time>
      </trkpt>
      <trkpt lat="45.69207" lon="6.88554">
        <ele>2207</ele>
        <time>2019-10-06T06:21:21Z</time>
      </trkpt>
      <trkpt lat="45.6921" lon="6.88553">
        <ele>2207</ele>
        <time>2019-10-06T06:21:22Z</time>
      </trkpt>
      <trkpt lat="45.69212" lon="6.88552">
        <ele>2206</ele>
        <time>2019-10-06T06:21:23Z</time>
      </trkpt>
      <trkpt lat="45.69215" lon="6.88552">
        <ele>2206</ele>
        <time>2019-10-06T06:21:24Z</time>
      </trkpt>
      <trkpt lat="45.69218" lon="6.88552">
        <ele>2205</ele>
        <time>2019-10-06T06:21:25Z</time>
      </trkpt>
      <trkpt lat="45.69221" lon="6.88551">
        <ele>2205</ele>
        <time>2019-10-06T06:21:26Z</time>
      </trkpt>
      <trkpt lat="45.69223" lon="6.8855">
        <ele>2204</ele>
        <time>2019-10-06T06:21:27Z</time>
      </trkpt>
      <trkpt lat="45.69226" lon="6.88549">
        <ele>2204</ele>
        <time>2019-10-06T06:21:28Z</time>
      </trkpt>
      <trkpt lat="45.69229" lon="6.88548">
        <ele>2204</ele>
        <time>2019-10-06T06:21:29Z</time>
      </trkpt>
      <trkpt lat="45.69232" lon="6.88547">
        <ele>2204</ele>
        <time>2019-10-06T06:21:30Z</time>
      </trkpt>
      <trkpt lat="45.69235" lon="6.88547">
        <ele>2205</ele>
        <time>2019-10-06T06:21:31Z</time>
      </trkpt>
      <trkpt lat="45.69238" lon="6.88546">
        <ele>2205</ele>
        <time>2019-10-06T06:21:32Z</time>
      </trkpt>
      <trkpt lat="45.6924" lon="6.88544">
        <ele>2205</ele>
        <time>2019-10-06T06:21:33Z</time>
      </trkpt>
      <trkpt lat="45.69243" lon="6.88543">
        <ele>2205</ele>
        <time>2019-10-06T06:21:34Z</time>
      </trkpt>
      <trkpt lat="45.69245" lon="6.88541">
        <ele>2205</ele>
        <time>2019-10-06T06:21:35Z</time>
      </trkpt>
      <trkpt lat="45.69248" lon="6.88539">
        <ele>2204</ele>
        <time>2019-10-06T06:21:36Z</time>
      </trkpt>
      <trkpt lat="45.6925" lon="6.88537">
        <ele>2205</ele>
        <time>2019-10-06T06:21:37Z</time>
      </trkpt>
      <trkpt lat="45.69252" lon="6.88534">
        <ele>2206</ele>
        <time>2019-10-06T06:21:38Z</time>
      </trkpt>
      <trkpt lat="45.69254" lon="6.88532">
        <ele>2206</ele>
        <time>2019-10-06T06:21:39Z</time>
      </trkpt>
      <trkpt lat="45.69255" lon="6.8853">
        <ele>2206</ele>
        <time>2019-10-06T06:21:40Z</time>
      </trkpt>
      <trkpt lat="45.69258" lon="6.88528">
        <ele>2206</ele>
        <time>2019-10-06T06:21:41Z</time>
      </trkpt>
      <trkpt lat="45.6926" lon="6.88526">
        <ele>2207</ele>
        <time>2019-10-06T06:21:42Z</time>
      </trkpt>
      <trkpt lat="45.69262" lon="6.88525">
        <ele>2207</ele>
        <time>2019-10-06T06:21:43Z</time>
      </trkpt>
      <trkpt lat="45.69265" lon="6.88523">
        <ele>2207</ele>
        <time>2019-10-06T06:21:44Z</time>
      </trkpt>
      <trkpt lat="45.69267" lon="6.88521">
        <ele>2207</ele>
        <time>2019-10-06T06:21:45Z</time>
      </trkpt>
      <trkpt lat="45.6927" lon="6.88518">
        <ele>2206</ele>
        <time>2019-10-06T06:21:46Z</time>
      </trkpt>
      <trkpt lat="45.69272" lon="6.88515">
        <ele>2206</ele>
        <time>2019-10-06T06:21:47Z</time>
      </trkpt>
      <trkpt lat="45.69274" lon="6.88513">
        <ele>2205</ele>
        <time>2019-10-06T06:21:48Z</time>
      </trkpt>
      <trkpt lat="45.69277" lon="6.88511">
        <ele>2205</ele>
        <time>2019-10-06T06:21:49Z</time>
      </trkpt>
      <trkpt lat="45.69279" lon="6.88509">
        <ele>2205</ele>
        <time>2019-10-06T06:21:50Z</time>
      </trkpt>
      <trkpt lat="45.69282" lon="6.88507">
        <ele>2205</ele>
        <time>2019-10-06T06:21:51Z</time>
      </trkpt>
      <trkpt lat="45.69284" lon="6.88505">
        <ele>2205</ele>
        <time>2019-10-06T06:21:52Z</time>
      </trkpt>
      <trkpt lat="45.69286" lon="6.88503">
        <ele>2205</ele>
        <time>2019-10-06T06:21:53Z</time>
      </trkpt>
      <trkpt lat="45.69288" lon="6.88501">
        <ele>2205</ele>
        <time>2019-10-06T06:21:54Z</time>
      </trkpt>
      <trkpt lat="45.6929" lon="6.885">
        <ele>2205</ele>
        <time>2019-10-06T06:21:55Z</time>
      </trkpt>
      <trkpt lat="45.69292" lon="6.88497">
        <ele>2204</ele>
        <time>2019-10-06T06:21:56Z</time>
      </trkpt>
      <trkpt lat="45.69294" lon="6.88494">
        <ele>2204</ele>
        <time>2019-10-06T06:21:57Z</time>
      </trkpt>
      <trkpt lat="45.69295" lon="6.88491">
        <ele>2203</ele>
        <time>2019-10-06T06:21:58Z</time>
      </trkpt>
      <trkpt lat="45.69295" lon="6.88487">
        <ele>2203</ele>
        <time>2019-10-06T06:21:59Z</time>
      </trkpt>
      <trkpt lat="45.69295" lon="6.88483">
        <ele>2201</ele>
        <time>2019-10-06T06:22:00Z</time>
      </trkpt>
      <trkpt lat="45.69295" lon="6.88479">
        <ele>2202</ele>
        <time>2019-10-06T06:22:01Z</time>
      </trkpt>
      <trkpt lat="45.69295" lon="6.88475">
        <ele>2202</ele>
        <time>2019-10-06T06:22:02Z</time>
      </trkpt>
      <trkpt lat="45.69295" lon="6.88471">
        <ele>2201</ele>
        <time>2019-10-06T06:22:03Z</time>
      </trkpt>
      <trkpt lat="45.69294" lon="6.88467">
        <ele>2201</ele>
        <time>2019-10-06T06:22:04Z</time>
      </trkpt>
      <trkpt lat="45.69294" lon="6.88463">
        <ele>2200</ele>
        <time>2019-10-06T06:22:05Z</time>
      </trkpt>
      <trkpt lat="45.69294" lon="6.8846">
        <ele>2199</ele>
        <time>2019-10-06T06:22:06Z</time>
      </trkpt>
      <trkpt lat="45.69294" lon="6.88456">
        <ele>2199</ele>
        <time>2019-10-06T06:22:07Z</time>
      </trkpt>
      <trkpt lat="45.69295" lon="6.88452">
        <ele>2199</ele>
        <time>2019-10-06T06:22:08Z</time>
      </trkpt>
      <trkpt lat="45.69297" lon="6.88448">
        <ele>2198</ele>
        <time>2019-10-06T06:22:09Z</time>
      </trkpt>
      <trkpt lat="45.69299" lon="6.88445">
        <ele>2198</ele>
        <time>2019-10-06T06:22:10Z</time>
      </trkpt>
      <trkpt lat="45.69301" lon="6.88442">
        <ele>2199</ele>
        <time>2019-10-06T06:22:11Z</time>
      </trkpt>
      <trkpt lat="45.69303" lon="6.88439">
        <ele>2200</ele>
        <time>2019-10-06T06:22:12Z</time>
      </trkpt>
      <trkpt lat="45.69306" lon="6.88437">
        <ele>2200</ele>
        <time>2019-10-06T06:22:13Z</time>
      </trkpt>
      <trkpt lat="45.69308" lon="6.88435">
        <ele>2201</ele>
        <time>2019-10-06T06:22:14Z</time>
      </trkpt>
      <trkpt lat="45.69311" lon="6.88434">
        <ele>2201</ele>
        <time>2019-10-06T06:22:15Z</time>
      </trkpt>
      <trkpt lat="45.69314" lon="6.88434">
        <ele>2201</ele>
        <time>2019-10-06T06:22:16Z</time>
      </trkpt>
      <trkpt lat="45.69318" lon="6.88436">
        <ele>2200</ele>
        <time>2019-10-06T06:22:17Z</time>
      </trkpt>
      <trkpt lat="45.6932" lon="6.88438">
        <ele>2199</ele>
        <time>2019-10-06T06:22:18Z</time>
      </trkpt>
      <trkpt lat="45.69323" lon="6.88441">
        <ele>2198</ele>
        <time>2019-10-06T06:22:19Z</time>
      </trkpt>
      <trkpt lat="45.69325" lon="6.88445">
        <ele>2197</ele>
        <time>2019-10-06T06:22:20Z</time>
      </trkpt>
      <trkpt lat="45.69327" lon="6.88448">
        <ele>2197</ele>
        <time>2019-10-06T06:22:21Z</time>
      </trkpt>
      <trkpt lat="45.69329" lon="6.88452">
        <ele>2197</ele>
        <time>2019-10-06T06:22:22Z</time>
      </trkpt>
      <trkpt lat="45.69331" lon="6.88456">
        <ele>2197</ele>
        <time>2019-10-06T06:22:23Z</time>
      </trkpt>
      <trkpt lat="45.69333" lon="6.8846">
        <ele>2196</ele>
        <time>2019-10-06T06:22:24Z</time>
      </trkpt>
      <trkpt lat="45.69335" lon="6.88462">
        <ele>2194</ele>
        <time>2019-10-06T06:22:25Z</time>
      </trkpt>
      <trkpt lat="45.69337" lon="6.88464">
        <ele>2194</ele>
        <time>2019-10-06T06:22:26Z</time>
      </trkpt>
      <trkpt lat="45.6934" lon="6.88464">
        <ele>2194</ele>
        <time>2019-10-06T06:22:27Z</time>
      </trkpt>
      <trkpt lat="45.69342" lon="6.88464">
        <ele>2193</ele>
        <time>2019-10-06T06:22:28Z</time>
      </trkpt>
      <trkpt lat="45.69344" lon="6.88464">
        <ele>2193</ele>
        <time>2019-10-06T06:22:29Z</time>
      </trkpt>
      <trkpt lat="45.69346" lon="6.88463">
        <ele>2193</ele>
        <time>2019-10-06T06:22:30Z</time>
      </trkpt>
      <trkpt lat="45.69348" lon="6.88463">
        <ele>2193</ele>
        <time>2019-10-06T06:22:31Z</time>
      </trkpt>
      <trkpt lat="45.6935" lon="6.88462">
        <ele>2193</ele>
        <time>2019-10-06T06:22:33Z</time>
      </trkpt>
      <trkpt lat="45.69352" lon="6.88461">
        <ele>2192</ele>
        <time>2019-10-06T06:22:35Z</time>
      </trkpt>
      <trkpt lat="45.69355" lon="6.88459">
        <ele>2191</ele>
        <time>2019-10-06T06:22:37Z</time>
      </trkpt>
      <trkpt lat="45.69359" lon="6.88459">
        <ele>2189</ele>
        <time>2019-10-06T06:22:39Z</time>
      </trkpt>
      <trkpt lat="45.69362" lon="6.88457">
        <ele>2186</ele>
        <time>2019-10-06T06:22:41Z</time>
      </trkpt>
      <trkpt lat="45.69365" lon="6.88455">
        <ele>2186</ele>
        <time>2019-10-06T06:22:42Z</time>
      </trkpt>
      <trkpt lat="45.69366" lon="6.88454">
        <ele>2185</ele>
        <time>2019-10-06T06:22:43Z</time>
      </trkpt>
      <trkpt lat="45.69369" lon="6.88454">
        <ele>2183</ele>
        <time>2019-10-06T06:22:44Z</time>
      </trkpt>
      <trkpt lat="45.69371" lon="6.88452">
        <ele>2182</ele>
        <time>2019-10-06T06:22:45Z</time>
      </trkpt>
      <trkpt lat="45.69374" lon="6.8845">
        <ele>2181</ele>
        <time>2019-10-06T06:22:46Z</time>
      </trkpt>
      <trkpt lat="45.69375" lon="6.88447">
        <ele>2181</ele>
        <time>2019-10-06T06:22:47Z</time>
      </trkpt>
      <trkpt lat="45.69377" lon="6.88443">
        <ele>2183</ele>
        <time>2019-10-06T06:22:48Z</time>
      </trkpt>
      <trkpt lat="45.69378" lon="6.88439">
        <ele>2185</ele>
        <time>2019-10-06T06:22:49Z</time>
      </trkpt>
      <trkpt lat="45.6938" lon="6.88436">
        <ele>2185</ele>
        <time>2019-10-06T06:22:50Z</time>
      </trkpt>
      <trkpt lat="45.69382" lon="6.88434">
        <ele>2186</ele>
        <time>2019-10-06T06:22:51Z</time>
      </trkpt>
      <trkpt lat="45.69383" lon="6.88432">
        <ele>2187</ele>
        <time>2019-10-06T06:22:52Z</time>
      </trkpt>
      <trkpt lat="45.69385" lon="6.8843">
        <ele>2187</ele>
        <time>2019-10-06T06:22:53Z</time>
      </trkpt>
      <trkpt lat="45.69387" lon="6.88429">
        <ele>2186</ele>
        <time>2019-10-06T06:22:54Z</time>
      </trkpt>
      <trkpt lat="45.69389" lon="6.88427">
        <ele>2186</ele>
        <time>2019-10-06T06:22:56Z</time>
      </trkpt>
      <trkpt lat="45.69389" lon="6.88427">
        <ele>2185</ele>
        <time>2019-10-06T06:22:59Z</time>
      </trkpt>
      <trkpt lat="45.6939" lon="6.88424">
        <ele>2186</ele>
        <time>2019-10-06T06:23:00Z</time>
      </trkpt>
      <trkpt lat="45.69392" lon="6.88421">
        <ele>2186</ele>
        <time>2019-10-06T06:23:02Z</time>
      </trkpt>
      <trkpt lat="45.69394" lon="6.88418">
        <ele>2185</ele>
        <time>2019-10-06T06:23:04Z</time>
      </trkpt>
      <trkpt lat="45.69397" lon="6.88415">
        <ele>2184</ele>
        <time>2019-10-06T06:23:06Z</time>
      </trkpt>
      <trkpt lat="45.69399" lon="6.88412">
        <ele>2184</ele>
        <time>2019-10-06T06:23:07Z</time>
      </trkpt>
      <trkpt lat="45.69401" lon="6.88411">
        <ele>2184</ele>
        <time>2019-10-06T06:23:08Z</time>
      </trkpt>
      <trkpt lat="45.69403" lon="6.88409">
        <ele>2183</ele>
        <time>2019-10-06T06:23:09Z</time>
      </trkpt>
      <trkpt lat="45.69405" lon="6.88407">
        <ele>2183</ele>
        <time>2019-10-06T06:23:10Z</time>
      </trkpt>
      <trkpt lat="45.69407" lon="6.88406">
        <ele>2183</ele>
        <time>2019-10-06T06:23:11Z</time>
      </trkpt>
      <trkpt lat="45.6941" lon="6.88404">
        <ele>2183</ele>
        <time>2019-10-06T06:23:12Z</time>
      </trkpt>
      <trkpt lat="45.69412" lon="6.88403">
        <ele>2183</ele>
        <time>2019-10-06T06:23:13Z</time>
      </trkpt>
      <trkpt lat="45.69414" lon="6.884">
        <ele>2183</ele>
        <time>2019-10-06T06:23:14Z</time>
      </trkpt>
      <trkpt lat="45.69416" lon="6.88398">
        <ele>2182</ele>
        <time>2019-10-06T06:23:15Z</time>
      </trkpt>
      <trkpt lat="45.69418" lon="6.88396">
        <ele>2181</ele>
        <time>2019-10-06T06:23:16Z</time>
      </trkpt>
      <trkpt lat="45.6942" lon="6.88392">
        <ele>2181</ele>
        <time>2019-10-06T06:23:17Z</time>
      </trkpt>
      <trkpt lat="45.69422" lon="6.88389">
        <ele>2181</ele>
        <time>2019-10-06T06:23:18Z</time>
      </trkpt>
      <trkpt lat="45.69424" lon="6.88386">
        <ele>2180</ele>
        <time>2019-10-06T06:23:19Z</time>
      </trkpt>
      <trkpt lat="45.69426" lon="6.88383">
        <ele>2180</ele>
        <time>2019-10-06T06:23:20Z</time>
      </trkpt>
      <trkpt lat="45.69428" lon="6.88381">
        <ele>2180</ele>
        <time>2019-10-06T06:23:21Z</time>
      </trkpt>
      <trkpt lat="45.69431" lon="6.88378">
        <ele>2181</ele>
        <time>2019-10-06T06:23:22Z</time>
      </trkpt>
      <trkpt lat="45.69433" lon="6.88376">
        <ele>2181</ele>
        <time>2019-10-06T06:23:23Z</time>
      </trkpt>
      <trkpt lat="45.69436" lon="6.88374">
        <ele>2181</ele>
        <time>2019-10-06T06:23:24Z</time>
      </trkpt>
      <trkpt lat="45.69438" lon="6.88372">
        <ele>2181</ele>
        <time>2019-10-06T06:23:25Z</time>
      </trkpt>
      <trkpt lat="45.6944" lon="6.8837">
        <ele>2181</ele>
        <time>2019-10-06T06:23:26Z</time>
      </trkpt>
      <trkpt lat="45.69443" lon="6.88367">
        <ele>2181</ele>
        <time>2019-10-06T06:23:27Z</time>
      </trkpt>
      <trkpt lat="45.69444" lon="6.88364">
        <ele>2181</ele>
        <time>2019-10-06T06:23:28Z</time>
      </trkpt>
      <trkpt lat="45.69446" lon="6.88361">
        <ele>2181</ele>
        <time>2019-10-06T06:23:29Z</time>
      </trkpt>
      <trkpt lat="45.69448" lon="6.88357">
        <ele>2180</ele>
        <time>2019-10-06T06:23:30Z</time>
      </trkpt>
      <trkpt lat="45.69449" lon="6.88354">
        <ele>2180</ele>
        <time>2019-10-06T06:23:31Z</time>
      </trkpt>
      <trkpt lat="45.69451" lon="6.8835">
        <ele>2180</ele>
        <time>2019-10-06T06:23:32Z</time>
      </trkpt>
      <trkpt lat="45.69452" lon="6.88347">
        <ele>2179</ele>
        <time>2019-10-06T06:23:33Z</time>
      </trkpt>
      <trkpt lat="45.69453" lon="6.88344">
        <ele>2179</ele>
        <time>2019-10-06T06:23:34Z</time>
      </trkpt>
      <trkpt lat="45.69454" lon="6.8834">
        <ele>2179</ele>
        <time>2019-10-06T06:23:35Z</time>
      </trkpt>
      <trkpt lat="45.69455" lon="6.88336">
        <ele>2178</ele>
        <time>2019-10-06T06:23:36Z</time>
      </trkpt>
      <trkpt lat="45.69457" lon="6.88332">
        <ele>2178</ele>
        <time>2019-10-06T06:23:37Z</time>
      </trkpt>
      <trkpt lat="45.69458" lon="6.88328">
        <ele>2178</ele>
        <time>2019-10-06T06:23:38Z</time>
      </trkpt>
      <trkpt lat="45.69459" lon="6.88324">
        <ele>2178</ele>
        <time>2019-10-06T06:23:39Z</time>
      </trkpt>
      <trkpt lat="45.6946" lon="6.88321">
        <ele>2178</ele>
        <time>2019-10-06T06:23:40Z</time>
      </trkpt>
      <trkpt lat="45.69462" lon="6.88317">
        <ele>2177</ele>
        <time>2019-10-06T06:23:41Z</time>
      </trkpt>
      <trkpt lat="45.69463" lon="6.88314">
        <ele>2177</ele>
        <time>2019-10-06T06:23:42Z</time>
      </trkpt>
      <trkpt lat="45.69465" lon="6.88312">
        <ele>2177</ele>
        <time>2019-10-06T06:23:43Z</time>
      </trkpt>
      <trkpt lat="45.69467" lon="6.88309">
        <ele>2177</ele>
        <time>2019-10-06T06:23:44Z</time>
      </trkpt>
      <trkpt lat="45.69468" lon="6.88306">
        <ele>2177</ele>
        <time>2019-10-06T06:23:45Z</time>
      </trkpt>
      <trkpt lat="45.6947" lon="6.88303">
        <ele>2177</ele>
        <time>2019-10-06T06:23:46Z</time>
      </trkpt>
      <trkpt lat="45.69473" lon="6.88301">
        <ele>2177</ele>
        <time>2019-10-06T06:23:47Z</time>
      </trkpt>
      <trkpt lat="45.69475" lon="6.88298">
        <ele>2177</ele>
        <time>2019-10-06T06:23:48Z</time>
      </trkpt>
      <trkpt lat="45.69477" lon="6.88296">
        <ele>2177</ele>
        <time>2019-10-06T06:23:49Z</time>
      </trkpt>
      <trkpt lat="45.69478" lon="6.88293">
        <ele>2177</ele>
        <time>2019-10-06T06:23:50Z</time>
      </trkpt>
      <trkpt lat="45.6948" lon="6.88291">
        <ele>2177</ele>
        <time>2019-10-06T06:23:51Z</time>
      </trkpt>
      <trkpt lat="45.69482" lon="6.88288">
        <ele>2177</ele>
        <time>2019-10-06T06:23:52Z</time>
      </trkpt>
      <trkpt lat="45.69483" lon="6.88286">
        <ele>2177</ele>
        <time>2019-10-06T06:23:53Z</time>
      </trkpt>
      <trkpt lat="45.69484" lon="6.88283">
        <ele>2177</ele>
        <time>2019-10-06T06:23:54Z</time>
      </trkpt>
      <trkpt lat="45.69485" lon="6.88279">
        <ele>2177</ele>
        <time>2019-10-06T06:23:56Z</time>
      </trkpt>
      <trkpt lat="45.69486" lon="6.88276">
        <ele>2177</ele>
        <time>2019-10-06T06:23:58Z</time>
      </trkpt>
      <trkpt lat="45.69488" lon="6.88272">
        <ele>2176</ele>
        <time>2019-10-06T06:24:00Z</time>
      </trkpt>
      <trkpt lat="45.69491" lon="6.88269">
        <ele>2175</ele>
        <time>2019-10-06T06:24:02Z</time>
      </trkpt>
      <trkpt lat="45.69493" lon="6.88267">
        <ele>2174</ele>
        <time>2019-10-06T06:24:03Z</time>
      </trkpt>
      <trkpt lat="45.69495" lon="6.88265">
        <ele>2174</ele>
        <time>2019-10-06T06:24:04Z</time>
      </trkpt>
      <trkpt lat="45.69497" lon="6.88264">
        <ele>2174</ele>
        <time>2019-10-06T06:24:05Z</time>
      </trkpt>
      <trkpt lat="45.69498" lon="6.88263">
        <ele>2174</ele>
        <time>2019-10-06T06:24:06Z</time>
      </trkpt>
      <trkpt lat="45.695" lon="6.88262">
        <ele>2175</ele>
        <time>2019-10-06T06:24:07Z</time>
      </trkpt>
      <trkpt lat="45.69502" lon="6.8826">
        <ele>2176</ele>
        <time>2019-10-06T06:24:08Z</time>
      </trkpt>
      <trkpt lat="45.69503" lon="6.88257">
        <ele>2176</ele>
        <time>2019-10-06T06:24:10Z</time>
      </trkpt>
      <trkpt lat="45.69505" lon="6.88255">
        <ele>2176</ele>
        <time>2019-10-06T06:24:12Z</time>
      </trkpt>
      <trkpt lat="45.69507" lon="6.88252">
        <ele>2176</ele>
        <time>2019-10-06T06:24:14Z</time>
      </trkpt>
      <trkpt lat="45.69508" lon="6.88249">
        <ele>2176</ele>
        <time>2019-10-06T06:24:15Z</time>
      </trkpt>
      <trkpt lat="45.69509" lon="6.88247">
        <ele>2176</ele>
        <time>2019-10-06T06:24:16Z</time>
      </trkpt>
      <trkpt lat="45.6951" lon="6.88245">
        <ele>2176</ele>
        <time>2019-10-06T06:24:17Z</time>
      </trkpt>
      <trkpt lat="45.69511" lon="6.88242">
        <ele>2176</ele>
        <time>2019-10-06T06:24:18Z</time>
      </trkpt>
      <trkpt lat="45.69513" lon="6.88239">
        <ele>2177</ele>
        <time>2019-10-06T06:24:20Z</time>
      </trkpt>
      <trkpt lat="45.69515" lon="6.88236">
        <ele>2174</ele>
        <time>2019-10-06T06:24:22Z</time>
      </trkpt>
      <trkpt lat="45.69518" lon="6.88234">
        <ele>2173</ele>
        <time>2019-10-06T06:24:24Z</time>
      </trkpt>
      <trkpt lat="45.69521" lon="6.88236">
        <ele>2172</ele>
        <time>2019-10-06T06:24:26Z</time>
      </trkpt>
      <trkpt lat="45.69521" lon="6.88236">
        <ele>2171</ele>
        <time>2019-10-06T06:24:28Z</time>
      </trkpt>
      <trkpt lat="45.69523" lon="6.88233">
        <ele>2170</ele>
        <time>2019-10-06T06:24:29Z</time>
      </trkpt>
      <trkpt lat="45.69524" lon="6.88232">
        <ele>2170</ele>
        <time>2019-10-06T06:24:30Z</time>
      </trkpt>
      <trkpt lat="45.69526" lon="6.88231">
        <ele>2170</ele>
        <time>2019-10-06T06:24:31Z</time>
      </trkpt>
      <trkpt lat="45.69528" lon="6.88229">
        <ele>2170</ele>
        <time>2019-10-06T06:24:32Z</time>
      </trkpt>
      <trkpt lat="45.69531" lon="6.88226">
        <ele>2167</ele>
        <time>2019-10-06T06:24:34Z</time>
      </trkpt>
      <trkpt lat="45.69532" lon="6.88224">
        <ele>2167</ele>
        <time>2019-10-06T06:24:35Z</time>
      </trkpt>
      <trkpt lat="45.69535" lon="6.8822">
        <ele>2167</ele>
        <time>2019-10-06T06:24:36Z</time>
      </trkpt>
      <trkpt lat="45.69536" lon="6.88219">
        <ele>2164</ele>
        <time>2019-10-06T06:24:37Z</time>
      </trkpt>
      <trkpt lat="45.69537" lon="6.88217">
        <ele>2163</ele>
        <time>2019-10-06T06:24:38Z</time>
      </trkpt>
      <trkpt lat="45.69539" lon="6.88215">
        <ele>2163</ele>
        <time>2019-10-06T06:24:39Z</time>
      </trkpt>
      <trkpt lat="45.69541" lon="6.88213">
        <ele>2163</ele>
        <time>2019-10-06T06:24:40Z</time>
      </trkpt>
      <trkpt lat="45.69542" lon="6.8821">
        <ele>2163</ele>
        <time>2019-10-06T06:24:41Z</time>
      </trkpt>
      <trkpt lat="45.69544" lon="6.88208">
        <ele>2163</ele>
        <time>2019-10-06T06:24:42Z</time>
      </trkpt>
      <trkpt lat="45.69545" lon="6.88205">
        <ele>2163</ele>
        <time>2019-10-06T06:24:43Z</time>
      </trkpt>
      <trkpt lat="45.69547" lon="6.88204">
        <ele>2162</ele>
        <time>2019-10-06T06:24:44Z</time>
      </trkpt>
      <trkpt lat="45.6955" lon="6.88203">
        <ele>2162</ele>
        <time>2019-10-06T06:24:45Z</time>
      </trkpt>
      <trkpt lat="45.69552" lon="6.88202">
        <ele>2161</ele>
        <time>2019-10-06T06:24:46Z</time>
      </trkpt>
      <trkpt lat="45.69554" lon="6.882">
        <ele>2161</ele>
        <time>2019-10-06T06:24:47Z</time>
      </trkpt>
      <trkpt lat="45.69555" lon="6.88198">
        <ele>2160</ele>
        <time>2019-10-06T06:24:48Z</time>
      </trkpt>
      <trkpt lat="45.69557" lon="6.88196">
        <ele>2160</ele>
        <time>2019-10-06T06:24:49Z</time>
      </trkpt>
      <trkpt lat="45.69559" lon="6.88193">
        <ele>2159</ele>
        <time>2019-10-06T06:24:51Z</time>
      </trkpt>
      <trkpt lat="45.69561" lon="6.88189">
        <ele>2157</ele>
        <time>2019-10-06T06:24:53Z</time>
      </trkpt>
      <trkpt lat="45.69562" lon="6.88186">
        <ele>2157</ele>
        <time>2019-10-06T06:24:55Z</time>
      </trkpt>
      <trkpt lat="45.69564" lon="6.88182">
        <ele>2156</ele>
        <time>2019-10-06T06:24:57Z</time>
      </trkpt>
      <trkpt lat="45.69567" lon="6.88179">
        <ele>2156</ele>
        <time>2019-10-06T06:24:59Z</time>
      </trkpt>
      <trkpt lat="45.6957" lon="6.88177">
        <ele>2154</ele>
        <time>2019-10-06T06:25:01Z</time>
      </trkpt>
      <trkpt lat="45.69573" lon="6.88176">
        <ele>2152</ele>
        <time>2019-10-06T06:25:03Z</time>
      </trkpt>
      <trkpt lat="45.69575" lon="6.88176">
        <ele>2151</ele>
        <time>2019-10-06T06:25:04Z</time>
      </trkpt>
      <trkpt lat="45.69579" lon="6.88175">
        <ele>2151</ele>
        <time>2019-10-06T06:25:06Z</time>
      </trkpt>
      <trkpt lat="45.69582" lon="6.88174">
        <ele>2151</ele>
        <time>2019-10-06T06:25:08Z</time>
      </trkpt>
      <trkpt lat="45.69584" lon="6.88173">
        <ele>2149</ele>
        <time>2019-10-06T06:25:10Z</time>
      </trkpt>
      <trkpt lat="45.69588" lon="6.88173">
        <ele>2151</ele>
        <time>2019-10-06T06:25:12Z</time>
      </trkpt>
      <trkpt lat="45.6959" lon="6.88173">
        <ele>2150</ele>
        <time>2019-10-06T06:25:13Z</time>
      </trkpt>
      <trkpt lat="45.69593" lon="6.88174">
        <ele>2150</ele>
        <time>2019-10-06T06:25:14Z</time>
      </trkpt>
      <trkpt lat="45.69596" lon="6.88173">
        <ele>2149</ele>
        <time>2019-10-06T06:25:15Z</time>
      </trkpt>
      <trkpt lat="45.69599" lon="6.88173">
        <ele>2148</ele>
        <time>2019-10-06T06:25:16Z</time>
      </trkpt>
      <trkpt lat="45.69601" lon="6.88173">
        <ele>2148</ele>
        <time>2019-10-06T06:25:17Z</time>
      </trkpt>
      <trkpt lat="45.69603" lon="6.88173">
        <ele>2148</ele>
        <time>2019-10-06T06:25:18Z</time>
      </trkpt>
      <trkpt lat="45.69606" lon="6.88172">
        <ele>2147</ele>
        <time>2019-10-06T06:25:19Z</time>
      </trkpt>
      <trkpt lat="45.69608" lon="6.88172">
        <ele>2146</ele>
        <time>2019-10-06T06:25:20Z</time>
      </trkpt>
      <trkpt lat="45.69611" lon="6.88172">
        <ele>2146</ele>
        <time>2019-10-06T06:25:21Z</time>
      </trkpt>
      <trkpt lat="45.69613" lon="6.88171">
        <ele>2145</ele>
        <time>2019-10-06T06:25:22Z</time>
      </trkpt>
      <trkpt lat="45.69615" lon="6.8817">
        <ele>2146</ele>
        <time>2019-10-06T06:25:23Z</time>
      </trkpt>
      <trkpt lat="45.69617" lon="6.88169">
        <ele>2147</ele>
        <time>2019-10-06T06:25:24Z</time>
      </trkpt>
      <trkpt lat="45.69619" lon="6.88168">
        <ele>2147</ele>
        <time>2019-10-06T06:25:25Z</time>
      </trkpt>
      <trkpt lat="45.69622" lon="6.88167">
        <ele>2146</ele>
        <time>2019-10-06T06:25:26Z</time>
      </trkpt>
      <trkpt lat="45.69624" lon="6.88165">
        <ele>2146</ele>
        <time>2019-10-06T06:25:27Z</time>
      </trkpt>
      <trkpt lat="45.69626" lon="6.88162">
        <ele>2144</ele>
        <time>2019-10-06T06:25:28Z</time>
      </trkpt>
      <trkpt lat="45.69629" lon="6.8816">
        <ele>2142</ele>
        <time>2019-10-06T06:25:29Z</time>
      </trkpt>
      <trkpt lat="45.69631" lon="6.88158">
        <ele>2142</ele>
        <time>2019-10-06T06:25:30Z</time>
      </trkpt>
      <trkpt lat="45.69633" lon="6.88156">
        <ele>2142</ele>
        <time>2019-10-06T06:25:31Z</time>
      </trkpt>
      <trkpt lat="45.69635" lon="6.88154">
        <ele>2141</ele>
        <time>2019-10-06T06:25:32Z</time>
      </trkpt>
      <trkpt lat="45.69638" lon="6.88153">
        <ele>2141</ele>
        <time>2019-10-06T06:25:33Z</time>
      </trkpt>
      <trkpt lat="45.6964" lon="6.88151">
        <ele>2140</ele>
        <time>2019-10-06T06:25:34Z</time>
      </trkpt>
      <trkpt lat="45.69642" lon="6.88148">
        <ele>2140</ele>
        <time>2019-10-06T06:25:35Z</time>
      </trkpt>
      <trkpt lat="45.69643" lon="6.88146">
        <ele>2140</ele>
        <time>2019-10-06T06:25:36Z</time>
      </trkpt>
      <trkpt lat="45.69645" lon="6.88144">
        <ele>2140</ele>
        <time>2019-10-06T06:25:37Z</time>
      </trkpt>
      <trkpt lat="45.69647" lon="6.88143">
        <ele>2140</ele>
        <time>2019-10-06T06:25:38Z</time>
      </trkpt>
      <trkpt lat="45.69649" lon="6.88143">
        <ele>2140</ele>
        <time>2019-10-06T06:25:39Z</time>
      </trkpt>
      <trkpt lat="45.69651" lon="6.88141">
        <ele>2140</ele>
        <time>2019-10-06T06:25:40Z</time>
      </trkpt>
      <trkpt lat="45.69653" lon="6.88139">
        <ele>2140</ele>
        <time>2019-10-06T06:25:42Z</time>
      </trkpt>
      <trkpt lat="45.69656" lon="6.88137">
        <ele>2140</ele>
        <time>2019-10-06T06:25:44Z</time>
      </trkpt>
      <trkpt lat="45.69659" lon="6.88135">
        <ele>2140</ele>
        <time>2019-10-06T06:25:46Z</time>
      </trkpt>
      <trkpt lat="45.69661" lon="6.88133">
        <ele>2140</ele>
        <time>2019-10-06T06:25:48Z</time>
      </trkpt>
      <trkpt lat="45.69664" lon="6.88132">
        <ele>2141</ele>
        <time>2019-10-06T06:25:50Z</time>
      </trkpt>
      <trkpt lat="45.69667" lon="6.8813">
        <ele>2141</ele>
        <time>2019-10-06T06:25:52Z</time>
      </trkpt>
      <trkpt lat="45.69669" lon="6.88129">
        <ele>2141</ele>
        <time>2019-10-06T06:25:53Z</time>
      </trkpt>
      <trkpt lat="45.69672" lon="6.88127">
        <ele>2140</ele>
        <time>2019-10-06T06:25:55Z</time>
      </trkpt>
      <trkpt lat="45.69674" lon="6.88126">
        <ele>2140</ele>
        <time>2019-10-06T06:25:57Z</time>
      </trkpt>
      <trkpt lat="45.69677" lon="6.88124">
        <ele>2140</ele>
        <time>2019-10-06T06:25:59Z</time>
      </trkpt>
      <trkpt lat="45.69679" lon="6.88124">
        <ele>2140</ele>
        <time>2019-10-06T06:26:01Z</time>
      </trkpt>
      <trkpt lat="45.69682" lon="6.88123">
        <ele>2140</ele>
        <time>2019-10-06T06:26:03Z</time>
      </trkpt>
      <trkpt lat="45.69684" lon="6.88123">
        <ele>2140</ele>
        <time>2019-10-06T06:26:04Z</time>
      </trkpt>
      <trkpt lat="45.69686" lon="6.88123">
        <ele>2140</ele>
        <time>2019-10-06T06:26:05Z</time>
      </trkpt>
      <trkpt lat="45.69688" lon="6.88123">
        <ele>2140</ele>
        <time>2019-10-06T06:26:06Z</time>
      </trkpt>
      <trkpt lat="45.6969" lon="6.88122">
        <ele>2140</ele>
        <time>2019-10-06T06:26:07Z</time>
      </trkpt>
      <trkpt lat="45.69692" lon="6.88121">
        <ele>2140</ele>
        <time>2019-10-06T06:26:08Z</time>
      </trkpt>
      <trkpt lat="45.69695" lon="6.88121">
        <ele>2141</ele>
        <time>2019-10-06T06:26:09Z</time>
      </trkpt>
      <trkpt lat="45.69697" lon="6.8812">
        <ele>2141</ele>
        <time>2019-10-06T06:26:10Z</time>
      </trkpt>
      <trkpt lat="45.69699" lon="6.88119">
        <ele>2141</ele>
        <time>2019-10-06T06:26:11Z</time>
      </trkpt>
      <trkpt lat="45.697" lon="6.88118">
        <ele>2141</ele>
        <time>2019-10-06T06:26:12Z</time>
      </trkpt>
      <trkpt lat="45.69702" lon="6.88117">
        <ele>2140</ele>
        <time>2019-10-06T06:26:13Z</time>
      </trkpt>
      <trkpt lat="45.69704" lon="6.88116">
        <ele>2140</ele>
        <time>2019-10-06T06:26:14Z</time>
      </trkpt>
      <trkpt lat="45.69707" lon="6.88113">
        <ele>2140</ele>
        <time>2019-10-06T06:26:16Z</time>
      </trkpt>
      <trkpt lat="45.69709" lon="6.88109">
        <ele>2139</ele>
        <time>2019-10-06T06:26:18Z</time>
      </trkpt>
      <trkpt lat="45.69712" lon="6.88106">
        <ele>2138</ele>
        <time>2019-10-06T06:26:20Z</time>
      </trkpt>
      <trkpt lat="45.69713" lon="6.88104">
        <ele>2137</ele>
        <time>2019-10-06T06:26:21Z</time>
      </trkpt>
      <trkpt lat="45.69714" lon="6.88102">
        <ele>2137</ele>
        <time>2019-10-06T06:26:22Z</time>
      </trkpt>
      <trkpt lat="45.69718" lon="6.881">
        <ele>2137</ele>
        <time>2019-10-06T06:26:24Z</time>
      </trkpt>
      <trkpt lat="45.6972" lon="6.88099">
        <ele>2136</ele>
        <time>2019-10-06T06:26:25Z</time>
      </trkpt>
      <trkpt lat="45.69722" lon="6.88097">
        <ele>2135</ele>
        <time>2019-10-06T06:26:26Z</time>
      </trkpt>
      <trkpt lat="45.69724" lon="6.88095">
        <ele>2135</ele>
        <time>2019-10-06T06:26:27Z</time>
      </trkpt>
      <trkpt lat="45.69726" lon="6.88092">
        <ele>2135</ele>
        <time>2019-10-06T06:26:28Z</time>
      </trkpt>
      <trkpt lat="45.69728" lon="6.88089">
        <ele>2135</ele>
        <time>2019-10-06T06:26:29Z</time>
      </trkpt>
      <trkpt lat="45.69729" lon="6.88086">
        <ele>2135</ele>
        <time>2019-10-06T06:26:30Z</time>
      </trkpt>
      <trkpt lat="45.6973" lon="6.88082">
        <ele>2135</ele>
        <time>2019-10-06T06:26:31Z</time>
      </trkpt>
      <trkpt lat="45.6973" lon="6.88078">
        <ele>2134</ele>
        <time>2019-10-06T06:26:32Z</time>
      </trkpt>
      <trkpt lat="45.69731" lon="6.88075">
        <ele>2133</ele>
        <time>2019-10-06T06:26:33Z</time>
      </trkpt>
      <trkpt lat="45.69731" lon="6.88072">
        <ele>2133</ele>
        <time>2019-10-06T06:26:34Z</time>
      </trkpt>
      <trkpt lat="45.69732" lon="6.88069">
        <ele>2132</ele>
        <time>2019-10-06T06:26:35Z</time>
      </trkpt>
      <trkpt lat="45.69733" lon="6.88067">
        <ele>2131</ele>
        <time>2019-10-06T06:26:36Z</time>
      </trkpt>
      <trkpt lat="45.69734" lon="6.88064">
        <ele>2130</ele>
        <time>2019-10-06T06:26:37Z</time>
      </trkpt>
      <trkpt lat="45.69735" lon="6.88062">
        <ele>2130</ele>
        <time>2019-10-06T06:26:38Z</time>
      </trkpt>
      <trkpt lat="45.69737" lon="6.88059">
        <ele>2129</ele>
        <time>2019-10-06T06:26:39Z</time>
      </trkpt>
      <trkpt lat="45.69738" lon="6.88057">
        <ele>2129</ele>
        <time>2019-10-06T06:26:40Z</time>
      </trkpt>
      <trkpt lat="45.6974" lon="6.88055">
        <ele>2129</ele>
        <time>2019-10-06T06:26:41Z</time>
      </trkpt>
      <trkpt lat="45.69741" lon="6.88053">
        <ele>2128</ele>
        <time>2019-10-06T06:26:42Z</time>
      </trkpt>
      <trkpt lat="45.69744" lon="6.8805">
        <ele>2127</ele>
        <time>2019-10-06T06:26:44Z</time>
      </trkpt>
      <trkpt lat="45.69746" lon="6.88049">
        <ele>2126</ele>
        <time>2019-10-06T06:26:45Z</time>
      </trkpt>
      <trkpt lat="45.69748" lon="6.88048">
        <ele>2126</ele>
        <time>2019-10-06T06:26:46Z</time>
      </trkpt>
      <trkpt lat="45.6975" lon="6.88047">
        <ele>2125</ele>
        <time>2019-10-06T06:26:47Z</time>
      </trkpt>
      <trkpt lat="45.69753" lon="6.88047">
        <ele>2125</ele>
        <time>2019-10-06T06:26:48Z</time>
      </trkpt>
      <trkpt lat="45.69755" lon="6.88047">
        <ele>2125</ele>
        <time>2019-10-06T06:26:49Z</time>
      </trkpt>
      <trkpt lat="45.69758" lon="6.88047">
        <ele>2124</ele>
        <time>2019-10-06T06:26:50Z</time>
      </trkpt>
      <trkpt lat="45.6976" lon="6.88047">
        <ele>2123</ele>
        <time>2019-10-06T06:26:51Z</time>
      </trkpt>
      <trkpt lat="45.69763" lon="6.88047">
        <ele>2123</ele>
        <time>2019-10-06T06:26:52Z</time>
      </trkpt>
      <trkpt lat="45.69766" lon="6.88047">
        <ele>2122</ele>
        <time>2019-10-06T06:26:53Z</time>
      </trkpt>
      <trkpt lat="45.69768" lon="6.88046">
        <ele>2122</ele>
        <time>2019-10-06T06:26:54Z</time>
      </trkpt>
      <trkpt lat="45.69771" lon="6.88046">
        <ele>2122</ele>
        <time>2019-10-06T06:26:55Z</time>
      </trkpt>
      <trkpt lat="45.69773" lon="6.88047">
        <ele>2121</ele>
        <time>2019-10-06T06:26:56Z</time>
      </trkpt>
      <trkpt lat="45.69776" lon="6.88046">
        <ele>2121</ele>
        <time>2019-10-06T06:26:57Z</time>
      </trkpt>
      <trkpt lat="45.69777" lon="6.88046">
        <ele>2121</ele>
        <time>2019-10-06T06:26:58Z</time>
      </trkpt>
      <trkpt lat="45.6978" lon="6.88044">
        <ele>2121</ele>
        <time>2019-10-06T06:27:00Z</time>
      </trkpt>
      <trkpt lat="45.69782" lon="6.88043">
        <ele>2121</ele>
        <time>2019-10-06T06:27:02Z</time>
      </trkpt>
      <trkpt lat="45.69785" lon="6.88042">
        <ele>2121</ele>
        <time>2019-10-06T06:27:04Z</time>
      </trkpt>
      <trkpt lat="45.69788" lon="6.88041">
        <ele>2121</ele>
        <time>2019-10-06T06:27:06Z</time>
      </trkpt>
      <trkpt lat="45.6979" lon="6.88042">
        <ele>2121</ele>
        <time>2019-10-06T06:27:07Z</time>
      </trkpt>
      <trkpt lat="45.69792" lon="6.88041">
        <ele>2121</ele>
        <time>2019-10-06T06:27:08Z</time>
      </trkpt>
      <trkpt lat="45.69794" lon="6.88041">
        <ele>2123</ele>
        <time>2019-10-06T06:27:09Z</time>
      </trkpt>
      <trkpt lat="45.69795" lon="6.8804">
        <ele>2123</ele>
        <time>2019-10-06T06:27:10Z</time>
      </trkpt>
      <trkpt lat="45.69797" lon="6.8804">
        <ele>2123</ele>
        <time>2019-10-06T06:27:11Z</time>
      </trkpt>
      <trkpt lat="45.69799" lon="6.8804">
        <ele>2124</ele>
        <time>2019-10-06T06:27:12Z</time>
      </trkpt>
      <trkpt lat="45.69801" lon="6.8804">
        <ele>2124</ele>
        <time>2019-10-06T06:27:13Z</time>
      </trkpt>
      <trkpt lat="45.69803" lon="6.88041">
        <ele>2124</ele>
        <time>2019-10-06T06:27:14Z</time>
      </trkpt>
      <trkpt lat="45.69805" lon="6.88043">
        <ele>2124</ele>
        <time>2019-10-06T06:27:15Z</time>
      </trkpt>
      <trkpt lat="45.69807" lon="6.88045">
        <ele>2125</ele>
        <time>2019-10-06T06:27:16Z</time>
      </trkpt>
      <trkpt lat="45.69809" lon="6.88046">
        <ele>2126</ele>
        <time>2019-10-06T06:27:17Z</time>
      </trkpt>
      <trkpt lat="45.69812" lon="6.88047">
        <ele>2128</ele>
        <time>2019-10-06T06:27:18Z</time>
      </trkpt>
      <trkpt lat="45.69814" lon="6.88048">
        <ele>2128</ele>
        <time>2019-10-06T06:27:19Z</time>
      </trkpt>
      <trkpt lat="45.69816" lon="6.88048">
        <ele>2128</ele>
        <time>2019-10-06T06:27:20Z</time>
      </trkpt>
      <trkpt lat="45.69819" lon="6.88048">
        <ele>2127</ele>
        <time>2019-10-06T06:27:21Z</time>
      </trkpt>
      <trkpt lat="45.69821" lon="6.88046">
        <ele>2126</ele>
        <time>2019-10-06T06:27:22Z</time>
      </trkpt>
      <trkpt lat="45.69824" lon="6.88044">
        <ele>2125</ele>
        <time>2019-10-06T06:27:23Z</time>
      </trkpt>
      <trkpt lat="45.69826" lon="6.88043">
        <ele>2125</ele>
        <time>2019-10-06T06:27:24Z</time>
      </trkpt>
      <trkpt lat="45.69828" lon="6.8804">
        <ele>2125</ele>
        <time>2019-10-06T06:27:25Z</time>
      </trkpt>
      <trkpt lat="45.6983" lon="6.88038">
        <ele>2124</ele>
        <time>2019-10-06T06:27:26Z</time>
      </trkpt>
      <trkpt lat="45.69832" lon="6.88036">
        <ele>2124</ele>
        <time>2019-10-06T06:27:27Z</time>
      </trkpt>
      <trkpt lat="45.69835" lon="6.88035">
        <ele>2123</ele>
        <time>2019-10-06T06:27:28Z</time>
      </trkpt>
      <trkpt lat="45.69837" lon="6.88033">
        <ele>2123</ele>
        <time>2019-10-06T06:27:29Z</time>
      </trkpt>
      <trkpt lat="45.6984" lon="6.88031">
        <ele>2124</ele>
        <time>2019-10-06T06:27:30Z</time>
      </trkpt>
      <trkpt lat="45.69841" lon="6.88029">
        <ele>2124</ele>
        <time>2019-10-06T06:27:31Z</time>
      </trkpt>
      <trkpt lat="45.69843" lon="6.88026">
        <ele>2123</ele>
        <time>2019-10-06T06:27:32Z</time>
      </trkpt>
      <trkpt lat="45.69844" lon="6.88024">
        <ele>2123</ele>
        <time>2019-10-06T06:27:33Z</time>
      </trkpt>
      <trkpt lat="45.69845" lon="6.88021">
        <ele>2123</ele>
        <time>2019-10-06T06:27:34Z</time>
      </trkpt>
      <trkpt lat="45.69846" lon="6.88018">
        <ele>2123</ele>
        <time>2019-10-06T06:27:35Z</time>
      </trkpt>
      <trkpt lat="45.69848" lon="6.88016">
        <ele>2123</ele>
        <time>2019-10-06T06:27:36Z</time>
      </trkpt>
      <trkpt lat="45.69849" lon="6.88013">
        <ele>2123</ele>
        <time>2019-10-06T06:27:37Z</time>
      </trkpt>
      <trkpt lat="45.6985" lon="6.8801">
        <ele>2122</ele>
        <time>2019-10-06T06:27:38Z</time>
      </trkpt>
      <trkpt lat="45.69851" lon="6.88007">
        <ele>2122</ele>
        <time>2019-10-06T06:27:39Z</time>
      </trkpt>
      <trkpt lat="45.69853" lon="6.88004">
        <ele>2122</ele>
        <time>2019-10-06T06:27:40Z</time>
      </trkpt>
      <trkpt lat="45.69853" lon="6.88001">
        <ele>2121</ele>
        <time>2019-10-06T06:27:41Z</time>
      </trkpt>
      <trkpt lat="45.69854" lon="6.87998">
        <ele>2122</ele>
        <time>2019-10-06T06:27:42Z</time>
      </trkpt>
      <trkpt lat="45.69855" lon="6.87995">
        <ele>2122</ele>
        <time>2019-10-06T06:27:43Z</time>
      </trkpt>
      <trkpt lat="45.69856" lon="6.87992">
        <ele>2122</ele>
        <time>2019-10-06T06:27:44Z</time>
      </trkpt>
      <trkpt lat="45.69856" lon="6.87989">
        <ele>2121</ele>
        <time>2019-10-06T06:27:45Z</time>
      </trkpt>
      <trkpt lat="45.69857" lon="6.87986">
        <ele>2121</ele>
        <time>2019-10-06T06:27:46Z</time>
      </trkpt>
      <trkpt lat="45.69857" lon="6.87983">
        <ele>2121</ele>
        <time>2019-10-06T06:27:47Z</time>
      </trkpt>
      <trkpt lat="45.69858" lon="6.8798">
        <ele>2122</ele>
        <time>2019-10-06T06:27:48Z</time>
      </trkpt>
      <trkpt lat="45.69859" lon="6.87977">
        <ele>2122</ele>
        <time>2019-10-06T06:27:49Z</time>
      </trkpt>
      <trkpt lat="45.6986" lon="6.87975">
        <ele>2122</ele>
        <time>2019-10-06T06:27:50Z</time>
      </trkpt>
      <trkpt lat="45.6986" lon="6.87972">
        <ele>2122</ele>
        <time>2019-10-06T06:27:51Z</time>
      </trkpt>
      <trkpt lat="45.69861" lon="6.87969">
        <ele>2122</ele>
        <time>2019-10-06T06:27:52Z</time>
      </trkpt>
      <trkpt lat="45.69861" lon="6.87966">
        <ele>2122</ele>
        <time>2019-10-06T06:27:53Z</time>
      </trkpt>
      <trkpt lat="45.69862" lon="6.87963">
        <ele>2122</ele>
        <time>2019-10-06T06:27:54Z</time>
      </trkpt>
      <trkpt lat="45.69863" lon="6.8796">
        <ele>2122</ele>
        <time>2019-10-06T06:27:55Z</time>
      </trkpt>
      <trkpt lat="45.69863" lon="6.87957">
        <ele>2122</ele>
        <time>2019-10-06T06:27:56Z</time>
      </trkpt>
      <trkpt lat="45.69864" lon="6.87954">
        <ele>2121</ele>
        <time>2019-10-06T06:27:57Z</time>
      </trkpt>
      <trkpt lat="45.69865" lon="6.8795">
        <ele>2121</ele>
        <time>2019-10-06T06:27:58Z</time>
      </trkpt>
      <trkpt lat="45.69865" lon="6.87947">
        <ele>2121</ele>
        <time>2019-10-06T06:27:59Z</time>
      </trkpt>
      <trkpt lat="45.69865" lon="6.87944">
        <ele>2121</ele>
        <time>2019-10-06T06:28:00Z</time>
      </trkpt>
      <trkpt lat="45.69865" lon="6.87941">
        <ele>2121</ele>
        <time>2019-10-06T06:28:01Z</time>
      </trkpt>
      <trkpt lat="45.69866" lon="6.87938">
        <ele>2121</ele>
        <time>2019-10-06T06:28:02Z</time>
      </trkpt>
      <trkpt lat="45.69866" lon="6.87935">
        <ele>2121</ele>
        <time>2019-10-06T06:28:03Z</time>
      </trkpt>
      <trkpt lat="45.69866" lon="6.87931">
        <ele>2121</ele>
        <time>2019-10-06T06:28:04Z</time>
      </trkpt>
      <trkpt lat="45.69867" lon="6.87928">
        <ele>2121</ele>
        <time>2019-10-06T06:28:05Z</time>
      </trkpt>
      <trkpt lat="45.69868" lon="6.87925">
        <ele>2121</ele>
        <time>2019-10-06T06:28:06Z</time>
      </trkpt>
      <trkpt lat="45.69869" lon="6.87922">
        <ele>2121</ele>
        <time>2019-10-06T06:28:07Z</time>
      </trkpt>
      <trkpt lat="45.69869" lon="6.87918">
        <ele>2120</ele>
        <time>2019-10-06T06:28:08Z</time>
      </trkpt>
      <trkpt lat="45.6987" lon="6.87916">
        <ele>2120</ele>
        <time>2019-10-06T06:28:09Z</time>
      </trkpt>
      <trkpt lat="45.6987" lon="6.87913">
        <ele>2120</ele>
        <time>2019-10-06T06:28:10Z</time>
      </trkpt>
      <trkpt lat="45.69871" lon="6.8791">
        <ele>2121</ele>
        <time>2019-10-06T06:28:11Z</time>
      </trkpt>
      <trkpt lat="45.69872" lon="6.87906">
        <ele>2121</ele>
        <time>2019-10-06T06:28:12Z</time>
      </trkpt>
      <trkpt lat="45.69872" lon="6.87904">
        <ele>2121</ele>
        <time>2019-10-06T06:28:13Z</time>
      </trkpt>
      <trkpt lat="45.69873" lon="6.879">
        <ele>2122</ele>
        <time>2019-10-06T06:28:15Z</time>
      </trkpt>
      <trkpt lat="45.69874" lon="6.87897">
        <ele>2122</ele>
        <time>2019-10-06T06:28:16Z</time>
      </trkpt>
      <trkpt lat="45.69874" lon="6.87894">
        <ele>2122</ele>
        <time>2019-10-06T06:28:17Z</time>
      </trkpt>
      <trkpt lat="45.69875" lon="6.87891">
        <ele>2122</ele>
        <time>2019-10-06T06:28:18Z</time>
      </trkpt>
      <trkpt lat="45.69875" lon="6.87888">
        <ele>2122</ele>
        <time>2019-10-06T06:28:19Z</time>
      </trkpt>
      <trkpt lat="45.69876" lon="6.87885">
        <ele>2122</ele>
        <time>2019-10-06T06:28:20Z</time>
      </trkpt>
      <trkpt lat="45.69876" lon="6.87882">
        <ele>2122</ele>
        <time>2019-10-06T06:28:21Z</time>
      </trkpt>
      <trkpt lat="45.69877" lon="6.87879">
        <ele>2123</ele>
        <time>2019-10-06T06:28:22Z</time>
      </trkpt>
      <trkpt lat="45.69878" lon="6.87875">
        <ele>2123</ele>
        <time>2019-10-06T06:28:23Z</time>
      </trkpt>
      <trkpt lat="45.69879" lon="6.87872">
        <ele>2123</ele>
        <time>2019-10-06T06:28:24Z</time>
      </trkpt>
      <trkpt lat="45.6988" lon="6.87869">
        <ele>2123</ele>
        <time>2019-10-06T06:28:25Z</time>
      </trkpt>
      <trkpt lat="45.69881" lon="6.87867">
        <ele>2123</ele>
        <time>2019-10-06T06:28:26Z</time>
      </trkpt>
      <trkpt lat="45.69882" lon="6.87864">
        <ele>2123</ele>
        <time>2019-10-06T06:28:27Z</time>
      </trkpt>
      <trkpt lat="45.69883" lon="6.87863">
        <ele>2123</ele>
        <time>2019-10-06T06:28:28Z</time>
      </trkpt>
      <trkpt lat="45.69885" lon="6.87859">
        <ele>2122</ele>
        <time>2019-10-06T06:28:30Z</time>
      </trkpt>
      <trkpt lat="45.69887" lon="6.87854">
        <ele>2122</ele>
        <time>2019-10-06T06:28:32Z</time>
      </trkpt>
      <trkpt lat="45.69887" lon="6.87851">
        <ele>2122</ele>
        <time>2019-10-06T06:28:33Z</time>
      </trkpt>
      <trkpt lat="45.69888" lon="6.87848">
        <ele>2122</ele>
        <time>2019-10-06T06:28:34Z</time>
      </trkpt>
      <trkpt lat="45.69891" lon="6.87845">
        <ele>2121</ele>
        <time>2019-10-06T06:28:36Z</time>
      </trkpt>
      <trkpt lat="45.69892" lon="6.87842">
        <ele>2121</ele>
        <time>2019-10-06T06:28:38Z</time>
      </trkpt>
      <trkpt lat="45.69894" lon="6.8784">
        <ele>2121</ele>
        <time>2019-10-06T06:28:40Z</time>
      </trkpt>
      <trkpt lat="45.69896" lon="6.87836">
        <ele>2120</ele>
        <time>2019-10-06T06:28:42Z</time>
      </trkpt>
      <trkpt lat="45.69898" lon="6.87832">
        <ele>2119</ele>
        <time>2019-10-06T06:28:44Z</time>
      </trkpt>
      <trkpt lat="45.69899" lon="6.8783">
        <ele>2119</ele>
        <time>2019-10-06T06:28:45Z</time>
      </trkpt>
      <trkpt lat="45.69901" lon="6.87828">
        <ele>2119</ele>
        <time>2019-10-06T06:28:46Z</time>
      </trkpt>
      <trkpt lat="45.69903" lon="6.87826">
        <ele>2119</ele>
        <time>2019-10-06T06:28:47Z</time>
      </trkpt>
      <trkpt lat="45.69904" lon="6.87824">
        <ele>2119</ele>
        <time>2019-10-06T06:28:48Z</time>
      </trkpt>
      <trkpt lat="45.69906" lon="6.87822">
        <ele>2119</ele>
        <time>2019-10-06T06:28:49Z</time>
      </trkpt>
      <trkpt lat="45.69908" lon="6.8782">
        <ele>2119</ele>
        <time>2019-10-06T06:28:50Z</time>
      </trkpt>
      <trkpt lat="45.6991" lon="6.87819">
        <ele>2118</ele>
        <time>2019-10-06T06:28:51Z</time>
      </trkpt>
      <trkpt lat="45.69912" lon="6.87818">
        <ele>2118</ele>
        <time>2019-10-06T06:28:52Z</time>
      </trkpt>
      <trkpt lat="45.69914" lon="6.87818">
        <ele>2118</ele>
        <time>2019-10-06T06:28:53Z</time>
      </trkpt>
      <trkpt lat="45.69916" lon="6.87819">
        <ele>2118</ele>
        <time>2019-10-06T06:28:54Z</time>
      </trkpt>
      <trkpt lat="45.69919" lon="6.8782">
        <ele>2118</ele>
        <time>2019-10-06T06:28:56Z</time>
      </trkpt>
      <trkpt lat="45.69922" lon="6.87821">
        <ele>2119</ele>
        <time>2019-10-06T06:28:58Z</time>
      </trkpt>
      <trkpt lat="45.69924" lon="6.87822">
        <ele>2119</ele>
        <time>2019-10-06T06:29:00Z</time>
      </trkpt>
      <trkpt lat="45.69926" lon="6.87824">
        <ele>2120</ele>
        <time>2019-10-06T06:29:02Z</time>
      </trkpt>
      <trkpt lat="45.69929" lon="6.87825">
        <ele>2120</ele>
        <time>2019-10-06T06:29:04Z</time>
      </trkpt>
      <trkpt lat="45.69931" lon="6.87825">
        <ele>2121</ele>
        <time>2019-10-06T06:29:06Z</time>
      </trkpt>
      <trkpt lat="45.69934" lon="6.87826">
        <ele>2121</ele>
        <time>2019-10-06T06:29:08Z</time>
      </trkpt>
      <trkpt lat="45.69936" lon="6.87825">
        <ele>2122</ele>
        <time>2019-10-06T06:29:10Z</time>
      </trkpt>
      <trkpt lat="45.69939" lon="6.87824">
        <ele>2122</ele>
        <time>2019-10-06T06:29:12Z</time>
      </trkpt>
      <trkpt lat="45.6994" lon="6.87823">
        <ele>2122</ele>
        <time>2019-10-06T06:29:13Z</time>
      </trkpt>
      <trkpt lat="45.69942" lon="6.87823">
        <ele>2122</ele>
        <time>2019-10-06T06:29:14Z</time>
      </trkpt>
      <trkpt lat="45.69944" lon="6.87823">
        <ele>2122</ele>
        <time>2019-10-06T06:29:15Z</time>
      </trkpt>
      <trkpt lat="45.69946" lon="6.87822">
        <ele>2122</ele>
        <time>2019-10-06T06:29:16Z</time>
      </trkpt>
      <trkpt lat="45.69948" lon="6.87822">
        <ele>2122</ele>
        <time>2019-10-06T06:29:17Z</time>
      </trkpt>
      <trkpt lat="45.6995" lon="6.87821">
        <ele>2122</ele>
        <time>2019-10-06T06:29:18Z</time>
      </trkpt>
      <trkpt lat="45.69952" lon="6.87821">
        <ele>2122</ele>
        <time>2019-10-06T06:29:19Z</time>
      </trkpt>
      <trkpt lat="45.69955" lon="6.87821">
        <ele>2121</ele>
        <time>2019-10-06T06:29:20Z</time>
      </trkpt>
      <trkpt lat="45.69957" lon="6.87821">
        <ele>2121</ele>
        <time>2019-10-06T06:29:21Z</time>
      </trkpt>
      <trkpt lat="45.69959" lon="6.8782">
        <ele>2120</ele>
        <time>2019-10-06T06:29:22Z</time>
      </trkpt>
      <trkpt lat="45.69962" lon="6.8782">
        <ele>2120</ele>
        <time>2019-10-06T06:29:23Z</time>
      </trkpt>
      <trkpt lat="45.69964" lon="6.8782">
        <ele>2120</ele>
        <time>2019-10-06T06:29:24Z</time>
      </trkpt>
      <trkpt lat="45.69967" lon="6.8782">
        <ele>2120</ele>
        <time>2019-10-06T06:29:25Z</time>
      </trkpt>
      <trkpt lat="45.69969" lon="6.8782">
        <ele>2120</ele>
        <time>2019-10-06T06:29:26Z</time>
      </trkpt>
      <trkpt lat="45.69971" lon="6.8782">
        <ele>2119</ele>
        <time>2019-10-06T06:29:27Z</time>
      </trkpt>
      <trkpt lat="45.69973" lon="6.8782">
        <ele>2119</ele>
        <time>2019-10-06T06:29:28Z</time>
      </trkpt>
      <trkpt lat="45.69975" lon="6.8782">
        <ele>2119</ele>
        <time>2019-10-06T06:29:29Z</time>
      </trkpt>
      <trkpt lat="45.69977" lon="6.8782">
        <ele>2119</ele>
        <time>2019-10-06T06:29:30Z</time>
      </trkpt>
      <trkpt lat="45.6998" lon="6.87819">
        <ele>2119</ele>
        <time>2019-10-06T06:29:32Z</time>
      </trkpt>
      <trkpt lat="45.69983" lon="6.8782">
        <ele>2119</ele>
        <time>2019-10-06T06:29:34Z</time>
      </trkpt>
      <trkpt lat="45.69985" lon="6.8782">
        <ele>2119</ele>
        <time>2019-10-06T06:29:36Z</time>
      </trkpt>
      <trkpt lat="45.69988" lon="6.87821">
        <ele>2119</ele>
        <time>2019-10-06T06:29:38Z</time>
      </trkpt>
      <trkpt lat="45.69992" lon="6.87821">
        <ele>2119</ele>
        <time>2019-10-06T06:29:40Z</time>
      </trkpt>
      <trkpt lat="45.69995" lon="6.87821">
        <ele>2116</ele>
        <time>2019-10-06T06:29:42Z</time>
      </trkpt>
      <trkpt lat="45.69997" lon="6.8782">
        <ele>2116</ele>
        <time>2019-10-06T06:29:43Z</time>
      </trkpt>
      <trkpt lat="45.69998" lon="6.87818">
        <ele>2116</ele>
        <time>2019-10-06T06:29:44Z</time>
      </trkpt>
      <trkpt lat="45.69999" lon="6.87815">
        <ele>2116</ele>
        <time>2019-10-06T06:29:45Z</time>
      </trkpt>
      <trkpt lat="45.7" lon="6.87812">
        <ele>2116</ele>
        <time>2019-10-06T06:29:46Z</time>
      </trkpt>
      <trkpt lat="45.7" lon="6.87809">
        <ele>2116</ele>
        <time>2019-10-06T06:29:47Z</time>
      </trkpt>
      <trkpt lat="45.7" lon="6.87806">
        <ele>2116</ele>
        <time>2019-10-06T06:29:48Z</time>
      </trkpt>
      <trkpt lat="45.7" lon="6.87802">
        <ele>2116</ele>
        <time>2019-10-06T06:29:49Z</time>
      </trkpt>
      <trkpt lat="45.7" lon="6.87798">
        <ele>2115</ele>
        <time>2019-10-06T06:29:50Z</time>
      </trkpt>
      <trkpt lat="45.7" lon="6.87794">
        <ele>2115</ele>
        <time>2019-10-06T06:29:51Z</time>
      </trkpt>
      <trkpt lat="45.7" lon="6.8779">
        <ele>2115</ele>
        <time>2019-10-06T06:29:52Z</time>
      </trkpt>
      <trkpt lat="45.7" lon="6.87787">
        <ele>2114</ele>
        <time>2019-10-06T06:29:53Z</time>
      </trkpt>
      <trkpt lat="45.70001" lon="6.87783">
        <ele>2114</ele>
        <time>2019-10-06T06:29:54Z</time>
      </trkpt>
      <trkpt lat="45.70001" lon="6.87779">
        <ele>2114</ele>
        <time>2019-10-06T06:29:55Z</time>
      </trkpt>
      <trkpt lat="45.70001" lon="6.87775">
        <ele>2113</ele>
        <time>2019-10-06T06:29:56Z</time>
      </trkpt>
      <trkpt lat="45.70002" lon="6.87771">
        <ele>2112</ele>
        <time>2019-10-06T06:29:57Z</time>
      </trkpt>
      <trkpt lat="45.70002" lon="6.87767">
        <ele>2112</ele>
        <time>2019-10-06T06:29:58Z</time>
      </trkpt>
      <trkpt lat="45.70003" lon="6.87763">
        <ele>2112</ele>
        <time>2019-10-06T06:29:59Z</time>
      </trkpt>
      <trkpt lat="45.70003" lon="6.87759">
        <ele>2112</ele>
        <time>2019-10-06T06:30:00Z</time>
      </trkpt>
      <trkpt lat="45.70004" lon="6.87755">
        <ele>2112</ele>
        <time>2019-10-06T06:30:01Z</time>
      </trkpt>
      <trkpt lat="45.70004" lon="6.87751">
        <ele>2111</ele>
        <time>2019-10-06T06:30:02Z</time>
      </trkpt>
      <trkpt lat="45.70005" lon="6.87746">
        <ele>2111</ele>
        <time>2019-10-06T06:30:03Z</time>
      </trkpt>
      <trkpt lat="45.70005" lon="6.87742">
        <ele>2110</ele>
        <time>2019-10-06T06:30:04Z</time>
      </trkpt>
      <trkpt lat="45.70006" lon="6.87738">
        <ele>2110</ele>
        <time>2019-10-06T06:30:05Z</time>
      </trkpt>
      <trkpt lat="45.70006" lon="6.87734">
        <ele>2109</ele>
        <time>2019-10-06T06:30:06Z</time>
      </trkpt>
      <trkpt lat="45.70007" lon="6.8773">
        <ele>2109</ele>
        <time>2019-10-06T06:30:07Z</time>
      </trkpt>
      <trkpt lat="45.70008" lon="6.87726">
        <ele>2109</ele>
        <time>2019-10-06T06:30:08Z</time>
      </trkpt>
      <trkpt lat="45.70009" lon="6.87722">
        <ele>2108</ele>
        <time>2019-10-06T06:30:09Z</time>
      </trkpt>
      <trkpt lat="45.7001" lon="6.87718">
        <ele>2108</ele>
        <time>2019-10-06T06:30:10Z</time>
      </trkpt>
      <trkpt lat="45.70011" lon="6.87714">
        <ele>2108</ele>
        <time>2019-10-06T06:30:11Z</time>
      </trkpt>
      <trkpt lat="45.70012" lon="6.87709">
        <ele>2108</ele>
        <time>2019-10-06T06:30:12Z</time>
      </trkpt>
      <trkpt lat="45.70014" lon="6.87705">
        <ele>2108</ele>
        <time>2019-10-06T06:30:13Z</time>
      </trkpt>
      <trkpt lat="45.70016" lon="6.87702">
        <ele>2108</ele>
        <time>2019-10-06T06:30:14Z</time>
      </trkpt>
      <trkpt lat="45.70018" lon="6.877">
        <ele>2108</ele>
        <time>2019-10-06T06:30:15Z</time>
      </trkpt>
      <trkpt lat="45.7002" lon="6.87697">
        <ele>2107</ele>
        <time>2019-10-06T06:30:16Z</time>
      </trkpt>
      <trkpt lat="45.70023" lon="6.87695">
        <ele>2107</ele>
        <time>2019-10-06T06:30:17Z</time>
      </trkpt>
      <trkpt lat="45.70026" lon="6.87693">
        <ele>2107</ele>
        <time>2019-10-06T06:30:18Z</time>
      </trkpt>
      <trkpt lat="45.70028" lon="6.87691">
        <ele>2106</ele>
        <time>2019-10-06T06:30:19Z</time>
      </trkpt>
      <trkpt lat="45.70031" lon="6.87689">
        <ele>2105</ele>
        <time>2019-10-06T06:30:20Z</time>
      </trkpt>
      <trkpt lat="45.70033" lon="6.87688">
        <ele>2106</ele>
        <time>2019-10-06T06:30:21Z</time>
      </trkpt>
      <trkpt lat="45.70036" lon="6.87686">
        <ele>2106</ele>
        <time>2019-10-06T06:30:22Z</time>
      </trkpt>
      <trkpt lat="45.70039" lon="6.87684">
        <ele>2106</ele>
        <time>2019-10-06T06:30:23Z</time>
      </trkpt>
      <trkpt lat="45.70041" lon="6.87682">
        <ele>2105</ele>
        <time>2019-10-06T06:30:24Z</time>
      </trkpt>
      <trkpt lat="45.70043" lon="6.8768">
        <ele>2105</ele>
        <time>2019-10-06T06:30:25Z</time>
      </trkpt>
      <trkpt lat="45.70046" lon="6.87678">
        <ele>2105</ele>
        <time>2019-10-06T06:30:26Z</time>
      </trkpt>
      <trkpt lat="45.70048" lon="6.87677">
        <ele>2105</ele>
        <time>2019-10-06T06:30:27Z</time>
      </trkpt>
      <trkpt lat="45.70051" lon="6.87675">
        <ele>2105</ele>
        <time>2019-10-06T06:30:28Z</time>
      </trkpt>
      <trkpt lat="45.70053" lon="6.87673">
        <ele>2105</ele>
        <time>2019-10-06T06:30:29Z</time>
      </trkpt>
      <trkpt lat="45.70056" lon="6.87671">
        <ele>2105</ele>
        <time>2019-10-06T06:30:30Z</time>
      </trkpt>
      <trkpt lat="45.70058" lon="6.87669">
        <ele>2104</ele>
        <time>2019-10-06T06:30:31Z</time>
      </trkpt>
      <trkpt lat="45.70061" lon="6.87667">
        <ele>2104</ele>
        <time>2019-10-06T06:30:32Z</time>
      </trkpt>
      <trkpt lat="45.70063" lon="6.87665">
        <ele>2104</ele>
        <time>2019-10-06T06:30:33Z</time>
      </trkpt>
      <trkpt lat="45.70065" lon="6.87663">
        <ele>2104</ele>
        <time>2019-10-06T06:30:34Z</time>
      </trkpt>
      <trkpt lat="45.70068" lon="6.87661">
        <ele>2104</ele>
        <time>2019-10-06T06:30:35Z</time>
      </trkpt>
      <trkpt lat="45.7007" lon="6.8766">
        <ele>2104</ele>
        <time>2019-10-06T06:30:36Z</time>
      </trkpt>
      <trkpt lat="45.70075" lon="6.87657">
        <ele>2104</ele>
        <time>2019-10-06T06:30:37Z</time>
      </trkpt>
      <trkpt lat="45.70076" lon="6.87656">
        <ele>2104</ele>
        <time>2019-10-06T06:30:38Z</time>
      </trkpt>
      <trkpt lat="45.70079" lon="6.87655">
        <ele>2103</ele>
        <time>2019-10-06T06:30:39Z</time>
      </trkpt>
      <trkpt lat="45.70081" lon="6.87655">
        <ele>2103</ele>
        <time>2019-10-06T06:30:40Z</time>
      </trkpt>
      <trkpt lat="45.70084" lon="6.87655">
        <ele>2103</ele>
        <time>2019-10-06T06:30:41Z</time>
      </trkpt>
      <trkpt lat="45.70087" lon="6.87656">
        <ele>2103</ele>
        <time>2019-10-06T06:30:42Z</time>
      </trkpt>
      <trkpt lat="45.7009" lon="6.87657">
        <ele>2103</ele>
        <time>2019-10-06T06:30:43Z</time>
      </trkpt>
      <trkpt lat="45.70092" lon="6.8766">
        <ele>2103</ele>
        <time>2019-10-06T06:30:44Z</time>
      </trkpt>
      <trkpt lat="45.70094" lon="6.87663">
        <ele>2102</ele>
        <time>2019-10-06T06:30:45Z</time>
      </trkpt>
      <trkpt lat="45.70096" lon="6.87667">
        <ele>2102</ele>
        <time>2019-10-06T06:30:46Z</time>
      </trkpt>
      <trkpt lat="45.70097" lon="6.87671">
        <ele>2102</ele>
        <time>2019-10-06T06:30:47Z</time>
      </trkpt>
      <trkpt lat="45.70098" lon="6.87676">
        <ele>2101</ele>
        <time>2019-10-06T06:30:48Z</time>
      </trkpt>
      <trkpt lat="45.70098" lon="6.8768">
        <ele>2101</ele>
        <time>2019-10-06T06:30:49Z</time>
      </trkpt>
      <trkpt lat="45.70099" lon="6.87685">
        <ele>2101</ele>
        <time>2019-10-06T06:30:50Z</time>
      </trkpt>
      <trkpt lat="45.70099" lon="6.87689">
        <ele>2101</ele>
        <time>2019-10-06T06:30:51Z</time>
      </trkpt>
      <trkpt lat="45.70099" lon="6.87693">
        <ele>2100</ele>
        <time>2019-10-06T06:30:52Z</time>
      </trkpt>
      <trkpt lat="45.70099" lon="6.87698">
        <ele>2099</ele>
        <time>2019-10-06T06:30:53Z</time>
      </trkpt>
      <trkpt lat="45.70099" lon="6.87703">
        <ele>2099</ele>
        <time>2019-10-06T06:30:54Z</time>
      </trkpt>
      <trkpt lat="45.701" lon="6.87708">
        <ele>2098</ele>
        <time>2019-10-06T06:30:55Z</time>
      </trkpt>
      <trkpt lat="45.701" lon="6.87712">
        <ele>2098</ele>
        <time>2019-10-06T06:30:56Z</time>
      </trkpt>
      <trkpt lat="45.701" lon="6.87717">
        <ele>2097</ele>
        <time>2019-10-06T06:30:57Z</time>
      </trkpt>
      <trkpt lat="45.701" lon="6.87721">
        <ele>2097</ele>
        <time>2019-10-06T06:30:58Z</time>
      </trkpt>
      <trkpt lat="45.70101" lon="6.87726">
        <ele>2097</ele>
        <time>2019-10-06T06:30:59Z</time>
      </trkpt>
      <trkpt lat="45.70101" lon="6.87731">
        <ele>2097</ele>
        <time>2019-10-06T06:31:00Z</time>
      </trkpt>
      <trkpt lat="45.70101" lon="6.87735">
        <ele>2097</ele>
        <time>2019-10-06T06:31:01Z</time>
      </trkpt>
      <trkpt lat="45.70102" lon="6.8774">
        <ele>2097</ele>
        <time>2019-10-06T06:31:02Z</time>
      </trkpt>
      <trkpt lat="45.70103" lon="6.87744">
        <ele>2096</ele>
        <time>2019-10-06T06:31:03Z</time>
      </trkpt>
      <trkpt lat="45.70104" lon="6.87748">
        <ele>2096</ele>
        <time>2019-10-06T06:31:04Z</time>
      </trkpt>
      <trkpt lat="45.70106" lon="6.87752">
        <ele>2095</ele>
        <time>2019-10-06T06:31:05Z</time>
      </trkpt>
      <trkpt lat="45.70107" lon="6.87756">
        <ele>2094</ele>
        <time>2019-10-06T06:31:06Z</time>
      </trkpt>
      <trkpt lat="45.70109" lon="6.8776">
        <ele>2094</ele>
        <time>2019-10-06T06:31:07Z</time>
      </trkpt>
      <trkpt lat="45.70111" lon="6.87764">
        <ele>2093</ele>
        <time>2019-10-06T06:31:08Z</time>
      </trkpt>
      <trkpt lat="45.70113" lon="6.87768">
        <ele>2093</ele>
        <time>2019-10-06T06:31:09Z</time>
      </trkpt>
      <trkpt lat="45.70115" lon="6.87771">
        <ele>2092</ele>
        <time>2019-10-06T06:31:10Z</time>
      </trkpt>
      <trkpt lat="45.70117" lon="6.87776">
        <ele>2092</ele>
        <time>2019-10-06T06:31:11Z</time>
      </trkpt>
      <trkpt lat="45.70119" lon="6.8778">
        <ele>2092</ele>
        <time>2019-10-06T06:31:12Z</time>
      </trkpt>
      <trkpt lat="45.70121" lon="6.87784">
        <ele>2090</ele>
        <time>2019-10-06T06:31:13Z</time>
      </trkpt>
      <trkpt lat="45.70123" lon="6.87788">
        <ele>2089</ele>
        <time>2019-10-06T06:31:14Z</time>
      </trkpt>
      <trkpt lat="45.70125" lon="6.87792">
        <ele>2089</ele>
        <time>2019-10-06T06:31:15Z</time>
      </trkpt>
      <trkpt lat="45.70126" lon="6.87796">
        <ele>2089</ele>
        <time>2019-10-06T06:31:16Z</time>
      </trkpt>
      <trkpt lat="45.70127" lon="6.878">
        <ele>2088</ele>
        <time>2019-10-06T06:31:17Z</time>
      </trkpt>
      <trkpt lat="45.70128" lon="6.87804">
        <ele>2088</ele>
        <time>2019-10-06T06:31:18Z</time>
      </trkpt>
      <trkpt lat="45.70129" lon="6.87809">
        <ele>2087</ele>
        <time>2019-10-06T06:31:19Z</time>
      </trkpt>
      <trkpt lat="45.7013" lon="6.87813">
        <ele>2087</ele>
        <time>2019-10-06T06:31:20Z</time>
      </trkpt>
      <trkpt lat="45.70131" lon="6.87817">
        <ele>2087</ele>
        <time>2019-10-06T06:31:21Z</time>
      </trkpt>
      <trkpt lat="45.70131" lon="6.87821">
        <ele>2086</ele>
        <time>2019-10-06T06:31:22Z</time>
      </trkpt>
      <trkpt lat="45.70131" lon="6.87826">
        <ele>2086</ele>
        <time>2019-10-06T06:31:23Z</time>
      </trkpt>
      <trkpt lat="45.70131" lon="6.8783">
        <ele>2086</ele>
        <time>2019-10-06T06:31:24Z</time>
      </trkpt>
      <trkpt lat="45.70131" lon="6.87835">
        <ele>2085</ele>
        <time>2019-10-06T06:31:25Z</time>
      </trkpt>
      <trkpt lat="45.7013" lon="6.87839">
        <ele>2085</ele>
        <time>2019-10-06T06:31:26Z</time>
      </trkpt>
      <trkpt lat="45.70129" lon="6.87843">
        <ele>2085</ele>
        <time>2019-10-06T06:31:27Z</time>
      </trkpt>
      <trkpt lat="45.7013" lon="6.87848">
        <ele>2085</ele>
        <time>2019-10-06T06:31:28Z</time>
      </trkpt>
      <trkpt lat="45.70129" lon="6.87852">
        <ele>2084</ele>
        <time>2019-10-06T06:31:29Z</time>
      </trkpt>
      <trkpt lat="45.70129" lon="6.87856">
        <ele>2083</ele>
        <time>2019-10-06T06:31:30Z</time>
      </trkpt>
      <trkpt lat="45.70129" lon="6.87861">
        <ele>2083</ele>
        <time>2019-10-06T06:31:31Z</time>
      </trkpt>
      <trkpt lat="45.70129" lon="6.87866">
        <ele>2083</ele>
        <time>2019-10-06T06:31:32Z</time>
      </trkpt>
      <trkpt lat="45.70129" lon="6.8787">
        <ele>2083</ele>
        <time>2019-10-06T06:31:33Z</time>
      </trkpt>
      <trkpt lat="45.70129" lon="6.87874">
        <ele>2083</ele>
        <time>2019-10-06T06:31:34Z</time>
      </trkpt>
      <trkpt lat="45.70129" lon="6.87879">
        <ele>2083</ele>
        <time>2019-10-06T06:31:35Z</time>
      </trkpt>
      <trkpt lat="45.70128" lon="6.87883">
        <ele>2083</ele>
        <time>2019-10-06T06:31:36Z</time>
      </trkpt>
      <trkpt lat="45.70128" lon="6.87888">
        <ele>2082</ele>
        <time>2019-10-06T06:31:37Z</time>
      </trkpt>
      <trkpt lat="45.70128" lon="6.87892">
        <ele>2081</ele>
        <time>2019-10-06T06:31:38Z</time>
      </trkpt>
      <trkpt lat="45.70128" lon="6.87897">
        <ele>2080</ele>
        <time>2019-10-06T06:31:39Z</time>
      </trkpt>
      <trkpt lat="45.70127" lon="6.87901">
        <ele>2080</ele>
        <time>2019-10-06T06:31:40Z</time>
      </trkpt>
      <trkpt lat="45.70127" lon="6.87905">
        <ele>2080</ele>
        <time>2019-10-06T06:31:41Z</time>
      </trkpt>
      <trkpt lat="45.70126" lon="6.87909">
        <ele>2081</ele>
        <time>2019-10-06T06:31:42Z</time>
      </trkpt>
      <trkpt lat="45.70125" lon="6.87913">
        <ele>2080</ele>
        <time>2019-10-06T06:31:43Z</time>
      </trkpt>
      <trkpt lat="45.70124" lon="6.87918">
        <ele>2077</ele>
        <time>2019-10-06T06:31:44Z</time>
      </trkpt>
      <trkpt lat="45.70124" lon="6.87922">
        <ele>2077</ele>
        <time>2019-10-06T06:31:45Z</time>
      </trkpt>
      <trkpt lat="45.70122" lon="6.87926">
        <ele>2077</ele>
        <time>2019-10-06T06:31:46Z</time>
      </trkpt>
      <trkpt lat="45.70121" lon="6.8793">
        <ele>2076</ele>
        <time>2019-10-06T06:31:47Z</time>
      </trkpt>
      <trkpt lat="45.7012" lon="6.87934">
        <ele>2076</ele>
        <time>2019-10-06T06:31:48Z</time>
      </trkpt>
      <trkpt lat="45.70119" lon="6.87939">
        <ele>2076</ele>
        <time>2019-10-06T06:31:49Z</time>
      </trkpt>
      <trkpt lat="45.70117" lon="6.87943">
        <ele>2075</ele>
        <time>2019-10-06T06:31:50Z</time>
      </trkpt>
      <trkpt lat="45.70116" lon="6.87947">
        <ele>2074</ele>
        <time>2019-10-06T06:31:51Z</time>
      </trkpt>
      <trkpt lat="45.70116" lon="6.87951">
        <ele>2073</ele>
        <time>2019-10-06T06:31:52Z</time>
      </trkpt>
      <trkpt lat="45.70114" lon="6.87956">
        <ele>2073</ele>
        <time>2019-10-06T06:31:53Z</time>
      </trkpt>
      <trkpt lat="45.70113" lon="6.8796">
        <ele>2073</ele>
        <time>2019-10-06T06:31:54Z</time>
      </trkpt>
      <trkpt lat="45.70112" lon="6.87964">
        <ele>2072</ele>
        <time>2019-10-06T06:31:55Z</time>
      </trkpt>
      <trkpt lat="45.70111" lon="6.87968">
        <ele>2072</ele>
        <time>2019-10-06T06:31:56Z</time>
      </trkpt>
      <trkpt lat="45.7011" lon="6.87973">
        <ele>2071</ele>
        <time>2019-10-06T06:31:57Z</time>
      </trkpt>
      <trkpt lat="45.70109" lon="6.87976">
        <ele>2070</ele>
        <time>2019-10-06T06:31:58Z</time>
      </trkpt>
      <trkpt lat="45.70108" lon="6.8798">
        <ele>2072</ele>
        <time>2019-10-06T06:31:59Z</time>
      </trkpt>
      <trkpt lat="45.70107" lon="6.87984">
        <ele>2071</ele>
        <time>2019-10-06T06:32:00Z</time>
      </trkpt>
      <trkpt lat="45.70105" lon="6.87988">
        <ele>2071</ele>
        <time>2019-10-06T06:32:01Z</time>
      </trkpt>
      <trkpt lat="45.70104" lon="6.87992">
        <ele>2071</ele>
        <time>2019-10-06T06:32:02Z</time>
      </trkpt>
      <trkpt lat="45.70102" lon="6.87996">
        <ele>2071</ele>
        <time>2019-10-06T06:32:03Z</time>
      </trkpt>
      <trkpt lat="45.70101" lon="6.88001">
        <ele>2070</ele>
        <time>2019-10-06T06:32:04Z</time>
      </trkpt>
      <trkpt lat="45.701" lon="6.88004">
        <ele>2069</ele>
        <time>2019-10-06T06:32:05Z</time>
      </trkpt>
      <trkpt lat="45.70099" lon="6.88008">
        <ele>2068</ele>
        <time>2019-10-06T06:32:06Z</time>
      </trkpt>
      <trkpt lat="45.70097" lon="6.88011">
        <ele>2067</ele>
        <time>2019-10-06T06:32:07Z</time>
      </trkpt>
      <trkpt lat="45.70096" lon="6.88014">
        <ele>2067</ele>
        <time>2019-10-06T06:32:08Z</time>
      </trkpt>
      <trkpt lat="45.70094" lon="6.88017">
        <ele>2067</ele>
        <time>2019-10-06T06:32:09Z</time>
      </trkpt>
      <trkpt lat="45.70093" lon="6.88021">
        <ele>2067</ele>
        <time>2019-10-06T06:32:10Z</time>
      </trkpt>
      <trkpt lat="45.70092" lon="6.88024">
        <ele>2067</ele>
        <time>2019-10-06T06:32:11Z</time>
      </trkpt>
      <trkpt lat="45.7009" lon="6.88027">
        <ele>2067</ele>
        <time>2019-10-06T06:32:12Z</time>
      </trkpt>
      <trkpt lat="45.70089" lon="6.88031">
        <ele>2067</ele>
        <time>2019-10-06T06:32:13Z</time>
      </trkpt>
      <trkpt lat="45.70087" lon="6.88034">
        <ele>2067</ele>
        <time>2019-10-06T06:32:14Z</time>
      </trkpt>
      <trkpt lat="45.70085" lon="6.88038">
        <ele>2066</ele>
        <time>2019-10-06T06:32:15Z</time>
      </trkpt>
      <trkpt lat="45.70084" lon="6.88041">
        <ele>2066</ele>
        <time>2019-10-06T06:32:16Z</time>
      </trkpt>
      <trkpt lat="45.70082" lon="6.88044">
        <ele>2066</ele>
        <time>2019-10-06T06:32:17Z</time>
      </trkpt>
      <trkpt lat="45.7008" lon="6.88048">
        <ele>2066</ele>
        <time>2019-10-06T06:32:18Z</time>
      </trkpt>
      <trkpt lat="45.70079" lon="6.88051">
        <ele>2066</ele>
        <time>2019-10-06T06:32:19Z</time>
      </trkpt>
      <trkpt lat="45.70077" lon="6.88054">
        <ele>2064</ele>
        <time>2019-10-06T06:32:20Z</time>
      </trkpt>
      <trkpt lat="45.70076" lon="6.88058">
        <ele>2064</ele>
        <time>2019-10-06T06:32:21Z</time>
      </trkpt>
      <trkpt lat="45.70074" lon="6.88061">
        <ele>2064</ele>
        <time>2019-10-06T06:32:22Z</time>
      </trkpt>
      <trkpt lat="45.70073" lon="6.88064">
        <ele>2064</ele>
        <time>2019-10-06T06:32:23Z</time>
      </trkpt>
      <trkpt lat="45.70072" lon="6.88068">
        <ele>2064</ele>
        <time>2019-10-06T06:32:24Z</time>
      </trkpt>
      <trkpt lat="45.7007" lon="6.88071">
        <ele>2064</ele>
        <time>2019-10-06T06:32:25Z</time>
      </trkpt>
      <trkpt lat="45.70069" lon="6.88075">
        <ele>2064</ele>
        <time>2019-10-06T06:32:26Z</time>
      </trkpt>
      <trkpt lat="45.70068" lon="6.88078">
        <ele>2064</ele>
        <time>2019-10-06T06:32:27Z</time>
      </trkpt>
      <trkpt lat="45.70067" lon="6.88082">
        <ele>2063</ele>
        <time>2019-10-06T06:32:28Z</time>
      </trkpt>
      <trkpt lat="45.70065" lon="6.88086">
        <ele>2064</ele>
        <time>2019-10-06T06:32:29Z</time>
      </trkpt>
      <trkpt lat="45.70064" lon="6.88089">
        <ele>2064</ele>
        <time>2019-10-06T06:32:30Z</time>
      </trkpt>
      <trkpt lat="45.70063" lon="6.88092">
        <ele>2064</ele>
        <time>2019-10-06T06:32:31Z</time>
      </trkpt>
      <trkpt lat="45.70062" lon="6.88096">
        <ele>2064</ele>
        <time>2019-10-06T06:32:32Z</time>
      </trkpt>
      <trkpt lat="45.7006" lon="6.88099">
        <ele>2062</ele>
        <time>2019-10-06T06:32:33Z</time>
      </trkpt>
      <trkpt lat="45.70059" lon="6.88103">
        <ele>2061</ele>
        <time>2019-10-06T06:32:34Z</time>
      </trkpt>
      <trkpt lat="45.70058" lon="6.88106">
        <ele>2062</ele>
        <time>2019-10-06T06:32:35Z</time>
      </trkpt>
      <trkpt lat="45.70057" lon="6.88109">
        <ele>2064</ele>
        <time>2019-10-06T06:32:36Z</time>
      </trkpt>
      <trkpt lat="45.70055" lon="6.88112">
        <ele>2063</ele>
        <time>2019-10-06T06:32:37Z</time>
      </trkpt>
      <trkpt lat="45.70054" lon="6.88114">
        <ele>2062</ele>
        <time>2019-10-06T06:32:38Z</time>
      </trkpt>
      <trkpt lat="45.70052" lon="6.88118">
        <ele>2063</ele>
        <time>2019-10-06T06:32:40Z</time>
      </trkpt>
      <trkpt lat="45.70051" lon="6.88122">
        <ele>2062</ele>
        <time>2019-10-06T06:32:42Z</time>
      </trkpt>
      <trkpt lat="45.7005" lon="6.88127">
        <ele>2061</ele>
        <time>2019-10-06T06:32:44Z</time>
      </trkpt>
      <trkpt lat="45.70049" lon="6.8813">
        <ele>2061</ele>
        <time>2019-10-06T06:32:45Z</time>
      </trkpt>
      <trkpt lat="45.70049" lon="6.88133">
        <ele>2061</ele>
        <time>2019-10-06T06:32:46Z</time>
      </trkpt>
      <trkpt lat="45.70048" lon="6.88136">
        <ele>2060</ele>
        <time>2019-10-06T06:32:47Z</time>
      </trkpt>
      <trkpt lat="45.70046" lon="6.88138">
        <ele>2060</ele>
        <time>2019-10-06T06:32:48Z</time>
      </trkpt>
      <trkpt lat="45.70044" lon="6.88141">
        <ele>2060</ele>
        <time>2019-10-06T06:32:49Z</time>
      </trkpt>
      <trkpt lat="45.70042" lon="6.88144">
        <ele>2060</ele>
        <time>2019-10-06T06:32:50Z</time>
      </trkpt>
      <trkpt lat="45.7004" lon="6.88147">
        <ele>2058</ele>
        <time>2019-10-06T06:32:51Z</time>
      </trkpt>
      <trkpt lat="45.70039" lon="6.88149">
        <ele>2056</ele>
        <time>2019-10-06T06:32:52Z</time>
      </trkpt>
      <trkpt lat="45.70038" lon="6.88153">
        <ele>2055</ele>
        <time>2019-10-06T06:32:53Z</time>
      </trkpt>
      <trkpt lat="45.70037" lon="6.88156">
        <ele>2055</ele>
        <time>2019-10-06T06:32:54Z</time>
      </trkpt>
      <trkpt lat="45.70036" lon="6.8816">
        <ele>2054</ele>
        <time>2019-10-06T06:32:55Z</time>
      </trkpt>
      <trkpt lat="45.70035" lon="6.88164">
        <ele>2053</ele>
        <time>2019-10-06T06:32:56Z</time>
      </trkpt>
      <trkpt lat="45.70033" lon="6.88169">
        <ele>2052</ele>
        <time>2019-10-06T06:32:57Z</time>
      </trkpt>
      <trkpt lat="45.70032" lon="6.88172">
        <ele>2052</ele>
        <time>2019-10-06T06:32:58Z</time>
      </trkpt>
      <trkpt lat="45.7003" lon="6.88176">
        <ele>2052</ele>
        <time>2019-10-06T06:32:59Z</time>
      </trkpt>
      <trkpt lat="45.70027" lon="6.88179">
        <ele>2051</ele>
        <time>2019-10-06T06:33:00Z</time>
      </trkpt>
      <trkpt lat="45.70025" lon="6.88182">
        <ele>2051</ele>
        <time>2019-10-06T06:33:01Z</time>
      </trkpt>
      <trkpt lat="45.70022" lon="6.88184">
        <ele>2051</ele>
        <time>2019-10-06T06:33:02Z</time>
      </trkpt>
      <trkpt lat="45.7002" lon="6.88185">
        <ele>2050</ele>
        <time>2019-10-06T06:33:03Z</time>
      </trkpt>
      <trkpt lat="45.70017" lon="6.88187">
        <ele>2051</ele>
        <time>2019-10-06T06:33:04Z</time>
      </trkpt>
      <trkpt lat="45.70014" lon="6.88187">
        <ele>2051</ele>
        <time>2019-10-06T06:33:05Z</time>
      </trkpt>
      <trkpt lat="45.70011" lon="6.88188">
        <ele>2051</ele>
        <time>2019-10-06T06:33:06Z</time>
      </trkpt>
      <trkpt lat="45.70009" lon="6.8819">
        <ele>2052</ele>
        <time>2019-10-06T06:33:07Z</time>
      </trkpt>
      <trkpt lat="45.70006" lon="6.88192">
        <ele>2052</ele>
        <time>2019-10-06T06:33:08Z</time>
      </trkpt>
      <trkpt lat="45.70004" lon="6.88193">
        <ele>2052</ele>
        <time>2019-10-06T06:33:09Z</time>
      </trkpt>
      <trkpt lat="45.70001" lon="6.88194">
        <ele>2052</ele>
        <time>2019-10-06T06:33:10Z</time>
      </trkpt>
      <trkpt lat="45.69999" lon="6.88196">
        <ele>2051</ele>
        <time>2019-10-06T06:33:11Z</time>
      </trkpt>
      <trkpt lat="45.69997" lon="6.88197">
        <ele>2051</ele>
        <time>2019-10-06T06:33:12Z</time>
      </trkpt>
      <trkpt lat="45.69994" lon="6.88199">
        <ele>2051</ele>
        <time>2019-10-06T06:33:13Z</time>
      </trkpt>
      <trkpt lat="45.69992" lon="6.88202">
        <ele>2051</ele>
        <time>2019-10-06T06:33:14Z</time>
      </trkpt>
      <trkpt lat="45.6999" lon="6.88205">
        <ele>2051</ele>
        <time>2019-10-06T06:33:15Z</time>
      </trkpt>
      <trkpt lat="45.69988" lon="6.88207">
        <ele>2051</ele>
        <time>2019-10-06T06:33:16Z</time>
      </trkpt>
      <trkpt lat="45.69986" lon="6.8821">
        <ele>2051</ele>
        <time>2019-10-06T06:33:17Z</time>
      </trkpt>
      <trkpt lat="45.69984" lon="6.88213">
        <ele>2051</ele>
        <time>2019-10-06T06:33:18Z</time>
      </trkpt>
      <trkpt lat="45.69982" lon="6.88215">
        <ele>2051</ele>
        <time>2019-10-06T06:33:19Z</time>
      </trkpt>
      <trkpt lat="45.69981" lon="6.88217">
        <ele>2051</ele>
        <time>2019-10-06T06:33:20Z</time>
      </trkpt>
      <trkpt lat="45.69979" lon="6.8822">
        <ele>2051</ele>
        <time>2019-10-06T06:33:21Z</time>
      </trkpt>
      <trkpt lat="45.69977" lon="6.88222">
        <ele>2051</ele>
        <time>2019-10-06T06:33:22Z</time>
      </trkpt>
      <trkpt lat="45.69975" lon="6.88225">
        <ele>2051</ele>
        <time>2019-10-06T06:33:23Z</time>
      </trkpt>
      <trkpt lat="45.69974" lon="6.88228">
        <ele>2051</ele>
        <time>2019-10-06T06:33:24Z</time>
      </trkpt>
      <trkpt lat="45.69972" lon="6.8823">
        <ele>2051</ele>
        <time>2019-10-06T06:33:25Z</time>
      </trkpt>
      <trkpt lat="45.6997" lon="6.88233">
        <ele>2051</ele>
        <time>2019-10-06T06:33:26Z</time>
      </trkpt>
      <trkpt lat="45.69968" lon="6.88236">
        <ele>2051</ele>
        <time>2019-10-06T06:33:27Z</time>
      </trkpt>
      <trkpt lat="45.69967" lon="6.88238">
        <ele>2051</ele>
        <time>2019-10-06T06:33:28Z</time>
      </trkpt>
      <trkpt lat="45.69965" lon="6.88241">
        <ele>2051</ele>
        <time>2019-10-06T06:33:29Z</time>
      </trkpt>
      <trkpt lat="45.69963" lon="6.88243">
        <ele>2051</ele>
        <time>2019-10-06T06:33:30Z</time>
      </trkpt>
      <trkpt lat="45.69962" lon="6.88246">
        <ele>2051</ele>
        <time>2019-10-06T06:33:31Z</time>
      </trkpt>
      <trkpt lat="45.6996" lon="6.88249">
        <ele>2052</ele>
        <time>2019-10-06T06:33:32Z</time>
      </trkpt>
      <trkpt lat="45.69958" lon="6.88253">
        <ele>2052</ele>
        <time>2019-10-06T06:33:33Z</time>
      </trkpt>
      <trkpt lat="45.69957" lon="6.88255">
        <ele>2052</ele>
        <time>2019-10-06T06:33:34Z</time>
      </trkpt>
      <trkpt lat="45.69955" lon="6.88258">
        <ele>2052</ele>
        <time>2019-10-06T06:33:35Z</time>
      </trkpt>
      <trkpt lat="45.69953" lon="6.8826">
        <ele>2052</ele>
        <time>2019-10-06T06:33:36Z</time>
      </trkpt>
      <trkpt lat="45.69952" lon="6.88263">
        <ele>2052</ele>
        <time>2019-10-06T06:33:37Z</time>
      </trkpt>
      <trkpt lat="45.6995" lon="6.88266">
        <ele>2052</ele>
        <time>2019-10-06T06:33:38Z</time>
      </trkpt>
      <trkpt lat="45.69948" lon="6.88268">
        <ele>2052</ele>
        <time>2019-10-06T06:33:39Z</time>
      </trkpt>
      <trkpt lat="45.69946" lon="6.88271">
        <ele>2052</ele>
        <time>2019-10-06T06:33:40Z</time>
      </trkpt>
      <trkpt lat="45.69945" lon="6.88274">
        <ele>2052</ele>
        <time>2019-10-06T06:33:41Z</time>
      </trkpt>
      <trkpt lat="45.69943" lon="6.88277">
        <ele>2052</ele>
        <time>2019-10-06T06:33:42Z</time>
      </trkpt>
      <trkpt lat="45.69942" lon="6.8828">
        <ele>2053</ele>
        <time>2019-10-06T06:33:43Z</time>
      </trkpt>
      <trkpt lat="45.69941" lon="6.88282">
        <ele>2053</ele>
        <time>2019-10-06T06:33:44Z</time>
      </trkpt>
      <trkpt lat="45.6994" lon="6.88286">
        <ele>2054</ele>
        <time>2019-10-06T06:33:45Z</time>
      </trkpt>
      <trkpt lat="45.69938" lon="6.88288">
        <ele>2054</ele>
        <time>2019-10-06T06:33:46Z</time>
      </trkpt>
      <trkpt lat="45.69937" lon="6.88292">
        <ele>2054</ele>
        <time>2019-10-06T06:33:47Z</time>
      </trkpt>
      <trkpt lat="45.69936" lon="6.88295">
        <ele>2053</ele>
        <time>2019-10-06T06:33:48Z</time>
      </trkpt>
      <trkpt lat="45.69935" lon="6.88299">
        <ele>2054</ele>
        <time>2019-10-06T06:33:49Z</time>
      </trkpt>
      <trkpt lat="45.69934" lon="6.88303">
        <ele>2054</ele>
        <time>2019-10-06T06:33:50Z</time>
      </trkpt>
      <trkpt lat="45.69933" lon="6.88306">
        <ele>2054</ele>
        <time>2019-10-06T06:33:51Z</time>
      </trkpt>
      <trkpt lat="45.69932" lon="6.8831">
        <ele>2054</ele>
        <time>2019-10-06T06:33:52Z</time>
      </trkpt>
      <trkpt lat="45.69931" lon="6.88313">
        <ele>2055</ele>
        <time>2019-10-06T06:33:53Z</time>
      </trkpt>
      <trkpt lat="45.69929" lon="6.88317">
        <ele>2055</ele>
        <time>2019-10-06T06:33:54Z</time>
      </trkpt>
      <trkpt lat="45.69929" lon="6.8832">
        <ele>2054</ele>
        <time>2019-10-06T06:33:55Z</time>
      </trkpt>
      <trkpt lat="45.69928" lon="6.88324">
        <ele>2053</ele>
        <time>2019-10-06T06:33:56Z</time>
      </trkpt>
      <trkpt lat="45.69927" lon="6.88328">
        <ele>2053</ele>
        <time>2019-10-06T06:33:57Z</time>
      </trkpt>
      <trkpt lat="45.69927" lon="6.88331">
        <ele>2053</ele>
        <time>2019-10-06T06:33:58Z</time>
      </trkpt>
      <trkpt lat="45.69926" lon="6.88335">
        <ele>2053</ele>
        <time>2019-10-06T06:33:59Z</time>
      </trkpt>
      <trkpt lat="45.69925" lon="6.88339">
        <ele>2053</ele>
        <time>2019-10-06T06:34:00Z</time>
      </trkpt>
      <trkpt lat="45.69924" lon="6.88343">
        <ele>2053</ele>
        <time>2019-10-06T06:34:01Z</time>
      </trkpt>
      <trkpt lat="45.69924" lon="6.88346">
        <ele>2053</ele>
        <time>2019-10-06T06:34:02Z</time>
      </trkpt>
      <trkpt lat="45.69923" lon="6.8835">
        <ele>2053</ele>
        <time>2019-10-06T06:34:03Z</time>
      </trkpt>
      <trkpt lat="45.69922" lon="6.88354">
        <ele>2053</ele>
        <time>2019-10-06T06:34:04Z</time>
      </trkpt>
      <trkpt lat="45.69922" lon="6.88358">
        <ele>2052</ele>
        <time>2019-10-06T06:34:05Z</time>
      </trkpt>
      <trkpt lat="45.69921" lon="6.88362">
        <ele>2052</ele>
        <time>2019-10-06T06:34:06Z</time>
      </trkpt>
      <trkpt lat="45.69921" lon="6.88366">
        <ele>2052</ele>
        <time>2019-10-06T06:34:07Z</time>
      </trkpt>
      <trkpt lat="45.6992" lon="6.88369">
        <ele>2052</ele>
        <time>2019-10-06T06:34:08Z</time>
      </trkpt>
      <trkpt lat="45.69919" lon="6.88373">
        <ele>2052</ele>
        <time>2019-10-06T06:34:09Z</time>
      </trkpt>
      <trkpt lat="45.69919" lon="6.88377">
        <ele>2052</ele>
        <time>2019-10-06T06:34:10Z</time>
      </trkpt>
      <trkpt lat="45.69918" lon="6.88381">
        <ele>2051</ele>
        <time>2019-10-06T06:34:11Z</time>
      </trkpt>
      <trkpt lat="45.69917" lon="6.88385">
        <ele>2051</ele>
        <time>2019-10-06T06:34:12Z</time>
      </trkpt>
      <trkpt lat="45.69916" lon="6.88389">
        <ele>2051</ele>
        <time>2019-10-06T06:34:13Z</time>
      </trkpt>
      <trkpt lat="45.69916" lon="6.88393">
        <ele>2051</ele>
        <time>2019-10-06T06:34:14Z</time>
      </trkpt>
      <trkpt lat="45.69915" lon="6.88397">
        <ele>2051</ele>
        <time>2019-10-06T06:34:15Z</time>
      </trkpt>
      <trkpt lat="45.69915" lon="6.88401">
        <ele>2051</ele>
        <time>2019-10-06T06:34:16Z</time>
      </trkpt>
      <trkpt lat="45.69914" lon="6.88405">
        <ele>2051</ele>
        <time>2019-10-06T06:34:17Z</time>
      </trkpt>
      <trkpt lat="45.69914" lon="6.88409">
        <ele>2051</ele>
        <time>2019-10-06T06:34:18Z</time>
      </trkpt>
      <trkpt lat="45.69913" lon="6.88413">
        <ele>2051</ele>
        <time>2019-10-06T06:34:19Z</time>
      </trkpt>
      <trkpt lat="45.69912" lon="6.88417">
        <ele>2050</ele>
        <time>2019-10-06T06:34:20Z</time>
      </trkpt>
      <trkpt lat="45.69912" lon="6.88421">
        <ele>2050</ele>
        <time>2019-10-06T06:34:21Z</time>
      </trkpt>
      <trkpt lat="45.69912" lon="6.88425">
        <ele>2050</ele>
        <time>2019-10-06T06:34:22Z</time>
      </trkpt>
      <trkpt lat="45.69912" lon="6.88429">
        <ele>2050</ele>
        <time>2019-10-06T06:34:23Z</time>
      </trkpt>
      <trkpt lat="45.69912" lon="6.88433">
        <ele>2050</ele>
        <time>2019-10-06T06:34:24Z</time>
      </trkpt>
      <trkpt lat="45.69912" lon="6.88437">
        <ele>2050</ele>
        <time>2019-10-06T06:34:25Z</time>
      </trkpt>
      <trkpt lat="45.69912" lon="6.88442">
        <ele>2050</ele>
        <time>2019-10-06T06:34:26Z</time>
      </trkpt>
      <trkpt lat="45.69912" lon="6.88446">
        <ele>2050</ele>
        <time>2019-10-06T06:34:27Z</time>
      </trkpt>
      <trkpt lat="45.69912" lon="6.8845">
        <ele>2050</ele>
        <time>2019-10-06T06:34:28Z</time>
      </trkpt>
      <trkpt lat="45.69912" lon="6.88454">
        <ele>2050</ele>
        <time>2019-10-06T06:34:29Z</time>
      </trkpt>
      <trkpt lat="45.69913" lon="6.88458">
        <ele>2050</ele>
        <time>2019-10-06T06:34:30Z</time>
      </trkpt>
      <trkpt lat="45.69913" lon="6.88462">
        <ele>2050</ele>
        <time>2019-10-06T06:34:31Z</time>
      </trkpt>
      <trkpt lat="45.69913" lon="6.88466">
        <ele>2049</ele>
        <time>2019-10-06T06:34:32Z</time>
      </trkpt>
      <trkpt lat="45.69913" lon="6.88469">
        <ele>2048</ele>
        <time>2019-10-06T06:34:33Z</time>
      </trkpt>
      <trkpt lat="45.69914" lon="6.88473">
        <ele>2048</ele>
        <time>2019-10-06T06:34:34Z</time>
      </trkpt>
      <trkpt lat="45.69914" lon="6.88477">
        <ele>2047</ele>
        <time>2019-10-06T06:34:35Z</time>
      </trkpt>
      <trkpt lat="45.69915" lon="6.88481">
        <ele>2047</ele>
        <time>2019-10-06T06:34:36Z</time>
      </trkpt>
      <trkpt lat="45.69915" lon="6.88486">
        <ele>2047</ele>
        <time>2019-10-06T06:34:37Z</time>
      </trkpt>
      <trkpt lat="45.69915" lon="6.8849">
        <ele>2047</ele>
        <time>2019-10-06T06:34:38Z</time>
      </trkpt>
      <trkpt lat="45.69916" lon="6.88493">
        <ele>2046</ele>
        <time>2019-10-06T06:34:39Z</time>
      </trkpt>
      <trkpt lat="45.69916" lon="6.88497">
        <ele>2046</ele>
        <time>2019-10-06T06:34:40Z</time>
      </trkpt>
      <trkpt lat="45.69917" lon="6.88501">
        <ele>2046</ele>
        <time>2019-10-06T06:34:41Z</time>
      </trkpt>
      <trkpt lat="45.69917" lon="6.88505">
        <ele>2046</ele>
        <time>2019-10-06T06:34:42Z</time>
      </trkpt>
      <trkpt lat="45.69917" lon="6.88509">
        <ele>2045</ele>
        <time>2019-10-06T06:34:43Z</time>
      </trkpt>
      <trkpt lat="45.69917" lon="6.88513">
        <ele>2045</ele>
        <time>2019-10-06T06:34:44Z</time>
      </trkpt>
      <trkpt lat="45.69916" lon="6.88517">
        <ele>2045</ele>
        <time>2019-10-06T06:34:45Z</time>
      </trkpt>
      <trkpt lat="45.69916" lon="6.88521">
        <ele>2045</ele>
        <time>2019-10-06T06:34:46Z</time>
      </trkpt>
      <trkpt lat="45.69915" lon="6.88525">
        <ele>2045</ele>
        <time>2019-10-06T06:34:47Z</time>
      </trkpt>
      <trkpt lat="45.69915" lon="6.88529">
        <ele>2045</ele>
        <time>2019-10-06T06:34:48Z</time>
      </trkpt>
      <trkpt lat="45.69914" lon="6.88533">
        <ele>2044</ele>
        <time>2019-10-06T06:34:49Z</time>
      </trkpt>
      <trkpt lat="45.69914" lon="6.88537">
        <ele>2044</ele>
        <time>2019-10-06T06:34:50Z</time>
      </trkpt>
      <trkpt lat="45.69914" lon="6.8854">
        <ele>2043</ele>
        <time>2019-10-06T06:34:51Z</time>
      </trkpt>
      <trkpt lat="45.69913" lon="6.88544">
        <ele>2043</ele>
        <time>2019-10-06T06:34:52Z</time>
      </trkpt>
      <trkpt lat="45.69912" lon="6.88548">
        <ele>2043</ele>
        <time>2019-10-06T06:34:53Z</time>
      </trkpt>
      <trkpt lat="45.69912" lon="6.88553">
        <ele>2043</ele>
        <time>2019-10-06T06:34:54Z</time>
      </trkpt>
      <trkpt lat="45.69911" lon="6.88556">
        <ele>2042</ele>
        <time>2019-10-06T06:34:55Z</time>
      </trkpt>
      <trkpt lat="45.6991" lon="6.8856">
        <ele>2042</ele>
        <time>2019-10-06T06:34:56Z</time>
      </trkpt>
      <trkpt lat="45.6991" lon="6.88564">
        <ele>2042</ele>
        <time>2019-10-06T06:34:57Z</time>
      </trkpt>
      <trkpt lat="45.69909" lon="6.88568">
        <ele>2042</ele>
        <time>2019-10-06T06:34:58Z</time>
      </trkpt>
      <trkpt lat="45.69908" lon="6.88572">
        <ele>2041</ele>
        <time>2019-10-06T06:34:59Z</time>
      </trkpt>
      <trkpt lat="45.69908" lon="6.88576">
        <ele>2041</ele>
        <time>2019-10-06T06:35:00Z</time>
      </trkpt>
      <trkpt lat="45.69907" lon="6.8858">
        <ele>2041</ele>
        <time>2019-10-06T06:35:01Z</time>
      </trkpt>
      <trkpt lat="45.69906" lon="6.88584">
        <ele>2041</ele>
        <time>2019-10-06T06:35:02Z</time>
      </trkpt>
      <trkpt lat="45.69905" lon="6.88588">
        <ele>2041</ele>
        <time>2019-10-06T06:35:03Z</time>
      </trkpt>
      <trkpt lat="45.69904" lon="6.88592">
        <ele>2041</ele>
        <time>2019-10-06T06:35:04Z</time>
      </trkpt>
      <trkpt lat="45.69903" lon="6.88596">
        <ele>2040</ele>
        <time>2019-10-06T06:35:05Z</time>
      </trkpt>
      <trkpt lat="45.69901" lon="6.886">
        <ele>2040</ele>
        <time>2019-10-06T06:35:06Z</time>
      </trkpt>
      <trkpt lat="45.699" lon="6.88604">
        <ele>2040</ele>
        <time>2019-10-06T06:35:07Z</time>
      </trkpt>
      <trkpt lat="45.69899" lon="6.88608">
        <ele>2038</ele>
        <time>2019-10-06T06:35:08Z</time>
      </trkpt>
      <trkpt lat="45.69898" lon="6.88611">
        <ele>2037</ele>
        <time>2019-10-06T06:35:09Z</time>
      </trkpt>
      <trkpt lat="45.69897" lon="6.88615">
        <ele>2038</ele>
        <time>2019-10-06T06:35:10Z</time>
      </trkpt>
      <trkpt lat="45.69895" lon="6.88618">
        <ele>2040</ele>
        <time>2019-10-06T06:35:11Z</time>
      </trkpt>
      <trkpt lat="45.69894" lon="6.88622">
        <ele>2040</ele>
        <time>2019-10-06T06:35:12Z</time>
      </trkpt>
      <trkpt lat="45.69893" lon="6.88625">
        <ele>2038</ele>
        <time>2019-10-06T06:35:13Z</time>
      </trkpt>
      <trkpt lat="45.69891" lon="6.88629">
        <ele>2038</ele>
        <time>2019-10-06T06:35:14Z</time>
      </trkpt>
      <trkpt lat="45.6989" lon="6.88632">
        <ele>2037</ele>
        <time>2019-10-06T06:35:15Z</time>
      </trkpt>
      <trkpt lat="45.69889" lon="6.88636">
        <ele>2037</ele>
        <time>2019-10-06T06:35:16Z</time>
      </trkpt>
      <trkpt lat="45.69887" lon="6.88639">
        <ele>2037</ele>
        <time>2019-10-06T06:35:17Z</time>
      </trkpt>
      <trkpt lat="45.69886" lon="6.88642">
        <ele>2038</ele>
        <time>2019-10-06T06:35:18Z</time>
      </trkpt>
      <trkpt lat="45.69884" lon="6.88646">
        <ele>2038</ele>
        <time>2019-10-06T06:35:19Z</time>
      </trkpt>
      <trkpt lat="45.69883" lon="6.88649">
        <ele>2037</ele>
        <time>2019-10-06T06:35:20Z</time>
      </trkpt>
      <trkpt lat="45.69881" lon="6.88653">
        <ele>2037</ele>
        <time>2019-10-06T06:35:21Z</time>
      </trkpt>
      <trkpt lat="45.69883" lon="6.88649">
        <ele>2037</ele>
        <time>2019-10-06T06:35:22Z</time>
      </trkpt>
      <trkpt lat="45.69881" lon="6.88651">
        <ele>2036</ele>
        <time>2019-10-06T06:35:24Z</time>
      </trkpt>
      <trkpt lat="45.6988" lon="6.88654">
        <ele>2035</ele>
        <time>2019-10-06T06:35:27Z</time>
      </trkpt>
      <trkpt lat="45.69878" lon="6.88659">
        <ele>2035</ele>
        <time>2019-10-06T06:35:28Z</time>
      </trkpt>
      <trkpt lat="45.69876" lon="6.88664">
        <ele>2035</ele>
        <time>2019-10-06T06:35:29Z</time>
      </trkpt>
      <trkpt lat="45.69875" lon="6.88669">
        <ele>2035</ele>
        <time>2019-10-06T06:35:30Z</time>
      </trkpt>
      <trkpt lat="45.69873" lon="6.88675">
        <ele>2035</ele>
        <time>2019-10-06T06:35:31Z</time>
      </trkpt>
      <trkpt lat="45.69871" lon="6.88682">
        <ele>2035</ele>
        <time>2019-10-06T06:35:32Z</time>
      </trkpt>
      <trkpt lat="45.69869" lon="6.88687">
        <ele>2035</ele>
        <time>2019-10-06T06:35:33Z</time>
      </trkpt>
      <trkpt lat="45.69868" lon="6.88693">
        <ele>2035</ele>
        <time>2019-10-06T06:35:34Z</time>
      </trkpt>
      <trkpt lat="45.69866" lon="6.88698">
        <ele>2035</ele>
        <time>2019-10-06T06:35:35Z</time>
      </trkpt>
      <trkpt lat="45.69865" lon="6.88702">
        <ele>2035</ele>
        <time>2019-10-06T06:35:36Z</time>
      </trkpt>
      <trkpt lat="45.69864" lon="6.88707">
        <ele>2035</ele>
        <time>2019-10-06T06:35:37Z</time>
      </trkpt>
      <trkpt lat="45.69863" lon="6.88712">
        <ele>2035</ele>
        <time>2019-10-06T06:35:38Z</time>
      </trkpt>
      <trkpt lat="45.69863" lon="6.88716">
        <ele>2035</ele>
        <time>2019-10-06T06:35:39Z</time>
      </trkpt>
      <trkpt lat="45.69862" lon="6.8872">
        <ele>2035</ele>
        <time>2019-10-06T06:35:40Z</time>
      </trkpt>
      <trkpt lat="45.69862" lon="6.88724">
        <ele>2035</ele>
        <time>2019-10-06T06:35:41Z</time>
      </trkpt>
      <trkpt lat="45.69861" lon="6.88728">
        <ele>2035</ele>
        <time>2019-10-06T06:35:42Z</time>
      </trkpt>
      <trkpt lat="45.69861" lon="6.88732">
        <ele>2034</ele>
        <time>2019-10-06T06:35:43Z</time>
      </trkpt>
      <trkpt lat="45.69861" lon="6.88736">
        <ele>2034</ele>
        <time>2019-10-06T06:35:44Z</time>
      </trkpt>
      <trkpt lat="45.6986" lon="6.88741">
        <ele>2034</ele>
        <time>2019-10-06T06:35:45Z</time>
      </trkpt>
      <trkpt lat="45.6986" lon="6.88744">
        <ele>2034</ele>
        <time>2019-10-06T06:35:46Z</time>
      </trkpt>
      <trkpt lat="45.6986" lon="6.88749">
        <ele>2034</ele>
        <time>2019-10-06T06:35:47Z</time>
      </trkpt>
      <trkpt lat="45.69861" lon="6.88753">
        <ele>2034</ele>
        <time>2019-10-06T06:35:48Z</time>
      </trkpt>
      <trkpt lat="45.69862" lon="6.88756">
        <ele>2034</ele>
        <time>2019-10-06T06:35:49Z</time>
      </trkpt>
      <trkpt lat="45.69863" lon="6.8876">
        <ele>2033</ele>
        <time>2019-10-06T06:35:50Z</time>
      </trkpt>
      <trkpt lat="45.69863" lon="6.88764">
        <ele>2033</ele>
        <time>2019-10-06T06:35:51Z</time>
      </trkpt>
      <trkpt lat="45.69864" lon="6.88768">
        <ele>2033</ele>
        <time>2019-10-06T06:35:52Z</time>
      </trkpt>
      <trkpt lat="45.69866" lon="6.88772">
        <ele>2033</ele>
        <time>2019-10-06T06:35:53Z</time>
      </trkpt>
      <trkpt lat="45.69867" lon="6.88775">
        <ele>2033</ele>
        <time>2019-10-06T06:35:54Z</time>
      </trkpt>
      <trkpt lat="45.69869" lon="6.88778">
        <ele>2033</ele>
        <time>2019-10-06T06:35:55Z</time>
      </trkpt>
      <trkpt lat="45.6987" lon="6.88782">
        <ele>2033</ele>
        <time>2019-10-06T06:35:56Z</time>
      </trkpt>
      <trkpt lat="45.69871" lon="6.88785">
        <ele>2032</ele>
        <time>2019-10-06T06:35:57Z</time>
      </trkpt>
      <trkpt lat="45.69872" lon="6.88789">
        <ele>2032</ele>
        <time>2019-10-06T06:35:58Z</time>
      </trkpt>
      <trkpt lat="45.69874" lon="6.88792">
        <ele>2032</ele>
        <time>2019-10-06T06:35:59Z</time>
      </trkpt>
      <trkpt lat="45.69875" lon="6.88796">
        <ele>2032</ele>
        <time>2019-10-06T06:36:00Z</time>
      </trkpt>
      <trkpt lat="45.69876" lon="6.888">
        <ele>2032</ele>
        <time>2019-10-06T06:36:01Z</time>
      </trkpt>
      <trkpt lat="45.69878" lon="6.88803">
        <ele>2031</ele>
        <time>2019-10-06T06:36:02Z</time>
      </trkpt>
      <trkpt lat="45.69879" lon="6.88807">
        <ele>2031</ele>
        <time>2019-10-06T06:36:03Z</time>
      </trkpt>
      <trkpt lat="45.69881" lon="6.88811">
        <ele>2031</ele>
        <time>2019-10-06T06:36:04Z</time>
      </trkpt>
      <trkpt lat="45.69882" lon="6.88814">
        <ele>2031</ele>
        <time>2019-10-06T06:36:05Z</time>
      </trkpt>
      <trkpt lat="45.69883" lon="6.88817">
        <ele>2031</ele>
        <time>2019-10-06T06:36:06Z</time>
      </trkpt>
      <trkpt lat="45.69884" lon="6.88821">
        <ele>2031</ele>
        <time>2019-10-06T06:36:07Z</time>
      </trkpt>
      <trkpt lat="45.69885" lon="6.88824">
        <ele>2030</ele>
        <time>2019-10-06T06:36:08Z</time>
      </trkpt>
      <trkpt lat="45.69886" lon="6.88828">
        <ele>2030</ele>
        <time>2019-10-06T06:36:09Z</time>
      </trkpt>
      <trkpt lat="45.69888" lon="6.88832">
        <ele>2030</ele>
        <time>2019-10-06T06:36:10Z</time>
      </trkpt>
      <trkpt lat="45.69889" lon="6.88835">
        <ele>2030</ele>
        <time>2019-10-06T06:36:11Z</time>
      </trkpt>
      <trkpt lat="45.69891" lon="6.88839">
        <ele>2030</ele>
        <time>2019-10-06T06:36:12Z</time>
      </trkpt>
      <trkpt lat="45.69892" lon="6.88842">
        <ele>2030</ele>
        <time>2019-10-06T06:36:13Z</time>
      </trkpt>
      <trkpt lat="45.69893" lon="6.88846">
        <ele>2029</ele>
        <time>2019-10-06T06:36:14Z</time>
      </trkpt>
      <trkpt lat="45.69895" lon="6.88849">
        <ele>2029</ele>
        <time>2019-10-06T06:36:15Z</time>
      </trkpt>
      <trkpt lat="45.69896" lon="6.88853">
        <ele>2029</ele>
        <time>2019-10-06T06:36:16Z</time>
      </trkpt>
      <trkpt lat="45.69898" lon="6.88857">
        <ele>2029</ele>
        <time>2019-10-06T06:36:17Z</time>
      </trkpt>
      <trkpt lat="45.69899" lon="6.8886">
        <ele>2028</ele>
        <time>2019-10-06T06:36:18Z</time>
      </trkpt>
      <trkpt lat="45.69901" lon="6.88864">
        <ele>2028</ele>
        <time>2019-10-06T06:36:19Z</time>
      </trkpt>
      <trkpt lat="45.69903" lon="6.88867">
        <ele>2028</ele>
        <time>2019-10-06T06:36:20Z</time>
      </trkpt>
      <trkpt lat="45.69904" lon="6.8887">
        <ele>2028</ele>
        <time>2019-10-06T06:36:21Z</time>
      </trkpt>
      <trkpt lat="45.69906" lon="6.88874">
        <ele>2027</ele>
        <time>2019-10-06T06:36:22Z</time>
      </trkpt>
      <trkpt lat="45.69907" lon="6.88877">
        <ele>2027</ele>
        <time>2019-10-06T06:36:23Z</time>
      </trkpt>
      <trkpt lat="45.69908" lon="6.88881">
        <ele>2027</ele>
        <time>2019-10-06T06:36:24Z</time>
      </trkpt>
      <trkpt lat="45.6991" lon="6.88885">
        <ele>2026</ele>
        <time>2019-10-06T06:36:25Z</time>
      </trkpt>
      <trkpt lat="45.69911" lon="6.88889">
        <ele>2026</ele>
        <time>2019-10-06T06:36:26Z</time>
      </trkpt>
      <trkpt lat="45.69912" lon="6.88892">
        <ele>2025</ele>
        <time>2019-10-06T06:36:27Z</time>
      </trkpt>
      <trkpt lat="45.69913" lon="6.88896">
        <ele>2025</ele>
        <time>2019-10-06T06:36:28Z</time>
      </trkpt>
      <trkpt lat="45.69914" lon="6.889">
        <ele>2025</ele>
        <time>2019-10-06T06:36:29Z</time>
      </trkpt>
      <trkpt lat="45.69916" lon="6.88903">
        <ele>2025</ele>
        <time>2019-10-06T06:36:30Z</time>
      </trkpt>
      <trkpt lat="45.69918" lon="6.88907">
        <ele>2025</ele>
        <time>2019-10-06T06:36:31Z</time>
      </trkpt>
      <trkpt lat="45.69919" lon="6.88911">
        <ele>2024</ele>
        <time>2019-10-06T06:36:32Z</time>
      </trkpt>
      <trkpt lat="45.6992" lon="6.88914">
        <ele>2024</ele>
        <time>2019-10-06T06:36:33Z</time>
      </trkpt>
      <trkpt lat="45.69922" lon="6.88918">
        <ele>2024</ele>
        <time>2019-10-06T06:36:34Z</time>
      </trkpt>
      <trkpt lat="45.69923" lon="6.88922">
        <ele>2024</ele>
        <time>2019-10-06T06:36:35Z</time>
      </trkpt>
      <trkpt lat="45.69924" lon="6.88926">
        <ele>2023</ele>
        <time>2019-10-06T06:36:36Z</time>
      </trkpt>
      <trkpt lat="45.69925" lon="6.8893">
        <ele>2023</ele>
        <time>2019-10-06T06:36:37Z</time>
      </trkpt>
      <trkpt lat="45.69927" lon="6.88933">
        <ele>2023</ele>
        <time>2019-10-06T06:36:38Z</time>
      </trkpt>
      <trkpt lat="45.69928" lon="6.88937">
        <ele>2023</ele>
        <time>2019-10-06T06:36:39Z</time>
      </trkpt>
      <trkpt lat="45.6993" lon="6.88941">
        <ele>2023</ele>
        <time>2019-10-06T06:36:40Z</time>
      </trkpt>
      <trkpt lat="45.69931" lon="6.88945">
        <ele>2023</ele>
        <time>2019-10-06T06:36:41Z</time>
      </trkpt>
      <trkpt lat="45.69932" lon="6.88948">
        <ele>2023</ele>
        <time>2019-10-06T06:36:42Z</time>
      </trkpt>
      <trkpt lat="45.69934" lon="6.88952">
        <ele>2022</ele>
        <time>2019-10-06T06:36:43Z</time>
      </trkpt>
      <trkpt lat="45.69935" lon="6.88956">
        <ele>2022</ele>
        <time>2019-10-06T06:36:44Z</time>
      </trkpt>
      <trkpt lat="45.69936" lon="6.8896">
        <ele>2022</ele>
        <time>2019-10-06T06:36:45Z</time>
      </trkpt>
      <trkpt lat="45.69937" lon="6.88965">
        <ele>2021</ele>
        <time>2019-10-06T06:36:46Z</time>
      </trkpt>
      <trkpt lat="45.69938" lon="6.88969">
        <ele>2021</ele>
        <time>2019-10-06T06:36:47Z</time>
      </trkpt>
      <trkpt lat="45.69939" lon="6.88973">
        <ele>2020</ele>
        <time>2019-10-06T06:36:48Z</time>
      </trkpt>
      <trkpt lat="45.6994" lon="6.88977">
        <ele>2020</ele>
        <time>2019-10-06T06:36:49Z</time>
      </trkpt>
      <trkpt lat="45.69941" lon="6.88981">
        <ele>2020</ele>
        <time>2019-10-06T06:36:50Z</time>
      </trkpt>
      <trkpt lat="45.69941" lon="6.88986">
        <ele>2020</ele>
        <time>2019-10-06T06:36:51Z</time>
      </trkpt>
      <trkpt lat="45.69941" lon="6.8899">
        <ele>2020</ele>
        <time>2019-10-06T06:36:52Z</time>
      </trkpt>
      <trkpt lat="45.69942" lon="6.88995">
        <ele>2020</ele>
        <time>2019-10-06T06:36:53Z</time>
      </trkpt>
      <trkpt lat="45.69942" lon="6.88999">
        <ele>2020</ele>
        <time>2019-10-06T06:36:54Z</time>
      </trkpt>
      <trkpt lat="45.69942" lon="6.89003">
        <ele>2020</ele>
        <time>2019-10-06T06:36:55Z</time>
      </trkpt>
      <trkpt lat="45.69942" lon="6.89008">
        <ele>2019</ele>
        <time>2019-10-06T06:36:56Z</time>
      </trkpt>
      <trkpt lat="45.69942" lon="6.89012">
        <ele>2019</ele>
        <time>2019-10-06T06:36:57Z</time>
      </trkpt>
      <trkpt lat="45.69942" lon="6.89016">
        <ele>2019</ele>
        <time>2019-10-06T06:36:58Z</time>
      </trkpt>
      <trkpt lat="45.69942" lon="6.8902">
        <ele>2018</ele>
        <time>2019-10-06T06:36:59Z</time>
      </trkpt>
      <trkpt lat="45.69941" lon="6.89024">
        <ele>2018</ele>
        <time>2019-10-06T06:37:00Z</time>
      </trkpt>
      <trkpt lat="45.69941" lon="6.89028">
        <ele>2018</ele>
        <time>2019-10-06T06:37:01Z</time>
      </trkpt>
      <trkpt lat="45.6994" lon="6.89031">
        <ele>2018</ele>
        <time>2019-10-06T06:37:02Z</time>
      </trkpt>
      <trkpt lat="45.6994" lon="6.89035">
        <ele>2018</ele>
        <time>2019-10-06T06:37:03Z</time>
      </trkpt>
      <trkpt lat="45.6994" lon="6.89039">
        <ele>2018</ele>
        <time>2019-10-06T06:37:04Z</time>
      </trkpt>
      <trkpt lat="45.6994" lon="6.89043">
        <ele>2018</ele>
        <time>2019-10-06T06:37:05Z</time>
      </trkpt>
      <trkpt lat="45.69939" lon="6.89047">
        <ele>2018</ele>
        <time>2019-10-06T06:37:06Z</time>
      </trkpt>
      <trkpt lat="45.69939" lon="6.89051">
        <ele>2018</ele>
        <time>2019-10-06T06:37:07Z</time>
      </trkpt>
      <trkpt lat="45.69939" lon="6.89055">
        <ele>2018</ele>
        <time>2019-10-06T06:37:08Z</time>
      </trkpt>
      <trkpt lat="45.69938" lon="6.89059">
        <ele>2018</ele>
        <time>2019-10-06T06:37:09Z</time>
      </trkpt>
      <trkpt lat="45.69938" lon="6.89063">
        <ele>2018</ele>
        <time>2019-10-06T06:37:10Z</time>
      </trkpt>
      <trkpt lat="45.69937" lon="6.89067">
        <ele>2018</ele>
        <time>2019-10-06T06:37:11Z</time>
      </trkpt>
      <trkpt lat="45.69937" lon="6.89071">
        <ele>2018</ele>
        <time>2019-10-06T06:37:12Z</time>
      </trkpt>
      <trkpt lat="45.69936" lon="6.89074">
        <ele>2018</ele>
        <time>2019-10-06T06:37:13Z</time>
      </trkpt>
      <trkpt lat="45.69936" lon="6.89078">
        <ele>2018</ele>
        <time>2019-10-06T06:37:14Z</time>
      </trkpt>
      <trkpt lat="45.69935" lon="6.89082">
        <ele>2019</ele>
        <time>2019-10-06T06:37:15Z</time>
      </trkpt>
      <trkpt lat="45.69935" lon="6.89086">
        <ele>2019</ele>
        <time>2019-10-06T06:37:16Z</time>
      </trkpt>
      <trkpt lat="45.69934" lon="6.8909">
        <ele>2019</ele>
        <time>2019-10-06T06:37:17Z</time>
      </trkpt>
      <trkpt lat="45.69934" lon="6.89093">
        <ele>2019</ele>
        <time>2019-10-06T06:37:18Z</time>
      </trkpt>
      <trkpt lat="45.69933" lon="6.89097">
        <ele>2019</ele>
        <time>2019-10-06T06:37:19Z</time>
      </trkpt>
      <trkpt lat="45.69933" lon="6.89101">
        <ele>2019</ele>
        <time>2019-10-06T06:37:20Z</time>
      </trkpt>
      <trkpt lat="45.69932" lon="6.89105">
        <ele>2019</ele>
        <time>2019-10-06T06:37:21Z</time>
      </trkpt>
      <trkpt lat="45.69932" lon="6.89109">
        <ele>2019</ele>
        <time>2019-10-06T06:37:22Z</time>
      </trkpt>
      <trkpt lat="45.69932" lon="6.89114">
        <ele>2019</ele>
        <time>2019-10-06T06:37:23Z</time>
      </trkpt>
      <trkpt lat="45.69931" lon="6.89118">
        <ele>2019</ele>
        <time>2019-10-06T06:37:24Z</time>
      </trkpt>
      <trkpt lat="45.69931" lon="6.89121">
        <ele>2019</ele>
        <time>2019-10-06T06:37:25Z</time>
      </trkpt>
      <trkpt lat="45.69931" lon="6.89126">
        <ele>2019</ele>
        <time>2019-10-06T06:37:26Z</time>
      </trkpt>
      <trkpt lat="45.69931" lon="6.8913">
        <ele>2019</ele>
        <time>2019-10-06T06:37:27Z</time>
      </trkpt>
      <trkpt lat="45.69931" lon="6.89133">
        <ele>2019</ele>
        <time>2019-10-06T06:37:28Z</time>
      </trkpt>
      <trkpt lat="45.69931" lon="6.89137">
        <ele>2019</ele>
        <time>2019-10-06T06:37:29Z</time>
      </trkpt>
      <trkpt lat="45.69931" lon="6.89141">
        <ele>2019</ele>
        <time>2019-10-06T06:37:30Z</time>
      </trkpt>
      <trkpt lat="45.69931" lon="6.89145">
        <ele>2019</ele>
        <time>2019-10-06T06:37:31Z</time>
      </trkpt>
      <trkpt lat="45.69931" lon="6.89149">
        <ele>2019</ele>
        <time>2019-10-06T06:37:32Z</time>
      </trkpt>
      <trkpt lat="45.69931" lon="6.89153">
        <ele>2019</ele>
        <time>2019-10-06T06:37:33Z</time>
      </trkpt>
      <trkpt lat="45.6993" lon="6.89157">
        <ele>2019</ele>
        <time>2019-10-06T06:37:34Z</time>
      </trkpt>
      <trkpt lat="45.6993" lon="6.89161">
        <ele>2019</ele>
        <time>2019-10-06T06:37:35Z</time>
      </trkpt>
      <trkpt lat="45.6993" lon="6.89165">
        <ele>2018</ele>
        <time>2019-10-06T06:37:36Z</time>
      </trkpt>
      <trkpt lat="45.6993" lon="6.89169">
        <ele>2017</ele>
        <time>2019-10-06T06:37:37Z</time>
      </trkpt>
      <trkpt lat="45.6993" lon="6.89173">
        <ele>2017</ele>
        <time>2019-10-06T06:37:38Z</time>
      </trkpt>
      <trkpt lat="45.6993" lon="6.89176">
        <ele>2017</ele>
        <time>2019-10-06T06:37:39Z</time>
      </trkpt>
      <trkpt lat="45.6993" lon="6.8918">
        <ele>2017</ele>
        <time>2019-10-06T06:37:40Z</time>
      </trkpt>
      <trkpt lat="45.69931" lon="6.89184">
        <ele>2017</ele>
        <time>2019-10-06T06:37:41Z</time>
      </trkpt>
      <trkpt lat="45.69932" lon="6.89188">
        <ele>2017</ele>
        <time>2019-10-06T06:37:42Z</time>
      </trkpt>
      <trkpt lat="45.69932" lon="6.89192">
        <ele>2017</ele>
        <time>2019-10-06T06:37:43Z</time>
      </trkpt>
      <trkpt lat="45.69933" lon="6.89196">
        <ele>2017</ele>
        <time>2019-10-06T06:37:44Z</time>
      </trkpt>
      <trkpt lat="45.69934" lon="6.892">
        <ele>2017</ele>
        <time>2019-10-06T06:37:45Z</time>
      </trkpt>
      <trkpt lat="45.69934" lon="6.89203">
        <ele>2017</ele>
        <time>2019-10-06T06:37:46Z</time>
      </trkpt>
      <trkpt lat="45.69935" lon="6.89207">
        <ele>2017</ele>
        <time>2019-10-06T06:37:47Z</time>
      </trkpt>
      <trkpt lat="45.69936" lon="6.89211">
        <ele>2017</ele>
        <time>2019-10-06T06:37:48Z</time>
      </trkpt>
      <trkpt lat="45.69936" lon="6.89215">
        <ele>2017</ele>
        <time>2019-10-06T06:37:49Z</time>
      </trkpt>
      <trkpt lat="45.69937" lon="6.89219">
        <ele>2017</ele>
        <time>2019-10-06T06:37:50Z</time>
      </trkpt>
      <trkpt lat="45.69938" lon="6.89223">
        <ele>2016</ele>
        <time>2019-10-06T06:37:51Z</time>
      </trkpt>
      <trkpt lat="45.69938" lon="6.89227">
        <ele>2016</ele>
        <time>2019-10-06T06:37:52Z</time>
      </trkpt>
      <trkpt lat="45.69939" lon="6.89231">
        <ele>2016</ele>
        <time>2019-10-06T06:37:53Z</time>
      </trkpt>
      <trkpt lat="45.6994" lon="6.89235">
        <ele>2016</ele>
        <time>2019-10-06T06:37:54Z</time>
      </trkpt>
      <trkpt lat="45.6994" lon="6.89239">
        <ele>2016</ele>
        <time>2019-10-06T06:37:55Z</time>
      </trkpt>
      <trkpt lat="45.69941" lon="6.89243">
        <ele>2016</ele>
        <time>2019-10-06T06:37:56Z</time>
      </trkpt>
      <trkpt lat="45.69942" lon="6.89246">
        <ele>2016</ele>
        <time>2019-10-06T06:37:57Z</time>
      </trkpt>
      <trkpt lat="45.69943" lon="6.8925">
        <ele>2016</ele>
        <time>2019-10-06T06:37:58Z</time>
      </trkpt>
      <trkpt lat="45.69944" lon="6.89254">
        <ele>2016</ele>
        <time>2019-10-06T06:37:59Z</time>
      </trkpt>
      <trkpt lat="45.69944" lon="6.89258">
        <ele>2016</ele>
        <time>2019-10-06T06:38:00Z</time>
      </trkpt>
      <trkpt lat="45.69945" lon="6.89261">
        <ele>2016</ele>
        <time>2019-10-06T06:38:01Z</time>
      </trkpt>
      <trkpt lat="45.69946" lon="6.89265">
        <ele>2015</ele>
        <time>2019-10-06T06:38:02Z</time>
      </trkpt>
      <trkpt lat="45.69947" lon="6.89268">
        <ele>2015</ele>
        <time>2019-10-06T06:38:03Z</time>
      </trkpt>
      <trkpt lat="45.69948" lon="6.89272">
        <ele>2015</ele>
        <time>2019-10-06T06:38:04Z</time>
      </trkpt>
      <trkpt lat="45.69948" lon="6.89276">
        <ele>2015</ele>
        <time>2019-10-06T06:38:05Z</time>
      </trkpt>
      <trkpt lat="45.69949" lon="6.89279">
        <ele>2015</ele>
        <time>2019-10-06T06:38:06Z</time>
      </trkpt>
      <trkpt lat="45.6995" lon="6.89283">
        <ele>2015</ele>
        <time>2019-10-06T06:38:07Z</time>
      </trkpt>
      <trkpt lat="45.69951" lon="6.89286">
        <ele>2015</ele>
        <time>2019-10-06T06:38:08Z</time>
      </trkpt>
      <trkpt lat="45.69952" lon="6.8929">
        <ele>2015</ele>
        <time>2019-10-06T06:38:09Z</time>
      </trkpt>
      <trkpt lat="45.69953" lon="6.89293">
        <ele>2015</ele>
        <time>2019-10-06T06:38:10Z</time>
      </trkpt>
      <trkpt lat="45.69954" lon="6.89297">
        <ele>2015</ele>
        <time>2019-10-06T06:38:11Z</time>
      </trkpt>
      <trkpt lat="45.69955" lon="6.893">
        <ele>2015</ele>
        <time>2019-10-06T06:38:12Z</time>
      </trkpt>
      <trkpt lat="45.69956" lon="6.89304">
        <ele>2015</ele>
        <time>2019-10-06T06:38:13Z</time>
      </trkpt>
      <trkpt lat="45.69958" lon="6.89307">
        <ele>2015</ele>
        <time>2019-10-06T06:38:14Z</time>
      </trkpt>
      <trkpt lat="45.69959" lon="6.89311">
        <ele>2015</ele>
        <time>2019-10-06T06:38:15Z</time>
      </trkpt>
      <trkpt lat="45.6996" lon="6.89314">
        <ele>2015</ele>
        <time>2019-10-06T06:38:16Z</time>
      </trkpt>
      <trkpt lat="45.69961" lon="6.89318">
        <ele>2015</ele>
        <time>2019-10-06T06:38:17Z</time>
      </trkpt>
      <trkpt lat="45.69962" lon="6.89322">
        <ele>2015</ele>
        <time>2019-10-06T06:38:18Z</time>
      </trkpt>
      <trkpt lat="45.69963" lon="6.89325">
        <ele>2015</ele>
        <time>2019-10-06T06:38:19Z</time>
      </trkpt>
      <trkpt lat="45.69964" lon="6.89328">
        <ele>2015</ele>
        <time>2019-10-06T06:38:20Z</time>
      </trkpt>
      <trkpt lat="45.69965" lon="6.89332">
        <ele>2015</ele>
        <time>2019-10-06T06:38:21Z</time>
      </trkpt>
      <trkpt lat="45.69966" lon="6.89335">
        <ele>2016</ele>
        <time>2019-10-06T06:38:22Z</time>
      </trkpt>
      <trkpt lat="45.69968" lon="6.89339">
        <ele>2016</ele>
        <time>2019-10-06T06:38:23Z</time>
      </trkpt>
      <trkpt lat="45.69969" lon="6.89343">
        <ele>2016</ele>
        <time>2019-10-06T06:38:24Z</time>
      </trkpt>
      <trkpt lat="45.6997" lon="6.89346">
        <ele>2016</ele>
        <time>2019-10-06T06:38:25Z</time>
      </trkpt>
      <trkpt lat="45.69971" lon="6.89349">
        <ele>2015</ele>
        <time>2019-10-06T06:38:26Z</time>
      </trkpt>
      <trkpt lat="45.69972" lon="6.89353">
        <ele>2015</ele>
        <time>2019-10-06T06:38:27Z</time>
      </trkpt>
      <trkpt lat="45.69973" lon="6.89357">
        <ele>2015</ele>
        <time>2019-10-06T06:38:28Z</time>
      </trkpt>
      <trkpt lat="45.69974" lon="6.8936">
        <ele>2015</ele>
        <time>2019-10-06T06:38:29Z</time>
      </trkpt>
      <trkpt lat="45.69976" lon="6.89363">
        <ele>2015</ele>
        <time>2019-10-06T06:38:30Z</time>
      </trkpt>
      <trkpt lat="45.69978" lon="6.89366">
        <ele>2015</ele>
        <time>2019-10-06T06:38:31Z</time>
      </trkpt>
      <trkpt lat="45.69979" lon="6.89369">
        <ele>2015</ele>
        <time>2019-10-06T06:38:32Z</time>
      </trkpt>
      <trkpt lat="45.69981" lon="6.89372">
        <ele>2015</ele>
        <time>2019-10-06T06:38:33Z</time>
      </trkpt>
      <trkpt lat="45.69982" lon="6.89376">
        <ele>2015</ele>
        <time>2019-10-06T06:38:34Z</time>
      </trkpt>
      <trkpt lat="45.69984" lon="6.89378">
        <ele>2015</ele>
        <time>2019-10-06T06:38:35Z</time>
      </trkpt>
      <trkpt lat="45.69985" lon="6.89381">
        <ele>2015</ele>
        <time>2019-10-06T06:38:36Z</time>
      </trkpt>
      <trkpt lat="45.69987" lon="6.89384">
        <ele>2015</ele>
        <time>2019-10-06T06:38:37Z</time>
      </trkpt>
      <trkpt lat="45.69989" lon="6.89387">
        <ele>2015</ele>
        <time>2019-10-06T06:38:38Z</time>
      </trkpt>
      <trkpt lat="45.6999" lon="6.8939">
        <ele>2016</ele>
        <time>2019-10-06T06:38:39Z</time>
      </trkpt>
      <trkpt lat="45.69992" lon="6.89393">
        <ele>2016</ele>
        <time>2019-10-06T06:38:40Z</time>
      </trkpt>
      <trkpt lat="45.69994" lon="6.89396">
        <ele>2016</ele>
        <time>2019-10-06T06:38:41Z</time>
      </trkpt>
      <trkpt lat="45.69996" lon="6.89399">
        <ele>2016</ele>
        <time>2019-10-06T06:38:42Z</time>
      </trkpt>
      <trkpt lat="45.69998" lon="6.89402">
        <ele>2016</ele>
        <time>2019-10-06T06:38:43Z</time>
      </trkpt>
      <trkpt lat="45.7" lon="6.89405">
        <ele>2016</ele>
        <time>2019-10-06T06:38:44Z</time>
      </trkpt>
      <trkpt lat="45.70002" lon="6.89408">
        <ele>2015</ele>
        <time>2019-10-06T06:38:45Z</time>
      </trkpt>
      <trkpt lat="45.70004" lon="6.89411">
        <ele>2015</ele>
        <time>2019-10-06T06:38:46Z</time>
      </trkpt>
      <trkpt lat="45.70006" lon="6.89414">
        <ele>2015</ele>
        <time>2019-10-06T06:38:47Z</time>
      </trkpt>
      <trkpt lat="45.70008" lon="6.89417">
        <ele>2014</ele>
        <time>2019-10-06T06:38:48Z</time>
      </trkpt>
      <trkpt lat="45.7001" lon="6.89419">
        <ele>2014</ele>
        <time>2019-10-06T06:38:49Z</time>
      </trkpt>
      <trkpt lat="45.70012" lon="6.89422">
        <ele>2014</ele>
        <time>2019-10-06T06:38:50Z</time>
      </trkpt>
      <trkpt lat="45.70014" lon="6.89425">
        <ele>2014</ele>
        <time>2019-10-06T06:38:51Z</time>
      </trkpt>
      <trkpt lat="45.70016" lon="6.89428">
        <ele>2012</ele>
        <time>2019-10-06T06:38:52Z</time>
      </trkpt>
      <trkpt lat="45.70018" lon="6.89431">
        <ele>2012</ele>
        <time>2019-10-06T06:38:53Z</time>
      </trkpt>
      <trkpt lat="45.7002" lon="6.89435">
        <ele>2012</ele>
        <time>2019-10-06T06:38:54Z</time>
      </trkpt>
      <trkpt lat="45.70021" lon="6.89438">
        <ele>2012</ele>
        <time>2019-10-06T06:38:55Z</time>
      </trkpt>
      <trkpt lat="45.70023" lon="6.89442">
        <ele>2011</ele>
        <time>2019-10-06T06:38:56Z</time>
      </trkpt>
      <trkpt lat="45.70025" lon="6.89445">
        <ele>2011</ele>
        <time>2019-10-06T06:38:57Z</time>
      </trkpt>
      <trkpt lat="45.70027" lon="6.89448">
        <ele>2011</ele>
        <time>2019-10-06T06:38:58Z</time>
      </trkpt>
      <trkpt lat="45.70029" lon="6.89451">
        <ele>2011</ele>
        <time>2019-10-06T06:38:59Z</time>
      </trkpt>
      <trkpt lat="45.70031" lon="6.89455">
        <ele>2011</ele>
        <time>2019-10-06T06:39:00Z</time>
      </trkpt>
      <trkpt lat="45.70034" lon="6.89457">
        <ele>2011</ele>
        <time>2019-10-06T06:39:01Z</time>
      </trkpt>
      <trkpt lat="45.70036" lon="6.8946">
        <ele>2011</ele>
        <time>2019-10-06T06:39:02Z</time>
      </trkpt>
      <trkpt lat="45.70039" lon="6.89463">
        <ele>2011</ele>
        <time>2019-10-06T06:39:03Z</time>
      </trkpt>
      <trkpt lat="45.70041" lon="6.89465">
        <ele>2011</ele>
        <time>2019-10-06T06:39:04Z</time>
      </trkpt>
      <trkpt lat="45.70044" lon="6.89467">
        <ele>2010</ele>
        <time>2019-10-06T06:39:05Z</time>
      </trkpt>
      <trkpt lat="45.70046" lon="6.89469">
        <ele>2010</ele>
        <time>2019-10-06T06:39:06Z</time>
      </trkpt>
      <trkpt lat="45.70049" lon="6.89471">
        <ele>2009</ele>
        <time>2019-10-06T06:39:07Z</time>
      </trkpt>
      <trkpt lat="45.70052" lon="6.89473">
        <ele>2008</ele>
        <time>2019-10-06T06:39:08Z</time>
      </trkpt>
      <trkpt lat="45.70054" lon="6.89475">
        <ele>2008</ele>
        <time>2019-10-06T06:39:09Z</time>
      </trkpt>
      <trkpt lat="45.70057" lon="6.89477">
        <ele>2008</ele>
        <time>2019-10-06T06:39:10Z</time>
      </trkpt>
      <trkpt lat="45.7006" lon="6.89478">
        <ele>2008</ele>
        <time>2019-10-06T06:39:11Z</time>
      </trkpt>
      <trkpt lat="45.70062" lon="6.8948">
        <ele>2008</ele>
        <time>2019-10-06T06:39:12Z</time>
      </trkpt>
      <trkpt lat="45.70065" lon="6.89482">
        <ele>2008</ele>
        <time>2019-10-06T06:39:13Z</time>
      </trkpt>
      <trkpt lat="45.70068" lon="6.89484">
        <ele>2008</ele>
        <time>2019-10-06T06:39:14Z</time>
      </trkpt>
      <trkpt lat="45.7007" lon="6.89485">
        <ele>2007</ele>
        <time>2019-10-06T06:39:15Z</time>
      </trkpt>
      <trkpt lat="45.70073" lon="6.89487">
        <ele>2007</ele>
        <time>2019-10-06T06:39:16Z</time>
      </trkpt>
      <trkpt lat="45.70076" lon="6.89489">
        <ele>2007</ele>
        <time>2019-10-06T06:39:17Z</time>
      </trkpt>
      <trkpt lat="45.70078" lon="6.89491">
        <ele>2007</ele>
        <time>2019-10-06T06:39:18Z</time>
      </trkpt>
      <trkpt lat="45.70081" lon="6.89493">
        <ele>2006</ele>
        <time>2019-10-06T06:39:19Z</time>
      </trkpt>
      <trkpt lat="45.70084" lon="6.89495">
        <ele>2006</ele>
        <time>2019-10-06T06:39:20Z</time>
      </trkpt>
      <trkpt lat="45.70086" lon="6.89497">
        <ele>2006</ele>
        <time>2019-10-06T06:39:21Z</time>
      </trkpt>
      <trkpt lat="45.70088" lon="6.89499">
        <ele>2006</ele>
        <time>2019-10-06T06:39:22Z</time>
      </trkpt>
      <trkpt lat="45.70091" lon="6.89501">
        <ele>2006</ele>
        <time>2019-10-06T06:39:23Z</time>
      </trkpt>
      <trkpt lat="45.70093" lon="6.89503">
        <ele>2006</ele>
        <time>2019-10-06T06:39:24Z</time>
      </trkpt>
      <trkpt lat="45.70096" lon="6.89506">
        <ele>2006</ele>
        <time>2019-10-06T06:39:25Z</time>
      </trkpt>
      <trkpt lat="45.70098" lon="6.89508">
        <ele>2005</ele>
        <time>2019-10-06T06:39:26Z</time>
      </trkpt>
      <trkpt lat="45.70101" lon="6.89511">
        <ele>2005</ele>
        <time>2019-10-06T06:39:27Z</time>
      </trkpt>
      <trkpt lat="45.70103" lon="6.89513">
        <ele>2005</ele>
        <time>2019-10-06T06:39:28Z</time>
      </trkpt>
      <trkpt lat="45.70105" lon="6.89516">
        <ele>2005</ele>
        <time>2019-10-06T06:39:29Z</time>
      </trkpt>
      <trkpt lat="45.70107" lon="6.89519">
        <ele>2005</ele>
        <time>2019-10-06T06:39:30Z</time>
      </trkpt>
      <trkpt lat="45.70109" lon="6.89523">
        <ele>2005</ele>
        <time>2019-10-06T06:39:31Z</time>
      </trkpt>
      <trkpt lat="45.7011" lon="6.89526">
        <ele>2005</ele>
        <time>2019-10-06T06:39:32Z</time>
      </trkpt>
      <trkpt lat="45.70112" lon="6.89529">
        <ele>2005</ele>
        <time>2019-10-06T06:39:33Z</time>
      </trkpt>
      <trkpt lat="45.70114" lon="6.89532">
        <ele>2005</ele>
        <time>2019-10-06T06:39:34Z</time>
      </trkpt>
      <trkpt lat="45.70115" lon="6.89536">
        <ele>2005</ele>
        <time>2019-10-06T06:39:35Z</time>
      </trkpt>
      <trkpt lat="45.70116" lon="6.8954">
        <ele>2004</ele>
        <time>2019-10-06T06:39:36Z</time>
      </trkpt>
      <trkpt lat="45.70117" lon="6.89544">
        <ele>2004</ele>
        <time>2019-10-06T06:39:37Z</time>
      </trkpt>
      <trkpt lat="45.70118" lon="6.89548">
        <ele>2004</ele>
        <time>2019-10-06T06:39:38Z</time>
      </trkpt>
      <trkpt lat="45.70119" lon="6.89552">
        <ele>2004</ele>
        <time>2019-10-06T06:39:39Z</time>
      </trkpt>
      <trkpt lat="45.7012" lon="6.89556">
        <ele>2004</ele>
        <time>2019-10-06T06:39:40Z</time>
      </trkpt>
      <trkpt lat="45.70121" lon="6.8956">
        <ele>2004</ele>
        <time>2019-10-06T06:39:41Z</time>
      </trkpt>
      <trkpt lat="45.70122" lon="6.89564">
        <ele>2004</ele>
        <time>2019-10-06T06:39:42Z</time>
      </trkpt>
      <trkpt lat="45.70122" lon="6.89568">
        <ele>2004</ele>
        <time>2019-10-06T06:39:43Z</time>
      </trkpt>
      <trkpt lat="45.70123" lon="6.89572">
        <ele>2004</ele>
        <time>2019-10-06T06:39:44Z</time>
      </trkpt>
      <trkpt lat="45.70124" lon="6.89577">
        <ele>2003</ele>
        <time>2019-10-06T06:39:45Z</time>
      </trkpt>
      <trkpt lat="45.70125" lon="6.89581">
        <ele>2003</ele>
        <time>2019-10-06T06:39:46Z</time>
      </trkpt>
      <trkpt lat="45.70126" lon="6.89585">
        <ele>2003</ele>
        <time>2019-10-06T06:39:47Z</time>
      </trkpt>
      <trkpt lat="45.70126" lon="6.8959">
        <ele>2003</ele>
        <time>2019-10-06T06:39:48Z</time>
      </trkpt>
      <trkpt lat="45.70127" lon="6.89594">
        <ele>2003</ele>
        <time>2019-10-06T06:39:49Z</time>
      </trkpt>
      <trkpt lat="45.70128" lon="6.89598">
        <ele>2002</ele>
        <time>2019-10-06T06:39:50Z</time>
      </trkpt>
      <trkpt lat="45.70129" lon="6.89602">
        <ele>2002</ele>
        <time>2019-10-06T06:39:51Z</time>
      </trkpt>
      <trkpt lat="45.70129" lon="6.89606">
        <ele>2001</ele>
        <time>2019-10-06T06:39:52Z</time>
      </trkpt>
      <trkpt lat="45.7013" lon="6.8961">
        <ele>2001</ele>
        <time>2019-10-06T06:39:53Z</time>
      </trkpt>
      <trkpt lat="45.70131" lon="6.89614">
        <ele>2001</ele>
        <time>2019-10-06T06:39:54Z</time>
      </trkpt>
      <trkpt lat="45.70133" lon="6.89618">
        <ele>2002</ele>
        <time>2019-10-06T06:39:55Z</time>
      </trkpt>
      <trkpt lat="45.70134" lon="6.89622">
        <ele>2002</ele>
        <time>2019-10-06T06:39:56Z</time>
      </trkpt>
      <trkpt lat="45.70134" lon="6.89626">
        <ele>2002</ele>
        <time>2019-10-06T06:39:57Z</time>
      </trkpt>
      <trkpt lat="45.70135" lon="6.8963">
        <ele>2002</ele>
        <time>2019-10-06T06:39:58Z</time>
      </trkpt>
      <trkpt lat="45.70136" lon="6.89634">
        <ele>2002</ele>
        <time>2019-10-06T06:39:59Z</time>
      </trkpt>
      <trkpt lat="45.70136" lon="6.89638">
        <ele>2001</ele>
        <time>2019-10-06T06:40:00Z</time>
      </trkpt>
      <trkpt lat="45.70137" lon="6.89642">
        <ele>2001</ele>
        <time>2019-10-06T06:40:01Z</time>
      </trkpt>
      <trkpt lat="45.70138" lon="6.89646">
        <ele>2001</ele>
        <time>2019-10-06T06:40:02Z</time>
      </trkpt>
      <trkpt lat="45.70139" lon="6.8965">
        <ele>2001</ele>
        <time>2019-10-06T06:40:03Z</time>
      </trkpt>
      <trkpt lat="45.7014" lon="6.89654">
        <ele>2001</ele>
        <time>2019-10-06T06:40:04Z</time>
      </trkpt>
      <trkpt lat="45.70141" lon="6.89658">
        <ele>2001</ele>
        <time>2019-10-06T06:40:05Z</time>
      </trkpt>
      <trkpt lat="45.70142" lon="6.89663">
        <ele>2001</ele>
        <time>2019-10-06T06:40:06Z</time>
      </trkpt>
      <trkpt lat="45.70142" lon="6.89667">
        <ele>2001</ele>
        <time>2019-10-06T06:40:07Z</time>
      </trkpt>
      <trkpt lat="45.70143" lon="6.89671">
        <ele>2001</ele>
        <time>2019-10-06T06:40:08Z</time>
      </trkpt>
      <trkpt lat="45.70144" lon="6.89675">
        <ele>2001</ele>
        <time>2019-10-06T06:40:09Z</time>
      </trkpt>
      <trkpt lat="45.70144" lon="6.89679">
        <ele>2001</ele>
        <time>2019-10-06T06:40:10Z</time>
      </trkpt>
      <trkpt lat="45.70145" lon="6.89683">
        <ele>2001</ele>
        <time>2019-10-06T06:40:11Z</time>
      </trkpt>
      <trkpt lat="45.70146" lon="6.89686">
        <ele>2001</ele>
        <time>2019-10-06T06:40:12Z</time>
      </trkpt>
      <trkpt lat="45.70146" lon="6.8969">
        <ele>2001</ele>
        <time>2019-10-06T06:40:13Z</time>
      </trkpt>
      <trkpt lat="45.70147" lon="6.89694">
        <ele>2001</ele>
        <time>2019-10-06T06:40:14Z</time>
      </trkpt>
      <trkpt lat="45.70147" lon="6.89698">
        <ele>2001</ele>
        <time>2019-10-06T06:40:15Z</time>
      </trkpt>
      <trkpt lat="45.70148" lon="6.89702">
        <ele>2001</ele>
        <time>2019-10-06T06:40:16Z</time>
      </trkpt>
      <trkpt lat="45.70149" lon="6.89706">
        <ele>2001</ele>
        <time>2019-10-06T06:40:17Z</time>
      </trkpt>
      <trkpt lat="45.70149" lon="6.8971">
        <ele>2000</ele>
        <time>2019-10-06T06:40:18Z</time>
      </trkpt>
      <trkpt lat="45.7015" lon="6.89713">
        <ele>2001</ele>
        <time>2019-10-06T06:40:19Z</time>
      </trkpt>
      <trkpt lat="45.70151" lon="6.89717">
        <ele>2001</ele>
        <time>2019-10-06T06:40:20Z</time>
      </trkpt>
      <trkpt lat="45.70153" lon="6.89721">
        <ele>2001</ele>
        <time>2019-10-06T06:40:21Z</time>
      </trkpt>
      <trkpt lat="45.70153" lon="6.89726">
        <ele>2001</ele>
        <time>2019-10-06T06:40:22Z</time>
      </trkpt>
      <trkpt lat="45.70154" lon="6.89729">
        <ele>2001</ele>
        <time>2019-10-06T06:40:23Z</time>
      </trkpt>
      <trkpt lat="45.70154" lon="6.89733">
        <ele>2001</ele>
        <time>2019-10-06T06:40:24Z</time>
      </trkpt>
      <trkpt lat="45.70154" lon="6.89738">
        <ele>2001</ele>
        <time>2019-10-06T06:40:25Z</time>
      </trkpt>
      <trkpt lat="45.70155" lon="6.89741">
        <ele>2001</ele>
        <time>2019-10-06T06:40:26Z</time>
      </trkpt>
      <trkpt lat="45.70155" lon="6.89745">
        <ele>2001</ele>
        <time>2019-10-06T06:40:27Z</time>
      </trkpt>
      <trkpt lat="45.70156" lon="6.89749">
        <ele>2001</ele>
        <time>2019-10-06T06:40:28Z</time>
      </trkpt>
      <trkpt lat="45.70157" lon="6.89752">
        <ele>2001</ele>
        <time>2019-10-06T06:40:29Z</time>
      </trkpt>
      <trkpt lat="45.70157" lon="6.89756">
        <ele>2001</ele>
        <time>2019-10-06T06:40:30Z</time>
      </trkpt>
      <trkpt lat="45.70158" lon="6.8976">
        <ele>2001</ele>
        <time>2019-10-06T06:40:31Z</time>
      </trkpt>
      <trkpt lat="45.70158" lon="6.89763">
        <ele>2001</ele>
        <time>2019-10-06T06:40:32Z</time>
      </trkpt>
      <trkpt lat="45.70159" lon="6.89767">
        <ele>2001</ele>
        <time>2019-10-06T06:40:33Z</time>
      </trkpt>
      <trkpt lat="45.7016" lon="6.89771">
        <ele>2001</ele>
        <time>2019-10-06T06:40:34Z</time>
      </trkpt>
      <trkpt lat="45.7016" lon="6.89774">
        <ele>2000</ele>
        <time>2019-10-06T06:40:35Z</time>
      </trkpt>
      <trkpt lat="45.70161" lon="6.89778">
        <ele>2000</ele>
        <time>2019-10-06T06:40:36Z</time>
      </trkpt>
      <trkpt lat="45.70161" lon="6.89781">
        <ele>2000</ele>
        <time>2019-10-06T06:40:37Z</time>
      </trkpt>
      <trkpt lat="45.70162" lon="6.89784">
        <ele>1999</ele>
        <time>2019-10-06T06:40:38Z</time>
      </trkpt>
      <trkpt lat="45.70163" lon="6.89787">
        <ele>1999</ele>
        <time>2019-10-06T06:40:39Z</time>
      </trkpt>
      <trkpt lat="45.70164" lon="6.89791">
        <ele>1998</ele>
        <time>2019-10-06T06:40:40Z</time>
      </trkpt>
      <trkpt lat="45.70165" lon="6.89794">
        <ele>1998</ele>
        <time>2019-10-06T06:40:41Z</time>
      </trkpt>
      <trkpt lat="45.70166" lon="6.89797">
        <ele>1998</ele>
        <time>2019-10-06T06:40:42Z</time>
      </trkpt>
      <trkpt lat="45.70166" lon="6.89801">
        <ele>1998</ele>
        <time>2019-10-06T06:40:43Z</time>
      </trkpt>
      <trkpt lat="45.70167" lon="6.89805">
        <ele>1998</ele>
        <time>2019-10-06T06:40:44Z</time>
      </trkpt>
      <trkpt lat="45.70168" lon="6.89808">
        <ele>1998</ele>
        <time>2019-10-06T06:40:45Z</time>
      </trkpt>
      <trkpt lat="45.7017" lon="6.89811">
        <ele>1998</ele>
        <time>2019-10-06T06:40:46Z</time>
      </trkpt>
      <trkpt lat="45.7017" lon="6.89815">
        <ele>1998</ele>
        <time>2019-10-06T06:40:47Z</time>
      </trkpt>
      <trkpt lat="45.70171" lon="6.89818">
        <ele>1998</ele>
        <time>2019-10-06T06:40:48Z</time>
      </trkpt>
      <trkpt lat="45.70172" lon="6.89822">
        <ele>1998</ele>
        <time>2019-10-06T06:40:49Z</time>
      </trkpt>
      <trkpt lat="45.70173" lon="6.89826">
        <ele>1997</ele>
        <time>2019-10-06T06:40:50Z</time>
      </trkpt>
      <trkpt lat="45.70175" lon="6.8983">
        <ele>1997</ele>
        <time>2019-10-06T06:40:51Z</time>
      </trkpt>
      <trkpt lat="45.70176" lon="6.89833">
        <ele>1997</ele>
        <time>2019-10-06T06:40:52Z</time>
      </trkpt>
      <trkpt lat="45.70178" lon="6.89837">
        <ele>1997</ele>
        <time>2019-10-06T06:40:53Z</time>
      </trkpt>
      <trkpt lat="45.70179" lon="6.8984">
        <ele>1997</ele>
        <time>2019-10-06T06:40:54Z</time>
      </trkpt>
      <trkpt lat="45.7018" lon="6.89843">
        <ele>1997</ele>
        <time>2019-10-06T06:40:55Z</time>
      </trkpt>
      <trkpt lat="45.70182" lon="6.89846">
        <ele>1997</ele>
        <time>2019-10-06T06:40:56Z</time>
      </trkpt>
      <trkpt lat="45.70184" lon="6.89849">
        <ele>1996</ele>
        <time>2019-10-06T06:40:57Z</time>
      </trkpt>
      <trkpt lat="45.70186" lon="6.89851">
        <ele>1996</ele>
        <time>2019-10-06T06:40:58Z</time>
      </trkpt>
      <trkpt lat="45.70188" lon="6.89853">
        <ele>1996</ele>
        <time>2019-10-06T06:40:59Z</time>
      </trkpt>
      <trkpt lat="45.70191" lon="6.89855">
        <ele>1995</ele>
        <time>2019-10-06T06:41:00Z</time>
      </trkpt>
      <trkpt lat="45.70194" lon="6.89857">
        <ele>1995</ele>
        <time>2019-10-06T06:41:01Z</time>
      </trkpt>
      <trkpt lat="45.70196" lon="6.89859">
        <ele>1995</ele>
        <time>2019-10-06T06:41:02Z</time>
      </trkpt>
      <trkpt lat="45.70199" lon="6.89861">
        <ele>1995</ele>
        <time>2019-10-06T06:41:03Z</time>
      </trkpt>
      <trkpt lat="45.70201" lon="6.89863">
        <ele>1995</ele>
        <time>2019-10-06T06:41:04Z</time>
      </trkpt>
      <trkpt lat="45.70204" lon="6.89865">
        <ele>1995</ele>
        <time>2019-10-06T06:41:05Z</time>
      </trkpt>
      <trkpt lat="45.70206" lon="6.89867">
        <ele>1995</ele>
        <time>2019-10-06T06:41:06Z</time>
      </trkpt>
      <trkpt lat="45.70209" lon="6.89869">
        <ele>1994</ele>
        <time>2019-10-06T06:41:07Z</time>
      </trkpt>
      <trkpt lat="45.70211" lon="6.8987">
        <ele>1993</ele>
        <time>2019-10-06T06:41:08Z</time>
      </trkpt>
      <trkpt lat="45.70213" lon="6.89872">
        <ele>1992</ele>
        <time>2019-10-06T06:41:09Z</time>
      </trkpt>
      <trkpt lat="45.70216" lon="6.89874">
        <ele>1992</ele>
        <time>2019-10-06T06:41:10Z</time>
      </trkpt>
      <trkpt lat="45.70218" lon="6.89875">
        <ele>1992</ele>
        <time>2019-10-06T06:41:11Z</time>
      </trkpt>
      <trkpt lat="45.7022" lon="6.89878">
        <ele>1991</ele>
        <time>2019-10-06T06:41:12Z</time>
      </trkpt>
      <trkpt lat="45.70222" lon="6.8988">
        <ele>1990</ele>
        <time>2019-10-06T06:41:13Z</time>
      </trkpt>
      <trkpt lat="45.70225" lon="6.89882">
        <ele>1990</ele>
        <time>2019-10-06T06:41:14Z</time>
      </trkpt>
      <trkpt lat="45.70227" lon="6.89883">
        <ele>1990</ele>
        <time>2019-10-06T06:41:15Z</time>
      </trkpt>
      <trkpt lat="45.7023" lon="6.89885">
        <ele>1990</ele>
        <time>2019-10-06T06:41:16Z</time>
      </trkpt>
      <trkpt lat="45.70232" lon="6.89886">
        <ele>1989</ele>
        <time>2019-10-06T06:41:17Z</time>
      </trkpt>
      <trkpt lat="45.70234" lon="6.89887">
        <ele>1988</ele>
        <time>2019-10-06T06:41:18Z</time>
      </trkpt>
      <trkpt lat="45.70237" lon="6.89888">
        <ele>1988</ele>
        <time>2019-10-06T06:41:19Z</time>
      </trkpt>
      <trkpt lat="45.70239" lon="6.89889">
        <ele>1988</ele>
        <time>2019-10-06T06:41:20Z</time>
      </trkpt>
      <trkpt lat="45.70241" lon="6.89888">
        <ele>1988</ele>
        <time>2019-10-06T06:41:21Z</time>
      </trkpt>
      <trkpt lat="45.70243" lon="6.89886">
        <ele>1986</ele>
        <time>2019-10-06T06:41:23Z</time>
      </trkpt>
      <trkpt lat="45.70243" lon="6.89886">
        <ele>1986</ele>
        <time>2019-10-06T06:41:26Z</time>
      </trkpt>
      <trkpt lat="45.70243" lon="6.89886">
        <ele>1986</ele>
        <time>2019-10-06T06:41:30Z</time>
      </trkpt>
      <trkpt lat="45.70243" lon="6.89886">
        <ele>1986</ele>
        <time>2019-10-06T06:41:34Z</time>
      </trkpt>
      <trkpt lat="45.70243" lon="6.89886">
        <ele>1986</ele>
        <time>2019-10-06T06:41:38Z</time>
      </trkpt>
      <trkpt lat="45.70243" lon="6.89886">
        <ele>1986</ele>
        <time>2019-10-06T06:41:42Z</time>
      </trkpt>
      <trkpt lat="45.70243" lon="6.89886">
        <ele>1986</ele>
        <time>2019-10-06T06:41:46Z</time>
      </trkpt>
      <trkpt lat="45.70243" lon="6.89886">
        <ele>1986</ele>
        <time>2019-10-06T06:41:50Z</time>
      </trkpt>
      <trkpt lat="45.70243" lon="6.89886">
        <ele>1986</ele>
        <time>2019-10-06T06:41:54Z</time>
      </trkpt>
      <trkpt lat="45.70243" lon="6.89886">
        <ele>1986</ele>
        <time>2019-10-06T06:41:58Z</time>
      </trkpt>
      <trkpt lat="45.70243" lon="6.89886">
        <ele>1986</ele>
        <time>2019-10-06T06:42:02Z</time>
      </trkpt>
      <trkpt lat="45.70244" lon="6.8989">
        <ele>1985</ele>
        <time>2019-10-06T06:42:05Z</time>
      </trkpt>
      <trkpt lat="45.70246" lon="6.89892">
        <ele>1985</ele>
        <time>2019-10-06T06:42:06Z</time>
      </trkpt>
      <trkpt lat="45.70248" lon="6.89895">
        <ele>1985</ele>
        <time>2019-10-06T06:42:07Z</time>
      </trkpt>
      <trkpt lat="45.70251" lon="6.89897">
        <ele>1985</ele>
        <time>2019-10-06T06:42:08Z</time>
      </trkpt>
      <trkpt lat="45.70254" lon="6.899">
        <ele>1985</ele>
        <time>2019-10-06T06:42:09Z</time>
      </trkpt>
      <trkpt lat="45.70256" lon="6.89903">
        <ele>1984</ele>
        <time>2019-10-06T06:42:10Z</time>
      </trkpt>
      <trkpt lat="45.70259" lon="6.89906">
        <ele>1984</ele>
        <time>2019-10-06T06:42:11Z</time>
      </trkpt>
      <trkpt lat="45.70261" lon="6.89909">
        <ele>1984</ele>
        <time>2019-10-06T06:42:12Z</time>
      </trkpt>
      <trkpt lat="45.70264" lon="6.89912">
        <ele>1984</ele>
        <time>2019-10-06T06:42:13Z</time>
      </trkpt>
      <trkpt lat="45.70267" lon="6.89914">
        <ele>1983</ele>
        <time>2019-10-06T06:42:14Z</time>
      </trkpt>
      <trkpt lat="45.7027" lon="6.89916">
        <ele>1982</ele>
        <time>2019-10-06T06:42:15Z</time>
      </trkpt>
      <trkpt lat="45.70273" lon="6.89919">
        <ele>1982</ele>
        <time>2019-10-06T06:42:16Z</time>
      </trkpt>
      <trkpt lat="45.70276" lon="6.89921">
        <ele>1981</ele>
        <time>2019-10-06T06:42:17Z</time>
      </trkpt>
      <trkpt lat="45.70279" lon="6.89924">
        <ele>1981</ele>
        <time>2019-10-06T06:42:18Z</time>
      </trkpt>
      <trkpt lat="45.70282" lon="6.89926">
        <ele>1980</ele>
        <time>2019-10-06T06:42:19Z</time>
      </trkpt>
      <trkpt lat="45.70285" lon="6.89929">
        <ele>1980</ele>
        <time>2019-10-06T06:42:20Z</time>
      </trkpt>
      <trkpt lat="45.70288" lon="6.89932">
        <ele>1980</ele>
        <time>2019-10-06T06:42:21Z</time>
      </trkpt>
      <trkpt lat="45.70291" lon="6.89934">
        <ele>1979</ele>
        <time>2019-10-06T06:42:22Z</time>
      </trkpt>
      <trkpt lat="45.70294" lon="6.89937">
        <ele>1978</ele>
        <time>2019-10-06T06:42:23Z</time>
      </trkpt>
      <trkpt lat="45.70297" lon="6.89939">
        <ele>1978</ele>
        <time>2019-10-06T06:42:24Z</time>
      </trkpt>
      <trkpt lat="45.703" lon="6.89941">
        <ele>1978</ele>
        <time>2019-10-06T06:42:25Z</time>
      </trkpt>
      <trkpt lat="45.70303" lon="6.89944">
        <ele>1978</ele>
        <time>2019-10-06T06:42:26Z</time>
      </trkpt>
      <trkpt lat="45.70306" lon="6.89946">
        <ele>1977</ele>
        <time>2019-10-06T06:42:27Z</time>
      </trkpt>
      <trkpt lat="45.70308" lon="6.89949">
        <ele>1976</ele>
        <time>2019-10-06T06:42:28Z</time>
      </trkpt>
      <trkpt lat="45.70311" lon="6.89951">
        <ele>1976</ele>
        <time>2019-10-06T06:42:29Z</time>
      </trkpt>
      <trkpt lat="45.70314" lon="6.89953">
        <ele>1976</ele>
        <time>2019-10-06T06:42:30Z</time>
      </trkpt>
      <trkpt lat="45.70316" lon="6.89956">
        <ele>1975</ele>
        <time>2019-10-06T06:42:31Z</time>
      </trkpt>
      <trkpt lat="45.70318" lon="6.89959">
        <ele>1975</ele>
        <time>2019-10-06T06:42:32Z</time>
      </trkpt>
      <trkpt lat="45.70319" lon="6.89962">
        <ele>1975</ele>
        <time>2019-10-06T06:42:33Z</time>
      </trkpt>
      <trkpt lat="45.70321" lon="6.89965">
        <ele>1974</ele>
        <time>2019-10-06T06:42:34Z</time>
      </trkpt>
      <trkpt lat="45.70324" lon="6.89969">
        <ele>1974</ele>
        <time>2019-10-06T06:42:35Z</time>
      </trkpt>
      <trkpt lat="45.70326" lon="6.89972">
        <ele>1973</ele>
        <time>2019-10-06T06:42:36Z</time>
      </trkpt>
      <trkpt lat="45.70328" lon="6.89977">
        <ele>1973</ele>
        <time>2019-10-06T06:42:37Z</time>
      </trkpt>
      <trkpt lat="45.7033" lon="6.89981">
        <ele>1972</ele>
        <time>2019-10-06T06:42:38Z</time>
      </trkpt>
      <trkpt lat="45.70332" lon="6.89985">
        <ele>1972</ele>
        <time>2019-10-06T06:42:39Z</time>
      </trkpt>
      <trkpt lat="45.70333" lon="6.89989">
        <ele>1972</ele>
        <time>2019-10-06T06:42:40Z</time>
      </trkpt>
      <trkpt lat="45.70335" lon="6.89992">
        <ele>1971</ele>
        <time>2019-10-06T06:42:41Z</time>
      </trkpt>
      <trkpt lat="45.70337" lon="6.89996">
        <ele>1971</ele>
        <time>2019-10-06T06:42:42Z</time>
      </trkpt>
      <trkpt lat="45.70339" lon="6.89999">
        <ele>1971</ele>
        <time>2019-10-06T06:42:43Z</time>
      </trkpt>
      <trkpt lat="45.70342" lon="6.90003">
        <ele>1971</ele>
        <time>2019-10-06T06:42:44Z</time>
      </trkpt>
      <trkpt lat="45.70344" lon="6.90006">
        <ele>1970</ele>
        <time>2019-10-06T06:42:45Z</time>
      </trkpt>
      <trkpt lat="45.70347" lon="6.90009">
        <ele>1969</ele>
        <time>2019-10-06T06:42:46Z</time>
      </trkpt>
      <trkpt lat="45.70349" lon="6.90012">
        <ele>1969</ele>
        <time>2019-10-06T06:42:47Z</time>
      </trkpt>
      <trkpt lat="45.70352" lon="6.90015">
        <ele>1969</ele>
        <time>2019-10-06T06:42:48Z</time>
      </trkpt>
      <trkpt lat="45.70354" lon="6.90018">
        <ele>1969</ele>
        <time>2019-10-06T06:42:49Z</time>
      </trkpt>
      <trkpt lat="45.70357" lon="6.90021">
        <ele>1968</ele>
        <time>2019-10-06T06:42:50Z</time>
      </trkpt>
      <trkpt lat="45.7036" lon="6.90024">
        <ele>1967</ele>
        <time>2019-10-06T06:42:51Z</time>
      </trkpt>
      <trkpt lat="45.70362" lon="6.90027">
        <ele>1967</ele>
        <time>2019-10-06T06:42:52Z</time>
      </trkpt>
      <trkpt lat="45.70364" lon="6.9003">
        <ele>1967</ele>
        <time>2019-10-06T06:42:53Z</time>
      </trkpt>
      <trkpt lat="45.70367" lon="6.90032">
        <ele>1967</ele>
        <time>2019-10-06T06:42:54Z</time>
      </trkpt>
      <trkpt lat="45.7037" lon="6.90034">
        <ele>1967</ele>
        <time>2019-10-06T06:42:55Z</time>
      </trkpt>
      <trkpt lat="45.70373" lon="6.90036">
        <ele>1967</ele>
        <time>2019-10-06T06:42:56Z</time>
      </trkpt>
      <trkpt lat="45.70376" lon="6.90038">
        <ele>1967</ele>
        <time>2019-10-06T06:42:57Z</time>
      </trkpt>
      <trkpt lat="45.70379" lon="6.90039">
        <ele>1964</ele>
        <time>2019-10-06T06:42:58Z</time>
      </trkpt>
      <trkpt lat="45.70381" lon="6.90041">
        <ele>1964</ele>
        <time>2019-10-06T06:42:59Z</time>
      </trkpt>
      <trkpt lat="45.70384" lon="6.90043">
        <ele>1964</ele>
        <time>2019-10-06T06:43:00Z</time>
      </trkpt>
      <trkpt lat="45.70387" lon="6.90044">
        <ele>1964</ele>
        <time>2019-10-06T06:43:01Z</time>
      </trkpt>
      <trkpt lat="45.70389" lon="6.90046">
        <ele>1964</ele>
        <time>2019-10-06T06:43:02Z</time>
      </trkpt>
      <trkpt lat="45.70392" lon="6.90048">
        <ele>1964</ele>
        <time>2019-10-06T06:43:03Z</time>
      </trkpt>
      <trkpt lat="45.70394" lon="6.9005">
        <ele>1964</ele>
        <time>2019-10-06T06:43:04Z</time>
      </trkpt>
      <trkpt lat="45.70397" lon="6.90052">
        <ele>1964</ele>
        <time>2019-10-06T06:43:05Z</time>
      </trkpt>
      <trkpt lat="45.70399" lon="6.90054">
        <ele>1963</ele>
        <time>2019-10-06T06:43:06Z</time>
      </trkpt>
      <trkpt lat="45.70402" lon="6.90056">
        <ele>1963</ele>
        <time>2019-10-06T06:43:07Z</time>
      </trkpt>
      <trkpt lat="45.70404" lon="6.90058">
        <ele>1963</ele>
        <time>2019-10-06T06:43:08Z</time>
      </trkpt>
      <trkpt lat="45.70407" lon="6.90061">
        <ele>1962</ele>
        <time>2019-10-06T06:43:09Z</time>
      </trkpt>
      <trkpt lat="45.70409" lon="6.90064">
        <ele>1962</ele>
        <time>2019-10-06T06:43:10Z</time>
      </trkpt>
      <trkpt lat="45.70412" lon="6.90066">
        <ele>1960</ele>
        <time>2019-10-06T06:43:11Z</time>
      </trkpt>
      <trkpt lat="45.70414" lon="6.90069">
        <ele>1959</ele>
        <time>2019-10-06T06:43:12Z</time>
      </trkpt>
      <trkpt lat="45.70417" lon="6.90071">
        <ele>1959</ele>
        <time>2019-10-06T06:43:13Z</time>
      </trkpt>
      <trkpt lat="45.7042" lon="6.90072">
        <ele>1959</ele>
        <time>2019-10-06T06:43:14Z</time>
      </trkpt>
      <trkpt lat="45.70422" lon="6.90074">
        <ele>1958</ele>
        <time>2019-10-06T06:43:15Z</time>
      </trkpt>
      <trkpt lat="45.70425" lon="6.90076">
        <ele>1958</ele>
        <time>2019-10-06T06:43:16Z</time>
      </trkpt>
      <trkpt lat="45.70427" lon="6.90078">
        <ele>1958</ele>
        <time>2019-10-06T06:43:17Z</time>
      </trkpt>
      <trkpt lat="45.7043" lon="6.90079">
        <ele>1957</ele>
        <time>2019-10-06T06:43:18Z</time>
      </trkpt>
      <trkpt lat="45.70432" lon="6.90081">
        <ele>1957</ele>
        <time>2019-10-06T06:43:19Z</time>
      </trkpt>
      <trkpt lat="45.70436" lon="6.90082">
        <ele>1957</ele>
        <time>2019-10-06T06:43:20Z</time>
      </trkpt>
      <trkpt lat="45.70439" lon="6.90084">
        <ele>1956</ele>
        <time>2019-10-06T06:43:21Z</time>
      </trkpt>
      <trkpt lat="45.70441" lon="6.90085">
        <ele>1956</ele>
        <time>2019-10-06T06:43:22Z</time>
      </trkpt>
      <trkpt lat="45.70444" lon="6.90087">
        <ele>1956</ele>
        <time>2019-10-06T06:43:23Z</time>
      </trkpt>
      <trkpt lat="45.70446" lon="6.90089">
        <ele>1956</ele>
        <time>2019-10-06T06:43:24Z</time>
      </trkpt>
      <trkpt lat="45.70449" lon="6.90091">
        <ele>1956</ele>
        <time>2019-10-06T06:43:25Z</time>
      </trkpt>
      <trkpt lat="45.70452" lon="6.90094">
        <ele>1956</ele>
        <time>2019-10-06T06:43:26Z</time>
      </trkpt>
      <trkpt lat="45.70455" lon="6.90097">
        <ele>1956</ele>
        <time>2019-10-06T06:43:27Z</time>
      </trkpt>
      <trkpt lat="45.70457" lon="6.901">
        <ele>1955</ele>
        <time>2019-10-06T06:43:28Z</time>
      </trkpt>
      <trkpt lat="45.70459" lon="6.90104">
        <ele>1954</ele>
        <time>2019-10-06T06:43:29Z</time>
      </trkpt>
      <trkpt lat="45.70461" lon="6.90108">
        <ele>1954</ele>
        <time>2019-10-06T06:43:30Z</time>
      </trkpt>
      <trkpt lat="45.70464" lon="6.90112">
        <ele>1954</ele>
        <time>2019-10-06T06:43:31Z</time>
      </trkpt>
      <trkpt lat="45.70466" lon="6.90116">
        <ele>1954</ele>
        <time>2019-10-06T06:43:32Z</time>
      </trkpt>
      <trkpt lat="45.70468" lon="6.9012">
        <ele>1954</ele>
        <time>2019-10-06T06:43:33Z</time>
      </trkpt>
      <trkpt lat="45.70471" lon="6.90123">
        <ele>1953</ele>
        <time>2019-10-06T06:43:34Z</time>
      </trkpt>
      <trkpt lat="45.70473" lon="6.90126">
        <ele>1953</ele>
        <time>2019-10-06T06:43:35Z</time>
      </trkpt>
      <trkpt lat="45.70475" lon="6.90129">
        <ele>1953</ele>
        <time>2019-10-06T06:43:36Z</time>
      </trkpt>
      <trkpt lat="45.70478" lon="6.90133">
        <ele>1953</ele>
        <time>2019-10-06T06:43:37Z</time>
      </trkpt>
      <trkpt lat="45.7048" lon="6.90136">
        <ele>1952</ele>
        <time>2019-10-06T06:43:38Z</time>
      </trkpt>
      <trkpt lat="45.70482" lon="6.90139">
        <ele>1952</ele>
        <time>2019-10-06T06:43:39Z</time>
      </trkpt>
      <trkpt lat="45.70484" lon="6.90142">
        <ele>1951</ele>
        <time>2019-10-06T06:43:40Z</time>
      </trkpt>
      <trkpt lat="45.70486" lon="6.90145">
        <ele>1951</ele>
        <time>2019-10-06T06:43:41Z</time>
      </trkpt>
      <trkpt lat="45.70489" lon="6.90147">
        <ele>1951</ele>
        <time>2019-10-06T06:43:42Z</time>
      </trkpt>
      <trkpt lat="45.70491" lon="6.9015">
        <ele>1951</ele>
        <time>2019-10-06T06:43:43Z</time>
      </trkpt>
      <trkpt lat="45.70493" lon="6.90152">
        <ele>1951</ele>
        <time>2019-10-06T06:43:44Z</time>
      </trkpt>
      <trkpt lat="45.70495" lon="6.90155">
        <ele>1951</ele>
        <time>2019-10-06T06:43:45Z</time>
      </trkpt>
      <trkpt lat="45.70497" lon="6.90158">
        <ele>1951</ele>
        <time>2019-10-06T06:43:46Z</time>
      </trkpt>
      <trkpt lat="45.70498" lon="6.9016">
        <ele>1951</ele>
        <time>2019-10-06T06:43:47Z</time>
      </trkpt>
      <trkpt lat="45.705" lon="6.90163">
        <ele>1951</ele>
        <time>2019-10-06T06:43:48Z</time>
      </trkpt>
      <trkpt lat="45.70502" lon="6.90166">
        <ele>1951</ele>
        <time>2019-10-06T06:43:49Z</time>
      </trkpt>
      <trkpt lat="45.70504" lon="6.90168">
        <ele>1951</ele>
        <time>2019-10-06T06:43:50Z</time>
      </trkpt>
      <trkpt lat="45.70507" lon="6.90171">
        <ele>1951</ele>
        <time>2019-10-06T06:43:51Z</time>
      </trkpt>
      <trkpt lat="45.70509" lon="6.90174">
        <ele>1951</ele>
        <time>2019-10-06T06:43:52Z</time>
      </trkpt>
      <trkpt lat="45.70511" lon="6.90177">
        <ele>1951</ele>
        <time>2019-10-06T06:43:53Z</time>
      </trkpt>
      <trkpt lat="45.70513" lon="6.90179">
        <ele>1951</ele>
        <time>2019-10-06T06:43:54Z</time>
      </trkpt>
      <trkpt lat="45.70515" lon="6.90182">
        <ele>1951</ele>
        <time>2019-10-06T06:43:55Z</time>
      </trkpt>
      <trkpt lat="45.70517" lon="6.90184">
        <ele>1952</ele>
        <time>2019-10-06T06:43:56Z</time>
      </trkpt>
      <trkpt lat="45.70519" lon="6.90187">
        <ele>1952</ele>
        <time>2019-10-06T06:43:57Z</time>
      </trkpt>
      <trkpt lat="45.70521" lon="6.90189">
        <ele>1952</ele>
        <time>2019-10-06T06:43:58Z</time>
      </trkpt>
      <trkpt lat="45.70522" lon="6.90191">
        <ele>1952</ele>
        <time>2019-10-06T06:43:59Z</time>
      </trkpt>
      <trkpt lat="45.70524" lon="6.90193">
        <ele>1952</ele>
        <time>2019-10-06T06:44:00Z</time>
      </trkpt>
      <trkpt lat="45.70525" lon="6.90195">
        <ele>1952</ele>
        <time>2019-10-06T06:44:01Z</time>
      </trkpt>
      <trkpt lat="45.70528" lon="6.90199">
        <ele>1952</ele>
        <time>2019-10-06T06:44:03Z</time>
      </trkpt>
      <trkpt lat="45.70529" lon="6.90201">
        <ele>1952</ele>
        <time>2019-10-06T06:44:04Z</time>
      </trkpt>
      <trkpt lat="45.70531" lon="6.90204">
        <ele>1953</ele>
        <time>2019-10-06T06:44:05Z</time>
      </trkpt>
      <trkpt lat="45.70532" lon="6.90206">
        <ele>1953</ele>
        <time>2019-10-06T06:44:06Z</time>
      </trkpt>
      <trkpt lat="45.70534" lon="6.90208">
        <ele>1953</ele>
        <time>2019-10-06T06:44:07Z</time>
      </trkpt>
      <trkpt lat="45.70536" lon="6.90212">
        <ele>1953</ele>
        <time>2019-10-06T06:44:09Z</time>
      </trkpt>
      <trkpt lat="45.70538" lon="6.90214">
        <ele>1954</ele>
        <time>2019-10-06T06:44:10Z</time>
      </trkpt>
      <trkpt lat="45.70539" lon="6.90216">
        <ele>1954</ele>
        <time>2019-10-06T06:44:11Z</time>
      </trkpt>
      <trkpt lat="45.70541" lon="6.90218">
        <ele>1954</ele>
        <time>2019-10-06T06:44:12Z</time>
      </trkpt>
      <trkpt lat="45.70543" lon="6.9022">
        <ele>1955</ele>
        <time>2019-10-06T06:44:13Z</time>
      </trkpt>
      <trkpt lat="45.70544" lon="6.90222">
        <ele>1955</ele>
        <time>2019-10-06T06:44:14Z</time>
      </trkpt>
      <trkpt lat="45.70545" lon="6.90225">
        <ele>1955</ele>
        <time>2019-10-06T06:44:15Z</time>
      </trkpt>
      <trkpt lat="45.70546" lon="6.90227">
        <ele>1955</ele>
        <time>2019-10-06T06:44:16Z</time>
      </trkpt>
      <trkpt lat="45.70548" lon="6.90231">
        <ele>1955</ele>
        <time>2019-10-06T06:44:18Z</time>
      </trkpt>
      <trkpt lat="45.7055" lon="6.90232">
        <ele>1956</ele>
        <time>2019-10-06T06:44:19Z</time>
      </trkpt>
      <trkpt lat="45.70552" lon="6.90236">
        <ele>1956</ele>
        <time>2019-10-06T06:44:21Z</time>
      </trkpt>
      <trkpt lat="45.70554" lon="6.90239">
        <ele>1956</ele>
        <time>2019-10-06T06:44:23Z</time>
      </trkpt>
      <trkpt lat="45.70556" lon="6.90242">
        <ele>1956</ele>
        <time>2019-10-06T06:44:25Z</time>
      </trkpt>
      <trkpt lat="45.70558" lon="6.90246">
        <ele>1956</ele>
        <time>2019-10-06T06:44:27Z</time>
      </trkpt>
      <trkpt lat="45.7056" lon="6.90249">
        <ele>1957</ele>
        <time>2019-10-06T06:44:29Z</time>
      </trkpt>
      <trkpt lat="45.70562" lon="6.90252">
        <ele>1957</ele>
        <time>2019-10-06T06:44:31Z</time>
      </trkpt>
      <trkpt lat="45.70565" lon="6.90255">
        <ele>1957</ele>
        <time>2019-10-06T06:44:33Z</time>
      </trkpt>
      <trkpt lat="45.70567" lon="6.90258">
        <ele>1958</ele>
        <time>2019-10-06T06:44:35Z</time>
      </trkpt>
      <trkpt lat="45.70569" lon="6.9026">
        <ele>1959</ele>
        <time>2019-10-06T06:44:37Z</time>
      </trkpt>
      <trkpt lat="45.70572" lon="6.90262">
        <ele>1960</ele>
        <time>2019-10-06T06:44:39Z</time>
      </trkpt>
      <trkpt lat="45.70575" lon="6.90263">
        <ele>1960</ele>
        <time>2019-10-06T06:44:41Z</time>
      </trkpt>
      <trkpt lat="45.70578" lon="6.90265">
        <ele>1960</ele>
        <time>2019-10-06T06:44:43Z</time>
      </trkpt>
      <trkpt lat="45.70581" lon="6.90266">
        <ele>1960</ele>
        <time>2019-10-06T06:44:45Z</time>
      </trkpt>
      <trkpt lat="45.70584" lon="6.90268">
        <ele>1960</ele>
        <time>2019-10-06T06:44:47Z</time>
      </trkpt>
      <trkpt lat="45.70586" lon="6.90268">
        <ele>1962</ele>
        <time>2019-10-06T06:44:49Z</time>
      </trkpt>
      <trkpt lat="45.70589" lon="6.9027">
        <ele>1962</ele>
        <time>2019-10-06T06:44:51Z</time>
      </trkpt>
      <trkpt lat="45.70592" lon="6.9027">
        <ele>1962</ele>
        <time>2019-10-06T06:44:53Z</time>
      </trkpt>
      <trkpt lat="45.70594" lon="6.90272">
        <ele>1963</ele>
        <time>2019-10-06T06:44:55Z</time>
      </trkpt>
      <trkpt lat="45.70597" lon="6.90273">
        <ele>1964</ele>
        <time>2019-10-06T06:44:57Z</time>
      </trkpt>
      <trkpt lat="45.70599" lon="6.90274">
        <ele>1964</ele>
        <time>2019-10-06T06:44:59Z</time>
      </trkpt>
      <trkpt lat="45.70601" lon="6.90276">
        <ele>1964</ele>
        <time>2019-10-06T06:45:01Z</time>
      </trkpt>
      <trkpt lat="45.70603" lon="6.90277">
        <ele>1965</ele>
        <time>2019-10-06T06:45:03Z</time>
      </trkpt>
      <trkpt lat="45.70606" lon="6.90278">
        <ele>1966</ele>
        <time>2019-10-06T06:45:05Z</time>
      </trkpt>
      <trkpt lat="45.70609" lon="6.9028">
        <ele>1966</ele>
        <time>2019-10-06T06:45:07Z</time>
      </trkpt>
      <trkpt lat="45.70611" lon="6.90282">
        <ele>1966</ele>
        <time>2019-10-06T06:45:09Z</time>
      </trkpt>
      <trkpt lat="45.70614" lon="6.90283">
        <ele>1966</ele>
        <time>2019-10-06T06:45:11Z</time>
      </trkpt>
      <trkpt lat="45.70616" lon="6.90285">
        <ele>1966</ele>
        <time>2019-10-06T06:45:13Z</time>
      </trkpt>
      <trkpt lat="45.7062" lon="6.90287">
        <ele>1967</ele>
        <time>2019-10-06T06:45:15Z</time>
      </trkpt>
      <trkpt lat="45.70622" lon="6.90288">
        <ele>1968</ele>
        <time>2019-10-06T06:45:16Z</time>
      </trkpt>
      <trkpt lat="45.70623" lon="6.90289">
        <ele>1968</ele>
        <time>2019-10-06T06:45:17Z</time>
      </trkpt>
      <trkpt lat="45.70626" lon="6.90293">
        <ele>1968</ele>
        <time>2019-10-06T06:45:19Z</time>
      </trkpt>
      <trkpt lat="45.70628" lon="6.90296">
        <ele>1969</ele>
        <time>2019-10-06T06:45:21Z</time>
      </trkpt>
      <trkpt lat="45.70631" lon="6.90299">
        <ele>1969</ele>
        <time>2019-10-06T06:45:23Z</time>
      </trkpt>
      <trkpt lat="45.70633" lon="6.90302">
        <ele>1970</ele>
        <time>2019-10-06T06:45:25Z</time>
      </trkpt>
      <trkpt lat="45.70635" lon="6.90305">
        <ele>1970</ele>
        <time>2019-10-06T06:45:27Z</time>
      </trkpt>
      <trkpt lat="45.70636" lon="6.90307">
        <ele>1970</ele>
        <time>2019-10-06T06:45:28Z</time>
      </trkpt>
      <trkpt lat="45.70637" lon="6.90309">
        <ele>1970</ele>
        <time>2019-10-06T06:45:29Z</time>
      </trkpt>
      <trkpt lat="45.70639" lon="6.90313">
        <ele>1970</ele>
        <time>2019-10-06T06:45:31Z</time>
      </trkpt>
      <trkpt lat="45.70641" lon="6.90317">
        <ele>1970</ele>
        <time>2019-10-06T06:45:33Z</time>
      </trkpt>
      <trkpt lat="45.70642" lon="6.90319">
        <ele>1971</ele>
        <time>2019-10-06T06:45:34Z</time>
      </trkpt>
      <trkpt lat="45.70645" lon="6.90322">
        <ele>1971</ele>
        <time>2019-10-06T06:45:36Z</time>
      </trkpt>
      <trkpt lat="45.70647" lon="6.90326">
        <ele>1971</ele>
        <time>2019-10-06T06:45:38Z</time>
      </trkpt>
      <trkpt lat="45.70648" lon="6.90329">
        <ele>1971</ele>
        <time>2019-10-06T06:45:40Z</time>
      </trkpt>
      <trkpt lat="45.7065" lon="6.90333">
        <ele>1971</ele>
        <time>2019-10-06T06:45:42Z</time>
      </trkpt>
      <trkpt lat="45.70652" lon="6.90337">
        <ele>1971</ele>
        <time>2019-10-06T06:45:44Z</time>
      </trkpt>
      <trkpt lat="45.70654" lon="6.9034">
        <ele>1973</ele>
        <time>2019-10-06T06:45:46Z</time>
      </trkpt>
      <trkpt lat="45.70656" lon="6.90343">
        <ele>1974</ele>
        <time>2019-10-06T06:45:48Z</time>
      </trkpt>
      <trkpt lat="45.70658" lon="6.90346">
        <ele>1974</ele>
        <time>2019-10-06T06:45:50Z</time>
      </trkpt>
      <trkpt lat="45.7066" lon="6.90349">
        <ele>1974</ele>
        <time>2019-10-06T06:45:52Z</time>
      </trkpt>
      <trkpt lat="45.70662" lon="6.90351">
        <ele>1975</ele>
        <time>2019-10-06T06:45:54Z</time>
      </trkpt>
      <trkpt lat="45.70664" lon="6.90353">
        <ele>1975</ele>
        <time>2019-10-06T06:45:56Z</time>
      </trkpt>
      <trkpt lat="45.70666" lon="6.90355">
        <ele>1975</ele>
        <time>2019-10-06T06:45:58Z</time>
      </trkpt>
      <trkpt lat="45.70669" lon="6.90358">
        <ele>1975</ele>
        <time>2019-10-06T06:46:00Z</time>
      </trkpt>
      <trkpt lat="45.70671" lon="6.9036">
        <ele>1975</ele>
        <time>2019-10-06T06:46:02Z</time>
      </trkpt>
      <trkpt lat="45.70673" lon="6.90363">
        <ele>1976</ele>
        <time>2019-10-06T06:46:04Z</time>
      </trkpt>
      <trkpt lat="45.70675" lon="6.90365">
        <ele>1976</ele>
        <time>2019-10-06T06:46:06Z</time>
      </trkpt>
      <trkpt lat="45.70677" lon="6.90368">
        <ele>1976</ele>
        <time>2019-10-06T06:46:08Z</time>
      </trkpt>
      <trkpt lat="45.70679" lon="6.90371">
        <ele>1977</ele>
        <time>2019-10-06T06:46:10Z</time>
      </trkpt>
      <trkpt lat="45.70681" lon="6.90374">
        <ele>1978</ele>
        <time>2019-10-06T06:46:12Z</time>
      </trkpt>
      <trkpt lat="45.70682" lon="6.90377">
        <ele>1979</ele>
        <time>2019-10-06T06:46:14Z</time>
      </trkpt>
      <trkpt lat="45.70684" lon="6.90381">
        <ele>1979</ele>
        <time>2019-10-06T06:46:16Z</time>
      </trkpt>
      <trkpt lat="45.70686" lon="6.90385">
        <ele>1979</ele>
        <time>2019-10-06T06:46:18Z</time>
      </trkpt>
      <trkpt lat="45.70687" lon="6.90388">
        <ele>1980</ele>
        <time>2019-10-06T06:46:20Z</time>
      </trkpt>
      <trkpt lat="45.70689" lon="6.90392">
        <ele>1981</ele>
        <time>2019-10-06T06:46:22Z</time>
      </trkpt>
      <trkpt lat="45.7069" lon="6.90396">
        <ele>1981</ele>
        <time>2019-10-06T06:46:24Z</time>
      </trkpt>
      <trkpt lat="45.70691" lon="6.904">
        <ele>1981</ele>
        <time>2019-10-06T06:46:26Z</time>
      </trkpt>
      <trkpt lat="45.70693" lon="6.90404">
        <ele>1981</ele>
        <time>2019-10-06T06:46:28Z</time>
      </trkpt>
      <trkpt lat="45.70694" lon="6.90408">
        <ele>1981</ele>
        <time>2019-10-06T06:46:30Z</time>
      </trkpt>
      <trkpt lat="45.70695" lon="6.90411">
        <ele>1982</ele>
        <time>2019-10-06T06:46:32Z</time>
      </trkpt>
      <trkpt lat="45.70696" lon="6.90415">
        <ele>1982</ele>
        <time>2019-10-06T06:46:34Z</time>
      </trkpt>
      <trkpt lat="45.70698" lon="6.9042">
        <ele>1983</ele>
        <time>2019-10-06T06:46:36Z</time>
      </trkpt>
      <trkpt lat="45.70698" lon="6.90424">
        <ele>1983</ele>
        <time>2019-10-06T06:46:37Z</time>
      </trkpt>
      <trkpt lat="45.70698" lon="6.90427">
        <ele>1983</ele>
        <time>2019-10-06T06:46:38Z</time>
      </trkpt>
      <trkpt lat="45.70699" lon="6.9043">
        <ele>1983</ele>
        <time>2019-10-06T06:46:39Z</time>
      </trkpt>
      <trkpt lat="45.70699" lon="6.90433">
        <ele>1983</ele>
        <time>2019-10-06T06:46:40Z</time>
      </trkpt>
      <trkpt lat="45.70699" lon="6.90437">
        <ele>1983</ele>
        <time>2019-10-06T06:46:41Z</time>
      </trkpt>
      <trkpt lat="45.70699" lon="6.9044">
        <ele>1984</ele>
        <time>2019-10-06T06:46:42Z</time>
      </trkpt>
      <trkpt lat="45.70699" lon="6.90443">
        <ele>1984</ele>
        <time>2019-10-06T06:46:43Z</time>
      </trkpt>
      <trkpt lat="45.707" lon="6.90446">
        <ele>1984</ele>
        <time>2019-10-06T06:46:44Z</time>
      </trkpt>
      <trkpt lat="45.707" lon="6.9045">
        <ele>1984</ele>
        <time>2019-10-06T06:46:45Z</time>
      </trkpt>
      <trkpt lat="45.70701" lon="6.90454">
        <ele>1984</ele>
        <time>2019-10-06T06:46:46Z</time>
      </trkpt>
      <trkpt lat="45.70701" lon="6.90457">
        <ele>1984</ele>
        <time>2019-10-06T06:46:47Z</time>
      </trkpt>
      <trkpt lat="45.70701" lon="6.90461">
        <ele>1984</ele>
        <time>2019-10-06T06:46:48Z</time>
      </trkpt>
      <trkpt lat="45.70702" lon="6.90464">
        <ele>1984</ele>
        <time>2019-10-06T06:46:49Z</time>
      </trkpt>
      <trkpt lat="45.70703" lon="6.90468">
        <ele>1984</ele>
        <time>2019-10-06T06:46:50Z</time>
      </trkpt>
      <trkpt lat="45.70704" lon="6.90471">
        <ele>1984</ele>
        <time>2019-10-06T06:46:51Z</time>
      </trkpt>
      <trkpt lat="45.70704" lon="6.90474">
        <ele>1984</ele>
        <time>2019-10-06T06:46:52Z</time>
      </trkpt>
      <trkpt lat="45.70705" lon="6.90478">
        <ele>1984</ele>
        <time>2019-10-06T06:46:53Z</time>
      </trkpt>
      <trkpt lat="45.70706" lon="6.90482">
        <ele>1983</ele>
        <time>2019-10-06T06:46:54Z</time>
      </trkpt>
      <trkpt lat="45.70707" lon="6.90485">
        <ele>1983</ele>
        <time>2019-10-06T06:46:55Z</time>
      </trkpt>
      <trkpt lat="45.70709" lon="6.90489">
        <ele>1983</ele>
        <time>2019-10-06T06:46:56Z</time>
      </trkpt>
      <trkpt lat="45.7071" lon="6.90493">
        <ele>1983</ele>
        <time>2019-10-06T06:46:57Z</time>
      </trkpt>
      <trkpt lat="45.70711" lon="6.90497">
        <ele>1983</ele>
        <time>2019-10-06T06:46:58Z</time>
      </trkpt>
      <trkpt lat="45.70711" lon="6.90501">
        <ele>1983</ele>
        <time>2019-10-06T06:46:59Z</time>
      </trkpt>
      <trkpt lat="45.70712" lon="6.90505">
        <ele>1983</ele>
        <time>2019-10-06T06:47:00Z</time>
      </trkpt>
      <trkpt lat="45.70713" lon="6.90509">
        <ele>1983</ele>
        <time>2019-10-06T06:47:01Z</time>
      </trkpt>
      <trkpt lat="45.70714" lon="6.90513">
        <ele>1983</ele>
        <time>2019-10-06T06:47:02Z</time>
      </trkpt>
      <trkpt lat="45.70715" lon="6.90517">
        <ele>1983</ele>
        <time>2019-10-06T06:47:03Z</time>
      </trkpt>
      <trkpt lat="45.70716" lon="6.90521">
        <ele>1983</ele>
        <time>2019-10-06T06:47:04Z</time>
      </trkpt>
      <trkpt lat="45.70717" lon="6.90525">
        <ele>1983</ele>
        <time>2019-10-06T06:47:05Z</time>
      </trkpt>
      <trkpt lat="45.70718" lon="6.90529">
        <ele>1983</ele>
        <time>2019-10-06T06:47:06Z</time>
      </trkpt>
      <trkpt lat="45.70719" lon="6.90532">
        <ele>1982</ele>
        <time>2019-10-06T06:47:07Z</time>
      </trkpt>
      <trkpt lat="45.70721" lon="6.90536">
        <ele>1982</ele>
        <time>2019-10-06T06:47:08Z</time>
      </trkpt>
      <trkpt lat="45.70721" lon="6.9054">
        <ele>1982</ele>
        <time>2019-10-06T06:47:09Z</time>
      </trkpt>
      <trkpt lat="45.70723" lon="6.90544">
        <ele>1982</ele>
        <time>2019-10-06T06:47:10Z</time>
      </trkpt>
      <trkpt lat="45.70724" lon="6.90548">
        <ele>1982</ele>
        <time>2019-10-06T06:47:11Z</time>
      </trkpt>
      <trkpt lat="45.70725" lon="6.90552">
        <ele>1982</ele>
        <time>2019-10-06T06:47:12Z</time>
      </trkpt>
      <trkpt lat="45.70727" lon="6.90556">
        <ele>1982</ele>
        <time>2019-10-06T06:47:13Z</time>
      </trkpt>
      <trkpt lat="45.70728" lon="6.9056">
        <ele>1982</ele>
        <time>2019-10-06T06:47:14Z</time>
      </trkpt>
      <trkpt lat="45.7073" lon="6.90563">
        <ele>1982</ele>
        <time>2019-10-06T06:47:15Z</time>
      </trkpt>
      <trkpt lat="45.70732" lon="6.90567">
        <ele>1982</ele>
        <time>2019-10-06T06:47:16Z</time>
      </trkpt>
      <trkpt lat="45.70733" lon="6.90571">
        <ele>1981</ele>
        <time>2019-10-06T06:47:17Z</time>
      </trkpt>
      <trkpt lat="45.70735" lon="6.90574">
        <ele>1981</ele>
        <time>2019-10-06T06:47:18Z</time>
      </trkpt>
      <trkpt lat="45.70738" lon="6.90577">
        <ele>1981</ele>
        <time>2019-10-06T06:47:19Z</time>
      </trkpt>
      <trkpt lat="45.7074" lon="6.90581">
        <ele>1980</ele>
        <time>2019-10-06T06:47:20Z</time>
      </trkpt>
      <trkpt lat="45.70741" lon="6.90584">
        <ele>1980</ele>
        <time>2019-10-06T06:47:21Z</time>
      </trkpt>
      <trkpt lat="45.70743" lon="6.90589">
        <ele>1980</ele>
        <time>2019-10-06T06:47:22Z</time>
      </trkpt>
      <trkpt lat="45.70744" lon="6.90593">
        <ele>1980</ele>
        <time>2019-10-06T06:47:23Z</time>
      </trkpt>
      <trkpt lat="45.70745" lon="6.90598">
        <ele>1980</ele>
        <time>2019-10-06T06:47:24Z</time>
      </trkpt>
      <trkpt lat="45.70746" lon="6.90602">
        <ele>1980</ele>
        <time>2019-10-06T06:47:25Z</time>
      </trkpt>
      <trkpt lat="45.70747" lon="6.90606">
        <ele>1979</ele>
        <time>2019-10-06T06:47:26Z</time>
      </trkpt>
      <trkpt lat="45.70749" lon="6.9061">
        <ele>1979</ele>
        <time>2019-10-06T06:47:27Z</time>
      </trkpt>
      <trkpt lat="45.70751" lon="6.90613">
        <ele>1979</ele>
        <time>2019-10-06T06:47:28Z</time>
      </trkpt>
      <trkpt lat="45.70753" lon="6.90616">
        <ele>1978</ele>
        <time>2019-10-06T06:47:29Z</time>
      </trkpt>
      <trkpt lat="45.70755" lon="6.90618">
        <ele>1978</ele>
        <time>2019-10-06T06:47:30Z</time>
      </trkpt>
      <trkpt lat="45.70756" lon="6.90621">
        <ele>1978</ele>
        <time>2019-10-06T06:47:31Z</time>
      </trkpt>
      <trkpt lat="45.70758" lon="6.90623">
        <ele>1977</ele>
        <time>2019-10-06T06:47:32Z</time>
      </trkpt>
      <trkpt lat="45.7076" lon="6.90625">
        <ele>1977</ele>
        <time>2019-10-06T06:47:33Z</time>
      </trkpt>
      <trkpt lat="45.70762" lon="6.90628">
        <ele>1977</ele>
        <time>2019-10-06T06:47:34Z</time>
      </trkpt>
      <trkpt lat="45.70765" lon="6.9063">
        <ele>1977</ele>
        <time>2019-10-06T06:47:35Z</time>
      </trkpt>
      <trkpt lat="45.70767" lon="6.90632">
        <ele>1977</ele>
        <time>2019-10-06T06:47:36Z</time>
      </trkpt>
      <trkpt lat="45.70769" lon="6.90635">
        <ele>1977</ele>
        <time>2019-10-06T06:47:37Z</time>
      </trkpt>
      <trkpt lat="45.70771" lon="6.90638">
        <ele>1977</ele>
        <time>2019-10-06T06:47:38Z</time>
      </trkpt>
      <trkpt lat="45.70772" lon="6.90641">
        <ele>1977</ele>
        <time>2019-10-06T06:47:39Z</time>
      </trkpt>
      <trkpt lat="45.70774" lon="6.90644">
        <ele>1977</ele>
        <time>2019-10-06T06:47:40Z</time>
      </trkpt>
      <trkpt lat="45.70776" lon="6.90647">
        <ele>1977</ele>
        <time>2019-10-06T06:47:41Z</time>
      </trkpt>
      <trkpt lat="45.70778" lon="6.90651">
        <ele>1977</ele>
        <time>2019-10-06T06:47:42Z</time>
      </trkpt>
      <trkpt lat="45.7078" lon="6.90655">
        <ele>1977</ele>
        <time>2019-10-06T06:47:43Z</time>
      </trkpt>
      <trkpt lat="45.70781" lon="6.90659">
        <ele>1977</ele>
        <time>2019-10-06T06:47:44Z</time>
      </trkpt>
      <trkpt lat="45.70782" lon="6.90663">
        <ele>1977</ele>
        <time>2019-10-06T06:47:45Z</time>
      </trkpt>
      <trkpt lat="45.70782" lon="6.90668">
        <ele>1976</ele>
        <time>2019-10-06T06:47:46Z</time>
      </trkpt>
      <trkpt lat="45.70783" lon="6.90671">
        <ele>1976</ele>
        <time>2019-10-06T06:47:47Z</time>
      </trkpt>
      <trkpt lat="45.70785" lon="6.90675">
        <ele>1976</ele>
        <time>2019-10-06T06:47:48Z</time>
      </trkpt>
      <trkpt lat="45.70787" lon="6.90677">
        <ele>1976</ele>
        <time>2019-10-06T06:47:49Z</time>
      </trkpt>
      <trkpt lat="45.70788" lon="6.90679">
        <ele>1976</ele>
        <time>2019-10-06T06:47:50Z</time>
      </trkpt>
      <trkpt lat="45.7079" lon="6.90681">
        <ele>1976</ele>
        <time>2019-10-06T06:47:51Z</time>
      </trkpt>
      <trkpt lat="45.70792" lon="6.90683">
        <ele>1976</ele>
        <time>2019-10-06T06:47:52Z</time>
      </trkpt>
      <trkpt lat="45.70794" lon="6.90684">
        <ele>1976</ele>
        <time>2019-10-06T06:47:53Z</time>
      </trkpt>
      <trkpt lat="45.70798" lon="6.90686">
        <ele>1976</ele>
        <time>2019-10-06T06:47:54Z</time>
      </trkpt>
      <trkpt lat="45.708" lon="6.90688">
        <ele>1976</ele>
        <time>2019-10-06T06:47:55Z</time>
      </trkpt>
      <trkpt lat="45.70803" lon="6.9069">
        <ele>1976</ele>
        <time>2019-10-06T06:47:56Z</time>
      </trkpt>
      <trkpt lat="45.70805" lon="6.90692">
        <ele>1976</ele>
        <time>2019-10-06T06:47:57Z</time>
      </trkpt>
      <trkpt lat="45.70808" lon="6.90695">
        <ele>1976</ele>
        <time>2019-10-06T06:47:58Z</time>
      </trkpt>
      <trkpt lat="45.7081" lon="6.90698">
        <ele>1975</ele>
        <time>2019-10-06T06:47:59Z</time>
      </trkpt>
      <trkpt lat="45.70812" lon="6.90702">
        <ele>1975</ele>
        <time>2019-10-06T06:48:00Z</time>
      </trkpt>
      <trkpt lat="45.70814" lon="6.90706">
        <ele>1975</ele>
        <time>2019-10-06T06:48:01Z</time>
      </trkpt>
      <trkpt lat="45.70816" lon="6.90709">
        <ele>1975</ele>
        <time>2019-10-06T06:48:02Z</time>
      </trkpt>
      <trkpt lat="45.70818" lon="6.90713">
        <ele>1974</ele>
        <time>2019-10-06T06:48:03Z</time>
      </trkpt>
      <trkpt lat="45.70819" lon="6.90717">
        <ele>1973</ele>
        <time>2019-10-06T06:48:04Z</time>
      </trkpt>
      <trkpt lat="45.70821" lon="6.9072">
        <ele>1973</ele>
        <time>2019-10-06T06:48:05Z</time>
      </trkpt>
      <trkpt lat="45.70824" lon="6.90724">
        <ele>1973</ele>
        <time>2019-10-06T06:48:06Z</time>
      </trkpt>
      <trkpt lat="45.70826" lon="6.90728">
        <ele>1973</ele>
        <time>2019-10-06T06:48:07Z</time>
      </trkpt>
      <trkpt lat="45.70828" lon="6.90731">
        <ele>1973</ele>
        <time>2019-10-06T06:48:08Z</time>
      </trkpt>
      <trkpt lat="45.7083" lon="6.90735">
        <ele>1973</ele>
        <time>2019-10-06T06:48:09Z</time>
      </trkpt>
      <trkpt lat="45.70832" lon="6.90739">
        <ele>1973</ele>
        <time>2019-10-06T06:48:10Z</time>
      </trkpt>
      <trkpt lat="45.70834" lon="6.90742">
        <ele>1973</ele>
        <time>2019-10-06T06:48:11Z</time>
      </trkpt>
      <trkpt lat="45.70836" lon="6.90745">
        <ele>1973</ele>
        <time>2019-10-06T06:48:12Z</time>
      </trkpt>
      <trkpt lat="45.70837" lon="6.90748">
        <ele>1973</ele>
        <time>2019-10-06T06:48:13Z</time>
      </trkpt>
      <trkpt lat="45.70839" lon="6.90752">
        <ele>1973</ele>
        <time>2019-10-06T06:48:14Z</time>
      </trkpt>
      <trkpt lat="45.70841" lon="6.90755">
        <ele>1973</ele>
        <time>2019-10-06T06:48:15Z</time>
      </trkpt>
      <trkpt lat="45.70842" lon="6.90758">
        <ele>1973</ele>
        <time>2019-10-06T06:48:16Z</time>
      </trkpt>
      <trkpt lat="45.70844" lon="6.90761">
        <ele>1972</ele>
        <time>2019-10-06T06:48:17Z</time>
      </trkpt>
      <trkpt lat="45.70845" lon="6.90765">
        <ele>1972</ele>
        <time>2019-10-06T06:48:18Z</time>
      </trkpt>
      <trkpt lat="45.70848" lon="6.90768">
        <ele>1972</ele>
        <time>2019-10-06T06:48:19Z</time>
      </trkpt>
      <trkpt lat="45.7085" lon="6.90772">
        <ele>1972</ele>
        <time>2019-10-06T06:48:20Z</time>
      </trkpt>
      <trkpt lat="45.70852" lon="6.90775">
        <ele>1972</ele>
        <time>2019-10-06T06:48:21Z</time>
      </trkpt>
      <trkpt lat="45.70854" lon="6.90779">
        <ele>1972</ele>
        <time>2019-10-06T06:48:22Z</time>
      </trkpt>
      <trkpt lat="45.70856" lon="6.90782">
        <ele>1972</ele>
        <time>2019-10-06T06:48:23Z</time>
      </trkpt>
      <trkpt lat="45.70858" lon="6.90785">
        <ele>1972</ele>
        <time>2019-10-06T06:48:24Z</time>
      </trkpt>
      <trkpt lat="45.7086" lon="6.90788">
        <ele>1972</ele>
        <time>2019-10-06T06:48:25Z</time>
      </trkpt>
      <trkpt lat="45.70861" lon="6.90792">
        <ele>1972</ele>
        <time>2019-10-06T06:48:26Z</time>
      </trkpt>
      <trkpt lat="45.70863" lon="6.90795">
        <ele>1972</ele>
        <time>2019-10-06T06:48:27Z</time>
      </trkpt>
      <trkpt lat="45.70865" lon="6.90798">
        <ele>1972</ele>
        <time>2019-10-06T06:48:28Z</time>
      </trkpt>
      <trkpt lat="45.70866" lon="6.90801">
        <ele>1972</ele>
        <time>2019-10-06T06:48:29Z</time>
      </trkpt>
      <trkpt lat="45.70867" lon="6.90805">
        <ele>1972</ele>
        <time>2019-10-06T06:48:30Z</time>
      </trkpt>
      <trkpt lat="45.70869" lon="6.90809">
        <ele>1972</ele>
        <time>2019-10-06T06:48:31Z</time>
      </trkpt>
      <trkpt lat="45.7087" lon="6.90813">
        <ele>1972</ele>
        <time>2019-10-06T06:48:32Z</time>
      </trkpt>
      <trkpt lat="45.70871" lon="6.90817">
        <ele>1972</ele>
        <time>2019-10-06T06:48:33Z</time>
      </trkpt>
      <trkpt lat="45.70873" lon="6.90821">
        <ele>1971</ele>
        <time>2019-10-06T06:48:34Z</time>
      </trkpt>
      <trkpt lat="45.70874" lon="6.90824">
        <ele>1971</ele>
        <time>2019-10-06T06:48:35Z</time>
      </trkpt>
      <trkpt lat="45.70875" lon="6.90828">
        <ele>1971</ele>
        <time>2019-10-06T06:48:36Z</time>
      </trkpt>
      <trkpt lat="45.70877" lon="6.90831">
        <ele>1971</ele>
        <time>2019-10-06T06:48:37Z</time>
      </trkpt>
      <trkpt lat="45.70879" lon="6.90834">
        <ele>1971</ele>
        <time>2019-10-06T06:48:38Z</time>
      </trkpt>
      <trkpt lat="45.70881" lon="6.90836">
        <ele>1971</ele>
        <time>2019-10-06T06:48:39Z</time>
      </trkpt>
      <trkpt lat="45.70883" lon="6.90839">
        <ele>1971</ele>
        <time>2019-10-06T06:48:40Z</time>
      </trkpt>
      <trkpt lat="45.70886" lon="6.90842">
        <ele>1970</ele>
        <time>2019-10-06T06:48:41Z</time>
      </trkpt>
      <trkpt lat="45.70888" lon="6.90844">
        <ele>1970</ele>
        <time>2019-10-06T06:48:42Z</time>
      </trkpt>
      <trkpt lat="45.7089" lon="6.90847">
        <ele>1969</ele>
        <time>2019-10-06T06:48:43Z</time>
      </trkpt>
      <trkpt lat="45.70892" lon="6.9085">
        <ele>1969</ele>
        <time>2019-10-06T06:48:44Z</time>
      </trkpt>
      <trkpt lat="45.70894" lon="6.90853">
        <ele>1969</ele>
        <time>2019-10-06T06:48:45Z</time>
      </trkpt>
      <trkpt lat="45.70896" lon="6.90856">
        <ele>1969</ele>
        <time>2019-10-06T06:48:46Z</time>
      </trkpt>
      <trkpt lat="45.70899" lon="6.90859">
        <ele>1968</ele>
        <time>2019-10-06T06:48:47Z</time>
      </trkpt>
      <trkpt lat="45.70901" lon="6.90862">
        <ele>1968</ele>
        <time>2019-10-06T06:48:48Z</time>
      </trkpt>
      <trkpt lat="45.70903" lon="6.90865">
        <ele>1968</ele>
        <time>2019-10-06T06:48:49Z</time>
      </trkpt>
      <trkpt lat="45.70905" lon="6.90867">
        <ele>1968</ele>
        <time>2019-10-06T06:48:50Z</time>
      </trkpt>
      <trkpt lat="45.70908" lon="6.9087">
        <ele>1968</ele>
        <time>2019-10-06T06:48:51Z</time>
      </trkpt>
      <trkpt lat="45.7091" lon="6.90873">
        <ele>1968</ele>
        <time>2019-10-06T06:48:52Z</time>
      </trkpt>
      <trkpt lat="45.70912" lon="6.90876">
        <ele>1968</ele>
        <time>2019-10-06T06:48:53Z</time>
      </trkpt>
      <trkpt lat="45.70915" lon="6.90878">
        <ele>1967</ele>
        <time>2019-10-06T06:48:54Z</time>
      </trkpt>
      <trkpt lat="45.70917" lon="6.9088">
        <ele>1967</ele>
        <time>2019-10-06T06:48:55Z</time>
      </trkpt>
      <trkpt lat="45.70919" lon="6.90882">
        <ele>1967</ele>
        <time>2019-10-06T06:48:56Z</time>
      </trkpt>
      <trkpt lat="45.70921" lon="6.90883">
        <ele>1967</ele>
        <time>2019-10-06T06:48:57Z</time>
      </trkpt>
      <trkpt lat="45.70923" lon="6.90884">
        <ele>1966</ele>
        <time>2019-10-06T06:48:58Z</time>
      </trkpt>
      <trkpt lat="45.70925" lon="6.90884">
        <ele>1966</ele>
        <time>2019-10-06T06:48:59Z</time>
      </trkpt>
      <trkpt lat="45.70927" lon="6.90884">
        <ele>1966</ele>
        <time>2019-10-06T06:49:00Z</time>
      </trkpt>
      <trkpt lat="45.70929" lon="6.90883">
        <ele>1965</ele>
        <time>2019-10-06T06:49:01Z</time>
      </trkpt>
      <trkpt lat="45.70932" lon="6.90883">
        <ele>1964</ele>
        <time>2019-10-06T06:49:02Z</time>
      </trkpt>
      <trkpt lat="45.70934" lon="6.90883">
        <ele>1964</ele>
        <time>2019-10-06T06:49:03Z</time>
      </trkpt>
      <trkpt lat="45.70937" lon="6.90884">
        <ele>1964</ele>
        <time>2019-10-06T06:49:04Z</time>
      </trkpt>
      <trkpt lat="45.7094" lon="6.90886">
        <ele>1964</ele>
        <time>2019-10-06T06:49:05Z</time>
      </trkpt>
      <trkpt lat="45.70942" lon="6.90887">
        <ele>1963</ele>
        <time>2019-10-06T06:49:06Z</time>
      </trkpt>
      <trkpt lat="45.70945" lon="6.90888">
        <ele>1962</ele>
        <time>2019-10-06T06:49:07Z</time>
      </trkpt>
      <trkpt lat="45.70948" lon="6.9089">
        <ele>1962</ele>
        <time>2019-10-06T06:49:08Z</time>
      </trkpt>
      <trkpt lat="45.7095" lon="6.90892">
        <ele>1960</ele>
        <time>2019-10-06T06:49:09Z</time>
      </trkpt>
      <trkpt lat="45.70953" lon="6.90894">
        <ele>1960</ele>
        <time>2019-10-06T06:49:10Z</time>
      </trkpt>
      <trkpt lat="45.70955" lon="6.90896">
        <ele>1959</ele>
        <time>2019-10-06T06:49:11Z</time>
      </trkpt>
      <trkpt lat="45.70958" lon="6.90898">
        <ele>1958</ele>
        <time>2019-10-06T06:49:12Z</time>
      </trkpt>
      <trkpt lat="45.7096" lon="6.90899">
        <ele>1958</ele>
        <time>2019-10-06T06:49:13Z</time>
      </trkpt>
      <trkpt lat="45.70963" lon="6.90899">
        <ele>1957</ele>
        <time>2019-10-06T06:49:14Z</time>
      </trkpt>
      <trkpt lat="45.70967" lon="6.909">
        <ele>1956</ele>
        <time>2019-10-06T06:49:15Z</time>
      </trkpt>
      <trkpt lat="45.70969" lon="6.90902">
        <ele>1956</ele>
        <time>2019-10-06T06:49:16Z</time>
      </trkpt>
      <trkpt lat="45.70971" lon="6.90905">
        <ele>1956</ele>
        <time>2019-10-06T06:49:17Z</time>
      </trkpt>
      <trkpt lat="45.70974" lon="6.90907">
        <ele>1956</ele>
        <time>2019-10-06T06:49:18Z</time>
      </trkpt>
      <trkpt lat="45.70976" lon="6.9091">
        <ele>1956</ele>
        <time>2019-10-06T06:49:19Z</time>
      </trkpt>
      <trkpt lat="45.70978" lon="6.90911">
        <ele>1955</ele>
        <time>2019-10-06T06:49:20Z</time>
      </trkpt>
      <trkpt lat="45.7098" lon="6.90913">
        <ele>1955</ele>
        <time>2019-10-06T06:49:21Z</time>
      </trkpt>
      <trkpt lat="45.70983" lon="6.90914">
        <ele>1955</ele>
        <time>2019-10-06T06:49:22Z</time>
      </trkpt>
      <trkpt lat="45.70985" lon="6.90915">
        <ele>1955</ele>
        <time>2019-10-06T06:49:23Z</time>
      </trkpt>
      <trkpt lat="45.70988" lon="6.90915">
        <ele>1954</ele>
        <time>2019-10-06T06:49:24Z</time>
      </trkpt>
      <trkpt lat="45.70991" lon="6.90915">
        <ele>1954</ele>
        <time>2019-10-06T06:49:25Z</time>
      </trkpt>
      <trkpt lat="45.70993" lon="6.90913">
        <ele>1955</ele>
        <time>2019-10-06T06:49:26Z</time>
      </trkpt>
      <trkpt lat="45.70996" lon="6.9091">
        <ele>1955</ele>
        <time>2019-10-06T06:49:27Z</time>
      </trkpt>
      <trkpt lat="45.70998" lon="6.90908">
        <ele>1954</ele>
        <time>2019-10-06T06:49:28Z</time>
      </trkpt>
      <trkpt lat="45.71001" lon="6.90907">
        <ele>1953</ele>
        <time>2019-10-06T06:49:29Z</time>
      </trkpt>
      <trkpt lat="45.71003" lon="6.90905">
        <ele>1952</ele>
        <time>2019-10-06T06:49:30Z</time>
      </trkpt>
      <trkpt lat="45.71006" lon="6.90904">
        <ele>1952</ele>
        <time>2019-10-06T06:49:31Z</time>
      </trkpt>
      <trkpt lat="45.71008" lon="6.90902">
        <ele>1952</ele>
        <time>2019-10-06T06:49:32Z</time>
      </trkpt>
      <trkpt lat="45.7101" lon="6.90899">
        <ele>1952</ele>
        <time>2019-10-06T06:49:33Z</time>
      </trkpt>
      <trkpt lat="45.71011" lon="6.90897">
        <ele>1953</ele>
        <time>2019-10-06T06:49:34Z</time>
      </trkpt>
      <trkpt lat="45.71013" lon="6.90895">
        <ele>1953</ele>
        <time>2019-10-06T06:49:35Z</time>
      </trkpt>
      <trkpt lat="45.71015" lon="6.90892">
        <ele>1952</ele>
        <time>2019-10-06T06:49:36Z</time>
      </trkpt>
      <trkpt lat="45.71015" lon="6.90889">
        <ele>1952</ele>
        <time>2019-10-06T06:49:37Z</time>
      </trkpt>
      <trkpt lat="45.71016" lon="6.90886">
        <ele>1952</ele>
        <time>2019-10-06T06:49:38Z</time>
      </trkpt>
      <trkpt lat="45.71016" lon="6.90882">
        <ele>1951</ele>
        <time>2019-10-06T06:49:39Z</time>
      </trkpt>
      <trkpt lat="45.71016" lon="6.90879">
        <ele>1951</ele>
        <time>2019-10-06T06:49:40Z</time>
      </trkpt>
      <trkpt lat="45.71016" lon="6.90875">
        <ele>1951</ele>
        <time>2019-10-06T06:49:41Z</time>
      </trkpt>
      <trkpt lat="45.71016" lon="6.90871">
        <ele>1951</ele>
        <time>2019-10-06T06:49:42Z</time>
      </trkpt>
      <trkpt lat="45.71017" lon="6.90867">
        <ele>1951</ele>
        <time>2019-10-06T06:49:43Z</time>
      </trkpt>
      <trkpt lat="45.71017" lon="6.90863">
        <ele>1951</ele>
        <time>2019-10-06T06:49:44Z</time>
      </trkpt>
      <trkpt lat="45.71017" lon="6.90859">
        <ele>1951</ele>
        <time>2019-10-06T06:49:45Z</time>
      </trkpt>
      <trkpt lat="45.71019" lon="6.90855">
        <ele>1951</ele>
        <time>2019-10-06T06:49:46Z</time>
      </trkpt>
      <trkpt lat="45.7102" lon="6.90852">
        <ele>1950</ele>
        <time>2019-10-06T06:49:47Z</time>
      </trkpt>
      <trkpt lat="45.71021" lon="6.90848">
        <ele>1949</ele>
        <time>2019-10-06T06:49:48Z</time>
      </trkpt>
      <trkpt lat="45.71022" lon="6.90846">
        <ele>1949</ele>
        <time>2019-10-06T06:49:49Z</time>
      </trkpt>
      <trkpt lat="45.71024" lon="6.90843">
        <ele>1949</ele>
        <time>2019-10-06T06:49:50Z</time>
      </trkpt>
      <trkpt lat="45.71025" lon="6.90841">
        <ele>1949</ele>
        <time>2019-10-06T06:49:51Z</time>
      </trkpt>
      <trkpt lat="45.71027" lon="6.90838">
        <ele>1948</ele>
        <time>2019-10-06T06:49:53Z</time>
      </trkpt>
      <trkpt lat="45.71027" lon="6.90838">
        <ele>1948</ele>
        <time>2019-10-06T06:49:56Z</time>
      </trkpt>
      <trkpt lat="45.71027" lon="6.90838">
        <ele>1948</ele>
        <time>2019-10-06T06:50:00Z</time>
      </trkpt>
      <trkpt lat="45.71027" lon="6.90838">
        <ele>1948</ele>
        <time>2019-10-06T06:50:04Z</time>
      </trkpt>
      <trkpt lat="45.71027" lon="6.90838">
        <ele>1948</ele>
        <time>2019-10-06T06:50:08Z</time>
      </trkpt>
      <trkpt lat="45.71027" lon="6.90838">
        <ele>1949</ele>
        <time>2019-10-06T06:50:12Z</time>
      </trkpt>
      <trkpt lat="45.71027" lon="6.90838">
        <ele>1949</ele>
        <time>2019-10-06T06:50:16Z</time>
      </trkpt>
      <trkpt lat="45.71027" lon="6.90838">
        <ele>1949</ele>
        <time>2019-10-06T06:50:20Z</time>
      </trkpt>
      <trkpt lat="45.71027" lon="6.90838">
        <ele>1950</ele>
        <time>2019-10-06T06:50:24Z</time>
      </trkpt>
      <trkpt lat="45.71027" lon="6.90838">
        <ele>1950</ele>
        <time>2019-10-06T06:50:28Z</time>
      </trkpt>
      <trkpt lat="45.71027" lon="6.90838">
        <ele>1950</ele>
        <time>2019-10-06T06:50:32Z</time>
      </trkpt>
      <trkpt lat="45.71027" lon="6.90838">
        <ele>1949</ele>
        <time>2019-10-06T06:50:36Z</time>
      </trkpt>
      <trkpt lat="45.71026" lon="6.90835">
        <ele>1949</ele>
        <time>2019-10-06T06:50:40Z</time>
      </trkpt>
      <trkpt lat="45.71026" lon="6.90835">
        <ele>1949</ele>
        <time>2019-10-06T06:50:41Z</time>
      </trkpt>
      <trkpt lat="45.71026" lon="6.90831">
        <ele>1948</ele>
        <time>2019-10-06T06:50:42Z</time>
      </trkpt>
      <trkpt lat="45.71027" lon="6.90828">
        <ele>1947</ele>
        <time>2019-10-06T06:50:44Z</time>
      </trkpt>
      <trkpt lat="45.71027" lon="6.90823">
        <ele>1947</ele>
        <time>2019-10-06T06:50:46Z</time>
      </trkpt>
      <trkpt lat="45.71027" lon="6.90819">
        <ele>1947</ele>
        <time>2019-10-06T06:50:48Z</time>
      </trkpt>
      <trkpt lat="45.71027" lon="6.90815">
        <ele>1946</ele>
        <time>2019-10-06T06:50:50Z</time>
      </trkpt>
      <trkpt lat="45.71026" lon="6.9081">
        <ele>1946</ele>
        <time>2019-10-06T06:50:52Z</time>
      </trkpt>
      <trkpt lat="45.71026" lon="6.90806">
        <ele>1946</ele>
        <time>2019-10-06T06:50:54Z</time>
      </trkpt>
      <trkpt lat="45.71026" lon="6.90802">
        <ele>1946</ele>
        <time>2019-10-06T06:50:56Z</time>
      </trkpt>
      <trkpt lat="45.71025" lon="6.90799">
        <ele>1945</ele>
        <time>2019-10-06T06:50:58Z</time>
      </trkpt>
      <trkpt lat="45.71024" lon="6.90795">
        <ele>1945</ele>
        <time>2019-10-06T06:51:00Z</time>
      </trkpt>
      <trkpt lat="45.71024" lon="6.90793">
        <ele>1945</ele>
        <time>2019-10-06T06:51:02Z</time>
      </trkpt>
      <trkpt lat="45.71023" lon="6.90789">
        <ele>1944</ele>
        <time>2019-10-06T06:51:04Z</time>
      </trkpt>
      <trkpt lat="45.71022" lon="6.90786">
        <ele>1944</ele>
        <time>2019-10-06T06:51:06Z</time>
      </trkpt>
      <trkpt lat="45.71021" lon="6.90783">
        <ele>1944</ele>
        <time>2019-10-06T06:51:07Z</time>
      </trkpt>
      <trkpt lat="45.71021" lon="6.9078">
        <ele>1943</ele>
        <time>2019-10-06T06:51:08Z</time>
      </trkpt>
      <trkpt lat="45.7102" lon="6.90776">
        <ele>1943</ele>
        <time>2019-10-06T06:51:09Z</time>
      </trkpt>
      <trkpt lat="45.71019" lon="6.90773">
        <ele>1943</ele>
        <time>2019-10-06T06:51:10Z</time>
      </trkpt>
      <trkpt lat="45.71018" lon="6.9077">
        <ele>1942</ele>
        <time>2019-10-06T06:51:11Z</time>
      </trkpt>
      <trkpt lat="45.71016" lon="6.90766">
        <ele>1942</ele>
        <time>2019-10-06T06:51:12Z</time>
      </trkpt>
      <trkpt lat="45.71015" lon="6.90763">
        <ele>1941</ele>
        <time>2019-10-06T06:51:13Z</time>
      </trkpt>
      <trkpt lat="45.71014" lon="6.9076">
        <ele>1940</ele>
        <time>2019-10-06T06:51:14Z</time>
      </trkpt>
      <trkpt lat="45.71013" lon="6.90756">
        <ele>1940</ele>
        <time>2019-10-06T06:51:15Z</time>
      </trkpt>
      <trkpt lat="45.71011" lon="6.90753">
        <ele>1940</ele>
        <time>2019-10-06T06:51:16Z</time>
      </trkpt>
      <trkpt lat="45.7101" lon="6.90749">
        <ele>1940</ele>
        <time>2019-10-06T06:51:17Z</time>
      </trkpt>
      <trkpt lat="45.7101" lon="6.90746">
        <ele>1940</ele>
        <time>2019-10-06T06:51:18Z</time>
      </trkpt>
      <trkpt lat="45.71009" lon="6.90743">
        <ele>1940</ele>
        <time>2019-10-06T06:51:19Z</time>
      </trkpt>
      <trkpt lat="45.71008" lon="6.90741">
        <ele>1940</ele>
        <time>2019-10-06T06:51:20Z</time>
      </trkpt>
      <trkpt lat="45.71007" lon="6.90737">
        <ele>1939</ele>
        <time>2019-10-06T06:51:21Z</time>
      </trkpt>
      <trkpt lat="45.71005" lon="6.90734">
        <ele>1938</ele>
        <time>2019-10-06T06:51:22Z</time>
      </trkpt>
      <trkpt lat="45.71004" lon="6.90733">
        <ele>1938</ele>
        <time>2019-10-06T06:51:23Z</time>
      </trkpt>
      <trkpt lat="45.71001" lon="6.90731">
        <ele>1937</ele>
        <time>2019-10-06T06:51:24Z</time>
      </trkpt>
      <trkpt lat="45.70999" lon="6.90729">
        <ele>1936</ele>
        <time>2019-10-06T06:51:25Z</time>
      </trkpt>
      <trkpt lat="45.70996" lon="6.90728">
        <ele>1936</ele>
        <time>2019-10-06T06:51:26Z</time>
      </trkpt>
      <trkpt lat="45.70993" lon="6.90727">
        <ele>1935</ele>
        <time>2019-10-06T06:51:27Z</time>
      </trkpt>
      <trkpt lat="45.70989" lon="6.90726">
        <ele>1934</ele>
        <time>2019-10-06T06:51:28Z</time>
      </trkpt>
      <trkpt lat="45.70986" lon="6.90725">
        <ele>1933</ele>
        <time>2019-10-06T06:51:29Z</time>
      </trkpt>
      <trkpt lat="45.70982" lon="6.90724">
        <ele>1932</ele>
        <time>2019-10-06T06:51:30Z</time>
      </trkpt>
      <trkpt lat="45.70979" lon="6.90723">
        <ele>1932</ele>
        <time>2019-10-06T06:51:31Z</time>
      </trkpt>
      <trkpt lat="45.70975" lon="6.90723">
        <ele>1932</ele>
        <time>2019-10-06T06:51:32Z</time>
      </trkpt>
      <trkpt lat="45.70971" lon="6.90722">
        <ele>1931</ele>
        <time>2019-10-06T06:51:33Z</time>
      </trkpt>
      <trkpt lat="45.70967" lon="6.90722">
        <ele>1930</ele>
        <time>2019-10-06T06:51:34Z</time>
      </trkpt>
      <trkpt lat="45.70963" lon="6.90722">
        <ele>1929</ele>
        <time>2019-10-06T06:51:35Z</time>
      </trkpt>
      <trkpt lat="45.70959" lon="6.90722">
        <ele>1928</ele>
        <time>2019-10-06T06:51:36Z</time>
      </trkpt>
      <trkpt lat="45.70955" lon="6.90721">
        <ele>1928</ele>
        <time>2019-10-06T06:51:37Z</time>
      </trkpt>
      <trkpt lat="45.70951" lon="6.90721">
        <ele>1927</ele>
        <time>2019-10-06T06:51:38Z</time>
      </trkpt>
      <trkpt lat="45.70949" lon="6.90721">
        <ele>1926</ele>
        <time>2019-10-06T06:51:39Z</time>
      </trkpt>
      <trkpt lat="45.70945" lon="6.90721">
        <ele>1925</ele>
        <time>2019-10-06T06:51:40Z</time>
      </trkpt>
      <trkpt lat="45.70935" lon="6.9072">
        <ele>1924</ele>
        <time>2019-10-06T06:51:43Z</time>
      </trkpt>
      <trkpt lat="45.70935" lon="6.9072">
        <ele>1923</ele>
        <time>2019-10-06T06:51:45Z</time>
      </trkpt>
      <trkpt lat="45.70931" lon="6.90709">
        <ele>1922</ele>
        <time>2019-10-06T06:51:47Z</time>
      </trkpt>
      <trkpt lat="45.70937" lon="6.90697">
        <ele>1921</ele>
        <time>2019-10-06T06:51:50Z</time>
      </trkpt>
      <trkpt lat="45.70937" lon="6.90697">
        <ele>1920</ele>
        <time>2019-10-06T06:51:51Z</time>
      </trkpt>
      <trkpt lat="45.70944" lon="6.9069">
        <ele>1919</ele>
        <time>2019-10-06T06:51:52Z</time>
      </trkpt>
      <trkpt lat="45.70946" lon="6.90687">
        <ele>1918</ele>
        <time>2019-10-06T06:51:53Z</time>
      </trkpt>
      <trkpt lat="45.70949" lon="6.90684">
        <ele>1917</ele>
        <time>2019-10-06T06:51:54Z</time>
      </trkpt>
      <trkpt lat="45.70951" lon="6.90682">
        <ele>1917</ele>
        <time>2019-10-06T06:51:55Z</time>
      </trkpt>
      <trkpt lat="45.70954" lon="6.90681">
        <ele>1917</ele>
        <time>2019-10-06T06:51:56Z</time>
      </trkpt>
      <trkpt lat="45.70959" lon="6.90679">
        <ele>1916</ele>
        <time>2019-10-06T06:51:57Z</time>
      </trkpt>
      <trkpt lat="45.7096" lon="6.90678">
        <ele>1915</ele>
        <time>2019-10-06T06:51:58Z</time>
      </trkpt>
      <trkpt lat="45.70961" lon="6.90677">
        <ele>1914</ele>
        <time>2019-10-06T06:51:59Z</time>
      </trkpt>
      <trkpt lat="45.70963" lon="6.90677">
        <ele>1914</ele>
        <time>2019-10-06T06:52:00Z</time>
      </trkpt>
      <trkpt lat="45.70968" lon="6.90674">
        <ele>1914</ele>
        <time>2019-10-06T06:52:01Z</time>
      </trkpt>
      <trkpt lat="45.70975" lon="6.90668">
        <ele>1913</ele>
        <time>2019-10-06T06:52:03Z</time>
      </trkpt>
      <trkpt lat="45.70976" lon="6.90668">
        <ele>1912</ele>
        <time>2019-10-06T06:52:04Z</time>
      </trkpt>
      <trkpt lat="45.70978" lon="6.90667">
        <ele>1912</ele>
        <time>2019-10-06T06:52:05Z</time>
      </trkpt>
      <trkpt lat="45.70979" lon="6.90666">
        <ele>1912</ele>
        <time>2019-10-06T06:52:06Z</time>
      </trkpt>
      <trkpt lat="45.70985" lon="6.90663">
        <ele>1912</ele>
        <time>2019-10-06T06:52:07Z</time>
      </trkpt>
      <trkpt lat="45.70991" lon="6.9066">
        <ele>1911</ele>
        <time>2019-10-06T06:52:09Z</time>
      </trkpt>
      <trkpt lat="45.70994" lon="6.90658">
        <ele>1908</ele>
        <time>2019-10-06T06:52:10Z</time>
      </trkpt>
      <trkpt lat="45.71003" lon="6.90654">
        <ele>1907</ele>
        <time>2019-10-06T06:52:13Z</time>
      </trkpt>
      <trkpt lat="45.71003" lon="6.90654">
        <ele>1907</ele>
        <time>2019-10-06T06:52:15Z</time>
      </trkpt>
      <trkpt lat="45.71011" lon="6.90649">
        <ele>1906</ele>
        <time>2019-10-06T06:52:16Z</time>
      </trkpt>
      <trkpt lat="45.71021" lon="6.90641">
        <ele>1904</ele>
        <time>2019-10-06T06:52:19Z</time>
      </trkpt>
      <trkpt lat="45.71023" lon="6.90641">
        <ele>1904</ele>
        <time>2019-10-06T06:52:20Z</time>
      </trkpt>
      <trkpt lat="45.71024" lon="6.90641">
        <ele>1904</ele>
        <time>2019-10-06T06:52:21Z</time>
      </trkpt>
      <trkpt lat="45.71026" lon="6.9064">
        <ele>1904</ele>
        <time>2019-10-06T06:52:22Z</time>
      </trkpt>
      <trkpt lat="45.71034" lon="6.90638">
        <ele>1903</ele>
        <time>2019-10-06T06:52:23Z</time>
      </trkpt>
      <trkpt lat="45.71035" lon="6.90638">
        <ele>1902</ele>
        <time>2019-10-06T06:52:24Z</time>
      </trkpt>
      <trkpt lat="45.71037" lon="6.90637">
        <ele>1901</ele>
        <time>2019-10-06T06:52:25Z</time>
      </trkpt>
      <trkpt lat="45.71042" lon="6.90636">
        <ele>1901</ele>
        <time>2019-10-06T06:52:26Z</time>
      </trkpt>
      <trkpt lat="45.71054" lon="6.90632">
        <ele>1898</ele>
        <time>2019-10-06T06:52:29Z</time>
      </trkpt>
      <trkpt lat="45.71056" lon="6.90631">
        <ele>1897</ele>
        <time>2019-10-06T06:52:30Z</time>
      </trkpt>
      <trkpt lat="45.71057" lon="6.9063">
        <ele>1897</ele>
        <time>2019-10-06T06:52:31Z</time>
      </trkpt>
      <trkpt lat="45.71064" lon="6.90627">
        <ele>1897</ele>
        <time>2019-10-06T06:52:32Z</time>
      </trkpt>
      <trkpt lat="45.71066" lon="6.90626">
        <ele>1897</ele>
        <time>2019-10-06T06:52:33Z</time>
      </trkpt>
      <trkpt lat="45.71068" lon="6.90625">
        <ele>1897</ele>
        <time>2019-10-06T06:52:34Z</time>
      </trkpt>
      <trkpt lat="45.71074" lon="6.9062">
        <ele>1897</ele>
        <time>2019-10-06T06:52:35Z</time>
      </trkpt>
      <trkpt lat="45.71076" lon="6.90619">
        <ele>1897</ele>
        <time>2019-10-06T06:52:36Z</time>
      </trkpt>
      <trkpt lat="45.71078" lon="6.90619">
        <ele>1896</ele>
        <time>2019-10-06T06:52:37Z</time>
      </trkpt>
      <trkpt lat="45.71083" lon="6.90616">
        <ele>1896</ele>
        <time>2019-10-06T06:52:38Z</time>
      </trkpt>
      <trkpt lat="45.71087" lon="6.90615">
        <ele>1895</ele>
        <time>2019-10-06T06:52:39Z</time>
      </trkpt>
      <trkpt lat="45.7109" lon="6.90612">
        <ele>1894</ele>
        <time>2019-10-06T06:52:40Z</time>
      </trkpt>
      <trkpt lat="45.71093" lon="6.9061">
        <ele>1893</ele>
        <time>2019-10-06T06:52:41Z</time>
      </trkpt>
      <trkpt lat="45.71097" lon="6.90608">
        <ele>1893</ele>
        <time>2019-10-06T06:52:42Z</time>
      </trkpt>
      <trkpt lat="45.71106" lon="6.90604">
        <ele>1892</ele>
        <time>2019-10-06T06:52:45Z</time>
      </trkpt>
      <trkpt lat="45.71106" lon="6.90604">
        <ele>1891</ele>
        <time>2019-10-06T06:52:47Z</time>
      </trkpt>
      <trkpt lat="45.71115" lon="6.90598">
        <ele>1891</ele>
        <time>2019-10-06T06:52:48Z</time>
      </trkpt>
      <trkpt lat="45.71118" lon="6.90596">
        <ele>1891</ele>
        <time>2019-10-06T06:52:49Z</time>
      </trkpt>
      <trkpt lat="45.71127" lon="6.90591">
        <ele>1889</ele>
        <time>2019-10-06T06:52:52Z</time>
      </trkpt>
      <trkpt lat="45.71127" lon="6.90591">
        <ele>1889</ele>
        <time>2019-10-06T06:52:54Z</time>
      </trkpt>
      <trkpt lat="45.71137" lon="6.90587">
        <ele>1889</ele>
        <time>2019-10-06T06:52:55Z</time>
      </trkpt>
      <trkpt lat="45.71147" lon="6.90582">
        <ele>1888</ele>
        <time>2019-10-06T06:52:58Z</time>
      </trkpt>
      <trkpt lat="45.71147" lon="6.90582">
        <ele>1887</ele>
        <time>2019-10-06T06:53:00Z</time>
      </trkpt>
      <trkpt lat="45.71156" lon="6.90578">
        <ele>1887</ele>
        <time>2019-10-06T06:53:01Z</time>
      </trkpt>
      <trkpt lat="45.71166" lon="6.90574">
        <ele>1886</ele>
        <time>2019-10-06T06:53:04Z</time>
      </trkpt>
      <trkpt lat="45.71166" lon="6.90574">
        <ele>1886</ele>
        <time>2019-10-06T06:53:06Z</time>
      </trkpt>
      <trkpt lat="45.71176" lon="6.90575">
        <ele>1886</ele>
        <time>2019-10-06T06:53:07Z</time>
      </trkpt>
      <trkpt lat="45.71187" lon="6.90576">
        <ele>1886</ele>
        <time>2019-10-06T06:53:10Z</time>
      </trkpt>
      <trkpt lat="45.71189" lon="6.90577">
        <ele>1886</ele>
        <time>2019-10-06T06:53:11Z</time>
      </trkpt>
      <trkpt lat="45.71191" lon="6.90578">
        <ele>1886</ele>
        <time>2019-10-06T06:53:12Z</time>
      </trkpt>
      <trkpt lat="45.71199" lon="6.9058">
        <ele>1886</ele>
        <time>2019-10-06T06:53:13Z</time>
      </trkpt>
      <trkpt lat="45.71201" lon="6.9058">
        <ele>1886</ele>
        <time>2019-10-06T06:53:14Z</time>
      </trkpt>
      <trkpt lat="45.71203" lon="6.9058">
        <ele>1886</ele>
        <time>2019-10-06T06:53:15Z</time>
      </trkpt>
      <trkpt lat="45.71209" lon="6.90581">
        <ele>1885</ele>
        <time>2019-10-06T06:53:16Z</time>
      </trkpt>
      <trkpt lat="45.71217" lon="6.90589">
        <ele>1884</ele>
        <time>2019-10-06T06:53:18Z</time>
      </trkpt>
      <trkpt lat="45.71222" lon="6.90601">
        <ele>1883</ele>
        <time>2019-10-06T06:53:20Z</time>
      </trkpt>
      <trkpt lat="45.71226" lon="6.90613">
        <ele>1881</ele>
        <time>2019-10-06T06:53:22Z</time>
      </trkpt>
      <trkpt lat="45.71233" lon="6.90627">
        <ele>1879</ele>
        <time>2019-10-06T06:53:24Z</time>
      </trkpt>
      <trkpt lat="45.71235" lon="6.90629">
        <ele>1879</ele>
        <time>2019-10-06T06:53:25Z</time>
      </trkpt>
      <trkpt lat="45.71236" lon="6.90631">
        <ele>1878</ele>
        <time>2019-10-06T06:53:26Z</time>
      </trkpt>
      <trkpt lat="45.7124" lon="6.90637">
        <ele>1877</ele>
        <time>2019-10-06T06:53:27Z</time>
      </trkpt>
      <trkpt lat="45.71246" lon="6.90647">
        <ele>1876</ele>
        <time>2019-10-06T06:53:29Z</time>
      </trkpt>
      <trkpt lat="45.71253" lon="6.90655">
        <ele>1875</ele>
        <time>2019-10-06T06:53:31Z</time>
      </trkpt>
      <trkpt lat="45.71262" lon="6.90666">
        <ele>1873</ele>
        <time>2019-10-06T06:53:33Z</time>
      </trkpt>
      <trkpt lat="45.71263" lon="6.90668">
        <ele>1872</ele>
        <time>2019-10-06T06:53:34Z</time>
      </trkpt>
      <trkpt lat="45.71264" lon="6.9067">
        <ele>1872</ele>
        <time>2019-10-06T06:53:35Z</time>
      </trkpt>
      <trkpt lat="45.71267" lon="6.90674">
        <ele>1871</ele>
        <time>2019-10-06T06:53:36Z</time>
      </trkpt>
      <trkpt lat="45.71267" lon="6.90673">
        <ele>1870</ele>
        <time>2019-10-06T06:53:37Z</time>
      </trkpt>
      <trkpt lat="45.71267" lon="6.90671">
        <ele>1870</ele>
        <time>2019-10-06T06:53:38Z</time>
      </trkpt>
      <trkpt lat="45.71266" lon="6.9067">
        <ele>1870</ele>
        <time>2019-10-06T06:53:39Z</time>
      </trkpt>
      <trkpt lat="45.71266" lon="6.90669">
        <ele>1870</ele>
        <time>2019-10-06T06:53:40Z</time>
      </trkpt>
      <trkpt lat="45.71263" lon="6.90662">
        <ele>1869</ele>
        <time>2019-10-06T06:53:41Z</time>
      </trkpt>
      <trkpt lat="45.7126" lon="6.90659">
        <ele>1869</ele>
        <time>2019-10-06T06:53:42Z</time>
      </trkpt>
      <trkpt lat="45.71258" lon="6.90656">
        <ele>1869</ele>
        <time>2019-10-06T06:53:43Z</time>
      </trkpt>
      <trkpt lat="45.71256" lon="6.90651">
        <ele>1869</ele>
        <time>2019-10-06T06:53:44Z</time>
      </trkpt>
      <trkpt lat="45.71253" lon="6.90647">
        <ele>1868</ele>
        <time>2019-10-06T06:53:45Z</time>
      </trkpt>
      <trkpt lat="45.71252" lon="6.90642">
        <ele>1867</ele>
        <time>2019-10-06T06:53:46Z</time>
      </trkpt>
      <trkpt lat="45.7125" lon="6.90637">
        <ele>1867</ele>
        <time>2019-10-06T06:53:47Z</time>
      </trkpt>
      <trkpt lat="45.71249" lon="6.90632">
        <ele>1867</ele>
        <time>2019-10-06T06:53:48Z</time>
      </trkpt>
      <trkpt lat="45.71249" lon="6.90627">
        <ele>1866</ele>
        <time>2019-10-06T06:53:49Z</time>
      </trkpt>
      <trkpt lat="45.71248" lon="6.90622">
        <ele>1866</ele>
        <time>2019-10-06T06:53:50Z</time>
      </trkpt>
      <trkpt lat="45.71246" lon="6.90608">
        <ele>1866</ele>
        <time>2019-10-06T06:53:53Z</time>
      </trkpt>
      <trkpt lat="45.71246" lon="6.90608">
        <ele>1866</ele>
        <time>2019-10-06T06:53:55Z</time>
      </trkpt>
      <trkpt lat="45.71244" lon="6.90595">
        <ele>1866</ele>
        <time>2019-10-06T06:53:56Z</time>
      </trkpt>
      <trkpt lat="45.71243" lon="6.90579">
        <ele>1866</ele>
        <time>2019-10-06T06:54:00Z</time>
      </trkpt>
      <trkpt lat="45.71243" lon="6.90577">
        <ele>1867</ele>
        <time>2019-10-06T06:54:01Z</time>
      </trkpt>
      <trkpt lat="45.71243" lon="6.90575">
        <ele>1868</ele>
        <time>2019-10-06T06:54:02Z</time>
      </trkpt>
      <trkpt lat="45.71243" lon="6.90573">
        <ele>1868</ele>
        <time>2019-10-06T06:54:03Z</time>
      </trkpt>
      <trkpt lat="45.71243" lon="6.90563">
        <ele>1868</ele>
        <time>2019-10-06T06:54:04Z</time>
      </trkpt>
      <trkpt lat="45.71244" lon="6.90562">
        <ele>1868</ele>
        <time>2019-10-06T06:54:05Z</time>
      </trkpt>
      <trkpt lat="45.71244" lon="6.9056">
        <ele>1868</ele>
        <time>2019-10-06T06:54:06Z</time>
      </trkpt>
      <trkpt lat="45.71245" lon="6.90558">
        <ele>1868</ele>
        <time>2019-10-06T06:54:07Z</time>
      </trkpt>
      <trkpt lat="45.71248" lon="6.90551">
        <ele>1868</ele>
        <time>2019-10-06T06:54:08Z</time>
      </trkpt>
      <trkpt lat="45.71256" lon="6.90558">
        <ele>1867</ele>
        <time>2019-10-06T06:54:11Z</time>
      </trkpt>
      <trkpt lat="45.71261" lon="6.90566">
        <ele>1867</ele>
        <time>2019-10-06T06:54:13Z</time>
      </trkpt>
      <trkpt lat="45.71263" lon="6.90569">
        <ele>1866</ele>
        <time>2019-10-06T06:54:14Z</time>
      </trkpt>
      <trkpt lat="45.71266" lon="6.9057">
        <ele>1866</ele>
        <time>2019-10-06T06:54:15Z</time>
      </trkpt>
      <trkpt lat="45.71271" lon="6.90571">
        <ele>1866</ele>
        <time>2019-10-06T06:54:16Z</time>
      </trkpt>
      <trkpt lat="45.71272" lon="6.90571">
        <ele>1866</ele>
        <time>2019-10-06T06:54:17Z</time>
      </trkpt>
      <trkpt lat="45.71274" lon="6.90572">
        <ele>1866</ele>
        <time>2019-10-06T06:54:18Z</time>
      </trkpt>
      <trkpt lat="45.71275" lon="6.90572">
        <ele>1866</ele>
        <time>2019-10-06T06:54:19Z</time>
      </trkpt>
      <trkpt lat="45.71281" lon="6.90573">
        <ele>1865</ele>
        <time>2019-10-06T06:54:20Z</time>
      </trkpt>
      <trkpt lat="45.71291" lon="6.90575">
        <ele>1864</ele>
        <time>2019-10-06T06:54:24Z</time>
      </trkpt>
      <trkpt lat="45.71291" lon="6.90575">
        <ele>1863</ele>
        <time>2019-10-06T06:54:25Z</time>
      </trkpt>
      <trkpt lat="45.71301" lon="6.90575">
        <ele>1864</ele>
        <time>2019-10-06T06:54:28Z</time>
      </trkpt>
      <trkpt lat="45.71303" lon="6.90574">
        <ele>1864</ele>
        <time>2019-10-06T06:54:29Z</time>
      </trkpt>
      <trkpt lat="45.71306" lon="6.90574">
        <ele>1864</ele>
        <time>2019-10-06T06:54:30Z</time>
      </trkpt>
      <trkpt lat="45.71308" lon="6.90574">
        <ele>1865</ele>
        <time>2019-10-06T06:54:31Z</time>
      </trkpt>
      <trkpt lat="45.7131" lon="6.90573">
        <ele>1865</ele>
        <time>2019-10-06T06:54:32Z</time>
      </trkpt>
      <trkpt lat="45.71313" lon="6.90574">
        <ele>1865</ele>
        <time>2019-10-06T06:54:33Z</time>
      </trkpt>
      <trkpt lat="45.71315" lon="6.90575">
        <ele>1864</ele>
        <time>2019-10-06T06:54:34Z</time>
      </trkpt>
      <trkpt lat="45.7132" lon="6.90578">
        <ele>1864</ele>
        <time>2019-10-06T06:54:36Z</time>
      </trkpt>
      <trkpt lat="45.71322" lon="6.9058">
        <ele>1864</ele>
        <time>2019-10-06T06:54:37Z</time>
      </trkpt>
      <trkpt lat="45.71324" lon="6.90582">
        <ele>1864</ele>
        <time>2019-10-06T06:54:38Z</time>
      </trkpt>
      <trkpt lat="45.71326" lon="6.90585">
        <ele>1864</ele>
        <time>2019-10-06T06:54:40Z</time>
      </trkpt>
      <trkpt lat="45.71327" lon="6.90586">
        <ele>1864</ele>
        <time>2019-10-06T06:54:42Z</time>
      </trkpt>
      <trkpt lat="45.7133" lon="6.90587">
        <ele>1864</ele>
        <time>2019-10-06T06:54:44Z</time>
      </trkpt>
      <trkpt lat="45.71332" lon="6.90589">
        <ele>1865</ele>
        <time>2019-10-06T06:54:46Z</time>
      </trkpt>
      <trkpt lat="45.71334" lon="6.9059">
        <ele>1866</ele>
        <time>2019-10-06T06:54:48Z</time>
      </trkpt>
      <trkpt lat="45.71336" lon="6.90592">
        <ele>1865</ele>
        <time>2019-10-06T06:54:50Z</time>
      </trkpt>
      <trkpt lat="45.71337" lon="6.90595">
        <ele>1865</ele>
        <time>2019-10-06T06:54:52Z</time>
      </trkpt>
      <trkpt lat="45.71338" lon="6.90598">
        <ele>1866</ele>
        <time>2019-10-06T06:54:54Z</time>
      </trkpt>
      <trkpt lat="45.7134" lon="6.90601">
        <ele>1866</ele>
        <time>2019-10-06T06:54:56Z</time>
      </trkpt>
      <trkpt lat="45.7134" lon="6.90605">
        <ele>1866</ele>
        <time>2019-10-06T06:54:58Z</time>
      </trkpt>
      <trkpt lat="45.71341" lon="6.90609">
        <ele>1867</ele>
        <time>2019-10-06T06:55:00Z</time>
      </trkpt>
      <trkpt lat="45.71342" lon="6.90613">
        <ele>1868</ele>
        <time>2019-10-06T06:55:02Z</time>
      </trkpt>
      <trkpt lat="45.71343" lon="6.90616">
        <ele>1868</ele>
        <time>2019-10-06T06:55:04Z</time>
      </trkpt>
      <trkpt lat="45.71344" lon="6.90619">
        <ele>1868</ele>
        <time>2019-10-06T06:55:06Z</time>
      </trkpt>
      <trkpt lat="45.71345" lon="6.90624">
        <ele>1868</ele>
        <time>2019-10-06T06:55:08Z</time>
      </trkpt>
      <trkpt lat="45.71345" lon="6.90629">
        <ele>1868</ele>
        <time>2019-10-06T06:55:10Z</time>
      </trkpt>
      <trkpt lat="45.71345" lon="6.90634">
        <ele>1868</ele>
        <time>2019-10-06T06:55:12Z</time>
      </trkpt>
      <trkpt lat="45.71346" lon="6.90638">
        <ele>1868</ele>
        <time>2019-10-06T06:55:14Z</time>
      </trkpt>
      <trkpt lat="45.71346" lon="6.90642">
        <ele>1868</ele>
        <time>2019-10-06T06:55:16Z</time>
      </trkpt>
      <trkpt lat="45.71347" lon="6.90645">
        <ele>1868</ele>
        <time>2019-10-06T06:55:18Z</time>
      </trkpt>
      <trkpt lat="45.71347" lon="6.90649">
        <ele>1869</ele>
        <time>2019-10-06T06:55:20Z</time>
      </trkpt>
      <trkpt lat="45.71347" lon="6.90652">
        <ele>1869</ele>
        <time>2019-10-06T06:55:22Z</time>
      </trkpt>
      <trkpt lat="45.71348" lon="6.90656">
        <ele>1870</ele>
        <time>2019-10-06T06:55:24Z</time>
      </trkpt>
      <trkpt lat="45.71349" lon="6.9066">
        <ele>1871</ele>
        <time>2019-10-06T06:55:26Z</time>
      </trkpt>
      <trkpt lat="45.7135" lon="6.90663">
        <ele>1871</ele>
        <time>2019-10-06T06:55:28Z</time>
      </trkpt>
      <trkpt lat="45.71351" lon="6.90666">
        <ele>1871</ele>
        <time>2019-10-06T06:55:30Z</time>
      </trkpt>
      <trkpt lat="45.71352" lon="6.90669">
        <ele>1872</ele>
        <time>2019-10-06T06:55:32Z</time>
      </trkpt>
      <trkpt lat="45.71353" lon="6.90673">
        <ele>1872</ele>
        <time>2019-10-06T06:55:35Z</time>
      </trkpt>
      <trkpt lat="45.71353" lon="6.90673">
        <ele>1873</ele>
        <time>2019-10-06T06:55:36Z</time>
      </trkpt>
      <trkpt lat="45.71353" lon="6.90676">
        <ele>1873</ele>
        <time>2019-10-06T06:55:38Z</time>
      </trkpt>
      <trkpt lat="45.71353" lon="6.90679">
        <ele>1874</ele>
        <time>2019-10-06T06:55:40Z</time>
      </trkpt>
      <trkpt lat="45.71354" lon="6.90682">
        <ele>1875</ele>
        <time>2019-10-06T06:55:42Z</time>
      </trkpt>
      <trkpt lat="45.71356" lon="6.90685">
        <ele>1875</ele>
        <time>2019-10-06T06:55:44Z</time>
      </trkpt>
      <trkpt lat="45.71357" lon="6.90687">
        <ele>1875</ele>
        <time>2019-10-06T06:55:46Z</time>
      </trkpt>
      <trkpt lat="45.71357" lon="6.90689">
        <ele>1875</ele>
        <time>2019-10-06T06:55:48Z</time>
      </trkpt>
      <trkpt lat="45.71359" lon="6.90692">
        <ele>1876</ele>
        <time>2019-10-06T06:55:50Z</time>
      </trkpt>
      <trkpt lat="45.7136" lon="6.90694">
        <ele>1877</ele>
        <time>2019-10-06T06:55:52Z</time>
      </trkpt>
      <trkpt lat="45.7136" lon="6.90694">
        <ele>1877</ele>
        <time>2019-10-06T06:55:54Z</time>
      </trkpt>
      <trkpt lat="45.71361" lon="6.90696">
        <ele>1877</ele>
        <time>2019-10-06T06:55:55Z</time>
      </trkpt>
      <trkpt lat="45.71363" lon="6.90696">
        <ele>1877</ele>
        <time>2019-10-06T06:55:58Z</time>
      </trkpt>
      <trkpt lat="45.71363" lon="6.90696">
        <ele>1878</ele>
        <time>2019-10-06T06:56:00Z</time>
      </trkpt>
      <trkpt lat="45.71364" lon="6.90693">
        <ele>1879</ele>
        <time>2019-10-06T06:56:03Z</time>
      </trkpt>
      <trkpt lat="45.71364" lon="6.90693">
        <ele>1879</ele>
        <time>2019-10-06T06:56:05Z</time>
      </trkpt>
      <trkpt lat="45.71364" lon="6.9069">
        <ele>1880</ele>
        <time>2019-10-06T06:56:06Z</time>
      </trkpt>
      <trkpt lat="45.71365" lon="6.90688">
        <ele>1880</ele>
        <time>2019-10-06T06:56:08Z</time>
      </trkpt>
      <trkpt lat="45.71366" lon="6.90685">
        <ele>1881</ele>
        <time>2019-10-06T06:56:11Z</time>
      </trkpt>
      <trkpt lat="45.71366" lon="6.90685">
        <ele>1881</ele>
        <time>2019-10-06T06:56:12Z</time>
      </trkpt>
      <trkpt lat="45.71366" lon="6.90682">
        <ele>1881</ele>
        <time>2019-10-06T06:56:14Z</time>
      </trkpt>
      <trkpt lat="45.71366" lon="6.90682">
        <ele>1881</ele>
        <time>2019-10-06T06:56:17Z</time>
      </trkpt>
      <trkpt lat="45.71367" lon="6.90679">
        <ele>1882</ele>
        <time>2019-10-06T06:56:19Z</time>
      </trkpt>
      <trkpt lat="45.71369" lon="6.90677">
        <ele>1882</ele>
        <time>2019-10-06T06:56:22Z</time>
      </trkpt>
      <trkpt lat="45.71369" lon="6.90677">
        <ele>1882</ele>
        <time>2019-10-06T06:56:23Z</time>
      </trkpt>
      <trkpt lat="45.7137" lon="6.90674">
        <ele>1883</ele>
        <time>2019-10-06T06:56:25Z</time>
      </trkpt>
      <trkpt lat="45.71371" lon="6.90672">
        <ele>1884</ele>
        <time>2019-10-06T06:56:28Z</time>
      </trkpt>
      <trkpt lat="45.71371" lon="6.90672">
        <ele>1884</ele>
        <time>2019-10-06T06:56:29Z</time>
      </trkpt>
      <trkpt lat="45.71373" lon="6.90669">
        <ele>1884</ele>
        <time>2019-10-06T06:56:32Z</time>
      </trkpt>
      <trkpt lat="45.71373" lon="6.90669">
        <ele>1885</ele>
        <time>2019-10-06T06:56:34Z</time>
      </trkpt>
      <trkpt lat="45.71375" lon="6.90667">
        <ele>1885</ele>
        <time>2019-10-06T06:56:35Z</time>
      </trkpt>
      <trkpt lat="45.71376" lon="6.90665">
        <ele>1885</ele>
        <time>2019-10-06T06:56:38Z</time>
      </trkpt>
      <trkpt lat="45.71376" lon="6.90665">
        <ele>1887</ele>
        <time>2019-10-06T06:56:40Z</time>
      </trkpt>
      <trkpt lat="45.71378" lon="6.90663">
        <ele>1887</ele>
        <time>2019-10-06T06:56:42Z</time>
      </trkpt>
      <trkpt lat="45.71379" lon="6.90661">
        <ele>1888</ele>
        <time>2019-10-06T06:56:44Z</time>
      </trkpt>
      <trkpt lat="45.71379" lon="6.90661">
        <ele>1888</ele>
        <time>2019-10-06T06:56:46Z</time>
      </trkpt>
      <trkpt lat="45.71381" lon="6.90658">
        <ele>1888</ele>
        <time>2019-10-06T06:56:47Z</time>
      </trkpt>
      <trkpt lat="45.71382" lon="6.90655">
        <ele>1889</ele>
        <time>2019-10-06T06:56:50Z</time>
      </trkpt>
      <trkpt lat="45.71383" lon="6.90653">
        <ele>1889</ele>
        <time>2019-10-06T06:56:52Z</time>
      </trkpt>
      <trkpt lat="45.71385" lon="6.9065">
        <ele>1889</ele>
        <time>2019-10-06T06:56:54Z</time>
      </trkpt>
      <trkpt lat="45.71385" lon="6.9065">
        <ele>1890</ele>
        <time>2019-10-06T06:56:56Z</time>
      </trkpt>
      <trkpt lat="45.71386" lon="6.90647">
        <ele>1890</ele>
        <time>2019-10-06T06:56:57Z</time>
      </trkpt>
      <trkpt lat="45.71387" lon="6.90644">
        <ele>1890</ele>
        <time>2019-10-06T06:56:59Z</time>
      </trkpt>
      <trkpt lat="45.71389" lon="6.90642">
        <ele>1891</ele>
        <time>2019-10-06T06:57:02Z</time>
      </trkpt>
      <trkpt lat="45.71389" lon="6.90642">
        <ele>1891</ele>
        <time>2019-10-06T06:57:03Z</time>
      </trkpt>
      <trkpt lat="45.7139" lon="6.9064">
        <ele>1892</ele>
        <time>2019-10-06T06:57:05Z</time>
      </trkpt>
      <trkpt lat="45.7139" lon="6.9064">
        <ele>1893</ele>
        <time>2019-10-06T06:57:08Z</time>
      </trkpt>
      <trkpt lat="45.71392" lon="6.90638">
        <ele>1893</ele>
        <time>2019-10-06T06:57:09Z</time>
      </trkpt>
      <trkpt lat="45.71393" lon="6.90636">
        <ele>1893</ele>
        <time>2019-10-06T06:57:12Z</time>
      </trkpt>
      <trkpt lat="45.71393" lon="6.90636">
        <ele>1893</ele>
        <time>2019-10-06T06:57:14Z</time>
      </trkpt>
      <trkpt lat="45.71395" lon="6.90634">
        <ele>1894</ele>
        <time>2019-10-06T06:57:16Z</time>
      </trkpt>
      <trkpt lat="45.71395" lon="6.9063">
        <ele>1895</ele>
        <time>2019-10-06T06:57:19Z</time>
      </trkpt>
      <trkpt lat="45.71395" lon="6.9063">
        <ele>1895</ele>
        <time>2019-10-06T06:57:20Z</time>
      </trkpt>
      <trkpt lat="45.71395" lon="6.90627">
        <ele>1895</ele>
        <time>2019-10-06T06:57:22Z</time>
      </trkpt>
      <trkpt lat="45.71395" lon="6.90627">
        <ele>1896</ele>
        <time>2019-10-06T06:57:25Z</time>
      </trkpt>
      <trkpt lat="45.71396" lon="6.90625">
        <ele>1896</ele>
        <time>2019-10-06T06:57:26Z</time>
      </trkpt>
      <trkpt lat="45.71398" lon="6.90623">
        <ele>1898</ele>
        <time>2019-10-06T06:57:30Z</time>
      </trkpt>
      <trkpt lat="45.71398" lon="6.90623">
        <ele>1898</ele>
        <time>2019-10-06T06:57:31Z</time>
      </trkpt>
      <trkpt lat="45.71399" lon="6.90619">
        <ele>1898</ele>
        <time>2019-10-06T06:57:34Z</time>
      </trkpt>
      <trkpt lat="45.71399" lon="6.90619">
        <ele>1899</ele>
        <time>2019-10-06T06:57:36Z</time>
      </trkpt>
      <trkpt lat="45.714" lon="6.90617">
        <ele>1899</ele>
        <time>2019-10-06T06:57:37Z</time>
      </trkpt>
      <trkpt lat="45.71402" lon="6.90615">
        <ele>1900</ele>
        <time>2019-10-06T06:57:40Z</time>
      </trkpt>
      <trkpt lat="45.71402" lon="6.90615">
        <ele>1900</ele>
        <time>2019-10-06T06:57:42Z</time>
      </trkpt>
      <trkpt lat="45.71403" lon="6.90613">
        <ele>1901</ele>
        <time>2019-10-06T06:57:44Z</time>
      </trkpt>
      <trkpt lat="45.71404" lon="6.90611">
        <ele>1902</ele>
        <time>2019-10-06T06:57:47Z</time>
      </trkpt>
      <trkpt lat="45.71404" lon="6.90611">
        <ele>1902</ele>
        <time>2019-10-06T06:57:48Z</time>
      </trkpt>
      <trkpt lat="45.71406" lon="6.90609">
        <ele>1902</ele>
        <time>2019-10-06T06:57:51Z</time>
      </trkpt>
      <trkpt lat="45.71406" lon="6.90609">
        <ele>1903</ele>
        <time>2019-10-06T06:57:53Z</time>
      </trkpt>
      <trkpt lat="45.71408" lon="6.90607">
        <ele>1903</ele>
        <time>2019-10-06T06:57:54Z</time>
      </trkpt>
      <trkpt lat="45.71409" lon="6.90604">
        <ele>1904</ele>
        <time>2019-10-06T06:57:57Z</time>
      </trkpt>
      <trkpt lat="45.71409" lon="6.90604">
        <ele>1905</ele>
        <time>2019-10-06T06:57:59Z</time>
      </trkpt>
      <trkpt lat="45.7141" lon="6.90603">
        <ele>1905</ele>
        <time>2019-10-06T06:58:00Z</time>
      </trkpt>
      <trkpt lat="45.71411" lon="6.906">
        <ele>1906</ele>
        <time>2019-10-06T06:58:03Z</time>
      </trkpt>
      <trkpt lat="45.71411" lon="6.906">
        <ele>1906</ele>
        <time>2019-10-06T06:58:05Z</time>
      </trkpt>
      <trkpt lat="45.71413" lon="6.90598">
        <ele>1906</ele>
        <time>2019-10-06T06:58:06Z</time>
      </trkpt>
      <trkpt lat="45.71415" lon="6.90597">
        <ele>1907</ele>
        <time>2019-10-06T06:58:09Z</time>
      </trkpt>
      <trkpt lat="45.71415" lon="6.90597">
        <ele>1907</ele>
        <time>2019-10-06T06:58:11Z</time>
      </trkpt>
      <trkpt lat="45.71417" lon="6.90597">
        <ele>1907</ele>
        <time>2019-10-06T06:58:12Z</time>
      </trkpt>
      <trkpt lat="45.71419" lon="6.90598">
        <ele>1909</ele>
        <time>2019-10-06T06:58:15Z</time>
      </trkpt>
      <trkpt lat="45.71419" lon="6.90598">
        <ele>1910</ele>
        <time>2019-10-06T06:58:17Z</time>
      </trkpt>
      <trkpt lat="45.71421" lon="6.906">
        <ele>1910</ele>
        <time>2019-10-06T06:58:18Z</time>
      </trkpt>
      <trkpt lat="45.71423" lon="6.90602">
        <ele>1911</ele>
        <time>2019-10-06T06:58:21Z</time>
      </trkpt>
      <trkpt lat="45.71424" lon="6.90604">
        <ele>1911</ele>
        <time>2019-10-06T06:58:23Z</time>
      </trkpt>
      <trkpt lat="45.71425" lon="6.90607">
        <ele>1911</ele>
        <time>2019-10-06T06:58:25Z</time>
      </trkpt>
      <trkpt lat="45.71425" lon="6.9061">
        <ele>1912</ele>
        <time>2019-10-06T06:58:27Z</time>
      </trkpt>
      <trkpt lat="45.71426" lon="6.90613">
        <ele>1912</ele>
        <time>2019-10-06T06:58:29Z</time>
      </trkpt>
      <trkpt lat="45.71426" lon="6.90613">
        <ele>1913</ele>
        <time>2019-10-06T06:58:31Z</time>
      </trkpt>
      <trkpt lat="45.71427" lon="6.90617">
        <ele>1913</ele>
        <time>2019-10-06T06:58:32Z</time>
      </trkpt>
      <trkpt lat="45.71427" lon="6.90619">
        <ele>1914</ele>
        <time>2019-10-06T06:58:34Z</time>
      </trkpt>
      <trkpt lat="45.71428" lon="6.90622">
        <ele>1915</ele>
        <time>2019-10-06T06:58:36Z</time>
      </trkpt>
      <trkpt lat="45.71428" lon="6.90622">
        <ele>1915</ele>
        <time>2019-10-06T06:58:38Z</time>
      </trkpt>
      <trkpt lat="45.71429" lon="6.90625">
        <ele>1915</ele>
        <time>2019-10-06T06:58:39Z</time>
      </trkpt>
      <trkpt lat="45.71429" lon="6.90628">
        <ele>1915</ele>
        <time>2019-10-06T06:58:41Z</time>
      </trkpt>
      <trkpt lat="45.7143" lon="6.90632">
        <ele>1916</ele>
        <time>2019-10-06T06:58:44Z</time>
      </trkpt>
      <trkpt lat="45.7143" lon="6.90632">
        <ele>1916</ele>
        <time>2019-10-06T06:58:45Z</time>
      </trkpt>
      <trkpt lat="45.7143" lon="6.90636">
        <ele>1916</ele>
        <time>2019-10-06T06:58:47Z</time>
      </trkpt>
      <trkpt lat="45.71431" lon="6.90639">
        <ele>1916</ele>
        <time>2019-10-06T06:58:50Z</time>
      </trkpt>
      <trkpt lat="45.71431" lon="6.90639">
        <ele>1917</ele>
        <time>2019-10-06T06:58:51Z</time>
      </trkpt>
      <trkpt lat="45.71431" lon="6.90642">
        <ele>1918</ele>
        <time>2019-10-06T06:58:53Z</time>
      </trkpt>
      <trkpt lat="45.71431" lon="6.90645">
        <ele>1918</ele>
        <time>2019-10-06T06:58:56Z</time>
      </trkpt>
      <trkpt lat="45.71431" lon="6.90645">
        <ele>1918</ele>
        <time>2019-10-06T06:58:57Z</time>
      </trkpt>
      <trkpt lat="45.71432" lon="6.90649">
        <ele>1919</ele>
        <time>2019-10-06T06:58:59Z</time>
      </trkpt>
      <trkpt lat="45.71432" lon="6.90649">
        <ele>1919</ele>
        <time>2019-10-06T06:59:02Z</time>
      </trkpt>
      <trkpt lat="45.71432" lon="6.90652">
        <ele>1919</ele>
        <time>2019-10-06T06:59:03Z</time>
      </trkpt>
      <trkpt lat="45.71432" lon="6.90652">
        <ele>1919</ele>
        <time>2019-10-06T06:59:07Z</time>
      </trkpt>
      <trkpt lat="45.71433" lon="6.90655">
        <ele>1919</ele>
        <time>2019-10-06T06:59:08Z</time>
      </trkpt>
      <trkpt lat="45.71434" lon="6.90658">
        <ele>1920</ele>
        <time>2019-10-06T06:59:12Z</time>
      </trkpt>
      <trkpt lat="45.71434" lon="6.90658">
        <ele>1920</ele>
        <time>2019-10-06T06:59:13Z</time>
      </trkpt>
      <trkpt lat="45.71434" lon="6.90658">
        <ele>1920</ele>
        <time>2019-10-06T06:59:17Z</time>
      </trkpt>
      <trkpt lat="45.71434" lon="6.90658">
        <ele>1922</ele>
        <time>2019-10-06T06:59:21Z</time>
      </trkpt>
      <trkpt lat="45.71435" lon="6.90661">
        <ele>1922</ele>
        <time>2019-10-06T06:59:22Z</time>
      </trkpt>
      <trkpt lat="45.71436" lon="6.90664">
        <ele>1922</ele>
        <time>2019-10-06T06:59:26Z</time>
      </trkpt>
      <trkpt lat="45.71436" lon="6.90664">
        <ele>1922</ele>
        <time>2019-10-06T06:59:27Z</time>
      </trkpt>
      <trkpt lat="45.71436" lon="6.90664">
        <ele>1924</ele>
        <time>2019-10-06T06:59:31Z</time>
      </trkpt>
      <trkpt lat="45.71436" lon="6.90667">
        <ele>1924</ele>
        <time>2019-10-06T06:59:34Z</time>
      </trkpt>
      <trkpt lat="45.71436" lon="6.90667">
        <ele>1924</ele>
        <time>2019-10-06T06:59:36Z</time>
      </trkpt>
      <trkpt lat="45.71437" lon="6.9067">
        <ele>1924</ele>
        <time>2019-10-06T06:59:38Z</time>
      </trkpt>
      <trkpt lat="45.71437" lon="6.9067">
        <ele>1924</ele>
        <time>2019-10-06T06:59:41Z</time>
      </trkpt>
      <trkpt lat="45.71438" lon="6.90672">
        <ele>1924</ele>
        <time>2019-10-06T06:59:44Z</time>
      </trkpt>
      <trkpt lat="45.71438" lon="6.90672">
        <ele>1924</ele>
        <time>2019-10-06T06:59:46Z</time>
      </trkpt>
      <trkpt lat="45.71439" lon="6.90675">
        <ele>1924</ele>
        <time>2019-10-06T06:59:48Z</time>
      </trkpt>
      <trkpt lat="45.71439" lon="6.90675">
        <ele>1924</ele>
        <time>2019-10-06T06:59:51Z</time>
      </trkpt>
      <trkpt lat="45.7144" lon="6.90678">
        <ele>1924</ele>
        <time>2019-10-06T06:59:52Z</time>
      </trkpt>
      <trkpt lat="45.7144" lon="6.90678">
        <ele>1925</ele>
        <time>2019-10-06T06:59:56Z</time>
      </trkpt>
      <trkpt lat="45.71442" lon="6.90679">
        <ele>1925</ele>
        <time>2019-10-06T06:59:58Z</time>
      </trkpt>
      <trkpt lat="45.71442" lon="6.90679">
        <ele>1926</ele>
        <time>2019-10-06T07:00:01Z</time>
      </trkpt>
      <trkpt lat="45.71442" lon="6.90679">
        <ele>1927</ele>
        <time>2019-10-06T07:00:05Z</time>
      </trkpt>
      <trkpt lat="45.71444" lon="6.90681">
        <ele>1928</ele>
        <time>2019-10-06T07:00:06Z</time>
      </trkpt>
      <trkpt lat="45.71444" lon="6.90684">
        <ele>1929</ele>
        <time>2019-10-06T07:00:10Z</time>
      </trkpt>
      <trkpt lat="45.71444" lon="6.90684">
        <ele>1930</ele>
        <time>2019-10-06T07:00:11Z</time>
      </trkpt>
      <trkpt lat="45.71445" lon="6.90687">
        <ele>1931</ele>
        <time>2019-10-06T07:00:14Z</time>
      </trkpt>
      <trkpt lat="45.71445" lon="6.90687">
        <ele>1931</ele>
        <time>2019-10-06T07:00:16Z</time>
      </trkpt>
      <trkpt lat="45.71445" lon="6.9069">
        <ele>1932</ele>
        <time>2019-10-06T07:00:17Z</time>
      </trkpt>
      <trkpt lat="45.71447" lon="6.90693">
        <ele>1931</ele>
        <time>2019-10-06T07:00:20Z</time>
      </trkpt>
      <trkpt lat="45.71447" lon="6.90693">
        <ele>1932</ele>
        <time>2019-10-06T07:00:22Z</time>
      </trkpt>
      <trkpt lat="45.71447" lon="6.90696">
        <ele>1932</ele>
        <time>2019-10-06T07:00:26Z</time>
      </trkpt>
      <trkpt lat="45.71447" lon="6.90696">
        <ele>1932</ele>
        <time>2019-10-06T07:00:27Z</time>
      </trkpt>
      <trkpt lat="45.71447" lon="6.90696">
        <ele>1933</ele>
        <time>2019-10-06T07:00:31Z</time>
      </trkpt>
      <trkpt lat="45.71447" lon="6.90698">
        <ele>1933</ele>
        <time>2019-10-06T07:00:34Z</time>
      </trkpt>
      <trkpt lat="45.71447" lon="6.90698">
        <ele>1934</ele>
        <time>2019-10-06T07:00:36Z</time>
      </trkpt>
      <trkpt lat="45.71448" lon="6.907">
        <ele>1934</ele>
        <time>2019-10-06T07:00:39Z</time>
      </trkpt>
      <trkpt lat="45.71448" lon="6.907">
        <ele>1935</ele>
        <time>2019-10-06T07:00:41Z</time>
      </trkpt>
      <trkpt lat="45.7145" lon="6.90703">
        <ele>1935</ele>
        <time>2019-10-06T07:00:42Z</time>
      </trkpt>
      <trkpt lat="45.71451" lon="6.90706">
        <ele>1937</ele>
        <time>2019-10-06T07:00:46Z</time>
      </trkpt>
      <trkpt lat="45.71451" lon="6.90706">
        <ele>1937</ele>
        <time>2019-10-06T07:00:47Z</time>
      </trkpt>
      <trkpt lat="45.71451" lon="6.90706">
        <ele>1937</ele>
        <time>2019-10-06T07:00:51Z</time>
      </trkpt>
      <trkpt lat="45.71453" lon="6.90704">
        <ele>1938</ele>
        <time>2019-10-06T07:00:54Z</time>
      </trkpt>
      <trkpt lat="45.71453" lon="6.90704">
        <ele>1939</ele>
        <time>2019-10-06T07:00:56Z</time>
      </trkpt>
      <trkpt lat="45.71453" lon="6.90704">
        <ele>1939</ele>
        <time>2019-10-06T07:01:00Z</time>
      </trkpt>
      <trkpt lat="45.71454" lon="6.90702">
        <ele>1939</ele>
        <time>2019-10-06T07:01:02Z</time>
      </trkpt>
      <trkpt lat="45.71454" lon="6.90702">
        <ele>1939</ele>
        <time>2019-10-06T07:01:05Z</time>
      </trkpt>
      <trkpt lat="45.71456" lon="6.90699">
        <ele>1939</ele>
        <time>2019-10-06T07:01:06Z</time>
      </trkpt>
      <trkpt lat="45.71456" lon="6.90699">
        <ele>1941</ele>
        <time>2019-10-06T07:01:10Z</time>
      </trkpt>
      <trkpt lat="45.71458" lon="6.90699">
        <ele>1942</ele>
        <time>2019-10-06T07:01:12Z</time>
      </trkpt>
      <trkpt lat="45.71458" lon="6.90699">
        <ele>1942</ele>
        <time>2019-10-06T07:01:15Z</time>
      </trkpt>
      <trkpt lat="45.71459" lon="6.90697">
        <ele>1943</ele>
        <time>2019-10-06T07:01:18Z</time>
      </trkpt>
      <trkpt lat="45.71459" lon="6.90697">
        <ele>1943</ele>
        <time>2019-10-06T07:01:20Z</time>
      </trkpt>
      <trkpt lat="45.71461" lon="6.90695">
        <ele>1943</ele>
        <time>2019-10-06T07:01:22Z</time>
      </trkpt>
      <trkpt lat="45.71461" lon="6.90695">
        <ele>1944</ele>
        <time>2019-10-06T07:01:25Z</time>
      </trkpt>
      <trkpt lat="45.71462" lon="6.90694">
        <ele>1945</ele>
        <time>2019-10-06T07:01:26Z</time>
      </trkpt>
      <trkpt lat="45.71463" lon="6.90691">
        <ele>1945</ele>
        <time>2019-10-06T07:01:30Z</time>
      </trkpt>
      <trkpt lat="45.71463" lon="6.90691">
        <ele>1945</ele>
        <time>2019-10-06T07:01:31Z</time>
      </trkpt>
      <trkpt lat="45.71464" lon="6.90688">
        <ele>1945</ele>
        <time>2019-10-06T07:01:32Z</time>
      </trkpt>
      <trkpt lat="45.71465" lon="6.90686">
        <ele>1945</ele>
        <time>2019-10-06T07:01:34Z</time>
      </trkpt>
      <trkpt lat="45.71467" lon="6.90683">
        <ele>1946</ele>
        <time>2019-10-06T07:01:37Z</time>
      </trkpt>
      <trkpt lat="45.71467" lon="6.90683">
        <ele>1946</ele>
        <time>2019-10-06T07:01:38Z</time>
      </trkpt>
      <trkpt lat="45.71468" lon="6.9068">
        <ele>1947</ele>
        <time>2019-10-06T07:01:39Z</time>
      </trkpt>
      <trkpt lat="45.71469" lon="6.90678">
        <ele>1947</ele>
        <time>2019-10-06T07:01:42Z</time>
      </trkpt>
      <trkpt lat="45.71469" lon="6.90678">
        <ele>1949</ele>
        <time>2019-10-06T07:01:44Z</time>
      </trkpt>
      <trkpt lat="45.71469" lon="6.90675">
        <ele>1949</ele>
        <time>2019-10-06T07:01:45Z</time>
      </trkpt>
      <trkpt lat="45.7147" lon="6.90672">
        <ele>1949</ele>
        <time>2019-10-06T07:01:49Z</time>
      </trkpt>
      <trkpt lat="45.7147" lon="6.90672">
        <ele>1950</ele>
        <time>2019-10-06T07:01:50Z</time>
      </trkpt>
      <trkpt lat="45.71471" lon="6.90669">
        <ele>1951</ele>
        <time>2019-10-06T07:01:53Z</time>
      </trkpt>
      <trkpt lat="45.71471" lon="6.90669">
        <ele>1951</ele>
        <time>2019-10-06T07:01:55Z</time>
      </trkpt>
      <trkpt lat="45.71472" lon="6.90667">
        <ele>1952</ele>
        <time>2019-10-06T07:01:56Z</time>
      </trkpt>
      <trkpt lat="45.71472" lon="6.90667">
        <ele>1952</ele>
        <time>2019-10-06T07:02:00Z</time>
      </trkpt>
      <trkpt lat="45.71473" lon="6.90665">
        <ele>1953</ele>
        <time>2019-10-06T07:02:01Z</time>
      </trkpt>
      <trkpt lat="45.71475" lon="6.90662">
        <ele>1953</ele>
        <time>2019-10-06T07:02:05Z</time>
      </trkpt>
      <trkpt lat="45.71475" lon="6.90662">
        <ele>1953</ele>
        <time>2019-10-06T07:02:06Z</time>
      </trkpt>
      <trkpt lat="45.71476" lon="6.9066">
        <ele>1954</ele>
        <time>2019-10-06T07:02:09Z</time>
      </trkpt>
      <trkpt lat="45.71476" lon="6.9066">
        <ele>1954</ele>
        <time>2019-10-06T07:02:11Z</time>
      </trkpt>
      <trkpt lat="45.71478" lon="6.90659">
        <ele>1954</ele>
        <time>2019-10-06T07:02:14Z</time>
      </trkpt>
      <trkpt lat="45.71478" lon="6.90659">
        <ele>1954</ele>
        <time>2019-10-06T07:02:16Z</time>
      </trkpt>
      <trkpt lat="45.7148" lon="6.90658">
        <ele>1954</ele>
        <time>2019-10-06T07:02:18Z</time>
      </trkpt>
      <trkpt lat="45.7148" lon="6.90658">
        <ele>1954</ele>
        <time>2019-10-06T07:02:21Z</time>
      </trkpt>
      <trkpt lat="45.71482" lon="6.90657">
        <ele>1954</ele>
        <time>2019-10-06T07:02:22Z</time>
      </trkpt>
      <trkpt lat="45.71483" lon="6.90655">
        <ele>1957</ele>
        <time>2019-10-06T07:02:26Z</time>
      </trkpt>
      <trkpt lat="45.71483" lon="6.90655">
        <ele>1958</ele>
        <time>2019-10-06T07:02:27Z</time>
      </trkpt>
      <trkpt lat="45.71484" lon="6.90653">
        <ele>1958</ele>
        <time>2019-10-06T07:02:29Z</time>
      </trkpt>
      <trkpt lat="45.71485" lon="6.9065">
        <ele>1959</ele>
        <time>2019-10-06T07:02:31Z</time>
      </trkpt>
      <trkpt lat="45.71487" lon="6.90648">
        <ele>1959</ele>
        <time>2019-10-06T07:02:33Z</time>
      </trkpt>
      <trkpt lat="45.71488" lon="6.90644">
        <ele>1960</ele>
        <time>2019-10-06T07:02:36Z</time>
      </trkpt>
      <trkpt lat="45.71488" lon="6.90644">
        <ele>1960</ele>
        <time>2019-10-06T07:02:37Z</time>
      </trkpt>
      <trkpt lat="45.71489" lon="6.90641">
        <ele>1962</ele>
        <time>2019-10-06T07:02:39Z</time>
      </trkpt>
      <trkpt lat="45.71489" lon="6.90639">
        <ele>1963</ele>
        <time>2019-10-06T07:02:41Z</time>
      </trkpt>
      <trkpt lat="45.71489" lon="6.90639">
        <ele>1963</ele>
        <time>2019-10-06T07:02:43Z</time>
      </trkpt>
      <trkpt lat="45.71491" lon="6.90637">
        <ele>1964</ele>
        <time>2019-10-06T07:02:44Z</time>
      </trkpt>
      <trkpt lat="45.71492" lon="6.90634">
        <ele>1964</ele>
        <time>2019-10-06T07:02:47Z</time>
      </trkpt>
      <trkpt lat="45.71492" lon="6.90634">
        <ele>1964</ele>
        <time>2019-10-06T07:02:49Z</time>
      </trkpt>
      <trkpt lat="45.71494" lon="6.90631">
        <ele>1964</ele>
        <time>2019-10-06T07:02:50Z</time>
      </trkpt>
      <trkpt lat="45.71495" lon="6.90628">
        <ele>1965</ele>
        <time>2019-10-06T07:02:52Z</time>
      </trkpt>
      <trkpt lat="45.71497" lon="6.90626">
        <ele>1965</ele>
        <time>2019-10-06T07:02:55Z</time>
      </trkpt>
      <trkpt lat="45.71497" lon="6.90626">
        <ele>1965</ele>
        <time>2019-10-06T07:02:56Z</time>
      </trkpt>
      <trkpt lat="45.71499" lon="6.90625">
        <ele>1966</ele>
        <time>2019-10-06T07:02:59Z</time>
      </trkpt>
      <trkpt lat="45.71499" lon="6.90625">
        <ele>1966</ele>
        <time>2019-10-06T07:03:01Z</time>
      </trkpt>
      <trkpt lat="45.71501" lon="6.90628">
        <ele>1968</ele>
        <time>2019-10-06T07:03:04Z</time>
      </trkpt>
      <trkpt lat="45.71501" lon="6.90628">
        <ele>1968</ele>
        <time>2019-10-06T07:03:06Z</time>
      </trkpt>
      <trkpt lat="45.71502" lon="6.90631">
        <ele>1968</ele>
        <time>2019-10-06T07:03:07Z</time>
      </trkpt>
      <trkpt lat="45.71503" lon="6.90634">
        <ele>1968</ele>
        <time>2019-10-06T07:03:09Z</time>
      </trkpt>
      <trkpt lat="45.71503" lon="6.90636">
        <ele>1968</ele>
        <time>2019-10-06T07:03:11Z</time>
      </trkpt>
      <trkpt lat="45.71504" lon="6.90639">
        <ele>1968</ele>
        <time>2019-10-06T07:03:13Z</time>
      </trkpt>
      <trkpt lat="45.71506" lon="6.90641">
        <ele>1969</ele>
        <time>2019-10-06T07:03:15Z</time>
      </trkpt>
      <trkpt lat="45.71509" lon="6.90644">
        <ele>1969</ele>
        <time>2019-10-06T07:03:17Z</time>
      </trkpt>
      <trkpt lat="45.7151" lon="6.90646">
        <ele>1970</ele>
        <time>2019-10-06T07:03:19Z</time>
      </trkpt>
      <trkpt lat="45.7151" lon="6.90646">
        <ele>1971</ele>
        <time>2019-10-06T07:03:21Z</time>
      </trkpt>
      <trkpt lat="45.71511" lon="6.90648">
        <ele>1971</ele>
        <time>2019-10-06T07:03:22Z</time>
      </trkpt>
      <trkpt lat="45.71511" lon="6.90648">
        <ele>1970</ele>
        <time>2019-10-06T07:03:26Z</time>
      </trkpt>
      <trkpt lat="45.71513" lon="6.90649">
        <ele>1971</ele>
        <time>2019-10-06T07:03:27Z</time>
      </trkpt>
      <trkpt lat="45.71515" lon="6.9065">
        <ele>1973</ele>
        <time>2019-10-06T07:03:29Z</time>
      </trkpt>
      <trkpt lat="45.71516" lon="6.90653">
        <ele>1973</ele>
        <time>2019-10-06T07:03:31Z</time>
      </trkpt>
      <trkpt lat="45.71516" lon="6.90653">
        <ele>1973</ele>
        <time>2019-10-06T07:03:33Z</time>
      </trkpt>
      <trkpt lat="45.71517" lon="6.90655">
        <ele>1974</ele>
        <time>2019-10-06T07:03:34Z</time>
      </trkpt>
      <trkpt lat="45.71518" lon="6.90658">
        <ele>1974</ele>
        <time>2019-10-06T07:03:37Z</time>
      </trkpt>
      <trkpt lat="45.71518" lon="6.90658">
        <ele>1975</ele>
        <time>2019-10-06T07:03:39Z</time>
      </trkpt>
      <trkpt lat="45.71518" lon="6.90661">
        <ele>1975</ele>
        <time>2019-10-06T07:03:40Z</time>
      </trkpt>
      <trkpt lat="45.71519" lon="6.90663">
        <ele>1975</ele>
        <time>2019-10-06T07:03:42Z</time>
      </trkpt>
      <trkpt lat="45.7152" lon="6.90666">
        <ele>1976</ele>
        <time>2019-10-06T07:03:44Z</time>
      </trkpt>
      <trkpt lat="45.7152" lon="6.90666">
        <ele>1977</ele>
        <time>2019-10-06T07:03:46Z</time>
      </trkpt>
      <trkpt lat="45.71521" lon="6.90668">
        <ele>1977</ele>
        <time>2019-10-06T07:03:47Z</time>
      </trkpt>
      <trkpt lat="45.71522" lon="6.90671">
        <ele>1978</ele>
        <time>2019-10-06T07:03:51Z</time>
      </trkpt>
      <trkpt lat="45.71522" lon="6.90671">
        <ele>1978</ele>
        <time>2019-10-06T07:03:52Z</time>
      </trkpt>
      <trkpt lat="45.71523" lon="6.90673">
        <ele>1979</ele>
        <time>2019-10-06T07:03:54Z</time>
      </trkpt>
      <trkpt lat="45.71523" lon="6.90673">
        <ele>1979</ele>
        <time>2019-10-06T07:03:57Z</time>
      </trkpt>
      <trkpt lat="45.71524" lon="6.90676">
        <ele>1979</ele>
        <time>2019-10-06T07:03:58Z</time>
      </trkpt>
      <trkpt lat="45.71523" lon="6.90679">
        <ele>1981</ele>
        <time>2019-10-06T07:04:01Z</time>
      </trkpt>
      <trkpt lat="45.71523" lon="6.90679">
        <ele>1981</ele>
        <time>2019-10-06T07:04:03Z</time>
      </trkpt>
      <trkpt lat="45.71523" lon="6.90679">
        <ele>1983</ele>
        <time>2019-10-06T07:04:07Z</time>
      </trkpt>
      <trkpt lat="45.71525" lon="6.90679">
        <ele>1984</ele>
        <time>2019-10-06T07:04:10Z</time>
      </trkpt>
      <trkpt lat="45.71527" lon="6.90677">
        <ele>1984</ele>
        <time>2019-10-06T07:04:12Z</time>
      </trkpt>
      <trkpt lat="45.71529" lon="6.90674">
        <ele>1984</ele>
        <time>2019-10-06T07:04:14Z</time>
      </trkpt>
      <trkpt lat="45.7153" lon="6.90672">
        <ele>1984</ele>
        <time>2019-10-06T07:04:16Z</time>
      </trkpt>
      <trkpt lat="45.71532" lon="6.90672">
        <ele>1985</ele>
        <time>2019-10-06T07:04:19Z</time>
      </trkpt>
      <trkpt lat="45.71532" lon="6.90672">
        <ele>1985</ele>
        <time>2019-10-06T07:04:20Z</time>
      </trkpt>
      <trkpt lat="45.71534" lon="6.90671">
        <ele>1985</ele>
        <time>2019-10-06T07:04:22Z</time>
      </trkpt>
      <trkpt lat="45.71536" lon="6.90671">
        <ele>1986</ele>
        <time>2019-10-06T07:04:25Z</time>
      </trkpt>
      <trkpt lat="45.71536" lon="6.90671">
        <ele>1986</ele>
        <time>2019-10-06T07:04:26Z</time>
      </trkpt>
      <trkpt lat="45.71538" lon="6.90672">
        <ele>1986</ele>
        <time>2019-10-06T07:04:29Z</time>
      </trkpt>
      <trkpt lat="45.71538" lon="6.90672">
        <ele>1988</ele>
        <time>2019-10-06T07:04:31Z</time>
      </trkpt>
      <trkpt lat="45.71541" lon="6.90673">
        <ele>1989</ele>
        <time>2019-10-06T07:04:32Z</time>
      </trkpt>
      <trkpt lat="45.71543" lon="6.90673">
        <ele>1989</ele>
        <time>2019-10-06T07:04:35Z</time>
      </trkpt>
      <trkpt lat="45.71545" lon="6.90673">
        <ele>1990</ele>
        <time>2019-10-06T07:04:37Z</time>
      </trkpt>
      <trkpt lat="45.71547" lon="6.90672">
        <ele>1990</ele>
        <time>2019-10-06T07:04:39Z</time>
      </trkpt>
      <trkpt lat="45.71549" lon="6.90671">
        <ele>1990</ele>
        <time>2019-10-06T07:04:41Z</time>
      </trkpt>
      <trkpt lat="45.71551" lon="6.90669">
        <ele>1991</ele>
        <time>2019-10-06T07:04:43Z</time>
      </trkpt>
      <trkpt lat="45.71553" lon="6.90667">
        <ele>1991</ele>
        <time>2019-10-06T07:04:45Z</time>
      </trkpt>
      <trkpt lat="45.71555" lon="6.90666">
        <ele>1992</ele>
        <time>2019-10-06T07:04:48Z</time>
      </trkpt>
      <trkpt lat="45.71555" lon="6.90666">
        <ele>1992</ele>
        <time>2019-10-06T07:04:49Z</time>
      </trkpt>
      <trkpt lat="45.71557" lon="6.90665">
        <ele>1992</ele>
        <time>2019-10-06T07:04:50Z</time>
      </trkpt>
      <trkpt lat="45.71559" lon="6.90663">
        <ele>1992</ele>
        <time>2019-10-06T07:04:52Z</time>
      </trkpt>
      <trkpt lat="45.71561" lon="6.90661">
        <ele>1992</ele>
        <time>2019-10-06T07:04:53Z</time>
      </trkpt>
      <trkpt lat="45.71561" lon="6.90658">
        <ele>1992</ele>
        <time>2019-10-06T07:04:54Z</time>
      </trkpt>
      <trkpt lat="45.71562" lon="6.90656">
        <ele>1992</ele>
        <time>2019-10-06T07:04:55Z</time>
      </trkpt>
      <trkpt lat="45.71563" lon="6.90652">
        <ele>1992</ele>
        <time>2019-10-06T07:04:56Z</time>
      </trkpt>
      <trkpt lat="45.71564" lon="6.90649">
        <ele>1993</ele>
        <time>2019-10-06T07:04:57Z</time>
      </trkpt>
      <trkpt lat="45.71565" lon="6.90646">
        <ele>1993</ele>
        <time>2019-10-06T07:04:58Z</time>
      </trkpt>
      <trkpt lat="45.71566" lon="6.90643">
        <ele>1992</ele>
        <time>2019-10-06T07:04:59Z</time>
      </trkpt>
      <trkpt lat="45.71567" lon="6.9064">
        <ele>1990</ele>
        <time>2019-10-06T07:05:00Z</time>
      </trkpt>
      <trkpt lat="45.71568" lon="6.90637">
        <ele>1990</ele>
        <time>2019-10-06T07:05:01Z</time>
      </trkpt>
      <trkpt lat="45.71569" lon="6.90634">
        <ele>1990</ele>
        <time>2019-10-06T07:05:02Z</time>
      </trkpt>
      <trkpt lat="45.71571" lon="6.90631">
        <ele>1990</ele>
        <time>2019-10-06T07:05:03Z</time>
      </trkpt>
      <trkpt lat="45.71572" lon="6.90628">
        <ele>1990</ele>
        <time>2019-10-06T07:05:04Z</time>
      </trkpt>
      <trkpt lat="45.71573" lon="6.90625">
        <ele>1990</ele>
        <time>2019-10-06T07:05:05Z</time>
      </trkpt>
      <trkpt lat="45.71575" lon="6.90623">
        <ele>1990</ele>
        <time>2019-10-06T07:05:06Z</time>
      </trkpt>
      <trkpt lat="45.71576" lon="6.90621">
        <ele>1990</ele>
        <time>2019-10-06T07:05:07Z</time>
      </trkpt>
      <trkpt lat="45.71578" lon="6.90619">
        <ele>1990</ele>
        <time>2019-10-06T07:05:08Z</time>
      </trkpt>
      <trkpt lat="45.71579" lon="6.90616">
        <ele>1990</ele>
        <time>2019-10-06T07:05:09Z</time>
      </trkpt>
      <trkpt lat="45.71581" lon="6.90614">
        <ele>1990</ele>
        <time>2019-10-06T07:05:10Z</time>
      </trkpt>
      <trkpt lat="45.71583" lon="6.90612">
        <ele>1990</ele>
        <time>2019-10-06T07:05:11Z</time>
      </trkpt>
      <trkpt lat="45.71584" lon="6.9061">
        <ele>1990</ele>
        <time>2019-10-06T07:05:12Z</time>
      </trkpt>
      <trkpt lat="45.71586" lon="6.90608">
        <ele>1990</ele>
        <time>2019-10-06T07:05:13Z</time>
      </trkpt>
      <trkpt lat="45.71588" lon="6.90606">
        <ele>1989</ele>
        <time>2019-10-06T07:05:14Z</time>
      </trkpt>
      <trkpt lat="45.7159" lon="6.90604">
        <ele>1989</ele>
        <time>2019-10-06T07:05:15Z</time>
      </trkpt>
      <trkpt lat="45.71592" lon="6.90603">
        <ele>1989</ele>
        <time>2019-10-06T07:05:16Z</time>
      </trkpt>
      <trkpt lat="45.71594" lon="6.90601">
        <ele>1990</ele>
        <time>2019-10-06T07:05:17Z</time>
      </trkpt>
      <trkpt lat="45.71596" lon="6.90599">
        <ele>1990</ele>
        <time>2019-10-06T07:05:18Z</time>
      </trkpt>
      <trkpt lat="45.71598" lon="6.90598">
        <ele>1990</ele>
        <time>2019-10-06T07:05:19Z</time>
      </trkpt>
      <trkpt lat="45.71599" lon="6.90596">
        <ele>1990</ele>
        <time>2019-10-06T07:05:20Z</time>
      </trkpt>
      <trkpt lat="45.71602" lon="6.90594">
        <ele>1990</ele>
        <time>2019-10-06T07:05:21Z</time>
      </trkpt>
      <trkpt lat="45.71603" lon="6.90592">
        <ele>1990</ele>
        <time>2019-10-06T07:05:22Z</time>
      </trkpt>
      <trkpt lat="45.71605" lon="6.90589">
        <ele>1990</ele>
        <time>2019-10-06T07:05:23Z</time>
      </trkpt>
      <trkpt lat="45.71606" lon="6.90586">
        <ele>1990</ele>
        <time>2019-10-06T07:05:24Z</time>
      </trkpt>
      <trkpt lat="45.71608" lon="6.90584">
        <ele>1989</ele>
        <time>2019-10-06T07:05:25Z</time>
      </trkpt>
      <trkpt lat="45.71609" lon="6.90581">
        <ele>1989</ele>
        <time>2019-10-06T07:05:26Z</time>
      </trkpt>
      <trkpt lat="45.71611" lon="6.90578">
        <ele>1990</ele>
        <time>2019-10-06T07:05:27Z</time>
      </trkpt>
      <trkpt lat="45.71612" lon="6.90574">
        <ele>1990</ele>
        <time>2019-10-06T07:05:28Z</time>
      </trkpt>
      <trkpt lat="45.71613" lon="6.90571">
        <ele>1990</ele>
        <time>2019-10-06T07:05:29Z</time>
      </trkpt>
      <trkpt lat="45.71614" lon="6.90568">
        <ele>1990</ele>
        <time>2019-10-06T07:05:30Z</time>
      </trkpt>
      <trkpt lat="45.71616" lon="6.90565">
        <ele>1990</ele>
        <time>2019-10-06T07:05:31Z</time>
      </trkpt>
      <trkpt lat="45.71617" lon="6.90561">
        <ele>1990</ele>
        <time>2019-10-06T07:05:32Z</time>
      </trkpt>
      <trkpt lat="45.71619" lon="6.90558">
        <ele>1990</ele>
        <time>2019-10-06T07:05:33Z</time>
      </trkpt>
      <trkpt lat="45.7162" lon="6.90554">
        <ele>1990</ele>
        <time>2019-10-06T07:05:34Z</time>
      </trkpt>
      <trkpt lat="45.71622" lon="6.90551">
        <ele>1990</ele>
        <time>2019-10-06T07:05:35Z</time>
      </trkpt>
      <trkpt lat="45.71624" lon="6.90547">
        <ele>1991</ele>
        <time>2019-10-06T07:05:36Z</time>
      </trkpt>
      <trkpt lat="45.71626" lon="6.90544">
        <ele>1991</ele>
        <time>2019-10-06T07:05:37Z</time>
      </trkpt>
      <trkpt lat="45.71627" lon="6.90541">
        <ele>1991</ele>
        <time>2019-10-06T07:05:38Z</time>
      </trkpt>
      <trkpt lat="45.7163" lon="6.90539">
        <ele>1991</ele>
        <time>2019-10-06T07:05:39Z</time>
      </trkpt>
      <trkpt lat="45.71632" lon="6.90536">
        <ele>1991</ele>
        <time>2019-10-06T07:05:40Z</time>
      </trkpt>
      <trkpt lat="45.71634" lon="6.90533">
        <ele>1991</ele>
        <time>2019-10-06T07:05:41Z</time>
      </trkpt>
      <trkpt lat="45.71637" lon="6.90531">
        <ele>1991</ele>
        <time>2019-10-06T07:05:42Z</time>
      </trkpt>
      <trkpt lat="45.71639" lon="6.90529">
        <ele>1991</ele>
        <time>2019-10-06T07:05:43Z</time>
      </trkpt>
      <trkpt lat="45.71641" lon="6.90526">
        <ele>1990</ele>
        <time>2019-10-06T07:05:44Z</time>
      </trkpt>
      <trkpt lat="45.71643" lon="6.90523">
        <ele>1990</ele>
        <time>2019-10-06T07:05:45Z</time>
      </trkpt>
      <trkpt lat="45.71646" lon="6.90521">
        <ele>1990</ele>
        <time>2019-10-06T07:05:46Z</time>
      </trkpt>
      <trkpt lat="45.71647" lon="6.90518">
        <ele>1990</ele>
        <time>2019-10-06T07:05:47Z</time>
      </trkpt>
      <trkpt lat="45.71649" lon="6.90515">
        <ele>1990</ele>
        <time>2019-10-06T07:05:48Z</time>
      </trkpt>
      <trkpt lat="45.7165" lon="6.90511">
        <ele>1990</ele>
        <time>2019-10-06T07:05:49Z</time>
      </trkpt>
      <trkpt lat="45.71651" lon="6.90508">
        <ele>1989</ele>
        <time>2019-10-06T07:05:50Z</time>
      </trkpt>
      <trkpt lat="45.71652" lon="6.90504">
        <ele>1989</ele>
        <time>2019-10-06T07:05:51Z</time>
      </trkpt>
      <trkpt lat="45.71652" lon="6.90501">
        <ele>1989</ele>
        <time>2019-10-06T07:05:52Z</time>
      </trkpt>
      <trkpt lat="45.71652" lon="6.90496">
        <ele>1990</ele>
        <time>2019-10-06T07:05:53Z</time>
      </trkpt>
      <trkpt lat="45.71652" lon="6.90492">
        <ele>1991</ele>
        <time>2019-10-06T07:05:54Z</time>
      </trkpt>
      <trkpt lat="45.71652" lon="6.90488">
        <ele>1991</ele>
        <time>2019-10-06T07:05:55Z</time>
      </trkpt>
      <trkpt lat="45.71652" lon="6.90484">
        <ele>1991</ele>
        <time>2019-10-06T07:05:56Z</time>
      </trkpt>
      <trkpt lat="45.71652" lon="6.9048">
        <ele>1991</ele>
        <time>2019-10-06T07:05:57Z</time>
      </trkpt>
      <trkpt lat="45.71652" lon="6.90476">
        <ele>1991</ele>
        <time>2019-10-06T07:05:58Z</time>
      </trkpt>
      <trkpt lat="45.71652" lon="6.90472">
        <ele>1991</ele>
        <time>2019-10-06T07:05:59Z</time>
      </trkpt>
      <trkpt lat="45.71652" lon="6.90468">
        <ele>1991</ele>
        <time>2019-10-06T07:06:00Z</time>
      </trkpt>
      <trkpt lat="45.71652" lon="6.90464">
        <ele>1991</ele>
        <time>2019-10-06T07:06:01Z</time>
      </trkpt>
      <trkpt lat="45.71652" lon="6.9046">
        <ele>1991</ele>
        <time>2019-10-06T07:06:02Z</time>
      </trkpt>
      <trkpt lat="45.71652" lon="6.90456">
        <ele>1991</ele>
        <time>2019-10-06T07:06:03Z</time>
      </trkpt>
      <trkpt lat="45.71652" lon="6.90452">
        <ele>1991</ele>
        <time>2019-10-06T07:06:04Z</time>
      </trkpt>
      <trkpt lat="45.71652" lon="6.90448">
        <ele>1991</ele>
        <time>2019-10-06T07:06:05Z</time>
      </trkpt>
      <trkpt lat="45.71651" lon="6.90444">
        <ele>1991</ele>
        <time>2019-10-06T07:06:06Z</time>
      </trkpt>
      <trkpt lat="45.71651" lon="6.9044">
        <ele>1991</ele>
        <time>2019-10-06T07:06:07Z</time>
      </trkpt>
      <trkpt lat="45.7165" lon="6.90436">
        <ele>1991</ele>
        <time>2019-10-06T07:06:08Z</time>
      </trkpt>
      <trkpt lat="45.71649" lon="6.90432">
        <ele>1991</ele>
        <time>2019-10-06T07:06:09Z</time>
      </trkpt>
      <trkpt lat="45.71648" lon="6.90428">
        <ele>1991</ele>
        <time>2019-10-06T07:06:10Z</time>
      </trkpt>
      <trkpt lat="45.71648" lon="6.90424">
        <ele>1991</ele>
        <time>2019-10-06T07:06:11Z</time>
      </trkpt>
      <trkpt lat="45.71647" lon="6.9042">
        <ele>1991</ele>
        <time>2019-10-06T07:06:12Z</time>
      </trkpt>
      <trkpt lat="45.71647" lon="6.90416">
        <ele>1991</ele>
        <time>2019-10-06T07:06:13Z</time>
      </trkpt>
      <trkpt lat="45.71646" lon="6.90412">
        <ele>1991</ele>
        <time>2019-10-06T07:06:14Z</time>
      </trkpt>
      <trkpt lat="45.71645" lon="6.90408">
        <ele>1991</ele>
        <time>2019-10-06T07:06:15Z</time>
      </trkpt>
      <trkpt lat="45.71644" lon="6.90404">
        <ele>1991</ele>
        <time>2019-10-06T07:06:16Z</time>
      </trkpt>
      <trkpt lat="45.71644" lon="6.90401">
        <ele>1991</ele>
        <time>2019-10-06T07:06:17Z</time>
      </trkpt>
      <trkpt lat="45.71642" lon="6.90397">
        <ele>1991</ele>
        <time>2019-10-06T07:06:18Z</time>
      </trkpt>
      <trkpt lat="45.71641" lon="6.90394">
        <ele>1991</ele>
        <time>2019-10-06T07:06:19Z</time>
      </trkpt>
      <trkpt lat="45.7164" lon="6.9039">
        <ele>1991</ele>
        <time>2019-10-06T07:06:20Z</time>
      </trkpt>
      <trkpt lat="45.71639" lon="6.90387">
        <ele>1991</ele>
        <time>2019-10-06T07:06:21Z</time>
      </trkpt>
      <trkpt lat="45.71637" lon="6.90383">
        <ele>1991</ele>
        <time>2019-10-06T07:06:22Z</time>
      </trkpt>
      <trkpt lat="45.71636" lon="6.9038">
        <ele>1991</ele>
        <time>2019-10-06T07:06:23Z</time>
      </trkpt>
      <trkpt lat="45.71634" lon="6.90376">
        <ele>1991</ele>
        <time>2019-10-06T07:06:24Z</time>
      </trkpt>
      <trkpt lat="45.71633" lon="6.90372">
        <ele>1991</ele>
        <time>2019-10-06T07:06:25Z</time>
      </trkpt>
      <trkpt lat="45.71632" lon="6.90369">
        <ele>1990</ele>
        <time>2019-10-06T07:06:26Z</time>
      </trkpt>
      <trkpt lat="45.71631" lon="6.90365">
        <ele>1990</ele>
        <time>2019-10-06T07:06:27Z</time>
      </trkpt>
      <trkpt lat="45.7163" lon="6.90362">
        <ele>1990</ele>
        <time>2019-10-06T07:06:28Z</time>
      </trkpt>
      <trkpt lat="45.71629" lon="6.90358">
        <ele>1990</ele>
        <time>2019-10-06T07:06:29Z</time>
      </trkpt>
      <trkpt lat="45.71628" lon="6.90355">
        <ele>1991</ele>
        <time>2019-10-06T07:06:30Z</time>
      </trkpt>
      <trkpt lat="45.71627" lon="6.90352">
        <ele>1991</ele>
        <time>2019-10-06T07:06:31Z</time>
      </trkpt>
      <trkpt lat="45.71625" lon="6.90348">
        <ele>1991</ele>
        <time>2019-10-06T07:06:32Z</time>
      </trkpt>
      <trkpt lat="45.71624" lon="6.90345">
        <ele>1991</ele>
        <time>2019-10-06T07:06:33Z</time>
      </trkpt>
      <trkpt lat="45.71623" lon="6.90341">
        <ele>1991</ele>
        <time>2019-10-06T07:06:34Z</time>
      </trkpt>
      <trkpt lat="45.71622" lon="6.90337">
        <ele>1991</ele>
        <time>2019-10-06T07:06:35Z</time>
      </trkpt>
      <trkpt lat="45.71621" lon="6.90334">
        <ele>1991</ele>
        <time>2019-10-06T07:06:36Z</time>
      </trkpt>
      <trkpt lat="45.7162" lon="6.9033">
        <ele>1991</ele>
        <time>2019-10-06T07:06:37Z</time>
      </trkpt>
      <trkpt lat="45.71619" lon="6.90326">
        <ele>1991</ele>
        <time>2019-10-06T07:06:38Z</time>
      </trkpt>
      <trkpt lat="45.71617" lon="6.90322">
        <ele>1991</ele>
        <time>2019-10-06T07:06:39Z</time>
      </trkpt>
      <trkpt lat="45.71616" lon="6.90318">
        <ele>1990</ele>
        <time>2019-10-06T07:06:40Z</time>
      </trkpt>
      <trkpt lat="45.71615" lon="6.90314">
        <ele>1990</ele>
        <time>2019-10-06T07:06:41Z</time>
      </trkpt>
      <trkpt lat="45.71614" lon="6.90311">
        <ele>1990</ele>
        <time>2019-10-06T07:06:42Z</time>
      </trkpt>
      <trkpt lat="45.71613" lon="6.90307">
        <ele>1990</ele>
        <time>2019-10-06T07:06:43Z</time>
      </trkpt>
      <trkpt lat="45.71612" lon="6.90303">
        <ele>1990</ele>
        <time>2019-10-06T07:06:44Z</time>
      </trkpt>
      <trkpt lat="45.71612" lon="6.90299">
        <ele>1991</ele>
        <time>2019-10-06T07:06:45Z</time>
      </trkpt>
      <trkpt lat="45.71611" lon="6.90296">
        <ele>1991</ele>
        <time>2019-10-06T07:06:46Z</time>
      </trkpt>
      <trkpt lat="45.71611" lon="6.90291">
        <ele>1991</ele>
        <time>2019-10-06T07:06:47Z</time>
      </trkpt>
      <trkpt lat="45.7161" lon="6.90287">
        <ele>1991</ele>
        <time>2019-10-06T07:06:48Z</time>
      </trkpt>
      <trkpt lat="45.7161" lon="6.90284">
        <ele>1991</ele>
        <time>2019-10-06T07:06:49Z</time>
      </trkpt>
      <trkpt lat="45.7161" lon="6.9028">
        <ele>1991</ele>
        <time>2019-10-06T07:06:50Z</time>
      </trkpt>
      <trkpt lat="45.71609" lon="6.90276">
        <ele>1990</ele>
        <time>2019-10-06T07:06:51Z</time>
      </trkpt>
      <trkpt lat="45.71609" lon="6.90272">
        <ele>1990</ele>
        <time>2019-10-06T07:06:52Z</time>
      </trkpt>
      <trkpt lat="45.71608" lon="6.90269">
        <ele>1990</ele>
        <time>2019-10-06T07:06:53Z</time>
      </trkpt>
      <trkpt lat="45.71608" lon="6.90265">
        <ele>1990</ele>
        <time>2019-10-06T07:06:54Z</time>
      </trkpt>
      <trkpt lat="45.71607" lon="6.90261">
        <ele>1990</ele>
        <time>2019-10-06T07:06:55Z</time>
      </trkpt>
      <trkpt lat="45.71607" lon="6.90257">
        <ele>1990</ele>
        <time>2019-10-06T07:06:56Z</time>
      </trkpt>
      <trkpt lat="45.71606" lon="6.90253">
        <ele>1990</ele>
        <time>2019-10-06T07:06:57Z</time>
      </trkpt>
      <trkpt lat="45.71605" lon="6.90249">
        <ele>1990</ele>
        <time>2019-10-06T07:06:58Z</time>
      </trkpt>
      <trkpt lat="45.71605" lon="6.90246">
        <ele>1990</ele>
        <time>2019-10-06T07:06:59Z</time>
      </trkpt>
      <trkpt lat="45.71604" lon="6.90242">
        <ele>1990</ele>
        <time>2019-10-06T07:07:00Z</time>
      </trkpt>
      <trkpt lat="45.71603" lon="6.90238">
        <ele>1990</ele>
        <time>2019-10-06T07:07:01Z</time>
      </trkpt>
      <trkpt lat="45.71603" lon="6.90235">
        <ele>1990</ele>
        <time>2019-10-06T07:07:02Z</time>
      </trkpt>
      <trkpt lat="45.71602" lon="6.90231">
        <ele>1990</ele>
        <time>2019-10-06T07:07:03Z</time>
      </trkpt>
      <trkpt lat="45.71602" lon="6.90227">
        <ele>1990</ele>
        <time>2019-10-06T07:07:04Z</time>
      </trkpt>
      <trkpt lat="45.71602" lon="6.90223">
        <ele>1990</ele>
        <time>2019-10-06T07:07:05Z</time>
      </trkpt>
      <trkpt lat="45.71602" lon="6.9022">
        <ele>1990</ele>
        <time>2019-10-06T07:07:06Z</time>
      </trkpt>
      <trkpt lat="45.71602" lon="6.90216">
        <ele>1990</ele>
        <time>2019-10-06T07:07:07Z</time>
      </trkpt>
      <trkpt lat="45.71602" lon="6.90212">
        <ele>1990</ele>
        <time>2019-10-06T07:07:08Z</time>
      </trkpt>
      <trkpt lat="45.71602" lon="6.90208">
        <ele>1990</ele>
        <time>2019-10-06T07:07:09Z</time>
      </trkpt>
      <trkpt lat="45.71602" lon="6.90204">
        <ele>1990</ele>
        <time>2019-10-06T07:07:10Z</time>
      </trkpt>
      <trkpt lat="45.71602" lon="6.90201">
        <ele>1990</ele>
        <time>2019-10-06T07:07:11Z</time>
      </trkpt>
      <trkpt lat="45.71602" lon="6.90197">
        <ele>1990</ele>
        <time>2019-10-06T07:07:12Z</time>
      </trkpt>
      <trkpt lat="45.71602" lon="6.90193">
        <ele>1990</ele>
        <time>2019-10-06T07:07:13Z</time>
      </trkpt>
      <trkpt lat="45.71602" lon="6.90189">
        <ele>1990</ele>
        <time>2019-10-06T07:07:14Z</time>
      </trkpt>
      <trkpt lat="45.71601" lon="6.90185">
        <ele>1990</ele>
        <time>2019-10-06T07:07:15Z</time>
      </trkpt>
      <trkpt lat="45.71601" lon="6.90182">
        <ele>1990</ele>
        <time>2019-10-06T07:07:16Z</time>
      </trkpt>
      <trkpt lat="45.71601" lon="6.90178">
        <ele>1990</ele>
        <time>2019-10-06T07:07:17Z</time>
      </trkpt>
      <trkpt lat="45.71601" lon="6.90174">
        <ele>1990</ele>
        <time>2019-10-06T07:07:18Z</time>
      </trkpt>
      <trkpt lat="45.71601" lon="6.90171">
        <ele>1990</ele>
        <time>2019-10-06T07:07:19Z</time>
      </trkpt>
      <trkpt lat="45.71601" lon="6.90167">
        <ele>1990</ele>
        <time>2019-10-06T07:07:20Z</time>
      </trkpt>
      <trkpt lat="45.716" lon="6.90164">
        <ele>1990</ele>
        <time>2019-10-06T07:07:21Z</time>
      </trkpt>
      <trkpt lat="45.716" lon="6.90161">
        <ele>1990</ele>
        <time>2019-10-06T07:07:22Z</time>
      </trkpt>
      <trkpt lat="45.71601" lon="6.90157">
        <ele>1990</ele>
        <time>2019-10-06T07:07:23Z</time>
      </trkpt>
      <trkpt lat="45.71601" lon="6.90153">
        <ele>1990</ele>
        <time>2019-10-06T07:07:24Z</time>
      </trkpt>
      <trkpt lat="45.71601" lon="6.90149">
        <ele>1990</ele>
        <time>2019-10-06T07:07:25Z</time>
      </trkpt>
      <trkpt lat="45.71602" lon="6.90145">
        <ele>1990</ele>
        <time>2019-10-06T07:07:26Z</time>
      </trkpt>
      <trkpt lat="45.71603" lon="6.90141">
        <ele>1991</ele>
        <time>2019-10-06T07:07:27Z</time>
      </trkpt>
      <trkpt lat="45.71604" lon="6.90138">
        <ele>1991</ele>
        <time>2019-10-06T07:07:28Z</time>
      </trkpt>
      <trkpt lat="45.71606" lon="6.90134">
        <ele>1991</ele>
        <time>2019-10-06T07:07:29Z</time>
      </trkpt>
      <trkpt lat="45.71608" lon="6.90131">
        <ele>1991</ele>
        <time>2019-10-06T07:07:30Z</time>
      </trkpt>
      <trkpt lat="45.7161" lon="6.90128">
        <ele>1991</ele>
        <time>2019-10-06T07:07:31Z</time>
      </trkpt>
      <trkpt lat="45.71612" lon="6.90125">
        <ele>1991</ele>
        <time>2019-10-06T07:07:32Z</time>
      </trkpt>
      <trkpt lat="45.71614" lon="6.90122">
        <ele>1991</ele>
        <time>2019-10-06T07:07:33Z</time>
      </trkpt>
      <trkpt lat="45.71616" lon="6.90119">
        <ele>1991</ele>
        <time>2019-10-06T07:07:34Z</time>
      </trkpt>
      <trkpt lat="45.71618" lon="6.90116">
        <ele>1991</ele>
        <time>2019-10-06T07:07:35Z</time>
      </trkpt>
      <trkpt lat="45.7162" lon="6.90114">
        <ele>1991</ele>
        <time>2019-10-06T07:07:36Z</time>
      </trkpt>
      <trkpt lat="45.71622" lon="6.90111">
        <ele>1991</ele>
        <time>2019-10-06T07:07:37Z</time>
      </trkpt>
      <trkpt lat="45.71624" lon="6.90109">
        <ele>1991</ele>
        <time>2019-10-06T07:07:38Z</time>
      </trkpt>
      <trkpt lat="45.71626" lon="6.90106">
        <ele>1991</ele>
        <time>2019-10-06T07:07:39Z</time>
      </trkpt>
      <trkpt lat="45.71628" lon="6.90103">
        <ele>1991</ele>
        <time>2019-10-06T07:07:40Z</time>
      </trkpt>
      <trkpt lat="45.7163" lon="6.90101">
        <ele>1991</ele>
        <time>2019-10-06T07:07:41Z</time>
      </trkpt>
      <trkpt lat="45.71632" lon="6.90098">
        <ele>1991</ele>
        <time>2019-10-06T07:07:42Z</time>
      </trkpt>
      <trkpt lat="45.71635" lon="6.90095">
        <ele>1991</ele>
        <time>2019-10-06T07:07:43Z</time>
      </trkpt>
      <trkpt lat="45.71637" lon="6.90093">
        <ele>1990</ele>
        <time>2019-10-06T07:07:44Z</time>
      </trkpt>
      <trkpt lat="45.71639" lon="6.9009">
        <ele>1990</ele>
        <time>2019-10-06T07:07:45Z</time>
      </trkpt>
      <trkpt lat="45.71641" lon="6.90088">
        <ele>1990</ele>
        <time>2019-10-06T07:07:46Z</time>
      </trkpt>
      <trkpt lat="45.71643" lon="6.90085">
        <ele>1990</ele>
        <time>2019-10-06T07:07:47Z</time>
      </trkpt>
      <trkpt lat="45.71645" lon="6.90083">
        <ele>1990</ele>
        <time>2019-10-06T07:07:48Z</time>
      </trkpt>
      <trkpt lat="45.71647" lon="6.9008">
        <ele>1991</ele>
        <time>2019-10-06T07:07:49Z</time>
      </trkpt>
      <trkpt lat="45.7165" lon="6.90078">
        <ele>1991</ele>
        <time>2019-10-06T07:07:50Z</time>
      </trkpt>
      <trkpt lat="45.71652" lon="6.90076">
        <ele>1990</ele>
        <time>2019-10-06T07:07:51Z</time>
      </trkpt>
      <trkpt lat="45.71654" lon="6.90073">
        <ele>1990</ele>
        <time>2019-10-06T07:07:52Z</time>
      </trkpt>
      <trkpt lat="45.71656" lon="6.90071">
        <ele>1990</ele>
        <time>2019-10-06T07:07:53Z</time>
      </trkpt>
      <trkpt lat="45.71658" lon="6.90068">
        <ele>1990</ele>
        <time>2019-10-06T07:07:54Z</time>
      </trkpt>
      <trkpt lat="45.7166" lon="6.90065">
        <ele>1990</ele>
        <time>2019-10-06T07:07:55Z</time>
      </trkpt>
      <trkpt lat="45.71662" lon="6.90063">
        <ele>1990</ele>
        <time>2019-10-06T07:07:56Z</time>
      </trkpt>
      <trkpt lat="45.71664" lon="6.90061">
        <ele>1990</ele>
        <time>2019-10-06T07:07:57Z</time>
      </trkpt>
      <trkpt lat="45.71667" lon="6.90058">
        <ele>1991</ele>
        <time>2019-10-06T07:07:58Z</time>
      </trkpt>
      <trkpt lat="45.71669" lon="6.90055">
        <ele>1991</ele>
        <time>2019-10-06T07:07:59Z</time>
      </trkpt>
      <trkpt lat="45.71672" lon="6.90053">
        <ele>1991</ele>
        <time>2019-10-06T07:08:00Z</time>
      </trkpt>
      <trkpt lat="45.71673" lon="6.90052">
        <ele>1991</ele>
        <time>2019-10-06T07:08:01Z</time>
      </trkpt>
      <trkpt lat="45.71675" lon="6.9005">
        <ele>1991</ele>
        <time>2019-10-06T07:08:02Z</time>
      </trkpt>
      <trkpt lat="45.71677" lon="6.90047">
        <ele>1991</ele>
        <time>2019-10-06T07:08:03Z</time>
      </trkpt>
      <trkpt lat="45.71679" lon="6.90044">
        <ele>1992</ele>
        <time>2019-10-06T07:08:04Z</time>
      </trkpt>
      <trkpt lat="45.71681" lon="6.90042">
        <ele>1992</ele>
        <time>2019-10-06T07:08:05Z</time>
      </trkpt>
      <trkpt lat="45.71683" lon="6.90039">
        <ele>1992</ele>
        <time>2019-10-06T07:08:06Z</time>
      </trkpt>
      <trkpt lat="45.71685" lon="6.90036">
        <ele>1992</ele>
        <time>2019-10-06T07:08:07Z</time>
      </trkpt>
      <trkpt lat="45.71687" lon="6.90033">
        <ele>1992</ele>
        <time>2019-10-06T07:08:08Z</time>
      </trkpt>
      <trkpt lat="45.71689" lon="6.9003">
        <ele>1992</ele>
        <time>2019-10-06T07:08:09Z</time>
      </trkpt>
      <trkpt lat="45.7169" lon="6.90027">
        <ele>1991</ele>
        <time>2019-10-06T07:08:10Z</time>
      </trkpt>
      <trkpt lat="45.71692" lon="6.90025">
        <ele>1992</ele>
        <time>2019-10-06T07:08:11Z</time>
      </trkpt>
      <trkpt lat="45.71694" lon="6.90022">
        <ele>1992</ele>
        <time>2019-10-06T07:08:12Z</time>
      </trkpt>
      <trkpt lat="45.71696" lon="6.90019">
        <ele>1992</ele>
        <time>2019-10-06T07:08:13Z</time>
      </trkpt>
      <trkpt lat="45.71698" lon="6.90017">
        <ele>1992</ele>
        <time>2019-10-06T07:08:14Z</time>
      </trkpt>
      <trkpt lat="45.717" lon="6.90014">
        <ele>1992</ele>
        <time>2019-10-06T07:08:15Z</time>
      </trkpt>
      <trkpt lat="45.71702" lon="6.90011">
        <ele>1992</ele>
        <time>2019-10-06T07:08:16Z</time>
      </trkpt>
      <trkpt lat="45.71704" lon="6.90008">
        <ele>1992</ele>
        <time>2019-10-06T07:08:17Z</time>
      </trkpt>
      <trkpt lat="45.71706" lon="6.90005">
        <ele>1992</ele>
        <time>2019-10-06T07:08:18Z</time>
      </trkpt>
      <trkpt lat="45.71707" lon="6.90002">
        <ele>1992</ele>
        <time>2019-10-06T07:08:19Z</time>
      </trkpt>
      <trkpt lat="45.71709" lon="6.89999">
        <ele>1992</ele>
        <time>2019-10-06T07:08:20Z</time>
      </trkpt>
      <trkpt lat="45.71711" lon="6.89997">
        <ele>1992</ele>
        <time>2019-10-06T07:08:21Z</time>
      </trkpt>
      <trkpt lat="45.71713" lon="6.89994">
        <ele>1992</ele>
        <time>2019-10-06T07:08:22Z</time>
      </trkpt>
      <trkpt lat="45.71715" lon="6.89991">
        <ele>1992</ele>
        <time>2019-10-06T07:08:23Z</time>
      </trkpt>
      <trkpt lat="45.71718" lon="6.89989">
        <ele>1992</ele>
        <time>2019-10-06T07:08:24Z</time>
      </trkpt>
      <trkpt lat="45.7172" lon="6.89986">
        <ele>1991</ele>
        <time>2019-10-06T07:08:25Z</time>
      </trkpt>
      <trkpt lat="45.71722" lon="6.89984">
        <ele>1991</ele>
        <time>2019-10-06T07:08:26Z</time>
      </trkpt>
      <trkpt lat="45.71724" lon="6.89981">
        <ele>1991</ele>
        <time>2019-10-06T07:08:27Z</time>
      </trkpt>
      <trkpt lat="45.71726" lon="6.8998">
        <ele>1991</ele>
        <time>2019-10-06T07:08:28Z</time>
      </trkpt>
      <trkpt lat="45.71728" lon="6.89977">
        <ele>1991</ele>
        <time>2019-10-06T07:08:29Z</time>
      </trkpt>
      <trkpt lat="45.7173" lon="6.89974">
        <ele>1991</ele>
        <time>2019-10-06T07:08:30Z</time>
      </trkpt>
      <trkpt lat="45.71732" lon="6.89972">
        <ele>1991</ele>
        <time>2019-10-06T07:08:31Z</time>
      </trkpt>
      <trkpt lat="45.71734" lon="6.8997">
        <ele>1991</ele>
        <time>2019-10-06T07:08:32Z</time>
      </trkpt>
      <trkpt lat="45.71736" lon="6.89967">
        <ele>1991</ele>
        <time>2019-10-06T07:08:33Z</time>
      </trkpt>
      <trkpt lat="45.71739" lon="6.89965">
        <ele>1991</ele>
        <time>2019-10-06T07:08:34Z</time>
      </trkpt>
      <trkpt lat="45.7174" lon="6.89962">
        <ele>1992</ele>
        <time>2019-10-06T07:08:35Z</time>
      </trkpt>
      <trkpt lat="45.71742" lon="6.89959">
        <ele>1992</ele>
        <time>2019-10-06T07:08:36Z</time>
      </trkpt>
      <trkpt lat="45.71744" lon="6.89956">
        <ele>1992</ele>
        <time>2019-10-06T07:08:37Z</time>
      </trkpt>
      <trkpt lat="45.71746" lon="6.89954">
        <ele>1992</ele>
        <time>2019-10-06T07:08:38Z</time>
      </trkpt>
      <trkpt lat="45.71748" lon="6.89951">
        <ele>1992</ele>
        <time>2019-10-06T07:08:39Z</time>
      </trkpt>
      <trkpt lat="45.7175" lon="6.89948">
        <ele>1992</ele>
        <time>2019-10-06T07:08:40Z</time>
      </trkpt>
      <trkpt lat="45.71753" lon="6.89946">
        <ele>1993</ele>
        <time>2019-10-06T07:08:41Z</time>
      </trkpt>
      <trkpt lat="45.71754" lon="6.89943">
        <ele>1993</ele>
        <time>2019-10-06T07:08:42Z</time>
      </trkpt>
      <trkpt lat="45.71756" lon="6.8994">
        <ele>1993</ele>
        <time>2019-10-06T07:08:43Z</time>
      </trkpt>
      <trkpt lat="45.71759" lon="6.89938">
        <ele>1993</ele>
        <time>2019-10-06T07:08:44Z</time>
      </trkpt>
      <trkpt lat="45.71761" lon="6.89936">
        <ele>1993</ele>
        <time>2019-10-06T07:08:45Z</time>
      </trkpt>
      <trkpt lat="45.71763" lon="6.89934">
        <ele>1993</ele>
        <time>2019-10-06T07:08:46Z</time>
      </trkpt>
      <trkpt lat="45.71765" lon="6.89931">
        <ele>1993</ele>
        <time>2019-10-06T07:08:47Z</time>
      </trkpt>
      <trkpt lat="45.71767" lon="6.89929">
        <ele>1993</ele>
        <time>2019-10-06T07:08:48Z</time>
      </trkpt>
      <trkpt lat="45.71769" lon="6.89927">
        <ele>1993</ele>
        <time>2019-10-06T07:08:49Z</time>
      </trkpt>
      <trkpt lat="45.71771" lon="6.89925">
        <ele>1993</ele>
        <time>2019-10-06T07:08:50Z</time>
      </trkpt>
      <trkpt lat="45.71773" lon="6.89923">
        <ele>1993</ele>
        <time>2019-10-06T07:08:51Z</time>
      </trkpt>
      <trkpt lat="45.71776" lon="6.89921">
        <ele>1993</ele>
        <time>2019-10-06T07:08:52Z</time>
      </trkpt>
      <trkpt lat="45.71778" lon="6.89919">
        <ele>1993</ele>
        <time>2019-10-06T07:08:53Z</time>
      </trkpt>
      <trkpt lat="45.71781" lon="6.89917">
        <ele>1993</ele>
        <time>2019-10-06T07:08:54Z</time>
      </trkpt>
      <trkpt lat="45.71784" lon="6.89915">
        <ele>1993</ele>
        <time>2019-10-06T07:08:55Z</time>
      </trkpt>
      <trkpt lat="45.71786" lon="6.89913">
        <ele>1993</ele>
        <time>2019-10-06T07:08:56Z</time>
      </trkpt>
      <trkpt lat="45.71788" lon="6.89912">
        <ele>1993</ele>
        <time>2019-10-06T07:08:57Z</time>
      </trkpt>
      <trkpt lat="45.7179" lon="6.89911">
        <ele>1993</ele>
        <time>2019-10-06T07:08:58Z</time>
      </trkpt>
      <trkpt lat="45.71792" lon="6.89909">
        <ele>1993</ele>
        <time>2019-10-06T07:08:59Z</time>
      </trkpt>
      <trkpt lat="45.71794" lon="6.89907">
        <ele>1993</ele>
        <time>2019-10-06T07:09:00Z</time>
      </trkpt>
      <trkpt lat="45.71797" lon="6.89905">
        <ele>1993</ele>
        <time>2019-10-06T07:09:01Z</time>
      </trkpt>
      <trkpt lat="45.71799" lon="6.89903">
        <ele>1993</ele>
        <time>2019-10-06T07:09:02Z</time>
      </trkpt>
      <trkpt lat="45.71801" lon="6.89901">
        <ele>1993</ele>
        <time>2019-10-06T07:09:03Z</time>
      </trkpt>
      <trkpt lat="45.71803" lon="6.89899">
        <ele>1993</ele>
        <time>2019-10-06T07:09:04Z</time>
      </trkpt>
      <trkpt lat="45.71808" lon="6.89896">
        <ele>1994</ele>
        <time>2019-10-06T07:09:06Z</time>
      </trkpt>
      <trkpt lat="45.7181" lon="6.89894">
        <ele>1994</ele>
        <time>2019-10-06T07:09:07Z</time>
      </trkpt>
      <trkpt lat="45.71812" lon="6.89892">
        <ele>1993</ele>
        <time>2019-10-06T07:09:08Z</time>
      </trkpt>
      <trkpt lat="45.71815" lon="6.8989">
        <ele>1994</ele>
        <time>2019-10-06T07:09:09Z</time>
      </trkpt>
      <trkpt lat="45.71817" lon="6.89889">
        <ele>1994</ele>
        <time>2019-10-06T07:09:10Z</time>
      </trkpt>
      <trkpt lat="45.71819" lon="6.89888">
        <ele>1994</ele>
        <time>2019-10-06T07:09:11Z</time>
      </trkpt>
      <trkpt lat="45.71822" lon="6.89887">
        <ele>1994</ele>
        <time>2019-10-06T07:09:12Z</time>
      </trkpt>
      <trkpt lat="45.71824" lon="6.89885">
        <ele>1994</ele>
        <time>2019-10-06T07:09:13Z</time>
      </trkpt>
      <trkpt lat="45.71827" lon="6.89883">
        <ele>1994</ele>
        <time>2019-10-06T07:09:14Z</time>
      </trkpt>
      <trkpt lat="45.71829" lon="6.89883">
        <ele>1994</ele>
        <time>2019-10-06T07:09:15Z</time>
      </trkpt>
      <trkpt lat="45.71831" lon="6.89881">
        <ele>1994</ele>
        <time>2019-10-06T07:09:16Z</time>
      </trkpt>
      <trkpt lat="45.71834" lon="6.8988">
        <ele>1994</ele>
        <time>2019-10-06T07:09:17Z</time>
      </trkpt>
      <trkpt lat="45.71836" lon="6.89879">
        <ele>1994</ele>
        <time>2019-10-06T07:09:18Z</time>
      </trkpt>
      <trkpt lat="45.71839" lon="6.89878">
        <ele>1994</ele>
        <time>2019-10-06T07:09:19Z</time>
      </trkpt>
      <trkpt lat="45.71841" lon="6.89877">
        <ele>1994</ele>
        <time>2019-10-06T07:09:20Z</time>
      </trkpt>
      <trkpt lat="45.71844" lon="6.89875">
        <ele>1993</ele>
        <time>2019-10-06T07:09:21Z</time>
      </trkpt>
      <trkpt lat="45.71846" lon="6.89874">
        <ele>1994</ele>
        <time>2019-10-06T07:09:22Z</time>
      </trkpt>
      <trkpt lat="45.71848" lon="6.89872">
        <ele>1994</ele>
        <time>2019-10-06T07:09:23Z</time>
      </trkpt>
      <trkpt lat="45.71851" lon="6.8987">
        <ele>1994</ele>
        <time>2019-10-06T07:09:24Z</time>
      </trkpt>
      <trkpt lat="45.71853" lon="6.89868">
        <ele>1995</ele>
        <time>2019-10-06T07:09:25Z</time>
      </trkpt>
      <trkpt lat="45.71856" lon="6.89867">
        <ele>1995</ele>
        <time>2019-10-06T07:09:26Z</time>
      </trkpt>
      <trkpt lat="45.71858" lon="6.89865">
        <ele>1995</ele>
        <time>2019-10-06T07:09:27Z</time>
      </trkpt>
      <trkpt lat="45.7186" lon="6.89864">
        <ele>1994</ele>
        <time>2019-10-06T07:09:28Z</time>
      </trkpt>
      <trkpt lat="45.71863" lon="6.89864">
        <ele>1994</ele>
        <time>2019-10-06T07:09:29Z</time>
      </trkpt>
      <trkpt lat="45.71865" lon="6.89863">
        <ele>1994</ele>
        <time>2019-10-06T07:09:30Z</time>
      </trkpt>
      <trkpt lat="45.71867" lon="6.89862">
        <ele>1993</ele>
        <time>2019-10-06T07:09:31Z</time>
      </trkpt>
      <trkpt lat="45.7187" lon="6.89861">
        <ele>1993</ele>
        <time>2019-10-06T07:09:32Z</time>
      </trkpt>
      <trkpt lat="45.71872" lon="6.8986">
        <ele>1994</ele>
        <time>2019-10-06T07:09:33Z</time>
      </trkpt>
      <trkpt lat="45.71874" lon="6.89859">
        <ele>1994</ele>
        <time>2019-10-06T07:09:34Z</time>
      </trkpt>
      <trkpt lat="45.71876" lon="6.89857">
        <ele>1994</ele>
        <time>2019-10-06T07:09:35Z</time>
      </trkpt>
      <trkpt lat="45.71877" lon="6.89855">
        <ele>1994</ele>
        <time>2019-10-06T07:09:36Z</time>
      </trkpt>
      <trkpt lat="45.71879" lon="6.89853">
        <ele>1994</ele>
        <time>2019-10-06T07:09:37Z</time>
      </trkpt>
      <trkpt lat="45.71881" lon="6.89851">
        <ele>1993</ele>
        <time>2019-10-06T07:09:38Z</time>
      </trkpt>
      <trkpt lat="45.71884" lon="6.8985">
        <ele>1994</ele>
        <time>2019-10-06T07:09:39Z</time>
      </trkpt>
      <trkpt lat="45.71886" lon="6.89848">
        <ele>1994</ele>
        <time>2019-10-06T07:09:40Z</time>
      </trkpt>
      <trkpt lat="45.71888" lon="6.89846">
        <ele>1994</ele>
        <time>2019-10-06T07:09:41Z</time>
      </trkpt>
      <trkpt lat="45.7189" lon="6.89845">
        <ele>1994</ele>
        <time>2019-10-06T07:09:42Z</time>
      </trkpt>
      <trkpt lat="45.71892" lon="6.89843">
        <ele>1994</ele>
        <time>2019-10-06T07:09:43Z</time>
      </trkpt>
      <trkpt lat="45.71894" lon="6.89842">
        <ele>1994</ele>
        <time>2019-10-06T07:09:44Z</time>
      </trkpt>
      <trkpt lat="45.71896" lon="6.89841">
        <ele>1995</ele>
        <time>2019-10-06T07:09:45Z</time>
      </trkpt>
      <trkpt lat="45.71898" lon="6.8984">
        <ele>1995</ele>
        <time>2019-10-06T07:09:46Z</time>
      </trkpt>
      <trkpt lat="45.71901" lon="6.89839">
        <ele>1995</ele>
        <time>2019-10-06T07:09:47Z</time>
      </trkpt>
      <trkpt lat="45.71903" lon="6.89839">
        <ele>1995</ele>
        <time>2019-10-06T07:09:48Z</time>
      </trkpt>
      <trkpt lat="45.71906" lon="6.89838">
        <ele>1995</ele>
        <time>2019-10-06T07:09:49Z</time>
      </trkpt>
      <trkpt lat="45.71909" lon="6.89837">
        <ele>1995</ele>
        <time>2019-10-06T07:09:50Z</time>
      </trkpt>
      <trkpt lat="45.71911" lon="6.89836">
        <ele>1996</ele>
        <time>2019-10-06T07:09:51Z</time>
      </trkpt>
      <trkpt lat="45.71913" lon="6.89834">
        <ele>1996</ele>
        <time>2019-10-06T07:09:52Z</time>
      </trkpt>
      <trkpt lat="45.71915" lon="6.89833">
        <ele>1996</ele>
        <time>2019-10-06T07:09:53Z</time>
      </trkpt>
      <trkpt lat="45.71918" lon="6.89832">
        <ele>1996</ele>
        <time>2019-10-06T07:09:54Z</time>
      </trkpt>
      <trkpt lat="45.7192" lon="6.8983">
        <ele>1996</ele>
        <time>2019-10-06T07:09:55Z</time>
      </trkpt>
      <trkpt lat="45.71928" lon="6.89828">
        <ele>1995</ele>
        <time>2019-10-06T07:09:58Z</time>
      </trkpt>
      <trkpt lat="45.7193" lon="6.89827">
        <ele>1995</ele>
        <time>2019-10-06T07:09:59Z</time>
      </trkpt>
      <trkpt lat="45.71933" lon="6.89826">
        <ele>1995</ele>
        <time>2019-10-06T07:10:00Z</time>
      </trkpt>
      <trkpt lat="45.71935" lon="6.89825">
        <ele>1996</ele>
        <time>2019-10-06T07:10:01Z</time>
      </trkpt>
      <trkpt lat="45.71938" lon="6.89824">
        <ele>1996</ele>
        <time>2019-10-06T07:10:02Z</time>
      </trkpt>
      <trkpt lat="45.7194" lon="6.89823">
        <ele>1997</ele>
        <time>2019-10-06T07:10:03Z</time>
      </trkpt>
      <trkpt lat="45.71942" lon="6.89822">
        <ele>1997</ele>
        <time>2019-10-06T07:10:04Z</time>
      </trkpt>
      <trkpt lat="45.71944" lon="6.89822">
        <ele>1997</ele>
        <time>2019-10-06T07:10:05Z</time>
      </trkpt>
      <trkpt lat="45.71947" lon="6.89821">
        <ele>1997</ele>
        <time>2019-10-06T07:10:06Z</time>
      </trkpt>
      <trkpt lat="45.71949" lon="6.8982">
        <ele>1997</ele>
        <time>2019-10-06T07:10:07Z</time>
      </trkpt>
      <trkpt lat="45.71951" lon="6.89819">
        <ele>1997</ele>
        <time>2019-10-06T07:10:08Z</time>
      </trkpt>
      <trkpt lat="45.71954" lon="6.89818">
        <ele>1997</ele>
        <time>2019-10-06T07:10:09Z</time>
      </trkpt>
      <trkpt lat="45.71957" lon="6.89818">
        <ele>1997</ele>
        <time>2019-10-06T07:10:10Z</time>
      </trkpt>
      <trkpt lat="45.71959" lon="6.89818">
        <ele>1997</ele>
        <time>2019-10-06T07:10:11Z</time>
      </trkpt>
      <trkpt lat="45.71961" lon="6.89817">
        <ele>1998</ele>
        <time>2019-10-06T07:10:12Z</time>
      </trkpt>
      <trkpt lat="45.71964" lon="6.89816">
        <ele>1998</ele>
        <time>2019-10-06T07:10:13Z</time>
      </trkpt>
      <trkpt lat="45.71966" lon="6.89816">
        <ele>1998</ele>
        <time>2019-10-06T07:10:14Z</time>
      </trkpt>
      <trkpt lat="45.71968" lon="6.89814">
        <ele>1997</ele>
        <time>2019-10-06T07:10:15Z</time>
      </trkpt>
      <trkpt lat="45.7197" lon="6.89813">
        <ele>1997</ele>
        <time>2019-10-06T07:10:16Z</time>
      </trkpt>
      <trkpt lat="45.71973" lon="6.89813">
        <ele>1997</ele>
        <time>2019-10-06T07:10:17Z</time>
      </trkpt>
      <trkpt lat="45.71975" lon="6.89812">
        <ele>1997</ele>
        <time>2019-10-06T07:10:18Z</time>
      </trkpt>
      <trkpt lat="45.71978" lon="6.8981">
        <ele>1997</ele>
        <time>2019-10-06T07:10:19Z</time>
      </trkpt>
      <trkpt lat="45.7198" lon="6.89809">
        <ele>1997</ele>
        <time>2019-10-06T07:10:20Z</time>
      </trkpt>
      <trkpt lat="45.71982" lon="6.89807">
        <ele>1997</ele>
        <time>2019-10-06T07:10:21Z</time>
      </trkpt>
      <trkpt lat="45.71984" lon="6.89806">
        <ele>1998</ele>
        <time>2019-10-06T07:10:22Z</time>
      </trkpt>
      <trkpt lat="45.71987" lon="6.89805">
        <ele>1998</ele>
        <time>2019-10-06T07:10:23Z</time>
      </trkpt>
      <trkpt lat="45.7199" lon="6.89805">
        <ele>1998</ele>
        <time>2019-10-06T07:10:24Z</time>
      </trkpt>
      <trkpt lat="45.71992" lon="6.89804">
        <ele>1999</ele>
        <time>2019-10-06T07:10:25Z</time>
      </trkpt>
      <trkpt lat="45.71995" lon="6.89803">
        <ele>1999</ele>
        <time>2019-10-06T07:10:26Z</time>
      </trkpt>
      <trkpt lat="45.71997" lon="6.89802">
        <ele>1999</ele>
        <time>2019-10-06T07:10:27Z</time>
      </trkpt>
      <trkpt lat="45.71999" lon="6.89802">
        <ele>1999</ele>
        <time>2019-10-06T07:10:28Z</time>
      </trkpt>
      <trkpt lat="45.72002" lon="6.89801">
        <ele>1999</ele>
        <time>2019-10-06T07:10:29Z</time>
      </trkpt>
      <trkpt lat="45.72004" lon="6.898">
        <ele>1998</ele>
        <time>2019-10-06T07:10:30Z</time>
      </trkpt>
      <trkpt lat="45.72007" lon="6.89799">
        <ele>1998</ele>
        <time>2019-10-06T07:10:31Z</time>
      </trkpt>
      <trkpt lat="45.72009" lon="6.89798">
        <ele>1998</ele>
        <time>2019-10-06T07:10:32Z</time>
      </trkpt>
      <trkpt lat="45.72011" lon="6.89797">
        <ele>1999</ele>
        <time>2019-10-06T07:10:33Z</time>
      </trkpt>
      <trkpt lat="45.72014" lon="6.89796">
        <ele>1999</ele>
        <time>2019-10-06T07:10:34Z</time>
      </trkpt>
      <trkpt lat="45.72016" lon="6.89795">
        <ele>1998</ele>
        <time>2019-10-06T07:10:35Z</time>
      </trkpt>
      <trkpt lat="45.72019" lon="6.89795">
        <ele>1998</ele>
        <time>2019-10-06T07:10:36Z</time>
      </trkpt>
      <trkpt lat="45.72021" lon="6.89794">
        <ele>1998</ele>
        <time>2019-10-06T07:10:37Z</time>
      </trkpt>
      <trkpt lat="45.72023" lon="6.89794">
        <ele>1998</ele>
        <time>2019-10-06T07:10:38Z</time>
      </trkpt>
      <trkpt lat="45.72026" lon="6.89793">
        <ele>1998</ele>
        <time>2019-10-06T07:10:39Z</time>
      </trkpt>
      <trkpt lat="45.72028" lon="6.89792">
        <ele>1998</ele>
        <time>2019-10-06T07:10:40Z</time>
      </trkpt>
      <trkpt lat="45.7203" lon="6.89791">
        <ele>1999</ele>
        <time>2019-10-06T07:10:41Z</time>
      </trkpt>
      <trkpt lat="45.72033" lon="6.89791">
        <ele>1999</ele>
        <time>2019-10-06T07:10:42Z</time>
      </trkpt>
      <trkpt lat="45.72035" lon="6.8979">
        <ele>1999</ele>
        <time>2019-10-06T07:10:43Z</time>
      </trkpt>
      <trkpt lat="45.72038" lon="6.89789">
        <ele>2000</ele>
        <time>2019-10-06T07:10:44Z</time>
      </trkpt>
      <trkpt lat="45.7204" lon="6.89789">
        <ele>2000</ele>
        <time>2019-10-06T07:10:45Z</time>
      </trkpt>
      <trkpt lat="45.72043" lon="6.89788">
        <ele>2000</ele>
        <time>2019-10-06T07:10:46Z</time>
      </trkpt>
      <trkpt lat="45.72045" lon="6.89788">
        <ele>1999</ele>
        <time>2019-10-06T07:10:47Z</time>
      </trkpt>
      <trkpt lat="45.72047" lon="6.89787">
        <ele>2000</ele>
        <time>2019-10-06T07:10:48Z</time>
      </trkpt>
      <trkpt lat="45.7205" lon="6.89786">
        <ele>2000</ele>
        <time>2019-10-06T07:10:49Z</time>
      </trkpt>
      <trkpt lat="45.72052" lon="6.89785">
        <ele>2000</ele>
        <time>2019-10-06T07:10:50Z</time>
      </trkpt>
      <trkpt lat="45.72054" lon="6.89784">
        <ele>1999</ele>
        <time>2019-10-06T07:10:51Z</time>
      </trkpt>
      <trkpt lat="45.72057" lon="6.89784">
        <ele>1999</ele>
        <time>2019-10-06T07:10:52Z</time>
      </trkpt>
      <trkpt lat="45.72059" lon="6.89782">
        <ele>1999</ele>
        <time>2019-10-06T07:10:53Z</time>
      </trkpt>
      <trkpt lat="45.72061" lon="6.89781">
        <ele>1999</ele>
        <time>2019-10-06T07:10:54Z</time>
      </trkpt>
      <trkpt lat="45.72063" lon="6.8978">
        <ele>2000</ele>
        <time>2019-10-06T07:10:55Z</time>
      </trkpt>
      <trkpt lat="45.72066" lon="6.89779">
        <ele>2000</ele>
        <time>2019-10-06T07:10:56Z</time>
      </trkpt>
      <trkpt lat="45.72068" lon="6.89779">
        <ele>2001</ele>
        <time>2019-10-06T07:10:57Z</time>
      </trkpt>
      <trkpt lat="45.7207" lon="6.89778">
        <ele>2001</ele>
        <time>2019-10-06T07:10:58Z</time>
      </trkpt>
      <trkpt lat="45.72073" lon="6.89777">
        <ele>2001</ele>
        <time>2019-10-06T07:10:59Z</time>
      </trkpt>
      <trkpt lat="45.72075" lon="6.89777">
        <ele>2001</ele>
        <time>2019-10-06T07:11:00Z</time>
      </trkpt>
      <trkpt lat="45.72077" lon="6.89775">
        <ele>2002</ele>
        <time>2019-10-06T07:11:01Z</time>
      </trkpt>
      <trkpt lat="45.72079" lon="6.89774">
        <ele>2002</ele>
        <time>2019-10-06T07:11:02Z</time>
      </trkpt>
      <trkpt lat="45.72082" lon="6.89773">
        <ele>2002</ele>
        <time>2019-10-06T07:11:03Z</time>
      </trkpt>
      <trkpt lat="45.72084" lon="6.89772">
        <ele>2001</ele>
        <time>2019-10-06T07:11:04Z</time>
      </trkpt>
      <trkpt lat="45.72086" lon="6.89771">
        <ele>2002</ele>
        <time>2019-10-06T07:11:05Z</time>
      </trkpt>
      <trkpt lat="45.72088" lon="6.89771">
        <ele>2002</ele>
        <time>2019-10-06T07:11:06Z</time>
      </trkpt>
      <trkpt lat="45.72091" lon="6.8977">
        <ele>2002</ele>
        <time>2019-10-06T07:11:07Z</time>
      </trkpt>
      <trkpt lat="45.72093" lon="6.8977">
        <ele>2002</ele>
        <time>2019-10-06T07:11:08Z</time>
      </trkpt>
      <trkpt lat="45.72096" lon="6.89769">
        <ele>2002</ele>
        <time>2019-10-06T07:11:09Z</time>
      </trkpt>
      <trkpt lat="45.72098" lon="6.89768">
        <ele>2002</ele>
        <time>2019-10-06T07:11:10Z</time>
      </trkpt>
      <trkpt lat="45.721" lon="6.89768">
        <ele>2002</ele>
        <time>2019-10-06T07:11:11Z</time>
      </trkpt>
      <trkpt lat="45.72103" lon="6.89767">
        <ele>2002</ele>
        <time>2019-10-06T07:11:12Z</time>
      </trkpt>
      <trkpt lat="45.72105" lon="6.89767">
        <ele>2002</ele>
        <time>2019-10-06T07:11:13Z</time>
      </trkpt>
      <trkpt lat="45.72108" lon="6.89766">
        <ele>2002</ele>
        <time>2019-10-06T07:11:14Z</time>
      </trkpt>
      <trkpt lat="45.7211" lon="6.89766">
        <ele>2002</ele>
        <time>2019-10-06T07:11:15Z</time>
      </trkpt>
      <trkpt lat="45.72112" lon="6.89765">
        <ele>2002</ele>
        <time>2019-10-06T07:11:16Z</time>
      </trkpt>
      <trkpt lat="45.72115" lon="6.89764">
        <ele>2002</ele>
        <time>2019-10-06T07:11:17Z</time>
      </trkpt>
      <trkpt lat="45.72118" lon="6.89763">
        <ele>2002</ele>
        <time>2019-10-06T07:11:18Z</time>
      </trkpt>
      <trkpt lat="45.7212" lon="6.89762">
        <ele>2003</ele>
        <time>2019-10-06T07:11:19Z</time>
      </trkpt>
      <trkpt lat="45.72123" lon="6.89762">
        <ele>2003</ele>
        <time>2019-10-06T07:11:20Z</time>
      </trkpt>
      <trkpt lat="45.72125" lon="6.89761">
        <ele>2002</ele>
        <time>2019-10-06T07:11:21Z</time>
      </trkpt>
      <trkpt lat="45.72127" lon="6.89761">
        <ele>2003</ele>
        <time>2019-10-06T07:11:22Z</time>
      </trkpt>
      <trkpt lat="45.7213" lon="6.8976">
        <ele>2003</ele>
        <time>2019-10-06T07:11:23Z</time>
      </trkpt>
      <trkpt lat="45.72132" lon="6.89759">
        <ele>2003</ele>
        <time>2019-10-06T07:11:24Z</time>
      </trkpt>
      <trkpt lat="45.72135" lon="6.89758">
        <ele>2003</ele>
        <time>2019-10-06T07:11:25Z</time>
      </trkpt>
      <trkpt lat="45.72137" lon="6.89758">
        <ele>2003</ele>
        <time>2019-10-06T07:11:26Z</time>
      </trkpt>
      <trkpt lat="45.72139" lon="6.89757">
        <ele>2003</ele>
        <time>2019-10-06T07:11:27Z</time>
      </trkpt>
      <trkpt lat="45.72142" lon="6.89756">
        <ele>2003</ele>
        <time>2019-10-06T07:11:28Z</time>
      </trkpt>
      <trkpt lat="45.72144" lon="6.89756">
        <ele>2003</ele>
        <time>2019-10-06T07:11:29Z</time>
      </trkpt>
      <trkpt lat="45.72146" lon="6.89755">
        <ele>2004</ele>
        <time>2019-10-06T07:11:30Z</time>
      </trkpt>
      <trkpt lat="45.72148" lon="6.89754">
        <ele>2004</ele>
        <time>2019-10-06T07:11:31Z</time>
      </trkpt>
      <trkpt lat="45.72151" lon="6.89754">
        <ele>2004</ele>
        <time>2019-10-06T07:11:32Z</time>
      </trkpt>
      <trkpt lat="45.72154" lon="6.89753">
        <ele>2004</ele>
        <time>2019-10-06T07:11:33Z</time>
      </trkpt>
      <trkpt lat="45.72162" lon="6.8975">
        <ele>2004</ele>
        <time>2019-10-06T07:11:37Z</time>
      </trkpt>
      <trkpt lat="45.72165" lon="6.8975">
        <ele>2003</ele>
        <time>2019-10-06T07:11:38Z</time>
      </trkpt>
      <trkpt lat="45.72167" lon="6.89749">
        <ele>2004</ele>
        <time>2019-10-06T07:11:39Z</time>
      </trkpt>
      <trkpt lat="45.7217" lon="6.89749">
        <ele>2004</ele>
        <time>2019-10-06T07:11:40Z</time>
      </trkpt>
      <trkpt lat="45.7218" lon="6.89747">
        <ele>2005</ele>
        <time>2019-10-06T07:11:44Z</time>
      </trkpt>
      <trkpt lat="45.7218" lon="6.89747">
        <ele>2005</ele>
        <time>2019-10-06T07:11:45Z</time>
      </trkpt>
      <trkpt lat="45.72184" lon="6.89745">
        <ele>2005</ele>
        <time>2019-10-06T07:11:46Z</time>
      </trkpt>
      <trkpt lat="45.72186" lon="6.89744">
        <ele>2005</ele>
        <time>2019-10-06T07:11:47Z</time>
      </trkpt>
      <trkpt lat="45.72188" lon="6.89743">
        <ele>2005</ele>
        <time>2019-10-06T07:11:48Z</time>
      </trkpt>
      <trkpt lat="45.7219" lon="6.89742">
        <ele>2005</ele>
        <time>2019-10-06T07:11:49Z</time>
      </trkpt>
      <trkpt lat="45.72192" lon="6.89741">
        <ele>2005</ele>
        <time>2019-10-06T07:11:50Z</time>
      </trkpt>
      <trkpt lat="45.72195" lon="6.8974">
        <ele>2005</ele>
        <time>2019-10-06T07:11:51Z</time>
      </trkpt>
      <trkpt lat="45.72197" lon="6.89739">
        <ele>2006</ele>
        <time>2019-10-06T07:11:52Z</time>
      </trkpt>
      <trkpt lat="45.72199" lon="6.89739">
        <ele>2006</ele>
        <time>2019-10-06T07:11:53Z</time>
      </trkpt>
      <trkpt lat="45.72201" lon="6.89738">
        <ele>2006</ele>
        <time>2019-10-06T07:11:54Z</time>
      </trkpt>
      <trkpt lat="45.72203" lon="6.89738">
        <ele>2006</ele>
        <time>2019-10-06T07:11:55Z</time>
      </trkpt>
      <trkpt lat="45.72205" lon="6.89737">
        <ele>2007</ele>
        <time>2019-10-06T07:11:56Z</time>
      </trkpt>
      <trkpt lat="45.72207" lon="6.89736">
        <ele>2007</ele>
        <time>2019-10-06T07:11:57Z</time>
      </trkpt>
      <trkpt lat="45.72209" lon="6.89736">
        <ele>2007</ele>
        <time>2019-10-06T07:11:58Z</time>
      </trkpt>
      <trkpt lat="45.72212" lon="6.89735">
        <ele>2007</ele>
        <time>2019-10-06T07:11:59Z</time>
      </trkpt>
      <trkpt lat="45.72214" lon="6.89735">
        <ele>2007</ele>
        <time>2019-10-06T07:12:00Z</time>
      </trkpt>
      <trkpt lat="45.72217" lon="6.89734">
        <ele>2007</ele>
        <time>2019-10-06T07:12:01Z</time>
      </trkpt>
      <trkpt lat="45.72219" lon="6.89733">
        <ele>2008</ele>
        <time>2019-10-06T07:12:02Z</time>
      </trkpt>
      <trkpt lat="45.72221" lon="6.89733">
        <ele>2008</ele>
        <time>2019-10-06T07:12:03Z</time>
      </trkpt>
      <trkpt lat="45.72224" lon="6.89733">
        <ele>2008</ele>
        <time>2019-10-06T07:12:04Z</time>
      </trkpt>
      <trkpt lat="45.72226" lon="6.89733">
        <ele>2008</ele>
        <time>2019-10-06T07:12:05Z</time>
      </trkpt>
      <trkpt lat="45.72228" lon="6.89732">
        <ele>2009</ele>
        <time>2019-10-06T07:12:06Z</time>
      </trkpt>
      <trkpt lat="45.72231" lon="6.89732">
        <ele>2009</ele>
        <time>2019-10-06T07:12:07Z</time>
      </trkpt>
      <trkpt lat="45.72233" lon="6.89733">
        <ele>2008</ele>
        <time>2019-10-06T07:12:08Z</time>
      </trkpt>
      <trkpt lat="45.72236" lon="6.89733">
        <ele>2007</ele>
        <time>2019-10-06T07:12:09Z</time>
      </trkpt>
      <trkpt lat="45.72238" lon="6.89733">
        <ele>2008</ele>
        <time>2019-10-06T07:12:10Z</time>
      </trkpt>
      <trkpt lat="45.72241" lon="6.89733">
        <ele>2008</ele>
        <time>2019-10-06T07:12:11Z</time>
      </trkpt>
      <trkpt lat="45.72243" lon="6.89733">
        <ele>2008</ele>
        <time>2019-10-06T07:12:12Z</time>
      </trkpt>
      <trkpt lat="45.72246" lon="6.89733">
        <ele>2008</ele>
        <time>2019-10-06T07:12:13Z</time>
      </trkpt>
      <trkpt lat="45.72248" lon="6.89732">
        <ele>2008</ele>
        <time>2019-10-06T07:12:14Z</time>
      </trkpt>
      <trkpt lat="45.7225" lon="6.89732">
        <ele>2008</ele>
        <time>2019-10-06T07:12:15Z</time>
      </trkpt>
      <trkpt lat="45.72252" lon="6.89732">
        <ele>2009</ele>
        <time>2019-10-06T07:12:16Z</time>
      </trkpt>
      <trkpt lat="45.72254" lon="6.89732">
        <ele>2009</ele>
        <time>2019-10-06T07:12:17Z</time>
      </trkpt>
      <trkpt lat="45.72256" lon="6.89731">
        <ele>2009</ele>
        <time>2019-10-06T07:12:18Z</time>
      </trkpt>
      <trkpt lat="45.72259" lon="6.89731">
        <ele>2009</ele>
        <time>2019-10-06T07:12:19Z</time>
      </trkpt>
      <trkpt lat="45.72261" lon="6.89731">
        <ele>2009</ele>
        <time>2019-10-06T07:12:20Z</time>
      </trkpt>
      <trkpt lat="45.72263" lon="6.8973">
        <ele>2009</ele>
        <time>2019-10-06T07:12:21Z</time>
      </trkpt>
      <trkpt lat="45.72265" lon="6.8973">
        <ele>2009</ele>
        <time>2019-10-06T07:12:22Z</time>
      </trkpt>
      <trkpt lat="45.72267" lon="6.89729">
        <ele>2010</ele>
        <time>2019-10-06T07:12:23Z</time>
      </trkpt>
      <trkpt lat="45.72269" lon="6.89728">
        <ele>2010</ele>
        <time>2019-10-06T07:12:24Z</time>
      </trkpt>
      <trkpt lat="45.72271" lon="6.89728">
        <ele>2010</ele>
        <time>2019-10-06T07:12:25Z</time>
      </trkpt>
      <trkpt lat="45.72274" lon="6.89728">
        <ele>2010</ele>
        <time>2019-10-06T07:12:26Z</time>
      </trkpt>
      <trkpt lat="45.72276" lon="6.89727">
        <ele>2010</ele>
        <time>2019-10-06T07:12:27Z</time>
      </trkpt>
      <trkpt lat="45.72278" lon="6.89727">
        <ele>2010</ele>
        <time>2019-10-06T07:12:28Z</time>
      </trkpt>
      <trkpt lat="45.72281" lon="6.89726">
        <ele>2010</ele>
        <time>2019-10-06T07:12:29Z</time>
      </trkpt>
      <trkpt lat="45.72283" lon="6.89725">
        <ele>2011</ele>
        <time>2019-10-06T07:12:30Z</time>
      </trkpt>
      <trkpt lat="45.72285" lon="6.89725">
        <ele>2011</ele>
        <time>2019-10-06T07:12:31Z</time>
      </trkpt>
      <trkpt lat="45.72287" lon="6.89724">
        <ele>2011</ele>
        <time>2019-10-06T07:12:32Z</time>
      </trkpt>
      <trkpt lat="45.7229" lon="6.89723">
        <ele>2011</ele>
        <time>2019-10-06T07:12:33Z</time>
      </trkpt>
      <trkpt lat="45.72292" lon="6.89722">
        <ele>2011</ele>
        <time>2019-10-06T07:12:34Z</time>
      </trkpt>
      <trkpt lat="45.72294" lon="6.89722">
        <ele>2011</ele>
        <time>2019-10-06T07:12:35Z</time>
      </trkpt>
      <trkpt lat="45.72296" lon="6.89721">
        <ele>2011</ele>
        <time>2019-10-06T07:12:36Z</time>
      </trkpt>
      <trkpt lat="45.72297" lon="6.8972">
        <ele>2012</ele>
        <time>2019-10-06T07:12:37Z</time>
      </trkpt>
      <trkpt lat="45.72299" lon="6.89719">
        <ele>2012</ele>
        <time>2019-10-06T07:12:38Z</time>
      </trkpt>
      <trkpt lat="45.72301" lon="6.89718">
        <ele>2012</ele>
        <time>2019-10-06T07:12:39Z</time>
      </trkpt>
      <trkpt lat="45.72303" lon="6.89717">
        <ele>2012</ele>
        <time>2019-10-06T07:12:40Z</time>
      </trkpt>
      <trkpt lat="45.72305" lon="6.89716">
        <ele>2012</ele>
        <time>2019-10-06T07:12:41Z</time>
      </trkpt>
      <trkpt lat="45.72307" lon="6.89716">
        <ele>2012</ele>
        <time>2019-10-06T07:12:42Z</time>
      </trkpt>
      <trkpt lat="45.72309" lon="6.89714">
        <ele>2012</ele>
        <time>2019-10-06T07:12:43Z</time>
      </trkpt>
      <trkpt lat="45.72311" lon="6.89713">
        <ele>2012</ele>
        <time>2019-10-06T07:12:44Z</time>
      </trkpt>
      <trkpt lat="45.72314" lon="6.89712">
        <ele>2012</ele>
        <time>2019-10-06T07:12:45Z</time>
      </trkpt>
      <trkpt lat="45.72316" lon="6.89711">
        <ele>2012</ele>
        <time>2019-10-06T07:12:46Z</time>
      </trkpt>
      <trkpt lat="45.72318" lon="6.8971">
        <ele>2014</ele>
        <time>2019-10-06T07:12:47Z</time>
      </trkpt>
      <trkpt lat="45.72321" lon="6.89709">
        <ele>2014</ele>
        <time>2019-10-06T07:12:48Z</time>
      </trkpt>
      <trkpt lat="45.72323" lon="6.89708">
        <ele>2014</ele>
        <time>2019-10-06T07:12:49Z</time>
      </trkpt>
      <trkpt lat="45.72325" lon="6.89707">
        <ele>2015</ele>
        <time>2019-10-06T07:12:50Z</time>
      </trkpt>
      <trkpt lat="45.72328" lon="6.89706">
        <ele>2015</ele>
        <time>2019-10-06T07:12:51Z</time>
      </trkpt>
      <trkpt lat="45.7233" lon="6.89706">
        <ele>2015</ele>
        <time>2019-10-06T07:12:52Z</time>
      </trkpt>
      <trkpt lat="45.72333" lon="6.89706">
        <ele>2014</ele>
        <time>2019-10-06T07:12:53Z</time>
      </trkpt>
      <trkpt lat="45.72335" lon="6.89705">
        <ele>2014</ele>
        <time>2019-10-06T07:12:54Z</time>
      </trkpt>
      <trkpt lat="45.72338" lon="6.89705">
        <ele>2014</ele>
        <time>2019-10-06T07:12:55Z</time>
      </trkpt>
      <trkpt lat="45.7234" lon="6.89705">
        <ele>2015</ele>
        <time>2019-10-06T07:12:56Z</time>
      </trkpt>
      <trkpt lat="45.72342" lon="6.89704">
        <ele>2015</ele>
        <time>2019-10-06T07:12:57Z</time>
      </trkpt>
      <trkpt lat="45.72345" lon="6.89704">
        <ele>2015</ele>
        <time>2019-10-06T07:12:58Z</time>
      </trkpt>
      <trkpt lat="45.72347" lon="6.89703">
        <ele>2015</ele>
        <time>2019-10-06T07:12:59Z</time>
      </trkpt>
      <trkpt lat="45.72348" lon="6.89702">
        <ele>2015</ele>
        <time>2019-10-06T07:13:00Z</time>
      </trkpt>
      <trkpt lat="45.72351" lon="6.89702">
        <ele>2015</ele>
        <time>2019-10-06T07:13:01Z</time>
      </trkpt>
      <trkpt lat="45.72353" lon="6.89701">
        <ele>2015</ele>
        <time>2019-10-06T07:13:02Z</time>
      </trkpt>
      <trkpt lat="45.72356" lon="6.897">
        <ele>2016</ele>
        <time>2019-10-06T07:13:03Z</time>
      </trkpt>
      <trkpt lat="45.72358" lon="6.89699">
        <ele>2016</ele>
        <time>2019-10-06T07:13:04Z</time>
      </trkpt>
      <trkpt lat="45.7236" lon="6.89698">
        <ele>2016</ele>
        <time>2019-10-06T07:13:05Z</time>
      </trkpt>
      <trkpt lat="45.72362" lon="6.89698">
        <ele>2016</ele>
        <time>2019-10-06T07:13:06Z</time>
      </trkpt>
      <trkpt lat="45.72364" lon="6.89697">
        <ele>2017</ele>
        <time>2019-10-06T07:13:07Z</time>
      </trkpt>
      <trkpt lat="45.72366" lon="6.89696">
        <ele>2017</ele>
        <time>2019-10-06T07:13:08Z</time>
      </trkpt>
      <trkpt lat="45.72368" lon="6.89695">
        <ele>2016</ele>
        <time>2019-10-06T07:13:09Z</time>
      </trkpt>
      <trkpt lat="45.72371" lon="6.89695">
        <ele>2016</ele>
        <time>2019-10-06T07:13:10Z</time>
      </trkpt>
      <trkpt lat="45.72373" lon="6.89694">
        <ele>2017</ele>
        <time>2019-10-06T07:13:11Z</time>
      </trkpt>
      <trkpt lat="45.72375" lon="6.89693">
        <ele>2017</ele>
        <time>2019-10-06T07:13:12Z</time>
      </trkpt>
      <trkpt lat="45.72377" lon="6.89693">
        <ele>2018</ele>
        <time>2019-10-06T07:13:13Z</time>
      </trkpt>
      <trkpt lat="45.72379" lon="6.89692">
        <ele>2018</ele>
        <time>2019-10-06T07:13:14Z</time>
      </trkpt>
      <trkpt lat="45.72382" lon="6.89692">
        <ele>2018</ele>
        <time>2019-10-06T07:13:15Z</time>
      </trkpt>
      <trkpt lat="45.72384" lon="6.89692">
        <ele>2018</ele>
        <time>2019-10-06T07:13:16Z</time>
      </trkpt>
      <trkpt lat="45.72386" lon="6.89692">
        <ele>2018</ele>
        <time>2019-10-06T07:13:17Z</time>
      </trkpt>
      <trkpt lat="45.72388" lon="6.89691">
        <ele>2018</ele>
        <time>2019-10-06T07:13:18Z</time>
      </trkpt>
      <trkpt lat="45.72392" lon="6.8969">
        <ele>2018</ele>
        <time>2019-10-06T07:13:20Z</time>
      </trkpt>
      <trkpt lat="45.72394" lon="6.8969">
        <ele>2019</ele>
        <time>2019-10-06T07:13:21Z</time>
      </trkpt>
      <trkpt lat="45.72396" lon="6.89689">
        <ele>2019</ele>
        <time>2019-10-06T07:13:22Z</time>
      </trkpt>
      <trkpt lat="45.72399" lon="6.89689">
        <ele>2019</ele>
        <time>2019-10-06T07:13:23Z</time>
      </trkpt>
      <trkpt lat="45.72401" lon="6.89688">
        <ele>2019</ele>
        <time>2019-10-06T07:13:24Z</time>
      </trkpt>
      <trkpt lat="45.72403" lon="6.89687">
        <ele>2019</ele>
        <time>2019-10-06T07:13:25Z</time>
      </trkpt>
      <trkpt lat="45.72405" lon="6.89686">
        <ele>2019</ele>
        <time>2019-10-06T07:13:26Z</time>
      </trkpt>
      <trkpt lat="45.72408" lon="6.89686">
        <ele>2019</ele>
        <time>2019-10-06T07:13:27Z</time>
      </trkpt>
      <trkpt lat="45.7241" lon="6.89685">
        <ele>2019</ele>
        <time>2019-10-06T07:13:28Z</time>
      </trkpt>
      <trkpt lat="45.72412" lon="6.89685">
        <ele>2019</ele>
        <time>2019-10-06T07:13:29Z</time>
      </trkpt>
      <trkpt lat="45.72414" lon="6.89684">
        <ele>2019</ele>
        <time>2019-10-06T07:13:30Z</time>
      </trkpt>
      <trkpt lat="45.72416" lon="6.89683">
        <ele>2020</ele>
        <time>2019-10-06T07:13:31Z</time>
      </trkpt>
      <trkpt lat="45.72422" lon="6.89682">
        <ele>2020</ele>
        <time>2019-10-06T07:13:34Z</time>
      </trkpt>
      <trkpt lat="45.72425" lon="6.89682">
        <ele>2020</ele>
        <time>2019-10-06T07:13:35Z</time>
      </trkpt>
      <trkpt lat="45.72427" lon="6.89681">
        <ele>2020</ele>
        <time>2019-10-06T07:13:36Z</time>
      </trkpt>
      <trkpt lat="45.72429" lon="6.89681">
        <ele>2021</ele>
        <time>2019-10-06T07:13:37Z</time>
      </trkpt>
      <trkpt lat="45.72432" lon="6.8968">
        <ele>2021</ele>
        <time>2019-10-06T07:13:38Z</time>
      </trkpt>
      <trkpt lat="45.72434" lon="6.8968">
        <ele>2021</ele>
        <time>2019-10-06T07:13:39Z</time>
      </trkpt>
      <trkpt lat="45.72436" lon="6.89679">
        <ele>2021</ele>
        <time>2019-10-06T07:13:40Z</time>
      </trkpt>
      <trkpt lat="45.72438" lon="6.89679">
        <ele>2022</ele>
        <time>2019-10-06T07:13:41Z</time>
      </trkpt>
      <trkpt lat="45.72441" lon="6.89678">
        <ele>2022</ele>
        <time>2019-10-06T07:13:42Z</time>
      </trkpt>
      <trkpt lat="45.72443" lon="6.89678">
        <ele>2022</ele>
        <time>2019-10-06T07:13:43Z</time>
      </trkpt>
      <trkpt lat="45.72445" lon="6.89678">
        <ele>2022</ele>
        <time>2019-10-06T07:13:44Z</time>
      </trkpt>
      <trkpt lat="45.72448" lon="6.89677">
        <ele>2022</ele>
        <time>2019-10-06T07:13:45Z</time>
      </trkpt>
      <trkpt lat="45.72449" lon="6.89676">
        <ele>2022</ele>
        <time>2019-10-06T07:13:46Z</time>
      </trkpt>
      <trkpt lat="45.72452" lon="6.89675">
        <ele>2022</ele>
        <time>2019-10-06T07:13:47Z</time>
      </trkpt>
      <trkpt lat="45.72454" lon="6.89675">
        <ele>2023</ele>
        <time>2019-10-06T07:13:48Z</time>
      </trkpt>
      <trkpt lat="45.72456" lon="6.89674">
        <ele>2023</ele>
        <time>2019-10-06T07:13:49Z</time>
      </trkpt>
      <trkpt lat="45.72458" lon="6.89673">
        <ele>2023</ele>
        <time>2019-10-06T07:13:50Z</time>
      </trkpt>
      <trkpt lat="45.7246" lon="6.89673">
        <ele>2023</ele>
        <time>2019-10-06T07:13:51Z</time>
      </trkpt>
      <trkpt lat="45.72462" lon="6.89672">
        <ele>2023</ele>
        <time>2019-10-06T07:13:52Z</time>
      </trkpt>
      <trkpt lat="45.72464" lon="6.89672">
        <ele>2023</ele>
        <time>2019-10-06T07:13:53Z</time>
      </trkpt>
      <trkpt lat="45.72466" lon="6.8967">
        <ele>2023</ele>
        <time>2019-10-06T07:13:54Z</time>
      </trkpt>
      <trkpt lat="45.72471" lon="6.89667">
        <ele>2024</ele>
        <time>2019-10-06T07:13:56Z</time>
      </trkpt>
      <trkpt lat="45.72472" lon="6.89667">
        <ele>2024</ele>
        <time>2019-10-06T07:13:57Z</time>
      </trkpt>
      <trkpt lat="45.72473" lon="6.89667">
        <ele>2024</ele>
        <time>2019-10-06T07:13:58Z</time>
      </trkpt>
      <trkpt lat="45.72474" lon="6.89666">
        <ele>2024</ele>
        <time>2019-10-06T07:13:59Z</time>
      </trkpt>
      <trkpt lat="45.72475" lon="6.89666">
        <ele>2024</ele>
        <time>2019-10-06T07:14:00Z</time>
      </trkpt>
      <trkpt lat="45.7248" lon="6.89665">
        <ele>2024</ele>
        <time>2019-10-06T07:14:01Z</time>
      </trkpt>
      <trkpt lat="45.72482" lon="6.89665">
        <ele>2024</ele>
        <time>2019-10-06T07:14:02Z</time>
      </trkpt>
      <trkpt lat="45.72484" lon="6.89665">
        <ele>2024</ele>
        <time>2019-10-06T07:14:03Z</time>
      </trkpt>
      <trkpt lat="45.72487" lon="6.89666">
        <ele>2024</ele>
        <time>2019-10-06T07:14:04Z</time>
      </trkpt>
      <trkpt lat="45.72489" lon="6.89666">
        <ele>2024</ele>
        <time>2019-10-06T07:14:05Z</time>
      </trkpt>
      <trkpt lat="45.72491" lon="6.89665">
        <ele>2025</ele>
        <time>2019-10-06T07:14:06Z</time>
      </trkpt>
      <trkpt lat="45.72493" lon="6.89665">
        <ele>2025</ele>
        <time>2019-10-06T07:14:07Z</time>
      </trkpt>
      <trkpt lat="45.72495" lon="6.89665">
        <ele>2025</ele>
        <time>2019-10-06T07:14:08Z</time>
      </trkpt>
      <trkpt lat="45.72497" lon="6.89664">
        <ele>2025</ele>
        <time>2019-10-06T07:14:09Z</time>
      </trkpt>
      <trkpt lat="45.72499" lon="6.89664">
        <ele>2025</ele>
        <time>2019-10-06T07:14:10Z</time>
      </trkpt>
      <trkpt lat="45.72501" lon="6.89664">
        <ele>2025</ele>
        <time>2019-10-06T07:14:11Z</time>
      </trkpt>
      <trkpt lat="45.72503" lon="6.89663">
        <ele>2025</ele>
        <time>2019-10-06T07:14:12Z</time>
      </trkpt>
      <trkpt lat="45.72505" lon="6.89662">
        <ele>2026</ele>
        <time>2019-10-06T07:14:13Z</time>
      </trkpt>
      <trkpt lat="45.72507" lon="6.89662">
        <ele>2026</ele>
        <time>2019-10-06T07:14:14Z</time>
      </trkpt>
      <trkpt lat="45.72509" lon="6.89661">
        <ele>2026</ele>
        <time>2019-10-06T07:14:15Z</time>
      </trkpt>
      <trkpt lat="45.72512" lon="6.89661">
        <ele>2026</ele>
        <time>2019-10-06T07:14:16Z</time>
      </trkpt>
      <trkpt lat="45.72514" lon="6.89661">
        <ele>2027</ele>
        <time>2019-10-06T07:14:17Z</time>
      </trkpt>
      <trkpt lat="45.72516" lon="6.8966">
        <ele>2027</ele>
        <time>2019-10-06T07:14:18Z</time>
      </trkpt>
      <trkpt lat="45.72518" lon="6.8966">
        <ele>2027</ele>
        <time>2019-10-06T07:14:19Z</time>
      </trkpt>
      <trkpt lat="45.72521" lon="6.89659">
        <ele>2027</ele>
        <time>2019-10-06T07:14:20Z</time>
      </trkpt>
      <trkpt lat="45.72523" lon="6.89659">
        <ele>2027</ele>
        <time>2019-10-06T07:14:21Z</time>
      </trkpt>
      <trkpt lat="45.72525" lon="6.89658">
        <ele>2028</ele>
        <time>2019-10-06T07:14:22Z</time>
      </trkpt>
      <trkpt lat="45.72527" lon="6.89657">
        <ele>2028</ele>
        <time>2019-10-06T07:14:23Z</time>
      </trkpt>
      <trkpt lat="45.72529" lon="6.89657">
        <ele>2028</ele>
        <time>2019-10-06T07:14:24Z</time>
      </trkpt>
      <trkpt lat="45.72532" lon="6.89657">
        <ele>2028</ele>
        <time>2019-10-06T07:14:25Z</time>
      </trkpt>
      <trkpt lat="45.72534" lon="6.89656">
        <ele>2028</ele>
        <time>2019-10-06T07:14:26Z</time>
      </trkpt>
      <trkpt lat="45.72536" lon="6.89655">
        <ele>2028</ele>
        <time>2019-10-06T07:14:27Z</time>
      </trkpt>
      <trkpt lat="45.72538" lon="6.89655">
        <ele>2028</ele>
        <time>2019-10-06T07:14:28Z</time>
      </trkpt>
      <trkpt lat="45.7254" lon="6.89654">
        <ele>2028</ele>
        <time>2019-10-06T07:14:29Z</time>
      </trkpt>
      <trkpt lat="45.72542" lon="6.89653">
        <ele>2028</ele>
        <time>2019-10-06T07:14:30Z</time>
      </trkpt>
      <trkpt lat="45.72545" lon="6.89653">
        <ele>2028</ele>
        <time>2019-10-06T07:14:31Z</time>
      </trkpt>
      <trkpt lat="45.72547" lon="6.89653">
        <ele>2029</ele>
        <time>2019-10-06T07:14:32Z</time>
      </trkpt>
      <trkpt lat="45.72549" lon="6.89653">
        <ele>2029</ele>
        <time>2019-10-06T07:14:33Z</time>
      </trkpt>
      <trkpt lat="45.72552" lon="6.89652">
        <ele>2029</ele>
        <time>2019-10-06T07:14:34Z</time>
      </trkpt>
      <trkpt lat="45.72554" lon="6.89651">
        <ele>2029</ele>
        <time>2019-10-06T07:14:35Z</time>
      </trkpt>
      <trkpt lat="45.72556" lon="6.8965">
        <ele>2030</ele>
        <time>2019-10-06T07:14:36Z</time>
      </trkpt>
      <trkpt lat="45.72558" lon="6.89649">
        <ele>2030</ele>
        <time>2019-10-06T07:14:37Z</time>
      </trkpt>
      <trkpt lat="45.7256" lon="6.89648">
        <ele>2030</ele>
        <time>2019-10-06T07:14:38Z</time>
      </trkpt>
      <trkpt lat="45.72562" lon="6.89647">
        <ele>2030</ele>
        <time>2019-10-06T07:14:39Z</time>
      </trkpt>
      <trkpt lat="45.72564" lon="6.89646">
        <ele>2030</ele>
        <time>2019-10-06T07:14:40Z</time>
      </trkpt>
      <trkpt lat="45.72572" lon="6.89641">
        <ele>2031</ele>
        <time>2019-10-06T07:14:44Z</time>
      </trkpt>
      <trkpt lat="45.72574" lon="6.8964">
        <ele>2031</ele>
        <time>2019-10-06T07:14:45Z</time>
      </trkpt>
      <trkpt lat="45.72576" lon="6.89639">
        <ele>2031</ele>
        <time>2019-10-06T07:14:46Z</time>
      </trkpt>
      <trkpt lat="45.72577" lon="6.89638">
        <ele>2032</ele>
        <time>2019-10-06T07:14:47Z</time>
      </trkpt>
      <trkpt lat="45.72579" lon="6.89636">
        <ele>2032</ele>
        <time>2019-10-06T07:14:48Z</time>
      </trkpt>
      <trkpt lat="45.72581" lon="6.89635">
        <ele>2032</ele>
        <time>2019-10-06T07:14:49Z</time>
      </trkpt>
      <trkpt lat="45.72583" lon="6.89634">
        <ele>2032</ele>
        <time>2019-10-06T07:14:50Z</time>
      </trkpt>
      <trkpt lat="45.72585" lon="6.89634">
        <ele>2032</ele>
        <time>2019-10-06T07:14:51Z</time>
      </trkpt>
      <trkpt lat="45.72587" lon="6.89633">
        <ele>2032</ele>
        <time>2019-10-06T07:14:52Z</time>
      </trkpt>
      <trkpt lat="45.72589" lon="6.89632">
        <ele>2032</ele>
        <time>2019-10-06T07:14:53Z</time>
      </trkpt>
      <trkpt lat="45.72591" lon="6.89631">
        <ele>2032</ele>
        <time>2019-10-06T07:14:54Z</time>
      </trkpt>
      <trkpt lat="45.72593" lon="6.89631">
        <ele>2032</ele>
        <time>2019-10-06T07:14:55Z</time>
      </trkpt>
      <trkpt lat="45.72596" lon="6.8963">
        <ele>2032</ele>
        <time>2019-10-06T07:14:56Z</time>
      </trkpt>
      <trkpt lat="45.72598" lon="6.8963">
        <ele>2032</ele>
        <time>2019-10-06T07:14:57Z</time>
      </trkpt>
      <trkpt lat="45.726" lon="6.89629">
        <ele>2032</ele>
        <time>2019-10-06T07:14:58Z</time>
      </trkpt>
      <trkpt lat="45.72602" lon="6.89628">
        <ele>2032</ele>
        <time>2019-10-06T07:14:59Z</time>
      </trkpt>
      <trkpt lat="45.72604" lon="6.89627">
        <ele>2032</ele>
        <time>2019-10-06T07:15:00Z</time>
      </trkpt>
      <trkpt lat="45.72607" lon="6.89627">
        <ele>2032</ele>
        <time>2019-10-06T07:15:01Z</time>
      </trkpt>
      <trkpt lat="45.72609" lon="6.89626">
        <ele>2033</ele>
        <time>2019-10-06T07:15:02Z</time>
      </trkpt>
      <trkpt lat="45.7261" lon="6.89625">
        <ele>2033</ele>
        <time>2019-10-06T07:15:03Z</time>
      </trkpt>
      <trkpt lat="45.72613" lon="6.89624">
        <ele>2033</ele>
        <time>2019-10-06T07:15:04Z</time>
      </trkpt>
      <trkpt lat="45.72615" lon="6.89624">
        <ele>2033</ele>
        <time>2019-10-06T07:15:05Z</time>
      </trkpt>
      <trkpt lat="45.72616" lon="6.89623">
        <ele>2033</ele>
        <time>2019-10-06T07:15:06Z</time>
      </trkpt>
      <trkpt lat="45.72618" lon="6.89622">
        <ele>2033</ele>
        <time>2019-10-06T07:15:07Z</time>
      </trkpt>
      <trkpt lat="45.7262" lon="6.89621">
        <ele>2033</ele>
        <time>2019-10-06T07:15:08Z</time>
      </trkpt>
      <trkpt lat="45.72623" lon="6.8962">
        <ele>2033</ele>
        <time>2019-10-06T07:15:09Z</time>
      </trkpt>
      <trkpt lat="45.72625" lon="6.8962">
        <ele>2033</ele>
        <time>2019-10-06T07:15:10Z</time>
      </trkpt>
      <trkpt lat="45.72627" lon="6.89619">
        <ele>2033</ele>
        <time>2019-10-06T07:15:11Z</time>
      </trkpt>
      <trkpt lat="45.72629" lon="6.89618">
        <ele>2033</ele>
        <time>2019-10-06T07:15:12Z</time>
      </trkpt>
      <trkpt lat="45.72631" lon="6.89618">
        <ele>2033</ele>
        <time>2019-10-06T07:15:13Z</time>
      </trkpt>
      <trkpt lat="45.72633" lon="6.89617">
        <ele>2034</ele>
        <time>2019-10-06T07:15:14Z</time>
      </trkpt>
      <trkpt lat="45.72635" lon="6.89616">
        <ele>2034</ele>
        <time>2019-10-06T07:15:15Z</time>
      </trkpt>
      <trkpt lat="45.72638" lon="6.89615">
        <ele>2034</ele>
        <time>2019-10-06T07:15:16Z</time>
      </trkpt>
      <trkpt lat="45.7264" lon="6.89615">
        <ele>2034</ele>
        <time>2019-10-06T07:15:17Z</time>
      </trkpt>
      <trkpt lat="45.72642" lon="6.89614">
        <ele>2035</ele>
        <time>2019-10-06T07:15:18Z</time>
      </trkpt>
      <trkpt lat="45.72644" lon="6.89613">
        <ele>2035</ele>
        <time>2019-10-06T07:15:19Z</time>
      </trkpt>
      <trkpt lat="45.72646" lon="6.89613">
        <ele>2035</ele>
        <time>2019-10-06T07:15:20Z</time>
      </trkpt>
      <trkpt lat="45.72649" lon="6.89613">
        <ele>2036</ele>
        <time>2019-10-06T07:15:21Z</time>
      </trkpt>
      <trkpt lat="45.72651" lon="6.89612">
        <ele>2036</ele>
        <time>2019-10-06T07:15:22Z</time>
      </trkpt>
      <trkpt lat="45.72654" lon="6.89612">
        <ele>2036</ele>
        <time>2019-10-06T07:15:23Z</time>
      </trkpt>
      <trkpt lat="45.72655" lon="6.89611">
        <ele>2036</ele>
        <time>2019-10-06T07:15:24Z</time>
      </trkpt>
      <trkpt lat="45.72657" lon="6.8961">
        <ele>2036</ele>
        <time>2019-10-06T07:15:25Z</time>
      </trkpt>
      <trkpt lat="45.72659" lon="6.8961">
        <ele>2036</ele>
        <time>2019-10-06T07:15:26Z</time>
      </trkpt>
      <trkpt lat="45.72662" lon="6.89609">
        <ele>2036</ele>
        <time>2019-10-06T07:15:27Z</time>
      </trkpt>
      <trkpt lat="45.72664" lon="6.89609">
        <ele>2037</ele>
        <time>2019-10-06T07:15:28Z</time>
      </trkpt>
      <trkpt lat="45.72666" lon="6.89608">
        <ele>2037</ele>
        <time>2019-10-06T07:15:29Z</time>
      </trkpt>
      <trkpt lat="45.72668" lon="6.89608">
        <ele>2037</ele>
        <time>2019-10-06T07:15:30Z</time>
      </trkpt>
      <trkpt lat="45.7267" lon="6.89607">
        <ele>2037</ele>
        <time>2019-10-06T07:15:31Z</time>
      </trkpt>
      <trkpt lat="45.72672" lon="6.89607">
        <ele>2037</ele>
        <time>2019-10-06T07:15:32Z</time>
      </trkpt>
      <trkpt lat="45.72674" lon="6.89607">
        <ele>2037</ele>
        <time>2019-10-06T07:15:33Z</time>
      </trkpt>
      <trkpt lat="45.72677" lon="6.89606">
        <ele>2037</ele>
        <time>2019-10-06T07:15:34Z</time>
      </trkpt>
      <trkpt lat="45.72679" lon="6.89606">
        <ele>2038</ele>
        <time>2019-10-06T07:15:35Z</time>
      </trkpt>
      <trkpt lat="45.72681" lon="6.89606">
        <ele>2038</ele>
        <time>2019-10-06T07:15:36Z</time>
      </trkpt>
      <trkpt lat="45.72683" lon="6.89606">
        <ele>2038</ele>
        <time>2019-10-06T07:15:37Z</time>
      </trkpt>
      <trkpt lat="45.72685" lon="6.89606">
        <ele>2038</ele>
        <time>2019-10-06T07:15:38Z</time>
      </trkpt>
      <trkpt lat="45.72687" lon="6.89605">
        <ele>2038</ele>
        <time>2019-10-06T07:15:39Z</time>
      </trkpt>
      <trkpt lat="45.72689" lon="6.89605">
        <ele>2038</ele>
        <time>2019-10-06T07:15:40Z</time>
      </trkpt>
      <trkpt lat="45.72691" lon="6.89605">
        <ele>2038</ele>
        <time>2019-10-06T07:15:41Z</time>
      </trkpt>
      <trkpt lat="45.72693" lon="6.89605">
        <ele>2038</ele>
        <time>2019-10-06T07:15:42Z</time>
      </trkpt>
      <trkpt lat="45.72696" lon="6.89604">
        <ele>2038</ele>
        <time>2019-10-06T07:15:43Z</time>
      </trkpt>
      <trkpt lat="45.72698" lon="6.89604">
        <ele>2038</ele>
        <time>2019-10-06T07:15:44Z</time>
      </trkpt>
      <trkpt lat="45.727" lon="6.89604">
        <ele>2038</ele>
        <time>2019-10-06T07:15:45Z</time>
      </trkpt>
      <trkpt lat="45.72702" lon="6.89605">
        <ele>2038</ele>
        <time>2019-10-06T07:15:46Z</time>
      </trkpt>
      <trkpt lat="45.72705" lon="6.89605">
        <ele>2038</ele>
        <time>2019-10-06T07:15:47Z</time>
      </trkpt>
      <trkpt lat="45.72707" lon="6.89604">
        <ele>2038</ele>
        <time>2019-10-06T07:15:48Z</time>
      </trkpt>
      <trkpt lat="45.72709" lon="6.89604">
        <ele>2038</ele>
        <time>2019-10-06T07:15:49Z</time>
      </trkpt>
      <trkpt lat="45.72713" lon="6.89602">
        <ele>2040</ele>
        <time>2019-10-06T07:15:51Z</time>
      </trkpt>
      <trkpt lat="45.72716" lon="6.89602">
        <ele>2040</ele>
        <time>2019-10-06T07:15:52Z</time>
      </trkpt>
      <trkpt lat="45.72718" lon="6.89602">
        <ele>2040</ele>
        <time>2019-10-06T07:15:53Z</time>
      </trkpt>
      <trkpt lat="45.7272" lon="6.89601">
        <ele>2040</ele>
        <time>2019-10-06T07:15:54Z</time>
      </trkpt>
      <trkpt lat="45.72722" lon="6.89601">
        <ele>2040</ele>
        <time>2019-10-06T07:15:55Z</time>
      </trkpt>
      <trkpt lat="45.72724" lon="6.896">
        <ele>2041</ele>
        <time>2019-10-06T07:15:56Z</time>
      </trkpt>
      <trkpt lat="45.72726" lon="6.89599">
        <ele>2041</ele>
        <time>2019-10-06T07:15:57Z</time>
      </trkpt>
      <trkpt lat="45.72729" lon="6.89598">
        <ele>2041</ele>
        <time>2019-10-06T07:15:58Z</time>
      </trkpt>
      <trkpt lat="45.7273" lon="6.89597">
        <ele>2041</ele>
        <time>2019-10-06T07:15:59Z</time>
      </trkpt>
      <trkpt lat="45.72732" lon="6.89595">
        <ele>2041</ele>
        <time>2019-10-06T07:16:00Z</time>
      </trkpt>
      <trkpt lat="45.7274" lon="6.8959">
        <ele>2042</ele>
        <time>2019-10-06T07:16:04Z</time>
      </trkpt>
      <trkpt lat="45.72742" lon="6.8959">
        <ele>2042</ele>
        <time>2019-10-06T07:16:05Z</time>
      </trkpt>
      <trkpt lat="45.72744" lon="6.89589">
        <ele>2042</ele>
        <time>2019-10-06T07:16:06Z</time>
      </trkpt>
      <trkpt lat="45.72747" lon="6.89588">
        <ele>2042</ele>
        <time>2019-10-06T07:16:07Z</time>
      </trkpt>
      <trkpt lat="45.72753" lon="6.89584">
        <ele>2042</ele>
        <time>2019-10-06T07:16:10Z</time>
      </trkpt>
      <trkpt lat="45.72757" lon="6.89583">
        <ele>2042</ele>
        <time>2019-10-06T07:16:12Z</time>
      </trkpt>
      <trkpt lat="45.72759" lon="6.89582">
        <ele>2042</ele>
        <time>2019-10-06T07:16:13Z</time>
      </trkpt>
      <trkpt lat="45.72761" lon="6.89581">
        <ele>2042</ele>
        <time>2019-10-06T07:16:14Z</time>
      </trkpt>
      <trkpt lat="45.72767" lon="6.89577">
        <ele>2042</ele>
        <time>2019-10-06T07:16:17Z</time>
      </trkpt>
      <trkpt lat="45.72769" lon="6.89577">
        <ele>2043</ele>
        <time>2019-10-06T07:16:18Z</time>
      </trkpt>
      <trkpt lat="45.72771" lon="6.89576">
        <ele>2043</ele>
        <time>2019-10-06T07:16:19Z</time>
      </trkpt>
      <trkpt lat="45.72773" lon="6.89575">
        <ele>2043</ele>
        <time>2019-10-06T07:16:20Z</time>
      </trkpt>
      <trkpt lat="45.72776" lon="6.89573">
        <ele>2043</ele>
        <time>2019-10-06T07:16:21Z</time>
      </trkpt>
      <trkpt lat="45.72777" lon="6.89572">
        <ele>2043</ele>
        <time>2019-10-06T07:16:22Z</time>
      </trkpt>
      <trkpt lat="45.72779" lon="6.8957">
        <ele>2043</ele>
        <time>2019-10-06T07:16:23Z</time>
      </trkpt>
      <trkpt lat="45.72781" lon="6.89568">
        <ele>2044</ele>
        <time>2019-10-06T07:16:24Z</time>
      </trkpt>
      <trkpt lat="45.72783" lon="6.89567">
        <ele>2044</ele>
        <time>2019-10-06T07:16:25Z</time>
      </trkpt>
      <trkpt lat="45.72785" lon="6.89565">
        <ele>2044</ele>
        <time>2019-10-06T07:16:26Z</time>
      </trkpt>
      <trkpt lat="45.72787" lon="6.89564">
        <ele>2044</ele>
        <time>2019-10-06T07:16:27Z</time>
      </trkpt>
      <trkpt lat="45.72789" lon="6.89563">
        <ele>2044</ele>
        <time>2019-10-06T07:16:28Z</time>
      </trkpt>
      <trkpt lat="45.72791" lon="6.89562">
        <ele>2044</ele>
        <time>2019-10-06T07:16:29Z</time>
      </trkpt>
      <trkpt lat="45.72793" lon="6.89561">
        <ele>2044</ele>
        <time>2019-10-06T07:16:30Z</time>
      </trkpt>
      <trkpt lat="45.72795" lon="6.8956">
        <ele>2044</ele>
        <time>2019-10-06T07:16:31Z</time>
      </trkpt>
      <trkpt lat="45.72797" lon="6.89559">
        <ele>2045</ele>
        <time>2019-10-06T07:16:32Z</time>
      </trkpt>
      <trkpt lat="45.72799" lon="6.89558">
        <ele>2045</ele>
        <time>2019-10-06T07:16:33Z</time>
      </trkpt>
      <trkpt lat="45.72801" lon="6.89558">
        <ele>2045</ele>
        <time>2019-10-06T07:16:34Z</time>
      </trkpt>
      <trkpt lat="45.72803" lon="6.89557">
        <ele>2045</ele>
        <time>2019-10-06T07:16:35Z</time>
      </trkpt>
      <trkpt lat="45.72806" lon="6.89556">
        <ele>2045</ele>
        <time>2019-10-06T07:16:36Z</time>
      </trkpt>
      <trkpt lat="45.72808" lon="6.89556">
        <ele>2046</ele>
        <time>2019-10-06T07:16:37Z</time>
      </trkpt>
      <trkpt lat="45.7281" lon="6.89555">
        <ele>2046</ele>
        <time>2019-10-06T07:16:38Z</time>
      </trkpt>
      <trkpt lat="45.72811" lon="6.89555">
        <ele>2046</ele>
        <time>2019-10-06T07:16:39Z</time>
      </trkpt>
      <trkpt lat="45.72813" lon="6.89554">
        <ele>2046</ele>
        <time>2019-10-06T07:16:40Z</time>
      </trkpt>
      <trkpt lat="45.72815" lon="6.89554">
        <ele>2046</ele>
        <time>2019-10-06T07:16:41Z</time>
      </trkpt>
      <trkpt lat="45.72817" lon="6.89554">
        <ele>2047</ele>
        <time>2019-10-06T07:16:42Z</time>
      </trkpt>
      <trkpt lat="45.72819" lon="6.89553">
        <ele>2047</ele>
        <time>2019-10-06T07:16:43Z</time>
      </trkpt>
      <trkpt lat="45.72821" lon="6.89553">
        <ele>2047</ele>
        <time>2019-10-06T07:16:44Z</time>
      </trkpt>
      <trkpt lat="45.72823" lon="6.89553">
        <ele>2047</ele>
        <time>2019-10-06T07:16:45Z</time>
      </trkpt>
      <trkpt lat="45.72826" lon="6.89552">
        <ele>2047</ele>
        <time>2019-10-06T07:16:46Z</time>
      </trkpt>
      <trkpt lat="45.72828" lon="6.89552">
        <ele>2047</ele>
        <time>2019-10-06T07:16:47Z</time>
      </trkpt>
      <trkpt lat="45.72829" lon="6.89551">
        <ele>2047</ele>
        <time>2019-10-06T07:16:48Z</time>
      </trkpt>
      <trkpt lat="45.72831" lon="6.89551">
        <ele>2047</ele>
        <time>2019-10-06T07:16:49Z</time>
      </trkpt>
      <trkpt lat="45.72833" lon="6.89551">
        <ele>2048</ele>
        <time>2019-10-06T07:16:50Z</time>
      </trkpt>
      <trkpt lat="45.72835" lon="6.89551">
        <ele>2048</ele>
        <time>2019-10-06T07:16:51Z</time>
      </trkpt>
      <trkpt lat="45.72837" lon="6.89551">
        <ele>2048</ele>
        <time>2019-10-06T07:16:52Z</time>
      </trkpt>
      <trkpt lat="45.72839" lon="6.89551">
        <ele>2048</ele>
        <time>2019-10-06T07:16:53Z</time>
      </trkpt>
      <trkpt lat="45.72841" lon="6.89552">
        <ele>2048</ele>
        <time>2019-10-06T07:16:54Z</time>
      </trkpt>
      <trkpt lat="45.72843" lon="6.89552">
        <ele>2048</ele>
        <time>2019-10-06T07:16:55Z</time>
      </trkpt>
      <trkpt lat="45.72845" lon="6.89552">
        <ele>2048</ele>
        <time>2019-10-06T07:16:56Z</time>
      </trkpt>
      <trkpt lat="45.72847" lon="6.89553">
        <ele>2049</ele>
        <time>2019-10-06T07:16:57Z</time>
      </trkpt>
      <trkpt lat="45.72849" lon="6.89553">
        <ele>2049</ele>
        <time>2019-10-06T07:16:58Z</time>
      </trkpt>
      <trkpt lat="45.72851" lon="6.89553">
        <ele>2049</ele>
        <time>2019-10-06T07:16:59Z</time>
      </trkpt>
      <trkpt lat="45.72853" lon="6.89553">
        <ele>2049</ele>
        <time>2019-10-06T07:17:00Z</time>
      </trkpt>
      <trkpt lat="45.72855" lon="6.89553">
        <ele>2050</ele>
        <time>2019-10-06T07:17:01Z</time>
      </trkpt>
      <trkpt lat="45.72858" lon="6.89553">
        <ele>2050</ele>
        <time>2019-10-06T07:17:02Z</time>
      </trkpt>
      <trkpt lat="45.7286" lon="6.89552">
        <ele>2050</ele>
        <time>2019-10-06T07:17:03Z</time>
      </trkpt>
      <trkpt lat="45.72862" lon="6.89552">
        <ele>2050</ele>
        <time>2019-10-06T07:17:04Z</time>
      </trkpt>
      <trkpt lat="45.72864" lon="6.89551">
        <ele>2050</ele>
        <time>2019-10-06T07:17:05Z</time>
      </trkpt>
      <trkpt lat="45.7287" lon="6.89548">
        <ele>2051</ele>
        <time>2019-10-06T07:17:08Z</time>
      </trkpt>
      <trkpt lat="45.72872" lon="6.89547">
        <ele>2051</ele>
        <time>2019-10-06T07:17:09Z</time>
      </trkpt>
      <trkpt lat="45.72874" lon="6.89546">
        <ele>2051</ele>
        <time>2019-10-06T07:17:10Z</time>
      </trkpt>
      <trkpt lat="45.72876" lon="6.89545">
        <ele>2051</ele>
        <time>2019-10-06T07:17:11Z</time>
      </trkpt>
      <trkpt lat="45.72881" lon="6.8954">
        <ele>2051</ele>
        <time>2019-10-06T07:17:14Z</time>
      </trkpt>
      <trkpt lat="45.72883" lon="6.89539">
        <ele>2052</ele>
        <time>2019-10-06T07:17:15Z</time>
      </trkpt>
      <trkpt lat="45.72884" lon="6.89537">
        <ele>2052</ele>
        <time>2019-10-06T07:17:16Z</time>
      </trkpt>
      <trkpt lat="45.72886" lon="6.89536">
        <ele>2052</ele>
        <time>2019-10-06T07:17:17Z</time>
      </trkpt>
      <trkpt lat="45.72888" lon="6.89535">
        <ele>2052</ele>
        <time>2019-10-06T07:17:18Z</time>
      </trkpt>
      <trkpt lat="45.7289" lon="6.89534">
        <ele>2052</ele>
        <time>2019-10-06T07:17:19Z</time>
      </trkpt>
      <trkpt lat="45.72891" lon="6.89533">
        <ele>2053</ele>
        <time>2019-10-06T07:17:20Z</time>
      </trkpt>
      <trkpt lat="45.72893" lon="6.89532">
        <ele>2053</ele>
        <time>2019-10-06T07:17:21Z</time>
      </trkpt>
      <trkpt lat="45.72895" lon="6.89531">
        <ele>2053</ele>
        <time>2019-10-06T07:17:22Z</time>
      </trkpt>
      <trkpt lat="45.72897" lon="6.89531">
        <ele>2053</ele>
        <time>2019-10-06T07:17:23Z</time>
      </trkpt>
      <trkpt lat="45.72899" lon="6.8953">
        <ele>2053</ele>
        <time>2019-10-06T07:17:24Z</time>
      </trkpt>
      <trkpt lat="45.72901" lon="6.8953">
        <ele>2053</ele>
        <time>2019-10-06T07:17:25Z</time>
      </trkpt>
      <trkpt lat="45.72903" lon="6.89529">
        <ele>2053</ele>
        <time>2019-10-06T07:17:26Z</time>
      </trkpt>
      <trkpt lat="45.72905" lon="6.89528">
        <ele>2054</ele>
        <time>2019-10-06T07:17:27Z</time>
      </trkpt>
      <trkpt lat="45.72906" lon="6.89527">
        <ele>2054</ele>
        <time>2019-10-06T07:17:28Z</time>
      </trkpt>
      <trkpt lat="45.72908" lon="6.89526">
        <ele>2054</ele>
        <time>2019-10-06T07:17:29Z</time>
      </trkpt>
      <trkpt lat="45.7291" lon="6.89525">
        <ele>2054</ele>
        <time>2019-10-06T07:17:30Z</time>
      </trkpt>
      <trkpt lat="45.72912" lon="6.89524">
        <ele>2054</ele>
        <time>2019-10-06T07:17:31Z</time>
      </trkpt>
      <trkpt lat="45.72915" lon="6.89522">
        <ele>2055</ele>
        <time>2019-10-06T07:17:33Z</time>
      </trkpt>
      <trkpt lat="45.72917" lon="6.89521">
        <ele>2055</ele>
        <time>2019-10-06T07:17:34Z</time>
      </trkpt>
      <trkpt lat="45.72921" lon="6.89519">
        <ele>2055</ele>
        <time>2019-10-06T07:17:36Z</time>
      </trkpt>
      <trkpt lat="45.72923" lon="6.89519">
        <ele>2055</ele>
        <time>2019-10-06T07:17:37Z</time>
      </trkpt>
      <trkpt lat="45.72925" lon="6.89518">
        <ele>2055</ele>
        <time>2019-10-06T07:17:38Z</time>
      </trkpt>
      <trkpt lat="45.72928" lon="6.89517">
        <ele>2055</ele>
        <time>2019-10-06T07:17:40Z</time>
      </trkpt>
      <trkpt lat="45.7293" lon="6.89515">
        <ele>2056</ele>
        <time>2019-10-06T07:17:41Z</time>
      </trkpt>
      <trkpt lat="45.72932" lon="6.89515">
        <ele>2056</ele>
        <time>2019-10-06T07:17:42Z</time>
      </trkpt>
      <trkpt lat="45.72934" lon="6.89514">
        <ele>2056</ele>
        <time>2019-10-06T07:17:43Z</time>
      </trkpt>
      <trkpt lat="45.72936" lon="6.89513">
        <ele>2056</ele>
        <time>2019-10-06T07:17:44Z</time>
      </trkpt>
      <trkpt lat="45.72938" lon="6.89513">
        <ele>2057</ele>
        <time>2019-10-06T07:17:45Z</time>
      </trkpt>
      <trkpt lat="45.7294" lon="6.89512">
        <ele>2057</ele>
        <time>2019-10-06T07:17:46Z</time>
      </trkpt>
      <trkpt lat="45.72942" lon="6.89512">
        <ele>2057</ele>
        <time>2019-10-06T07:17:47Z</time>
      </trkpt>
      <trkpt lat="45.72944" lon="6.89511">
        <ele>2057</ele>
        <time>2019-10-06T07:17:48Z</time>
      </trkpt>
      <trkpt lat="45.72947" lon="6.8951">
        <ele>2057</ele>
        <time>2019-10-06T07:17:50Z</time>
      </trkpt>
      <trkpt lat="45.72949" lon="6.89508">
        <ele>2057</ele>
        <time>2019-10-06T07:17:51Z</time>
      </trkpt>
      <trkpt lat="45.72951" lon="6.89507">
        <ele>2057</ele>
        <time>2019-10-06T07:17:52Z</time>
      </trkpt>
      <trkpt lat="45.72953" lon="6.89506">
        <ele>2057</ele>
        <time>2019-10-06T07:17:53Z</time>
      </trkpt>
      <trkpt lat="45.72955" lon="6.89505">
        <ele>2058</ele>
        <time>2019-10-06T07:17:54Z</time>
      </trkpt>
      <trkpt lat="45.72957" lon="6.89504">
        <ele>2058</ele>
        <time>2019-10-06T07:17:55Z</time>
      </trkpt>
      <trkpt lat="45.72959" lon="6.89504">
        <ele>2058</ele>
        <time>2019-10-06T07:17:56Z</time>
      </trkpt>
      <trkpt lat="45.72961" lon="6.89503">
        <ele>2059</ele>
        <time>2019-10-06T07:17:57Z</time>
      </trkpt>
      <trkpt lat="45.72963" lon="6.89501">
        <ele>2059</ele>
        <time>2019-10-06T07:17:58Z</time>
      </trkpt>
      <trkpt lat="45.72965" lon="6.895">
        <ele>2059</ele>
        <time>2019-10-06T07:17:59Z</time>
      </trkpt>
      <trkpt lat="45.72966" lon="6.89499">
        <ele>2059</ele>
        <time>2019-10-06T07:18:00Z</time>
      </trkpt>
      <trkpt lat="45.72968" lon="6.89498">
        <ele>2059</ele>
        <time>2019-10-06T07:18:01Z</time>
      </trkpt>
      <trkpt lat="45.7297" lon="6.89497">
        <ele>2059</ele>
        <time>2019-10-06T07:18:02Z</time>
      </trkpt>
      <trkpt lat="45.72972" lon="6.89495">
        <ele>2059</ele>
        <time>2019-10-06T07:18:03Z</time>
      </trkpt>
      <trkpt lat="45.72974" lon="6.89494">
        <ele>2060</ele>
        <time>2019-10-06T07:18:04Z</time>
      </trkpt>
      <trkpt lat="45.72975" lon="6.89493">
        <ele>2060</ele>
        <time>2019-10-06T07:18:05Z</time>
      </trkpt>
      <trkpt lat="45.72977" lon="6.89491">
        <ele>2060</ele>
        <time>2019-10-06T07:18:06Z</time>
      </trkpt>
      <trkpt lat="45.72979" lon="6.89489">
        <ele>2060</ele>
        <time>2019-10-06T07:18:07Z</time>
      </trkpt>
      <trkpt lat="45.7298" lon="6.89488">
        <ele>2060</ele>
        <time>2019-10-06T07:18:08Z</time>
      </trkpt>
      <trkpt lat="45.72982" lon="6.89486">
        <ele>2060</ele>
        <time>2019-10-06T07:18:09Z</time>
      </trkpt>
      <trkpt lat="45.72984" lon="6.89485">
        <ele>2060</ele>
        <time>2019-10-06T07:18:10Z</time>
      </trkpt>
      <trkpt lat="45.72985" lon="6.89483">
        <ele>2060</ele>
        <time>2019-10-06T07:18:11Z</time>
      </trkpt>
      <trkpt lat="45.72987" lon="6.89481">
        <ele>2060</ele>
        <time>2019-10-06T07:18:12Z</time>
      </trkpt>
      <trkpt lat="45.72989" lon="6.8948">
        <ele>2060</ele>
        <time>2019-10-06T07:18:13Z</time>
      </trkpt>
      <trkpt lat="45.72991" lon="6.89479">
        <ele>2061</ele>
        <time>2019-10-06T07:18:14Z</time>
      </trkpt>
      <trkpt lat="45.72993" lon="6.89478">
        <ele>2061</ele>
        <time>2019-10-06T07:18:15Z</time>
      </trkpt>
      <trkpt lat="45.72994" lon="6.89477">
        <ele>2061</ele>
        <time>2019-10-06T07:18:16Z</time>
      </trkpt>
      <trkpt lat="45.72996" lon="6.89476">
        <ele>2061</ele>
        <time>2019-10-06T07:18:17Z</time>
      </trkpt>
      <trkpt lat="45.72998" lon="6.89474">
        <ele>2061</ele>
        <time>2019-10-06T07:18:18Z</time>
      </trkpt>
      <trkpt lat="45.72999" lon="6.89473">
        <ele>2062</ele>
        <time>2019-10-06T07:18:19Z</time>
      </trkpt>
      <trkpt lat="45.73001" lon="6.89472">
        <ele>2062</ele>
        <time>2019-10-06T07:18:20Z</time>
      </trkpt>
      <trkpt lat="45.73003" lon="6.89471">
        <ele>2062</ele>
        <time>2019-10-06T07:18:21Z</time>
      </trkpt>
      <trkpt lat="45.73006" lon="6.89468">
        <ele>2062</ele>
        <time>2019-10-06T07:18:23Z</time>
      </trkpt>
      <trkpt lat="45.73009" lon="6.89466">
        <ele>2062</ele>
        <time>2019-10-06T07:18:25Z</time>
      </trkpt>
      <trkpt lat="45.73011" lon="6.89464">
        <ele>2063</ele>
        <time>2019-10-06T07:18:26Z</time>
      </trkpt>
      <trkpt lat="45.73013" lon="6.89463">
        <ele>2063</ele>
        <time>2019-10-06T07:18:27Z</time>
      </trkpt>
      <trkpt lat="45.73015" lon="6.89461">
        <ele>2063</ele>
        <time>2019-10-06T07:18:28Z</time>
      </trkpt>
      <trkpt lat="45.73017" lon="6.8946">
        <ele>2063</ele>
        <time>2019-10-06T07:18:29Z</time>
      </trkpt>
      <trkpt lat="45.73019" lon="6.89458">
        <ele>2063</ele>
        <time>2019-10-06T07:18:30Z</time>
      </trkpt>
      <trkpt lat="45.73021" lon="6.89457">
        <ele>2063</ele>
        <time>2019-10-06T07:18:31Z</time>
      </trkpt>
      <trkpt lat="45.73023" lon="6.89456">
        <ele>2063</ele>
        <time>2019-10-06T07:18:32Z</time>
      </trkpt>
      <trkpt lat="45.73025" lon="6.89456">
        <ele>2064</ele>
        <time>2019-10-06T07:18:33Z</time>
      </trkpt>
      <trkpt lat="45.73027" lon="6.89455">
        <ele>2064</ele>
        <time>2019-10-06T07:18:34Z</time>
      </trkpt>
      <trkpt lat="45.73029" lon="6.89455">
        <ele>2064</ele>
        <time>2019-10-06T07:18:35Z</time>
      </trkpt>
      <trkpt lat="45.73031" lon="6.89454">
        <ele>2064</ele>
        <time>2019-10-06T07:18:36Z</time>
      </trkpt>
      <trkpt lat="45.73032" lon="6.89454">
        <ele>2064</ele>
        <time>2019-10-06T07:18:37Z</time>
      </trkpt>
      <trkpt lat="45.73034" lon="6.89453">
        <ele>2064</ele>
        <time>2019-10-06T07:18:38Z</time>
      </trkpt>
      <trkpt lat="45.73036" lon="6.89453">
        <ele>2066</ele>
        <time>2019-10-06T07:18:39Z</time>
      </trkpt>
      <trkpt lat="45.73038" lon="6.89452">
        <ele>2066</ele>
        <time>2019-10-06T07:18:40Z</time>
      </trkpt>
      <trkpt lat="45.73042" lon="6.89451">
        <ele>2066</ele>
        <time>2019-10-06T07:18:42Z</time>
      </trkpt>
      <trkpt lat="45.73044" lon="6.8945">
        <ele>2066</ele>
        <time>2019-10-06T07:18:43Z</time>
      </trkpt>
      <trkpt lat="45.73046" lon="6.8945">
        <ele>2066</ele>
        <time>2019-10-06T07:18:44Z</time>
      </trkpt>
      <trkpt lat="45.73048" lon="6.89449">
        <ele>2066</ele>
        <time>2019-10-06T07:18:45Z</time>
      </trkpt>
      <trkpt lat="45.7305" lon="6.89449">
        <ele>2066</ele>
        <time>2019-10-06T07:18:46Z</time>
      </trkpt>
      <trkpt lat="45.73051" lon="6.89448">
        <ele>2066</ele>
        <time>2019-10-06T07:18:47Z</time>
      </trkpt>
      <trkpt lat="45.73053" lon="6.89448">
        <ele>2067</ele>
        <time>2019-10-06T07:18:48Z</time>
      </trkpt>
      <trkpt lat="45.73055" lon="6.89447">
        <ele>2067</ele>
        <time>2019-10-06T07:18:49Z</time>
      </trkpt>
      <trkpt lat="45.73058" lon="6.89447">
        <ele>2067</ele>
        <time>2019-10-06T07:18:50Z</time>
      </trkpt>
      <trkpt lat="45.73059" lon="6.89447">
        <ele>2067</ele>
        <time>2019-10-06T07:18:51Z</time>
      </trkpt>
      <trkpt lat="45.73061" lon="6.89447">
        <ele>2067</ele>
        <time>2019-10-06T07:18:52Z</time>
      </trkpt>
      <trkpt lat="45.73063" lon="6.89446">
        <ele>2068</ele>
        <time>2019-10-06T07:18:53Z</time>
      </trkpt>
      <trkpt lat="45.73065" lon="6.89446">
        <ele>2068</ele>
        <time>2019-10-06T07:18:54Z</time>
      </trkpt>
      <trkpt lat="45.73067" lon="6.89445">
        <ele>2069</ele>
        <time>2019-10-06T07:18:55Z</time>
      </trkpt>
      <trkpt lat="45.73069" lon="6.89444">
        <ele>2069</ele>
        <time>2019-10-06T07:18:56Z</time>
      </trkpt>
      <trkpt lat="45.73071" lon="6.89444">
        <ele>2069</ele>
        <time>2019-10-06T07:18:57Z</time>
      </trkpt>
      <trkpt lat="45.73073" lon="6.89443">
        <ele>2069</ele>
        <time>2019-10-06T07:18:58Z</time>
      </trkpt>
      <trkpt lat="45.73075" lon="6.89441">
        <ele>2069</ele>
        <time>2019-10-06T07:18:59Z</time>
      </trkpt>
      <trkpt lat="45.73076" lon="6.8944">
        <ele>2069</ele>
        <time>2019-10-06T07:19:00Z</time>
      </trkpt>
      <trkpt lat="45.73078" lon="6.89438">
        <ele>2069</ele>
        <time>2019-10-06T07:19:01Z</time>
      </trkpt>
      <trkpt lat="45.73081" lon="6.89436">
        <ele>2069</ele>
        <time>2019-10-06T07:19:03Z</time>
      </trkpt>
      <trkpt lat="45.73083" lon="6.89434">
        <ele>2069</ele>
        <time>2019-10-06T07:19:04Z</time>
      </trkpt>
      <trkpt lat="45.73085" lon="6.89433">
        <ele>2069</ele>
        <time>2019-10-06T07:19:05Z</time>
      </trkpt>
      <trkpt lat="45.73088" lon="6.89431">
        <ele>2070</ele>
        <time>2019-10-06T07:19:07Z</time>
      </trkpt>
      <trkpt lat="45.7309" lon="6.89429">
        <ele>2070</ele>
        <time>2019-10-06T07:19:08Z</time>
      </trkpt>
      <trkpt lat="45.73091" lon="6.89428">
        <ele>2070</ele>
        <time>2019-10-06T07:19:09Z</time>
      </trkpt>
      <trkpt lat="45.73093" lon="6.89426">
        <ele>2070</ele>
        <time>2019-10-06T07:19:10Z</time>
      </trkpt>
      <trkpt lat="45.73096" lon="6.89423">
        <ele>2071</ele>
        <time>2019-10-06T07:19:12Z</time>
      </trkpt>
      <trkpt lat="45.73098" lon="6.89422">
        <ele>2071</ele>
        <time>2019-10-06T07:19:13Z</time>
      </trkpt>
      <trkpt lat="45.73099" lon="6.89421">
        <ele>2071</ele>
        <time>2019-10-06T07:19:14Z</time>
      </trkpt>
      <trkpt lat="45.73101" lon="6.8942">
        <ele>2071</ele>
        <time>2019-10-06T07:19:15Z</time>
      </trkpt>
      <trkpt lat="45.73103" lon="6.89419">
        <ele>2071</ele>
        <time>2019-10-06T07:19:16Z</time>
      </trkpt>
      <trkpt lat="45.73105" lon="6.89418">
        <ele>2071</ele>
        <time>2019-10-06T07:19:17Z</time>
      </trkpt>
      <trkpt lat="45.73107" lon="6.89418">
        <ele>2072</ele>
        <time>2019-10-06T07:19:18Z</time>
      </trkpt>
      <trkpt lat="45.73109" lon="6.89417">
        <ele>2072</ele>
        <time>2019-10-06T07:19:19Z</time>
      </trkpt>
      <trkpt lat="45.73111" lon="6.89416">
        <ele>2072</ele>
        <time>2019-10-06T07:19:20Z</time>
      </trkpt>
      <trkpt lat="45.73113" lon="6.89416">
        <ele>2072</ele>
        <time>2019-10-06T07:19:21Z</time>
      </trkpt>
      <trkpt lat="45.73115" lon="6.89415">
        <ele>2073</ele>
        <time>2019-10-06T07:19:22Z</time>
      </trkpt>
      <trkpt lat="45.73117" lon="6.89415">
        <ele>2073</ele>
        <time>2019-10-06T07:19:23Z</time>
      </trkpt>
      <trkpt lat="45.73121" lon="6.89415">
        <ele>2072</ele>
        <time>2019-10-06T07:19:25Z</time>
      </trkpt>
      <trkpt lat="45.73123" lon="6.89415">
        <ele>2072</ele>
        <time>2019-10-06T07:19:26Z</time>
      </trkpt>
      <trkpt lat="45.73125" lon="6.89414">
        <ele>2073</ele>
        <time>2019-10-06T07:19:27Z</time>
      </trkpt>
      <trkpt lat="45.73127" lon="6.89414">
        <ele>2073</ele>
        <time>2019-10-06T07:19:28Z</time>
      </trkpt>
      <trkpt lat="45.73129" lon="6.89413">
        <ele>2073</ele>
        <time>2019-10-06T07:19:29Z</time>
      </trkpt>
      <trkpt lat="45.73131" lon="6.89412">
        <ele>2074</ele>
        <time>2019-10-06T07:19:30Z</time>
      </trkpt>
      <trkpt lat="45.73133" lon="6.89412">
        <ele>2074</ele>
        <time>2019-10-06T07:19:31Z</time>
      </trkpt>
      <trkpt lat="45.73135" lon="6.8941">
        <ele>2074</ele>
        <time>2019-10-06T07:19:33Z</time>
      </trkpt>
      <trkpt lat="45.73137" lon="6.89409">
        <ele>2074</ele>
        <time>2019-10-06T07:19:34Z</time>
      </trkpt>
      <trkpt lat="45.73139" lon="6.89407">
        <ele>2074</ele>
        <time>2019-10-06T07:19:35Z</time>
      </trkpt>
      <trkpt lat="45.7314" lon="6.89405">
        <ele>2074</ele>
        <time>2019-10-06T07:19:36Z</time>
      </trkpt>
      <trkpt lat="45.73143" lon="6.89403">
        <ele>2074</ele>
        <time>2019-10-06T07:19:38Z</time>
      </trkpt>
      <trkpt lat="45.73145" lon="6.89402">
        <ele>2074</ele>
        <time>2019-10-06T07:19:39Z</time>
      </trkpt>
      <trkpt lat="45.73148" lon="6.89399">
        <ele>2074</ele>
        <time>2019-10-06T07:19:41Z</time>
      </trkpt>
      <trkpt lat="45.73149" lon="6.89397">
        <ele>2075</ele>
        <time>2019-10-06T07:19:42Z</time>
      </trkpt>
      <trkpt lat="45.73151" lon="6.89396">
        <ele>2075</ele>
        <time>2019-10-06T07:19:43Z</time>
      </trkpt>
      <trkpt lat="45.73152" lon="6.89394">
        <ele>2075</ele>
        <time>2019-10-06T07:19:44Z</time>
      </trkpt>
      <trkpt lat="45.73154" lon="6.89393">
        <ele>2075</ele>
        <time>2019-10-06T07:19:45Z</time>
      </trkpt>
      <trkpt lat="45.73156" lon="6.89392">
        <ele>2075</ele>
        <time>2019-10-06T07:19:46Z</time>
      </trkpt>
      <trkpt lat="45.73158" lon="6.8939">
        <ele>2075</ele>
        <time>2019-10-06T07:19:47Z</time>
      </trkpt>
      <trkpt lat="45.7316" lon="6.89387">
        <ele>2076</ele>
        <time>2019-10-06T07:19:49Z</time>
      </trkpt>
      <trkpt lat="45.73162" lon="6.89385">
        <ele>2076</ele>
        <time>2019-10-06T07:19:50Z</time>
      </trkpt>
      <trkpt lat="45.73163" lon="6.89384">
        <ele>2076</ele>
        <time>2019-10-06T07:19:51Z</time>
      </trkpt>
      <trkpt lat="45.73165" lon="6.89382">
        <ele>2077</ele>
        <time>2019-10-06T07:19:52Z</time>
      </trkpt>
      <trkpt lat="45.73167" lon="6.89382">
        <ele>2077</ele>
        <time>2019-10-06T07:19:53Z</time>
      </trkpt>
      <trkpt lat="45.73169" lon="6.89381">
        <ele>2077</ele>
        <time>2019-10-06T07:19:54Z</time>
      </trkpt>
      <trkpt lat="45.73171" lon="6.8938">
        <ele>2077</ele>
        <time>2019-10-06T07:19:55Z</time>
      </trkpt>
      <trkpt lat="45.73173" lon="6.89379">
        <ele>2077</ele>
        <time>2019-10-06T07:19:56Z</time>
      </trkpt>
      <trkpt lat="45.73175" lon="6.89378">
        <ele>2077</ele>
        <time>2019-10-06T07:19:57Z</time>
      </trkpt>
      <trkpt lat="45.73177" lon="6.89378">
        <ele>2078</ele>
        <time>2019-10-06T07:19:58Z</time>
      </trkpt>
      <trkpt lat="45.7318" lon="6.89376">
        <ele>2078</ele>
        <time>2019-10-06T07:20:00Z</time>
      </trkpt>
      <trkpt lat="45.73182" lon="6.89375">
        <ele>2078</ele>
        <time>2019-10-06T07:20:01Z</time>
      </trkpt>
      <trkpt lat="45.73184" lon="6.89373">
        <ele>2078</ele>
        <time>2019-10-06T07:20:02Z</time>
      </trkpt>
      <trkpt lat="45.73185" lon="6.89372">
        <ele>2078</ele>
        <time>2019-10-06T07:20:03Z</time>
      </trkpt>
      <trkpt lat="45.73187" lon="6.8937">
        <ele>2079</ele>
        <time>2019-10-06T07:20:04Z</time>
      </trkpt>
      <trkpt lat="45.73189" lon="6.89369">
        <ele>2079</ele>
        <time>2019-10-06T07:20:05Z</time>
      </trkpt>
      <trkpt lat="45.73191" lon="6.89368">
        <ele>2079</ele>
        <time>2019-10-06T07:20:06Z</time>
      </trkpt>
      <trkpt lat="45.73192" lon="6.89367">
        <ele>2079</ele>
        <time>2019-10-06T07:20:07Z</time>
      </trkpt>
      <trkpt lat="45.73194" lon="6.89366">
        <ele>2079</ele>
        <time>2019-10-06T07:20:08Z</time>
      </trkpt>
      <trkpt lat="45.73196" lon="6.89364">
        <ele>2079</ele>
        <time>2019-10-06T07:20:09Z</time>
      </trkpt>
      <trkpt lat="45.73198" lon="6.89363">
        <ele>2079</ele>
        <time>2019-10-06T07:20:10Z</time>
      </trkpt>
      <trkpt lat="45.732" lon="6.89362">
        <ele>2080</ele>
        <time>2019-10-06T07:20:11Z</time>
      </trkpt>
      <trkpt lat="45.73202" lon="6.89361">
        <ele>2080</ele>
        <time>2019-10-06T07:20:12Z</time>
      </trkpt>
      <trkpt lat="45.73203" lon="6.8936">
        <ele>2080</ele>
        <time>2019-10-06T07:20:13Z</time>
      </trkpt>
      <trkpt lat="45.73205" lon="6.89359">
        <ele>2080</ele>
        <time>2019-10-06T07:20:14Z</time>
      </trkpt>
      <trkpt lat="45.73207" lon="6.89358">
        <ele>2081</ele>
        <time>2019-10-06T07:20:15Z</time>
      </trkpt>
      <trkpt lat="45.73209" lon="6.89357">
        <ele>2081</ele>
        <time>2019-10-06T07:20:16Z</time>
      </trkpt>
      <trkpt lat="45.73211" lon="6.89355">
        <ele>2081</ele>
        <time>2019-10-06T07:20:17Z</time>
      </trkpt>
      <trkpt lat="45.73212" lon="6.89354">
        <ele>2081</ele>
        <time>2019-10-06T07:20:18Z</time>
      </trkpt>
      <trkpt lat="45.73214" lon="6.89353">
        <ele>2081</ele>
        <time>2019-10-06T07:20:19Z</time>
      </trkpt>
      <trkpt lat="45.73216" lon="6.89351">
        <ele>2081</ele>
        <time>2019-10-06T07:20:20Z</time>
      </trkpt>
      <trkpt lat="45.73217" lon="6.89349">
        <ele>2081</ele>
        <time>2019-10-06T07:20:21Z</time>
      </trkpt>
      <trkpt lat="45.73219" lon="6.89347">
        <ele>2081</ele>
        <time>2019-10-06T07:20:22Z</time>
      </trkpt>
      <trkpt lat="45.7322" lon="6.89345">
        <ele>2081</ele>
        <time>2019-10-06T07:20:23Z</time>
      </trkpt>
      <trkpt lat="45.73222" lon="6.89342">
        <ele>2081</ele>
        <time>2019-10-06T07:20:24Z</time>
      </trkpt>
      <trkpt lat="45.73223" lon="6.8934">
        <ele>2082</ele>
        <time>2019-10-06T07:20:25Z</time>
      </trkpt>
      <trkpt lat="45.73224" lon="6.89338">
        <ele>2082</ele>
        <time>2019-10-06T07:20:26Z</time>
      </trkpt>
      <trkpt lat="45.73225" lon="6.89335">
        <ele>2083</ele>
        <time>2019-10-06T07:20:27Z</time>
      </trkpt>
      <trkpt lat="45.73226" lon="6.89333">
        <ele>2083</ele>
        <time>2019-10-06T07:20:28Z</time>
      </trkpt>
      <trkpt lat="45.73228" lon="6.89331">
        <ele>2083</ele>
        <time>2019-10-06T07:20:29Z</time>
      </trkpt>
      <trkpt lat="45.7323" lon="6.8933">
        <ele>2083</ele>
        <time>2019-10-06T07:20:30Z</time>
      </trkpt>
      <trkpt lat="45.73231" lon="6.89328">
        <ele>2083</ele>
        <time>2019-10-06T07:20:31Z</time>
      </trkpt>
      <trkpt lat="45.73233" lon="6.89327">
        <ele>2083</ele>
        <time>2019-10-06T07:20:32Z</time>
      </trkpt>
      <trkpt lat="45.73235" lon="6.89325">
        <ele>2083</ele>
        <time>2019-10-06T07:20:33Z</time>
      </trkpt>
      <trkpt lat="45.73236" lon="6.89324">
        <ele>2083</ele>
        <time>2019-10-06T07:20:34Z</time>
      </trkpt>
      <trkpt lat="45.73238" lon="6.89322">
        <ele>2083</ele>
        <time>2019-10-06T07:20:35Z</time>
      </trkpt>
      <trkpt lat="45.7324" lon="6.8932">
        <ele>2083</ele>
        <time>2019-10-06T07:20:36Z</time>
      </trkpt>
      <trkpt lat="45.73242" lon="6.89318">
        <ele>2083</ele>
        <time>2019-10-06T07:20:37Z</time>
      </trkpt>
      <trkpt lat="45.73244" lon="6.89317">
        <ele>2083</ele>
        <time>2019-10-06T07:20:38Z</time>
      </trkpt>
      <trkpt lat="45.73245" lon="6.89315">
        <ele>2083</ele>
        <time>2019-10-06T07:20:39Z</time>
      </trkpt>
      <trkpt lat="45.73247" lon="6.89313">
        <ele>2083</ele>
        <time>2019-10-06T07:20:40Z</time>
      </trkpt>
      <trkpt lat="45.73249" lon="6.89311">
        <ele>2084</ele>
        <time>2019-10-06T07:20:41Z</time>
      </trkpt>
      <trkpt lat="45.7325" lon="6.8931">
        <ele>2084</ele>
        <time>2019-10-06T07:20:42Z</time>
      </trkpt>
      <trkpt lat="45.73252" lon="6.89308">
        <ele>2085</ele>
        <time>2019-10-06T07:20:43Z</time>
      </trkpt>
      <trkpt lat="45.73253" lon="6.89306">
        <ele>2085</ele>
        <time>2019-10-06T07:20:44Z</time>
      </trkpt>
      <trkpt lat="45.73255" lon="6.89304">
        <ele>2085</ele>
        <time>2019-10-06T07:20:45Z</time>
      </trkpt>
      <trkpt lat="45.73257" lon="6.89302">
        <ele>2085</ele>
        <time>2019-10-06T07:20:46Z</time>
      </trkpt>
      <trkpt lat="45.73259" lon="6.893">
        <ele>2085</ele>
        <time>2019-10-06T07:20:48Z</time>
      </trkpt>
      <trkpt lat="45.73261" lon="6.89297">
        <ele>2086</ele>
        <time>2019-10-06T07:20:50Z</time>
      </trkpt>
      <trkpt lat="45.73264" lon="6.89295">
        <ele>2086</ele>
        <time>2019-10-06T07:20:52Z</time>
      </trkpt>
      <trkpt lat="45.73267" lon="6.89293">
        <ele>2087</ele>
        <time>2019-10-06T07:20:54Z</time>
      </trkpt>
      <trkpt lat="45.73268" lon="6.89291">
        <ele>2087</ele>
        <time>2019-10-06T07:20:55Z</time>
      </trkpt>
      <trkpt lat="45.73271" lon="6.89288">
        <ele>2087</ele>
        <time>2019-10-06T07:20:57Z</time>
      </trkpt>
      <trkpt lat="45.73274" lon="6.89285">
        <ele>2087</ele>
        <time>2019-10-06T07:20:59Z</time>
      </trkpt>
      <trkpt lat="45.73277" lon="6.89283">
        <ele>2087</ele>
        <time>2019-10-06T07:21:01Z</time>
      </trkpt>
      <trkpt lat="45.7328" lon="6.89281">
        <ele>2088</ele>
        <time>2019-10-06T07:21:03Z</time>
      </trkpt>
      <trkpt lat="45.73283" lon="6.8928">
        <ele>2088</ele>
        <time>2019-10-06T07:21:05Z</time>
      </trkpt>
      <trkpt lat="45.73286" lon="6.89278">
        <ele>2088</ele>
        <time>2019-10-06T07:21:07Z</time>
      </trkpt>
      <trkpt lat="45.73289" lon="6.89277">
        <ele>2089</ele>
        <time>2019-10-06T07:21:09Z</time>
      </trkpt>
      <trkpt lat="45.73292" lon="6.89276">
        <ele>2089</ele>
        <time>2019-10-06T07:21:11Z</time>
      </trkpt>
      <trkpt lat="45.73295" lon="6.89274">
        <ele>2089</ele>
        <time>2019-10-06T07:21:13Z</time>
      </trkpt>
      <trkpt lat="45.73298" lon="6.89271">
        <ele>2089</ele>
        <time>2019-10-06T07:21:15Z</time>
      </trkpt>
      <trkpt lat="45.73299" lon="6.89269">
        <ele>2089</ele>
        <time>2019-10-06T07:21:16Z</time>
      </trkpt>
      <trkpt lat="45.73302" lon="6.89266">
        <ele>2090</ele>
        <time>2019-10-06T07:21:18Z</time>
      </trkpt>
      <trkpt lat="45.73304" lon="6.89262">
        <ele>2090</ele>
        <time>2019-10-06T07:21:20Z</time>
      </trkpt>
      <trkpt lat="45.73306" lon="6.89258">
        <ele>2092</ele>
        <time>2019-10-06T07:21:22Z</time>
      </trkpt>
      <trkpt lat="45.73307" lon="6.89256">
        <ele>2092</ele>
        <time>2019-10-06T07:21:23Z</time>
      </trkpt>
      <trkpt lat="45.7331" lon="6.89252">
        <ele>2092</ele>
        <time>2019-10-06T07:21:25Z</time>
      </trkpt>
      <trkpt lat="45.73311" lon="6.89248">
        <ele>2092</ele>
        <time>2019-10-06T07:21:27Z</time>
      </trkpt>
      <trkpt lat="45.73313" lon="6.89245">
        <ele>2093</ele>
        <time>2019-10-06T07:21:29Z</time>
      </trkpt>
      <trkpt lat="45.73316" lon="6.89242">
        <ele>2092</ele>
        <time>2019-10-06T07:21:31Z</time>
      </trkpt>
      <trkpt lat="45.73319" lon="6.89239">
        <ele>2092</ele>
        <time>2019-10-06T07:21:33Z</time>
      </trkpt>
      <trkpt lat="45.73322" lon="6.89236">
        <ele>2093</ele>
        <time>2019-10-06T07:21:35Z</time>
      </trkpt>
      <trkpt lat="45.73324" lon="6.89234">
        <ele>2093</ele>
        <time>2019-10-06T07:21:37Z</time>
      </trkpt>
      <trkpt lat="45.73327" lon="6.89232">
        <ele>2093</ele>
        <time>2019-10-06T07:21:39Z</time>
      </trkpt>
      <trkpt lat="45.73331" lon="6.8923">
        <ele>2094</ele>
        <time>2019-10-06T07:21:41Z</time>
      </trkpt>
      <trkpt lat="45.73334" lon="6.89228">
        <ele>2094</ele>
        <time>2019-10-06T07:21:43Z</time>
      </trkpt>
      <trkpt lat="45.73337" lon="6.89227">
        <ele>2095</ele>
        <time>2019-10-06T07:21:45Z</time>
      </trkpt>
      <trkpt lat="45.7334" lon="6.89226">
        <ele>2095</ele>
        <time>2019-10-06T07:21:47Z</time>
      </trkpt>
      <trkpt lat="45.73343" lon="6.89224">
        <ele>2095</ele>
        <time>2019-10-06T07:21:49Z</time>
      </trkpt>
      <trkpt lat="45.73346" lon="6.89223">
        <ele>2095</ele>
        <time>2019-10-06T07:21:51Z</time>
      </trkpt>
      <trkpt lat="45.7335" lon="6.89223">
        <ele>2095</ele>
        <time>2019-10-06T07:21:53Z</time>
      </trkpt>
      <trkpt lat="45.73353" lon="6.89222">
        <ele>2096</ele>
        <time>2019-10-06T07:21:55Z</time>
      </trkpt>
      <trkpt lat="45.73356" lon="6.8922">
        <ele>2096</ele>
        <time>2019-10-06T07:21:57Z</time>
      </trkpt>
      <trkpt lat="45.73359" lon="6.89219">
        <ele>2096</ele>
        <time>2019-10-06T07:21:59Z</time>
      </trkpt>
      <trkpt lat="45.73362" lon="6.89218">
        <ele>2096</ele>
        <time>2019-10-06T07:22:01Z</time>
      </trkpt>
      <trkpt lat="45.73365" lon="6.89216">
        <ele>2096</ele>
        <time>2019-10-06T07:22:03Z</time>
      </trkpt>
      <trkpt lat="45.73368" lon="6.89214">
        <ele>2096</ele>
        <time>2019-10-06T07:22:05Z</time>
      </trkpt>
      <trkpt lat="45.73371" lon="6.89212">
        <ele>2097</ele>
        <time>2019-10-06T07:22:07Z</time>
      </trkpt>
      <trkpt lat="45.73373" lon="6.8921">
        <ele>2097</ele>
        <time>2019-10-06T07:22:09Z</time>
      </trkpt>
      <trkpt lat="45.73376" lon="6.89208">
        <ele>2097</ele>
        <time>2019-10-06T07:22:11Z</time>
      </trkpt>
      <trkpt lat="45.73379" lon="6.89205">
        <ele>2097</ele>
        <time>2019-10-06T07:22:13Z</time>
      </trkpt>
      <trkpt lat="45.73382" lon="6.89203">
        <ele>2097</ele>
        <time>2019-10-06T07:22:15Z</time>
      </trkpt>
      <trkpt lat="45.73385" lon="6.892">
        <ele>2098</ele>
        <time>2019-10-06T07:22:17Z</time>
      </trkpt>
      <trkpt lat="45.73388" lon="6.89198">
        <ele>2099</ele>
        <time>2019-10-06T07:22:19Z</time>
      </trkpt>
      <trkpt lat="45.7339" lon="6.89195">
        <ele>2099</ele>
        <time>2019-10-06T07:22:21Z</time>
      </trkpt>
      <trkpt lat="45.73393" lon="6.89193">
        <ele>2099</ele>
        <time>2019-10-06T07:22:23Z</time>
      </trkpt>
      <trkpt lat="45.73396" lon="6.8919">
        <ele>2099</ele>
        <time>2019-10-06T07:22:25Z</time>
      </trkpt>
      <trkpt lat="45.73398" lon="6.89188">
        <ele>2100</ele>
        <time>2019-10-06T07:22:27Z</time>
      </trkpt>
      <trkpt lat="45.73401" lon="6.89185">
        <ele>2100</ele>
        <time>2019-10-06T07:22:29Z</time>
      </trkpt>
      <trkpt lat="45.73403" lon="6.89183">
        <ele>2100</ele>
        <time>2019-10-06T07:22:31Z</time>
      </trkpt>
      <trkpt lat="45.73406" lon="6.89181">
        <ele>2101</ele>
        <time>2019-10-06T07:22:33Z</time>
      </trkpt>
      <trkpt lat="45.73409" lon="6.89178">
        <ele>2101</ele>
        <time>2019-10-06T07:22:35Z</time>
      </trkpt>
      <trkpt lat="45.73411" lon="6.89175">
        <ele>2101</ele>
        <time>2019-10-06T07:22:37Z</time>
      </trkpt>
      <trkpt lat="45.73414" lon="6.89173">
        <ele>2101</ele>
        <time>2019-10-06T07:22:39Z</time>
      </trkpt>
      <trkpt lat="45.73416" lon="6.8917">
        <ele>2101</ele>
        <time>2019-10-06T07:22:41Z</time>
      </trkpt>
      <trkpt lat="45.73419" lon="6.89168">
        <ele>2101</ele>
        <time>2019-10-06T07:22:43Z</time>
      </trkpt>
      <trkpt lat="45.73422" lon="6.89165">
        <ele>2101</ele>
        <time>2019-10-06T07:22:45Z</time>
      </trkpt>
      <trkpt lat="45.73424" lon="6.89163">
        <ele>2101</ele>
        <time>2019-10-06T07:22:47Z</time>
      </trkpt>
      <trkpt lat="45.73427" lon="6.89161">
        <ele>2102</ele>
        <time>2019-10-06T07:22:49Z</time>
      </trkpt>
      <trkpt lat="45.73429" lon="6.89159">
        <ele>2102</ele>
        <time>2019-10-06T07:22:51Z</time>
      </trkpt>
      <trkpt lat="45.73432" lon="6.89157">
        <ele>2102</ele>
        <time>2019-10-06T07:22:53Z</time>
      </trkpt>
      <trkpt lat="45.73434" lon="6.89155">
        <ele>2103</ele>
        <time>2019-10-06T07:22:55Z</time>
      </trkpt>
      <trkpt lat="45.73438" lon="6.89154">
        <ele>2103</ele>
        <time>2019-10-06T07:22:57Z</time>
      </trkpt>
      <trkpt lat="45.7344" lon="6.89152">
        <ele>2103</ele>
        <time>2019-10-06T07:22:59Z</time>
      </trkpt>
      <trkpt lat="45.73443" lon="6.89151">
        <ele>2103</ele>
        <time>2019-10-06T07:23:01Z</time>
      </trkpt>
      <trkpt lat="45.73445" lon="6.89149">
        <ele>2103</ele>
        <time>2019-10-06T07:23:03Z</time>
      </trkpt>
      <trkpt lat="45.73448" lon="6.89146">
        <ele>2104</ele>
        <time>2019-10-06T07:23:05Z</time>
      </trkpt>
      <trkpt lat="45.73451" lon="6.89144">
        <ele>2104</ele>
        <time>2019-10-06T07:23:07Z</time>
      </trkpt>
      <trkpt lat="45.73453" lon="6.89141">
        <ele>2104</ele>
        <time>2019-10-06T07:23:09Z</time>
      </trkpt>
      <trkpt lat="45.73455" lon="6.89138">
        <ele>2105</ele>
        <time>2019-10-06T07:23:11Z</time>
      </trkpt>
      <trkpt lat="45.73457" lon="6.89135">
        <ele>2105</ele>
        <time>2019-10-06T07:23:13Z</time>
      </trkpt>
      <trkpt lat="45.73459" lon="6.89131">
        <ele>2105</ele>
        <time>2019-10-06T07:23:15Z</time>
      </trkpt>
      <trkpt lat="45.73461" lon="6.89128">
        <ele>2105</ele>
        <time>2019-10-06T07:23:17Z</time>
      </trkpt>
      <trkpt lat="45.73462" lon="6.89124">
        <ele>2105</ele>
        <time>2019-10-06T07:23:19Z</time>
      </trkpt>
      <trkpt lat="45.73463" lon="6.8912">
        <ele>2106</ele>
        <time>2019-10-06T07:23:21Z</time>
      </trkpt>
      <trkpt lat="45.73465" lon="6.89116">
        <ele>2106</ele>
        <time>2019-10-06T07:23:23Z</time>
      </trkpt>
      <trkpt lat="45.73466" lon="6.89112">
        <ele>2106</ele>
        <time>2019-10-06T07:23:25Z</time>
      </trkpt>
      <trkpt lat="45.73467" lon="6.89108">
        <ele>2106</ele>
        <time>2019-10-06T07:23:27Z</time>
      </trkpt>
      <trkpt lat="45.73468" lon="6.89104">
        <ele>2107</ele>
        <time>2019-10-06T07:23:29Z</time>
      </trkpt>
      <trkpt lat="45.73469" lon="6.891">
        <ele>2107</ele>
        <time>2019-10-06T07:23:31Z</time>
      </trkpt>
      <trkpt lat="45.7347" lon="6.89096">
        <ele>2107</ele>
        <time>2019-10-06T07:23:33Z</time>
      </trkpt>
      <trkpt lat="45.7347" lon="6.89092">
        <ele>2108</ele>
        <time>2019-10-06T07:23:35Z</time>
      </trkpt>
      <trkpt lat="45.73471" lon="6.89088">
        <ele>2108</ele>
        <time>2019-10-06T07:23:37Z</time>
      </trkpt>
      <trkpt lat="45.73472" lon="6.89083">
        <ele>2108</ele>
        <time>2019-10-06T07:23:39Z</time>
      </trkpt>
      <trkpt lat="45.73473" lon="6.8908">
        <ele>2108</ele>
        <time>2019-10-06T07:23:41Z</time>
      </trkpt>
      <trkpt lat="45.73475" lon="6.89076">
        <ele>2108</ele>
        <time>2019-10-06T07:23:43Z</time>
      </trkpt>
      <trkpt lat="45.73477" lon="6.89073">
        <ele>2108</ele>
        <time>2019-10-06T07:23:45Z</time>
      </trkpt>
      <trkpt lat="45.73479" lon="6.8907">
        <ele>2109</ele>
        <time>2019-10-06T07:23:47Z</time>
      </trkpt>
      <trkpt lat="45.73481" lon="6.89067">
        <ele>2109</ele>
        <time>2019-10-06T07:23:49Z</time>
      </trkpt>
      <trkpt lat="45.73483" lon="6.89064">
        <ele>2109</ele>
        <time>2019-10-06T07:23:51Z</time>
      </trkpt>
      <trkpt lat="45.73485" lon="6.89061">
        <ele>2109</ele>
        <time>2019-10-06T07:23:53Z</time>
      </trkpt>
      <trkpt lat="45.73488" lon="6.89059">
        <ele>2109</ele>
        <time>2019-10-06T07:23:55Z</time>
      </trkpt>
      <trkpt lat="45.7349" lon="6.89056">
        <ele>2109</ele>
        <time>2019-10-06T07:23:57Z</time>
      </trkpt>
      <trkpt lat="45.73492" lon="6.89054">
        <ele>2110</ele>
        <time>2019-10-06T07:23:59Z</time>
      </trkpt>
      <trkpt lat="45.73494" lon="6.89052">
        <ele>2110</ele>
        <time>2019-10-06T07:24:01Z</time>
      </trkpt>
      <trkpt lat="45.73497" lon="6.8905">
        <ele>2110</ele>
        <time>2019-10-06T07:24:03Z</time>
      </trkpt>
      <trkpt lat="45.73499" lon="6.89049">
        <ele>2110</ele>
        <time>2019-10-06T07:24:05Z</time>
      </trkpt>
      <trkpt lat="45.73502" lon="6.89047">
        <ele>2111</ele>
        <time>2019-10-06T07:24:07Z</time>
      </trkpt>
      <trkpt lat="45.73505" lon="6.89046">
        <ele>2111</ele>
        <time>2019-10-06T07:24:09Z</time>
      </trkpt>
      <trkpt lat="45.73508" lon="6.89044">
        <ele>2112</ele>
        <time>2019-10-06T07:24:11Z</time>
      </trkpt>
      <trkpt lat="45.73509" lon="6.89043">
        <ele>2112</ele>
        <time>2019-10-06T07:24:12Z</time>
      </trkpt>
      <trkpt lat="45.73511" lon="6.89042">
        <ele>2112</ele>
        <time>2019-10-06T07:24:13Z</time>
      </trkpt>
      <trkpt lat="45.73513" lon="6.89041">
        <ele>2112</ele>
        <time>2019-10-06T07:24:14Z</time>
      </trkpt>
      <trkpt lat="45.73515" lon="6.89041">
        <ele>2112</ele>
        <time>2019-10-06T07:24:15Z</time>
      </trkpt>
      <trkpt lat="45.73517" lon="6.8904">
        <ele>2113</ele>
        <time>2019-10-06T07:24:16Z</time>
      </trkpt>
      <trkpt lat="45.73519" lon="6.89039">
        <ele>2113</ele>
        <time>2019-10-06T07:24:17Z</time>
      </trkpt>
      <trkpt lat="45.73522" lon="6.89039">
        <ele>2113</ele>
        <time>2019-10-06T07:24:18Z</time>
      </trkpt>
      <trkpt lat="45.73524" lon="6.89038">
        <ele>2113</ele>
        <time>2019-10-06T07:24:19Z</time>
      </trkpt>
      <trkpt lat="45.73526" lon="6.89037">
        <ele>2114</ele>
        <time>2019-10-06T07:24:20Z</time>
      </trkpt>
      <trkpt lat="45.73528" lon="6.89036">
        <ele>2114</ele>
        <time>2019-10-06T07:24:21Z</time>
      </trkpt>
      <trkpt lat="45.7353" lon="6.89035">
        <ele>2114</ele>
        <time>2019-10-06T07:24:22Z</time>
      </trkpt>
      <trkpt lat="45.73532" lon="6.89034">
        <ele>2114</ele>
        <time>2019-10-06T07:24:23Z</time>
      </trkpt>
      <trkpt lat="45.73535" lon="6.89034">
        <ele>2114</ele>
        <time>2019-10-06T07:24:24Z</time>
      </trkpt>
      <trkpt lat="45.73537" lon="6.89033">
        <ele>2114</ele>
        <time>2019-10-06T07:24:25Z</time>
      </trkpt>
      <trkpt lat="45.73539" lon="6.89031">
        <ele>2114</ele>
        <time>2019-10-06T07:24:26Z</time>
      </trkpt>
      <trkpt lat="45.73541" lon="6.8903">
        <ele>2114</ele>
        <time>2019-10-06T07:24:27Z</time>
      </trkpt>
      <trkpt lat="45.73543" lon="6.8903">
        <ele>2114</ele>
        <time>2019-10-06T07:24:28Z</time>
      </trkpt>
      <trkpt lat="45.73544" lon="6.89029">
        <ele>2115</ele>
        <time>2019-10-06T07:24:29Z</time>
      </trkpt>
      <trkpt lat="45.73546" lon="6.89028">
        <ele>2115</ele>
        <time>2019-10-06T07:24:30Z</time>
      </trkpt>
      <trkpt lat="45.73548" lon="6.89028">
        <ele>2115</ele>
        <time>2019-10-06T07:24:31Z</time>
      </trkpt>
      <trkpt lat="45.7355" lon="6.89027">
        <ele>2116</ele>
        <time>2019-10-06T07:24:32Z</time>
      </trkpt>
      <trkpt lat="45.73552" lon="6.89026">
        <ele>2116</ele>
        <time>2019-10-06T07:24:33Z</time>
      </trkpt>
      <trkpt lat="45.73554" lon="6.89024">
        <ele>2116</ele>
        <time>2019-10-06T07:24:34Z</time>
      </trkpt>
      <trkpt lat="45.73555" lon="6.89023">
        <ele>2116</ele>
        <time>2019-10-06T07:24:35Z</time>
      </trkpt>
      <trkpt lat="45.73558" lon="6.89022">
        <ele>2116</ele>
        <time>2019-10-06T07:24:36Z</time>
      </trkpt>
      <trkpt lat="45.7356" lon="6.89021">
        <ele>2116</ele>
        <time>2019-10-06T07:24:37Z</time>
      </trkpt>
      <trkpt lat="45.73562" lon="6.8902">
        <ele>2116</ele>
        <time>2019-10-06T07:24:38Z</time>
      </trkpt>
      <trkpt lat="45.73563" lon="6.89019">
        <ele>2116</ele>
        <time>2019-10-06T07:24:39Z</time>
      </trkpt>
      <trkpt lat="45.73565" lon="6.89017">
        <ele>2116</ele>
        <time>2019-10-06T07:24:40Z</time>
      </trkpt>
      <trkpt lat="45.73567" lon="6.89015">
        <ele>2116</ele>
        <time>2019-10-06T07:24:41Z</time>
      </trkpt>
      <trkpt lat="45.73568" lon="6.89013">
        <ele>2116</ele>
        <time>2019-10-06T07:24:42Z</time>
      </trkpt>
      <trkpt lat="45.7357" lon="6.89011">
        <ele>2116</ele>
        <time>2019-10-06T07:24:43Z</time>
      </trkpt>
      <trkpt lat="45.73571" lon="6.89009">
        <ele>2116</ele>
        <time>2019-10-06T07:24:44Z</time>
      </trkpt>
      <trkpt lat="45.73573" lon="6.89007">
        <ele>2118</ele>
        <time>2019-10-06T07:24:45Z</time>
      </trkpt>
      <trkpt lat="45.73574" lon="6.89005">
        <ele>2118</ele>
        <time>2019-10-06T07:24:46Z</time>
      </trkpt>
      <trkpt lat="45.73576" lon="6.89001">
        <ele>2118</ele>
        <time>2019-10-06T07:24:47Z</time>
      </trkpt>
      <trkpt lat="45.73577" lon="6.89">
        <ele>2118</ele>
        <time>2019-10-06T07:24:48Z</time>
      </trkpt>
      <trkpt lat="45.73578" lon="6.88998">
        <ele>2118</ele>
        <time>2019-10-06T07:24:49Z</time>
      </trkpt>
      <trkpt lat="45.73579" lon="6.88996">
        <ele>2118</ele>
        <time>2019-10-06T07:24:50Z</time>
      </trkpt>
      <trkpt lat="45.7358" lon="6.88993">
        <ele>2119</ele>
        <time>2019-10-06T07:24:51Z</time>
      </trkpt>
      <trkpt lat="45.73582" lon="6.88992">
        <ele>2119</ele>
        <time>2019-10-06T07:24:52Z</time>
      </trkpt>
      <trkpt lat="45.73584" lon="6.8899">
        <ele>2119</ele>
        <time>2019-10-06T07:24:53Z</time>
      </trkpt>
      <trkpt lat="45.73585" lon="6.88988">
        <ele>2119</ele>
        <time>2019-10-06T07:24:54Z</time>
      </trkpt>
      <trkpt lat="45.73587" lon="6.88987">
        <ele>2120</ele>
        <time>2019-10-06T07:24:55Z</time>
      </trkpt>
      <trkpt lat="45.73589" lon="6.88986">
        <ele>2120</ele>
        <time>2019-10-06T07:24:56Z</time>
      </trkpt>
      <trkpt lat="45.7359" lon="6.88984">
        <ele>2120</ele>
        <time>2019-10-06T07:24:57Z</time>
      </trkpt>
      <trkpt lat="45.73592" lon="6.88983">
        <ele>2120</ele>
        <time>2019-10-06T07:24:58Z</time>
      </trkpt>
      <trkpt lat="45.73594" lon="6.88981">
        <ele>2120</ele>
        <time>2019-10-06T07:24:59Z</time>
      </trkpt>
      <trkpt lat="45.73597" lon="6.88979">
        <ele>2121</ele>
        <time>2019-10-06T07:25:01Z</time>
      </trkpt>
      <trkpt lat="45.73599" lon="6.88978">
        <ele>2121</ele>
        <time>2019-10-06T07:25:02Z</time>
      </trkpt>
      <trkpt lat="45.73603" lon="6.88976">
        <ele>2121</ele>
        <time>2019-10-06T07:25:04Z</time>
      </trkpt>
      <trkpt lat="45.73604" lon="6.88974">
        <ele>2121</ele>
        <time>2019-10-06T07:25:05Z</time>
      </trkpt>
      <trkpt lat="45.73608" lon="6.88972">
        <ele>2121</ele>
        <time>2019-10-06T07:25:07Z</time>
      </trkpt>
      <trkpt lat="45.7361" lon="6.88971">
        <ele>2121</ele>
        <time>2019-10-06T07:25:08Z</time>
      </trkpt>
      <trkpt lat="45.73611" lon="6.8897">
        <ele>2122</ele>
        <time>2019-10-06T07:25:09Z</time>
      </trkpt>
      <trkpt lat="45.73613" lon="6.88969">
        <ele>2122</ele>
        <time>2019-10-06T07:25:10Z</time>
      </trkpt>
      <trkpt lat="45.73615" lon="6.88968">
        <ele>2122</ele>
        <time>2019-10-06T07:25:11Z</time>
      </trkpt>
      <trkpt lat="45.73617" lon="6.88967">
        <ele>2122</ele>
        <time>2019-10-06T07:25:12Z</time>
      </trkpt>
      <trkpt lat="45.73618" lon="6.88966">
        <ele>2122</ele>
        <time>2019-10-06T07:25:13Z</time>
      </trkpt>
      <trkpt lat="45.7362" lon="6.88964">
        <ele>2122</ele>
        <time>2019-10-06T07:25:14Z</time>
      </trkpt>
      <trkpt lat="45.73622" lon="6.88963">
        <ele>2122</ele>
        <time>2019-10-06T07:25:15Z</time>
      </trkpt>
      <trkpt lat="45.73624" lon="6.88962">
        <ele>2123</ele>
        <time>2019-10-06T07:25:16Z</time>
      </trkpt>
      <trkpt lat="45.73625" lon="6.88962">
        <ele>2123</ele>
        <time>2019-10-06T07:25:17Z</time>
      </trkpt>
      <trkpt lat="45.73627" lon="6.88961">
        <ele>2123</ele>
        <time>2019-10-06T07:25:18Z</time>
      </trkpt>
      <trkpt lat="45.73629" lon="6.8896">
        <ele>2123</ele>
        <time>2019-10-06T07:25:19Z</time>
      </trkpt>
      <trkpt lat="45.73631" lon="6.88959">
        <ele>2124</ele>
        <time>2019-10-06T07:25:20Z</time>
      </trkpt>
      <trkpt lat="45.73633" lon="6.88958">
        <ele>2124</ele>
        <time>2019-10-06T07:25:21Z</time>
      </trkpt>
      <trkpt lat="45.73635" lon="6.88957">
        <ele>2124</ele>
        <time>2019-10-06T07:25:22Z</time>
      </trkpt>
      <trkpt lat="45.73637" lon="6.88956">
        <ele>2124</ele>
        <time>2019-10-06T07:25:23Z</time>
      </trkpt>
      <trkpt lat="45.73639" lon="6.88955">
        <ele>2124</ele>
        <time>2019-10-06T07:25:24Z</time>
      </trkpt>
      <trkpt lat="45.7364" lon="6.88954">
        <ele>2124</ele>
        <time>2019-10-06T07:25:25Z</time>
      </trkpt>
      <trkpt lat="45.73642" lon="6.88953">
        <ele>2125</ele>
        <time>2019-10-06T07:25:26Z</time>
      </trkpt>
      <trkpt lat="45.73644" lon="6.88951">
        <ele>2125</ele>
        <time>2019-10-06T07:25:27Z</time>
      </trkpt>
      <trkpt lat="45.73645" lon="6.88949">
        <ele>2125</ele>
        <time>2019-10-06T07:25:28Z</time>
      </trkpt>
      <trkpt lat="45.73647" lon="6.88947">
        <ele>2125</ele>
        <time>2019-10-06T07:25:29Z</time>
      </trkpt>
      <trkpt lat="45.73648" lon="6.88946">
        <ele>2125</ele>
        <time>2019-10-06T07:25:30Z</time>
      </trkpt>
      <trkpt lat="45.7365" lon="6.88944">
        <ele>2125</ele>
        <time>2019-10-06T07:25:31Z</time>
      </trkpt>
      <trkpt lat="45.73652" lon="6.88943">
        <ele>2125</ele>
        <time>2019-10-06T07:25:32Z</time>
      </trkpt>
      <trkpt lat="45.73653" lon="6.88941">
        <ele>2125</ele>
        <time>2019-10-06T07:25:33Z</time>
      </trkpt>
      <trkpt lat="45.73655" lon="6.88939">
        <ele>2126</ele>
        <time>2019-10-06T07:25:34Z</time>
      </trkpt>
      <trkpt lat="45.73656" lon="6.88937">
        <ele>2126</ele>
        <time>2019-10-06T07:25:35Z</time>
      </trkpt>
      <trkpt lat="45.73658" lon="6.88936">
        <ele>2126</ele>
        <time>2019-10-06T07:25:36Z</time>
      </trkpt>
      <trkpt lat="45.73659" lon="6.88933">
        <ele>2126</ele>
        <time>2019-10-06T07:25:37Z</time>
      </trkpt>
      <trkpt lat="45.73661" lon="6.88931">
        <ele>2127</ele>
        <time>2019-10-06T07:25:38Z</time>
      </trkpt>
      <trkpt lat="45.73662" lon="6.88929">
        <ele>2127</ele>
        <time>2019-10-06T07:25:39Z</time>
      </trkpt>
      <trkpt lat="45.73663" lon="6.88927">
        <ele>2127</ele>
        <time>2019-10-06T07:25:40Z</time>
      </trkpt>
      <trkpt lat="45.73665" lon="6.88925">
        <ele>2127</ele>
        <time>2019-10-06T07:25:41Z</time>
      </trkpt>
      <trkpt lat="45.73666" lon="6.88923">
        <ele>2127</ele>
        <time>2019-10-06T07:25:42Z</time>
      </trkpt>
      <trkpt lat="45.73668" lon="6.88921">
        <ele>2127</ele>
        <time>2019-10-06T07:25:43Z</time>
      </trkpt>
      <trkpt lat="45.73669" lon="6.88919">
        <ele>2127</ele>
        <time>2019-10-06T07:25:44Z</time>
      </trkpt>
      <trkpt lat="45.73672" lon="6.88916">
        <ele>2128</ele>
        <time>2019-10-06T07:25:46Z</time>
      </trkpt>
      <trkpt lat="45.73674" lon="6.88915">
        <ele>2128</ele>
        <time>2019-10-06T07:25:47Z</time>
      </trkpt>
      <trkpt lat="45.73676" lon="6.88914">
        <ele>2128</ele>
        <time>2019-10-06T07:25:48Z</time>
      </trkpt>
      <trkpt lat="45.73679" lon="6.88911">
        <ele>2128</ele>
        <time>2019-10-06T07:25:50Z</time>
      </trkpt>
      <trkpt lat="45.73681" lon="6.8891">
        <ele>2128</ele>
        <time>2019-10-06T07:25:51Z</time>
      </trkpt>
      <trkpt lat="45.73683" lon="6.88906">
        <ele>2129</ele>
        <time>2019-10-06T07:25:53Z</time>
      </trkpt>
      <trkpt lat="45.73685" lon="6.88904">
        <ele>2129</ele>
        <time>2019-10-06T07:25:54Z</time>
      </trkpt>
      <trkpt lat="45.73686" lon="6.88902">
        <ele>2129</ele>
        <time>2019-10-06T07:25:55Z</time>
      </trkpt>
      <trkpt lat="45.73688" lon="6.88901">
        <ele>2129</ele>
        <time>2019-10-06T07:25:56Z</time>
      </trkpt>
      <trkpt lat="45.73689" lon="6.88899">
        <ele>2130</ele>
        <time>2019-10-06T07:25:57Z</time>
      </trkpt>
      <trkpt lat="45.73691" lon="6.88898">
        <ele>2130</ele>
        <time>2019-10-06T07:25:58Z</time>
      </trkpt>
      <trkpt lat="45.73693" lon="6.88894">
        <ele>2130</ele>
        <time>2019-10-06T07:26:00Z</time>
      </trkpt>
      <trkpt lat="45.73696" lon="6.8889">
        <ele>2130</ele>
        <time>2019-10-06T07:26:02Z</time>
      </trkpt>
      <trkpt lat="45.73697" lon="6.88888">
        <ele>2130</ele>
        <time>2019-10-06T07:26:03Z</time>
      </trkpt>
      <trkpt lat="45.73698" lon="6.88886">
        <ele>2130</ele>
        <time>2019-10-06T07:26:04Z</time>
      </trkpt>
      <trkpt lat="45.737" lon="6.88882">
        <ele>2131</ele>
        <time>2019-10-06T07:26:06Z</time>
      </trkpt>
      <trkpt lat="45.73702" lon="6.8888">
        <ele>2131</ele>
        <time>2019-10-06T07:26:07Z</time>
      </trkpt>
      <trkpt lat="45.73703" lon="6.88878">
        <ele>2131</ele>
        <time>2019-10-06T07:26:08Z</time>
      </trkpt>
      <trkpt lat="45.73704" lon="6.88875">
        <ele>2131</ele>
        <time>2019-10-06T07:26:09Z</time>
      </trkpt>
      <trkpt lat="45.73706" lon="6.88871">
        <ele>2132</ele>
        <time>2019-10-06T07:26:11Z</time>
      </trkpt>
      <trkpt lat="45.73708" lon="6.88867">
        <ele>2132</ele>
        <time>2019-10-06T07:26:13Z</time>
      </trkpt>
      <trkpt lat="45.7371" lon="6.88863">
        <ele>2132</ele>
        <time>2019-10-06T07:26:15Z</time>
      </trkpt>
      <trkpt lat="45.73713" lon="6.8886">
        <ele>2132</ele>
        <time>2019-10-06T07:26:17Z</time>
      </trkpt>
      <trkpt lat="45.73715" lon="6.88856">
        <ele>2132</ele>
        <time>2019-10-06T07:26:19Z</time>
      </trkpt>
      <trkpt lat="45.73717" lon="6.88855">
        <ele>2132</ele>
        <time>2019-10-06T07:26:20Z</time>
      </trkpt>
      <trkpt lat="45.73718" lon="6.88853">
        <ele>2133</ele>
        <time>2019-10-06T07:26:21Z</time>
      </trkpt>
      <trkpt lat="45.7372" lon="6.88851">
        <ele>2133</ele>
        <time>2019-10-06T07:26:22Z</time>
      </trkpt>
      <trkpt lat="45.73722" lon="6.8885">
        <ele>2133</ele>
        <time>2019-10-06T07:26:23Z</time>
      </trkpt>
      <trkpt lat="45.73723" lon="6.88849">
        <ele>2133</ele>
        <time>2019-10-06T07:26:24Z</time>
      </trkpt>
      <trkpt lat="45.73726" lon="6.88845">
        <ele>2133</ele>
        <time>2019-10-06T07:26:26Z</time>
      </trkpt>
      <trkpt lat="45.73728" lon="6.88844">
        <ele>2134</ele>
        <time>2019-10-06T07:26:27Z</time>
      </trkpt>
      <trkpt lat="45.73729" lon="6.88843">
        <ele>2134</ele>
        <time>2019-10-06T07:26:28Z</time>
      </trkpt>
      <trkpt lat="45.73731" lon="6.88841">
        <ele>2134</ele>
        <time>2019-10-06T07:26:29Z</time>
      </trkpt>
      <trkpt lat="45.73733" lon="6.8884">
        <ele>2134</ele>
        <time>2019-10-06T07:26:30Z</time>
      </trkpt>
      <trkpt lat="45.73735" lon="6.88837">
        <ele>2135</ele>
        <time>2019-10-06T07:26:32Z</time>
      </trkpt>
      <trkpt lat="45.73738" lon="6.88834">
        <ele>2135</ele>
        <time>2019-10-06T07:26:34Z</time>
      </trkpt>
      <trkpt lat="45.73741" lon="6.8883">
        <ele>2135</ele>
        <time>2019-10-06T07:26:36Z</time>
      </trkpt>
      <trkpt lat="45.73742" lon="6.88828">
        <ele>2135</ele>
        <time>2019-10-06T07:26:37Z</time>
      </trkpt>
      <trkpt lat="45.73743" lon="6.88826">
        <ele>2135</ele>
        <time>2019-10-06T07:26:38Z</time>
      </trkpt>
      <trkpt lat="45.73745" lon="6.88822">
        <ele>2135</ele>
        <time>2019-10-06T07:26:40Z</time>
      </trkpt>
      <trkpt lat="45.73746" lon="6.8882">
        <ele>2135</ele>
        <time>2019-10-06T07:26:41Z</time>
      </trkpt>
      <trkpt lat="45.73748" lon="6.88816">
        <ele>2137</ele>
        <time>2019-10-06T07:26:43Z</time>
      </trkpt>
      <trkpt lat="45.73749" lon="6.88813">
        <ele>2137</ele>
        <time>2019-10-06T07:26:44Z</time>
      </trkpt>
      <trkpt lat="45.7375" lon="6.88811">
        <ele>2137</ele>
        <time>2019-10-06T07:26:45Z</time>
      </trkpt>
      <trkpt lat="45.73753" lon="6.88807">
        <ele>2137</ele>
        <time>2019-10-06T07:26:47Z</time>
      </trkpt>
      <trkpt lat="45.73754" lon="6.88805">
        <ele>2137</ele>
        <time>2019-10-06T07:26:48Z</time>
      </trkpt>
      <trkpt lat="45.73755" lon="6.88803">
        <ele>2137</ele>
        <time>2019-10-06T07:26:49Z</time>
      </trkpt>
      <trkpt lat="45.73756" lon="6.88801">
        <ele>2138</ele>
        <time>2019-10-06T07:26:50Z</time>
      </trkpt>
      <trkpt lat="45.73757" lon="6.88799">
        <ele>2138</ele>
        <time>2019-10-06T07:26:51Z</time>
      </trkpt>
      <trkpt lat="45.73758" lon="6.88797">
        <ele>2138</ele>
        <time>2019-10-06T07:26:52Z</time>
      </trkpt>
      <trkpt lat="45.7376" lon="6.88795">
        <ele>2138</ele>
        <time>2019-10-06T07:26:53Z</time>
      </trkpt>
      <trkpt lat="45.7376" lon="6.88792">
        <ele>2138</ele>
        <time>2019-10-06T07:26:54Z</time>
      </trkpt>
      <trkpt lat="45.73761" lon="6.8879">
        <ele>2139</ele>
        <time>2019-10-06T07:26:55Z</time>
      </trkpt>
      <trkpt lat="45.73762" lon="6.88788">
        <ele>2139</ele>
        <time>2019-10-06T07:26:56Z</time>
      </trkpt>
      <trkpt lat="45.73764" lon="6.88783">
        <ele>2139</ele>
        <time>2019-10-06T07:26:58Z</time>
      </trkpt>
      <trkpt lat="45.73766" lon="6.8878">
        <ele>2139</ele>
        <time>2019-10-06T07:26:59Z</time>
      </trkpt>
      <trkpt lat="45.73767" lon="6.88779">
        <ele>2139</ele>
        <time>2019-10-06T07:27:00Z</time>
      </trkpt>
      <trkpt lat="45.73768" lon="6.88778">
        <ele>2139</ele>
        <time>2019-10-06T07:27:01Z</time>
      </trkpt>
      <trkpt lat="45.73769" lon="6.88776">
        <ele>2139</ele>
        <time>2019-10-06T07:27:02Z</time>
      </trkpt>
      <trkpt lat="45.73771" lon="6.88772">
        <ele>2140</ele>
        <time>2019-10-06T07:27:04Z</time>
      </trkpt>
      <trkpt lat="45.73772" lon="6.8877">
        <ele>2140</ele>
        <time>2019-10-06T07:27:05Z</time>
      </trkpt>
      <trkpt lat="45.73773" lon="6.88767">
        <ele>2141</ele>
        <time>2019-10-06T07:27:06Z</time>
      </trkpt>
      <trkpt lat="45.73775" lon="6.88764">
        <ele>2141</ele>
        <time>2019-10-06T07:27:08Z</time>
      </trkpt>
      <trkpt lat="45.73778" lon="6.8876">
        <ele>2141</ele>
        <time>2019-10-06T07:27:10Z</time>
      </trkpt>
      <trkpt lat="45.73779" lon="6.88757">
        <ele>2141</ele>
        <time>2019-10-06T07:27:11Z</time>
      </trkpt>
      <trkpt lat="45.7378" lon="6.88753">
        <ele>2141</ele>
        <time>2019-10-06T07:27:13Z</time>
      </trkpt>
      <trkpt lat="45.73782" lon="6.88749">
        <ele>2142</ele>
        <time>2019-10-06T07:27:15Z</time>
      </trkpt>
      <trkpt lat="45.73784" lon="6.88744">
        <ele>2142</ele>
        <time>2019-10-06T07:27:17Z</time>
      </trkpt>
      <trkpt lat="45.73785" lon="6.88742">
        <ele>2142</ele>
        <time>2019-10-06T07:27:18Z</time>
      </trkpt>
      <trkpt lat="45.73787" lon="6.88737">
        <ele>2144</ele>
        <time>2019-10-06T07:27:20Z</time>
      </trkpt>
      <trkpt lat="45.73788" lon="6.88733">
        <ele>2144</ele>
        <time>2019-10-06T07:27:22Z</time>
      </trkpt>
      <trkpt lat="45.7379" lon="6.88729">
        <ele>2144</ele>
        <time>2019-10-06T07:27:24Z</time>
      </trkpt>
      <trkpt lat="45.73791" lon="6.88724">
        <ele>2145</ele>
        <time>2019-10-06T07:27:26Z</time>
      </trkpt>
      <trkpt lat="45.73791" lon="6.88721">
        <ele>2145</ele>
        <time>2019-10-06T07:27:27Z</time>
      </trkpt>
      <trkpt lat="45.73791" lon="6.88719">
        <ele>2145</ele>
        <time>2019-10-06T07:27:28Z</time>
      </trkpt>
      <trkpt lat="45.73791" lon="6.88714">
        <ele>2146</ele>
        <time>2019-10-06T07:27:30Z</time>
      </trkpt>
      <trkpt lat="45.73792" lon="6.88711">
        <ele>2146</ele>
        <time>2019-10-06T07:27:31Z</time>
      </trkpt>
      <trkpt lat="45.73792" lon="6.88706">
        <ele>2145</ele>
        <time>2019-10-06T07:27:33Z</time>
      </trkpt>
      <trkpt lat="45.73792" lon="6.88701">
        <ele>2147</ele>
        <time>2019-10-06T07:27:35Z</time>
      </trkpt>
      <trkpt lat="45.73792" lon="6.88699">
        <ele>2147</ele>
        <time>2019-10-06T07:27:36Z</time>
      </trkpt>
      <trkpt lat="45.73793" lon="6.88696">
        <ele>2147</ele>
        <time>2019-10-06T07:27:37Z</time>
      </trkpt>
      <trkpt lat="45.73793" lon="6.88693">
        <ele>2147</ele>
        <time>2019-10-06T07:27:38Z</time>
      </trkpt>
      <trkpt lat="45.73793" lon="6.88691">
        <ele>2147</ele>
        <time>2019-10-06T07:27:39Z</time>
      </trkpt>
      <trkpt lat="45.73794" lon="6.88686">
        <ele>2147</ele>
        <time>2019-10-06T07:27:41Z</time>
      </trkpt>
      <trkpt lat="45.73795" lon="6.88683">
        <ele>2147</ele>
        <time>2019-10-06T07:27:42Z</time>
      </trkpt>
      <trkpt lat="45.73796" lon="6.88681">
        <ele>2147</ele>
        <time>2019-10-06T07:27:43Z</time>
      </trkpt>
      <trkpt lat="45.73797" lon="6.88678">
        <ele>2147</ele>
        <time>2019-10-06T07:27:44Z</time>
      </trkpt>
      <trkpt lat="45.73798" lon="6.88676">
        <ele>2147</ele>
        <time>2019-10-06T07:27:45Z</time>
      </trkpt>
      <trkpt lat="45.73801" lon="6.88671">
        <ele>2147</ele>
        <time>2019-10-06T07:27:47Z</time>
      </trkpt>
      <trkpt lat="45.73803" lon="6.88669">
        <ele>2148</ele>
        <time>2019-10-06T07:27:48Z</time>
      </trkpt>
      <trkpt lat="45.73804" lon="6.88667">
        <ele>2148</ele>
        <time>2019-10-06T07:27:49Z</time>
      </trkpt>
      <trkpt lat="45.73805" lon="6.88664">
        <ele>2148</ele>
        <time>2019-10-06T07:27:50Z</time>
      </trkpt>
      <trkpt lat="45.73806" lon="6.88662">
        <ele>2148</ele>
        <time>2019-10-06T07:27:51Z</time>
      </trkpt>
      <trkpt lat="45.73808" lon="6.8866">
        <ele>2148</ele>
        <time>2019-10-06T07:27:52Z</time>
      </trkpt>
      <trkpt lat="45.73809" lon="6.88657">
        <ele>2148</ele>
        <time>2019-10-06T07:27:53Z</time>
      </trkpt>
      <trkpt lat="45.7381" lon="6.88654">
        <ele>2148</ele>
        <time>2019-10-06T07:27:54Z</time>
      </trkpt>
      <trkpt lat="45.73811" lon="6.88651">
        <ele>2148</ele>
        <time>2019-10-06T07:27:55Z</time>
      </trkpt>
      <trkpt lat="45.73812" lon="6.88649">
        <ele>2148</ele>
        <time>2019-10-06T07:27:56Z</time>
      </trkpt>
      <trkpt lat="45.73814" lon="6.88647">
        <ele>2148</ele>
        <time>2019-10-06T07:27:57Z</time>
      </trkpt>
      <trkpt lat="45.73815" lon="6.88644">
        <ele>2148</ele>
        <time>2019-10-06T07:27:58Z</time>
      </trkpt>
      <trkpt lat="45.73816" lon="6.88642">
        <ele>2148</ele>
        <time>2019-10-06T07:27:59Z</time>
      </trkpt>
      <trkpt lat="45.73817" lon="6.8864">
        <ele>2149</ele>
        <time>2019-10-06T07:28:00Z</time>
      </trkpt>
      <trkpt lat="45.7382" lon="6.88636">
        <ele>2149</ele>
        <time>2019-10-06T07:28:02Z</time>
      </trkpt>
      <trkpt lat="45.7382" lon="6.88634">
        <ele>2149</ele>
        <time>2019-10-06T07:28:03Z</time>
      </trkpt>
      <trkpt lat="45.73822" lon="6.88632">
        <ele>2150</ele>
        <time>2019-10-06T07:28:04Z</time>
      </trkpt>
      <trkpt lat="45.73823" lon="6.88629">
        <ele>2150</ele>
        <time>2019-10-06T07:28:05Z</time>
      </trkpt>
      <trkpt lat="45.73824" lon="6.88625">
        <ele>2150</ele>
        <time>2019-10-06T07:28:07Z</time>
      </trkpt>
      <trkpt lat="45.73826" lon="6.8862">
        <ele>2151</ele>
        <time>2019-10-06T07:28:09Z</time>
      </trkpt>
      <trkpt lat="45.73826" lon="6.88618">
        <ele>2151</ele>
        <time>2019-10-06T07:28:10Z</time>
      </trkpt>
      <trkpt lat="45.73827" lon="6.88615">
        <ele>2151</ele>
        <time>2019-10-06T07:28:11Z</time>
      </trkpt>
      <trkpt lat="45.73829" lon="6.8861">
        <ele>2151</ele>
        <time>2019-10-06T07:28:13Z</time>
      </trkpt>
      <trkpt lat="45.7383" lon="6.88608">
        <ele>2152</ele>
        <time>2019-10-06T07:28:14Z</time>
      </trkpt>
      <trkpt lat="45.73831" lon="6.88605">
        <ele>2152</ele>
        <time>2019-10-06T07:28:15Z</time>
      </trkpt>
      <trkpt lat="45.73832" lon="6.88603">
        <ele>2152</ele>
        <time>2019-10-06T07:28:16Z</time>
      </trkpt>
      <trkpt lat="45.73833" lon="6.88601">
        <ele>2152</ele>
        <time>2019-10-06T07:28:17Z</time>
      </trkpt>
      <trkpt lat="45.73835" lon="6.886">
        <ele>2153</ele>
        <time>2019-10-06T07:28:18Z</time>
      </trkpt>
      <trkpt lat="45.73836" lon="6.88598">
        <ele>2153</ele>
        <time>2019-10-06T07:28:19Z</time>
      </trkpt>
      <trkpt lat="45.73838" lon="6.88597">
        <ele>2153</ele>
        <time>2019-10-06T07:28:20Z</time>
      </trkpt>
      <trkpt lat="45.7384" lon="6.88596">
        <ele>2153</ele>
        <time>2019-10-06T07:28:21Z</time>
      </trkpt>
      <trkpt lat="45.73842" lon="6.88595">
        <ele>2153</ele>
        <time>2019-10-06T07:28:22Z</time>
      </trkpt>
      <trkpt lat="45.73845" lon="6.88594">
        <ele>2153</ele>
        <time>2019-10-06T07:28:24Z</time>
      </trkpt>
      <trkpt lat="45.73848" lon="6.88594">
        <ele>2153</ele>
        <time>2019-10-06T07:28:25Z</time>
      </trkpt>
      <trkpt lat="45.73849" lon="6.88593">
        <ele>2154</ele>
        <time>2019-10-06T07:28:26Z</time>
      </trkpt>
      <trkpt lat="45.73852" lon="6.88593">
        <ele>2154</ele>
        <time>2019-10-06T07:28:27Z</time>
      </trkpt>
      <trkpt lat="45.73854" lon="6.88593">
        <ele>2154</ele>
        <time>2019-10-06T07:28:28Z</time>
      </trkpt>
      <trkpt lat="45.73856" lon="6.88593">
        <ele>2154</ele>
        <time>2019-10-06T07:28:29Z</time>
      </trkpt>
      <trkpt lat="45.73859" lon="6.88594">
        <ele>2154</ele>
        <time>2019-10-06T07:28:31Z</time>
      </trkpt>
      <trkpt lat="45.73861" lon="6.88594">
        <ele>2154</ele>
        <time>2019-10-06T07:28:32Z</time>
      </trkpt>
      <trkpt lat="45.73863" lon="6.88594">
        <ele>2154</ele>
        <time>2019-10-06T07:28:33Z</time>
      </trkpt>
      <trkpt lat="45.73865" lon="6.88594">
        <ele>2154</ele>
        <time>2019-10-06T07:28:34Z</time>
      </trkpt>
      <trkpt lat="45.73867" lon="6.88594">
        <ele>2154</ele>
        <time>2019-10-06T07:28:35Z</time>
      </trkpt>
      <trkpt lat="45.73869" lon="6.88593">
        <ele>2154</ele>
        <time>2019-10-06T07:28:36Z</time>
      </trkpt>
      <trkpt lat="45.73871" lon="6.88593">
        <ele>2155</ele>
        <time>2019-10-06T07:28:37Z</time>
      </trkpt>
      <trkpt lat="45.73873" lon="6.88592">
        <ele>2155</ele>
        <time>2019-10-06T07:28:38Z</time>
      </trkpt>
      <trkpt lat="45.73875" lon="6.88591">
        <ele>2156</ele>
        <time>2019-10-06T07:28:39Z</time>
      </trkpt>
      <trkpt lat="45.73877" lon="6.88591">
        <ele>2156</ele>
        <time>2019-10-06T07:28:40Z</time>
      </trkpt>
      <trkpt lat="45.73879" lon="6.8859">
        <ele>2156</ele>
        <time>2019-10-06T07:28:41Z</time>
      </trkpt>
      <trkpt lat="45.7388" lon="6.88589">
        <ele>2156</ele>
        <time>2019-10-06T07:28:42Z</time>
      </trkpt>
      <trkpt lat="45.73882" lon="6.88588">
        <ele>2156</ele>
        <time>2019-10-06T07:28:43Z</time>
      </trkpt>
      <trkpt lat="45.73886" lon="6.88586">
        <ele>2156</ele>
        <time>2019-10-06T07:28:45Z</time>
      </trkpt>
      <trkpt lat="45.73887" lon="6.88585">
        <ele>2157</ele>
        <time>2019-10-06T07:28:46Z</time>
      </trkpt>
      <trkpt lat="45.73889" lon="6.88584">
        <ele>2157</ele>
        <time>2019-10-06T07:28:47Z</time>
      </trkpt>
      <trkpt lat="45.73892" lon="6.88581">
        <ele>2158</ele>
        <time>2019-10-06T07:28:49Z</time>
      </trkpt>
      <trkpt lat="45.73893" lon="6.88579">
        <ele>2158</ele>
        <time>2019-10-06T07:28:50Z</time>
      </trkpt>
      <trkpt lat="45.73895" lon="6.88574">
        <ele>2158</ele>
        <time>2019-10-06T07:28:52Z</time>
      </trkpt>
      <trkpt lat="45.73896" lon="6.88572">
        <ele>2158</ele>
        <time>2019-10-06T07:28:53Z</time>
      </trkpt>
      <trkpt lat="45.73897" lon="6.88569">
        <ele>2158</ele>
        <time>2019-10-06T07:28:54Z</time>
      </trkpt>
      <trkpt lat="45.73898" lon="6.88565">
        <ele>2158</ele>
        <time>2019-10-06T07:28:56Z</time>
      </trkpt>
      <trkpt lat="45.739" lon="6.88561">
        <ele>2158</ele>
        <time>2019-10-06T07:28:58Z</time>
      </trkpt>
      <trkpt lat="45.73902" lon="6.88557">
        <ele>2159</ele>
        <time>2019-10-06T07:29:00Z</time>
      </trkpt>
      <trkpt lat="45.73903" lon="6.88554">
        <ele>2159</ele>
        <time>2019-10-06T07:29:02Z</time>
      </trkpt>
      <trkpt lat="45.73906" lon="6.8855">
        <ele>2160</ele>
        <time>2019-10-06T07:29:04Z</time>
      </trkpt>
      <trkpt lat="45.73908" lon="6.88548">
        <ele>2160</ele>
        <time>2019-10-06T07:29:06Z</time>
      </trkpt>
      <trkpt lat="45.73911" lon="6.88545">
        <ele>2160</ele>
        <time>2019-10-06T07:29:08Z</time>
      </trkpt>
      <trkpt lat="45.73913" lon="6.88542">
        <ele>2161</ele>
        <time>2019-10-06T07:29:10Z</time>
      </trkpt>
      <trkpt lat="45.73915" lon="6.88538">
        <ele>2161</ele>
        <time>2019-10-06T07:29:12Z</time>
      </trkpt>
      <trkpt lat="45.73916" lon="6.88534">
        <ele>2161</ele>
        <time>2019-10-06T07:29:14Z</time>
      </trkpt>
      <trkpt lat="45.73918" lon="6.8853">
        <ele>2162</ele>
        <time>2019-10-06T07:29:16Z</time>
      </trkpt>
      <trkpt lat="45.73919" lon="6.88527">
        <ele>2162</ele>
        <time>2019-10-06T07:29:18Z</time>
      </trkpt>
      <trkpt lat="45.7392" lon="6.88523">
        <ele>2163</ele>
        <time>2019-10-06T07:29:20Z</time>
      </trkpt>
      <trkpt lat="45.73921" lon="6.88519">
        <ele>2163</ele>
        <time>2019-10-06T07:29:22Z</time>
      </trkpt>
      <trkpt lat="45.73923" lon="6.88516">
        <ele>2163</ele>
        <time>2019-10-06T07:29:24Z</time>
      </trkpt>
      <trkpt lat="45.73924" lon="6.88512">
        <ele>2163</ele>
        <time>2019-10-06T07:29:26Z</time>
      </trkpt>
      <trkpt lat="45.73925" lon="6.88509">
        <ele>2164</ele>
        <time>2019-10-06T07:29:28Z</time>
      </trkpt>
      <trkpt lat="45.73927" lon="6.88506">
        <ele>2164</ele>
        <time>2019-10-06T07:29:30Z</time>
      </trkpt>
      <trkpt lat="45.73929" lon="6.88502">
        <ele>2164</ele>
        <time>2019-10-06T07:29:32Z</time>
      </trkpt>
      <trkpt lat="45.73929" lon="6.88502">
        <ele>2165</ele>
        <time>2019-10-06T07:29:35Z</time>
      </trkpt>
      <trkpt lat="45.7393" lon="6.88498">
        <ele>2165</ele>
        <time>2019-10-06T07:29:36Z</time>
      </trkpt>
      <trkpt lat="45.73932" lon="6.88494">
        <ele>2166</ele>
        <time>2019-10-06T07:29:38Z</time>
      </trkpt>
      <trkpt lat="45.73934" lon="6.88491">
        <ele>2166</ele>
        <time>2019-10-06T07:29:40Z</time>
      </trkpt>
      <trkpt lat="45.73936" lon="6.88487">
        <ele>2167</ele>
        <time>2019-10-06T07:29:42Z</time>
      </trkpt>
      <trkpt lat="45.73938" lon="6.88483">
        <ele>2167</ele>
        <time>2019-10-06T07:29:44Z</time>
      </trkpt>
      <trkpt lat="45.7394" lon="6.88479">
        <ele>2167</ele>
        <time>2019-10-06T07:29:46Z</time>
      </trkpt>
      <trkpt lat="45.73942" lon="6.88476">
        <ele>2167</ele>
        <time>2019-10-06T07:29:48Z</time>
      </trkpt>
      <trkpt lat="45.73944" lon="6.88472">
        <ele>2167</ele>
        <time>2019-10-06T07:29:50Z</time>
      </trkpt>
      <trkpt lat="45.73946" lon="6.88469">
        <ele>2168</ele>
        <time>2019-10-06T07:29:52Z</time>
      </trkpt>
      <trkpt lat="45.73949" lon="6.88465">
        <ele>2168</ele>
        <time>2019-10-06T07:29:54Z</time>
      </trkpt>
      <trkpt lat="45.73951" lon="6.88462">
        <ele>2170</ele>
        <time>2019-10-06T07:29:56Z</time>
      </trkpt>
      <trkpt lat="45.73953" lon="6.8846">
        <ele>2170</ele>
        <time>2019-10-06T07:29:58Z</time>
      </trkpt>
      <trkpt lat="45.73955" lon="6.88457">
        <ele>2171</ele>
        <time>2019-10-06T07:30:00Z</time>
      </trkpt>
      <trkpt lat="45.73958" lon="6.88454">
        <ele>2171</ele>
        <time>2019-10-06T07:30:02Z</time>
      </trkpt>
      <trkpt lat="45.7396" lon="6.88451">
        <ele>2171</ele>
        <time>2019-10-06T07:30:04Z</time>
      </trkpt>
      <trkpt lat="45.73962" lon="6.88448">
        <ele>2172</ele>
        <time>2019-10-06T07:30:06Z</time>
      </trkpt>
      <trkpt lat="45.73965" lon="6.88446">
        <ele>2172</ele>
        <time>2019-10-06T07:30:08Z</time>
      </trkpt>
      <trkpt lat="45.73967" lon="6.88444">
        <ele>2173</ele>
        <time>2019-10-06T07:30:10Z</time>
      </trkpt>
      <trkpt lat="45.73969" lon="6.88441">
        <ele>2173</ele>
        <time>2019-10-06T07:30:12Z</time>
      </trkpt>
      <trkpt lat="45.73971" lon="6.88439">
        <ele>2173</ele>
        <time>2019-10-06T07:30:14Z</time>
      </trkpt>
      <trkpt lat="45.73974" lon="6.88436">
        <ele>2174</ele>
        <time>2019-10-06T07:30:16Z</time>
      </trkpt>
      <trkpt lat="45.73976" lon="6.88434">
        <ele>2174</ele>
        <time>2019-10-06T07:30:18Z</time>
      </trkpt>
      <trkpt lat="45.73978" lon="6.88432">
        <ele>2174</ele>
        <time>2019-10-06T07:30:20Z</time>
      </trkpt>
      <trkpt lat="45.7398" lon="6.8843">
        <ele>2174</ele>
        <time>2019-10-06T07:30:22Z</time>
      </trkpt>
      <trkpt lat="45.73983" lon="6.88428">
        <ele>2175</ele>
        <time>2019-10-06T07:30:24Z</time>
      </trkpt>
      <trkpt lat="45.73985" lon="6.88426">
        <ele>2175</ele>
        <time>2019-10-06T07:30:26Z</time>
      </trkpt>
      <trkpt lat="45.73988" lon="6.88424">
        <ele>2175</ele>
        <time>2019-10-06T07:30:28Z</time>
      </trkpt>
      <trkpt lat="45.7399" lon="6.88422">
        <ele>2176</ele>
        <time>2019-10-06T07:30:30Z</time>
      </trkpt>
      <trkpt lat="45.73993" lon="6.8842">
        <ele>2177</ele>
        <time>2019-10-06T07:30:32Z</time>
      </trkpt>
      <trkpt lat="45.73995" lon="6.88418">
        <ele>2177</ele>
        <time>2019-10-06T07:30:34Z</time>
      </trkpt>
      <trkpt lat="45.73999" lon="6.88414">
        <ele>2177</ele>
        <time>2019-10-06T07:30:37Z</time>
      </trkpt>
      <trkpt lat="45.73999" lon="6.88414">
        <ele>2177</ele>
        <time>2019-10-06T07:30:38Z</time>
      </trkpt>
      <trkpt lat="45.74001" lon="6.88411">
        <ele>2178</ele>
        <time>2019-10-06T07:30:39Z</time>
      </trkpt>
      <trkpt lat="45.74003" lon="6.88407">
        <ele>2178</ele>
        <time>2019-10-06T07:30:41Z</time>
      </trkpt>
      <trkpt lat="45.74004" lon="6.88404">
        <ele>2178</ele>
        <time>2019-10-06T07:30:42Z</time>
      </trkpt>
      <trkpt lat="45.74004" lon="6.88401">
        <ele>2178</ele>
        <time>2019-10-06T07:30:43Z</time>
      </trkpt>
      <trkpt lat="45.74004" lon="6.88398">
        <ele>2178</ele>
        <time>2019-10-06T07:30:44Z</time>
      </trkpt>
      <trkpt lat="45.74005" lon="6.88394">
        <ele>2179</ele>
        <time>2019-10-06T07:30:45Z</time>
      </trkpt>
      <trkpt lat="45.74006" lon="6.88391">
        <ele>2179</ele>
        <time>2019-10-06T07:30:46Z</time>
      </trkpt>
      <trkpt lat="45.74006" lon="6.88388">
        <ele>2179</ele>
        <time>2019-10-06T07:30:47Z</time>
      </trkpt>
      <trkpt lat="45.74006" lon="6.88384">
        <ele>2179</ele>
        <time>2019-10-06T07:30:48Z</time>
      </trkpt>
      <trkpt lat="45.74006" lon="6.88381">
        <ele>2179</ele>
        <time>2019-10-06T07:30:49Z</time>
      </trkpt>
      <trkpt lat="45.74005" lon="6.88378">
        <ele>2179</ele>
        <time>2019-10-06T07:30:50Z</time>
      </trkpt>
      <trkpt lat="45.74005" lon="6.88375">
        <ele>2179</ele>
        <time>2019-10-06T07:30:51Z</time>
      </trkpt>
      <trkpt lat="45.74005" lon="6.88372">
        <ele>2179</ele>
        <time>2019-10-06T07:30:52Z</time>
      </trkpt>
      <trkpt lat="45.74004" lon="6.88368">
        <ele>2179</ele>
        <time>2019-10-06T07:30:53Z</time>
      </trkpt>
      <trkpt lat="45.74004" lon="6.88365">
        <ele>2179</ele>
        <time>2019-10-06T07:30:54Z</time>
      </trkpt>
      <trkpt lat="45.74004" lon="6.88362">
        <ele>2179</ele>
        <time>2019-10-06T07:30:55Z</time>
      </trkpt>
      <trkpt lat="45.74004" lon="6.88359">
        <ele>2180</ele>
        <time>2019-10-06T07:30:56Z</time>
      </trkpt>
      <trkpt lat="45.74004" lon="6.88356">
        <ele>2180</ele>
        <time>2019-10-06T07:30:57Z</time>
      </trkpt>
      <trkpt lat="45.74005" lon="6.88354">
        <ele>2180</ele>
        <time>2019-10-06T07:30:58Z</time>
      </trkpt>
      <trkpt lat="45.74006" lon="6.88351">
        <ele>2180</ele>
        <time>2019-10-06T07:30:59Z</time>
      </trkpt>
      <trkpt lat="45.74008" lon="6.88348">
        <ele>2180</ele>
        <time>2019-10-06T07:31:01Z</time>
      </trkpt>
      <trkpt lat="45.7401" lon="6.88344">
        <ele>2181</ele>
        <time>2019-10-06T07:31:03Z</time>
      </trkpt>
      <trkpt lat="45.74012" lon="6.88341">
        <ele>2181</ele>
        <time>2019-10-06T07:31:05Z</time>
      </trkpt>
      <trkpt lat="45.74014" lon="6.88337">
        <ele>2182</ele>
        <time>2019-10-06T07:31:07Z</time>
      </trkpt>
      <trkpt lat="45.74015" lon="6.88334">
        <ele>2183</ele>
        <time>2019-10-06T07:31:09Z</time>
      </trkpt>
      <trkpt lat="45.74017" lon="6.88331">
        <ele>2183</ele>
        <time>2019-10-06T07:31:11Z</time>
      </trkpt>
      <trkpt lat="45.74018" lon="6.88328">
        <ele>2183</ele>
        <time>2019-10-06T07:31:13Z</time>
      </trkpt>
      <trkpt lat="45.7402" lon="6.88325">
        <ele>2184</ele>
        <time>2019-10-06T07:31:15Z</time>
      </trkpt>
      <trkpt lat="45.74021" lon="6.88321">
        <ele>2185</ele>
        <time>2019-10-06T07:31:17Z</time>
      </trkpt>
      <trkpt lat="45.74021" lon="6.88316">
        <ele>2185</ele>
        <time>2019-10-06T07:31:19Z</time>
      </trkpt>
      <trkpt lat="45.74021" lon="6.88316">
        <ele>2185</ele>
        <time>2019-10-06T07:31:21Z</time>
      </trkpt>
      <trkpt lat="45.74023" lon="6.88311">
        <ele>2185</ele>
        <time>2019-10-06T07:31:22Z</time>
      </trkpt>
      <trkpt lat="45.74025" lon="6.88308">
        <ele>2184</ele>
        <time>2019-10-06T07:31:24Z</time>
      </trkpt>
      <trkpt lat="45.74026" lon="6.88304">
        <ele>2185</ele>
        <time>2019-10-06T07:31:26Z</time>
      </trkpt>
      <trkpt lat="45.74027" lon="6.883">
        <ele>2185</ele>
        <time>2019-10-06T07:31:28Z</time>
      </trkpt>
      <trkpt lat="45.74027" lon="6.88297">
        <ele>2186</ele>
        <time>2019-10-06T07:31:30Z</time>
      </trkpt>
      <trkpt lat="45.74029" lon="6.88293">
        <ele>2186</ele>
        <time>2019-10-06T07:31:32Z</time>
      </trkpt>
      <trkpt lat="45.7403" lon="6.88289">
        <ele>2187</ele>
        <time>2019-10-06T07:31:34Z</time>
      </trkpt>
      <trkpt lat="45.74032" lon="6.88286">
        <ele>2187</ele>
        <time>2019-10-06T07:31:36Z</time>
      </trkpt>
      <trkpt lat="45.74033" lon="6.88282">
        <ele>2187</ele>
        <time>2019-10-06T07:31:38Z</time>
      </trkpt>
      <trkpt lat="45.74034" lon="6.88279">
        <ele>2187</ele>
        <time>2019-10-06T07:31:40Z</time>
      </trkpt>
      <trkpt lat="45.74036" lon="6.88275">
        <ele>2188</ele>
        <time>2019-10-06T07:31:42Z</time>
      </trkpt>
      <trkpt lat="45.74037" lon="6.88271">
        <ele>2188</ele>
        <time>2019-10-06T07:31:44Z</time>
      </trkpt>
      <trkpt lat="45.74039" lon="6.88267">
        <ele>2189</ele>
        <time>2019-10-06T07:31:46Z</time>
      </trkpt>
      <trkpt lat="45.7404" lon="6.88264">
        <ele>2189</ele>
        <time>2019-10-06T07:31:48Z</time>
      </trkpt>
      <trkpt lat="45.7404" lon="6.88259">
        <ele>2189</ele>
        <time>2019-10-06T07:31:50Z</time>
      </trkpt>
      <trkpt lat="45.74041" lon="6.88255">
        <ele>2189</ele>
        <time>2019-10-06T07:31:52Z</time>
      </trkpt>
      <trkpt lat="45.74042" lon="6.88251">
        <ele>2189</ele>
        <time>2019-10-06T07:31:54Z</time>
      </trkpt>
      <trkpt lat="45.74043" lon="6.88247">
        <ele>2190</ele>
        <time>2019-10-06T07:31:56Z</time>
      </trkpt>
      <trkpt lat="45.74044" lon="6.88242">
        <ele>2191</ele>
        <time>2019-10-06T07:31:58Z</time>
      </trkpt>
      <trkpt lat="45.74045" lon="6.88239">
        <ele>2191</ele>
        <time>2019-10-06T07:32:00Z</time>
      </trkpt>
      <trkpt lat="45.74046" lon="6.88235">
        <ele>2191</ele>
        <time>2019-10-06T07:32:02Z</time>
      </trkpt>
      <trkpt lat="45.74047" lon="6.88231">
        <ele>2192</ele>
        <time>2019-10-06T07:32:04Z</time>
      </trkpt>
      <trkpt lat="45.74048" lon="6.88227">
        <ele>2192</ele>
        <time>2019-10-06T07:32:06Z</time>
      </trkpt>
      <trkpt lat="45.74049" lon="6.88224">
        <ele>2192</ele>
        <time>2019-10-06T07:32:08Z</time>
      </trkpt>
      <trkpt lat="45.74051" lon="6.8822">
        <ele>2193</ele>
        <time>2019-10-06T07:32:10Z</time>
      </trkpt>
      <trkpt lat="45.74052" lon="6.88216">
        <ele>2194</ele>
        <time>2019-10-06T07:32:12Z</time>
      </trkpt>
      <trkpt lat="45.74053" lon="6.88212">
        <ele>2194</ele>
        <time>2019-10-06T07:32:14Z</time>
      </trkpt>
      <trkpt lat="45.74053" lon="6.88208">
        <ele>2194</ele>
        <time>2019-10-06T07:32:16Z</time>
      </trkpt>
      <trkpt lat="45.74055" lon="6.88205">
        <ele>2194</ele>
        <time>2019-10-06T07:32:18Z</time>
      </trkpt>
      <trkpt lat="45.74056" lon="6.88201">
        <ele>2196</ele>
        <time>2019-10-06T07:32:20Z</time>
      </trkpt>
      <trkpt lat="45.74058" lon="6.88197">
        <ele>2196</ele>
        <time>2019-10-06T07:32:22Z</time>
      </trkpt>
      <trkpt lat="45.74059" lon="6.88194">
        <ele>2196</ele>
        <time>2019-10-06T07:32:24Z</time>
      </trkpt>
      <trkpt lat="45.7406" lon="6.8819">
        <ele>2197</ele>
        <time>2019-10-06T07:32:26Z</time>
      </trkpt>
      <trkpt lat="45.74062" lon="6.88185">
        <ele>2197</ele>
        <time>2019-10-06T07:32:28Z</time>
      </trkpt>
      <trkpt lat="45.74062" lon="6.88184">
        <ele>2197</ele>
        <time>2019-10-06T07:32:30Z</time>
      </trkpt>
      <trkpt lat="45.74062" lon="6.88183">
        <ele>2197</ele>
        <time>2019-10-06T07:32:31Z</time>
      </trkpt>
      <trkpt lat="45.74063" lon="6.88182">
        <ele>2197</ele>
        <time>2019-10-06T07:32:32Z</time>
      </trkpt>
      <trkpt lat="45.74065" lon="6.88177">
        <ele>2198</ele>
        <time>2019-10-06T07:32:33Z</time>
      </trkpt>
      <trkpt lat="45.74066" lon="6.88173">
        <ele>2198</ele>
        <time>2019-10-06T07:32:35Z</time>
      </trkpt>
      <trkpt lat="45.74067" lon="6.8817">
        <ele>2199</ele>
        <time>2019-10-06T07:32:37Z</time>
      </trkpt>
      <trkpt lat="45.74068" lon="6.88166">
        <ele>2199</ele>
        <time>2019-10-06T07:32:39Z</time>
      </trkpt>
      <trkpt lat="45.7407" lon="6.88162">
        <ele>2200</ele>
        <time>2019-10-06T07:32:41Z</time>
      </trkpt>
      <trkpt lat="45.74071" lon="6.88159">
        <ele>2200</ele>
        <time>2019-10-06T07:32:43Z</time>
      </trkpt>
      <trkpt lat="45.74072" lon="6.88154">
        <ele>2200</ele>
        <time>2019-10-06T07:32:45Z</time>
      </trkpt>
      <trkpt lat="45.74073" lon="6.88151">
        <ele>2200</ele>
        <time>2019-10-06T07:32:47Z</time>
      </trkpt>
      <trkpt lat="45.74075" lon="6.88148">
        <ele>2200</ele>
        <time>2019-10-06T07:32:49Z</time>
      </trkpt>
      <trkpt lat="45.74076" lon="6.88144">
        <ele>2201</ele>
        <time>2019-10-06T07:32:51Z</time>
      </trkpt>
      <trkpt lat="45.74077" lon="6.88141">
        <ele>2201</ele>
        <time>2019-10-06T07:32:53Z</time>
      </trkpt>
      <trkpt lat="45.74079" lon="6.88137">
        <ele>2201</ele>
        <time>2019-10-06T07:32:55Z</time>
      </trkpt>
      <trkpt lat="45.7408" lon="6.88133">
        <ele>2202</ele>
        <time>2019-10-06T07:32:57Z</time>
      </trkpt>
      <trkpt lat="45.74081" lon="6.8813">
        <ele>2202</ele>
        <time>2019-10-06T07:32:59Z</time>
      </trkpt>
      <trkpt lat="45.74081" lon="6.8813">
        <ele>2202</ele>
        <time>2019-10-06T07:33:02Z</time>
      </trkpt>
      <trkpt lat="45.74084" lon="6.88123">
        <ele>2202</ele>
        <time>2019-10-06T07:33:03Z</time>
      </trkpt>
      <trkpt lat="45.74085" lon="6.88118">
        <ele>2203</ele>
        <time>2019-10-06T07:33:05Z</time>
      </trkpt>
      <trkpt lat="45.74086" lon="6.88114">
        <ele>2204</ele>
        <time>2019-10-06T07:33:07Z</time>
      </trkpt>
      <trkpt lat="45.74087" lon="6.88111">
        <ele>2204</ele>
        <time>2019-10-06T07:33:09Z</time>
      </trkpt>
      <trkpt lat="45.74088" lon="6.88108">
        <ele>2204</ele>
        <time>2019-10-06T07:33:11Z</time>
      </trkpt>
      <trkpt lat="45.74089" lon="6.88104">
        <ele>2205</ele>
        <time>2019-10-06T07:33:13Z</time>
      </trkpt>
      <trkpt lat="45.7409" lon="6.88101">
        <ele>2205</ele>
        <time>2019-10-06T07:33:15Z</time>
      </trkpt>
      <trkpt lat="45.74092" lon="6.88098">
        <ele>2206</ele>
        <time>2019-10-06T07:33:17Z</time>
      </trkpt>
      <trkpt lat="45.74093" lon="6.88094">
        <ele>2206</ele>
        <time>2019-10-06T07:33:19Z</time>
      </trkpt>
      <trkpt lat="45.74094" lon="6.8809">
        <ele>2206</ele>
        <time>2019-10-06T07:33:21Z</time>
      </trkpt>
      <trkpt lat="45.74096" lon="6.88087">
        <ele>2206</ele>
        <time>2019-10-06T07:33:23Z</time>
      </trkpt>
      <trkpt lat="45.74097" lon="6.88084">
        <ele>2207</ele>
        <time>2019-10-06T07:33:25Z</time>
      </trkpt>
      <trkpt lat="45.74098" lon="6.8808">
        <ele>2207</ele>
        <time>2019-10-06T07:33:27Z</time>
      </trkpt>
      <trkpt lat="45.741" lon="6.88076">
        <ele>2207</ele>
        <time>2019-10-06T07:33:29Z</time>
      </trkpt>
      <trkpt lat="45.74102" lon="6.88071">
        <ele>2207</ele>
        <time>2019-10-06T07:33:32Z</time>
      </trkpt>
      <trkpt lat="45.74102" lon="6.88071">
        <ele>2208</ele>
        <time>2019-10-06T07:33:33Z</time>
      </trkpt>
      <trkpt lat="45.74103" lon="6.88067">
        <ele>2209</ele>
        <time>2019-10-06T07:33:34Z</time>
      </trkpt>
      <trkpt lat="45.74104" lon="6.88064">
        <ele>2209</ele>
        <time>2019-10-06T07:33:36Z</time>
      </trkpt>
      <trkpt lat="45.74105" lon="6.8806">
        <ele>2209</ele>
        <time>2019-10-06T07:33:38Z</time>
      </trkpt>
      <trkpt lat="45.74106" lon="6.88056">
        <ele>2210</ele>
        <time>2019-10-06T07:33:40Z</time>
      </trkpt>
      <trkpt lat="45.74108" lon="6.88052">
        <ele>2210</ele>
        <time>2019-10-06T07:33:42Z</time>
      </trkpt>
      <trkpt lat="45.74109" lon="6.88049">
        <ele>2210</ele>
        <time>2019-10-06T07:33:44Z</time>
      </trkpt>
      <trkpt lat="45.7411" lon="6.88045">
        <ele>2211</ele>
        <time>2019-10-06T07:33:46Z</time>
      </trkpt>
      <trkpt lat="45.74112" lon="6.88041">
        <ele>2211</ele>
        <time>2019-10-06T07:33:48Z</time>
      </trkpt>
      <trkpt lat="45.74113" lon="6.88038">
        <ele>2211</ele>
        <time>2019-10-06T07:33:50Z</time>
      </trkpt>
      <trkpt lat="45.74114" lon="6.88033">
        <ele>2212</ele>
        <time>2019-10-06T07:33:52Z</time>
      </trkpt>
      <trkpt lat="45.74115" lon="6.88029">
        <ele>2212</ele>
        <time>2019-10-06T07:33:54Z</time>
      </trkpt>
      <trkpt lat="45.74115" lon="6.88025">
        <ele>2212</ele>
        <time>2019-10-06T07:33:56Z</time>
      </trkpt>
      <trkpt lat="45.74116" lon="6.88021">
        <ele>2212</ele>
        <time>2019-10-06T07:33:58Z</time>
      </trkpt>
      <trkpt lat="45.74117" lon="6.88018">
        <ele>2212</ele>
        <time>2019-10-06T07:34:00Z</time>
      </trkpt>
      <trkpt lat="45.74117" lon="6.88013">
        <ele>2212</ele>
        <time>2019-10-06T07:34:02Z</time>
      </trkpt>
      <trkpt lat="45.74118" lon="6.88009">
        <ele>2212</ele>
        <time>2019-10-06T07:34:04Z</time>
      </trkpt>
      <trkpt lat="45.74118" lon="6.88005">
        <ele>2213</ele>
        <time>2019-10-06T07:34:06Z</time>
      </trkpt>
      <trkpt lat="45.74119" lon="6.88001">
        <ele>2214</ele>
        <time>2019-10-06T07:34:08Z</time>
      </trkpt>
      <trkpt lat="45.7412" lon="6.87997">
        <ele>2214</ele>
        <time>2019-10-06T07:34:10Z</time>
      </trkpt>
      <trkpt lat="45.7412" lon="6.87993">
        <ele>2214</ele>
        <time>2019-10-06T07:34:12Z</time>
      </trkpt>
      <trkpt lat="45.74121" lon="6.87989">
        <ele>2215</ele>
        <time>2019-10-06T07:34:14Z</time>
      </trkpt>
      <trkpt lat="45.74122" lon="6.87985">
        <ele>2215</ele>
        <time>2019-10-06T07:34:16Z</time>
      </trkpt>
      <trkpt lat="45.74123" lon="6.87982">
        <ele>2215</ele>
        <time>2019-10-06T07:34:18Z</time>
      </trkpt>
      <trkpt lat="45.74124" lon="6.87979">
        <ele>2216</ele>
        <time>2019-10-06T07:34:20Z</time>
      </trkpt>
      <trkpt lat="45.74125" lon="6.87975">
        <ele>2216</ele>
        <time>2019-10-06T07:34:22Z</time>
      </trkpt>
      <trkpt lat="45.74126" lon="6.87971">
        <ele>2216</ele>
        <time>2019-10-06T07:34:24Z</time>
      </trkpt>
      <trkpt lat="45.74127" lon="6.87967">
        <ele>2216</ele>
        <time>2019-10-06T07:34:26Z</time>
      </trkpt>
      <trkpt lat="45.74128" lon="6.87963">
        <ele>2216</ele>
        <time>2019-10-06T07:34:28Z</time>
      </trkpt>
      <trkpt lat="45.74129" lon="6.8796">
        <ele>2216</ele>
        <time>2019-10-06T07:34:30Z</time>
      </trkpt>
      <trkpt lat="45.74129" lon="6.87956">
        <ele>2216</ele>
        <time>2019-10-06T07:34:32Z</time>
      </trkpt>
      <trkpt lat="45.7413" lon="6.87952">
        <ele>2217</ele>
        <time>2019-10-06T07:34:34Z</time>
      </trkpt>
      <trkpt lat="45.7413" lon="6.87948">
        <ele>2217</ele>
        <time>2019-10-06T07:34:36Z</time>
      </trkpt>
      <trkpt lat="45.74131" lon="6.87944">
        <ele>2218</ele>
        <time>2019-10-06T07:34:38Z</time>
      </trkpt>
      <trkpt lat="45.74131" lon="6.8794">
        <ele>2218</ele>
        <time>2019-10-06T07:34:40Z</time>
      </trkpt>
      <trkpt lat="45.74132" lon="6.87937">
        <ele>2218</ele>
        <time>2019-10-06T07:34:42Z</time>
      </trkpt>
      <trkpt lat="45.74133" lon="6.87933">
        <ele>2218</ele>
        <time>2019-10-06T07:34:44Z</time>
      </trkpt>
      <trkpt lat="45.74134" lon="6.87929">
        <ele>2219</ele>
        <time>2019-10-06T07:34:46Z</time>
      </trkpt>
      <trkpt lat="45.74135" lon="6.87926">
        <ele>2219</ele>
        <time>2019-10-06T07:34:48Z</time>
      </trkpt>
      <trkpt lat="45.74136" lon="6.87922">
        <ele>2219</ele>
        <time>2019-10-06T07:34:50Z</time>
      </trkpt>
      <trkpt lat="45.74137" lon="6.87919">
        <ele>2219</ele>
        <time>2019-10-06T07:34:52Z</time>
      </trkpt>
      <trkpt lat="45.74139" lon="6.87915">
        <ele>2219</ele>
        <time>2019-10-06T07:34:54Z</time>
      </trkpt>
      <trkpt lat="45.74139" lon="6.87915">
        <ele>2219</ele>
        <time>2019-10-06T07:34:56Z</time>
      </trkpt>
      <trkpt lat="45.74141" lon="6.87909">
        <ele>2219</ele>
        <time>2019-10-06T07:34:57Z</time>
      </trkpt>
      <trkpt lat="45.74142" lon="6.87906">
        <ele>2222</ele>
        <time>2019-10-06T07:34:59Z</time>
      </trkpt>
      <trkpt lat="45.74144" lon="6.87903">
        <ele>2222</ele>
        <time>2019-10-06T07:35:01Z</time>
      </trkpt>
      <trkpt lat="45.74145" lon="6.87899">
        <ele>2222</ele>
        <time>2019-10-06T07:35:03Z</time>
      </trkpt>
      <trkpt lat="45.74146" lon="6.87895">
        <ele>2222</ele>
        <time>2019-10-06T07:35:05Z</time>
      </trkpt>
      <trkpt lat="45.74147" lon="6.87892">
        <ele>2223</ele>
        <time>2019-10-06T07:35:07Z</time>
      </trkpt>
      <trkpt lat="45.74148" lon="6.87888">
        <ele>2223</ele>
        <time>2019-10-06T07:35:09Z</time>
      </trkpt>
      <trkpt lat="45.74149" lon="6.87884">
        <ele>2224</ele>
        <time>2019-10-06T07:35:11Z</time>
      </trkpt>
      <trkpt lat="45.7415" lon="6.8788">
        <ele>2224</ele>
        <time>2019-10-06T07:35:13Z</time>
      </trkpt>
      <trkpt lat="45.7415" lon="6.87877">
        <ele>2224</ele>
        <time>2019-10-06T07:35:15Z</time>
      </trkpt>
      <trkpt lat="45.74151" lon="6.87873">
        <ele>2225</ele>
        <time>2019-10-06T07:35:17Z</time>
      </trkpt>
      <trkpt lat="45.74152" lon="6.87869">
        <ele>2225</ele>
        <time>2019-10-06T07:35:19Z</time>
      </trkpt>
      <trkpt lat="45.74153" lon="6.87865">
        <ele>2225</ele>
        <time>2019-10-06T07:35:21Z</time>
      </trkpt>
      <trkpt lat="45.74154" lon="6.87861">
        <ele>2225</ele>
        <time>2019-10-06T07:35:23Z</time>
      </trkpt>
      <trkpt lat="45.74155" lon="6.87858">
        <ele>2225</ele>
        <time>2019-10-06T07:35:25Z</time>
      </trkpt>
      <trkpt lat="45.74156" lon="6.87854">
        <ele>2226</ele>
        <time>2019-10-06T07:35:27Z</time>
      </trkpt>
      <trkpt lat="45.74157" lon="6.8785">
        <ele>2226</ele>
        <time>2019-10-06T07:35:29Z</time>
      </trkpt>
      <trkpt lat="45.74158" lon="6.87847">
        <ele>2227</ele>
        <time>2019-10-06T07:35:31Z</time>
      </trkpt>
      <trkpt lat="45.7416" lon="6.87843">
        <ele>2227</ele>
        <time>2019-10-06T07:35:33Z</time>
      </trkpt>
      <trkpt lat="45.74161" lon="6.87839">
        <ele>2228</ele>
        <time>2019-10-06T07:35:35Z</time>
      </trkpt>
      <trkpt lat="45.74163" lon="6.87836">
        <ele>2229</ele>
        <time>2019-10-06T07:35:37Z</time>
      </trkpt>
      <trkpt lat="45.74164" lon="6.87832">
        <ele>2228</ele>
        <time>2019-10-06T07:35:39Z</time>
      </trkpt>
      <trkpt lat="45.74166" lon="6.87829">
        <ele>2229</ele>
        <time>2019-10-06T07:35:41Z</time>
      </trkpt>
      <trkpt lat="45.74168" lon="6.87825">
        <ele>2229</ele>
        <time>2019-10-06T07:35:43Z</time>
      </trkpt>
      <trkpt lat="45.74169" lon="6.87821">
        <ele>2229</ele>
        <time>2019-10-06T07:35:45Z</time>
      </trkpt>
      <trkpt lat="45.7417" lon="6.87818">
        <ele>2230</ele>
        <time>2019-10-06T07:35:47Z</time>
      </trkpt>
      <trkpt lat="45.74171" lon="6.87814">
        <ele>2230</ele>
        <time>2019-10-06T07:35:49Z</time>
      </trkpt>
      <trkpt lat="45.74172" lon="6.8781">
        <ele>2230</ele>
        <time>2019-10-06T07:35:51Z</time>
      </trkpt>
      <trkpt lat="45.74173" lon="6.87806">
        <ele>2230</ele>
        <time>2019-10-06T07:35:53Z</time>
      </trkpt>
      <trkpt lat="45.74174" lon="6.87803">
        <ele>2230</ele>
        <time>2019-10-06T07:35:55Z</time>
      </trkpt>
      <trkpt lat="45.74175" lon="6.87798">
        <ele>2230</ele>
        <time>2019-10-06T07:35:57Z</time>
      </trkpt>
      <trkpt lat="45.74176" lon="6.87794">
        <ele>2231</ele>
        <time>2019-10-06T07:35:59Z</time>
      </trkpt>
      <trkpt lat="45.74177" lon="6.8779">
        <ele>2231</ele>
        <time>2019-10-06T07:36:01Z</time>
      </trkpt>
      <trkpt lat="45.74178" lon="6.87786">
        <ele>2232</ele>
        <time>2019-10-06T07:36:03Z</time>
      </trkpt>
      <trkpt lat="45.74179" lon="6.87783">
        <ele>2232</ele>
        <time>2019-10-06T07:36:05Z</time>
      </trkpt>
      <trkpt lat="45.74181" lon="6.87779">
        <ele>2233</ele>
        <time>2019-10-06T07:36:07Z</time>
      </trkpt>
      <trkpt lat="45.74182" lon="6.87776">
        <ele>2233</ele>
        <time>2019-10-06T07:36:09Z</time>
      </trkpt>
      <trkpt lat="45.74184" lon="6.87772">
        <ele>2234</ele>
        <time>2019-10-06T07:36:11Z</time>
      </trkpt>
      <trkpt lat="45.74186" lon="6.87769">
        <ele>2234</ele>
        <time>2019-10-06T07:36:13Z</time>
      </trkpt>
      <trkpt lat="45.74188" lon="6.87766">
        <ele>2234</ele>
        <time>2019-10-06T07:36:15Z</time>
      </trkpt>
      <trkpt lat="45.7419" lon="6.87762">
        <ele>2235</ele>
        <time>2019-10-06T07:36:17Z</time>
      </trkpt>
      <trkpt lat="45.74192" lon="6.8776">
        <ele>2235</ele>
        <time>2019-10-06T07:36:19Z</time>
      </trkpt>
      <trkpt lat="45.74195" lon="6.87757">
        <ele>2235</ele>
        <time>2019-10-06T07:36:21Z</time>
      </trkpt>
      <trkpt lat="45.74197" lon="6.87755">
        <ele>2236</ele>
        <time>2019-10-06T07:36:23Z</time>
      </trkpt>
      <trkpt lat="45.74199" lon="6.87752">
        <ele>2236</ele>
        <time>2019-10-06T07:36:25Z</time>
      </trkpt>
      <trkpt lat="45.74201" lon="6.8775">
        <ele>2236</ele>
        <time>2019-10-06T07:36:27Z</time>
      </trkpt>
      <trkpt lat="45.74204" lon="6.87747">
        <ele>2236</ele>
        <time>2019-10-06T07:36:29Z</time>
      </trkpt>
      <trkpt lat="45.74206" lon="6.87744">
        <ele>2237</ele>
        <time>2019-10-06T07:36:31Z</time>
      </trkpt>
      <trkpt lat="45.74207" lon="6.87741">
        <ele>2237</ele>
        <time>2019-10-06T07:36:33Z</time>
      </trkpt>
      <trkpt lat="45.74209" lon="6.87737">
        <ele>2238</ele>
        <time>2019-10-06T07:36:35Z</time>
      </trkpt>
      <trkpt lat="45.7421" lon="6.87734">
        <ele>2238</ele>
        <time>2019-10-06T07:36:37Z</time>
      </trkpt>
      <trkpt lat="45.7421" lon="6.8773">
        <ele>2238</ele>
        <time>2019-10-06T07:36:39Z</time>
      </trkpt>
      <trkpt lat="45.7421" lon="6.87725">
        <ele>2238</ele>
        <time>2019-10-06T07:36:41Z</time>
      </trkpt>
      <trkpt lat="45.74211" lon="6.87721">
        <ele>2238</ele>
        <time>2019-10-06T07:36:43Z</time>
      </trkpt>
      <trkpt lat="45.74211" lon="6.87716">
        <ele>2239</ele>
        <time>2019-10-06T07:36:45Z</time>
      </trkpt>
      <trkpt lat="45.74212" lon="6.87712">
        <ele>2239</ele>
        <time>2019-10-06T07:36:47Z</time>
      </trkpt>
      <trkpt lat="45.74213" lon="6.87708">
        <ele>2240</ele>
        <time>2019-10-06T07:36:49Z</time>
      </trkpt>
      <trkpt lat="45.74214" lon="6.87704">
        <ele>2240</ele>
        <time>2019-10-06T07:36:51Z</time>
      </trkpt>
      <trkpt lat="45.74216" lon="6.87701">
        <ele>2240</ele>
        <time>2019-10-06T07:36:53Z</time>
      </trkpt>
      <trkpt lat="45.74217" lon="6.87698">
        <ele>2240</ele>
        <time>2019-10-06T07:36:55Z</time>
      </trkpt>
      <trkpt lat="45.74219" lon="6.87695">
        <ele>2240</ele>
        <time>2019-10-06T07:36:57Z</time>
      </trkpt>
      <trkpt lat="45.74221" lon="6.87691">
        <ele>2241</ele>
        <time>2019-10-06T07:36:59Z</time>
      </trkpt>
      <trkpt lat="45.74222" lon="6.87688">
        <ele>2242</ele>
        <time>2019-10-06T07:37:01Z</time>
      </trkpt>
      <trkpt lat="45.74224" lon="6.87684">
        <ele>2243</ele>
        <time>2019-10-06T07:37:03Z</time>
      </trkpt>
      <trkpt lat="45.74226" lon="6.87681">
        <ele>2243</ele>
        <time>2019-10-06T07:37:05Z</time>
      </trkpt>
      <trkpt lat="45.74227" lon="6.87677">
        <ele>2243</ele>
        <time>2019-10-06T07:37:07Z</time>
      </trkpt>
      <trkpt lat="45.74229" lon="6.87673">
        <ele>2243</ele>
        <time>2019-10-06T07:37:09Z</time>
      </trkpt>
      <trkpt lat="45.74231" lon="6.8767">
        <ele>2243</ele>
        <time>2019-10-06T07:37:11Z</time>
      </trkpt>
      <trkpt lat="45.74232" lon="6.87667">
        <ele>2245</ele>
        <time>2019-10-06T07:37:13Z</time>
      </trkpt>
      <trkpt lat="45.74234" lon="6.87664">
        <ele>2245</ele>
        <time>2019-10-06T07:37:15Z</time>
      </trkpt>
      <trkpt lat="45.74236" lon="6.8766">
        <ele>2246</ele>
        <time>2019-10-06T07:37:17Z</time>
      </trkpt>
      <trkpt lat="45.74237" lon="6.87657">
        <ele>2246</ele>
        <time>2019-10-06T07:37:19Z</time>
      </trkpt>
      <trkpt lat="45.74239" lon="6.87653">
        <ele>2248</ele>
        <time>2019-10-06T07:37:21Z</time>
      </trkpt>
      <trkpt lat="45.74241" lon="6.8765">
        <ele>2248</ele>
        <time>2019-10-06T07:37:23Z</time>
      </trkpt>
      <trkpt lat="45.74244" lon="6.87647">
        <ele>2248</ele>
        <time>2019-10-06T07:37:25Z</time>
      </trkpt>
      <trkpt lat="45.74246" lon="6.87644">
        <ele>2249</ele>
        <time>2019-10-06T07:37:27Z</time>
      </trkpt>
      <trkpt lat="45.74248" lon="6.87642">
        <ele>2249</ele>
        <time>2019-10-06T07:37:29Z</time>
      </trkpt>
      <trkpt lat="45.74251" lon="6.87639">
        <ele>2249</ele>
        <time>2019-10-06T07:37:31Z</time>
      </trkpt>
      <trkpt lat="45.74253" lon="6.87637">
        <ele>2250</ele>
        <time>2019-10-06T07:37:33Z</time>
      </trkpt>
      <trkpt lat="45.74256" lon="6.87635">
        <ele>2250</ele>
        <time>2019-10-06T07:37:35Z</time>
      </trkpt>
      <trkpt lat="45.74259" lon="6.87633">
        <ele>2250</ele>
        <time>2019-10-06T07:37:37Z</time>
      </trkpt>
      <trkpt lat="45.74261" lon="6.87631">
        <ele>2250</ele>
        <time>2019-10-06T07:37:39Z</time>
      </trkpt>
      <trkpt lat="45.74263" lon="6.87628">
        <ele>2250</ele>
        <time>2019-10-06T07:37:41Z</time>
      </trkpt>
      <trkpt lat="45.74266" lon="6.87625">
        <ele>2250</ele>
        <time>2019-10-06T07:37:43Z</time>
      </trkpt>
      <trkpt lat="45.74267" lon="6.8762">
        <ele>2252</ele>
        <time>2019-10-06T07:37:45Z</time>
      </trkpt>
      <trkpt lat="45.74267" lon="6.87617">
        <ele>2252</ele>
        <time>2019-10-06T07:37:46Z</time>
      </trkpt>
      <trkpt lat="45.74268" lon="6.87614">
        <ele>2252</ele>
        <time>2019-10-06T07:37:47Z</time>
      </trkpt>
      <trkpt lat="45.74267" lon="6.87611">
        <ele>2252</ele>
        <time>2019-10-06T07:37:48Z</time>
      </trkpt>
      <trkpt lat="45.74267" lon="6.87607">
        <ele>2252</ele>
        <time>2019-10-06T07:37:49Z</time>
      </trkpt>
      <trkpt lat="45.74266" lon="6.87604">
        <ele>2252</ele>
        <time>2019-10-06T07:37:50Z</time>
      </trkpt>
      <trkpt lat="45.74264" lon="6.87602">
        <ele>2252</ele>
        <time>2019-10-06T07:37:51Z</time>
      </trkpt>
      <trkpt lat="45.74263" lon="6.87599">
        <ele>2252</ele>
        <time>2019-10-06T07:37:52Z</time>
      </trkpt>
      <trkpt lat="45.74261" lon="6.87597">
        <ele>2252</ele>
        <time>2019-10-06T07:37:53Z</time>
      </trkpt>
      <trkpt lat="45.7426" lon="6.87595">
        <ele>2252</ele>
        <time>2019-10-06T07:37:54Z</time>
      </trkpt>
      <trkpt lat="45.74258" lon="6.87592">
        <ele>2252</ele>
        <time>2019-10-06T07:37:55Z</time>
      </trkpt>
      <trkpt lat="45.74257" lon="6.8759">
        <ele>2253</ele>
        <time>2019-10-06T07:37:56Z</time>
      </trkpt>
      <trkpt lat="45.74255" lon="6.87587">
        <ele>2253</ele>
        <time>2019-10-06T07:37:57Z</time>
      </trkpt>
      <trkpt lat="45.74254" lon="6.87584">
        <ele>2253</ele>
        <time>2019-10-06T07:37:58Z</time>
      </trkpt>
      <trkpt lat="45.74253" lon="6.87581">
        <ele>2254</ele>
        <time>2019-10-06T07:37:59Z</time>
      </trkpt>
      <trkpt lat="45.74252" lon="6.87578">
        <ele>2254</ele>
        <time>2019-10-06T07:38:00Z</time>
      </trkpt>
      <trkpt lat="45.74252" lon="6.87575">
        <ele>2254</ele>
        <time>2019-10-06T07:38:01Z</time>
      </trkpt>
      <trkpt lat="45.74251" lon="6.87572">
        <ele>2254</ele>
        <time>2019-10-06T07:38:02Z</time>
      </trkpt>
      <trkpt lat="45.74251" lon="6.87569">
        <ele>2254</ele>
        <time>2019-10-06T07:38:03Z</time>
      </trkpt>
      <trkpt lat="45.74251" lon="6.87567">
        <ele>2254</ele>
        <time>2019-10-06T07:38:04Z</time>
      </trkpt>
      <trkpt lat="45.7425" lon="6.87564">
        <ele>2255</ele>
        <time>2019-10-06T07:38:05Z</time>
      </trkpt>
      <trkpt lat="45.74251" lon="6.87561">
        <ele>2255</ele>
        <time>2019-10-06T07:38:06Z</time>
      </trkpt>
      <trkpt lat="45.74251" lon="6.87557">
        <ele>2255</ele>
        <time>2019-10-06T07:38:08Z</time>
      </trkpt>
      <trkpt lat="45.74252" lon="6.87552">
        <ele>2256</ele>
        <time>2019-10-06T07:38:10Z</time>
      </trkpt>
      <trkpt lat="45.74252" lon="6.87548">
        <ele>2256</ele>
        <time>2019-10-06T07:38:12Z</time>
      </trkpt>
      <trkpt lat="45.74253" lon="6.87545">
        <ele>2256</ele>
        <time>2019-10-06T07:38:14Z</time>
      </trkpt>
      <trkpt lat="45.74254" lon="6.87541">
        <ele>2257</ele>
        <time>2019-10-06T07:38:16Z</time>
      </trkpt>
      <trkpt lat="45.74255" lon="6.87537">
        <ele>2256</ele>
        <time>2019-10-06T07:38:18Z</time>
      </trkpt>
      <trkpt lat="45.74255" lon="6.87533">
        <ele>2256</ele>
        <time>2019-10-06T07:38:20Z</time>
      </trkpt>
      <trkpt lat="45.74256" lon="6.87529">
        <ele>2256</ele>
        <time>2019-10-06T07:38:22Z</time>
      </trkpt>
      <trkpt lat="45.74256" lon="6.87526">
        <ele>2257</ele>
        <time>2019-10-06T07:38:24Z</time>
      </trkpt>
      <trkpt lat="45.74257" lon="6.87522">
        <ele>2257</ele>
        <time>2019-10-06T07:38:26Z</time>
      </trkpt>
      <trkpt lat="45.74257" lon="6.87518">
        <ele>2258</ele>
        <time>2019-10-06T07:38:28Z</time>
      </trkpt>
      <trkpt lat="45.74257" lon="6.87514">
        <ele>2258</ele>
        <time>2019-10-06T07:38:30Z</time>
      </trkpt>
      <trkpt lat="45.74258" lon="6.8751">
        <ele>2259</ele>
        <time>2019-10-06T07:38:32Z</time>
      </trkpt>
      <trkpt lat="45.74258" lon="6.87506">
        <ele>2259</ele>
        <time>2019-10-06T07:38:34Z</time>
      </trkpt>
      <trkpt lat="45.74259" lon="6.87503">
        <ele>2260</ele>
        <time>2019-10-06T07:38:36Z</time>
      </trkpt>
      <trkpt lat="45.74259" lon="6.87499">
        <ele>2260</ele>
        <time>2019-10-06T07:38:38Z</time>
      </trkpt>
      <trkpt lat="45.7426" lon="6.87495">
        <ele>2261</ele>
        <time>2019-10-06T07:38:40Z</time>
      </trkpt>
      <trkpt lat="45.74261" lon="6.87491">
        <ele>2261</ele>
        <time>2019-10-06T07:38:42Z</time>
      </trkpt>
      <trkpt lat="45.74261" lon="6.87488">
        <ele>2261</ele>
        <time>2019-10-06T07:38:44Z</time>
      </trkpt>
      <trkpt lat="45.74262" lon="6.87483">
        <ele>2261</ele>
        <time>2019-10-06T07:38:46Z</time>
      </trkpt>
      <trkpt lat="45.74262" lon="6.87479">
        <ele>2261</ele>
        <time>2019-10-06T07:38:48Z</time>
      </trkpt>
      <trkpt lat="45.74263" lon="6.87475">
        <ele>2261</ele>
        <time>2019-10-06T07:38:50Z</time>
      </trkpt>
      <trkpt lat="45.74264" lon="6.87471">
        <ele>2262</ele>
        <time>2019-10-06T07:38:52Z</time>
      </trkpt>
      <trkpt lat="45.74265" lon="6.87468">
        <ele>2262</ele>
        <time>2019-10-06T07:38:54Z</time>
      </trkpt>
      <trkpt lat="45.74266" lon="6.87464">
        <ele>2262</ele>
        <time>2019-10-06T07:38:56Z</time>
      </trkpt>
      <trkpt lat="45.74267" lon="6.8746">
        <ele>2263</ele>
        <time>2019-10-06T07:38:58Z</time>
      </trkpt>
      <trkpt lat="45.74269" lon="6.87456">
        <ele>2263</ele>
        <time>2019-10-06T07:39:00Z</time>
      </trkpt>
      <trkpt lat="45.7427" lon="6.87453">
        <ele>2264</ele>
        <time>2019-10-06T07:39:02Z</time>
      </trkpt>
      <trkpt lat="45.74271" lon="6.87449">
        <ele>2264</ele>
        <time>2019-10-06T07:39:04Z</time>
      </trkpt>
      <trkpt lat="45.74272" lon="6.87445">
        <ele>2264</ele>
        <time>2019-10-06T07:39:06Z</time>
      </trkpt>
      <trkpt lat="45.74273" lon="6.87441">
        <ele>2265</ele>
        <time>2019-10-06T07:39:08Z</time>
      </trkpt>
      <trkpt lat="45.74273" lon="6.87438">
        <ele>2265</ele>
        <time>2019-10-06T07:39:10Z</time>
      </trkpt>
      <trkpt lat="45.74274" lon="6.87434">
        <ele>2265</ele>
        <time>2019-10-06T07:39:12Z</time>
      </trkpt>
      <trkpt lat="45.74275" lon="6.8743">
        <ele>2266</ele>
        <time>2019-10-06T07:39:14Z</time>
      </trkpt>
      <trkpt lat="45.74275" lon="6.87426">
        <ele>2266</ele>
        <time>2019-10-06T07:39:16Z</time>
      </trkpt>
      <trkpt lat="45.74276" lon="6.87422">
        <ele>2266</ele>
        <time>2019-10-06T07:39:18Z</time>
      </trkpt>
      <trkpt lat="45.74277" lon="6.87418">
        <ele>2267</ele>
        <time>2019-10-06T07:39:20Z</time>
      </trkpt>
      <trkpt lat="45.74278" lon="6.87414">
        <ele>2267</ele>
        <time>2019-10-06T07:39:22Z</time>
      </trkpt>
      <trkpt lat="45.7428" lon="6.87411">
        <ele>2268</ele>
        <time>2019-10-06T07:39:24Z</time>
      </trkpt>
      <trkpt lat="45.74281" lon="6.87408">
        <ele>2268</ele>
        <time>2019-10-06T07:39:26Z</time>
      </trkpt>
      <trkpt lat="45.74283" lon="6.87405">
        <ele>2269</ele>
        <time>2019-10-06T07:39:28Z</time>
      </trkpt>
      <trkpt lat="45.74285" lon="6.87402">
        <ele>2270</ele>
        <time>2019-10-06T07:39:30Z</time>
      </trkpt>
      <trkpt lat="45.74287" lon="6.87399">
        <ele>2270</ele>
        <time>2019-10-06T07:39:32Z</time>
      </trkpt>
      <trkpt lat="45.74289" lon="6.87396">
        <ele>2270</ele>
        <time>2019-10-06T07:39:34Z</time>
      </trkpt>
      <trkpt lat="45.7429" lon="6.87393">
        <ele>2270</ele>
        <time>2019-10-06T07:39:36Z</time>
      </trkpt>
      <trkpt lat="45.74292" lon="6.8739">
        <ele>2270</ele>
        <time>2019-10-06T07:39:38Z</time>
      </trkpt>
      <trkpt lat="45.74294" lon="6.87386">
        <ele>2271</ele>
        <time>2019-10-06T07:39:40Z</time>
      </trkpt>
      <trkpt lat="45.74295" lon="6.87383">
        <ele>2272</ele>
        <time>2019-10-06T07:39:42Z</time>
      </trkpt>
      <trkpt lat="45.74296" lon="6.87379">
        <ele>2274</ele>
        <time>2019-10-06T07:39:44Z</time>
      </trkpt>
      <trkpt lat="45.74297" lon="6.87376">
        <ele>2274</ele>
        <time>2019-10-06T07:39:46Z</time>
      </trkpt>
      <trkpt lat="45.74299" lon="6.87372">
        <ele>2274</ele>
        <time>2019-10-06T07:39:48Z</time>
      </trkpt>
      <trkpt lat="45.743" lon="6.87368">
        <ele>2275</ele>
        <time>2019-10-06T07:39:50Z</time>
      </trkpt>
      <trkpt lat="45.74301" lon="6.87364">
        <ele>2275</ele>
        <time>2019-10-06T07:39:52Z</time>
      </trkpt>
      <trkpt lat="45.74302" lon="6.87361">
        <ele>2275</ele>
        <time>2019-10-06T07:39:54Z</time>
      </trkpt>
      <trkpt lat="45.74304" lon="6.87357">
        <ele>2275</ele>
        <time>2019-10-06T07:39:56Z</time>
      </trkpt>
      <trkpt lat="45.74305" lon="6.87352">
        <ele>2276</ele>
        <time>2019-10-06T07:39:58Z</time>
      </trkpt>
      <trkpt lat="45.74306" lon="6.87349">
        <ele>2276</ele>
        <time>2019-10-06T07:40:00Z</time>
      </trkpt>
      <trkpt lat="45.74308" lon="6.87345">
        <ele>2277</ele>
        <time>2019-10-06T07:40:02Z</time>
      </trkpt>
      <trkpt lat="45.74309" lon="6.87342">
        <ele>2277</ele>
        <time>2019-10-06T07:40:04Z</time>
      </trkpt>
      <trkpt lat="45.74311" lon="6.87339">
        <ele>2277</ele>
        <time>2019-10-06T07:40:06Z</time>
      </trkpt>
      <trkpt lat="45.74312" lon="6.87335">
        <ele>2277</ele>
        <time>2019-10-06T07:40:08Z</time>
      </trkpt>
      <trkpt lat="45.74314" lon="6.87332">
        <ele>2278</ele>
        <time>2019-10-06T07:40:10Z</time>
      </trkpt>
      <trkpt lat="45.74315" lon="6.8733">
        <ele>2278</ele>
        <time>2019-10-06T07:40:12Z</time>
      </trkpt>
      <trkpt lat="45.74317" lon="6.87326">
        <ele>2278</ele>
        <time>2019-10-06T07:40:14Z</time>
      </trkpt>
      <trkpt lat="45.74319" lon="6.87323">
        <ele>2279</ele>
        <time>2019-10-06T07:40:16Z</time>
      </trkpt>
      <trkpt lat="45.74321" lon="6.87321">
        <ele>2280</ele>
        <time>2019-10-06T07:40:18Z</time>
      </trkpt>
      <trkpt lat="45.74322" lon="6.87318">
        <ele>2280</ele>
        <time>2019-10-06T07:40:20Z</time>
      </trkpt>
      <trkpt lat="45.74324" lon="6.87314">
        <ele>2280</ele>
        <time>2019-10-06T07:40:22Z</time>
      </trkpt>
      <trkpt lat="45.74326" lon="6.87311">
        <ele>2280</ele>
        <time>2019-10-06T07:40:24Z</time>
      </trkpt>
      <trkpt lat="45.74328" lon="6.87308">
        <ele>2280</ele>
        <time>2019-10-06T07:40:26Z</time>
      </trkpt>
      <trkpt lat="45.74329" lon="6.87304">
        <ele>2280</ele>
        <time>2019-10-06T07:40:28Z</time>
      </trkpt>
      <trkpt lat="45.74331" lon="6.87301">
        <ele>2281</ele>
        <time>2019-10-06T07:40:30Z</time>
      </trkpt>
      <trkpt lat="45.74332" lon="6.87298">
        <ele>2282</ele>
        <time>2019-10-06T07:40:32Z</time>
      </trkpt>
      <trkpt lat="45.74333" lon="6.87294">
        <ele>2283</ele>
        <time>2019-10-06T07:40:34Z</time>
      </trkpt>
      <trkpt lat="45.74334" lon="6.8729">
        <ele>2283</ele>
        <time>2019-10-06T07:40:36Z</time>
      </trkpt>
      <trkpt lat="45.74335" lon="6.87286">
        <ele>2283</ele>
        <time>2019-10-06T07:40:38Z</time>
      </trkpt>
      <trkpt lat="45.74336" lon="6.87282">
        <ele>2283</ele>
        <time>2019-10-06T07:40:40Z</time>
      </trkpt>
      <trkpt lat="45.74337" lon="6.87278">
        <ele>2283</ele>
        <time>2019-10-06T07:40:42Z</time>
      </trkpt>
      <trkpt lat="45.74337" lon="6.87274">
        <ele>2284</ele>
        <time>2019-10-06T07:40:44Z</time>
      </trkpt>
      <trkpt lat="45.74338" lon="6.87271">
        <ele>2284</ele>
        <time>2019-10-06T07:40:46Z</time>
      </trkpt>
      <trkpt lat="45.74338" lon="6.87267">
        <ele>2284</ele>
        <time>2019-10-06T07:40:48Z</time>
      </trkpt>
      <trkpt lat="45.74338" lon="6.87263">
        <ele>2285</ele>
        <time>2019-10-06T07:40:50Z</time>
      </trkpt>
      <trkpt lat="45.74339" lon="6.87259">
        <ele>2285</ele>
        <time>2019-10-06T07:40:52Z</time>
      </trkpt>
      <trkpt lat="45.74339" lon="6.87255">
        <ele>2286</ele>
        <time>2019-10-06T07:40:54Z</time>
      </trkpt>
      <trkpt lat="45.7434" lon="6.87251">
        <ele>2286</ele>
        <time>2019-10-06T07:40:56Z</time>
      </trkpt>
      <trkpt lat="45.74341" lon="6.87247">
        <ele>2286</ele>
        <time>2019-10-06T07:40:58Z</time>
      </trkpt>
      <trkpt lat="45.74342" lon="6.87243">
        <ele>2286</ele>
        <time>2019-10-06T07:41:00Z</time>
      </trkpt>
      <trkpt lat="45.74343" lon="6.87239">
        <ele>2286</ele>
        <time>2019-10-06T07:41:02Z</time>
      </trkpt>
      <trkpt lat="45.74344" lon="6.87235">
        <ele>2286</ele>
        <time>2019-10-06T07:41:04Z</time>
      </trkpt>
      <trkpt lat="45.74345" lon="6.87231">
        <ele>2287</ele>
        <time>2019-10-06T07:41:06Z</time>
      </trkpt>
      <trkpt lat="45.74346" lon="6.87227">
        <ele>2287</ele>
        <time>2019-10-06T07:41:08Z</time>
      </trkpt>
      <trkpt lat="45.74347" lon="6.87223">
        <ele>2287</ele>
        <time>2019-10-06T07:41:10Z</time>
      </trkpt>
      <trkpt lat="45.74348" lon="6.87219">
        <ele>2287</ele>
        <time>2019-10-06T07:41:12Z</time>
      </trkpt>
      <trkpt lat="45.74349" lon="6.87216">
        <ele>2288</ele>
        <time>2019-10-06T07:41:14Z</time>
      </trkpt>
      <trkpt lat="45.7435" lon="6.87212">
        <ele>2288</ele>
        <time>2019-10-06T07:41:16Z</time>
      </trkpt>
      <trkpt lat="45.74351" lon="6.87208">
        <ele>2289</ele>
        <time>2019-10-06T07:41:18Z</time>
      </trkpt>
      <trkpt lat="45.74351" lon="6.87205">
        <ele>2289</ele>
        <time>2019-10-06T07:41:20Z</time>
      </trkpt>
      <trkpt lat="45.74352" lon="6.87201">
        <ele>2289</ele>
        <time>2019-10-06T07:41:22Z</time>
      </trkpt>
      <trkpt lat="45.74353" lon="6.87197">
        <ele>2290</ele>
        <time>2019-10-06T07:41:24Z</time>
      </trkpt>
      <trkpt lat="45.74353" lon="6.87193">
        <ele>2290</ele>
        <time>2019-10-06T07:41:26Z</time>
      </trkpt>
      <trkpt lat="45.74353" lon="6.87189">
        <ele>2290</ele>
        <time>2019-10-06T07:41:28Z</time>
      </trkpt>
      <trkpt lat="45.74354" lon="6.87186">
        <ele>2291</ele>
        <time>2019-10-06T07:41:30Z</time>
      </trkpt>
      <trkpt lat="45.74354" lon="6.87182">
        <ele>2291</ele>
        <time>2019-10-06T07:41:32Z</time>
      </trkpt>
      <trkpt lat="45.74355" lon="6.87178">
        <ele>2291</ele>
        <time>2019-10-06T07:41:34Z</time>
      </trkpt>
      <trkpt lat="45.74357" lon="6.87175">
        <ele>2292</ele>
        <time>2019-10-06T07:41:36Z</time>
      </trkpt>
      <trkpt lat="45.74358" lon="6.87171">
        <ele>2292</ele>
        <time>2019-10-06T07:41:38Z</time>
      </trkpt>
      <trkpt lat="45.7436" lon="6.87169">
        <ele>2292</ele>
        <time>2019-10-06T07:41:40Z</time>
      </trkpt>
      <trkpt lat="45.74362" lon="6.87166">
        <ele>2293</ele>
        <time>2019-10-06T07:41:42Z</time>
      </trkpt>
      <trkpt lat="45.74364" lon="6.87164">
        <ele>2293</ele>
        <time>2019-10-06T07:41:44Z</time>
      </trkpt>
      <trkpt lat="45.74366" lon="6.87162">
        <ele>2293</ele>
        <time>2019-10-06T07:41:46Z</time>
      </trkpt>
      <trkpt lat="45.74368" lon="6.87161">
        <ele>2293</ele>
        <time>2019-10-06T07:41:48Z</time>
      </trkpt>
      <trkpt lat="45.74371" lon="6.87159">
        <ele>2294</ele>
        <time>2019-10-06T07:41:50Z</time>
      </trkpt>
      <trkpt lat="45.74373" lon="6.87157">
        <ele>2295</ele>
        <time>2019-10-06T07:41:52Z</time>
      </trkpt>
      <trkpt lat="45.74375" lon="6.87155">
        <ele>2295</ele>
        <time>2019-10-06T07:41:54Z</time>
      </trkpt>
      <trkpt lat="45.74377" lon="6.87153">
        <ele>2295</ele>
        <time>2019-10-06T07:41:56Z</time>
      </trkpt>
      <trkpt lat="45.7438" lon="6.87151">
        <ele>2296</ele>
        <time>2019-10-06T07:41:58Z</time>
      </trkpt>
      <trkpt lat="45.74382" lon="6.87149">
        <ele>2296</ele>
        <time>2019-10-06T07:42:00Z</time>
      </trkpt>
      <trkpt lat="45.74384" lon="6.87147">
        <ele>2296</ele>
        <time>2019-10-06T07:42:02Z</time>
      </trkpt>
      <trkpt lat="45.74387" lon="6.87145">
        <ele>2296</ele>
        <time>2019-10-06T07:42:04Z</time>
      </trkpt>
      <trkpt lat="45.74389" lon="6.87142">
        <ele>2297</ele>
        <time>2019-10-06T07:42:06Z</time>
      </trkpt>
      <trkpt lat="45.74391" lon="6.87139">
        <ele>2297</ele>
        <time>2019-10-06T07:42:08Z</time>
      </trkpt>
      <trkpt lat="45.74393" lon="6.87136">
        <ele>2297</ele>
        <time>2019-10-06T07:42:10Z</time>
      </trkpt>
      <trkpt lat="45.74394" lon="6.87132">
        <ele>2297</ele>
        <time>2019-10-06T07:42:12Z</time>
      </trkpt>
      <trkpt lat="45.74396" lon="6.87128">
        <ele>2297</ele>
        <time>2019-10-06T07:42:14Z</time>
      </trkpt>
      <trkpt lat="45.74397" lon="6.87124">
        <ele>2298</ele>
        <time>2019-10-06T07:42:16Z</time>
      </trkpt>
      <trkpt lat="45.74398" lon="6.87121">
        <ele>2298</ele>
        <time>2019-10-06T07:42:18Z</time>
      </trkpt>
      <trkpt lat="45.74399" lon="6.87118">
        <ele>2300</ele>
        <time>2019-10-06T07:42:20Z</time>
      </trkpt>
      <trkpt lat="45.74401" lon="6.87114">
        <ele>2300</ele>
        <time>2019-10-06T07:42:22Z</time>
      </trkpt>
      <trkpt lat="45.74403" lon="6.8711">
        <ele>2300</ele>
        <time>2019-10-06T07:42:24Z</time>
      </trkpt>
      <trkpt lat="45.74404" lon="6.87106">
        <ele>2301</ele>
        <time>2019-10-06T07:42:26Z</time>
      </trkpt>
      <trkpt lat="45.74405" lon="6.87102">
        <ele>2301</ele>
        <time>2019-10-06T07:42:28Z</time>
      </trkpt>
      <trkpt lat="45.74406" lon="6.87099">
        <ele>2301</ele>
        <time>2019-10-06T07:42:30Z</time>
      </trkpt>
      <trkpt lat="45.74408" lon="6.87095">
        <ele>2301</ele>
        <time>2019-10-06T07:42:32Z</time>
      </trkpt>
      <trkpt lat="45.74409" lon="6.87092">
        <ele>2302</ele>
        <time>2019-10-06T07:42:34Z</time>
      </trkpt>
      <trkpt lat="45.7441" lon="6.87088">
        <ele>2303</ele>
        <time>2019-10-06T07:42:36Z</time>
      </trkpt>
      <trkpt lat="45.74411" lon="6.87084">
        <ele>2303</ele>
        <time>2019-10-06T07:42:38Z</time>
      </trkpt>
      <trkpt lat="45.74412" lon="6.8708">
        <ele>2303</ele>
        <time>2019-10-06T07:42:40Z</time>
      </trkpt>
      <trkpt lat="45.74413" lon="6.87076">
        <ele>2303</ele>
        <time>2019-10-06T07:42:42Z</time>
      </trkpt>
      <trkpt lat="45.74414" lon="6.87073">
        <ele>2304</ele>
        <time>2019-10-06T07:42:44Z</time>
      </trkpt>
      <trkpt lat="45.74415" lon="6.8707">
        <ele>2304</ele>
        <time>2019-10-06T07:42:46Z</time>
      </trkpt>
      <trkpt lat="45.74416" lon="6.87066">
        <ele>2304</ele>
        <time>2019-10-06T07:42:48Z</time>
      </trkpt>
      <trkpt lat="45.74418" lon="6.87062">
        <ele>2304</ele>
        <time>2019-10-06T07:42:50Z</time>
      </trkpt>
      <trkpt lat="45.7442" lon="6.87059">
        <ele>2305</ele>
        <time>2019-10-06T07:42:52Z</time>
      </trkpt>
      <trkpt lat="45.74421" lon="6.87056">
        <ele>2305</ele>
        <time>2019-10-06T07:42:54Z</time>
      </trkpt>
      <trkpt lat="45.74423" lon="6.87054">
        <ele>2305</ele>
        <time>2019-10-06T07:42:56Z</time>
      </trkpt>
      <trkpt lat="45.74426" lon="6.87051">
        <ele>2306</ele>
        <time>2019-10-06T07:42:58Z</time>
      </trkpt>
      <trkpt lat="45.74428" lon="6.87048">
        <ele>2306</ele>
        <time>2019-10-06T07:43:00Z</time>
      </trkpt>
      <trkpt lat="45.74429" lon="6.87046">
        <ele>2306</ele>
        <time>2019-10-06T07:43:02Z</time>
      </trkpt>
      <trkpt lat="45.74431" lon="6.87042">
        <ele>2306</ele>
        <time>2019-10-06T07:43:04Z</time>
      </trkpt>
      <trkpt lat="45.74432" lon="6.87039">
        <ele>2307</ele>
        <time>2019-10-06T07:43:06Z</time>
      </trkpt>
      <trkpt lat="45.74433" lon="6.87035">
        <ele>2307</ele>
        <time>2019-10-06T07:43:08Z</time>
      </trkpt>
      <trkpt lat="45.74435" lon="6.87032">
        <ele>2307</ele>
        <time>2019-10-06T07:43:10Z</time>
      </trkpt>
      <trkpt lat="45.74436" lon="6.87028">
        <ele>2308</ele>
        <time>2019-10-06T07:43:12Z</time>
      </trkpt>
      <trkpt lat="45.74437" lon="6.87024">
        <ele>2308</ele>
        <time>2019-10-06T07:43:14Z</time>
      </trkpt>
      <trkpt lat="45.74439" lon="6.87021">
        <ele>2308</ele>
        <time>2019-10-06T07:43:16Z</time>
      </trkpt>
      <trkpt lat="45.7444" lon="6.87017">
        <ele>2308</ele>
        <time>2019-10-06T07:43:18Z</time>
      </trkpt>
      <trkpt lat="45.74441" lon="6.87014">
        <ele>2308</ele>
        <time>2019-10-06T07:43:20Z</time>
      </trkpt>
      <trkpt lat="45.74443" lon="6.87011">
        <ele>2309</ele>
        <time>2019-10-06T07:43:22Z</time>
      </trkpt>
      <trkpt lat="45.74445" lon="6.87008">
        <ele>2309</ele>
        <time>2019-10-06T07:43:24Z</time>
      </trkpt>
      <trkpt lat="45.74447" lon="6.87005">
        <ele>2310</ele>
        <time>2019-10-06T07:43:26Z</time>
      </trkpt>
      <trkpt lat="45.7445" lon="6.87002">
        <ele>2310</ele>
        <time>2019-10-06T07:43:28Z</time>
      </trkpt>
      <trkpt lat="45.74452" lon="6.87">
        <ele>2310</ele>
        <time>2019-10-06T07:43:30Z</time>
      </trkpt>
      <trkpt lat="45.74454" lon="6.86997">
        <ele>2311</ele>
        <time>2019-10-06T07:43:32Z</time>
      </trkpt>
      <trkpt lat="45.74456" lon="6.86994">
        <ele>2311</ele>
        <time>2019-10-06T07:43:34Z</time>
      </trkpt>
      <trkpt lat="45.74457" lon="6.86991">
        <ele>2311</ele>
        <time>2019-10-06T07:43:36Z</time>
      </trkpt>
      <trkpt lat="45.74459" lon="6.86987">
        <ele>2311</ele>
        <time>2019-10-06T07:43:38Z</time>
      </trkpt>
      <trkpt lat="45.74461" lon="6.86984">
        <ele>2311</ele>
        <time>2019-10-06T07:43:40Z</time>
      </trkpt>
      <trkpt lat="45.74463" lon="6.8698">
        <ele>2312</ele>
        <time>2019-10-06T07:43:42Z</time>
      </trkpt>
      <trkpt lat="45.74464" lon="6.86977">
        <ele>2312</ele>
        <time>2019-10-06T07:43:44Z</time>
      </trkpt>
      <trkpt lat="45.74465" lon="6.86973">
        <ele>2313</ele>
        <time>2019-10-06T07:43:46Z</time>
      </trkpt>
      <trkpt lat="45.74466" lon="6.86969">
        <ele>2314</ele>
        <time>2019-10-06T07:43:48Z</time>
      </trkpt>
      <trkpt lat="45.74467" lon="6.86965">
        <ele>2314</ele>
        <time>2019-10-06T07:43:50Z</time>
      </trkpt>
      <trkpt lat="45.74468" lon="6.86962">
        <ele>2314</ele>
        <time>2019-10-06T07:43:52Z</time>
      </trkpt>
      <trkpt lat="45.74468" lon="6.86958">
        <ele>2314</ele>
        <time>2019-10-06T07:43:54Z</time>
      </trkpt>
      <trkpt lat="45.74468" lon="6.86954">
        <ele>2314</ele>
        <time>2019-10-06T07:43:56Z</time>
      </trkpt>
      <trkpt lat="45.74469" lon="6.86949">
        <ele>2314</ele>
        <time>2019-10-06T07:43:58Z</time>
      </trkpt>
      <trkpt lat="45.74469" lon="6.86945">
        <ele>2315</ele>
        <time>2019-10-06T07:44:00Z</time>
      </trkpt>
      <trkpt lat="45.7447" lon="6.8694">
        <ele>2316</ele>
        <time>2019-10-06T07:44:02Z</time>
      </trkpt>
      <trkpt lat="45.7447" lon="6.86936">
        <ele>2316</ele>
        <time>2019-10-06T07:44:04Z</time>
      </trkpt>
      <trkpt lat="45.7447" lon="6.86932">
        <ele>2316</ele>
        <time>2019-10-06T07:44:06Z</time>
      </trkpt>
      <trkpt lat="45.74471" lon="6.86929">
        <ele>2316</ele>
        <time>2019-10-06T07:44:08Z</time>
      </trkpt>
      <trkpt lat="45.74473" lon="6.86926">
        <ele>2316</ele>
        <time>2019-10-06T07:44:10Z</time>
      </trkpt>
      <trkpt lat="45.74474" lon="6.86923">
        <ele>2317</ele>
        <time>2019-10-06T07:44:12Z</time>
      </trkpt>
      <trkpt lat="45.74476" lon="6.8692">
        <ele>2317</ele>
        <time>2019-10-06T07:44:14Z</time>
      </trkpt>
      <trkpt lat="45.74478" lon="6.86918">
        <ele>2318</ele>
        <time>2019-10-06T07:44:16Z</time>
      </trkpt>
      <trkpt lat="45.7448" lon="6.86916">
        <ele>2318</ele>
        <time>2019-10-06T07:44:18Z</time>
      </trkpt>
      <trkpt lat="45.74482" lon="6.86914">
        <ele>2318</ele>
        <time>2019-10-06T07:44:20Z</time>
      </trkpt>
      <trkpt lat="45.74484" lon="6.86911">
        <ele>2318</ele>
        <time>2019-10-06T07:44:22Z</time>
      </trkpt>
      <trkpt lat="45.74485" lon="6.86908">
        <ele>2319</ele>
        <time>2019-10-06T07:44:24Z</time>
      </trkpt>
      <trkpt lat="45.74486" lon="6.86904">
        <ele>2319</ele>
        <time>2019-10-06T07:44:26Z</time>
      </trkpt>
      <trkpt lat="45.74488" lon="6.869">
        <ele>2320</ele>
        <time>2019-10-06T07:44:28Z</time>
      </trkpt>
      <trkpt lat="45.74489" lon="6.86896">
        <ele>2320</ele>
        <time>2019-10-06T07:44:30Z</time>
      </trkpt>
      <trkpt lat="45.74491" lon="6.86893">
        <ele>2320</ele>
        <time>2019-10-06T07:44:32Z</time>
      </trkpt>
      <trkpt lat="45.74492" lon="6.86889">
        <ele>2320</ele>
        <time>2019-10-06T07:44:34Z</time>
      </trkpt>
      <trkpt lat="45.74493" lon="6.86885">
        <ele>2320</ele>
        <time>2019-10-06T07:44:36Z</time>
      </trkpt>
      <trkpt lat="45.74495" lon="6.86882">
        <ele>2321</ele>
        <time>2019-10-06T07:44:38Z</time>
      </trkpt>
      <trkpt lat="45.74496" lon="6.86878">
        <ele>2321</ele>
        <time>2019-10-06T07:44:40Z</time>
      </trkpt>
      <trkpt lat="45.74497" lon="6.86874">
        <ele>2322</ele>
        <time>2019-10-06T07:44:42Z</time>
      </trkpt>
      <trkpt lat="45.74498" lon="6.86871">
        <ele>2322</ele>
        <time>2019-10-06T07:44:44Z</time>
      </trkpt>
      <trkpt lat="45.74499" lon="6.86867">
        <ele>2322</ele>
        <time>2019-10-06T07:44:46Z</time>
      </trkpt>
      <trkpt lat="45.74501" lon="6.86864">
        <ele>2323</ele>
        <time>2019-10-06T07:44:48Z</time>
      </trkpt>
      <trkpt lat="45.74502" lon="6.86861">
        <ele>2323</ele>
        <time>2019-10-06T07:44:50Z</time>
      </trkpt>
      <trkpt lat="45.74504" lon="6.86858">
        <ele>2324</ele>
        <time>2019-10-06T07:44:52Z</time>
      </trkpt>
      <trkpt lat="45.74506" lon="6.86855">
        <ele>2324</ele>
        <time>2019-10-06T07:44:54Z</time>
      </trkpt>
      <trkpt lat="45.74508" lon="6.86853">
        <ele>2324</ele>
        <time>2019-10-06T07:44:56Z</time>
      </trkpt>
      <trkpt lat="45.7451" lon="6.8685">
        <ele>2324</ele>
        <time>2019-10-06T07:44:58Z</time>
      </trkpt>
      <trkpt lat="45.74512" lon="6.86847">
        <ele>2326</ele>
        <time>2019-10-06T07:45:00Z</time>
      </trkpt>
      <trkpt lat="45.74514" lon="6.86843">
        <ele>2326</ele>
        <time>2019-10-06T07:45:02Z</time>
      </trkpt>
      <trkpt lat="45.74515" lon="6.8684">
        <ele>2326</ele>
        <time>2019-10-06T07:45:04Z</time>
      </trkpt>
      <trkpt lat="45.74516" lon="6.86836">
        <ele>2327</ele>
        <time>2019-10-06T07:45:06Z</time>
      </trkpt>
      <trkpt lat="45.74517" lon="6.86833">
        <ele>2327</ele>
        <time>2019-10-06T07:45:08Z</time>
      </trkpt>
      <trkpt lat="45.74518" lon="6.86829">
        <ele>2328</ele>
        <time>2019-10-06T07:45:10Z</time>
      </trkpt>
      <trkpt lat="45.7452" lon="6.86825">
        <ele>2328</ele>
        <time>2019-10-06T07:45:12Z</time>
      </trkpt>
      <trkpt lat="45.74521" lon="6.86822">
        <ele>2328</ele>
        <time>2019-10-06T07:45:14Z</time>
      </trkpt>
      <trkpt lat="45.74522" lon="6.86818">
        <ele>2329</ele>
        <time>2019-10-06T07:45:16Z</time>
      </trkpt>
      <trkpt lat="45.74523" lon="6.86814">
        <ele>2329</ele>
        <time>2019-10-06T07:45:18Z</time>
      </trkpt>
      <trkpt lat="45.74525" lon="6.8681">
        <ele>2329</ele>
        <time>2019-10-06T07:45:20Z</time>
      </trkpt>
      <trkpt lat="45.74526" lon="6.86807">
        <ele>2329</ele>
        <time>2019-10-06T07:45:22Z</time>
      </trkpt>
      <trkpt lat="45.74528" lon="6.86803">
        <ele>2330</ele>
        <time>2019-10-06T07:45:24Z</time>
      </trkpt>
      <trkpt lat="45.74529" lon="6.868">
        <ele>2330</ele>
        <time>2019-10-06T07:45:26Z</time>
      </trkpt>
      <trkpt lat="45.7453" lon="6.86796">
        <ele>2330</ele>
        <time>2019-10-06T07:45:28Z</time>
      </trkpt>
      <trkpt lat="45.74531" lon="6.86792">
        <ele>2330</ele>
        <time>2019-10-06T07:45:30Z</time>
      </trkpt>
      <trkpt lat="45.74532" lon="6.86788">
        <ele>2331</ele>
        <time>2019-10-06T07:45:32Z</time>
      </trkpt>
      <trkpt lat="45.74533" lon="6.86784">
        <ele>2332</ele>
        <time>2019-10-06T07:45:34Z</time>
      </trkpt>
      <trkpt lat="45.74534" lon="6.8678">
        <ele>2332</ele>
        <time>2019-10-06T07:45:36Z</time>
      </trkpt>
      <trkpt lat="45.74535" lon="6.86777">
        <ele>2332</ele>
        <time>2019-10-06T07:45:38Z</time>
      </trkpt>
      <trkpt lat="45.74537" lon="6.86773">
        <ele>2333</ele>
        <time>2019-10-06T07:45:40Z</time>
      </trkpt>
      <trkpt lat="45.74538" lon="6.8677">
        <ele>2333</ele>
        <time>2019-10-06T07:45:42Z</time>
      </trkpt>
      <trkpt lat="45.7454" lon="6.86766">
        <ele>2333</ele>
        <time>2019-10-06T07:45:44Z</time>
      </trkpt>
      <trkpt lat="45.74541" lon="6.86763">
        <ele>2334</ele>
        <time>2019-10-06T07:45:46Z</time>
      </trkpt>
      <trkpt lat="45.74543" lon="6.8676">
        <ele>2334</ele>
        <time>2019-10-06T07:45:48Z</time>
      </trkpt>
      <trkpt lat="45.74545" lon="6.86757">
        <ele>2334</ele>
        <time>2019-10-06T07:45:50Z</time>
      </trkpt>
      <trkpt lat="45.74547" lon="6.86754">
        <ele>2335</ele>
        <time>2019-10-06T07:45:52Z</time>
      </trkpt>
      <trkpt lat="45.74548" lon="6.86751">
        <ele>2335</ele>
        <time>2019-10-06T07:45:54Z</time>
      </trkpt>
      <trkpt lat="45.74549" lon="6.86748">
        <ele>2336</ele>
        <time>2019-10-06T07:45:56Z</time>
      </trkpt>
      <trkpt lat="45.74551" lon="6.86745">
        <ele>2336</ele>
        <time>2019-10-06T07:45:58Z</time>
      </trkpt>
      <trkpt lat="45.74552" lon="6.86741">
        <ele>2336</ele>
        <time>2019-10-06T07:46:00Z</time>
      </trkpt>
      <trkpt lat="45.74553" lon="6.86738">
        <ele>2336</ele>
        <time>2019-10-06T07:46:02Z</time>
      </trkpt>
      <trkpt lat="45.74555" lon="6.86735">
        <ele>2337</ele>
        <time>2019-10-06T07:46:04Z</time>
      </trkpt>
      <trkpt lat="45.74557" lon="6.86733">
        <ele>2337</ele>
        <time>2019-10-06T07:46:06Z</time>
      </trkpt>
      <trkpt lat="45.74559" lon="6.86732">
        <ele>2338</ele>
        <time>2019-10-06T07:46:08Z</time>
      </trkpt>
      <trkpt lat="45.74561" lon="6.86734">
        <ele>2339</ele>
        <time>2019-10-06T07:46:10Z</time>
      </trkpt>
      <trkpt lat="45.74561" lon="6.86738">
        <ele>2339</ele>
        <time>2019-10-06T07:46:12Z</time>
      </trkpt>
      <trkpt lat="45.74561" lon="6.86742">
        <ele>2339</ele>
        <time>2019-10-06T07:46:14Z</time>
      </trkpt>
      <trkpt lat="45.7456" lon="6.86746">
        <ele>2339</ele>
        <time>2019-10-06T07:46:16Z</time>
      </trkpt>
      <trkpt lat="45.74558" lon="6.8675">
        <ele>2340</ele>
        <time>2019-10-06T07:46:18Z</time>
      </trkpt>
      <trkpt lat="45.74556" lon="6.86754">
        <ele>2340</ele>
        <time>2019-10-06T07:46:20Z</time>
      </trkpt>
      <trkpt lat="45.74554" lon="6.86757">
        <ele>2340</ele>
        <time>2019-10-06T07:46:22Z</time>
      </trkpt>
      <trkpt lat="45.74552" lon="6.86761">
        <ele>2340</ele>
        <time>2019-10-06T07:46:24Z</time>
      </trkpt>
      <trkpt lat="45.74551" lon="6.86765">
        <ele>2340</ele>
        <time>2019-10-06T07:46:26Z</time>
      </trkpt>
      <trkpt lat="45.74549" lon="6.86769">
        <ele>2340</ele>
        <time>2019-10-06T07:46:28Z</time>
      </trkpt>
      <trkpt lat="45.74548" lon="6.86772">
        <ele>2340</ele>
        <time>2019-10-06T07:46:30Z</time>
      </trkpt>
      <trkpt lat="45.74547" lon="6.86776">
        <ele>2341</ele>
        <time>2019-10-06T07:46:32Z</time>
      </trkpt>
      <trkpt lat="45.74547" lon="6.8678">
        <ele>2341</ele>
        <time>2019-10-06T07:46:34Z</time>
      </trkpt>
      <trkpt lat="45.74546" lon="6.86784">
        <ele>2341</ele>
        <time>2019-10-06T07:46:36Z</time>
      </trkpt>
      <trkpt lat="45.74545" lon="6.86789">
        <ele>2341</ele>
        <time>2019-10-06T07:46:38Z</time>
      </trkpt>
      <trkpt lat="45.74544" lon="6.86793">
        <ele>2342</ele>
        <time>2019-10-06T07:46:40Z</time>
      </trkpt>
      <trkpt lat="45.74544" lon="6.86797">
        <ele>2342</ele>
        <time>2019-10-06T07:46:42Z</time>
      </trkpt>
      <trkpt lat="45.74544" lon="6.868">
        <ele>2343</ele>
        <time>2019-10-06T07:46:44Z</time>
      </trkpt>
      <trkpt lat="45.74544" lon="6.86803">
        <ele>2343</ele>
        <time>2019-10-06T07:46:46Z</time>
      </trkpt>
      <trkpt lat="45.74544" lon="6.86807">
        <ele>2343</ele>
        <time>2019-10-06T07:46:48Z</time>
      </trkpt>
      <trkpt lat="45.74544" lon="6.86811">
        <ele>2343</ele>
        <time>2019-10-06T07:46:50Z</time>
      </trkpt>
      <trkpt lat="45.74544" lon="6.86815">
        <ele>2343</ele>
        <time>2019-10-06T07:46:52Z</time>
      </trkpt>
      <trkpt lat="45.74545" lon="6.86819">
        <ele>2344</ele>
        <time>2019-10-06T07:46:54Z</time>
      </trkpt>
      <trkpt lat="45.74545" lon="6.86823">
        <ele>2344</ele>
        <time>2019-10-06T07:46:56Z</time>
      </trkpt>
      <trkpt lat="45.74545" lon="6.86827">
        <ele>2344</ele>
        <time>2019-10-06T07:46:58Z</time>
      </trkpt>
      <trkpt lat="45.74545" lon="6.86831">
        <ele>2345</ele>
        <time>2019-10-06T07:47:00Z</time>
      </trkpt>
      <trkpt lat="45.74544" lon="6.86835">
        <ele>2345</ele>
        <time>2019-10-06T07:47:02Z</time>
      </trkpt>
      <trkpt lat="45.74544" lon="6.86838">
        <ele>2346</ele>
        <time>2019-10-06T07:47:04Z</time>
      </trkpt>
      <trkpt lat="45.74544" lon="6.86842">
        <ele>2346</ele>
        <time>2019-10-06T07:47:06Z</time>
      </trkpt>
      <trkpt lat="45.74543" lon="6.86846">
        <ele>2346</ele>
        <time>2019-10-06T07:47:08Z</time>
      </trkpt>
      <trkpt lat="45.74543" lon="6.8685">
        <ele>2347</ele>
        <time>2019-10-06T07:47:10Z</time>
      </trkpt>
      <trkpt lat="45.74542" lon="6.86853">
        <ele>2347</ele>
        <time>2019-10-06T07:47:12Z</time>
      </trkpt>
      <trkpt lat="45.74541" lon="6.86857">
        <ele>2347</ele>
        <time>2019-10-06T07:47:14Z</time>
      </trkpt>
      <trkpt lat="45.74539" lon="6.8686">
        <ele>2348</ele>
        <time>2019-10-06T07:47:16Z</time>
      </trkpt>
      <trkpt lat="45.74538" lon="6.86864">
        <ele>2348</ele>
        <time>2019-10-06T07:47:18Z</time>
      </trkpt>
      <trkpt lat="45.74537" lon="6.86867">
        <ele>2348</ele>
        <time>2019-10-06T07:47:20Z</time>
      </trkpt>
      <trkpt lat="45.74536" lon="6.86871">
        <ele>2349</ele>
        <time>2019-10-06T07:47:22Z</time>
      </trkpt>
      <trkpt lat="45.74535" lon="6.86875">
        <ele>2349</ele>
        <time>2019-10-06T07:47:24Z</time>
      </trkpt>
      <trkpt lat="45.74535" lon="6.86878">
        <ele>2349</ele>
        <time>2019-10-06T07:47:26Z</time>
      </trkpt>
      <trkpt lat="45.74534" lon="6.86882">
        <ele>2349</ele>
        <time>2019-10-06T07:47:28Z</time>
      </trkpt>
      <trkpt lat="45.74533" lon="6.86886">
        <ele>2350</ele>
        <time>2019-10-06T07:47:30Z</time>
      </trkpt>
      <trkpt lat="45.74533" lon="6.8689">
        <ele>2352</ele>
        <time>2019-10-06T07:47:32Z</time>
      </trkpt>
      <trkpt lat="45.74533" lon="6.86894">
        <ele>2352</ele>
        <time>2019-10-06T07:47:34Z</time>
      </trkpt>
      <trkpt lat="45.74533" lon="6.86898">
        <ele>2352</ele>
        <time>2019-10-06T07:47:36Z</time>
      </trkpt>
      <trkpt lat="45.74533" lon="6.86902">
        <ele>2352</ele>
        <time>2019-10-06T07:47:38Z</time>
      </trkpt>
      <trkpt lat="45.74533" lon="6.86906">
        <ele>2352</ele>
        <time>2019-10-06T07:47:40Z</time>
      </trkpt>
      <trkpt lat="45.74533" lon="6.8691">
        <ele>2352</ele>
        <time>2019-10-06T07:47:42Z</time>
      </trkpt>
      <trkpt lat="45.74533" lon="6.86914">
        <ele>2353</ele>
        <time>2019-10-06T07:47:44Z</time>
      </trkpt>
      <trkpt lat="45.74533" lon="6.86918">
        <ele>2354</ele>
        <time>2019-10-06T07:47:46Z</time>
      </trkpt>
      <trkpt lat="45.74532" lon="6.86922">
        <ele>2354</ele>
        <time>2019-10-06T07:47:48Z</time>
      </trkpt>
      <trkpt lat="45.74531" lon="6.86926">
        <ele>2354</ele>
        <time>2019-10-06T07:47:50Z</time>
      </trkpt>
      <trkpt lat="45.74531" lon="6.8693">
        <ele>2355</ele>
        <time>2019-10-06T07:47:52Z</time>
      </trkpt>
      <trkpt lat="45.7453" lon="6.86934">
        <ele>2355</ele>
        <time>2019-10-06T07:47:54Z</time>
      </trkpt>
      <trkpt lat="45.74529" lon="6.86938">
        <ele>2355</ele>
        <time>2019-10-06T07:47:56Z</time>
      </trkpt>
      <trkpt lat="45.74528" lon="6.86941">
        <ele>2355</ele>
        <time>2019-10-06T07:47:58Z</time>
      </trkpt>
      <trkpt lat="45.74527" lon="6.86945">
        <ele>2355</ele>
        <time>2019-10-06T07:48:00Z</time>
      </trkpt>
      <trkpt lat="45.74526" lon="6.86949">
        <ele>2356</ele>
        <time>2019-10-06T07:48:02Z</time>
      </trkpt>
      <trkpt lat="45.74526" lon="6.86953">
        <ele>2356</ele>
        <time>2019-10-06T07:48:04Z</time>
      </trkpt>
      <trkpt lat="45.74525" lon="6.86957">
        <ele>2357</ele>
        <time>2019-10-06T07:48:06Z</time>
      </trkpt>
      <trkpt lat="45.74524" lon="6.86961">
        <ele>2357</ele>
        <time>2019-10-06T07:48:08Z</time>
      </trkpt>
      <trkpt lat="45.74524" lon="6.86965">
        <ele>2357</ele>
        <time>2019-10-06T07:48:10Z</time>
      </trkpt>
      <trkpt lat="45.74523" lon="6.86969">
        <ele>2358</ele>
        <time>2019-10-06T07:48:12Z</time>
      </trkpt>
      <trkpt lat="45.74523" lon="6.86973">
        <ele>2358</ele>
        <time>2019-10-06T07:48:14Z</time>
      </trkpt>
      <trkpt lat="45.74523" lon="6.86977">
        <ele>2358</ele>
        <time>2019-10-06T07:48:16Z</time>
      </trkpt>
      <trkpt lat="45.74523" lon="6.8698">
        <ele>2358</ele>
        <time>2019-10-06T07:48:18Z</time>
      </trkpt>
      <trkpt lat="45.74523" lon="6.86984">
        <ele>2358</ele>
        <time>2019-10-06T07:48:20Z</time>
      </trkpt>
      <trkpt lat="45.74523" lon="6.86988">
        <ele>2359</ele>
        <time>2019-10-06T07:48:22Z</time>
      </trkpt>
      <trkpt lat="45.74523" lon="6.86992">
        <ele>2359</ele>
        <time>2019-10-06T07:48:24Z</time>
      </trkpt>
      <trkpt lat="45.74523" lon="6.86996">
        <ele>2360</ele>
        <time>2019-10-06T07:48:26Z</time>
      </trkpt>
      <trkpt lat="45.74523" lon="6.87">
        <ele>2360</ele>
        <time>2019-10-06T07:48:28Z</time>
      </trkpt>
      <trkpt lat="45.74524" lon="6.87003">
        <ele>2361</ele>
        <time>2019-10-06T07:48:30Z</time>
      </trkpt>
      <trkpt lat="45.74524" lon="6.87007">
        <ele>2361</ele>
        <time>2019-10-06T07:48:32Z</time>
      </trkpt>
      <trkpt lat="45.74524" lon="6.87011">
        <ele>2361</ele>
        <time>2019-10-06T07:48:34Z</time>
      </trkpt>
      <trkpt lat="45.74524" lon="6.87015">
        <ele>2361</ele>
        <time>2019-10-06T07:48:36Z</time>
      </trkpt>
      <trkpt lat="45.74524" lon="6.87018">
        <ele>2361</ele>
        <time>2019-10-06T07:48:38Z</time>
      </trkpt>
      <trkpt lat="45.74524" lon="6.87022">
        <ele>2362</ele>
        <time>2019-10-06T07:48:40Z</time>
      </trkpt>
      <trkpt lat="45.74523" lon="6.87026">
        <ele>2362</ele>
        <time>2019-10-06T07:48:42Z</time>
      </trkpt>
      <trkpt lat="45.74523" lon="6.8703">
        <ele>2362</ele>
        <time>2019-10-06T07:48:44Z</time>
      </trkpt>
      <trkpt lat="45.74521" lon="6.87035">
        <ele>2362</ele>
        <time>2019-10-06T07:48:46Z</time>
      </trkpt>
      <trkpt lat="45.74521" lon="6.87038">
        <ele>2363</ele>
        <time>2019-10-06T07:48:48Z</time>
      </trkpt>
      <trkpt lat="45.7452" lon="6.87042">
        <ele>2363</ele>
        <time>2019-10-06T07:48:50Z</time>
      </trkpt>
      <trkpt lat="45.74519" lon="6.87047">
        <ele>2364</ele>
        <time>2019-10-06T07:48:52Z</time>
      </trkpt>
      <trkpt lat="45.74518" lon="6.87051">
        <ele>2364</ele>
        <time>2019-10-06T07:48:54Z</time>
      </trkpt>
      <trkpt lat="45.74517" lon="6.87055">
        <ele>2365</ele>
        <time>2019-10-06T07:48:56Z</time>
      </trkpt>
      <trkpt lat="45.74516" lon="6.87059">
        <ele>2365</ele>
        <time>2019-10-06T07:48:58Z</time>
      </trkpt>
      <trkpt lat="45.74516" lon="6.87064">
        <ele>2365</ele>
        <time>2019-10-06T07:49:00Z</time>
      </trkpt>
      <trkpt lat="45.74515" lon="6.87068">
        <ele>2365</ele>
        <time>2019-10-06T07:49:02Z</time>
      </trkpt>
      <trkpt lat="45.74514" lon="6.87072">
        <ele>2366</ele>
        <time>2019-10-06T07:49:04Z</time>
      </trkpt>
      <trkpt lat="45.74513" lon="6.87076">
        <ele>2366</ele>
        <time>2019-10-06T07:49:06Z</time>
      </trkpt>
      <trkpt lat="45.74513" lon="6.8708">
        <ele>2367</ele>
        <time>2019-10-06T07:49:08Z</time>
      </trkpt>
      <trkpt lat="45.74512" lon="6.87084">
        <ele>2367</ele>
        <time>2019-10-06T07:49:10Z</time>
      </trkpt>
      <trkpt lat="45.74512" lon="6.87088">
        <ele>2367</ele>
        <time>2019-10-06T07:49:12Z</time>
      </trkpt>
      <trkpt lat="45.74511" lon="6.87092">
        <ele>2367</ele>
        <time>2019-10-06T07:49:14Z</time>
      </trkpt>
      <trkpt lat="45.7451" lon="6.87096">
        <ele>2367</ele>
        <time>2019-10-06T07:49:16Z</time>
      </trkpt>
      <trkpt lat="45.74509" lon="6.871">
        <ele>2368</ele>
        <time>2019-10-06T07:49:18Z</time>
      </trkpt>
      <trkpt lat="45.74509" lon="6.87104">
        <ele>2368</ele>
        <time>2019-10-06T07:49:20Z</time>
      </trkpt>
      <trkpt lat="45.74508" lon="6.87107">
        <ele>2369</ele>
        <time>2019-10-06T07:49:22Z</time>
      </trkpt>
      <trkpt lat="45.74507" lon="6.87111">
        <ele>2369</ele>
        <time>2019-10-06T07:49:24Z</time>
      </trkpt>
      <trkpt lat="45.74506" lon="6.87114">
        <ele>2369</ele>
        <time>2019-10-06T07:49:26Z</time>
      </trkpt>
      <trkpt lat="45.74505" lon="6.87118">
        <ele>2370</ele>
        <time>2019-10-06T07:49:28Z</time>
      </trkpt>
      <trkpt lat="45.74503" lon="6.87121">
        <ele>2370</ele>
        <time>2019-10-06T07:49:30Z</time>
      </trkpt>
      <trkpt lat="45.74502" lon="6.87124">
        <ele>2370</ele>
        <time>2019-10-06T07:49:32Z</time>
      </trkpt>
      <trkpt lat="45.74501" lon="6.87128">
        <ele>2371</ele>
        <time>2019-10-06T07:49:34Z</time>
      </trkpt>
      <trkpt lat="45.745" lon="6.87132">
        <ele>2371</ele>
        <time>2019-10-06T07:49:36Z</time>
      </trkpt>
      <trkpt lat="45.74499" lon="6.87135">
        <ele>2371</ele>
        <time>2019-10-06T07:49:38Z</time>
      </trkpt>
      <trkpt lat="45.74498" lon="6.87139">
        <ele>2371</ele>
        <time>2019-10-06T07:49:40Z</time>
      </trkpt>
      <trkpt lat="45.74497" lon="6.87143">
        <ele>2372</ele>
        <time>2019-10-06T07:49:42Z</time>
      </trkpt>
      <trkpt lat="45.74496" lon="6.87148">
        <ele>2372</ele>
        <time>2019-10-06T07:49:44Z</time>
      </trkpt>
      <trkpt lat="45.74495" lon="6.87151">
        <ele>2372</ele>
        <time>2019-10-06T07:49:46Z</time>
      </trkpt>
      <trkpt lat="45.74494" lon="6.87155">
        <ele>2372</ele>
        <time>2019-10-06T07:49:48Z</time>
      </trkpt>
      <trkpt lat="45.74493" lon="6.87159">
        <ele>2373</ele>
        <time>2019-10-06T07:49:50Z</time>
      </trkpt>
      <trkpt lat="45.74492" lon="6.87163">
        <ele>2373</ele>
        <time>2019-10-06T07:49:52Z</time>
      </trkpt>
      <trkpt lat="45.74491" lon="6.87167">
        <ele>2373</ele>
        <time>2019-10-06T07:49:54Z</time>
      </trkpt>
      <trkpt lat="45.7449" lon="6.87171">
        <ele>2374</ele>
        <time>2019-10-06T07:49:56Z</time>
      </trkpt>
      <trkpt lat="45.74489" lon="6.87175">
        <ele>2374</ele>
        <time>2019-10-06T07:49:58Z</time>
      </trkpt>
      <trkpt lat="45.74488" lon="6.87178">
        <ele>2375</ele>
        <time>2019-10-06T07:50:00Z</time>
      </trkpt>
      <trkpt lat="45.74487" lon="6.87182">
        <ele>2375</ele>
        <time>2019-10-06T07:50:02Z</time>
      </trkpt>
      <trkpt lat="45.74486" lon="6.87186">
        <ele>2376</ele>
        <time>2019-10-06T07:50:04Z</time>
      </trkpt>
      <trkpt lat="45.74485" lon="6.87189">
        <ele>2376</ele>
        <time>2019-10-06T07:50:06Z</time>
      </trkpt>
      <trkpt lat="45.74485" lon="6.87193">
        <ele>2376</ele>
        <time>2019-10-06T07:50:08Z</time>
      </trkpt>
      <trkpt lat="45.74484" lon="6.87196">
        <ele>2376</ele>
        <time>2019-10-06T07:50:10Z</time>
      </trkpt>
      <trkpt lat="45.74484" lon="6.87199">
        <ele>2376</ele>
        <time>2019-10-06T07:50:12Z</time>
      </trkpt>
      <trkpt lat="45.74484" lon="6.87203">
        <ele>2378</ele>
        <time>2019-10-06T07:50:14Z</time>
      </trkpt>
      <trkpt lat="45.74485" lon="6.87206">
        <ele>2378</ele>
        <time>2019-10-06T07:50:16Z</time>
      </trkpt>
      <trkpt lat="45.74486" lon="6.87207">
        <ele>2379</ele>
        <time>2019-10-06T07:50:18Z</time>
      </trkpt>
      <trkpt lat="45.74489" lon="6.87207">
        <ele>2379</ele>
        <time>2019-10-06T07:50:20Z</time>
      </trkpt>
      <trkpt lat="45.74491" lon="6.87205">
        <ele>2380</ele>
        <time>2019-10-06T07:50:22Z</time>
      </trkpt>
      <trkpt lat="45.74492" lon="6.87202">
        <ele>2380</ele>
        <time>2019-10-06T07:50:24Z</time>
      </trkpt>
      <trkpt lat="45.74494" lon="6.87199">
        <ele>2380</ele>
        <time>2019-10-06T07:50:26Z</time>
      </trkpt>
      <trkpt lat="45.74494" lon="6.87195">
        <ele>2381</ele>
        <time>2019-10-06T07:50:28Z</time>
      </trkpt>
      <trkpt lat="45.74495" lon="6.87191">
        <ele>2381</ele>
        <time>2019-10-06T07:50:30Z</time>
      </trkpt>
      <trkpt lat="45.74496" lon="6.87188">
        <ele>2381</ele>
        <time>2019-10-06T07:50:32Z</time>
      </trkpt>
      <trkpt lat="45.74498" lon="6.87184">
        <ele>2381</ele>
        <time>2019-10-06T07:50:34Z</time>
      </trkpt>
      <trkpt lat="45.745" lon="6.8718">
        <ele>2382</ele>
        <time>2019-10-06T07:50:36Z</time>
      </trkpt>
      <trkpt lat="45.74501" lon="6.87176">
        <ele>2382</ele>
        <time>2019-10-06T07:50:38Z</time>
      </trkpt>
      <trkpt lat="45.74503" lon="6.87173">
        <ele>2383</ele>
        <time>2019-10-06T07:50:40Z</time>
      </trkpt>
      <trkpt lat="45.74504" lon="6.8717">
        <ele>2383</ele>
        <time>2019-10-06T07:50:42Z</time>
      </trkpt>
      <trkpt lat="45.74506" lon="6.87167">
        <ele>2383</ele>
        <time>2019-10-06T07:50:44Z</time>
      </trkpt>
      <trkpt lat="45.74507" lon="6.87164">
        <ele>2384</ele>
        <time>2019-10-06T07:50:46Z</time>
      </trkpt>
      <trkpt lat="45.74509" lon="6.87161">
        <ele>2384</ele>
        <time>2019-10-06T07:50:48Z</time>
      </trkpt>
      <trkpt lat="45.74511" lon="6.87159">
        <ele>2384</ele>
        <time>2019-10-06T07:50:50Z</time>
      </trkpt>
      <trkpt lat="45.74512" lon="6.87156">
        <ele>2385</ele>
        <time>2019-10-06T07:50:52Z</time>
      </trkpt>
      <trkpt lat="45.74514" lon="6.87153">
        <ele>2386</ele>
        <time>2019-10-06T07:50:54Z</time>
      </trkpt>
      <trkpt lat="45.74516" lon="6.8715">
        <ele>2386</ele>
        <time>2019-10-06T07:50:56Z</time>
      </trkpt>
      <trkpt lat="45.74518" lon="6.87147">
        <ele>2386</ele>
        <time>2019-10-06T07:50:58Z</time>
      </trkpt>
      <trkpt lat="45.74518" lon="6.87147">
        <ele>2385</ele>
        <time>2019-10-06T07:51:00Z</time>
      </trkpt>
      <trkpt lat="45.7452" lon="6.87142">
        <ele>2385</ele>
        <time>2019-10-06T07:51:01Z</time>
      </trkpt>
      <trkpt lat="45.74522" lon="6.87139">
        <ele>2386</ele>
        <time>2019-10-06T07:51:03Z</time>
      </trkpt>
      <trkpt lat="45.74524" lon="6.87136">
        <ele>2386</ele>
        <time>2019-10-06T07:51:05Z</time>
      </trkpt>
      <trkpt lat="45.74526" lon="6.87133">
        <ele>2387</ele>
        <time>2019-10-06T07:51:07Z</time>
      </trkpt>
      <trkpt lat="45.74527" lon="6.87129">
        <ele>2388</ele>
        <time>2019-10-06T07:51:09Z</time>
      </trkpt>
      <trkpt lat="45.74529" lon="6.87126">
        <ele>2388</ele>
        <time>2019-10-06T07:51:11Z</time>
      </trkpt>
      <trkpt lat="45.74531" lon="6.87123">
        <ele>2389</ele>
        <time>2019-10-06T07:51:13Z</time>
      </trkpt>
      <trkpt lat="45.74532" lon="6.8712">
        <ele>2389</ele>
        <time>2019-10-06T07:51:15Z</time>
      </trkpt>
      <trkpt lat="45.74534" lon="6.87117">
        <ele>2389</ele>
        <time>2019-10-06T07:51:17Z</time>
      </trkpt>
      <trkpt lat="45.74535" lon="6.87113">
        <ele>2389</ele>
        <time>2019-10-06T07:51:19Z</time>
      </trkpt>
      <trkpt lat="45.74537" lon="6.8711">
        <ele>2390</ele>
        <time>2019-10-06T07:51:21Z</time>
      </trkpt>
      <trkpt lat="45.74538" lon="6.87107">
        <ele>2390</ele>
        <time>2019-10-06T07:51:23Z</time>
      </trkpt>
      <trkpt lat="45.74539" lon="6.87104">
        <ele>2391</ele>
        <time>2019-10-06T07:51:25Z</time>
      </trkpt>
      <trkpt lat="45.74541" lon="6.87101">
        <ele>2391</ele>
        <time>2019-10-06T07:51:27Z</time>
      </trkpt>
      <trkpt lat="45.74543" lon="6.87098">
        <ele>2392</ele>
        <time>2019-10-06T07:51:29Z</time>
      </trkpt>
      <trkpt lat="45.74545" lon="6.87096">
        <ele>2392</ele>
        <time>2019-10-06T07:51:31Z</time>
      </trkpt>
      <trkpt lat="45.74547" lon="6.87093">
        <ele>2392</ele>
        <time>2019-10-06T07:51:33Z</time>
      </trkpt>
      <trkpt lat="45.74548" lon="6.8709">
        <ele>2393</ele>
        <time>2019-10-06T07:51:35Z</time>
      </trkpt>
      <trkpt lat="45.7455" lon="6.87088">
        <ele>2393</ele>
        <time>2019-10-06T07:51:37Z</time>
      </trkpt>
      <trkpt lat="45.74551" lon="6.87085">
        <ele>2393</ele>
        <time>2019-10-06T07:51:39Z</time>
      </trkpt>
      <trkpt lat="45.74552" lon="6.87081">
        <ele>2394</ele>
        <time>2019-10-06T07:51:41Z</time>
      </trkpt>
      <trkpt lat="45.74554" lon="6.87077">
        <ele>2394</ele>
        <time>2019-10-06T07:51:43Z</time>
      </trkpt>
      <trkpt lat="45.74555" lon="6.87074">
        <ele>2395</ele>
        <time>2019-10-06T07:51:45Z</time>
      </trkpt>
      <trkpt lat="45.74556" lon="6.8707">
        <ele>2395</ele>
        <time>2019-10-06T07:51:47Z</time>
      </trkpt>
      <trkpt lat="45.74558" lon="6.87067">
        <ele>2395</ele>
        <time>2019-10-06T07:51:49Z</time>
      </trkpt>
      <trkpt lat="45.74559" lon="6.87064">
        <ele>2396</ele>
        <time>2019-10-06T07:51:51Z</time>
      </trkpt>
      <trkpt lat="45.7456" lon="6.87061">
        <ele>2396</ele>
        <time>2019-10-06T07:51:53Z</time>
      </trkpt>
      <trkpt lat="45.74562" lon="6.87058">
        <ele>2397</ele>
        <time>2019-10-06T07:51:55Z</time>
      </trkpt>
      <trkpt lat="45.74563" lon="6.87055">
        <ele>2397</ele>
        <time>2019-10-06T07:51:57Z</time>
      </trkpt>
      <trkpt lat="45.74565" lon="6.87052">
        <ele>2397</ele>
        <time>2019-10-06T07:51:59Z</time>
      </trkpt>
      <trkpt lat="45.74566" lon="6.87049">
        <ele>2397</ele>
        <time>2019-10-06T07:52:01Z</time>
      </trkpt>
      <trkpt lat="45.74567" lon="6.87046">
        <ele>2397</ele>
        <time>2019-10-06T07:52:03Z</time>
      </trkpt>
      <trkpt lat="45.74568" lon="6.87043">
        <ele>2398</ele>
        <time>2019-10-06T07:52:05Z</time>
      </trkpt>
      <trkpt lat="45.7457" lon="6.87041">
        <ele>2398</ele>
        <time>2019-10-06T07:52:07Z</time>
      </trkpt>
      <trkpt lat="45.74571" lon="6.87039">
        <ele>2399</ele>
        <time>2019-10-06T07:52:09Z</time>
      </trkpt>
      <trkpt lat="45.74573" lon="6.87035">
        <ele>2399</ele>
        <time>2019-10-06T07:52:11Z</time>
      </trkpt>
      <trkpt lat="45.74575" lon="6.87033">
        <ele>2400</ele>
        <time>2019-10-06T07:52:13Z</time>
      </trkpt>
      <trkpt lat="45.74576" lon="6.8703">
        <ele>2400</ele>
        <time>2019-10-06T07:52:15Z</time>
      </trkpt>
      <trkpt lat="45.74578" lon="6.87027">
        <ele>2400</ele>
        <time>2019-10-06T07:52:17Z</time>
      </trkpt>
      <trkpt lat="45.74579" lon="6.87025">
        <ele>2401</ele>
        <time>2019-10-06T07:52:19Z</time>
      </trkpt>
      <trkpt lat="45.7458" lon="6.87022">
        <ele>2401</ele>
        <time>2019-10-06T07:52:21Z</time>
      </trkpt>
      <trkpt lat="45.74582" lon="6.87019">
        <ele>2401</ele>
        <time>2019-10-06T07:52:23Z</time>
      </trkpt>
      <trkpt lat="45.74584" lon="6.87017">
        <ele>2402</ele>
        <time>2019-10-06T07:52:25Z</time>
      </trkpt>
      <trkpt lat="45.74585" lon="6.87014">
        <ele>2402</ele>
        <time>2019-10-06T07:52:27Z</time>
      </trkpt>
      <trkpt lat="45.74587" lon="6.87012">
        <ele>2404</ele>
        <time>2019-10-06T07:52:29Z</time>
      </trkpt>
      <trkpt lat="45.74589" lon="6.8701">
        <ele>2404</ele>
        <time>2019-10-06T07:52:31Z</time>
      </trkpt>
      <trkpt lat="45.7459" lon="6.87008">
        <ele>2405</ele>
        <time>2019-10-06T07:52:33Z</time>
      </trkpt>
      <trkpt lat="45.74592" lon="6.87005">
        <ele>2405</ele>
        <time>2019-10-06T07:52:35Z</time>
      </trkpt>
      <trkpt lat="45.74595" lon="6.87003">
        <ele>2405</ele>
        <time>2019-10-06T07:52:37Z</time>
      </trkpt>
      <trkpt lat="45.74596" lon="6.87001">
        <ele>2405</ele>
        <time>2019-10-06T07:52:39Z</time>
      </trkpt>
      <trkpt lat="45.74599" lon="6.86999">
        <ele>2406</ele>
        <time>2019-10-06T07:52:41Z</time>
      </trkpt>
      <trkpt lat="45.74601" lon="6.86996">
        <ele>2406</ele>
        <time>2019-10-06T07:52:43Z</time>
      </trkpt>
      <trkpt lat="45.74602" lon="6.86994">
        <ele>2407</ele>
        <time>2019-10-06T07:52:45Z</time>
      </trkpt>
      <trkpt lat="45.74604" lon="6.8699">
        <ele>2407</ele>
        <time>2019-10-06T07:52:47Z</time>
      </trkpt>
      <trkpt lat="45.74605" lon="6.86988">
        <ele>2407</ele>
        <time>2019-10-06T07:52:49Z</time>
      </trkpt>
      <trkpt lat="45.74607" lon="6.86984">
        <ele>2408</ele>
        <time>2019-10-06T07:52:51Z</time>
      </trkpt>
      <trkpt lat="45.74608" lon="6.86981">
        <ele>2408</ele>
        <time>2019-10-06T07:52:53Z</time>
      </trkpt>
      <trkpt lat="45.74609" lon="6.86979">
        <ele>2408</ele>
        <time>2019-10-06T07:52:55Z</time>
      </trkpt>
      <trkpt lat="45.7461" lon="6.86975">
        <ele>2409</ele>
        <time>2019-10-06T07:52:57Z</time>
      </trkpt>
      <trkpt lat="45.74612" lon="6.86972">
        <ele>2409</ele>
        <time>2019-10-06T07:52:59Z</time>
      </trkpt>
      <trkpt lat="45.74613" lon="6.86969">
        <ele>2410</ele>
        <time>2019-10-06T07:53:01Z</time>
      </trkpt>
      <trkpt lat="45.74615" lon="6.86966">
        <ele>2410</ele>
        <time>2019-10-06T07:53:03Z</time>
      </trkpt>
      <trkpt lat="45.74616" lon="6.86963">
        <ele>2410</ele>
        <time>2019-10-06T07:53:05Z</time>
      </trkpt>
      <trkpt lat="45.74618" lon="6.86961">
        <ele>2410</ele>
        <time>2019-10-06T07:53:07Z</time>
      </trkpt>
      <trkpt lat="45.74619" lon="6.86957">
        <ele>2411</ele>
        <time>2019-10-06T07:53:09Z</time>
      </trkpt>
      <trkpt lat="45.7462" lon="6.86954">
        <ele>2411</ele>
        <time>2019-10-06T07:53:11Z</time>
      </trkpt>
      <trkpt lat="45.74622" lon="6.86951">
        <ele>2412</ele>
        <time>2019-10-06T07:53:13Z</time>
      </trkpt>
      <trkpt lat="45.74624" lon="6.86949">
        <ele>2412</ele>
        <time>2019-10-06T07:53:15Z</time>
      </trkpt>
      <trkpt lat="45.74626" lon="6.86946">
        <ele>2413</ele>
        <time>2019-10-06T07:53:17Z</time>
      </trkpt>
      <trkpt lat="45.74627" lon="6.86944">
        <ele>2413</ele>
        <time>2019-10-06T07:53:19Z</time>
      </trkpt>
      <trkpt lat="45.74629" lon="6.8694">
        <ele>2413</ele>
        <time>2019-10-06T07:53:21Z</time>
      </trkpt>
      <trkpt lat="45.74631" lon="6.86938">
        <ele>2413</ele>
        <time>2019-10-06T07:53:23Z</time>
      </trkpt>
      <trkpt lat="45.74632" lon="6.86935">
        <ele>2414</ele>
        <time>2019-10-06T07:53:25Z</time>
      </trkpt>
      <trkpt lat="45.74634" lon="6.86931">
        <ele>2414</ele>
        <time>2019-10-06T07:53:27Z</time>
      </trkpt>
      <trkpt lat="45.74635" lon="6.86928">
        <ele>2414</ele>
        <time>2019-10-06T07:53:29Z</time>
      </trkpt>
      <trkpt lat="45.74636" lon="6.86925">
        <ele>2415</ele>
        <time>2019-10-06T07:53:31Z</time>
      </trkpt>
      <trkpt lat="45.74638" lon="6.86921">
        <ele>2416</ele>
        <time>2019-10-06T07:53:33Z</time>
      </trkpt>
      <trkpt lat="45.74639" lon="6.86918">
        <ele>2416</ele>
        <time>2019-10-06T07:53:35Z</time>
      </trkpt>
      <trkpt lat="45.7464" lon="6.86916">
        <ele>2417</ele>
        <time>2019-10-06T07:53:37Z</time>
      </trkpt>
      <trkpt lat="45.74642" lon="6.86912">
        <ele>2417</ele>
        <time>2019-10-06T07:53:39Z</time>
      </trkpt>
      <trkpt lat="45.74644" lon="6.8691">
        <ele>2418</ele>
        <time>2019-10-06T07:53:41Z</time>
      </trkpt>
      <trkpt lat="45.74646" lon="6.86907">
        <ele>2418</ele>
        <time>2019-10-06T07:53:43Z</time>
      </trkpt>
      <trkpt lat="45.74647" lon="6.86904">
        <ele>2418</ele>
        <time>2019-10-06T07:53:45Z</time>
      </trkpt>
      <trkpt lat="45.74649" lon="6.86901">
        <ele>2418</ele>
        <time>2019-10-06T07:53:47Z</time>
      </trkpt>
      <trkpt lat="45.7465" lon="6.86898">
        <ele>2418</ele>
        <time>2019-10-06T07:53:49Z</time>
      </trkpt>
      <trkpt lat="45.74652" lon="6.86895">
        <ele>2419</ele>
        <time>2019-10-06T07:53:51Z</time>
      </trkpt>
      <trkpt lat="45.74653" lon="6.86892">
        <ele>2420</ele>
        <time>2019-10-06T07:53:53Z</time>
      </trkpt>
      <trkpt lat="45.74655" lon="6.86889">
        <ele>2420</ele>
        <time>2019-10-06T07:53:55Z</time>
      </trkpt>
      <trkpt lat="45.74657" lon="6.86886">
        <ele>2420</ele>
        <time>2019-10-06T07:53:57Z</time>
      </trkpt>
      <trkpt lat="45.74658" lon="6.86884">
        <ele>2420</ele>
        <time>2019-10-06T07:53:59Z</time>
      </trkpt>
      <trkpt lat="45.7466" lon="6.86881">
        <ele>2421</ele>
        <time>2019-10-06T07:54:01Z</time>
      </trkpt>
      <trkpt lat="45.74662" lon="6.86878">
        <ele>2422</ele>
        <time>2019-10-06T07:54:03Z</time>
      </trkpt>
      <trkpt lat="45.74664" lon="6.86876">
        <ele>2422</ele>
        <time>2019-10-06T07:54:05Z</time>
      </trkpt>
      <trkpt lat="45.74666" lon="6.86874">
        <ele>2422</ele>
        <time>2019-10-06T07:54:07Z</time>
      </trkpt>
      <trkpt lat="45.74668" lon="6.86872">
        <ele>2423</ele>
        <time>2019-10-06T07:54:09Z</time>
      </trkpt>
      <trkpt lat="45.7467" lon="6.8687">
        <ele>2423</ele>
        <time>2019-10-06T07:54:11Z</time>
      </trkpt>
      <trkpt lat="45.74672" lon="6.86868">
        <ele>2423</ele>
        <time>2019-10-06T07:54:13Z</time>
      </trkpt>
      <trkpt lat="45.74674" lon="6.86866">
        <ele>2423</ele>
        <time>2019-10-06T07:54:15Z</time>
      </trkpt>
      <trkpt lat="45.74677" lon="6.86865">
        <ele>2424</ele>
        <time>2019-10-06T07:54:17Z</time>
      </trkpt>
      <trkpt lat="45.74679" lon="6.86863">
        <ele>2424</ele>
        <time>2019-10-06T07:54:19Z</time>
      </trkpt>
      <trkpt lat="45.74681" lon="6.86861">
        <ele>2424</ele>
        <time>2019-10-06T07:54:21Z</time>
      </trkpt>
      <trkpt lat="45.74683" lon="6.86858">
        <ele>2425</ele>
        <time>2019-10-06T07:54:23Z</time>
      </trkpt>
      <trkpt lat="45.74685" lon="6.86856">
        <ele>2425</ele>
        <time>2019-10-06T07:54:25Z</time>
      </trkpt>
      <trkpt lat="45.74686" lon="6.86852">
        <ele>2426</ele>
        <time>2019-10-06T07:54:27Z</time>
      </trkpt>
      <trkpt lat="45.74688" lon="6.86849">
        <ele>2426</ele>
        <time>2019-10-06T07:54:29Z</time>
      </trkpt>
      <trkpt lat="45.74688" lon="6.86846">
        <ele>2427</ele>
        <time>2019-10-06T07:54:31Z</time>
      </trkpt>
      <trkpt lat="45.74689" lon="6.86842">
        <ele>2427</ele>
        <time>2019-10-06T07:54:33Z</time>
      </trkpt>
      <trkpt lat="45.74691" lon="6.86839">
        <ele>2427</ele>
        <time>2019-10-06T07:54:35Z</time>
      </trkpt>
      <trkpt lat="45.74692" lon="6.86836">
        <ele>2427</ele>
        <time>2019-10-06T07:54:37Z</time>
      </trkpt>
      <trkpt lat="45.74693" lon="6.86832">
        <ele>2428</ele>
        <time>2019-10-06T07:54:39Z</time>
      </trkpt>
      <trkpt lat="45.74695" lon="6.8683">
        <ele>2428</ele>
        <time>2019-10-06T07:54:41Z</time>
      </trkpt>
      <trkpt lat="45.74697" lon="6.86827">
        <ele>2430</ele>
        <time>2019-10-06T07:54:43Z</time>
      </trkpt>
      <trkpt lat="45.74698" lon="6.86824">
        <ele>2430</ele>
        <time>2019-10-06T07:54:45Z</time>
      </trkpt>
      <trkpt lat="45.747" lon="6.86821">
        <ele>2431</ele>
        <time>2019-10-06T07:54:47Z</time>
      </trkpt>
      <trkpt lat="45.74701" lon="6.86819">
        <ele>2431</ele>
        <time>2019-10-06T07:54:49Z</time>
      </trkpt>
      <trkpt lat="45.74703" lon="6.86815">
        <ele>2432</ele>
        <time>2019-10-06T07:54:51Z</time>
      </trkpt>
      <trkpt lat="45.74704" lon="6.86813">
        <ele>2432</ele>
        <time>2019-10-06T07:54:53Z</time>
      </trkpt>
      <trkpt lat="45.74706" lon="6.8681">
        <ele>2433</ele>
        <time>2019-10-06T07:54:55Z</time>
      </trkpt>
      <trkpt lat="45.74708" lon="6.86807">
        <ele>2433</ele>
        <time>2019-10-06T07:54:57Z</time>
      </trkpt>
      <trkpt lat="45.74709" lon="6.86804">
        <ele>2434</ele>
        <time>2019-10-06T07:54:59Z</time>
      </trkpt>
      <trkpt lat="45.7471" lon="6.86802">
        <ele>2434</ele>
        <time>2019-10-06T07:55:01Z</time>
      </trkpt>
      <trkpt lat="45.74712" lon="6.86798">
        <ele>2434</ele>
        <time>2019-10-06T07:55:03Z</time>
      </trkpt>
      <trkpt lat="45.74713" lon="6.86794">
        <ele>2434</ele>
        <time>2019-10-06T07:55:05Z</time>
      </trkpt>
      <trkpt lat="45.74714" lon="6.86791">
        <ele>2434</ele>
        <time>2019-10-06T07:55:07Z</time>
      </trkpt>
      <trkpt lat="45.74715" lon="6.86788">
        <ele>2435</ele>
        <time>2019-10-06T07:55:09Z</time>
      </trkpt>
      <trkpt lat="45.74716" lon="6.86785">
        <ele>2436</ele>
        <time>2019-10-06T07:55:11Z</time>
      </trkpt>
      <trkpt lat="45.74718" lon="6.86782">
        <ele>2436</ele>
        <time>2019-10-06T07:55:13Z</time>
      </trkpt>
      <trkpt lat="45.74719" lon="6.86779">
        <ele>2436</ele>
        <time>2019-10-06T07:55:15Z</time>
      </trkpt>
      <trkpt lat="45.74721" lon="6.86776">
        <ele>2436</ele>
        <time>2019-10-06T07:55:17Z</time>
      </trkpt>
      <trkpt lat="45.74722" lon="6.86773">
        <ele>2436</ele>
        <time>2019-10-06T07:55:19Z</time>
      </trkpt>
      <trkpt lat="45.74724" lon="6.8677">
        <ele>2437</ele>
        <time>2019-10-06T07:55:21Z</time>
      </trkpt>
      <trkpt lat="45.74726" lon="6.86767">
        <ele>2437</ele>
        <time>2019-10-06T07:55:23Z</time>
      </trkpt>
      <trkpt lat="45.74727" lon="6.86764">
        <ele>2438</ele>
        <time>2019-10-06T07:55:25Z</time>
      </trkpt>
      <trkpt lat="45.74729" lon="6.86762">
        <ele>2438</ele>
        <time>2019-10-06T07:55:27Z</time>
      </trkpt>
      <trkpt lat="45.7473" lon="6.86759">
        <ele>2439</ele>
        <time>2019-10-06T07:55:29Z</time>
      </trkpt>
      <trkpt lat="45.74732" lon="6.86756">
        <ele>2439</ele>
        <time>2019-10-06T07:55:31Z</time>
      </trkpt>
      <trkpt lat="45.74733" lon="6.86753">
        <ele>2439</ele>
        <time>2019-10-06T07:55:33Z</time>
      </trkpt>
      <trkpt lat="45.74734" lon="6.8675">
        <ele>2440</ele>
        <time>2019-10-06T07:55:35Z</time>
      </trkpt>
      <trkpt lat="45.74736" lon="6.86747">
        <ele>2440</ele>
        <time>2019-10-06T07:55:37Z</time>
      </trkpt>
      <trkpt lat="45.74737" lon="6.86744">
        <ele>2440</ele>
        <time>2019-10-06T07:55:39Z</time>
      </trkpt>
      <trkpt lat="45.74739" lon="6.86741">
        <ele>2440</ele>
        <time>2019-10-06T07:55:41Z</time>
      </trkpt>
      <trkpt lat="45.7474" lon="6.86738">
        <ele>2441</ele>
        <time>2019-10-06T07:55:43Z</time>
      </trkpt>
      <trkpt lat="45.74742" lon="6.86735">
        <ele>2441</ele>
        <time>2019-10-06T07:55:45Z</time>
      </trkpt>
      <trkpt lat="45.74744" lon="6.86732">
        <ele>2442</ele>
        <time>2019-10-06T07:55:47Z</time>
      </trkpt>
      <trkpt lat="45.74745" lon="6.86729">
        <ele>2442</ele>
        <time>2019-10-06T07:55:49Z</time>
      </trkpt>
      <trkpt lat="45.74746" lon="6.86726">
        <ele>2442</ele>
        <time>2019-10-06T07:55:51Z</time>
      </trkpt>
      <trkpt lat="45.74748" lon="6.86723">
        <ele>2442</ele>
        <time>2019-10-06T07:55:53Z</time>
      </trkpt>
      <trkpt lat="45.7475" lon="6.8672">
        <ele>2443</ele>
        <time>2019-10-06T07:55:55Z</time>
      </trkpt>
      <trkpt lat="45.74751" lon="6.86718">
        <ele>2443</ele>
        <time>2019-10-06T07:55:57Z</time>
      </trkpt>
      <trkpt lat="45.74753" lon="6.86715">
        <ele>2443</ele>
        <time>2019-10-06T07:55:59Z</time>
      </trkpt>
      <trkpt lat="45.74755" lon="6.86712">
        <ele>2443</ele>
        <time>2019-10-06T07:56:01Z</time>
      </trkpt>
      <trkpt lat="45.74756" lon="6.8671">
        <ele>2443</ele>
        <time>2019-10-06T07:56:03Z</time>
      </trkpt>
      <trkpt lat="45.74758" lon="6.86707">
        <ele>2444</ele>
        <time>2019-10-06T07:56:05Z</time>
      </trkpt>
      <trkpt lat="45.7476" lon="6.86704">
        <ele>2444</ele>
        <time>2019-10-06T07:56:07Z</time>
      </trkpt>
      <trkpt lat="45.74762" lon="6.86702">
        <ele>2444</ele>
        <time>2019-10-06T07:56:09Z</time>
      </trkpt>
      <trkpt lat="45.74764" lon="6.86699">
        <ele>2445</ele>
        <time>2019-10-06T07:56:11Z</time>
      </trkpt>
      <trkpt lat="45.74765" lon="6.86696">
        <ele>2445</ele>
        <time>2019-10-06T07:56:13Z</time>
      </trkpt>
      <trkpt lat="45.74767" lon="6.86694">
        <ele>2446</ele>
        <time>2019-10-06T07:56:15Z</time>
      </trkpt>
      <trkpt lat="45.74769" lon="6.86691">
        <ele>2446</ele>
        <time>2019-10-06T07:56:17Z</time>
      </trkpt>
      <trkpt lat="45.74771" lon="6.86689">
        <ele>2447</ele>
        <time>2019-10-06T07:56:19Z</time>
      </trkpt>
      <trkpt lat="45.74772" lon="6.86687">
        <ele>2447</ele>
        <time>2019-10-06T07:56:21Z</time>
      </trkpt>
      <trkpt lat="45.74774" lon="6.86684">
        <ele>2447</ele>
        <time>2019-10-06T07:56:23Z</time>
      </trkpt>
      <trkpt lat="45.74776" lon="6.86681">
        <ele>2447</ele>
        <time>2019-10-06T07:56:25Z</time>
      </trkpt>
      <trkpt lat="45.74778" lon="6.86679">
        <ele>2448</ele>
        <time>2019-10-06T07:56:27Z</time>
      </trkpt>
      <trkpt lat="45.7478" lon="6.86677">
        <ele>2448</ele>
        <time>2019-10-06T07:56:29Z</time>
      </trkpt>
      <trkpt lat="45.74782" lon="6.86674">
        <ele>2448</ele>
        <time>2019-10-06T07:56:31Z</time>
      </trkpt>
      <trkpt lat="45.74784" lon="6.86672">
        <ele>2449</ele>
        <time>2019-10-06T07:56:33Z</time>
      </trkpt>
      <trkpt lat="45.74786" lon="6.86669">
        <ele>2449</ele>
        <time>2019-10-06T07:56:35Z</time>
      </trkpt>
      <trkpt lat="45.74788" lon="6.86667">
        <ele>2450</ele>
        <time>2019-10-06T07:56:37Z</time>
      </trkpt>
      <trkpt lat="45.74789" lon="6.86664">
        <ele>2450</ele>
        <time>2019-10-06T07:56:39Z</time>
      </trkpt>
      <trkpt lat="45.74791" lon="6.86661">
        <ele>2450</ele>
        <time>2019-10-06T07:56:41Z</time>
      </trkpt>
      <trkpt lat="45.74793" lon="6.86658">
        <ele>2451</ele>
        <time>2019-10-06T07:56:43Z</time>
      </trkpt>
      <trkpt lat="45.74795" lon="6.86656">
        <ele>2451</ele>
        <time>2019-10-06T07:56:45Z</time>
      </trkpt>
      <trkpt lat="45.74797" lon="6.86653">
        <ele>2452</ele>
        <time>2019-10-06T07:56:47Z</time>
      </trkpt>
      <trkpt lat="45.74799" lon="6.8665">
        <ele>2451</ele>
        <time>2019-10-06T07:56:49Z</time>
      </trkpt>
      <trkpt lat="45.74801" lon="6.86647">
        <ele>2451</ele>
        <time>2019-10-06T07:56:51Z</time>
      </trkpt>
      <trkpt lat="45.74803" lon="6.86645">
        <ele>2452</ele>
        <time>2019-10-06T07:56:53Z</time>
      </trkpt>
      <trkpt lat="45.74804" lon="6.86642">
        <ele>2452</ele>
        <time>2019-10-06T07:56:55Z</time>
      </trkpt>
      <trkpt lat="45.74806" lon="6.8664">
        <ele>2452</ele>
        <time>2019-10-06T07:56:57Z</time>
      </trkpt>
      <trkpt lat="45.74808" lon="6.86637">
        <ele>2453</ele>
        <time>2019-10-06T07:56:59Z</time>
      </trkpt>
      <trkpt lat="45.7481" lon="6.86634">
        <ele>2453</ele>
        <time>2019-10-06T07:57:01Z</time>
      </trkpt>
      <trkpt lat="45.74812" lon="6.86631">
        <ele>2454</ele>
        <time>2019-10-06T07:57:03Z</time>
      </trkpt>
      <trkpt lat="45.74814" lon="6.86628">
        <ele>2454</ele>
        <time>2019-10-06T07:57:05Z</time>
      </trkpt>
      <trkpt lat="45.74815" lon="6.86626">
        <ele>2454</ele>
        <time>2019-10-06T07:57:07Z</time>
      </trkpt>
      <trkpt lat="45.74817" lon="6.86623">
        <ele>2456</ele>
        <time>2019-10-06T07:57:09Z</time>
      </trkpt>
      <trkpt lat="45.74819" lon="6.86621">
        <ele>2457</ele>
        <time>2019-10-06T07:57:11Z</time>
      </trkpt>
      <trkpt lat="45.7482" lon="6.86619">
        <ele>2458</ele>
        <time>2019-10-06T07:57:13Z</time>
      </trkpt>
      <trkpt lat="45.74822" lon="6.86616">
        <ele>2458</ele>
        <time>2019-10-06T07:57:15Z</time>
      </trkpt>
      <trkpt lat="45.74823" lon="6.86613">
        <ele>2458</ele>
        <time>2019-10-06T07:57:17Z</time>
      </trkpt>
      <trkpt lat="45.74824" lon="6.8661">
        <ele>2458</ele>
        <time>2019-10-06T07:57:19Z</time>
      </trkpt>
      <trkpt lat="45.74826" lon="6.86607">
        <ele>2458</ele>
        <time>2019-10-06T07:57:21Z</time>
      </trkpt>
      <trkpt lat="45.74827" lon="6.86604">
        <ele>2458</ele>
        <time>2019-10-06T07:57:23Z</time>
      </trkpt>
      <trkpt lat="45.74828" lon="6.86601">
        <ele>2459</ele>
        <time>2019-10-06T07:57:25Z</time>
      </trkpt>
      <trkpt lat="45.7483" lon="6.86598">
        <ele>2459</ele>
        <time>2019-10-06T07:57:27Z</time>
      </trkpt>
      <trkpt lat="45.74832" lon="6.86596">
        <ele>2460</ele>
        <time>2019-10-06T07:57:29Z</time>
      </trkpt>
      <trkpt lat="45.74834" lon="6.86594">
        <ele>2460</ele>
        <time>2019-10-06T07:57:31Z</time>
      </trkpt>
      <trkpt lat="45.74836" lon="6.86591">
        <ele>2460</ele>
        <time>2019-10-06T07:57:33Z</time>
      </trkpt>
      <trkpt lat="45.74837" lon="6.86589">
        <ele>2461</ele>
        <time>2019-10-06T07:57:35Z</time>
      </trkpt>
      <trkpt lat="45.74839" lon="6.86587">
        <ele>2462</ele>
        <time>2019-10-06T07:57:37Z</time>
      </trkpt>
      <trkpt lat="45.7484" lon="6.86585">
        <ele>2462</ele>
        <time>2019-10-06T07:57:39Z</time>
      </trkpt>
      <trkpt lat="45.74843" lon="6.86583">
        <ele>2462</ele>
        <time>2019-10-06T07:57:41Z</time>
      </trkpt>
      <trkpt lat="45.74845" lon="6.86582">
        <ele>2463</ele>
        <time>2019-10-06T07:57:43Z</time>
      </trkpt>
      <trkpt lat="45.74847" lon="6.86581">
        <ele>2463</ele>
        <time>2019-10-06T07:57:45Z</time>
      </trkpt>
      <trkpt lat="45.7485" lon="6.8658">
        <ele>2463</ele>
        <time>2019-10-06T07:57:47Z</time>
      </trkpt>
      <trkpt lat="45.74852" lon="6.8658">
        <ele>2463</ele>
        <time>2019-10-06T07:57:49Z</time>
      </trkpt>
      <trkpt lat="45.74855" lon="6.86579">
        <ele>2463</ele>
        <time>2019-10-06T07:57:51Z</time>
      </trkpt>
      <trkpt lat="45.74858" lon="6.86579">
        <ele>2463</ele>
        <time>2019-10-06T07:57:53Z</time>
      </trkpt>
      <trkpt lat="45.7486" lon="6.86578">
        <ele>2464</ele>
        <time>2019-10-06T07:57:55Z</time>
      </trkpt>
      <trkpt lat="45.74862" lon="6.86577">
        <ele>2464</ele>
        <time>2019-10-06T07:57:57Z</time>
      </trkpt>
      <trkpt lat="45.74865" lon="6.86576">
        <ele>2465</ele>
        <time>2019-10-06T07:57:59Z</time>
      </trkpt>
      <trkpt lat="45.74867" lon="6.86574">
        <ele>2465</ele>
        <time>2019-10-06T07:58:01Z</time>
      </trkpt>
      <trkpt lat="45.74869" lon="6.86572">
        <ele>2466</ele>
        <time>2019-10-06T07:58:03Z</time>
      </trkpt>
      <trkpt lat="45.74871" lon="6.8657">
        <ele>2466</ele>
        <time>2019-10-06T07:58:05Z</time>
      </trkpt>
      <trkpt lat="45.74872" lon="6.86568">
        <ele>2466</ele>
        <time>2019-10-06T07:58:07Z</time>
      </trkpt>
      <trkpt lat="45.74874" lon="6.86566">
        <ele>2466</ele>
        <time>2019-10-06T07:58:09Z</time>
      </trkpt>
      <trkpt lat="45.74876" lon="6.86564">
        <ele>2466</ele>
        <time>2019-10-06T07:58:11Z</time>
      </trkpt>
      <trkpt lat="45.74878" lon="6.86562">
        <ele>2467</ele>
        <time>2019-10-06T07:58:13Z</time>
      </trkpt>
      <trkpt lat="45.7488" lon="6.8656">
        <ele>2467</ele>
        <time>2019-10-06T07:58:15Z</time>
      </trkpt>
      <trkpt lat="45.74882" lon="6.86558">
        <ele>2468</ele>
        <time>2019-10-06T07:58:17Z</time>
      </trkpt>
      <trkpt lat="45.74883" lon="6.86555">
        <ele>2468</ele>
        <time>2019-10-06T07:58:19Z</time>
      </trkpt>
      <trkpt lat="45.74885" lon="6.86553">
        <ele>2468</ele>
        <time>2019-10-06T07:58:21Z</time>
      </trkpt>
      <trkpt lat="45.74887" lon="6.86551">
        <ele>2468</ele>
        <time>2019-10-06T07:58:23Z</time>
      </trkpt>
      <trkpt lat="45.74889" lon="6.86548">
        <ele>2468</ele>
        <time>2019-10-06T07:58:25Z</time>
      </trkpt>
      <trkpt lat="45.7489" lon="6.86545">
        <ele>2469</ele>
        <time>2019-10-06T07:58:27Z</time>
      </trkpt>
      <trkpt lat="45.74892" lon="6.86542">
        <ele>2469</ele>
        <time>2019-10-06T07:58:29Z</time>
      </trkpt>
      <trkpt lat="45.74893" lon="6.8654">
        <ele>2469</ele>
        <time>2019-10-06T07:58:31Z</time>
      </trkpt>
      <trkpt lat="45.74895" lon="6.86537">
        <ele>2469</ele>
        <time>2019-10-06T07:58:33Z</time>
      </trkpt>
      <trkpt lat="45.74896" lon="6.86534">
        <ele>2470</ele>
        <time>2019-10-06T07:58:35Z</time>
      </trkpt>
      <trkpt lat="45.74897" lon="6.86531">
        <ele>2470</ele>
        <time>2019-10-06T07:58:37Z</time>
      </trkpt>
      <trkpt lat="45.74897" lon="6.86528">
        <ele>2470</ele>
        <time>2019-10-06T07:58:39Z</time>
      </trkpt>
      <trkpt lat="45.74897" lon="6.86525">
        <ele>2470</ele>
        <time>2019-10-06T07:58:41Z</time>
      </trkpt>
      <trkpt lat="45.74896" lon="6.86522">
        <ele>2471</ele>
        <time>2019-10-06T07:58:43Z</time>
      </trkpt>
      <trkpt lat="45.74894" lon="6.8652">
        <ele>2471</ele>
        <time>2019-10-06T07:58:45Z</time>
      </trkpt>
      <trkpt lat="45.74892" lon="6.86518">
        <ele>2471</ele>
        <time>2019-10-06T07:58:47Z</time>
      </trkpt>
      <trkpt lat="45.7489" lon="6.86515">
        <ele>2471</ele>
        <time>2019-10-06T07:58:49Z</time>
      </trkpt>
      <trkpt lat="45.74888" lon="6.86513">
        <ele>2471</ele>
        <time>2019-10-06T07:58:51Z</time>
      </trkpt>
      <trkpt lat="45.74885" lon="6.8651">
        <ele>2474</ele>
        <time>2019-10-06T07:58:53Z</time>
      </trkpt>
      <trkpt lat="45.74884" lon="6.86508">
        <ele>2474</ele>
        <time>2019-10-06T07:58:55Z</time>
      </trkpt>
      <trkpt lat="45.74882" lon="6.86504">
        <ele>2474</ele>
        <time>2019-10-06T07:58:57Z</time>
      </trkpt>
      <trkpt lat="45.74881" lon="6.86501">
        <ele>2474</ele>
        <time>2019-10-06T07:58:59Z</time>
      </trkpt>
      <trkpt lat="45.7488" lon="6.86498">
        <ele>2474</ele>
        <time>2019-10-06T07:59:01Z</time>
      </trkpt>
      <trkpt lat="45.74879" lon="6.86495">
        <ele>2475</ele>
        <time>2019-10-06T07:59:03Z</time>
      </trkpt>
      <trkpt lat="45.74879" lon="6.86492">
        <ele>2475</ele>
        <time>2019-10-06T07:59:05Z</time>
      </trkpt>
      <trkpt lat="45.74879" lon="6.86488">
        <ele>2477</ele>
        <time>2019-10-06T07:59:07Z</time>
      </trkpt>
      <trkpt lat="45.74878" lon="6.86485">
        <ele>2477</ele>
        <time>2019-10-06T07:59:09Z</time>
      </trkpt>
      <trkpt lat="45.74879" lon="6.86481">
        <ele>2477</ele>
        <time>2019-10-06T07:59:11Z</time>
      </trkpt>
      <trkpt lat="45.74878" lon="6.86477">
        <ele>2478</ele>
        <time>2019-10-06T07:59:13Z</time>
      </trkpt>
      <trkpt lat="45.74878" lon="6.86474">
        <ele>2478</ele>
        <time>2019-10-06T07:59:15Z</time>
      </trkpt>
      <trkpt lat="45.74878" lon="6.86471">
        <ele>2478</ele>
        <time>2019-10-06T07:59:17Z</time>
      </trkpt>
      <trkpt lat="45.74878" lon="6.86467">
        <ele>2478</ele>
        <time>2019-10-06T07:59:19Z</time>
      </trkpt>
      <trkpt lat="45.74879" lon="6.86464">
        <ele>2479</ele>
        <time>2019-10-06T07:59:21Z</time>
      </trkpt>
      <trkpt lat="45.74879" lon="6.86461">
        <ele>2479</ele>
        <time>2019-10-06T07:59:23Z</time>
      </trkpt>
      <trkpt lat="45.7488" lon="6.86458">
        <ele>2479</ele>
        <time>2019-10-06T07:59:25Z</time>
      </trkpt>
      <trkpt lat="45.74881" lon="6.86455">
        <ele>2479</ele>
        <time>2019-10-06T07:59:27Z</time>
      </trkpt>
      <trkpt lat="45.74882" lon="6.86451">
        <ele>2479</ele>
        <time>2019-10-06T07:59:29Z</time>
      </trkpt>
      <trkpt lat="45.74883" lon="6.86448">
        <ele>2480</ele>
        <time>2019-10-06T07:59:31Z</time>
      </trkpt>
      <trkpt lat="45.74884" lon="6.86445">
        <ele>2480</ele>
        <time>2019-10-06T07:59:33Z</time>
      </trkpt>
      <trkpt lat="45.74885" lon="6.86442">
        <ele>2480</ele>
        <time>2019-10-06T07:59:35Z</time>
      </trkpt>
      <trkpt lat="45.74886" lon="6.86439">
        <ele>2481</ele>
        <time>2019-10-06T07:59:37Z</time>
      </trkpt>
      <trkpt lat="45.74887" lon="6.86436">
        <ele>2481</ele>
        <time>2019-10-06T07:59:39Z</time>
      </trkpt>
      <trkpt lat="45.74888" lon="6.86433">
        <ele>2482</ele>
        <time>2019-10-06T07:59:41Z</time>
      </trkpt>
      <trkpt lat="45.74889" lon="6.8643">
        <ele>2482</ele>
        <time>2019-10-06T07:59:43Z</time>
      </trkpt>
      <trkpt lat="45.7489" lon="6.86427">
        <ele>2482</ele>
        <time>2019-10-06T07:59:45Z</time>
      </trkpt>
      <trkpt lat="45.74891" lon="6.86423">
        <ele>2482</ele>
        <time>2019-10-06T07:59:47Z</time>
      </trkpt>
      <trkpt lat="45.74893" lon="6.86421">
        <ele>2483</ele>
        <time>2019-10-06T07:59:49Z</time>
      </trkpt>
      <trkpt lat="45.74895" lon="6.86418">
        <ele>2483</ele>
        <time>2019-10-06T07:59:51Z</time>
      </trkpt>
      <trkpt lat="45.74897" lon="6.86415">
        <ele>2483</ele>
        <time>2019-10-06T07:59:53Z</time>
      </trkpt>
      <trkpt lat="45.74899" lon="6.86413">
        <ele>2483</ele>
        <time>2019-10-06T07:59:55Z</time>
      </trkpt>
      <trkpt lat="45.749" lon="6.86411">
        <ele>2484</ele>
        <time>2019-10-06T07:59:57Z</time>
      </trkpt>
      <trkpt lat="45.74903" lon="6.86409">
        <ele>2486</ele>
        <time>2019-10-06T07:59:59Z</time>
      </trkpt>
      <trkpt lat="45.74905" lon="6.86408">
        <ele>2486</ele>
        <time>2019-10-06T08:00:01Z</time>
      </trkpt>
      <trkpt lat="45.74907" lon="6.86408">
        <ele>2486</ele>
        <time>2019-10-06T08:00:03Z</time>
      </trkpt>
      <trkpt lat="45.7491" lon="6.86409">
        <ele>2487</ele>
        <time>2019-10-06T08:00:05Z</time>
      </trkpt>
      <trkpt lat="45.74911" lon="6.86411">
        <ele>2487</ele>
        <time>2019-10-06T08:00:07Z</time>
      </trkpt>
      <trkpt lat="45.74913" lon="6.86413">
        <ele>2487</ele>
        <time>2019-10-06T08:00:09Z</time>
      </trkpt>
      <trkpt lat="45.74915" lon="6.86416">
        <ele>2487</ele>
        <time>2019-10-06T08:00:11Z</time>
      </trkpt>
      <trkpt lat="45.74915" lon="6.8642">
        <ele>2488</ele>
        <time>2019-10-06T08:00:13Z</time>
      </trkpt>
      <trkpt lat="45.74916" lon="6.86423">
        <ele>2488</ele>
        <time>2019-10-06T08:00:15Z</time>
      </trkpt>
      <trkpt lat="45.74917" lon="6.86427">
        <ele>2488</ele>
        <time>2019-10-06T08:00:17Z</time>
      </trkpt>
      <trkpt lat="45.74918" lon="6.8643">
        <ele>2489</ele>
        <time>2019-10-06T08:00:19Z</time>
      </trkpt>
      <trkpt lat="45.7492" lon="6.86433">
        <ele>2489</ele>
        <time>2019-10-06T08:00:21Z</time>
      </trkpt>
      <trkpt lat="45.74921" lon="6.86436">
        <ele>2490</ele>
        <time>2019-10-06T08:00:23Z</time>
      </trkpt>
      <trkpt lat="45.74922" lon="6.86439">
        <ele>2490</ele>
        <time>2019-10-06T08:00:25Z</time>
      </trkpt>
      <trkpt lat="45.74924" lon="6.86442">
        <ele>2490</ele>
        <time>2019-10-06T08:00:27Z</time>
      </trkpt>
      <trkpt lat="45.74925" lon="6.86444">
        <ele>2490</ele>
        <time>2019-10-06T08:00:29Z</time>
      </trkpt>
      <trkpt lat="45.74927" lon="6.86446">
        <ele>2491</ele>
        <time>2019-10-06T08:00:31Z</time>
      </trkpt>
      <trkpt lat="45.74929" lon="6.86449">
        <ele>2492</ele>
        <time>2019-10-06T08:00:33Z</time>
      </trkpt>
      <trkpt lat="45.74931" lon="6.8645">
        <ele>2492</ele>
        <time>2019-10-06T08:00:35Z</time>
      </trkpt>
      <trkpt lat="45.74933" lon="6.8645">
        <ele>2492</ele>
        <time>2019-10-06T08:00:37Z</time>
      </trkpt>
      <trkpt lat="45.74935" lon="6.86449">
        <ele>2493</ele>
        <time>2019-10-06T08:00:39Z</time>
      </trkpt>
      <trkpt lat="45.74936" lon="6.86447">
        <ele>2493</ele>
        <time>2019-10-06T08:00:41Z</time>
      </trkpt>
      <trkpt lat="45.74937" lon="6.86444">
        <ele>2494</ele>
        <time>2019-10-06T08:00:43Z</time>
      </trkpt>
      <trkpt lat="45.74937" lon="6.86441">
        <ele>2494</ele>
        <time>2019-10-06T08:00:45Z</time>
      </trkpt>
      <trkpt lat="45.74938" lon="6.86437">
        <ele>2495</ele>
        <time>2019-10-06T08:00:47Z</time>
      </trkpt>
      <trkpt lat="45.74938" lon="6.86433">
        <ele>2495</ele>
        <time>2019-10-06T08:00:49Z</time>
      </trkpt>
      <trkpt lat="45.74937" lon="6.8643">
        <ele>2495</ele>
        <time>2019-10-06T08:00:51Z</time>
      </trkpt>
      <trkpt lat="45.74938" lon="6.86426">
        <ele>2496</ele>
        <time>2019-10-06T08:00:53Z</time>
      </trkpt>
      <trkpt lat="45.74937" lon="6.86422">
        <ele>2496</ele>
        <time>2019-10-06T08:00:55Z</time>
      </trkpt>
      <trkpt lat="45.74937" lon="6.86418">
        <ele>2496</ele>
        <time>2019-10-06T08:00:57Z</time>
      </trkpt>
      <trkpt lat="45.74938" lon="6.86415">
        <ele>2496</ele>
        <time>2019-10-06T08:00:59Z</time>
      </trkpt>
      <trkpt lat="45.74938" lon="6.86411">
        <ele>2496</ele>
        <time>2019-10-06T08:01:01Z</time>
      </trkpt>
      <trkpt lat="45.74939" lon="6.86408">
        <ele>2498</ele>
        <time>2019-10-06T08:01:03Z</time>
      </trkpt>
      <trkpt lat="45.7494" lon="6.86404">
        <ele>2498</ele>
        <time>2019-10-06T08:01:05Z</time>
      </trkpt>
      <trkpt lat="45.74942" lon="6.86401">
        <ele>2498</ele>
        <time>2019-10-06T08:01:07Z</time>
      </trkpt>
      <trkpt lat="45.74943" lon="6.86399">
        <ele>2499</ele>
        <time>2019-10-06T08:01:09Z</time>
      </trkpt>
      <trkpt lat="45.74945" lon="6.86396">
        <ele>2500</ele>
        <time>2019-10-06T08:01:11Z</time>
      </trkpt>
      <trkpt lat="45.74947" lon="6.86395">
        <ele>2500</ele>
        <time>2019-10-06T08:01:13Z</time>
      </trkpt>
      <trkpt lat="45.7495" lon="6.86395">
        <ele>2500</ele>
        <time>2019-10-06T08:01:15Z</time>
      </trkpt>
      <trkpt lat="45.74952" lon="6.86398">
        <ele>2501</ele>
        <time>2019-10-06T08:01:17Z</time>
      </trkpt>
      <trkpt lat="45.74954" lon="6.864">
        <ele>2501</ele>
        <time>2019-10-06T08:01:19Z</time>
      </trkpt>
      <trkpt lat="45.74955" lon="6.86404">
        <ele>2502</ele>
        <time>2019-10-06T08:01:21Z</time>
      </trkpt>
      <trkpt lat="45.74956" lon="6.86407">
        <ele>2502</ele>
        <time>2019-10-06T08:01:23Z</time>
      </trkpt>
      <trkpt lat="45.74957" lon="6.86411">
        <ele>2502</ele>
        <time>2019-10-06T08:01:25Z</time>
      </trkpt>
      <trkpt lat="45.74958" lon="6.86414">
        <ele>2502</ele>
        <time>2019-10-06T08:01:27Z</time>
      </trkpt>
      <trkpt lat="45.74959" lon="6.86417">
        <ele>2504</ele>
        <time>2019-10-06T08:01:29Z</time>
      </trkpt>
      <trkpt lat="45.7496" lon="6.86421">
        <ele>2504</ele>
        <time>2019-10-06T08:01:31Z</time>
      </trkpt>
      <trkpt lat="45.74961" lon="6.86424">
        <ele>2504</ele>
        <time>2019-10-06T08:01:33Z</time>
      </trkpt>
      <trkpt lat="45.74961" lon="6.86427">
        <ele>2504</ele>
        <time>2019-10-06T08:01:35Z</time>
      </trkpt>
      <trkpt lat="45.74962" lon="6.86431">
        <ele>2505</ele>
        <time>2019-10-06T08:01:37Z</time>
      </trkpt>
      <trkpt lat="45.74963" lon="6.86434">
        <ele>2505</ele>
        <time>2019-10-06T08:01:39Z</time>
      </trkpt>
      <trkpt lat="45.74964" lon="6.86437">
        <ele>2505</ele>
        <time>2019-10-06T08:01:41Z</time>
      </trkpt>
      <trkpt lat="45.74966" lon="6.8644">
        <ele>2505</ele>
        <time>2019-10-06T08:01:43Z</time>
      </trkpt>
      <trkpt lat="45.74967" lon="6.86442">
        <ele>2506</ele>
        <time>2019-10-06T08:01:45Z</time>
      </trkpt>
      <trkpt lat="45.74969" lon="6.86445">
        <ele>2506</ele>
        <time>2019-10-06T08:01:47Z</time>
      </trkpt>
      <trkpt lat="45.74971" lon="6.86447">
        <ele>2506</ele>
        <time>2019-10-06T08:01:49Z</time>
      </trkpt>
      <trkpt lat="45.74973" lon="6.86449">
        <ele>2506</ele>
        <time>2019-10-06T08:01:51Z</time>
      </trkpt>
      <trkpt lat="45.74975" lon="6.86452">
        <ele>2507</ele>
        <time>2019-10-06T08:01:53Z</time>
      </trkpt>
      <trkpt lat="45.74977" lon="6.86454">
        <ele>2507</ele>
        <time>2019-10-06T08:01:55Z</time>
      </trkpt>
      <trkpt lat="45.74979" lon="6.86456">
        <ele>2507</ele>
        <time>2019-10-06T08:01:57Z</time>
      </trkpt>
      <trkpt lat="45.74981" lon="6.86458">
        <ele>2507</ele>
        <time>2019-10-06T08:01:59Z</time>
      </trkpt>
      <trkpt lat="45.74983" lon="6.8646">
        <ele>2508</ele>
        <time>2019-10-06T08:02:01Z</time>
      </trkpt>
      <trkpt lat="45.74985" lon="6.86462">
        <ele>2508</ele>
        <time>2019-10-06T08:02:03Z</time>
      </trkpt>
      <trkpt lat="45.74987" lon="6.86464">
        <ele>2508</ele>
        <time>2019-10-06T08:02:05Z</time>
      </trkpt>
      <trkpt lat="45.74989" lon="6.86466">
        <ele>2508</ele>
        <time>2019-10-06T08:02:07Z</time>
      </trkpt>
      <trkpt lat="45.74991" lon="6.86468">
        <ele>2510</ele>
        <time>2019-10-06T08:02:09Z</time>
      </trkpt>
      <trkpt lat="45.74993" lon="6.8647">
        <ele>2510</ele>
        <time>2019-10-06T08:02:11Z</time>
      </trkpt>
      <trkpt lat="45.74996" lon="6.86471">
        <ele>2510</ele>
        <time>2019-10-06T08:02:13Z</time>
      </trkpt>
      <trkpt lat="45.74998" lon="6.86473">
        <ele>2510</ele>
        <time>2019-10-06T08:02:15Z</time>
      </trkpt>
      <trkpt lat="45.75" lon="6.86474">
        <ele>2511</ele>
        <time>2019-10-06T08:02:17Z</time>
      </trkpt>
      <trkpt lat="45.75002" lon="6.86477">
        <ele>2511</ele>
        <time>2019-10-06T08:02:19Z</time>
      </trkpt>
      <trkpt lat="45.75004" lon="6.86479">
        <ele>2511</ele>
        <time>2019-10-06T08:02:21Z</time>
      </trkpt>
      <trkpt lat="45.75007" lon="6.86481">
        <ele>2512</ele>
        <time>2019-10-06T08:02:23Z</time>
      </trkpt>
      <trkpt lat="45.75009" lon="6.86483">
        <ele>2512</ele>
        <time>2019-10-06T08:02:25Z</time>
      </trkpt>
      <trkpt lat="45.75011" lon="6.86485">
        <ele>2512</ele>
        <time>2019-10-06T08:02:27Z</time>
      </trkpt>
      <trkpt lat="45.75013" lon="6.86487">
        <ele>2513</ele>
        <time>2019-10-06T08:02:29Z</time>
      </trkpt>
      <trkpt lat="45.75015" lon="6.8649">
        <ele>2513</ele>
        <time>2019-10-06T08:02:31Z</time>
      </trkpt>
      <trkpt lat="45.75017" lon="6.86492">
        <ele>2513</ele>
        <time>2019-10-06T08:02:33Z</time>
      </trkpt>
      <trkpt lat="45.75018" lon="6.86495">
        <ele>2514</ele>
        <time>2019-10-06T08:02:35Z</time>
      </trkpt>
      <trkpt lat="45.7502" lon="6.86498">
        <ele>2514</ele>
        <time>2019-10-06T08:02:37Z</time>
      </trkpt>
      <trkpt lat="45.75022" lon="6.86501">
        <ele>2515</ele>
        <time>2019-10-06T08:02:39Z</time>
      </trkpt>
      <trkpt lat="45.75023" lon="6.86503">
        <ele>2515</ele>
        <time>2019-10-06T08:02:41Z</time>
      </trkpt>
      <trkpt lat="45.75026" lon="6.86504">
        <ele>2515</ele>
        <time>2019-10-06T08:02:43Z</time>
      </trkpt>
      <trkpt lat="45.75028" lon="6.86502">
        <ele>2515</ele>
        <time>2019-10-06T08:02:46Z</time>
      </trkpt>
      <trkpt lat="45.75028" lon="6.86502">
        <ele>2516</ele>
        <time>2019-10-06T08:02:47Z</time>
      </trkpt>
      <trkpt lat="45.75029" lon="6.865">
        <ele>2516</ele>
        <time>2019-10-06T08:02:48Z</time>
      </trkpt>
      <trkpt lat="45.7503" lon="6.86497">
        <ele>2516</ele>
        <time>2019-10-06T08:02:50Z</time>
      </trkpt>
      <trkpt lat="45.75032" lon="6.86495">
        <ele>2516</ele>
        <time>2019-10-06T08:02:52Z</time>
      </trkpt>
      <trkpt lat="45.75034" lon="6.86492">
        <ele>2516</ele>
        <time>2019-10-06T08:02:54Z</time>
      </trkpt>
      <trkpt lat="45.75035" lon="6.86488">
        <ele>2517</ele>
        <time>2019-10-06T08:02:56Z</time>
      </trkpt>
      <trkpt lat="45.75036" lon="6.86485">
        <ele>2517</ele>
        <time>2019-10-06T08:02:58Z</time>
      </trkpt>
      <trkpt lat="45.75037" lon="6.86482">
        <ele>2517</ele>
        <time>2019-10-06T08:03:00Z</time>
      </trkpt>
      <trkpt lat="45.75039" lon="6.86478">
        <ele>2517</ele>
        <time>2019-10-06T08:03:02Z</time>
      </trkpt>
      <trkpt lat="45.7504" lon="6.86475">
        <ele>2517</ele>
        <time>2019-10-06T08:03:04Z</time>
      </trkpt>
      <trkpt lat="45.75041" lon="6.86472">
        <ele>2518</ele>
        <time>2019-10-06T08:03:06Z</time>
      </trkpt>
      <trkpt lat="45.75041" lon="6.86469">
        <ele>2518</ele>
        <time>2019-10-06T08:03:08Z</time>
      </trkpt>
      <trkpt lat="45.75042" lon="6.86466">
        <ele>2518</ele>
        <time>2019-10-06T08:03:10Z</time>
      </trkpt>
      <trkpt lat="45.75044" lon="6.86463">
        <ele>2519</ele>
        <time>2019-10-06T08:03:12Z</time>
      </trkpt>
      <trkpt lat="45.75044" lon="6.8646">
        <ele>2519</ele>
        <time>2019-10-06T08:03:14Z</time>
      </trkpt>
      <trkpt lat="45.75045" lon="6.86457">
        <ele>2520</ele>
        <time>2019-10-06T08:03:16Z</time>
      </trkpt>
      <trkpt lat="45.75046" lon="6.86454">
        <ele>2520</ele>
        <time>2019-10-06T08:03:18Z</time>
      </trkpt>
      <trkpt lat="45.75046" lon="6.86452">
        <ele>2520</ele>
        <time>2019-10-06T08:03:20Z</time>
      </trkpt>
      <trkpt lat="45.75046" lon="6.86452">
        <ele>2520</ele>
        <time>2019-10-06T08:03:22Z</time>
      </trkpt>
      <trkpt lat="45.75046" lon="6.86452">
        <ele>2520</ele>
        <time>2019-10-06T08:03:26Z</time>
      </trkpt>
      <trkpt lat="45.75047" lon="6.8645">
        <ele>2522</ele>
        <time>2019-10-06T08:03:28Z</time>
      </trkpt>
      <trkpt lat="45.75047" lon="6.8645">
        <ele>2522</ele>
        <time>2019-10-06T08:03:31Z</time>
      </trkpt>
      <trkpt lat="45.75048" lon="6.86448">
        <ele>2522</ele>
        <time>2019-10-06T08:03:34Z</time>
      </trkpt>
      <trkpt lat="45.75048" lon="6.86448">
        <ele>2522</ele>
        <time>2019-10-06T08:03:36Z</time>
      </trkpt>
      <trkpt lat="45.75048" lon="6.86448">
        <ele>2522</ele>
        <time>2019-10-06T08:03:40Z</time>
      </trkpt>
      <trkpt lat="45.75048" lon="6.86448">
        <ele>2522</ele>
        <time>2019-10-06T08:03:44Z</time>
      </trkpt>
      <trkpt lat="45.75048" lon="6.86448">
        <ele>2522</ele>
        <time>2019-10-06T08:03:48Z</time>
      </trkpt>
      <trkpt lat="45.75048" lon="6.86448">
        <ele>2522</ele>
        <time>2019-10-06T08:03:52Z</time>
      </trkpt>
      <trkpt lat="45.75048" lon="6.86448">
        <ele>2522</ele>
        <time>2019-10-06T08:03:56Z</time>
      </trkpt>
      <trkpt lat="45.75048" lon="6.86448">
        <ele>2522</ele>
        <time>2019-10-06T08:04:00Z</time>
      </trkpt>
      <trkpt lat="45.75048" lon="6.86448">
        <ele>2522</ele>
        <time>2019-10-06T08:04:04Z</time>
      </trkpt>
      <trkpt lat="45.75048" lon="6.86448">
        <ele>2522</ele>
        <time>2019-10-06T08:04:08Z</time>
      </trkpt>
      <trkpt lat="45.75048" lon="6.86448">
        <ele>2522</ele>
        <time>2019-10-06T08:04:12Z</time>
      </trkpt>
      <trkpt lat="45.75048" lon="6.86448">
        <ele>2522</ele>
        <time>2019-10-06T08:04:16Z</time>
      </trkpt>
      <trkpt lat="45.75048" lon="6.86448">
        <ele>2522</ele>
        <time>2019-10-06T08:04:20Z</time>
      </trkpt>
      <trkpt lat="45.75048" lon="6.86448">
        <ele>2522</ele>
        <time>2019-10-06T08:04:24Z</time>
      </trkpt>
      <trkpt lat="45.75048" lon="6.86448">
        <ele>2522</ele>
        <time>2019-10-06T08:04:28Z</time>
      </trkpt>
      <trkpt lat="45.75048" lon="6.86448">
        <ele>2522</ele>
        <time>2019-10-06T08:04:32Z</time>
      </trkpt>
      <trkpt lat="45.75048" lon="6.86448">
        <ele>2522</ele>
        <time>2019-10-06T08:04:36Z</time>
      </trkpt>
      <trkpt lat="45.75048" lon="6.86448">
        <ele>2522</ele>
        <time>2019-10-06T08:04:40Z</time>
      </trkpt>
      <trkpt lat="45.75048" lon="6.86448">
        <ele>2522</ele>
        <time>2019-10-06T08:04:44Z</time>
      </trkpt>
      <trkpt lat="45.75048" lon="6.86448">
        <ele>2522</ele>
        <time>2019-10-06T08:04:48Z</time>
      </trkpt>
      <trkpt lat="45.75048" lon="6.86448">
        <ele>2522</ele>
        <time>2019-10-06T08:04:52Z</time>
      </trkpt>
      <trkpt lat="45.75048" lon="6.86448">
        <ele>2522</ele>
        <time>2019-10-06T08:04:56Z</time>
      </trkpt>
      <trkpt lat="45.75048" lon="6.86448">
        <ele>2522</ele>
        <time>2019-10-06T08:05:00Z</time>
      </trkpt>
      <trkpt lat="45.75048" lon="6.86448">
        <ele>2522</ele>
        <time>2019-10-06T08:05:04Z</time>
      </trkpt>
      <trkpt lat="45.75048" lon="6.86448">
        <ele>2522</ele>
        <time>2019-10-06T08:05:08Z</time>
      </trkpt>
      <trkpt lat="45.75048" lon="6.86448">
        <ele>2522</ele>
        <time>2019-10-06T08:05:12Z</time>
      </trkpt>
      <trkpt lat="45.75048" lon="6.86448">
        <ele>2522</ele>
        <time>2019-10-06T08:05:16Z</time>
      </trkpt>
      <trkpt lat="45.75048" lon="6.86448">
        <ele>2522</ele>
        <time>2019-10-06T08:05:20Z</time>
      </trkpt>
      <trkpt lat="45.75048" lon="6.86448">
        <ele>2522</ele>
        <time>2019-10-06T08:05:24Z</time>
      </trkpt>
      <trkpt lat="45.75048" lon="6.86448">
        <ele>2522</ele>
        <time>2019-10-06T08:05:28Z</time>
      </trkpt>
      <trkpt lat="45.7505" lon="6.86446">
        <ele>2522</ele>
        <time>2019-10-06T08:05:31Z</time>
      </trkpt>
      <trkpt lat="45.7505" lon="6.86446">
        <ele>2522</ele>
        <time>2019-10-06T08:05:33Z</time>
      </trkpt>
      <trkpt lat="45.7505" lon="6.86446">
        <ele>2522</ele>
        <time>2019-10-06T08:05:37Z</time>
      </trkpt>
      <trkpt lat="45.7505" lon="6.86446">
        <ele>2522</ele>
        <time>2019-10-06T08:05:41Z</time>
      </trkpt>
      <trkpt lat="45.75051" lon="6.86444">
        <ele>2522</ele>
        <time>2019-10-06T08:05:42Z</time>
      </trkpt>
      <trkpt lat="45.75053" lon="6.86446">
        <ele>2522</ele>
        <time>2019-10-06T08:05:46Z</time>
      </trkpt>
      <trkpt lat="45.75053" lon="6.86446">
        <ele>2522</ele>
        <time>2019-10-06T08:05:47Z</time>
      </trkpt>
      <trkpt lat="45.75053" lon="6.86446">
        <ele>2522</ele>
        <time>2019-10-06T08:05:51Z</time>
      </trkpt>
      <trkpt lat="45.75053" lon="6.86446">
        <ele>2522</ele>
        <time>2019-10-06T08:05:55Z</time>
      </trkpt>
      <trkpt lat="45.75053" lon="6.86446">
        <ele>2522</ele>
        <time>2019-10-06T08:05:59Z</time>
      </trkpt>
      <trkpt lat="45.75053" lon="6.86446">
        <ele>2522</ele>
        <time>2019-10-06T08:06:03Z</time>
      </trkpt>
      <trkpt lat="45.75053" lon="6.86446">
        <ele>2522</ele>
        <time>2019-10-06T08:06:07Z</time>
      </trkpt>
      <trkpt lat="45.75053" lon="6.86446">
        <ele>2522</ele>
        <time>2019-10-06T08:06:11Z</time>
      </trkpt>
      <trkpt lat="45.75053" lon="6.86446">
        <ele>2522</ele>
        <time>2019-10-06T08:06:15Z</time>
      </trkpt>
      <trkpt lat="45.75053" lon="6.86446">
        <ele>2522</ele>
        <time>2019-10-06T08:06:19Z</time>
      </trkpt>
      <trkpt lat="45.75053" lon="6.86446">
        <ele>2522</ele>
        <time>2019-10-06T08:06:23Z</time>
      </trkpt>
      <trkpt lat="45.75053" lon="6.86446">
        <ele>2520</ele>
        <time>2019-10-06T08:06:27Z</time>
      </trkpt>
      <trkpt lat="45.75053" lon="6.86446">
        <ele>2520</ele>
        <time>2019-10-06T08:06:31Z</time>
      </trkpt>
      <trkpt lat="45.75054" lon="6.86443">
        <ele>2519</ele>
        <time>2019-10-06T08:06:35Z</time>
      </trkpt>
      <trkpt lat="45.75054" lon="6.86443">
        <ele>2519</ele>
        <time>2019-10-06T08:06:36Z</time>
      </trkpt>
      <trkpt lat="45.75055" lon="6.86441">
        <ele>2520</ele>
        <time>2019-10-06T08:06:40Z</time>
      </trkpt>
      <trkpt lat="45.75055" lon="6.86441">
        <ele>2520</ele>
        <time>2019-10-06T08:06:41Z</time>
      </trkpt>
      <trkpt lat="45.75055" lon="6.86438">
        <ele>2520</ele>
        <time>2019-10-06T08:06:43Z</time>
      </trkpt>
      <trkpt lat="45.75056" lon="6.86435">
        <ele>2520</ele>
        <time>2019-10-06T08:06:45Z</time>
      </trkpt>
      <trkpt lat="45.75057" lon="6.86432">
        <ele>2522</ele>
        <time>2019-10-06T08:06:47Z</time>
      </trkpt>
      <trkpt lat="45.75058" lon="6.86429">
        <ele>2522</ele>
        <time>2019-10-06T08:06:49Z</time>
      </trkpt>
      <trkpt lat="45.75059" lon="6.86425">
        <ele>2522</ele>
        <time>2019-10-06T08:06:51Z</time>
      </trkpt>
      <trkpt lat="45.7506" lon="6.86421">
        <ele>2522</ele>
        <time>2019-10-06T08:06:53Z</time>
      </trkpt>
      <trkpt lat="45.75061" lon="6.86418">
        <ele>2522</ele>
        <time>2019-10-06T08:06:55Z</time>
      </trkpt>
      <trkpt lat="45.75061" lon="6.86414">
        <ele>2522</ele>
        <time>2019-10-06T08:06:57Z</time>
      </trkpt>
      <trkpt lat="45.75062" lon="6.8641">
        <ele>2522</ele>
        <time>2019-10-06T08:06:59Z</time>
      </trkpt>
      <trkpt lat="45.75062" lon="6.86406">
        <ele>2523</ele>
        <time>2019-10-06T08:07:01Z</time>
      </trkpt>
      <trkpt lat="45.75063" lon="6.86402">
        <ele>2523</ele>
        <time>2019-10-06T08:07:03Z</time>
      </trkpt>
      <trkpt lat="45.75063" lon="6.86398">
        <ele>2523</ele>
        <time>2019-10-06T08:07:05Z</time>
      </trkpt>
      <trkpt lat="45.75063" lon="6.86394">
        <ele>2523</ele>
        <time>2019-10-06T08:07:07Z</time>
      </trkpt>
      <trkpt lat="45.75063" lon="6.8639">
        <ele>2524</ele>
        <time>2019-10-06T08:07:09Z</time>
      </trkpt>
      <trkpt lat="45.75063" lon="6.86387">
        <ele>2524</ele>
        <time>2019-10-06T08:07:11Z</time>
      </trkpt>
      <trkpt lat="45.75063" lon="6.86383">
        <ele>2524</ele>
        <time>2019-10-06T08:07:13Z</time>
      </trkpt>
      <trkpt lat="45.75063" lon="6.86379">
        <ele>2524</ele>
        <time>2019-10-06T08:07:15Z</time>
      </trkpt>
      <trkpt lat="45.75062" lon="6.86375">
        <ele>2525</ele>
        <time>2019-10-06T08:07:17Z</time>
      </trkpt>
      <trkpt lat="45.75062" lon="6.86372">
        <ele>2526</ele>
        <time>2019-10-06T08:07:19Z</time>
      </trkpt>
      <trkpt lat="45.75062" lon="6.86368">
        <ele>2526</ele>
        <time>2019-10-06T08:07:21Z</time>
      </trkpt>
      <trkpt lat="45.75061" lon="6.86364">
        <ele>2526</ele>
        <time>2019-10-06T08:07:23Z</time>
      </trkpt>
      <trkpt lat="45.7506" lon="6.8636">
        <ele>2525</ele>
        <time>2019-10-06T08:07:25Z</time>
      </trkpt>
      <trkpt lat="45.7506" lon="6.86356">
        <ele>2525</ele>
        <time>2019-10-06T08:07:27Z</time>
      </trkpt>
      <trkpt lat="45.75059" lon="6.86353">
        <ele>2525</ele>
        <time>2019-10-06T08:07:29Z</time>
      </trkpt>
      <trkpt lat="45.75059" lon="6.86349">
        <ele>2526</ele>
        <time>2019-10-06T08:07:31Z</time>
      </trkpt>
      <trkpt lat="45.75058" lon="6.86346">
        <ele>2527</ele>
        <time>2019-10-06T08:07:33Z</time>
      </trkpt>
      <trkpt lat="45.75058" lon="6.86342">
        <ele>2527</ele>
        <time>2019-10-06T08:07:35Z</time>
      </trkpt>
      <trkpt lat="45.75057" lon="6.86338">
        <ele>2527</ele>
        <time>2019-10-06T08:07:37Z</time>
      </trkpt>
      <trkpt lat="45.75056" lon="6.86335">
        <ele>2527</ele>
        <time>2019-10-06T08:07:39Z</time>
      </trkpt>
      <trkpt lat="45.75056" lon="6.86332">
        <ele>2527</ele>
        <time>2019-10-06T08:07:41Z</time>
      </trkpt>
      <trkpt lat="45.75055" lon="6.86328">
        <ele>2527</ele>
        <time>2019-10-06T08:07:43Z</time>
      </trkpt>
      <trkpt lat="45.75055" lon="6.86324">
        <ele>2528</ele>
        <time>2019-10-06T08:07:45Z</time>
      </trkpt>
      <trkpt lat="45.75054" lon="6.86321">
        <ele>2528</ele>
        <time>2019-10-06T08:07:47Z</time>
      </trkpt>
      <trkpt lat="45.75053" lon="6.86317">
        <ele>2528</ele>
        <time>2019-10-06T08:07:49Z</time>
      </trkpt>
      <trkpt lat="45.75052" lon="6.86314">
        <ele>2528</ele>
        <time>2019-10-06T08:07:51Z</time>
      </trkpt>
      <trkpt lat="45.75051" lon="6.8631">
        <ele>2528</ele>
        <time>2019-10-06T08:07:53Z</time>
      </trkpt>
      <trkpt lat="45.7505" lon="6.86307">
        <ele>2529</ele>
        <time>2019-10-06T08:07:55Z</time>
      </trkpt>
      <trkpt lat="45.75049" lon="6.86303">
        <ele>2530</ele>
        <time>2019-10-06T08:07:57Z</time>
      </trkpt>
      <trkpt lat="45.75048" lon="6.863">
        <ele>2530</ele>
        <time>2019-10-06T08:07:59Z</time>
      </trkpt>
      <trkpt lat="45.75047" lon="6.86296">
        <ele>2530</ele>
        <time>2019-10-06T08:08:01Z</time>
      </trkpt>
      <trkpt lat="45.75046" lon="6.86293">
        <ele>2529</ele>
        <time>2019-10-06T08:08:03Z</time>
      </trkpt>
      <trkpt lat="45.75045" lon="6.86289">
        <ele>2529</ele>
        <time>2019-10-06T08:08:05Z</time>
      </trkpt>
      <trkpt lat="45.75045" lon="6.86285">
        <ele>2529</ele>
        <time>2019-10-06T08:08:07Z</time>
      </trkpt>
      <trkpt lat="45.75044" lon="6.86281">
        <ele>2530</ele>
        <time>2019-10-06T08:08:09Z</time>
      </trkpt>
      <trkpt lat="45.75043" lon="6.86278">
        <ele>2530</ele>
        <time>2019-10-06T08:08:11Z</time>
      </trkpt>
      <trkpt lat="45.75042" lon="6.86274">
        <ele>2530</ele>
        <time>2019-10-06T08:08:13Z</time>
      </trkpt>
      <trkpt lat="45.7504" lon="6.8627">
        <ele>2530</ele>
        <time>2019-10-06T08:08:15Z</time>
      </trkpt>
      <trkpt lat="45.75039" lon="6.86267">
        <ele>2530</ele>
        <time>2019-10-06T08:08:17Z</time>
      </trkpt>
      <trkpt lat="45.75037" lon="6.86265">
        <ele>2530</ele>
        <time>2019-10-06T08:08:19Z</time>
      </trkpt>
      <trkpt lat="45.75035" lon="6.86263">
        <ele>2531</ele>
        <time>2019-10-06T08:08:21Z</time>
      </trkpt>
      <trkpt lat="45.75033" lon="6.86261">
        <ele>2531</ele>
        <time>2019-10-06T08:08:23Z</time>
      </trkpt>
      <trkpt lat="45.75031" lon="6.86259">
        <ele>2531</ele>
        <time>2019-10-06T08:08:25Z</time>
      </trkpt>
      <trkpt lat="45.75028" lon="6.86257">
        <ele>2531</ele>
        <time>2019-10-06T08:08:27Z</time>
      </trkpt>
      <trkpt lat="45.75025" lon="6.86256">
        <ele>2532</ele>
        <time>2019-10-06T08:08:29Z</time>
      </trkpt>
      <trkpt lat="45.75023" lon="6.86255">
        <ele>2532</ele>
        <time>2019-10-06T08:08:31Z</time>
      </trkpt>
      <trkpt lat="45.7502" lon="6.86254">
        <ele>2532</ele>
        <time>2019-10-06T08:08:33Z</time>
      </trkpt>
      <trkpt lat="45.75018" lon="6.86253">
        <ele>2532</ele>
        <time>2019-10-06T08:08:35Z</time>
      </trkpt>
      <trkpt lat="45.75015" lon="6.86252">
        <ele>2532</ele>
        <time>2019-10-06T08:08:37Z</time>
      </trkpt>
      <trkpt lat="45.75013" lon="6.86252">
        <ele>2532</ele>
        <time>2019-10-06T08:08:39Z</time>
      </trkpt>
      <trkpt lat="45.7501" lon="6.86251">
        <ele>2533</ele>
        <time>2019-10-06T08:08:41Z</time>
      </trkpt>
      <trkpt lat="45.75008" lon="6.8625">
        <ele>2533</ele>
        <time>2019-10-06T08:08:43Z</time>
      </trkpt>
      <trkpt lat="45.75005" lon="6.86249">
        <ele>2535</ele>
        <time>2019-10-06T08:08:45Z</time>
      </trkpt>
      <trkpt lat="45.75003" lon="6.86248">
        <ele>2535</ele>
        <time>2019-10-06T08:08:47Z</time>
      </trkpt>
      <trkpt lat="45.75001" lon="6.86248">
        <ele>2535</ele>
        <time>2019-10-06T08:08:49Z</time>
      </trkpt>
      <trkpt lat="45.74998" lon="6.86247">
        <ele>2535</ele>
        <time>2019-10-06T08:08:51Z</time>
      </trkpt>
      <trkpt lat="45.74996" lon="6.86245">
        <ele>2536</ele>
        <time>2019-10-06T08:08:53Z</time>
      </trkpt>
      <trkpt lat="45.74994" lon="6.86244">
        <ele>2536</ele>
        <time>2019-10-06T08:08:55Z</time>
      </trkpt>
      <trkpt lat="45.74991" lon="6.86243">
        <ele>2537</ele>
        <time>2019-10-06T08:08:57Z</time>
      </trkpt>
      <trkpt lat="45.74989" lon="6.86242">
        <ele>2537</ele>
        <time>2019-10-06T08:08:59Z</time>
      </trkpt>
      <trkpt lat="45.74987" lon="6.8624">
        <ele>2537</ele>
        <time>2019-10-06T08:09:01Z</time>
      </trkpt>
      <trkpt lat="45.74985" lon="6.86238">
        <ele>2537</ele>
        <time>2019-10-06T08:09:03Z</time>
      </trkpt>
      <trkpt lat="45.74983" lon="6.86236">
        <ele>2537</ele>
        <time>2019-10-06T08:09:05Z</time>
      </trkpt>
      <trkpt lat="45.74981" lon="6.86233">
        <ele>2538</ele>
        <time>2019-10-06T08:09:07Z</time>
      </trkpt>
      <trkpt lat="45.7498" lon="6.86229">
        <ele>2538</ele>
        <time>2019-10-06T08:09:09Z</time>
      </trkpt>
      <trkpt lat="45.74979" lon="6.86225">
        <ele>2538</ele>
        <time>2019-10-06T08:09:11Z</time>
      </trkpt>
      <trkpt lat="45.74979" lon="6.86222">
        <ele>2538</ele>
        <time>2019-10-06T08:09:13Z</time>
      </trkpt>
      <trkpt lat="45.74978" lon="6.86218">
        <ele>2539</ele>
        <time>2019-10-06T08:09:15Z</time>
      </trkpt>
      <trkpt lat="45.74978" lon="6.86215">
        <ele>2539</ele>
        <time>2019-10-06T08:09:17Z</time>
      </trkpt>
      <trkpt lat="45.74978" lon="6.86211">
        <ele>2539</ele>
        <time>2019-10-06T08:09:19Z</time>
      </trkpt>
      <trkpt lat="45.74977" lon="6.86208">
        <ele>2540</ele>
        <time>2019-10-06T08:09:21Z</time>
      </trkpt>
      <trkpt lat="45.74977" lon="6.86204">
        <ele>2540</ele>
        <time>2019-10-06T08:09:23Z</time>
      </trkpt>
      <trkpt lat="45.74977" lon="6.86201">
        <ele>2540</ele>
        <time>2019-10-06T08:09:25Z</time>
      </trkpt>
      <trkpt lat="45.74976" lon="6.86197">
        <ele>2540</ele>
        <time>2019-10-06T08:09:27Z</time>
      </trkpt>
      <trkpt lat="45.74976" lon="6.86193">
        <ele>2541</ele>
        <time>2019-10-06T08:09:29Z</time>
      </trkpt>
      <trkpt lat="45.74976" lon="6.8619">
        <ele>2541</ele>
        <time>2019-10-06T08:09:31Z</time>
      </trkpt>
      <trkpt lat="45.74976" lon="6.86186">
        <ele>2542</ele>
        <time>2019-10-06T08:09:33Z</time>
      </trkpt>
      <trkpt lat="45.74977" lon="6.86183">
        <ele>2542</ele>
        <time>2019-10-06T08:09:35Z</time>
      </trkpt>
      <trkpt lat="45.74977" lon="6.8618">
        <ele>2542</ele>
        <time>2019-10-06T08:09:37Z</time>
      </trkpt>
      <trkpt lat="45.74978" lon="6.86176">
        <ele>2542</ele>
        <time>2019-10-06T08:09:39Z</time>
      </trkpt>
      <trkpt lat="45.74978" lon="6.86173">
        <ele>2542</ele>
        <time>2019-10-06T08:09:41Z</time>
      </trkpt>
      <trkpt lat="45.74979" lon="6.86169">
        <ele>2543</ele>
        <time>2019-10-06T08:09:43Z</time>
      </trkpt>
      <trkpt lat="45.7498" lon="6.86166">
        <ele>2543</ele>
        <time>2019-10-06T08:09:45Z</time>
      </trkpt>
      <trkpt lat="45.74981" lon="6.86163">
        <ele>2543</ele>
        <time>2019-10-06T08:09:47Z</time>
      </trkpt>
      <trkpt lat="45.74982" lon="6.8616">
        <ele>2543</ele>
        <time>2019-10-06T08:09:49Z</time>
      </trkpt>
      <trkpt lat="45.74983" lon="6.86157">
        <ele>2544</ele>
        <time>2019-10-06T08:09:51Z</time>
      </trkpt>
      <trkpt lat="45.74984" lon="6.86154">
        <ele>2544</ele>
        <time>2019-10-06T08:09:53Z</time>
      </trkpt>
      <trkpt lat="45.74985" lon="6.8615">
        <ele>2545</ele>
        <time>2019-10-06T08:09:55Z</time>
      </trkpt>
      <trkpt lat="45.74986" lon="6.86147">
        <ele>2545</ele>
        <time>2019-10-06T08:09:57Z</time>
      </trkpt>
      <trkpt lat="45.74986" lon="6.86144">
        <ele>2545</ele>
        <time>2019-10-06T08:09:59Z</time>
      </trkpt>
      <trkpt lat="45.74987" lon="6.8614">
        <ele>2545</ele>
        <time>2019-10-06T08:10:01Z</time>
      </trkpt>
      <trkpt lat="45.74988" lon="6.86137">
        <ele>2547</ele>
        <time>2019-10-06T08:10:03Z</time>
      </trkpt>
      <trkpt lat="45.74989" lon="6.86134">
        <ele>2548</ele>
        <time>2019-10-06T08:10:05Z</time>
      </trkpt>
      <trkpt lat="45.74989" lon="6.86131">
        <ele>2548</ele>
        <time>2019-10-06T08:10:07Z</time>
      </trkpt>
      <trkpt lat="45.7499" lon="6.86127">
        <ele>2548</ele>
        <time>2019-10-06T08:10:09Z</time>
      </trkpt>
      <trkpt lat="45.74991" lon="6.86124">
        <ele>2548</ele>
        <time>2019-10-06T08:10:11Z</time>
      </trkpt>
      <trkpt lat="45.74992" lon="6.86121">
        <ele>2548</ele>
        <time>2019-10-06T08:10:13Z</time>
      </trkpt>
      <trkpt lat="45.74992" lon="6.86117">
        <ele>2548</ele>
        <time>2019-10-06T08:10:15Z</time>
      </trkpt>
      <trkpt lat="45.74993" lon="6.86115">
        <ele>2549</ele>
        <time>2019-10-06T08:10:17Z</time>
      </trkpt>
      <trkpt lat="45.74993" lon="6.86111">
        <ele>2549</ele>
        <time>2019-10-06T08:10:19Z</time>
      </trkpt>
      <trkpt lat="45.74992" lon="6.86108">
        <ele>2549</ele>
        <time>2019-10-06T08:10:21Z</time>
      </trkpt>
      <trkpt lat="45.74993" lon="6.86105">
        <ele>2550</ele>
        <time>2019-10-06T08:10:23Z</time>
      </trkpt>
      <trkpt lat="45.74993" lon="6.86102">
        <ele>2550</ele>
        <time>2019-10-06T08:10:25Z</time>
      </trkpt>
      <trkpt lat="45.74994" lon="6.86098">
        <ele>2551</ele>
        <time>2019-10-06T08:10:27Z</time>
      </trkpt>
      <trkpt lat="45.74994" lon="6.86095">
        <ele>2551</ele>
        <time>2019-10-06T08:10:29Z</time>
      </trkpt>
      <trkpt lat="45.74995" lon="6.86092">
        <ele>2551</ele>
        <time>2019-10-06T08:10:31Z</time>
      </trkpt>
      <trkpt lat="45.74996" lon="6.86089">
        <ele>2551</ele>
        <time>2019-10-06T08:10:33Z</time>
      </trkpt>
      <trkpt lat="45.74997" lon="6.86086">
        <ele>2552</ele>
        <time>2019-10-06T08:10:35Z</time>
      </trkpt>
      <trkpt lat="45.74998" lon="6.86083">
        <ele>2552</ele>
        <time>2019-10-06T08:10:37Z</time>
      </trkpt>
      <trkpt lat="45.74999" lon="6.8608">
        <ele>2553</ele>
        <time>2019-10-06T08:10:39Z</time>
      </trkpt>
      <trkpt lat="45.75001" lon="6.86078">
        <ele>2553</ele>
        <time>2019-10-06T08:10:41Z</time>
      </trkpt>
      <trkpt lat="45.75001" lon="6.86075">
        <ele>2553</ele>
        <time>2019-10-06T08:10:43Z</time>
      </trkpt>
      <trkpt lat="45.75002" lon="6.86072">
        <ele>2553</ele>
        <time>2019-10-06T08:10:45Z</time>
      </trkpt>
      <trkpt lat="45.75003" lon="6.86069">
        <ele>2554</ele>
        <time>2019-10-06T08:10:47Z</time>
      </trkpt>
      <trkpt lat="45.75004" lon="6.86066">
        <ele>2554</ele>
        <time>2019-10-06T08:10:49Z</time>
      </trkpt>
      <trkpt lat="45.75005" lon="6.86063">
        <ele>2554</ele>
        <time>2019-10-06T08:10:51Z</time>
      </trkpt>
      <trkpt lat="45.75006" lon="6.86061">
        <ele>2554</ele>
        <time>2019-10-06T08:10:53Z</time>
      </trkpt>
      <trkpt lat="45.75007" lon="6.86059">
        <ele>2554</ele>
        <time>2019-10-06T08:10:55Z</time>
      </trkpt>
      <trkpt lat="45.75007" lon="6.86059">
        <ele>2555</ele>
        <time>2019-10-06T08:10:58Z</time>
      </trkpt>
      <trkpt lat="45.75008" lon="6.86056">
        <ele>2555</ele>
        <time>2019-10-06T08:11:01Z</time>
      </trkpt>
      <trkpt lat="45.75008" lon="6.86056">
        <ele>2555</ele>
        <time>2019-10-06T08:11:03Z</time>
      </trkpt>
      <trkpt lat="45.75008" lon="6.86054">
        <ele>2555</ele>
        <time>2019-10-06T08:11:05Z</time>
      </trkpt>
      <trkpt lat="45.75009" lon="6.86051">
        <ele>2555</ele>
        <time>2019-10-06T08:11:07Z</time>
      </trkpt>
      <trkpt lat="45.7501" lon="6.86048">
        <ele>2555</ele>
        <time>2019-10-06T08:11:09Z</time>
      </trkpt>
      <trkpt lat="45.75011" lon="6.86045">
        <ele>2555</ele>
        <time>2019-10-06T08:11:11Z</time>
      </trkpt>
      <trkpt lat="45.75013" lon="6.86043">
        <ele>2555</ele>
        <time>2019-10-06T08:11:13Z</time>
      </trkpt>
      <trkpt lat="45.75015" lon="6.8604">
        <ele>2555</ele>
        <time>2019-10-06T08:11:15Z</time>
      </trkpt>
      <trkpt lat="45.75016" lon="6.86037">
        <ele>2556</ele>
        <time>2019-10-06T08:11:17Z</time>
      </trkpt>
      <trkpt lat="45.75017" lon="6.86033">
        <ele>2557</ele>
        <time>2019-10-06T08:11:19Z</time>
      </trkpt>
      <trkpt lat="45.75017" lon="6.8603">
        <ele>2557</ele>
        <time>2019-10-06T08:11:21Z</time>
      </trkpt>
      <trkpt lat="45.75018" lon="6.86027">
        <ele>2557</ele>
        <time>2019-10-06T08:11:23Z</time>
      </trkpt>
      <trkpt lat="45.75019" lon="6.86023">
        <ele>2559</ele>
        <time>2019-10-06T08:11:25Z</time>
      </trkpt>
      <trkpt lat="45.7502" lon="6.8602">
        <ele>2559</ele>
        <time>2019-10-06T08:11:27Z</time>
      </trkpt>
      <trkpt lat="45.7502" lon="6.86017">
        <ele>2559</ele>
        <time>2019-10-06T08:11:29Z</time>
      </trkpt>
      <trkpt lat="45.75021" lon="6.86014">
        <ele>2560</ele>
        <time>2019-10-06T08:11:31Z</time>
      </trkpt>
      <trkpt lat="45.75021" lon="6.86011">
        <ele>2560</ele>
        <time>2019-10-06T08:11:33Z</time>
      </trkpt>
      <trkpt lat="45.75021" lon="6.86008">
        <ele>2561</ele>
        <time>2019-10-06T08:11:35Z</time>
      </trkpt>
      <trkpt lat="45.75022" lon="6.86005">
        <ele>2561</ele>
        <time>2019-10-06T08:11:37Z</time>
      </trkpt>
      <trkpt lat="45.75022" lon="6.86001">
        <ele>2562</ele>
        <time>2019-10-06T08:11:39Z</time>
      </trkpt>
      <trkpt lat="45.75023" lon="6.85997">
        <ele>2562</ele>
        <time>2019-10-06T08:11:41Z</time>
      </trkpt>
      <trkpt lat="45.75023" lon="6.85994">
        <ele>2562</ele>
        <time>2019-10-06T08:11:43Z</time>
      </trkpt>
      <trkpt lat="45.75024" lon="6.8599">
        <ele>2562</ele>
        <time>2019-10-06T08:11:45Z</time>
      </trkpt>
      <trkpt lat="45.75025" lon="6.85987">
        <ele>2563</ele>
        <time>2019-10-06T08:11:47Z</time>
      </trkpt>
      <trkpt lat="45.75026" lon="6.85983">
        <ele>2564</ele>
        <time>2019-10-06T08:11:49Z</time>
      </trkpt>
      <trkpt lat="45.75027" lon="6.85979">
        <ele>2564</ele>
        <time>2019-10-06T08:11:51Z</time>
      </trkpt>
      <trkpt lat="45.75028" lon="6.85976">
        <ele>2564</ele>
        <time>2019-10-06T08:11:53Z</time>
      </trkpt>
      <trkpt lat="45.75028" lon="6.85972">
        <ele>2564</ele>
        <time>2019-10-06T08:11:55Z</time>
      </trkpt>
      <trkpt lat="45.7503" lon="6.85968">
        <ele>2564</ele>
        <time>2019-10-06T08:11:57Z</time>
      </trkpt>
      <trkpt lat="45.75031" lon="6.85964">
        <ele>2565</ele>
        <time>2019-10-06T08:11:59Z</time>
      </trkpt>
      <trkpt lat="45.75032" lon="6.85961">
        <ele>2565</ele>
        <time>2019-10-06T08:12:01Z</time>
      </trkpt>
      <trkpt lat="45.75032" lon="6.85957">
        <ele>2565</ele>
        <time>2019-10-06T08:12:03Z</time>
      </trkpt>
      <trkpt lat="45.75033" lon="6.85953">
        <ele>2566</ele>
        <time>2019-10-06T08:12:05Z</time>
      </trkpt>
      <trkpt lat="45.75034" lon="6.8595">
        <ele>2566</ele>
        <time>2019-10-06T08:12:07Z</time>
      </trkpt>
      <trkpt lat="45.75035" lon="6.85946">
        <ele>2566</ele>
        <time>2019-10-06T08:12:09Z</time>
      </trkpt>
      <trkpt lat="45.75036" lon="6.85942">
        <ele>2566</ele>
        <time>2019-10-06T08:12:11Z</time>
      </trkpt>
      <trkpt lat="45.75037" lon="6.85938">
        <ele>2567</ele>
        <time>2019-10-06T08:12:13Z</time>
      </trkpt>
      <trkpt lat="45.75037" lon="6.85934">
        <ele>2567</ele>
        <time>2019-10-06T08:12:15Z</time>
      </trkpt>
      <trkpt lat="45.75039" lon="6.8593">
        <ele>2568</ele>
        <time>2019-10-06T08:12:17Z</time>
      </trkpt>
      <trkpt lat="45.75039" lon="6.85926">
        <ele>2568</ele>
        <time>2019-10-06T08:12:19Z</time>
      </trkpt>
      <trkpt lat="45.75041" lon="6.85922">
        <ele>2568</ele>
        <time>2019-10-06T08:12:21Z</time>
      </trkpt>
      <trkpt lat="45.75042" lon="6.85918">
        <ele>2568</ele>
        <time>2019-10-06T08:12:23Z</time>
      </trkpt>
      <trkpt lat="45.75042" lon="6.85915">
        <ele>2568</ele>
        <time>2019-10-06T08:12:25Z</time>
      </trkpt>
      <trkpt lat="45.75043" lon="6.85911">
        <ele>2568</ele>
        <time>2019-10-06T08:12:27Z</time>
      </trkpt>
      <trkpt lat="45.75044" lon="6.85907">
        <ele>2568</ele>
        <time>2019-10-06T08:12:29Z</time>
      </trkpt>
      <trkpt lat="45.75045" lon="6.85903">
        <ele>2568</ele>
        <time>2019-10-06T08:12:31Z</time>
      </trkpt>
      <trkpt lat="45.75046" lon="6.85899">
        <ele>2569</ele>
        <time>2019-10-06T08:12:33Z</time>
      </trkpt>
      <trkpt lat="45.75048" lon="6.85895">
        <ele>2569</ele>
        <time>2019-10-06T08:12:35Z</time>
      </trkpt>
      <trkpt lat="45.75049" lon="6.85892">
        <ele>2569</ele>
        <time>2019-10-06T08:12:37Z</time>
      </trkpt>
      <trkpt lat="45.75052" lon="6.85888">
        <ele>2569</ele>
        <time>2019-10-06T08:12:39Z</time>
      </trkpt>
      <trkpt lat="45.75053" lon="6.85885">
        <ele>2571</ele>
        <time>2019-10-06T08:12:41Z</time>
      </trkpt>
      <trkpt lat="45.75055" lon="6.85881">
        <ele>2571</ele>
        <time>2019-10-06T08:12:43Z</time>
      </trkpt>
      <trkpt lat="45.75056" lon="6.85877">
        <ele>2571</ele>
        <time>2019-10-06T08:12:45Z</time>
      </trkpt>
      <trkpt lat="45.75057" lon="6.85873">
        <ele>2571</ele>
        <time>2019-10-06T08:12:47Z</time>
      </trkpt>
      <trkpt lat="45.75058" lon="6.85869">
        <ele>2572</ele>
        <time>2019-10-06T08:12:49Z</time>
      </trkpt>
      <trkpt lat="45.75059" lon="6.85865">
        <ele>2572</ele>
        <time>2019-10-06T08:12:51Z</time>
      </trkpt>
      <trkpt lat="45.75059" lon="6.85861">
        <ele>2572</ele>
        <time>2019-10-06T08:12:53Z</time>
      </trkpt>
      <trkpt lat="45.7506" lon="6.85857">
        <ele>2572</ele>
        <time>2019-10-06T08:12:55Z</time>
      </trkpt>
      <trkpt lat="45.75061" lon="6.85852">
        <ele>2572</ele>
        <time>2019-10-06T08:12:57Z</time>
      </trkpt>
      <trkpt lat="45.75062" lon="6.85849">
        <ele>2572</ele>
        <time>2019-10-06T08:12:59Z</time>
      </trkpt>
      <trkpt lat="45.75063" lon="6.85845">
        <ele>2573</ele>
        <time>2019-10-06T08:13:01Z</time>
      </trkpt>
      <trkpt lat="45.75063" lon="6.85841">
        <ele>2573</ele>
        <time>2019-10-06T08:13:03Z</time>
      </trkpt>
      <trkpt lat="45.75064" lon="6.85837">
        <ele>2573</ele>
        <time>2019-10-06T08:13:05Z</time>
      </trkpt>
      <trkpt lat="45.75065" lon="6.85833">
        <ele>2574</ele>
        <time>2019-10-06T08:13:07Z</time>
      </trkpt>
      <trkpt lat="45.75065" lon="6.85829">
        <ele>2575</ele>
        <time>2019-10-06T08:13:09Z</time>
      </trkpt>
      <trkpt lat="45.75066" lon="6.85825">
        <ele>2575</ele>
        <time>2019-10-06T08:13:11Z</time>
      </trkpt>
      <trkpt lat="45.75066" lon="6.85821">
        <ele>2575</ele>
        <time>2019-10-06T08:13:13Z</time>
      </trkpt>
      <trkpt lat="45.75067" lon="6.85816">
        <ele>2575</ele>
        <time>2019-10-06T08:13:15Z</time>
      </trkpt>
      <trkpt lat="45.75067" lon="6.85812">
        <ele>2575</ele>
        <time>2019-10-06T08:13:17Z</time>
      </trkpt>
      <trkpt lat="45.75068" lon="6.85808">
        <ele>2575</ele>
        <time>2019-10-06T08:13:19Z</time>
      </trkpt>
      <trkpt lat="45.75069" lon="6.85804">
        <ele>2575</ele>
        <time>2019-10-06T08:13:21Z</time>
      </trkpt>
      <trkpt lat="45.7507" lon="6.858">
        <ele>2576</ele>
        <time>2019-10-06T08:13:23Z</time>
      </trkpt>
      <trkpt lat="45.75071" lon="6.85795">
        <ele>2576</ele>
        <time>2019-10-06T08:13:25Z</time>
      </trkpt>
      <trkpt lat="45.75072" lon="6.85791">
        <ele>2576</ele>
        <time>2019-10-06T08:13:27Z</time>
      </trkpt>
      <trkpt lat="45.75073" lon="6.85786">
        <ele>2576</ele>
        <time>2019-10-06T08:13:29Z</time>
      </trkpt>
      <trkpt lat="45.75074" lon="6.85782">
        <ele>2576</ele>
        <time>2019-10-06T08:13:31Z</time>
      </trkpt>
      <trkpt lat="45.75075" lon="6.85778">
        <ele>2577</ele>
        <time>2019-10-06T08:13:33Z</time>
      </trkpt>
      <trkpt lat="45.75076" lon="6.85774">
        <ele>2577</ele>
        <time>2019-10-06T08:13:35Z</time>
      </trkpt>
      <trkpt lat="45.75077" lon="6.8577">
        <ele>2577</ele>
        <time>2019-10-06T08:13:37Z</time>
      </trkpt>
      <trkpt lat="45.75078" lon="6.85766">
        <ele>2577</ele>
        <time>2019-10-06T08:13:39Z</time>
      </trkpt>
      <trkpt lat="45.75079" lon="6.85761">
        <ele>2577</ele>
        <time>2019-10-06T08:13:41Z</time>
      </trkpt>
      <trkpt lat="45.75079" lon="6.85757">
        <ele>2577</ele>
        <time>2019-10-06T08:13:43Z</time>
      </trkpt>
      <trkpt lat="45.7508" lon="6.85753">
        <ele>2577</ele>
        <time>2019-10-06T08:13:45Z</time>
      </trkpt>
      <trkpt lat="45.7508" lon="6.85749">
        <ele>2577</ele>
        <time>2019-10-06T08:13:47Z</time>
      </trkpt>
      <trkpt lat="45.75081" lon="6.85745">
        <ele>2577</ele>
        <time>2019-10-06T08:13:49Z</time>
      </trkpt>
      <trkpt lat="45.75081" lon="6.8574">
        <ele>2578</ele>
        <time>2019-10-06T08:13:51Z</time>
      </trkpt>
      <trkpt lat="45.75081" lon="6.85736">
        <ele>2578</ele>
        <time>2019-10-06T08:13:53Z</time>
      </trkpt>
      <trkpt lat="45.75081" lon="6.85731">
        <ele>2579</ele>
        <time>2019-10-06T08:13:55Z</time>
      </trkpt>
      <trkpt lat="45.75081" lon="6.85727">
        <ele>2580</ele>
        <time>2019-10-06T08:13:57Z</time>
      </trkpt>
      <trkpt lat="45.75082" lon="6.85722">
        <ele>2580</ele>
        <time>2019-10-06T08:13:59Z</time>
      </trkpt>
      <trkpt lat="45.75082" lon="6.85718">
        <ele>2580</ele>
        <time>2019-10-06T08:14:01Z</time>
      </trkpt>
      <trkpt lat="45.75083" lon="6.85714">
        <ele>2580</ele>
        <time>2019-10-06T08:14:03Z</time>
      </trkpt>
      <trkpt lat="45.75084" lon="6.8571">
        <ele>2580</ele>
        <time>2019-10-06T08:14:05Z</time>
      </trkpt>
      <trkpt lat="45.75085" lon="6.85706">
        <ele>2581</ele>
        <time>2019-10-06T08:14:07Z</time>
      </trkpt>
      <trkpt lat="45.75086" lon="6.85702">
        <ele>2581</ele>
        <time>2019-10-06T08:14:09Z</time>
      </trkpt>
      <trkpt lat="45.75086" lon="6.85698">
        <ele>2581</ele>
        <time>2019-10-06T08:14:11Z</time>
      </trkpt>
      <trkpt lat="45.75086" lon="6.85694">
        <ele>2581</ele>
        <time>2019-10-06T08:14:13Z</time>
      </trkpt>
      <trkpt lat="45.75086" lon="6.85691">
        <ele>2581</ele>
        <time>2019-10-06T08:14:15Z</time>
      </trkpt>
      <trkpt lat="45.75087" lon="6.85686">
        <ele>2583</ele>
        <time>2019-10-06T08:14:17Z</time>
      </trkpt>
      <trkpt lat="45.75087" lon="6.85682">
        <ele>2583</ele>
        <time>2019-10-06T08:14:19Z</time>
      </trkpt>
      <trkpt lat="45.75087" lon="6.85679">
        <ele>2583</ele>
        <time>2019-10-06T08:14:21Z</time>
      </trkpt>
      <trkpt lat="45.75087" lon="6.85676">
        <ele>2584</ele>
        <time>2019-10-06T08:14:23Z</time>
      </trkpt>
      <trkpt lat="45.75087" lon="6.85672">
        <ele>2584</ele>
        <time>2019-10-06T08:14:25Z</time>
      </trkpt>
      <trkpt lat="45.75088" lon="6.85669">
        <ele>2584</ele>
        <time>2019-10-06T08:14:27Z</time>
      </trkpt>
      <trkpt lat="45.75088" lon="6.85665">
        <ele>2584</ele>
        <time>2019-10-06T08:14:29Z</time>
      </trkpt>
      <trkpt lat="45.75088" lon="6.85661">
        <ele>2585</ele>
        <time>2019-10-06T08:14:31Z</time>
      </trkpt>
      <trkpt lat="45.75089" lon="6.85657">
        <ele>2586</ele>
        <time>2019-10-06T08:14:33Z</time>
      </trkpt>
      <trkpt lat="45.75089" lon="6.85654">
        <ele>2587</ele>
        <time>2019-10-06T08:14:35Z</time>
      </trkpt>
      <trkpt lat="45.75089" lon="6.8565">
        <ele>2587</ele>
        <time>2019-10-06T08:14:37Z</time>
      </trkpt>
      <trkpt lat="45.75089" lon="6.85646">
        <ele>2587</ele>
        <time>2019-10-06T08:14:39Z</time>
      </trkpt>
      <trkpt lat="45.75089" lon="6.85642">
        <ele>2587</ele>
        <time>2019-10-06T08:14:41Z</time>
      </trkpt>
      <trkpt lat="45.75089" lon="6.85638">
        <ele>2588</ele>
        <time>2019-10-06T08:14:43Z</time>
      </trkpt>
      <trkpt lat="45.75089" lon="6.85634">
        <ele>2588</ele>
        <time>2019-10-06T08:14:45Z</time>
      </trkpt>
      <trkpt lat="45.7509" lon="6.85631">
        <ele>2588</ele>
        <time>2019-10-06T08:14:47Z</time>
      </trkpt>
      <trkpt lat="45.7509" lon="6.85627">
        <ele>2588</ele>
        <time>2019-10-06T08:14:49Z</time>
      </trkpt>
      <trkpt lat="45.7509" lon="6.85623">
        <ele>2589</ele>
        <time>2019-10-06T08:14:51Z</time>
      </trkpt>
      <trkpt lat="45.75091" lon="6.85619">
        <ele>2589</ele>
        <time>2019-10-06T08:14:53Z</time>
      </trkpt>
      <trkpt lat="45.75091" lon="6.85615">
        <ele>2590</ele>
        <time>2019-10-06T08:14:55Z</time>
      </trkpt>
      <trkpt lat="45.75091" lon="6.85611">
        <ele>2590</ele>
        <time>2019-10-06T08:14:57Z</time>
      </trkpt>
      <trkpt lat="45.75091" lon="6.85607">
        <ele>2590</ele>
        <time>2019-10-06T08:14:59Z</time>
      </trkpt>
      <trkpt lat="45.75091" lon="6.85607">
        <ele>2590</ele>
        <time>2019-10-06T08:15:01Z</time>
      </trkpt>
      <trkpt lat="45.75091" lon="6.85603">
        <ele>2591</ele>
        <time>2019-10-06T08:15:02Z</time>
      </trkpt>
      <trkpt lat="45.75092" lon="6.85598">
        <ele>2591</ele>
        <time>2019-10-06T08:15:04Z</time>
      </trkpt>
      <trkpt lat="45.75093" lon="6.85594">
        <ele>2591</ele>
        <time>2019-10-06T08:15:06Z</time>
      </trkpt>
      <trkpt lat="45.75093" lon="6.85591">
        <ele>2591</ele>
        <time>2019-10-06T08:15:08Z</time>
      </trkpt>
      <trkpt lat="45.75094" lon="6.85586">
        <ele>2592</ele>
        <time>2019-10-06T08:15:10Z</time>
      </trkpt>
      <trkpt lat="45.75094" lon="6.85584">
        <ele>2592</ele>
        <time>2019-10-06T08:15:11Z</time>
      </trkpt>
      <trkpt lat="45.75095" lon="6.8558">
        <ele>2592</ele>
        <time>2019-10-06T08:15:13Z</time>
      </trkpt>
      <trkpt lat="45.75095" lon="6.85577">
        <ele>2592</ele>
        <time>2019-10-06T08:15:15Z</time>
      </trkpt>
      <trkpt lat="45.75095" lon="6.85572">
        <ele>2593</ele>
        <time>2019-10-06T08:15:17Z</time>
      </trkpt>
      <trkpt lat="45.75095" lon="6.85568">
        <ele>2593</ele>
        <time>2019-10-06T08:15:19Z</time>
      </trkpt>
      <trkpt lat="45.75095" lon="6.85568">
        <ele>2593</ele>
        <time>2019-10-06T08:15:21Z</time>
      </trkpt>
      <trkpt lat="45.75095" lon="6.85564">
        <ele>2595</ele>
        <time>2019-10-06T08:15:22Z</time>
      </trkpt>
      <trkpt lat="45.75095" lon="6.8556">
        <ele>2595</ele>
        <time>2019-10-06T08:15:24Z</time>
      </trkpt>
      <trkpt lat="45.75095" lon="6.85557">
        <ele>2595</ele>
        <time>2019-10-06T08:15:26Z</time>
      </trkpt>
      <trkpt lat="45.75095" lon="6.85553">
        <ele>2595</ele>
        <time>2019-10-06T08:15:28Z</time>
      </trkpt>
      <trkpt lat="45.75095" lon="6.85548">
        <ele>2595</ele>
        <time>2019-10-06T08:15:30Z</time>
      </trkpt>
      <trkpt lat="45.75094" lon="6.85544">
        <ele>2596</ele>
        <time>2019-10-06T08:15:32Z</time>
      </trkpt>
      <trkpt lat="45.75094" lon="6.85539">
        <ele>2596</ele>
        <time>2019-10-06T08:15:34Z</time>
      </trkpt>
      <trkpt lat="45.75094" lon="6.85535">
        <ele>2597</ele>
        <time>2019-10-06T08:15:36Z</time>
      </trkpt>
      <trkpt lat="45.75095" lon="6.8553">
        <ele>2597</ele>
        <time>2019-10-06T08:15:38Z</time>
      </trkpt>
      <trkpt lat="45.75096" lon="6.85528">
        <ele>2597</ele>
        <time>2019-10-06T08:15:39Z</time>
      </trkpt>
      <trkpt lat="45.75097" lon="6.85525">
        <ele>2597</ele>
        <time>2019-10-06T08:15:40Z</time>
      </trkpt>
      <trkpt lat="45.75098" lon="6.85521">
        <ele>2597</ele>
        <time>2019-10-06T08:15:42Z</time>
      </trkpt>
      <trkpt lat="45.75098" lon="6.85518">
        <ele>2597</ele>
        <time>2019-10-06T08:15:45Z</time>
      </trkpt>
      <trkpt lat="45.75098" lon="6.85518">
        <ele>2598</ele>
        <time>2019-10-06T08:15:46Z</time>
      </trkpt>
      <trkpt lat="45.75098" lon="6.85514">
        <ele>2598</ele>
        <time>2019-10-06T08:15:47Z</time>
      </trkpt>
      <trkpt lat="45.75099" lon="6.85512">
        <ele>2598</ele>
        <time>2019-10-06T08:15:48Z</time>
      </trkpt>
      <trkpt lat="45.751" lon="6.85509">
        <ele>2598</ele>
        <time>2019-10-06T08:15:49Z</time>
      </trkpt>
      <trkpt lat="45.75101" lon="6.85507">
        <ele>2598</ele>
        <time>2019-10-06T08:15:50Z</time>
      </trkpt>
      <trkpt lat="45.75101" lon="6.85503">
        <ele>2598</ele>
        <time>2019-10-06T08:15:52Z</time>
      </trkpt>
      <trkpt lat="45.751" lon="6.855">
        <ele>2598</ele>
        <time>2019-10-06T08:15:54Z</time>
      </trkpt>
      <trkpt lat="45.75101" lon="6.85495">
        <ele>2598</ele>
        <time>2019-10-06T08:15:56Z</time>
      </trkpt>
      <trkpt lat="45.75102" lon="6.85493">
        <ele>2598</ele>
        <time>2019-10-06T08:15:57Z</time>
      </trkpt>
      <trkpt lat="45.75103" lon="6.8549">
        <ele>2598</ele>
        <time>2019-10-06T08:15:58Z</time>
      </trkpt>
      <trkpt lat="45.75103" lon="6.85487">
        <ele>2598</ele>
        <time>2019-10-06T08:15:59Z</time>
      </trkpt>
      <trkpt lat="45.75104" lon="6.85484">
        <ele>2598</ele>
        <time>2019-10-06T08:16:00Z</time>
      </trkpt>
      <trkpt lat="45.75104" lon="6.85481">
        <ele>2598</ele>
        <time>2019-10-06T08:16:02Z</time>
      </trkpt>
      <trkpt lat="45.75104" lon="6.85479">
        <ele>2599</ele>
        <time>2019-10-06T08:16:04Z</time>
      </trkpt>
      <trkpt lat="45.75105" lon="6.85474">
        <ele>2599</ele>
        <time>2019-10-06T08:16:06Z</time>
      </trkpt>
      <trkpt lat="45.75105" lon="6.85471">
        <ele>2599</ele>
        <time>2019-10-06T08:16:07Z</time>
      </trkpt>
      <trkpt lat="45.75107" lon="6.85469">
        <ele>2599</ele>
        <time>2019-10-06T08:16:08Z</time>
      </trkpt>
      <trkpt lat="45.75108" lon="6.85466">
        <ele>2600</ele>
        <time>2019-10-06T08:16:09Z</time>
      </trkpt>
      <trkpt lat="45.75109" lon="6.85464">
        <ele>2600</ele>
        <time>2019-10-06T08:16:10Z</time>
      </trkpt>
      <trkpt lat="45.7511" lon="6.85461">
        <ele>2600</ele>
        <time>2019-10-06T08:16:11Z</time>
      </trkpt>
      <trkpt lat="45.75111" lon="6.85458">
        <ele>2600</ele>
        <time>2019-10-06T08:16:12Z</time>
      </trkpt>
      <trkpt lat="45.75112" lon="6.85456">
        <ele>2600</ele>
        <time>2019-10-06T08:16:14Z</time>
      </trkpt>
      <trkpt lat="45.75113" lon="6.85453">
        <ele>2600</ele>
        <time>2019-10-06T08:16:16Z</time>
      </trkpt>
      <trkpt lat="45.75115" lon="6.85449">
        <ele>2600</ele>
        <time>2019-10-06T08:16:18Z</time>
      </trkpt>
      <trkpt lat="45.75116" lon="6.85444">
        <ele>2600</ele>
        <time>2019-10-06T08:16:20Z</time>
      </trkpt>
      <trkpt lat="45.75117" lon="6.85441">
        <ele>2600</ele>
        <time>2019-10-06T08:16:21Z</time>
      </trkpt>
      <trkpt lat="45.75118" lon="6.85439">
        <ele>2600</ele>
        <time>2019-10-06T08:16:22Z</time>
      </trkpt>
      <trkpt lat="45.75119" lon="6.85436">
        <ele>2600</ele>
        <time>2019-10-06T08:16:23Z</time>
      </trkpt>
      <trkpt lat="45.75119" lon="6.85434">
        <ele>2600</ele>
        <time>2019-10-06T08:16:24Z</time>
      </trkpt>
      <trkpt lat="45.75119" lon="6.8543">
        <ele>2601</ele>
        <time>2019-10-06T08:16:26Z</time>
      </trkpt>
      <trkpt lat="45.75119" lon="6.85427">
        <ele>2601</ele>
        <time>2019-10-06T08:16:28Z</time>
      </trkpt>
      <trkpt lat="45.75119" lon="6.85423">
        <ele>2602</ele>
        <time>2019-10-06T08:16:30Z</time>
      </trkpt>
      <trkpt lat="45.75119" lon="6.85419">
        <ele>2602</ele>
        <time>2019-10-06T08:16:32Z</time>
      </trkpt>
      <trkpt lat="45.7512" lon="6.85415">
        <ele>2602</ele>
        <time>2019-10-06T08:16:34Z</time>
      </trkpt>
      <trkpt lat="45.75121" lon="6.8541">
        <ele>2602</ele>
        <time>2019-10-06T08:16:36Z</time>
      </trkpt>
      <trkpt lat="45.75122" lon="6.85406">
        <ele>2602</ele>
        <time>2019-10-06T08:16:38Z</time>
      </trkpt>
      <trkpt lat="45.75121" lon="6.85403">
        <ele>2602</ele>
        <time>2019-10-06T08:16:40Z</time>
      </trkpt>
      <trkpt lat="45.75121" lon="6.85399">
        <ele>2602</ele>
        <time>2019-10-06T08:16:42Z</time>
      </trkpt>
      <trkpt lat="45.75122" lon="6.85395">
        <ele>2602</ele>
        <time>2019-10-06T08:16:44Z</time>
      </trkpt>
      <trkpt lat="45.75123" lon="6.85391">
        <ele>2602</ele>
        <time>2019-10-06T08:16:46Z</time>
      </trkpt>
      <trkpt lat="45.75123" lon="6.85387">
        <ele>2603</ele>
        <time>2019-10-06T08:16:48Z</time>
      </trkpt>
      <trkpt lat="45.75124" lon="6.85383">
        <ele>2603</ele>
        <time>2019-10-06T08:16:50Z</time>
      </trkpt>
      <trkpt lat="45.75124" lon="6.85378">
        <ele>2604</ele>
        <time>2019-10-06T08:16:52Z</time>
      </trkpt>
      <trkpt lat="45.75125" lon="6.85374">
        <ele>2604</ele>
        <time>2019-10-06T08:16:54Z</time>
      </trkpt>
      <trkpt lat="45.75127" lon="6.8537">
        <ele>2604</ele>
        <time>2019-10-06T08:16:56Z</time>
      </trkpt>
      <trkpt lat="45.75127" lon="6.85366">
        <ele>2604</ele>
        <time>2019-10-06T08:16:58Z</time>
      </trkpt>
      <trkpt lat="45.75128" lon="6.85362">
        <ele>2604</ele>
        <time>2019-10-06T08:17:00Z</time>
      </trkpt>
      <trkpt lat="45.7513" lon="6.85358">
        <ele>2604</ele>
        <time>2019-10-06T08:17:02Z</time>
      </trkpt>
      <trkpt lat="45.75131" lon="6.85354">
        <ele>2605</ele>
        <time>2019-10-06T08:17:04Z</time>
      </trkpt>
      <trkpt lat="45.75132" lon="6.85351">
        <ele>2605</ele>
        <time>2019-10-06T08:17:06Z</time>
      </trkpt>
      <trkpt lat="45.75133" lon="6.85347">
        <ele>2605</ele>
        <time>2019-10-06T08:17:08Z</time>
      </trkpt>
      <trkpt lat="45.75133" lon="6.85343">
        <ele>2607</ele>
        <time>2019-10-06T08:17:10Z</time>
      </trkpt>
      <trkpt lat="45.75135" lon="6.85339">
        <ele>2607</ele>
        <time>2019-10-06T08:17:12Z</time>
      </trkpt>
      <trkpt lat="45.75136" lon="6.85335">
        <ele>2607</ele>
        <time>2019-10-06T08:17:14Z</time>
      </trkpt>
      <trkpt lat="45.75137" lon="6.85332">
        <ele>2607</ele>
        <time>2019-10-06T08:17:15Z</time>
      </trkpt>
      <trkpt lat="45.75138" lon="6.85329">
        <ele>2607</ele>
        <time>2019-10-06T08:17:16Z</time>
      </trkpt>
      <trkpt lat="45.75138" lon="6.85326">
        <ele>2607</ele>
        <time>2019-10-06T08:17:17Z</time>
      </trkpt>
      <trkpt lat="45.75139" lon="6.85323">
        <ele>2607</ele>
        <time>2019-10-06T08:17:18Z</time>
      </trkpt>
      <trkpt lat="45.7514" lon="6.8532">
        <ele>2607</ele>
        <time>2019-10-06T08:17:19Z</time>
      </trkpt>
      <trkpt lat="45.7514" lon="6.85317">
        <ele>2607</ele>
        <time>2019-10-06T08:17:20Z</time>
      </trkpt>
      <trkpt lat="45.75141" lon="6.85315">
        <ele>2608</ele>
        <time>2019-10-06T08:17:21Z</time>
      </trkpt>
      <trkpt lat="45.75141" lon="6.85311">
        <ele>2608</ele>
        <time>2019-10-06T08:17:22Z</time>
      </trkpt>
      <trkpt lat="45.75141" lon="6.85308">
        <ele>2608</ele>
        <time>2019-10-06T08:17:23Z</time>
      </trkpt>
      <trkpt lat="45.75141" lon="6.85306">
        <ele>2608</ele>
        <time>2019-10-06T08:17:24Z</time>
      </trkpt>
      <trkpt lat="45.75141" lon="6.85303">
        <ele>2608</ele>
        <time>2019-10-06T08:17:25Z</time>
      </trkpt>
      <trkpt lat="45.75141" lon="6.853">
        <ele>2609</ele>
        <time>2019-10-06T08:17:26Z</time>
      </trkpt>
      <trkpt lat="45.7514" lon="6.85297">
        <ele>2609</ele>
        <time>2019-10-06T08:17:27Z</time>
      </trkpt>
      <trkpt lat="45.7514" lon="6.85294">
        <ele>2609</ele>
        <time>2019-10-06T08:17:28Z</time>
      </trkpt>
      <trkpt lat="45.7514" lon="6.85291">
        <ele>2609</ele>
        <time>2019-10-06T08:17:29Z</time>
      </trkpt>
      <trkpt lat="45.7514" lon="6.85287">
        <ele>2609</ele>
        <time>2019-10-06T08:17:30Z</time>
      </trkpt>
      <trkpt lat="45.75139" lon="6.85284">
        <ele>2609</ele>
        <time>2019-10-06T08:17:31Z</time>
      </trkpt>
      <trkpt lat="45.75139" lon="6.85281">
        <ele>2609</ele>
        <time>2019-10-06T08:17:32Z</time>
      </trkpt>
      <trkpt lat="45.75138" lon="6.85278">
        <ele>2609</ele>
        <time>2019-10-06T08:17:33Z</time>
      </trkpt>
      <trkpt lat="45.75138" lon="6.85275">
        <ele>2610</ele>
        <time>2019-10-06T08:17:34Z</time>
      </trkpt>
      <trkpt lat="45.75137" lon="6.85272">
        <ele>2610</ele>
        <time>2019-10-06T08:17:35Z</time>
      </trkpt>
      <trkpt lat="45.75136" lon="6.85269">
        <ele>2610</ele>
        <time>2019-10-06T08:17:36Z</time>
      </trkpt>
      <trkpt lat="45.75135" lon="6.85266">
        <ele>2610</ele>
        <time>2019-10-06T08:17:37Z</time>
      </trkpt>
      <trkpt lat="45.75135" lon="6.85263">
        <ele>2610</ele>
        <time>2019-10-06T08:17:38Z</time>
      </trkpt>
      <trkpt lat="45.75133" lon="6.8526">
        <ele>2610</ele>
        <time>2019-10-06T08:17:39Z</time>
      </trkpt>
      <trkpt lat="45.75132" lon="6.85258">
        <ele>2610</ele>
        <time>2019-10-06T08:17:40Z</time>
      </trkpt>
      <trkpt lat="45.75131" lon="6.85255">
        <ele>2610</ele>
        <time>2019-10-06T08:17:41Z</time>
      </trkpt>
      <trkpt lat="45.7513" lon="6.85252">
        <ele>2610</ele>
        <time>2019-10-06T08:17:42Z</time>
      </trkpt>
      <trkpt lat="45.75129" lon="6.8525">
        <ele>2610</ele>
        <time>2019-10-06T08:17:43Z</time>
      </trkpt>
      <trkpt lat="45.75127" lon="6.85246">
        <ele>2611</ele>
        <time>2019-10-06T08:17:45Z</time>
      </trkpt>
      <trkpt lat="45.75125" lon="6.85243">
        <ele>2611</ele>
        <time>2019-10-06T08:17:46Z</time>
      </trkpt>
      <trkpt lat="45.75123" lon="6.8524">
        <ele>2611</ele>
        <time>2019-10-06T08:17:48Z</time>
      </trkpt>
      <trkpt lat="45.75122" lon="6.85237">
        <ele>2611</ele>
        <time>2019-10-06T08:17:49Z</time>
      </trkpt>
      <trkpt lat="45.7512" lon="6.85236">
        <ele>2612</ele>
        <time>2019-10-06T08:17:50Z</time>
      </trkpt>
      <trkpt lat="45.75119" lon="6.85234">
        <ele>2612</ele>
        <time>2019-10-06T08:17:51Z</time>
      </trkpt>
      <trkpt lat="45.75117" lon="6.85231">
        <ele>2612</ele>
        <time>2019-10-06T08:17:52Z</time>
      </trkpt>
      <trkpt lat="45.75116" lon="6.85229">
        <ele>2612</ele>
        <time>2019-10-06T08:17:53Z</time>
      </trkpt>
      <trkpt lat="45.75114" lon="6.85227">
        <ele>2612</ele>
        <time>2019-10-06T08:17:54Z</time>
      </trkpt>
      <trkpt lat="45.75113" lon="6.85225">
        <ele>2612</ele>
        <time>2019-10-06T08:17:55Z</time>
      </trkpt>
      <trkpt lat="45.75111" lon="6.85223">
        <ele>2612</ele>
        <time>2019-10-06T08:17:56Z</time>
      </trkpt>
      <trkpt lat="45.7511" lon="6.85221">
        <ele>2612</ele>
        <time>2019-10-06T08:17:57Z</time>
      </trkpt>
      <trkpt lat="45.75109" lon="6.85219">
        <ele>2612</ele>
        <time>2019-10-06T08:17:58Z</time>
      </trkpt>
      <trkpt lat="45.75108" lon="6.85216">
        <ele>2612</ele>
        <time>2019-10-06T08:17:59Z</time>
      </trkpt>
      <trkpt lat="45.75106" lon="6.85214">
        <ele>2613</ele>
        <time>2019-10-06T08:18:00Z</time>
      </trkpt>
      <trkpt lat="45.75105" lon="6.85212">
        <ele>2613</ele>
        <time>2019-10-06T08:18:01Z</time>
      </trkpt>
      <trkpt lat="45.75104" lon="6.85209">
        <ele>2613</ele>
        <time>2019-10-06T08:18:02Z</time>
      </trkpt>
      <trkpt lat="45.75103" lon="6.85207">
        <ele>2613</ele>
        <time>2019-10-06T08:18:03Z</time>
      </trkpt>
      <trkpt lat="45.75102" lon="6.85204">
        <ele>2613</ele>
        <time>2019-10-06T08:18:04Z</time>
      </trkpt>
      <trkpt lat="45.75101" lon="6.85201">
        <ele>2613</ele>
        <time>2019-10-06T08:18:05Z</time>
      </trkpt>
      <trkpt lat="45.75101" lon="6.85198">
        <ele>2613</ele>
        <time>2019-10-06T08:18:06Z</time>
      </trkpt>
      <trkpt lat="45.751" lon="6.85196">
        <ele>2613</ele>
        <time>2019-10-06T08:18:07Z</time>
      </trkpt>
      <trkpt lat="45.751" lon="6.85193">
        <ele>2614</ele>
        <time>2019-10-06T08:18:08Z</time>
      </trkpt>
      <trkpt lat="45.751" lon="6.8519">
        <ele>2614</ele>
        <time>2019-10-06T08:18:09Z</time>
      </trkpt>
      <trkpt lat="45.75101" lon="6.85188">
        <ele>2614</ele>
        <time>2019-10-06T08:18:10Z</time>
      </trkpt>
      <trkpt lat="45.75101" lon="6.85185">
        <ele>2614</ele>
        <time>2019-10-06T08:18:11Z</time>
      </trkpt>
      <trkpt lat="45.75102" lon="6.85182">
        <ele>2614</ele>
        <time>2019-10-06T08:18:12Z</time>
      </trkpt>
      <trkpt lat="45.75102" lon="6.8518">
        <ele>2614</ele>
        <time>2019-10-06T08:18:13Z</time>
      </trkpt>
      <trkpt lat="45.75104" lon="6.85175">
        <ele>2614</ele>
        <time>2019-10-06T08:18:15Z</time>
      </trkpt>
      <trkpt lat="45.75105" lon="6.85171">
        <ele>2615</ele>
        <time>2019-10-06T08:18:17Z</time>
      </trkpt>
      <trkpt lat="45.75106" lon="6.85168">
        <ele>2615</ele>
        <time>2019-10-06T08:18:19Z</time>
      </trkpt>
      <trkpt lat="45.75107" lon="6.85165">
        <ele>2616</ele>
        <time>2019-10-06T08:18:21Z</time>
      </trkpt>
      <trkpt lat="45.75108" lon="6.85161">
        <ele>2617</ele>
        <time>2019-10-06T08:18:23Z</time>
      </trkpt>
      <trkpt lat="45.7511" lon="6.85158">
        <ele>2617</ele>
        <time>2019-10-06T08:18:25Z</time>
      </trkpt>
      <trkpt lat="45.75111" lon="6.85155">
        <ele>2617</ele>
        <time>2019-10-06T08:18:27Z</time>
      </trkpt>
      <trkpt lat="45.75113" lon="6.85152">
        <ele>2617</ele>
        <time>2019-10-06T08:18:29Z</time>
      </trkpt>
      <trkpt lat="45.75114" lon="6.85149">
        <ele>2617</ele>
        <time>2019-10-06T08:18:31Z</time>
      </trkpt>
      <trkpt lat="45.75115" lon="6.85146">
        <ele>2617</ele>
        <time>2019-10-06T08:18:33Z</time>
      </trkpt>
      <trkpt lat="45.75117" lon="6.85142">
        <ele>2619</ele>
        <time>2019-10-06T08:18:35Z</time>
      </trkpt>
      <trkpt lat="45.75117" lon="6.85138">
        <ele>2619</ele>
        <time>2019-10-06T08:18:37Z</time>
      </trkpt>
      <trkpt lat="45.75118" lon="6.85135">
        <ele>2620</ele>
        <time>2019-10-06T08:18:39Z</time>
      </trkpt>
      <trkpt lat="45.75118" lon="6.85131">
        <ele>2620</ele>
        <time>2019-10-06T08:18:41Z</time>
      </trkpt>
      <trkpt lat="45.75117" lon="6.85128">
        <ele>2620</ele>
        <time>2019-10-06T08:18:43Z</time>
      </trkpt>
      <trkpt lat="45.75117" lon="6.85124">
        <ele>2621</ele>
        <time>2019-10-06T08:18:45Z</time>
      </trkpt>
      <trkpt lat="45.75117" lon="6.85121">
        <ele>2621</ele>
        <time>2019-10-06T08:18:47Z</time>
      </trkpt>
      <trkpt lat="45.75117" lon="6.85117">
        <ele>2621</ele>
        <time>2019-10-06T08:18:49Z</time>
      </trkpt>
      <trkpt lat="45.75118" lon="6.85114">
        <ele>2622</ele>
        <time>2019-10-06T08:18:51Z</time>
      </trkpt>
      <trkpt lat="45.75119" lon="6.8511">
        <ele>2623</ele>
        <time>2019-10-06T08:18:53Z</time>
      </trkpt>
      <trkpt lat="45.7512" lon="6.85108">
        <ele>2623</ele>
        <time>2019-10-06T08:18:55Z</time>
      </trkpt>
      <trkpt lat="45.75121" lon="6.85105">
        <ele>2623</ele>
        <time>2019-10-06T08:18:58Z</time>
      </trkpt>
      <trkpt lat="45.75121" lon="6.85105">
        <ele>2623</ele>
        <time>2019-10-06T08:18:59Z</time>
      </trkpt>
      <trkpt lat="45.75122" lon="6.85103">
        <ele>2623</ele>
        <time>2019-10-06T08:19:03Z</time>
      </trkpt>
      <trkpt lat="45.75122" lon="6.85103">
        <ele>2623</ele>
        <time>2019-10-06T08:19:04Z</time>
      </trkpt>
      <trkpt lat="45.75124" lon="6.85101">
        <ele>2623</ele>
        <time>2019-10-06T08:19:06Z</time>
      </trkpt>
      <trkpt lat="45.75124" lon="6.85101">
        <ele>2622</ele>
        <time>2019-10-06T08:19:09Z</time>
      </trkpt>
      <trkpt lat="45.75125" lon="6.85099">
        <ele>2623</ele>
        <time>2019-10-06T08:19:10Z</time>
      </trkpt>
      <trkpt lat="45.75127" lon="6.85096">
        <ele>2623</ele>
        <time>2019-10-06T08:19:12Z</time>
      </trkpt>
      <trkpt lat="45.75128" lon="6.85093">
        <ele>2624</ele>
        <time>2019-10-06T08:19:14Z</time>
      </trkpt>
      <trkpt lat="45.7513" lon="6.85089">
        <ele>2625</ele>
        <time>2019-10-06T08:19:16Z</time>
      </trkpt>
      <trkpt lat="45.75131" lon="6.85086">
        <ele>2625</ele>
        <time>2019-10-06T08:19:18Z</time>
      </trkpt>
      <trkpt lat="45.75133" lon="6.85083">
        <ele>2625</ele>
        <time>2019-10-06T08:19:20Z</time>
      </trkpt>
      <trkpt lat="45.75135" lon="6.8508">
        <ele>2625</ele>
        <time>2019-10-06T08:19:22Z</time>
      </trkpt>
      <trkpt lat="45.75137" lon="6.85078">
        <ele>2625</ele>
        <time>2019-10-06T08:19:24Z</time>
      </trkpt>
      <trkpt lat="45.75139" lon="6.85075">
        <ele>2626</ele>
        <time>2019-10-06T08:19:26Z</time>
      </trkpt>
      <trkpt lat="45.75141" lon="6.85074">
        <ele>2626</ele>
        <time>2019-10-06T08:19:28Z</time>
      </trkpt>
      <trkpt lat="45.75144" lon="6.85072">
        <ele>2626</ele>
        <time>2019-10-06T08:19:30Z</time>
      </trkpt>
      <trkpt lat="45.75146" lon="6.8507">
        <ele>2626</ele>
        <time>2019-10-06T08:19:32Z</time>
      </trkpt>
      <trkpt lat="45.75148" lon="6.85068">
        <ele>2627</ele>
        <time>2019-10-06T08:19:34Z</time>
      </trkpt>
      <trkpt lat="45.7515" lon="6.85066">
        <ele>2627</ele>
        <time>2019-10-06T08:19:36Z</time>
      </trkpt>
      <trkpt lat="45.75152" lon="6.85062">
        <ele>2628</ele>
        <time>2019-10-06T08:19:38Z</time>
      </trkpt>
      <trkpt lat="45.75153" lon="6.85059">
        <ele>2629</ele>
        <time>2019-10-06T08:19:40Z</time>
      </trkpt>
      <trkpt lat="45.75154" lon="6.85056">
        <ele>2629</ele>
        <time>2019-10-06T08:19:42Z</time>
      </trkpt>
      <trkpt lat="45.75155" lon="6.85052">
        <ele>2628</ele>
        <time>2019-10-06T08:19:44Z</time>
      </trkpt>
      <trkpt lat="45.75156" lon="6.85049">
        <ele>2629</ele>
        <time>2019-10-06T08:19:46Z</time>
      </trkpt>
      <trkpt lat="45.75157" lon="6.85045">
        <ele>2629</ele>
        <time>2019-10-06T08:19:48Z</time>
      </trkpt>
      <trkpt lat="45.75158" lon="6.85041">
        <ele>2629</ele>
        <time>2019-10-06T08:19:50Z</time>
      </trkpt>
      <trkpt lat="45.75158" lon="6.85037">
        <ele>2631</ele>
        <time>2019-10-06T08:19:52Z</time>
      </trkpt>
      <trkpt lat="45.75157" lon="6.85034">
        <ele>2631</ele>
        <time>2019-10-06T08:19:54Z</time>
      </trkpt>
      <trkpt lat="45.75157" lon="6.8503">
        <ele>2631</ele>
        <time>2019-10-06T08:19:56Z</time>
      </trkpt>
      <trkpt lat="45.75157" lon="6.85025">
        <ele>2632</ele>
        <time>2019-10-06T08:19:58Z</time>
      </trkpt>
      <trkpt lat="45.75156" lon="6.85021">
        <ele>2633</ele>
        <time>2019-10-06T08:20:00Z</time>
      </trkpt>
      <trkpt lat="45.75156" lon="6.85017">
        <ele>2633</ele>
        <time>2019-10-06T08:20:02Z</time>
      </trkpt>
      <trkpt lat="45.75156" lon="6.85014">
        <ele>2633</ele>
        <time>2019-10-06T08:20:04Z</time>
      </trkpt>
      <trkpt lat="45.75156" lon="6.8501">
        <ele>2633</ele>
        <time>2019-10-06T08:20:06Z</time>
      </trkpt>
      <trkpt lat="45.75155" lon="6.85006">
        <ele>2634</ele>
        <time>2019-10-06T08:20:08Z</time>
      </trkpt>
      <trkpt lat="45.75155" lon="6.85002">
        <ele>2634</ele>
        <time>2019-10-06T08:20:10Z</time>
      </trkpt>
      <trkpt lat="45.75154" lon="6.84998">
        <ele>2634</ele>
        <time>2019-10-06T08:20:12Z</time>
      </trkpt>
      <trkpt lat="45.75152" lon="6.84995">
        <ele>2634</ele>
        <time>2019-10-06T08:20:14Z</time>
      </trkpt>
      <trkpt lat="45.7515" lon="6.84992">
        <ele>2634</ele>
        <time>2019-10-06T08:20:16Z</time>
      </trkpt>
      <trkpt lat="45.75148" lon="6.84989">
        <ele>2635</ele>
        <time>2019-10-06T08:20:18Z</time>
      </trkpt>
      <trkpt lat="45.75146" lon="6.84986">
        <ele>2635</ele>
        <time>2019-10-06T08:20:20Z</time>
      </trkpt>
      <trkpt lat="45.75144" lon="6.84983">
        <ele>2636</ele>
        <time>2019-10-06T08:20:22Z</time>
      </trkpt>
      <trkpt lat="45.75142" lon="6.84981">
        <ele>2636</ele>
        <time>2019-10-06T08:20:24Z</time>
      </trkpt>
      <trkpt lat="45.7514" lon="6.84978">
        <ele>2636</ele>
        <time>2019-10-06T08:20:26Z</time>
      </trkpt>
      <trkpt lat="45.75138" lon="6.84974">
        <ele>2636</ele>
        <time>2019-10-06T08:20:28Z</time>
      </trkpt>
      <trkpt lat="45.75136" lon="6.84971">
        <ele>2636</ele>
        <time>2019-10-06T08:20:30Z</time>
      </trkpt>
      <trkpt lat="45.75135" lon="6.84968">
        <ele>2637</ele>
        <time>2019-10-06T08:20:32Z</time>
      </trkpt>
      <trkpt lat="45.75134" lon="6.84964">
        <ele>2637</ele>
        <time>2019-10-06T08:20:34Z</time>
      </trkpt>
      <trkpt lat="45.75133" lon="6.8496">
        <ele>2637</ele>
        <time>2019-10-06T08:20:36Z</time>
      </trkpt>
      <trkpt lat="45.75132" lon="6.84957">
        <ele>2637</ele>
        <time>2019-10-06T08:20:38Z</time>
      </trkpt>
      <trkpt lat="45.75131" lon="6.84953">
        <ele>2638</ele>
        <time>2019-10-06T08:20:40Z</time>
      </trkpt>
      <trkpt lat="45.75131" lon="6.84949">
        <ele>2638</ele>
        <time>2019-10-06T08:20:42Z</time>
      </trkpt>
      <trkpt lat="45.7513" lon="6.84945">
        <ele>2639</ele>
        <time>2019-10-06T08:20:44Z</time>
      </trkpt>
      <trkpt lat="45.75129" lon="6.84941">
        <ele>2639</ele>
        <time>2019-10-06T08:20:46Z</time>
      </trkpt>
      <trkpt lat="45.75129" lon="6.84936">
        <ele>2639</ele>
        <time>2019-10-06T08:20:48Z</time>
      </trkpt>
      <trkpt lat="45.75129" lon="6.84932">
        <ele>2639</ele>
        <time>2019-10-06T08:20:50Z</time>
      </trkpt>
      <trkpt lat="45.75129" lon="6.84928">
        <ele>2639</ele>
        <time>2019-10-06T08:20:52Z</time>
      </trkpt>
      <trkpt lat="45.7513" lon="6.84924">
        <ele>2639</ele>
        <time>2019-10-06T08:20:54Z</time>
      </trkpt>
      <trkpt lat="45.75132" lon="6.8492">
        <ele>2640</ele>
        <time>2019-10-06T08:20:56Z</time>
      </trkpt>
      <trkpt lat="45.75134" lon="6.84917">
        <ele>2640</ele>
        <time>2019-10-06T08:20:58Z</time>
      </trkpt>
      <trkpt lat="45.75136" lon="6.84915">
        <ele>2640</ele>
        <time>2019-10-06T08:21:00Z</time>
      </trkpt>
      <trkpt lat="45.75138" lon="6.84913">
        <ele>2640</ele>
        <time>2019-10-06T08:21:02Z</time>
      </trkpt>
      <trkpt lat="45.75142" lon="6.84911">
        <ele>2640</ele>
        <time>2019-10-06T08:21:04Z</time>
      </trkpt>
      <trkpt lat="45.75144" lon="6.8491">
        <ele>2640</ele>
        <time>2019-10-06T08:21:05Z</time>
      </trkpt>
      <trkpt lat="45.75146" lon="6.84909">
        <ele>2640</ele>
        <time>2019-10-06T08:21:06Z</time>
      </trkpt>
      <trkpt lat="45.75148" lon="6.84907">
        <ele>2640</ele>
        <time>2019-10-06T08:21:07Z</time>
      </trkpt>
      <trkpt lat="45.75149" lon="6.84906">
        <ele>2640</ele>
        <time>2019-10-06T08:21:08Z</time>
      </trkpt>
      <trkpt lat="45.75151" lon="6.84904">
        <ele>2641</ele>
        <time>2019-10-06T08:21:09Z</time>
      </trkpt>
      <trkpt lat="45.75152" lon="6.84902">
        <ele>2641</ele>
        <time>2019-10-06T08:21:10Z</time>
      </trkpt>
      <trkpt lat="45.75153" lon="6.84899">
        <ele>2641</ele>
        <time>2019-10-06T08:21:11Z</time>
      </trkpt>
      <trkpt lat="45.75154" lon="6.84896">
        <ele>2641</ele>
        <time>2019-10-06T08:21:12Z</time>
      </trkpt>
      <trkpt lat="45.75155" lon="6.84893">
        <ele>2641</ele>
        <time>2019-10-06T08:21:13Z</time>
      </trkpt>
      <trkpt lat="45.75156" lon="6.84891">
        <ele>2641</ele>
        <time>2019-10-06T08:21:14Z</time>
      </trkpt>
      <trkpt lat="45.75157" lon="6.84888">
        <ele>2641</ele>
        <time>2019-10-06T08:21:15Z</time>
      </trkpt>
      <trkpt lat="45.75157" lon="6.84885">
        <ele>2641</ele>
        <time>2019-10-06T08:21:16Z</time>
      </trkpt>
      <trkpt lat="45.75158" lon="6.84882">
        <ele>2641</ele>
        <time>2019-10-06T08:21:17Z</time>
      </trkpt>
      <trkpt lat="45.75158" lon="6.8488">
        <ele>2642</ele>
        <time>2019-10-06T08:21:18Z</time>
      </trkpt>
      <trkpt lat="45.75159" lon="6.84877">
        <ele>2642</ele>
        <time>2019-10-06T08:21:19Z</time>
      </trkpt>
      <trkpt lat="45.75159" lon="6.84874">
        <ele>2642</ele>
        <time>2019-10-06T08:21:20Z</time>
      </trkpt>
      <trkpt lat="45.75159" lon="6.84871">
        <ele>2642</ele>
        <time>2019-10-06T08:21:21Z</time>
      </trkpt>
      <trkpt lat="45.75159" lon="6.84868">
        <ele>2642</ele>
        <time>2019-10-06T08:21:22Z</time>
      </trkpt>
      <trkpt lat="45.7516" lon="6.84865">
        <ele>2642</ele>
        <time>2019-10-06T08:21:23Z</time>
      </trkpt>
      <trkpt lat="45.7516" lon="6.84862">
        <ele>2642</ele>
        <time>2019-10-06T08:21:24Z</time>
      </trkpt>
      <trkpt lat="45.75161" lon="6.8486">
        <ele>2642</ele>
        <time>2019-10-06T08:21:25Z</time>
      </trkpt>
      <trkpt lat="45.75161" lon="6.84857">
        <ele>2642</ele>
        <time>2019-10-06T08:21:26Z</time>
      </trkpt>
      <trkpt lat="45.75161" lon="6.84854">
        <ele>2642</ele>
        <time>2019-10-06T08:21:27Z</time>
      </trkpt>
      <trkpt lat="45.75161" lon="6.84851">
        <ele>2644</ele>
        <time>2019-10-06T08:21:28Z</time>
      </trkpt>
      <trkpt lat="45.75162" lon="6.84846">
        <ele>2645</ele>
        <time>2019-10-06T08:21:30Z</time>
      </trkpt>
      <trkpt lat="45.75163" lon="6.84842">
        <ele>2645</ele>
        <time>2019-10-06T08:21:31Z</time>
      </trkpt>
      <trkpt lat="45.75163" lon="6.8484">
        <ele>2645</ele>
        <time>2019-10-06T08:21:32Z</time>
      </trkpt>
      <trkpt lat="45.75164" lon="6.84837">
        <ele>2645</ele>
        <time>2019-10-06T08:21:33Z</time>
      </trkpt>
      <trkpt lat="45.75164" lon="6.84834">
        <ele>2645</ele>
        <time>2019-10-06T08:21:34Z</time>
      </trkpt>
      <trkpt lat="45.75165" lon="6.84831">
        <ele>2645</ele>
        <time>2019-10-06T08:21:35Z</time>
      </trkpt>
      <trkpt lat="45.75166" lon="6.84828">
        <ele>2645</ele>
        <time>2019-10-06T08:21:36Z</time>
      </trkpt>
      <trkpt lat="45.75166" lon="6.84826">
        <ele>2645</ele>
        <time>2019-10-06T08:21:37Z</time>
      </trkpt>
      <trkpt lat="45.75168" lon="6.84823">
        <ele>2645</ele>
        <time>2019-10-06T08:21:38Z</time>
      </trkpt>
      <trkpt lat="45.75169" lon="6.84821">
        <ele>2645</ele>
        <time>2019-10-06T08:21:39Z</time>
      </trkpt>
      <trkpt lat="45.7517" lon="6.84819">
        <ele>2645</ele>
        <time>2019-10-06T08:21:40Z</time>
      </trkpt>
      <trkpt lat="45.75172" lon="6.84816">
        <ele>2645</ele>
        <time>2019-10-06T08:21:41Z</time>
      </trkpt>
      <trkpt lat="45.75173" lon="6.84814">
        <ele>2645</ele>
        <time>2019-10-06T08:21:42Z</time>
      </trkpt>
      <trkpt lat="45.75174" lon="6.84812">
        <ele>2645</ele>
        <time>2019-10-06T08:21:43Z</time>
      </trkpt>
      <trkpt lat="45.75175" lon="6.84809">
        <ele>2645</ele>
        <time>2019-10-06T08:21:44Z</time>
      </trkpt>
      <trkpt lat="45.75177" lon="6.84807">
        <ele>2646</ele>
        <time>2019-10-06T08:21:45Z</time>
      </trkpt>
      <trkpt lat="45.75178" lon="6.84803">
        <ele>2646</ele>
        <time>2019-10-06T08:21:47Z</time>
      </trkpt>
      <trkpt lat="45.75179" lon="6.848">
        <ele>2646</ele>
        <time>2019-10-06T08:21:48Z</time>
      </trkpt>
      <trkpt lat="45.7518" lon="6.84798">
        <ele>2646</ele>
        <time>2019-10-06T08:21:49Z</time>
      </trkpt>
      <trkpt lat="45.7518" lon="6.84792">
        <ele>2646</ele>
        <time>2019-10-06T08:21:51Z</time>
      </trkpt>
      <trkpt lat="45.7518" lon="6.8479">
        <ele>2647</ele>
        <time>2019-10-06T08:21:52Z</time>
      </trkpt>
      <trkpt lat="45.75179" lon="6.84787">
        <ele>2647</ele>
        <time>2019-10-06T08:21:53Z</time>
      </trkpt>
      <trkpt lat="45.75179" lon="6.84784">
        <ele>2648</ele>
        <time>2019-10-06T08:21:54Z</time>
      </trkpt>
      <trkpt lat="45.75179" lon="6.84782">
        <ele>2648</ele>
        <time>2019-10-06T08:21:55Z</time>
      </trkpt>
      <trkpt lat="45.75178" lon="6.84779">
        <ele>2648</ele>
        <time>2019-10-06T08:21:56Z</time>
      </trkpt>
      <trkpt lat="45.75178" lon="6.84774">
        <ele>2648</ele>
        <time>2019-10-06T08:21:58Z</time>
      </trkpt>
      <trkpt lat="45.75177" lon="6.84771">
        <ele>2648</ele>
        <time>2019-10-06T08:21:59Z</time>
      </trkpt>
      <trkpt lat="45.75176" lon="6.84768">
        <ele>2648</ele>
        <time>2019-10-06T08:22:00Z</time>
      </trkpt>
      <trkpt lat="45.75175" lon="6.84765">
        <ele>2648</ele>
        <time>2019-10-06T08:22:01Z</time>
      </trkpt>
      <trkpt lat="45.75175" lon="6.84762">
        <ele>2649</ele>
        <time>2019-10-06T08:22:02Z</time>
      </trkpt>
      <trkpt lat="45.75174" lon="6.8476">
        <ele>2649</ele>
        <time>2019-10-06T08:22:03Z</time>
      </trkpt>
      <trkpt lat="45.75172" lon="6.84758">
        <ele>2649</ele>
        <time>2019-10-06T08:22:04Z</time>
      </trkpt>
      <trkpt lat="45.75171" lon="6.84756">
        <ele>2649</ele>
        <time>2019-10-06T08:22:05Z</time>
      </trkpt>
      <trkpt lat="45.7517" lon="6.84753">
        <ele>2649</ele>
        <time>2019-10-06T08:22:06Z</time>
      </trkpt>
      <trkpt lat="45.75169" lon="6.84751">
        <ele>2649</ele>
        <time>2019-10-06T08:22:07Z</time>
      </trkpt>
      <trkpt lat="45.75168" lon="6.84748">
        <ele>2649</ele>
        <time>2019-10-06T08:22:08Z</time>
      </trkpt>
      <trkpt lat="45.75166" lon="6.84744">
        <ele>2649</ele>
        <time>2019-10-06T08:22:10Z</time>
      </trkpt>
      <trkpt lat="45.75165" lon="6.8474">
        <ele>2649</ele>
        <time>2019-10-06T08:22:12Z</time>
      </trkpt>
      <trkpt lat="45.75164" lon="6.84735">
        <ele>2649</ele>
        <time>2019-10-06T08:22:14Z</time>
      </trkpt>
      <trkpt lat="45.75163" lon="6.84731">
        <ele>2650</ele>
        <time>2019-10-06T08:22:16Z</time>
      </trkpt>
      <trkpt lat="45.75163" lon="6.84728">
        <ele>2650</ele>
        <time>2019-10-06T08:22:18Z</time>
      </trkpt>
      <trkpt lat="45.75162" lon="6.84724">
        <ele>2651</ele>
        <time>2019-10-06T08:22:20Z</time>
      </trkpt>
      <trkpt lat="45.75161" lon="6.8472">
        <ele>2651</ele>
        <time>2019-10-06T08:22:22Z</time>
      </trkpt>
      <trkpt lat="45.7516" lon="6.84716">
        <ele>2652</ele>
        <time>2019-10-06T08:22:24Z</time>
      </trkpt>
      <trkpt lat="45.75159" lon="6.84712">
        <ele>2652</ele>
        <time>2019-10-06T08:22:26Z</time>
      </trkpt>
      <trkpt lat="45.75157" lon="6.84708">
        <ele>2652</ele>
        <time>2019-10-06T08:22:28Z</time>
      </trkpt>
      <trkpt lat="45.75155" lon="6.84705">
        <ele>2652</ele>
        <time>2019-10-06T08:22:30Z</time>
      </trkpt>
      <trkpt lat="45.75154" lon="6.84701">
        <ele>2652</ele>
        <time>2019-10-06T08:22:32Z</time>
      </trkpt>
      <trkpt lat="45.75152" lon="6.84697">
        <ele>2652</ele>
        <time>2019-10-06T08:22:34Z</time>
      </trkpt>
      <trkpt lat="45.75151" lon="6.84693">
        <ele>2652</ele>
        <time>2019-10-06T08:22:36Z</time>
      </trkpt>
      <trkpt lat="45.7515" lon="6.84689">
        <ele>2653</ele>
        <time>2019-10-06T08:22:38Z</time>
      </trkpt>
      <trkpt lat="45.75148" lon="6.84685">
        <ele>2653</ele>
        <time>2019-10-06T08:22:40Z</time>
      </trkpt>
      <trkpt lat="45.75147" lon="6.84682">
        <ele>2653</ele>
        <time>2019-10-06T08:22:42Z</time>
      </trkpt>
      <trkpt lat="45.75146" lon="6.84678">
        <ele>2653</ele>
        <time>2019-10-06T08:22:44Z</time>
      </trkpt>
      <trkpt lat="45.75144" lon="6.84674">
        <ele>2653</ele>
        <time>2019-10-06T08:22:46Z</time>
      </trkpt>
      <trkpt lat="45.75143" lon="6.8467">
        <ele>2654</ele>
        <time>2019-10-06T08:22:48Z</time>
      </trkpt>
      <trkpt lat="45.75142" lon="6.84667">
        <ele>2654</ele>
        <time>2019-10-06T08:22:50Z</time>
      </trkpt>
      <trkpt lat="45.75141" lon="6.84663">
        <ele>2656</ele>
        <time>2019-10-06T08:22:52Z</time>
      </trkpt>
      <trkpt lat="45.75141" lon="6.84659">
        <ele>2656</ele>
        <time>2019-10-06T08:22:54Z</time>
      </trkpt>
      <trkpt lat="45.75141" lon="6.84654">
        <ele>2656</ele>
        <time>2019-10-06T08:22:56Z</time>
      </trkpt>
      <trkpt lat="45.75141" lon="6.8465">
        <ele>2656</ele>
        <time>2019-10-06T08:22:58Z</time>
      </trkpt>
      <trkpt lat="45.75141" lon="6.84645">
        <ele>2656</ele>
        <time>2019-10-06T08:23:00Z</time>
      </trkpt>
      <trkpt lat="45.75141" lon="6.84643">
        <ele>2657</ele>
        <time>2019-10-06T08:23:01Z</time>
      </trkpt>
      <trkpt lat="45.75141" lon="6.84638">
        <ele>2657</ele>
        <time>2019-10-06T08:23:02Z</time>
      </trkpt>
      <trkpt lat="45.75141" lon="6.84636">
        <ele>2657</ele>
        <time>2019-10-06T08:23:03Z</time>
      </trkpt>
      <trkpt lat="45.75141" lon="6.84634">
        <ele>2657</ele>
        <time>2019-10-06T08:23:04Z</time>
      </trkpt>
      <trkpt lat="45.75141" lon="6.8463">
        <ele>2657</ele>
        <time>2019-10-06T08:23:05Z</time>
      </trkpt>
      <trkpt lat="45.75142" lon="6.84627">
        <ele>2657</ele>
        <time>2019-10-06T08:23:06Z</time>
      </trkpt>
      <trkpt lat="45.75142" lon="6.84624">
        <ele>2657</ele>
        <time>2019-10-06T08:23:07Z</time>
      </trkpt>
      <trkpt lat="45.75142" lon="6.84622">
        <ele>2657</ele>
        <time>2019-10-06T08:23:08Z</time>
      </trkpt>
      <trkpt lat="45.75143" lon="6.84618">
        <ele>2658</ele>
        <time>2019-10-06T08:23:09Z</time>
      </trkpt>
      <trkpt lat="45.75143" lon="6.84616">
        <ele>2658</ele>
        <time>2019-10-06T08:23:10Z</time>
      </trkpt>
      <trkpt lat="45.75143" lon="6.84613">
        <ele>2657</ele>
        <time>2019-10-06T08:23:11Z</time>
      </trkpt>
      <trkpt lat="45.75143" lon="6.8461">
        <ele>2657</ele>
        <time>2019-10-06T08:23:12Z</time>
      </trkpt>
      <trkpt lat="45.75144" lon="6.84607">
        <ele>2657</ele>
        <time>2019-10-06T08:23:13Z</time>
      </trkpt>
      <trkpt lat="45.75144" lon="6.84604">
        <ele>2657</ele>
        <time>2019-10-06T08:23:14Z</time>
      </trkpt>
      <trkpt lat="45.75144" lon="6.84601">
        <ele>2657</ele>
        <time>2019-10-06T08:23:15Z</time>
      </trkpt>
      <trkpt lat="45.75144" lon="6.84598">
        <ele>2657</ele>
        <time>2019-10-06T08:23:16Z</time>
      </trkpt>
      <trkpt lat="45.75144" lon="6.84596">
        <ele>2658</ele>
        <time>2019-10-06T08:23:17Z</time>
      </trkpt>
      <trkpt lat="45.75144" lon="6.84593">
        <ele>2658</ele>
        <time>2019-10-06T08:23:18Z</time>
      </trkpt>
      <trkpt lat="45.75144" lon="6.8459">
        <ele>2658</ele>
        <time>2019-10-06T08:23:19Z</time>
      </trkpt>
      <trkpt lat="45.75144" lon="6.84587">
        <ele>2658</ele>
        <time>2019-10-06T08:23:20Z</time>
      </trkpt>
      <trkpt lat="45.75145" lon="6.84584">
        <ele>2658</ele>
        <time>2019-10-06T08:23:21Z</time>
      </trkpt>
      <trkpt lat="45.75145" lon="6.84581">
        <ele>2658</ele>
        <time>2019-10-06T08:23:22Z</time>
      </trkpt>
      <trkpt lat="45.75145" lon="6.84578">
        <ele>2658</ele>
        <time>2019-10-06T08:23:23Z</time>
      </trkpt>
      <trkpt lat="45.75145" lon="6.84575">
        <ele>2658</ele>
        <time>2019-10-06T08:23:24Z</time>
      </trkpt>
      <trkpt lat="45.75146" lon="6.84572">
        <ele>2658</ele>
        <time>2019-10-06T08:23:25Z</time>
      </trkpt>
      <trkpt lat="45.75146" lon="6.84569">
        <ele>2658</ele>
        <time>2019-10-06T08:23:26Z</time>
      </trkpt>
      <trkpt lat="45.75147" lon="6.84566">
        <ele>2659</ele>
        <time>2019-10-06T08:23:27Z</time>
      </trkpt>
      <trkpt lat="45.75147" lon="6.84563">
        <ele>2659</ele>
        <time>2019-10-06T08:23:28Z</time>
      </trkpt>
      <trkpt lat="45.75148" lon="6.8456">
        <ele>2659</ele>
        <time>2019-10-06T08:23:29Z</time>
      </trkpt>
      <trkpt lat="45.75148" lon="6.84558">
        <ele>2659</ele>
        <time>2019-10-06T08:23:30Z</time>
      </trkpt>
      <trkpt lat="45.75149" lon="6.84555">
        <ele>2659</ele>
        <time>2019-10-06T08:23:31Z</time>
      </trkpt>
      <trkpt lat="45.75149" lon="6.84552">
        <ele>2659</ele>
        <time>2019-10-06T08:23:32Z</time>
      </trkpt>
      <trkpt lat="45.7515" lon="6.84549">
        <ele>2659</ele>
        <time>2019-10-06T08:23:33Z</time>
      </trkpt>
      <trkpt lat="45.7515" lon="6.84547">
        <ele>2659</ele>
        <time>2019-10-06T08:23:34Z</time>
      </trkpt>
      <trkpt lat="45.7515" lon="6.84544">
        <ele>2659</ele>
        <time>2019-10-06T08:23:35Z</time>
      </trkpt>
      <trkpt lat="45.7515" lon="6.84541">
        <ele>2659</ele>
        <time>2019-10-06T08:23:36Z</time>
      </trkpt>
      <trkpt lat="45.75149" lon="6.84538">
        <ele>2660</ele>
        <time>2019-10-06T08:23:37Z</time>
      </trkpt>
      <trkpt lat="45.75149" lon="6.84535">
        <ele>2660</ele>
        <time>2019-10-06T08:23:38Z</time>
      </trkpt>
      <trkpt lat="45.75148" lon="6.84532">
        <ele>2660</ele>
        <time>2019-10-06T08:23:39Z</time>
      </trkpt>
      <trkpt lat="45.75148" lon="6.8453">
        <ele>2660</ele>
        <time>2019-10-06T08:23:40Z</time>
      </trkpt>
      <trkpt lat="45.75147" lon="6.84527">
        <ele>2660</ele>
        <time>2019-10-06T08:23:41Z</time>
      </trkpt>
      <trkpt lat="45.75146" lon="6.84524">
        <ele>2660</ele>
        <time>2019-10-06T08:23:42Z</time>
      </trkpt>
      <trkpt lat="45.75145" lon="6.84522">
        <ele>2660</ele>
        <time>2019-10-06T08:23:43Z</time>
      </trkpt>
      <trkpt lat="45.75144" lon="6.84519">
        <ele>2660</ele>
        <time>2019-10-06T08:23:44Z</time>
      </trkpt>
      <trkpt lat="45.75143" lon="6.84517">
        <ele>2660</ele>
        <time>2019-10-06T08:23:45Z</time>
      </trkpt>
      <trkpt lat="45.75142" lon="6.84514">
        <ele>2660</ele>
        <time>2019-10-06T08:23:46Z</time>
      </trkpt>
      <trkpt lat="45.75141" lon="6.84512">
        <ele>2661</ele>
        <time>2019-10-06T08:23:47Z</time>
      </trkpt>
      <trkpt lat="45.75139" lon="6.8451">
        <ele>2661</ele>
        <time>2019-10-06T08:23:48Z</time>
      </trkpt>
      <trkpt lat="45.75138" lon="6.84507">
        <ele>2661</ele>
        <time>2019-10-06T08:23:49Z</time>
      </trkpt>
      <trkpt lat="45.75137" lon="6.84505">
        <ele>2662</ele>
        <time>2019-10-06T08:23:50Z</time>
      </trkpt>
      <trkpt lat="45.75136" lon="6.84503">
        <ele>2662</ele>
        <time>2019-10-06T08:23:51Z</time>
      </trkpt>
      <trkpt lat="45.75135" lon="6.845">
        <ele>2662</ele>
        <time>2019-10-06T08:23:52Z</time>
      </trkpt>
      <trkpt lat="45.75133" lon="6.84495">
        <ele>2662</ele>
        <time>2019-10-06T08:23:54Z</time>
      </trkpt>
      <trkpt lat="45.75132" lon="6.84493">
        <ele>2662</ele>
        <time>2019-10-06T08:23:55Z</time>
      </trkpt>
      <trkpt lat="45.75132" lon="6.8449">
        <ele>2662</ele>
        <time>2019-10-06T08:23:56Z</time>
      </trkpt>
      <trkpt lat="45.75131" lon="6.84488">
        <ele>2663</ele>
        <time>2019-10-06T08:23:57Z</time>
      </trkpt>
      <trkpt lat="45.7513" lon="6.84485">
        <ele>2663</ele>
        <time>2019-10-06T08:23:58Z</time>
      </trkpt>
      <trkpt lat="45.7513" lon="6.84482">
        <ele>2663</ele>
        <time>2019-10-06T08:23:59Z</time>
      </trkpt>
      <trkpt lat="45.75129" lon="6.8448">
        <ele>2663</ele>
        <time>2019-10-06T08:24:00Z</time>
      </trkpt>
      <trkpt lat="45.75128" lon="6.84477">
        <ele>2663</ele>
        <time>2019-10-06T08:24:01Z</time>
      </trkpt>
      <trkpt lat="45.75127" lon="6.84474">
        <ele>2663</ele>
        <time>2019-10-06T08:24:02Z</time>
      </trkpt>
      <trkpt lat="45.75127" lon="6.84472">
        <ele>2663</ele>
        <time>2019-10-06T08:24:03Z</time>
      </trkpt>
      <trkpt lat="45.75126" lon="6.84469">
        <ele>2663</ele>
        <time>2019-10-06T08:24:04Z</time>
      </trkpt>
      <trkpt lat="45.75126" lon="6.84466">
        <ele>2663</ele>
        <time>2019-10-06T08:24:05Z</time>
      </trkpt>
      <trkpt lat="45.75126" lon="6.84463">
        <ele>2663</ele>
        <time>2019-10-06T08:24:06Z</time>
      </trkpt>
      <trkpt lat="45.75125" lon="6.8446">
        <ele>2663</ele>
        <time>2019-10-06T08:24:07Z</time>
      </trkpt>
      <trkpt lat="45.75125" lon="6.84457">
        <ele>2663</ele>
        <time>2019-10-06T08:24:08Z</time>
      </trkpt>
      <trkpt lat="45.75125" lon="6.84454">
        <ele>2663</ele>
        <time>2019-10-06T08:24:09Z</time>
      </trkpt>
      <trkpt lat="45.75124" lon="6.84451">
        <ele>2663</ele>
        <time>2019-10-06T08:24:10Z</time>
      </trkpt>
      <trkpt lat="45.75124" lon="6.84449">
        <ele>2664</ele>
        <time>2019-10-06T08:24:11Z</time>
      </trkpt>
      <trkpt lat="45.75124" lon="6.84446">
        <ele>2664</ele>
        <time>2019-10-06T08:24:12Z</time>
      </trkpt>
      <trkpt lat="45.75124" lon="6.84443">
        <ele>2664</ele>
        <time>2019-10-06T08:24:13Z</time>
      </trkpt>
      <trkpt lat="45.75123" lon="6.8444">
        <ele>2664</ele>
        <time>2019-10-06T08:24:14Z</time>
      </trkpt>
      <trkpt lat="45.75123" lon="6.84437">
        <ele>2664</ele>
        <time>2019-10-06T08:24:15Z</time>
      </trkpt>
      <trkpt lat="45.75123" lon="6.84434">
        <ele>2664</ele>
        <time>2019-10-06T08:24:16Z</time>
      </trkpt>
      <trkpt lat="45.75123" lon="6.84432">
        <ele>2664</ele>
        <time>2019-10-06T08:24:17Z</time>
      </trkpt>
      <trkpt lat="45.75123" lon="6.84429">
        <ele>2664</ele>
        <time>2019-10-06T08:24:18Z</time>
      </trkpt>
      <trkpt lat="45.75122" lon="6.84426">
        <ele>2664</ele>
        <time>2019-10-06T08:24:19Z</time>
      </trkpt>
      <trkpt lat="45.75122" lon="6.84423">
        <ele>2664</ele>
        <time>2019-10-06T08:24:20Z</time>
      </trkpt>
      <trkpt lat="45.75122" lon="6.84418">
        <ele>2664</ele>
        <time>2019-10-06T08:24:22Z</time>
      </trkpt>
      <trkpt lat="45.75122" lon="6.84415">
        <ele>2664</ele>
        <time>2019-10-06T08:24:23Z</time>
      </trkpt>
      <trkpt lat="45.75122" lon="6.84413">
        <ele>2664</ele>
        <time>2019-10-06T08:24:24Z</time>
      </trkpt>
      <trkpt lat="45.75122" lon="6.8441">
        <ele>2665</ele>
        <time>2019-10-06T08:24:25Z</time>
      </trkpt>
      <trkpt lat="45.75121" lon="6.84407">
        <ele>2665</ele>
        <time>2019-10-06T08:24:26Z</time>
      </trkpt>
      <trkpt lat="45.75121" lon="6.84405">
        <ele>2665</ele>
        <time>2019-10-06T08:24:27Z</time>
      </trkpt>
      <trkpt lat="45.75121" lon="6.84402">
        <ele>2665</ele>
        <time>2019-10-06T08:24:28Z</time>
      </trkpt>
      <trkpt lat="45.7512" lon="6.84399">
        <ele>2666</ele>
        <time>2019-10-06T08:24:29Z</time>
      </trkpt>
      <trkpt lat="45.7512" lon="6.84396">
        <ele>2666</ele>
        <time>2019-10-06T08:24:30Z</time>
      </trkpt>
      <trkpt lat="45.7512" lon="6.84394">
        <ele>2666</ele>
        <time>2019-10-06T08:24:31Z</time>
      </trkpt>
      <trkpt lat="45.75119" lon="6.84391">
        <ele>2666</ele>
        <time>2019-10-06T08:24:32Z</time>
      </trkpt>
      <trkpt lat="45.75119" lon="6.84388">
        <ele>2666</ele>
        <time>2019-10-06T08:24:33Z</time>
      </trkpt>
      <trkpt lat="45.75119" lon="6.84386">
        <ele>2666</ele>
        <time>2019-10-06T08:24:34Z</time>
      </trkpt>
      <trkpt lat="45.75118" lon="6.84381">
        <ele>2668</ele>
        <time>2019-10-06T08:24:36Z</time>
      </trkpt>
      <trkpt lat="45.75118" lon="6.84378">
        <ele>2668</ele>
        <time>2019-10-06T08:24:37Z</time>
      </trkpt>
      <trkpt lat="45.75118" lon="6.84375">
        <ele>2668</ele>
        <time>2019-10-06T08:24:38Z</time>
      </trkpt>
      <trkpt lat="45.75117" lon="6.8437">
        <ele>2668</ele>
        <time>2019-10-06T08:24:40Z</time>
      </trkpt>
      <trkpt lat="45.75116" lon="6.84367">
        <ele>2668</ele>
        <time>2019-10-06T08:24:41Z</time>
      </trkpt>
      <trkpt lat="45.75116" lon="6.84364">
        <ele>2668</ele>
        <time>2019-10-06T08:24:42Z</time>
      </trkpt>
      <trkpt lat="45.75115" lon="6.84359">
        <ele>2668</ele>
        <time>2019-10-06T08:24:44Z</time>
      </trkpt>
      <trkpt lat="45.75115" lon="6.84356">
        <ele>2668</ele>
        <time>2019-10-06T08:24:45Z</time>
      </trkpt>
      <trkpt lat="45.75115" lon="6.84351">
        <ele>2669</ele>
        <time>2019-10-06T08:24:47Z</time>
      </trkpt>
      <trkpt lat="45.75115" lon="6.84348">
        <ele>2669</ele>
        <time>2019-10-06T08:24:48Z</time>
      </trkpt>
      <trkpt lat="45.75115" lon="6.84346">
        <ele>2669</ele>
        <time>2019-10-06T08:24:49Z</time>
      </trkpt>
      <trkpt lat="45.75116" lon="6.84343">
        <ele>2669</ele>
        <time>2019-10-06T08:24:50Z</time>
      </trkpt>
      <trkpt lat="45.75117" lon="6.84339">
        <ele>2669</ele>
        <time>2019-10-06T08:24:51Z</time>
      </trkpt>
      <trkpt lat="45.75117" lon="6.84338">
        <ele>2669</ele>
        <time>2019-10-06T08:24:52Z</time>
      </trkpt>
      <trkpt lat="45.75118" lon="6.84335">
        <ele>2669</ele>
        <time>2019-10-06T08:24:53Z</time>
      </trkpt>
      <trkpt lat="45.75119" lon="6.84331">
        <ele>2669</ele>
        <time>2019-10-06T08:24:55Z</time>
      </trkpt>
      <trkpt lat="45.7512" lon="6.84328">
        <ele>2669</ele>
        <time>2019-10-06T08:24:56Z</time>
      </trkpt>
      <trkpt lat="45.7512" lon="6.84325">
        <ele>2669</ele>
        <time>2019-10-06T08:24:57Z</time>
      </trkpt>
      <trkpt lat="45.75121" lon="6.84322">
        <ele>2669</ele>
        <time>2019-10-06T08:24:58Z</time>
      </trkpt>
      <trkpt lat="45.75121" lon="6.84319">
        <ele>2669</ele>
        <time>2019-10-06T08:24:59Z</time>
      </trkpt>
      <trkpt lat="45.75122" lon="6.84317">
        <ele>2669</ele>
        <time>2019-10-06T08:25:00Z</time>
      </trkpt>
      <trkpt lat="45.75123" lon="6.84314">
        <ele>2670</ele>
        <time>2019-10-06T08:25:01Z</time>
      </trkpt>
      <trkpt lat="45.75123" lon="6.84311">
        <ele>2670</ele>
        <time>2019-10-06T08:25:02Z</time>
      </trkpt>
      <trkpt lat="45.75123" lon="6.84308">
        <ele>2670</ele>
        <time>2019-10-06T08:25:03Z</time>
      </trkpt>
      <trkpt lat="45.75124" lon="6.84305">
        <ele>2670</ele>
        <time>2019-10-06T08:25:04Z</time>
      </trkpt>
      <trkpt lat="45.75124" lon="6.84302">
        <ele>2670</ele>
        <time>2019-10-06T08:25:05Z</time>
      </trkpt>
      <trkpt lat="45.75124" lon="6.843">
        <ele>2670</ele>
        <time>2019-10-06T08:25:06Z</time>
      </trkpt>
      <trkpt lat="45.75124" lon="6.84297">
        <ele>2670</ele>
        <time>2019-10-06T08:25:07Z</time>
      </trkpt>
      <trkpt lat="45.75124" lon="6.84294">
        <ele>2670</ele>
        <time>2019-10-06T08:25:08Z</time>
      </trkpt>
      <trkpt lat="45.75124" lon="6.84291">
        <ele>2670</ele>
        <time>2019-10-06T08:25:09Z</time>
      </trkpt>
      <trkpt lat="45.75124" lon="6.84288">
        <ele>2670</ele>
        <time>2019-10-06T08:25:10Z</time>
      </trkpt>
      <trkpt lat="45.75124" lon="6.84285">
        <ele>2671</ele>
        <time>2019-10-06T08:25:11Z</time>
      </trkpt>
      <trkpt lat="45.75124" lon="6.84282">
        <ele>2672</ele>
        <time>2019-10-06T08:25:12Z</time>
      </trkpt>
      <trkpt lat="45.75125" lon="6.8428">
        <ele>2672</ele>
        <time>2019-10-06T08:25:13Z</time>
      </trkpt>
      <trkpt lat="45.75125" lon="6.84274">
        <ele>2672</ele>
        <time>2019-10-06T08:25:15Z</time>
      </trkpt>
      <trkpt lat="45.75125" lon="6.84272">
        <ele>2672</ele>
        <time>2019-10-06T08:25:16Z</time>
      </trkpt>
      <trkpt lat="45.75125" lon="6.84269">
        <ele>2672</ele>
        <time>2019-10-06T08:25:17Z</time>
      </trkpt>
      <trkpt lat="45.75125" lon="6.84266">
        <ele>2672</ele>
        <time>2019-10-06T08:25:18Z</time>
      </trkpt>
      <trkpt lat="45.75125" lon="6.84263">
        <ele>2672</ele>
        <time>2019-10-06T08:25:19Z</time>
      </trkpt>
      <trkpt lat="45.75125" lon="6.8426">
        <ele>2672</ele>
        <time>2019-10-06T08:25:20Z</time>
      </trkpt>
      <trkpt lat="45.75124" lon="6.84257">
        <ele>2672</ele>
        <time>2019-10-06T08:25:21Z</time>
      </trkpt>
      <trkpt lat="45.75124" lon="6.84254">
        <ele>2672</ele>
        <time>2019-10-06T08:25:22Z</time>
      </trkpt>
      <trkpt lat="45.75124" lon="6.8425">
        <ele>2672</ele>
        <time>2019-10-06T08:25:23Z</time>
      </trkpt>
      <trkpt lat="45.75124" lon="6.84248">
        <ele>2672</ele>
        <time>2019-10-06T08:25:24Z</time>
      </trkpt>
      <trkpt lat="45.75124" lon="6.84245">
        <ele>2672</ele>
        <time>2019-10-06T08:25:25Z</time>
      </trkpt>
      <trkpt lat="45.75123" lon="6.84241">
        <ele>2672</ele>
        <time>2019-10-06T08:25:26Z</time>
      </trkpt>
      <trkpt lat="45.75123" lon="6.84239">
        <ele>2672</ele>
        <time>2019-10-06T08:25:27Z</time>
      </trkpt>
      <trkpt lat="45.75122" lon="6.84236">
        <ele>2673</ele>
        <time>2019-10-06T08:25:28Z</time>
      </trkpt>
      <trkpt lat="45.75122" lon="6.84233">
        <ele>2673</ele>
        <time>2019-10-06T08:25:29Z</time>
      </trkpt>
      <trkpt lat="45.75121" lon="6.8423">
        <ele>2673</ele>
        <time>2019-10-06T08:25:30Z</time>
      </trkpt>
      <trkpt lat="45.7512" lon="6.84227">
        <ele>2673</ele>
        <time>2019-10-06T08:25:31Z</time>
      </trkpt>
      <trkpt lat="45.75119" lon="6.84224">
        <ele>2673</ele>
        <time>2019-10-06T08:25:32Z</time>
      </trkpt>
      <trkpt lat="45.75118" lon="6.84221">
        <ele>2673</ele>
        <time>2019-10-06T08:25:33Z</time>
      </trkpt>
      <trkpt lat="45.75118" lon="6.84218">
        <ele>2673</ele>
        <time>2019-10-06T08:25:34Z</time>
      </trkpt>
      <trkpt lat="45.75118" lon="6.84215">
        <ele>2673</ele>
        <time>2019-10-06T08:25:35Z</time>
      </trkpt>
      <trkpt lat="45.75117" lon="6.84212">
        <ele>2673</ele>
        <time>2019-10-06T08:25:36Z</time>
      </trkpt>
      <trkpt lat="45.75116" lon="6.84209">
        <ele>2673</ele>
        <time>2019-10-06T08:25:37Z</time>
      </trkpt>
      <trkpt lat="45.75115" lon="6.84207">
        <ele>2673</ele>
        <time>2019-10-06T08:25:38Z</time>
      </trkpt>
      <trkpt lat="45.75114" lon="6.84204">
        <ele>2673</ele>
        <time>2019-10-06T08:25:39Z</time>
      </trkpt>
      <trkpt lat="45.75113" lon="6.84201">
        <ele>2672</ele>
        <time>2019-10-06T08:25:40Z</time>
      </trkpt>
      <trkpt lat="45.75113" lon="6.84198">
        <ele>2672</ele>
        <time>2019-10-06T08:25:41Z</time>
      </trkpt>
      <trkpt lat="45.75113" lon="6.84196">
        <ele>2672</ele>
        <time>2019-10-06T08:25:42Z</time>
      </trkpt>
      <trkpt lat="45.75112" lon="6.84193">
        <ele>2672</ele>
        <time>2019-10-06T08:25:43Z</time>
      </trkpt>
      <trkpt lat="45.75111" lon="6.8419">
        <ele>2672</ele>
        <time>2019-10-06T08:25:44Z</time>
      </trkpt>
      <trkpt lat="45.75111" lon="6.84187">
        <ele>2672</ele>
        <time>2019-10-06T08:25:45Z</time>
      </trkpt>
      <trkpt lat="45.7511" lon="6.84184">
        <ele>2672</ele>
        <time>2019-10-06T08:25:46Z</time>
      </trkpt>
      <trkpt lat="45.7511" lon="6.84182">
        <ele>2673</ele>
        <time>2019-10-06T08:25:47Z</time>
      </trkpt>
      <trkpt lat="45.75109" lon="6.84179">
        <ele>2673</ele>
        <time>2019-10-06T08:25:48Z</time>
      </trkpt>
      <trkpt lat="45.75108" lon="6.84176">
        <ele>2673</ele>
        <time>2019-10-06T08:25:49Z</time>
      </trkpt>
      <trkpt lat="45.75107" lon="6.84174">
        <ele>2673</ele>
        <time>2019-10-06T08:25:50Z</time>
      </trkpt>
      <trkpt lat="45.75107" lon="6.84171">
        <ele>2673</ele>
        <time>2019-10-06T08:25:51Z</time>
      </trkpt>
      <trkpt lat="45.75106" lon="6.84168">
        <ele>2673</ele>
        <time>2019-10-06T08:25:52Z</time>
      </trkpt>
      <trkpt lat="45.75106" lon="6.84163">
        <ele>2673</ele>
        <time>2019-10-06T08:25:54Z</time>
      </trkpt>
      <trkpt lat="45.75105" lon="6.84158">
        <ele>2673</ele>
        <time>2019-10-06T08:25:56Z</time>
      </trkpt>
      <trkpt lat="45.75104" lon="6.84155">
        <ele>2674</ele>
        <time>2019-10-06T08:25:58Z</time>
      </trkpt>
      <trkpt lat="45.75102" lon="6.84151">
        <ele>2674</ele>
        <time>2019-10-06T08:26:00Z</time>
      </trkpt>
      <trkpt lat="45.75101" lon="6.84148">
        <ele>2674</ele>
        <time>2019-10-06T08:26:01Z</time>
      </trkpt>
      <trkpt lat="45.751" lon="6.84145">
        <ele>2674</ele>
        <time>2019-10-06T08:26:02Z</time>
      </trkpt>
      <trkpt lat="45.75099" lon="6.84142">
        <ele>2674</ele>
        <time>2019-10-06T08:26:03Z</time>
      </trkpt>
      <trkpt lat="45.75099" lon="6.84139">
        <ele>2674</ele>
        <time>2019-10-06T08:26:04Z</time>
      </trkpt>
      <trkpt lat="45.75098" lon="6.84136">
        <ele>2674</ele>
        <time>2019-10-06T08:26:05Z</time>
      </trkpt>
      <trkpt lat="45.75097" lon="6.84133">
        <ele>2674</ele>
        <time>2019-10-06T08:26:06Z</time>
      </trkpt>
      <trkpt lat="45.75096" lon="6.84129">
        <ele>2674</ele>
        <time>2019-10-06T08:26:07Z</time>
      </trkpt>
      <trkpt lat="45.75096" lon="6.84128">
        <ele>2674</ele>
        <time>2019-10-06T08:26:08Z</time>
      </trkpt>
      <trkpt lat="45.75095" lon="6.84125">
        <ele>2674</ele>
        <time>2019-10-06T08:26:09Z</time>
      </trkpt>
      <trkpt lat="45.75094" lon="6.84122">
        <ele>2674</ele>
        <time>2019-10-06T08:26:10Z</time>
      </trkpt>
      <trkpt lat="45.75093" lon="6.8412">
        <ele>2674</ele>
        <time>2019-10-06T08:26:11Z</time>
      </trkpt>
      <trkpt lat="45.75092" lon="6.84117">
        <ele>2674</ele>
        <time>2019-10-06T08:26:12Z</time>
      </trkpt>
      <trkpt lat="45.7509" lon="6.84114">
        <ele>2674</ele>
        <time>2019-10-06T08:26:13Z</time>
      </trkpt>
      <trkpt lat="45.7509" lon="6.84112">
        <ele>2674</ele>
        <time>2019-10-06T08:26:14Z</time>
      </trkpt>
      <trkpt lat="45.75089" lon="6.84109">
        <ele>2674</ele>
        <time>2019-10-06T08:26:15Z</time>
      </trkpt>
      <trkpt lat="45.75088" lon="6.84107">
        <ele>2674</ele>
        <time>2019-10-06T08:26:16Z</time>
      </trkpt>
      <trkpt lat="45.75087" lon="6.84104">
        <ele>2674</ele>
        <time>2019-10-06T08:26:17Z</time>
      </trkpt>
      <trkpt lat="45.75087" lon="6.84101">
        <ele>2675</ele>
        <time>2019-10-06T08:26:18Z</time>
      </trkpt>
      <trkpt lat="45.75086" lon="6.84098">
        <ele>2675</ele>
        <time>2019-10-06T08:26:19Z</time>
      </trkpt>
      <trkpt lat="45.75085" lon="6.84095">
        <ele>2675</ele>
        <time>2019-10-06T08:26:20Z</time>
      </trkpt>
      <trkpt lat="45.75085" lon="6.84092">
        <ele>2675</ele>
        <time>2019-10-06T08:26:21Z</time>
      </trkpt>
      <trkpt lat="45.75085" lon="6.8409">
        <ele>2675</ele>
        <time>2019-10-06T08:26:22Z</time>
      </trkpt>
      <trkpt lat="45.75084" lon="6.84087">
        <ele>2675</ele>
        <time>2019-10-06T08:26:23Z</time>
      </trkpt>
      <trkpt lat="45.75084" lon="6.84084">
        <ele>2675</ele>
        <time>2019-10-06T08:26:24Z</time>
      </trkpt>
      <trkpt lat="45.75083" lon="6.84081">
        <ele>2675</ele>
        <time>2019-10-06T08:26:25Z</time>
      </trkpt>
      <trkpt lat="45.75083" lon="6.84079">
        <ele>2675</ele>
        <time>2019-10-06T08:26:26Z</time>
      </trkpt>
      <trkpt lat="45.75082" lon="6.84076">
        <ele>2675</ele>
        <time>2019-10-06T08:26:27Z</time>
      </trkpt>
      <trkpt lat="45.75081" lon="6.84073">
        <ele>2675</ele>
        <time>2019-10-06T08:26:28Z</time>
      </trkpt>
      <trkpt lat="45.75081" lon="6.8407">
        <ele>2675</ele>
        <time>2019-10-06T08:26:29Z</time>
      </trkpt>
      <trkpt lat="45.7508" lon="6.84067">
        <ele>2675</ele>
        <time>2019-10-06T08:26:30Z</time>
      </trkpt>
      <trkpt lat="45.7508" lon="6.84063">
        <ele>2675</ele>
        <time>2019-10-06T08:26:31Z</time>
      </trkpt>
      <trkpt lat="45.7508" lon="6.8406">
        <ele>2676</ele>
        <time>2019-10-06T08:26:32Z</time>
      </trkpt>
      <trkpt lat="45.7508" lon="6.84058">
        <ele>2676</ele>
        <time>2019-10-06T08:26:33Z</time>
      </trkpt>
      <trkpt lat="45.7508" lon="6.84055">
        <ele>2676</ele>
        <time>2019-10-06T08:26:34Z</time>
      </trkpt>
      <trkpt lat="45.75079" lon="6.84052">
        <ele>2676</ele>
        <time>2019-10-06T08:26:35Z</time>
      </trkpt>
      <trkpt lat="45.75078" lon="6.84049">
        <ele>2676</ele>
        <time>2019-10-06T08:26:36Z</time>
      </trkpt>
      <trkpt lat="45.75078" lon="6.84047">
        <ele>2676</ele>
        <time>2019-10-06T08:26:37Z</time>
      </trkpt>
      <trkpt lat="45.75077" lon="6.84044">
        <ele>2676</ele>
        <time>2019-10-06T08:26:38Z</time>
      </trkpt>
      <trkpt lat="45.75076" lon="6.84042">
        <ele>2676</ele>
        <time>2019-10-06T08:26:39Z</time>
      </trkpt>
      <trkpt lat="45.75074" lon="6.84039">
        <ele>2676</ele>
        <time>2019-10-06T08:26:40Z</time>
      </trkpt>
      <trkpt lat="45.75073" lon="6.84036">
        <ele>2676</ele>
        <time>2019-10-06T08:26:41Z</time>
      </trkpt>
      <trkpt lat="45.75072" lon="6.84033">
        <ele>2676</ele>
        <time>2019-10-06T08:26:42Z</time>
      </trkpt>
      <trkpt lat="45.75071" lon="6.8403">
        <ele>2677</ele>
        <time>2019-10-06T08:26:43Z</time>
      </trkpt>
      <trkpt lat="45.7507" lon="6.84027">
        <ele>2677</ele>
        <time>2019-10-06T08:26:44Z</time>
      </trkpt>
      <trkpt lat="45.7507" lon="6.84023">
        <ele>2678</ele>
        <time>2019-10-06T08:26:46Z</time>
      </trkpt>
      <trkpt lat="45.75071" lon="6.84019">
        <ele>2678</ele>
        <time>2019-10-06T08:26:48Z</time>
      </trkpt>
      <trkpt lat="45.75071" lon="6.84016">
        <ele>2678</ele>
        <time>2019-10-06T08:26:50Z</time>
      </trkpt>
      <trkpt lat="45.7507" lon="6.8401">
        <ele>2678</ele>
        <time>2019-10-06T08:26:52Z</time>
      </trkpt>
      <trkpt lat="45.75069" lon="6.84008">
        <ele>2678</ele>
        <time>2019-10-06T08:26:53Z</time>
      </trkpt>
      <trkpt lat="45.75067" lon="6.84003">
        <ele>2678</ele>
        <time>2019-10-06T08:26:55Z</time>
      </trkpt>
      <trkpt lat="45.75066" lon="6.84001">
        <ele>2678</ele>
        <time>2019-10-06T08:26:56Z</time>
      </trkpt>
      <trkpt lat="45.75065" lon="6.83998">
        <ele>2680</ele>
        <time>2019-10-06T08:26:57Z</time>
      </trkpt>
      <trkpt lat="45.75064" lon="6.83996">
        <ele>2680</ele>
        <time>2019-10-06T08:26:58Z</time>
      </trkpt>
      <trkpt lat="45.75062" lon="6.83995">
        <ele>2680</ele>
        <time>2019-10-06T08:26:59Z</time>
      </trkpt>
      <trkpt lat="45.7506" lon="6.83993">
        <ele>2680</ele>
        <time>2019-10-06T08:27:00Z</time>
      </trkpt>
      <trkpt lat="45.75059" lon="6.83989">
        <ele>2680</ele>
        <time>2019-10-06T08:27:02Z</time>
      </trkpt>
      <trkpt lat="45.75057" lon="6.83985">
        <ele>2680</ele>
        <time>2019-10-06T08:27:04Z</time>
      </trkpt>
      <trkpt lat="45.75056" lon="6.83983">
        <ele>2680</ele>
        <time>2019-10-06T08:27:05Z</time>
      </trkpt>
      <trkpt lat="45.75055" lon="6.8398">
        <ele>2681</ele>
        <time>2019-10-06T08:27:06Z</time>
      </trkpt>
      <trkpt lat="45.75054" lon="6.83978">
        <ele>2681</ele>
        <time>2019-10-06T08:27:07Z</time>
      </trkpt>
      <trkpt lat="45.75052" lon="6.83976">
        <ele>2681</ele>
        <time>2019-10-06T08:27:08Z</time>
      </trkpt>
      <trkpt lat="45.75051" lon="6.83973">
        <ele>2681</ele>
        <time>2019-10-06T08:27:09Z</time>
      </trkpt>
      <trkpt lat="45.7505" lon="6.8397">
        <ele>2681</ele>
        <time>2019-10-06T08:27:10Z</time>
      </trkpt>
      <trkpt lat="45.75049" lon="6.83968">
        <ele>2681</ele>
        <time>2019-10-06T08:27:11Z</time>
      </trkpt>
      <trkpt lat="45.75048" lon="6.83965">
        <ele>2681</ele>
        <time>2019-10-06T08:27:12Z</time>
      </trkpt>
      <trkpt lat="45.75047" lon="6.83962">
        <ele>2681</ele>
        <time>2019-10-06T08:27:13Z</time>
      </trkpt>
      <trkpt lat="45.75046" lon="6.8396">
        <ele>2681</ele>
        <time>2019-10-06T08:27:14Z</time>
      </trkpt>
      <trkpt lat="45.75046" lon="6.83957">
        <ele>2681</ele>
        <time>2019-10-06T08:27:15Z</time>
      </trkpt>
      <trkpt lat="45.75045" lon="6.83954">
        <ele>2681</ele>
        <time>2019-10-06T08:27:16Z</time>
      </trkpt>
      <trkpt lat="45.75044" lon="6.83952">
        <ele>2681</ele>
        <time>2019-10-06T08:27:17Z</time>
      </trkpt>
      <trkpt lat="45.75042" lon="6.83948">
        <ele>2681</ele>
        <time>2019-10-06T08:27:18Z</time>
      </trkpt>
      <trkpt lat="45.75042" lon="6.83947">
        <ele>2681</ele>
        <time>2019-10-06T08:27:19Z</time>
      </trkpt>
      <trkpt lat="45.75041" lon="6.83944">
        <ele>2681</ele>
        <time>2019-10-06T08:27:20Z</time>
      </trkpt>
      <trkpt lat="45.7504" lon="6.83941">
        <ele>2681</ele>
        <time>2019-10-06T08:27:21Z</time>
      </trkpt>
      <trkpt lat="45.7504" lon="6.83938">
        <ele>2681</ele>
        <time>2019-10-06T08:27:22Z</time>
      </trkpt>
      <trkpt lat="45.75039" lon="6.83936">
        <ele>2681</ele>
        <time>2019-10-06T08:27:23Z</time>
      </trkpt>
      <trkpt lat="45.75038" lon="6.83933">
        <ele>2681</ele>
        <time>2019-10-06T08:27:24Z</time>
      </trkpt>
      <trkpt lat="45.75037" lon="6.8393">
        <ele>2681</ele>
        <time>2019-10-06T08:27:25Z</time>
      </trkpt>
      <trkpt lat="45.75036" lon="6.83927">
        <ele>2681</ele>
        <time>2019-10-06T08:27:26Z</time>
      </trkpt>
      <trkpt lat="45.75036" lon="6.83925">
        <ele>2681</ele>
        <time>2019-10-06T08:27:27Z</time>
      </trkpt>
      <trkpt lat="45.75035" lon="6.83922">
        <ele>2681</ele>
        <time>2019-10-06T08:27:28Z</time>
      </trkpt>
      <trkpt lat="45.75033" lon="6.83918">
        <ele>2681</ele>
        <time>2019-10-06T08:27:30Z</time>
      </trkpt>
      <trkpt lat="45.7503" lon="6.83914">
        <ele>2678</ele>
        <time>2019-10-06T08:27:32Z</time>
      </trkpt>
      <trkpt lat="45.75028" lon="6.83911">
        <ele>2678</ele>
        <time>2019-10-06T08:27:34Z</time>
      </trkpt>
      <trkpt lat="45.75027" lon="6.83906">
        <ele>2678</ele>
        <time>2019-10-06T08:27:36Z</time>
      </trkpt>
      <trkpt lat="45.75025" lon="6.83902">
        <ele>2680</ele>
        <time>2019-10-06T08:27:38Z</time>
      </trkpt>
      <trkpt lat="45.75024" lon="6.83897">
        <ele>2678</ele>
        <time>2019-10-06T08:27:40Z</time>
      </trkpt>
      <trkpt lat="45.75023" lon="6.83893">
        <ele>2680</ele>
        <time>2019-10-06T08:27:42Z</time>
      </trkpt>
      <trkpt lat="45.75022" lon="6.83888">
        <ele>2680</ele>
        <time>2019-10-06T08:27:44Z</time>
      </trkpt>
      <trkpt lat="45.75022" lon="6.83886">
        <ele>2681</ele>
        <time>2019-10-06T08:27:45Z</time>
      </trkpt>
      <trkpt lat="45.75021" lon="6.83882">
        <ele>2681</ele>
        <time>2019-10-06T08:27:47Z</time>
      </trkpt>
      <trkpt lat="45.75021" lon="6.83879">
        <ele>2681</ele>
        <time>2019-10-06T08:27:48Z</time>
      </trkpt>
      <trkpt lat="45.7502" lon="6.83876">
        <ele>2681</ele>
        <time>2019-10-06T08:27:49Z</time>
      </trkpt>
      <trkpt lat="45.75019" lon="6.83874">
        <ele>2681</ele>
        <time>2019-10-06T08:27:50Z</time>
      </trkpt>
      <trkpt lat="45.75018" lon="6.83871">
        <ele>2681</ele>
        <time>2019-10-06T08:27:51Z</time>
      </trkpt>
      <trkpt lat="45.75017" lon="6.83869">
        <ele>2681</ele>
        <time>2019-10-06T08:27:52Z</time>
      </trkpt>
      <trkpt lat="45.75016" lon="6.83866">
        <ele>2681</ele>
        <time>2019-10-06T08:27:53Z</time>
      </trkpt>
      <trkpt lat="45.75016" lon="6.83864">
        <ele>2681</ele>
        <time>2019-10-06T08:27:54Z</time>
      </trkpt>
      <trkpt lat="45.75015" lon="6.83861">
        <ele>2681</ele>
        <time>2019-10-06T08:27:55Z</time>
      </trkpt>
      <trkpt lat="45.75014" lon="6.83858">
        <ele>2681</ele>
        <time>2019-10-06T08:27:56Z</time>
      </trkpt>
      <trkpt lat="45.75012" lon="6.83854">
        <ele>2681</ele>
        <time>2019-10-06T08:27:57Z</time>
      </trkpt>
      <trkpt lat="45.75012" lon="6.83853">
        <ele>2681</ele>
        <time>2019-10-06T08:27:58Z</time>
      </trkpt>
      <trkpt lat="45.75011" lon="6.8385">
        <ele>2681</ele>
        <time>2019-10-06T08:27:59Z</time>
      </trkpt>
      <trkpt lat="45.7501" lon="6.83847">
        <ele>2681</ele>
        <time>2019-10-06T08:28:00Z</time>
      </trkpt>
      <trkpt lat="45.75009" lon="6.83845">
        <ele>2681</ele>
        <time>2019-10-06T08:28:01Z</time>
      </trkpt>
      <trkpt lat="45.75008" lon="6.83842">
        <ele>2682</ele>
        <time>2019-10-06T08:28:02Z</time>
      </trkpt>
      <trkpt lat="45.75007" lon="6.8384">
        <ele>2682</ele>
        <time>2019-10-06T08:28:03Z</time>
      </trkpt>
      <trkpt lat="45.75007" lon="6.83837">
        <ele>2681</ele>
        <time>2019-10-06T08:28:04Z</time>
      </trkpt>
      <trkpt lat="45.75006" lon="6.83835">
        <ele>2681</ele>
        <time>2019-10-06T08:28:05Z</time>
      </trkpt>
      <trkpt lat="45.75006" lon="6.83832">
        <ele>2681</ele>
        <time>2019-10-06T08:28:06Z</time>
      </trkpt>
      <trkpt lat="45.75005" lon="6.83829">
        <ele>2681</ele>
        <time>2019-10-06T08:28:07Z</time>
      </trkpt>
      <trkpt lat="45.75005" lon="6.83827">
        <ele>2681</ele>
        <time>2019-10-06T08:28:08Z</time>
      </trkpt>
      <trkpt lat="45.75004" lon="6.83824">
        <ele>2681</ele>
        <time>2019-10-06T08:28:09Z</time>
      </trkpt>
      <trkpt lat="45.75004" lon="6.83821">
        <ele>2682</ele>
        <time>2019-10-06T08:28:10Z</time>
      </trkpt>
      <trkpt lat="45.75003" lon="6.83818">
        <ele>2683</ele>
        <time>2019-10-06T08:28:11Z</time>
      </trkpt>
      <trkpt lat="45.75002" lon="6.83816">
        <ele>2683</ele>
        <time>2019-10-06T08:28:12Z</time>
      </trkpt>
      <trkpt lat="45.75002" lon="6.83811">
        <ele>2683</ele>
        <time>2019-10-06T08:28:14Z</time>
      </trkpt>
      <trkpt lat="45.75001" lon="6.83808">
        <ele>2683</ele>
        <time>2019-10-06T08:28:15Z</time>
      </trkpt>
      <trkpt lat="45.75001" lon="6.83803">
        <ele>2683</ele>
        <time>2019-10-06T08:28:17Z</time>
      </trkpt>
      <trkpt lat="45.75001" lon="6.838">
        <ele>2684</ele>
        <time>2019-10-06T08:28:18Z</time>
      </trkpt>
      <trkpt lat="45.75001" lon="6.83796">
        <ele>2684</ele>
        <time>2019-10-06T08:28:20Z</time>
      </trkpt>
      <trkpt lat="45.75" lon="6.83791">
        <ele>2684</ele>
        <time>2019-10-06T08:28:22Z</time>
      </trkpt>
      <trkpt lat="45.75" lon="6.83787">
        <ele>2684</ele>
        <time>2019-10-06T08:28:24Z</time>
      </trkpt>
      <trkpt lat="45.74999" lon="6.83783">
        <ele>2684</ele>
        <time>2019-10-06T08:28:26Z</time>
      </trkpt>
      <trkpt lat="45.74998" lon="6.83779">
        <ele>2684</ele>
        <time>2019-10-06T08:28:28Z</time>
      </trkpt>
      <trkpt lat="45.74997" lon="6.83775">
        <ele>2685</ele>
        <time>2019-10-06T08:28:30Z</time>
      </trkpt>
      <trkpt lat="45.74997" lon="6.83771">
        <ele>2685</ele>
        <time>2019-10-06T08:28:32Z</time>
      </trkpt>
      <trkpt lat="45.74996" lon="6.83767">
        <ele>2685</ele>
        <time>2019-10-06T08:28:34Z</time>
      </trkpt>
      <trkpt lat="45.74995" lon="6.83763">
        <ele>2685</ele>
        <time>2019-10-06T08:28:36Z</time>
      </trkpt>
      <trkpt lat="45.74995" lon="6.83759">
        <ele>2685</ele>
        <time>2019-10-06T08:28:38Z</time>
      </trkpt>
      <trkpt lat="45.74994" lon="6.83754">
        <ele>2685</ele>
        <time>2019-10-06T08:28:40Z</time>
      </trkpt>
      <trkpt lat="45.74994" lon="6.8375">
        <ele>2686</ele>
        <time>2019-10-06T08:28:42Z</time>
      </trkpt>
      <trkpt lat="45.74994" lon="6.83746">
        <ele>2686</ele>
        <time>2019-10-06T08:28:44Z</time>
      </trkpt>
      <trkpt lat="45.74994" lon="6.83742">
        <ele>2686</ele>
        <time>2019-10-06T08:28:46Z</time>
      </trkpt>
      <trkpt lat="45.74993" lon="6.83738">
        <ele>2686</ele>
        <time>2019-10-06T08:28:48Z</time>
      </trkpt>
      <trkpt lat="45.74993" lon="6.83734">
        <ele>2686</ele>
        <time>2019-10-06T08:28:50Z</time>
      </trkpt>
      <trkpt lat="45.74992" lon="6.8373">
        <ele>2687</ele>
        <time>2019-10-06T08:28:52Z</time>
      </trkpt>
      <trkpt lat="45.74991" lon="6.83726">
        <ele>2687</ele>
        <time>2019-10-06T08:28:54Z</time>
      </trkpt>
      <trkpt lat="45.7499" lon="6.83721">
        <ele>2688</ele>
        <time>2019-10-06T08:28:56Z</time>
      </trkpt>
      <trkpt lat="45.7499" lon="6.83717">
        <ele>2688</ele>
        <time>2019-10-06T08:28:58Z</time>
      </trkpt>
      <trkpt lat="45.74989" lon="6.83713">
        <ele>2688</ele>
        <time>2019-10-06T08:29:00Z</time>
      </trkpt>
      <trkpt lat="45.74989" lon="6.83709">
        <ele>2688</ele>
        <time>2019-10-06T08:29:02Z</time>
      </trkpt>
      <trkpt lat="45.74988" lon="6.83705">
        <ele>2688</ele>
        <time>2019-10-06T08:29:04Z</time>
      </trkpt>
      <trkpt lat="45.74987" lon="6.83702">
        <ele>2689</ele>
        <time>2019-10-06T08:29:06Z</time>
      </trkpt>
      <trkpt lat="45.74986" lon="6.83698">
        <ele>2689</ele>
        <time>2019-10-06T08:29:08Z</time>
      </trkpt>
      <trkpt lat="45.74985" lon="6.83694">
        <ele>2689</ele>
        <time>2019-10-06T08:29:10Z</time>
      </trkpt>
      <trkpt lat="45.74985" lon="6.8369">
        <ele>2689</ele>
        <time>2019-10-06T08:29:12Z</time>
      </trkpt>
      <trkpt lat="45.74985" lon="6.83686">
        <ele>2690</ele>
        <time>2019-10-06T08:29:14Z</time>
      </trkpt>
      <trkpt lat="45.74985" lon="6.83682">
        <ele>2690</ele>
        <time>2019-10-06T08:29:16Z</time>
      </trkpt>
      <trkpt lat="45.74985" lon="6.83677">
        <ele>2690</ele>
        <time>2019-10-06T08:29:18Z</time>
      </trkpt>
      <trkpt lat="45.74984" lon="6.83673">
        <ele>2690</ele>
        <time>2019-10-06T08:29:20Z</time>
      </trkpt>
      <trkpt lat="45.74984" lon="6.83669">
        <ele>2690</ele>
        <time>2019-10-06T08:29:22Z</time>
      </trkpt>
      <trkpt lat="45.74983" lon="6.83664">
        <ele>2692</ele>
        <time>2019-10-06T08:29:24Z</time>
      </trkpt>
      <trkpt lat="45.74983" lon="6.8366">
        <ele>2692</ele>
        <time>2019-10-06T08:29:26Z</time>
      </trkpt>
      <trkpt lat="45.74982" lon="6.83656">
        <ele>2692</ele>
        <time>2019-10-06T08:29:28Z</time>
      </trkpt>
      <trkpt lat="45.74982" lon="6.83652">
        <ele>2692</ele>
        <time>2019-10-06T08:29:30Z</time>
      </trkpt>
      <trkpt lat="45.74982" lon="6.83648">
        <ele>2692</ele>
        <time>2019-10-06T08:29:32Z</time>
      </trkpt>
      <trkpt lat="45.74981" lon="6.83644">
        <ele>2692</ele>
        <time>2019-10-06T08:29:34Z</time>
      </trkpt>
      <trkpt lat="45.7498" lon="6.8364">
        <ele>2693</ele>
        <time>2019-10-06T08:29:36Z</time>
      </trkpt>
      <trkpt lat="45.7498" lon="6.83636">
        <ele>2694</ele>
        <time>2019-10-06T08:29:38Z</time>
      </trkpt>
      <trkpt lat="45.74979" lon="6.83632">
        <ele>2694</ele>
        <time>2019-10-06T08:29:40Z</time>
      </trkpt>
      <trkpt lat="45.74979" lon="6.83628">
        <ele>2694</ele>
        <time>2019-10-06T08:29:42Z</time>
      </trkpt>
      <trkpt lat="45.74978" lon="6.83624">
        <ele>2694</ele>
        <time>2019-10-06T08:29:44Z</time>
      </trkpt>
      <trkpt lat="45.74978" lon="6.8362">
        <ele>2695</ele>
        <time>2019-10-06T08:29:46Z</time>
      </trkpt>
      <trkpt lat="45.74977" lon="6.83616">
        <ele>2695</ele>
        <time>2019-10-06T08:29:48Z</time>
      </trkpt>
      <trkpt lat="45.74976" lon="6.83613">
        <ele>2695</ele>
        <time>2019-10-06T08:29:50Z</time>
      </trkpt>
      <trkpt lat="45.74976" lon="6.83609">
        <ele>2695</ele>
        <time>2019-10-06T08:29:52Z</time>
      </trkpt>
      <trkpt lat="45.74974" lon="6.83606">
        <ele>2695</ele>
        <time>2019-10-06T08:29:54Z</time>
      </trkpt>
      <trkpt lat="45.74973" lon="6.83601">
        <ele>2696</ele>
        <time>2019-10-06T08:29:56Z</time>
      </trkpt>
      <trkpt lat="45.74973" lon="6.83597">
        <ele>2696</ele>
        <time>2019-10-06T08:29:58Z</time>
      </trkpt>
      <trkpt lat="45.74972" lon="6.83593">
        <ele>2696</ele>
        <time>2019-10-06T08:30:00Z</time>
      </trkpt>
      <trkpt lat="45.74971" lon="6.83589">
        <ele>2697</ele>
        <time>2019-10-06T08:30:02Z</time>
      </trkpt>
      <trkpt lat="45.74971" lon="6.83584">
        <ele>2697</ele>
        <time>2019-10-06T08:30:04Z</time>
      </trkpt>
      <trkpt lat="45.7497" lon="6.83581">
        <ele>2697</ele>
        <time>2019-10-06T08:30:06Z</time>
      </trkpt>
      <trkpt lat="45.74969" lon="6.83578">
        <ele>2697</ele>
        <time>2019-10-06T08:30:08Z</time>
      </trkpt>
      <trkpt lat="45.74968" lon="6.83574">
        <ele>2697</ele>
        <time>2019-10-06T08:30:10Z</time>
      </trkpt>
      <trkpt lat="45.74967" lon="6.8357">
        <ele>2697</ele>
        <time>2019-10-06T08:30:12Z</time>
      </trkpt>
      <trkpt lat="45.74965" lon="6.83567">
        <ele>2698</ele>
        <time>2019-10-06T08:30:14Z</time>
      </trkpt>
      <trkpt lat="45.74964" lon="6.83563">
        <ele>2698</ele>
        <time>2019-10-06T08:30:16Z</time>
      </trkpt>
      <trkpt lat="45.74963" lon="6.83559">
        <ele>2698</ele>
        <time>2019-10-06T08:30:18Z</time>
      </trkpt>
      <trkpt lat="45.74962" lon="6.83555">
        <ele>2698</ele>
        <time>2019-10-06T08:30:20Z</time>
      </trkpt>
      <trkpt lat="45.7496" lon="6.83551">
        <ele>2698</ele>
        <time>2019-10-06T08:30:22Z</time>
      </trkpt>
      <trkpt lat="45.74959" lon="6.83547">
        <ele>2699</ele>
        <time>2019-10-06T08:30:23Z</time>
      </trkpt>
      <trkpt lat="45.74958" lon="6.83546">
        <ele>2700</ele>
        <time>2019-10-06T08:30:24Z</time>
      </trkpt>
      <trkpt lat="45.74957" lon="6.83543">
        <ele>2700</ele>
        <time>2019-10-06T08:30:25Z</time>
      </trkpt>
      <trkpt lat="45.74956" lon="6.83539">
        <ele>2700</ele>
        <time>2019-10-06T08:30:27Z</time>
      </trkpt>
      <trkpt lat="45.74955" lon="6.83536">
        <ele>2700</ele>
        <time>2019-10-06T08:30:28Z</time>
      </trkpt>
      <trkpt lat="45.74954" lon="6.83534">
        <ele>2700</ele>
        <time>2019-10-06T08:30:29Z</time>
      </trkpt>
      <trkpt lat="45.74953" lon="6.83531">
        <ele>2700</ele>
        <time>2019-10-06T08:30:30Z</time>
      </trkpt>
      <trkpt lat="45.74953" lon="6.83529">
        <ele>2700</ele>
        <time>2019-10-06T08:30:31Z</time>
      </trkpt>
      <trkpt lat="45.74952" lon="6.83526">
        <ele>2700</ele>
        <time>2019-10-06T08:30:32Z</time>
      </trkpt>
      <trkpt lat="45.74951" lon="6.83524">
        <ele>2700</ele>
        <time>2019-10-06T08:30:33Z</time>
      </trkpt>
      <trkpt lat="45.7495" lon="6.83522">
        <ele>2700</ele>
        <time>2019-10-06T08:30:34Z</time>
      </trkpt>
      <trkpt lat="45.74949" lon="6.83519">
        <ele>2700</ele>
        <time>2019-10-06T08:30:35Z</time>
      </trkpt>
      <trkpt lat="45.74947" lon="6.83515">
        <ele>2699</ele>
        <time>2019-10-06T08:30:37Z</time>
      </trkpt>
      <trkpt lat="45.74946" lon="6.83512">
        <ele>2699</ele>
        <time>2019-10-06T08:30:39Z</time>
      </trkpt>
      <trkpt lat="45.74945" lon="6.83508">
        <ele>2699</ele>
        <time>2019-10-06T08:30:41Z</time>
      </trkpt>
      <trkpt lat="45.74943" lon="6.83504">
        <ele>2699</ele>
        <time>2019-10-06T08:30:43Z</time>
      </trkpt>
      <trkpt lat="45.74942" lon="6.83501">
        <ele>2699</ele>
        <time>2019-10-06T08:30:45Z</time>
      </trkpt>
      <trkpt lat="45.74942" lon="6.83497">
        <ele>2699</ele>
        <time>2019-10-06T08:30:47Z</time>
      </trkpt>
      <trkpt lat="45.74942" lon="6.83497">
        <ele>2699</ele>
        <time>2019-10-06T08:30:49Z</time>
      </trkpt>
      <trkpt lat="45.74941" lon="6.83494">
        <ele>2699</ele>
        <time>2019-10-06T08:30:50Z</time>
      </trkpt>
      <trkpt lat="45.74941" lon="6.83494">
        <ele>2699</ele>
        <time>2019-10-06T08:30:54Z</time>
      </trkpt>
      <trkpt lat="45.74941" lon="6.83494">
        <ele>2699</ele>
        <time>2019-10-06T08:30:58Z</time>
      </trkpt>
      <trkpt lat="45.74941" lon="6.83494">
        <ele>2699</ele>
        <time>2019-10-06T08:31:02Z</time>
      </trkpt>
      <trkpt lat="45.74942" lon="6.83492">
        <ele>2699</ele>
        <time>2019-10-06T08:31:04Z</time>
      </trkpt>
      <trkpt lat="45.74943" lon="6.83488">
        <ele>2700</ele>
        <time>2019-10-06T08:31:07Z</time>
      </trkpt>
      <trkpt lat="45.74943" lon="6.83488">
        <ele>2700</ele>
        <time>2019-10-06T08:31:08Z</time>
      </trkpt>
      <trkpt lat="45.74942" lon="6.83485">
        <ele>2700</ele>
        <time>2019-10-06T08:31:10Z</time>
      </trkpt>
      <trkpt lat="45.74942" lon="6.83485">
        <ele>2699</ele>
        <time>2019-10-06T08:31:13Z</time>
      </trkpt>
      <trkpt lat="45.74942" lon="6.83482">
        <ele>2699</ele>
        <time>2019-10-06T08:31:15Z</time>
      </trkpt>
      <trkpt lat="45.74942" lon="6.83479">
        <ele>2699</ele>
        <time>2019-10-06T08:31:18Z</time>
      </trkpt>
      <trkpt lat="45.74942" lon="6.83479">
        <ele>2699</ele>
        <time>2019-10-06T08:31:19Z</time>
      </trkpt>
      <trkpt lat="45.74943" lon="6.83477">
        <ele>2698</ele>
        <time>2019-10-06T08:31:21Z</time>
      </trkpt>
      <trkpt lat="45.74943" lon="6.83477">
        <ele>2698</ele>
        <time>2019-10-06T08:31:24Z</time>
      </trkpt>
      <trkpt lat="45.74943" lon="6.83477">
        <ele>2698</ele>
        <time>2019-10-06T08:31:28Z</time>
      </trkpt>
      <trkpt lat="45.74943" lon="6.83477">
        <ele>2698</ele>
        <time>2019-10-06T08:31:32Z</time>
      </trkpt>
      <trkpt lat="45.74943" lon="6.83477">
        <ele>2698</ele>
        <time>2019-10-06T08:31:36Z</time>
      </trkpt>
      <trkpt lat="45.74943" lon="6.83474">
        <ele>2698</ele>
        <time>2019-10-06T08:31:39Z</time>
      </trkpt>
      <trkpt lat="45.74943" lon="6.83474">
        <ele>2697</ele>
        <time>2019-10-06T08:31:41Z</time>
      </trkpt>
      <trkpt lat="45.74942" lon="6.8347">
        <ele>2696</ele>
        <time>2019-10-06T08:31:42Z</time>
      </trkpt>
      <trkpt lat="45.74942" lon="6.83466">
        <ele>2696</ele>
        <time>2019-10-06T08:31:44Z</time>
      </trkpt>
      <trkpt lat="45.74942" lon="6.83462">
        <ele>2695</ele>
        <time>2019-10-06T08:31:46Z</time>
      </trkpt>
      <trkpt lat="45.74941" lon="6.83458">
        <ele>2695</ele>
        <time>2019-10-06T08:31:48Z</time>
      </trkpt>
      <trkpt lat="45.7494" lon="6.83454">
        <ele>2695</ele>
        <time>2019-10-06T08:31:50Z</time>
      </trkpt>
      <trkpt lat="45.74939" lon="6.8345">
        <ele>2693</ele>
        <time>2019-10-06T08:31:52Z</time>
      </trkpt>
      <trkpt lat="45.74939" lon="6.83447">
        <ele>2693</ele>
        <time>2019-10-06T08:31:54Z</time>
      </trkpt>
      <trkpt lat="45.74938" lon="6.83444">
        <ele>2693</ele>
        <time>2019-10-06T08:31:56Z</time>
      </trkpt>
      <trkpt lat="45.74936" lon="6.83442">
        <ele>2690</ele>
        <time>2019-10-06T08:31:59Z</time>
      </trkpt>
      <trkpt lat="45.74936" lon="6.83442">
        <ele>2689</ele>
        <time>2019-10-06T08:32:00Z</time>
      </trkpt>
      <trkpt lat="45.74934" lon="6.83439">
        <ele>2689</ele>
        <time>2019-10-06T08:32:01Z</time>
      </trkpt>
      <trkpt lat="45.74933" lon="6.83436">
        <ele>2688</ele>
        <time>2019-10-06T08:32:04Z</time>
      </trkpt>
      <trkpt lat="45.74931" lon="6.83434">
        <ele>2687</ele>
        <time>2019-10-06T08:32:06Z</time>
      </trkpt>
      <trkpt lat="45.74929" lon="6.83431">
        <ele>2686</ele>
        <time>2019-10-06T08:32:08Z</time>
      </trkpt>
      <trkpt lat="45.74928" lon="6.83428">
        <ele>2686</ele>
        <time>2019-10-06T08:32:10Z</time>
      </trkpt>
      <trkpt lat="45.74927" lon="6.83426">
        <ele>2685</ele>
        <time>2019-10-06T08:32:12Z</time>
      </trkpt>
      <trkpt lat="45.74926" lon="6.83424">
        <ele>2684</ele>
        <time>2019-10-06T08:32:14Z</time>
      </trkpt>
      <trkpt lat="45.74926" lon="6.83424">
        <ele>2684</ele>
        <time>2019-10-06T08:32:17Z</time>
      </trkpt>
      <trkpt lat="45.74924" lon="6.83422">
        <ele>2684</ele>
        <time>2019-10-06T08:32:18Z</time>
      </trkpt>
      <trkpt lat="45.74923" lon="6.8342">
        <ele>2683</ele>
        <time>2019-10-06T08:32:22Z</time>
      </trkpt>
      <trkpt lat="45.74923" lon="6.8342">
        <ele>2683</ele>
        <time>2019-10-06T08:32:23Z</time>
      </trkpt>
      <trkpt lat="45.74923" lon="6.83417">
        <ele>2683</ele>
        <time>2019-10-06T08:32:24Z</time>
      </trkpt>
      <trkpt lat="45.74923" lon="6.83413">
        <ele>2681</ele>
        <time>2019-10-06T08:32:26Z</time>
      </trkpt>
      <trkpt lat="45.74921" lon="6.8341">
        <ele>2681</ele>
        <time>2019-10-06T08:32:29Z</time>
      </trkpt>
      <trkpt lat="45.74921" lon="6.8341">
        <ele>2681</ele>
        <time>2019-10-06T08:32:30Z</time>
      </trkpt>
      <trkpt lat="45.7492" lon="6.83407">
        <ele>2681</ele>
        <time>2019-10-06T08:32:32Z</time>
      </trkpt>
      <trkpt lat="45.74919" lon="6.83405">
        <ele>2680</ele>
        <time>2019-10-06T08:32:34Z</time>
      </trkpt>
      <trkpt lat="45.74918" lon="6.83402">
        <ele>2680</ele>
        <time>2019-10-06T08:32:36Z</time>
      </trkpt>
      <trkpt lat="45.74918" lon="6.83399">
        <ele>2680</ele>
        <time>2019-10-06T08:32:38Z</time>
      </trkpt>
      <trkpt lat="45.74917" lon="6.83396">
        <ele>2678</ele>
        <time>2019-10-06T08:32:40Z</time>
      </trkpt>
      <trkpt lat="45.74916" lon="6.83393">
        <ele>2678</ele>
        <time>2019-10-06T08:32:43Z</time>
      </trkpt>
      <trkpt lat="45.74916" lon="6.83393">
        <ele>2678</ele>
        <time>2019-10-06T08:32:44Z</time>
      </trkpt>
      <trkpt lat="45.74916" lon="6.83393">
        <ele>2678</ele>
        <time>2019-10-06T08:32:48Z</time>
      </trkpt>
      <trkpt lat="45.74914" lon="6.83391">
        <ele>2678</ele>
        <time>2019-10-06T08:32:51Z</time>
      </trkpt>
      <trkpt lat="45.74914" lon="6.83391">
        <ele>2678</ele>
        <time>2019-10-06T08:32:53Z</time>
      </trkpt>
      <trkpt lat="45.74913" lon="6.83388">
        <ele>2678</ele>
        <time>2019-10-06T08:32:54Z</time>
      </trkpt>
      <trkpt lat="45.74913" lon="6.83388">
        <ele>2677</ele>
        <time>2019-10-06T08:32:58Z</time>
      </trkpt>
      <trkpt lat="45.74913" lon="6.83388">
        <ele>2678</ele>
        <time>2019-10-06T08:33:02Z</time>
      </trkpt>
      <trkpt lat="45.74912" lon="6.83385">
        <ele>2677</ele>
        <time>2019-10-06T08:33:06Z</time>
      </trkpt>
      <trkpt lat="45.74912" lon="6.83385">
        <ele>2677</ele>
        <time>2019-10-06T08:33:07Z</time>
      </trkpt>
      <trkpt lat="45.74912" lon="6.83385">
        <ele>2677</ele>
        <time>2019-10-06T08:33:11Z</time>
      </trkpt>
      <trkpt lat="45.74912" lon="6.83385">
        <ele>2676</ele>
        <time>2019-10-06T08:33:15Z</time>
      </trkpt>
      <trkpt lat="45.74912" lon="6.83385">
        <ele>2676</ele>
        <time>2019-10-06T08:33:19Z</time>
      </trkpt>
      <trkpt lat="45.74912" lon="6.83385">
        <ele>2676</ele>
        <time>2019-10-06T08:33:23Z</time>
      </trkpt>
      <trkpt lat="45.74912" lon="6.83385">
        <ele>2677</ele>
        <time>2019-10-06T08:33:27Z</time>
      </trkpt>
      <trkpt lat="45.74912" lon="6.83385">
        <ele>2677</ele>
        <time>2019-10-06T08:33:31Z</time>
      </trkpt>
      <trkpt lat="45.74912" lon="6.83385">
        <ele>2676</ele>
        <time>2019-10-06T08:33:35Z</time>
      </trkpt>
      <trkpt lat="45.74912" lon="6.83385">
        <ele>2676</ele>
        <time>2019-10-06T08:33:39Z</time>
      </trkpt>
      <trkpt lat="45.74912" lon="6.83385">
        <ele>2676</ele>
        <time>2019-10-06T08:33:43Z</time>
      </trkpt>
      <trkpt lat="45.74912" lon="6.83385">
        <ele>2676</ele>
        <time>2019-10-06T08:33:47Z</time>
      </trkpt>
      <trkpt lat="45.74911" lon="6.83382">
        <ele>2676</ele>
        <time>2019-10-06T08:33:49Z</time>
      </trkpt>
      <trkpt lat="45.74911" lon="6.83382">
        <ele>2676</ele>
        <time>2019-10-06T08:33:52Z</time>
      </trkpt>
      <trkpt lat="45.7491" lon="6.8338">
        <ele>2676</ele>
        <time>2019-10-06T08:33:56Z</time>
      </trkpt>
      <trkpt lat="45.7491" lon="6.8338">
        <ele>2676</ele>
        <time>2019-10-06T08:33:57Z</time>
      </trkpt>
      <trkpt lat="45.7491" lon="6.8338">
        <ele>2675</ele>
        <time>2019-10-06T08:34:01Z</time>
      </trkpt>
      <trkpt lat="45.7491" lon="6.8338">
        <ele>2675</ele>
        <time>2019-10-06T08:34:05Z</time>
      </trkpt>
      <trkpt lat="45.7491" lon="6.8338">
        <ele>2675</ele>
        <time>2019-10-06T08:34:09Z</time>
      </trkpt>
      <trkpt lat="45.74909" lon="6.83377">
        <ele>2675</ele>
        <time>2019-10-06T08:34:12Z</time>
      </trkpt>
      <trkpt lat="45.74909" lon="6.83377">
        <ele>2676</ele>
        <time>2019-10-06T08:34:14Z</time>
      </trkpt>
      <trkpt lat="45.74909" lon="6.83377">
        <ele>2675</ele>
        <time>2019-10-06T08:34:18Z</time>
      </trkpt>
      <trkpt lat="45.74908" lon="6.83375">
        <ele>2675</ele>
        <time>2019-10-06T08:34:19Z</time>
      </trkpt>
      <trkpt lat="45.74908" lon="6.83375">
        <ele>2675</ele>
        <time>2019-10-06T08:34:23Z</time>
      </trkpt>
      <trkpt lat="45.74908" lon="6.83375">
        <ele>2675</ele>
        <time>2019-10-06T08:34:27Z</time>
      </trkpt>
      <trkpt lat="45.74908" lon="6.83375">
        <ele>2675</ele>
        <time>2019-10-06T08:34:31Z</time>
      </trkpt>
      <trkpt lat="45.74908" lon="6.83372">
        <ele>2675</ele>
        <time>2019-10-06T08:34:34Z</time>
      </trkpt>
      <trkpt lat="45.74908" lon="6.83372">
        <ele>2675</ele>
        <time>2019-10-06T08:34:36Z</time>
      </trkpt>
      <trkpt lat="45.74908" lon="6.83372">
        <ele>2675</ele>
        <time>2019-10-06T08:34:40Z</time>
      </trkpt>
      <trkpt lat="45.74908" lon="6.83372">
        <ele>2675</ele>
        <time>2019-10-06T08:34:44Z</time>
      </trkpt>
      <trkpt lat="45.74908" lon="6.83372">
        <ele>2675</ele>
        <time>2019-10-06T08:34:48Z</time>
      </trkpt>
      <trkpt lat="45.74907" lon="6.83369">
        <ele>2675</ele>
        <time>2019-10-06T08:34:50Z</time>
      </trkpt>
      <trkpt lat="45.74907" lon="6.83369">
        <ele>2675</ele>
        <time>2019-10-06T08:34:53Z</time>
      </trkpt>
      <trkpt lat="45.74907" lon="6.83369">
        <ele>2675</ele>
        <time>2019-10-06T08:34:57Z</time>
      </trkpt>
      <trkpt lat="45.74907" lon="6.83369">
        <ele>2675</ele>
        <time>2019-10-06T08:35:01Z</time>
      </trkpt>
      <trkpt lat="45.74907" lon="6.83369">
        <ele>2675</ele>
        <time>2019-10-06T08:35:05Z</time>
      </trkpt>
      <trkpt lat="45.74907" lon="6.83369">
        <ele>2675</ele>
        <time>2019-10-06T08:35:09Z</time>
      </trkpt>
      <trkpt lat="45.74906" lon="6.83366">
        <ele>2675</ele>
        <time>2019-10-06T08:35:13Z</time>
      </trkpt>
      <trkpt lat="45.74906" lon="6.83366">
        <ele>2675</ele>
        <time>2019-10-06T08:35:14Z</time>
      </trkpt>
      <trkpt lat="45.74906" lon="6.83366">
        <ele>2674</ele>
        <time>2019-10-06T08:35:18Z</time>
      </trkpt>
      <trkpt lat="45.74906" lon="6.83366">
        <ele>2674</ele>
        <time>2019-10-06T08:35:22Z</time>
      </trkpt>
      <trkpt lat="45.74906" lon="6.83366">
        <ele>2674</ele>
        <time>2019-10-06T08:35:26Z</time>
      </trkpt>
      <trkpt lat="45.74906" lon="6.83364">
        <ele>2673</ele>
        <time>2019-10-06T08:35:27Z</time>
      </trkpt>
      <trkpt lat="45.74906" lon="6.83361">
        <ele>2673</ele>
        <time>2019-10-06T08:35:31Z</time>
      </trkpt>
      <trkpt lat="45.74906" lon="6.83361">
        <ele>2673</ele>
        <time>2019-10-06T08:35:32Z</time>
      </trkpt>
      <trkpt lat="45.74906" lon="6.83361">
        <ele>2673</ele>
        <time>2019-10-06T08:35:36Z</time>
      </trkpt>
      <trkpt lat="45.74906" lon="6.83361">
        <ele>2672</ele>
        <time>2019-10-06T08:35:40Z</time>
      </trkpt>
      <trkpt lat="45.74906" lon="6.83361">
        <ele>2673</ele>
        <time>2019-10-06T08:35:44Z</time>
      </trkpt>
      <trkpt lat="45.74905" lon="6.83358">
        <ele>2673</ele>
        <time>2019-10-06T08:35:45Z</time>
      </trkpt>
      <trkpt lat="45.74904" lon="6.83356">
        <ele>2673</ele>
        <time>2019-10-06T08:35:48Z</time>
      </trkpt>
      <trkpt lat="45.74904" lon="6.83356">
        <ele>2673</ele>
        <time>2019-10-06T08:35:50Z</time>
      </trkpt>
      <trkpt lat="45.74904" lon="6.83356">
        <ele>2672</ele>
        <time>2019-10-06T08:35:54Z</time>
      </trkpt>
      <trkpt lat="45.74904" lon="6.83356">
        <ele>2672</ele>
        <time>2019-10-06T08:35:58Z</time>
      </trkpt>
      <trkpt lat="45.74904" lon="6.83356">
        <ele>2671</ele>
        <time>2019-10-06T08:36:02Z</time>
      </trkpt>
      <trkpt lat="45.74904" lon="6.83356">
        <ele>2671</ele>
        <time>2019-10-06T08:36:06Z</time>
      </trkpt>
      <trkpt lat="45.74904" lon="6.83356">
        <ele>2672</ele>
        <time>2019-10-06T08:36:10Z</time>
      </trkpt>
      <trkpt lat="45.74903" lon="6.83353">
        <ele>2672</ele>
        <time>2019-10-06T08:36:14Z</time>
      </trkpt>
      <trkpt lat="45.74903" lon="6.83353">
        <ele>2672</ele>
        <time>2019-10-06T08:36:15Z</time>
      </trkpt>
      <trkpt lat="45.74903" lon="6.83353">
        <ele>2672</ele>
        <time>2019-10-06T08:36:19Z</time>
      </trkpt>
      <trkpt lat="45.74902" lon="6.83351">
        <ele>2672</ele>
        <time>2019-10-06T08:36:22Z</time>
      </trkpt>
      <trkpt lat="45.74902" lon="6.83351">
        <ele>2672</ele>
        <time>2019-10-06T08:36:24Z</time>
      </trkpt>
      <trkpt lat="45.74902" lon="6.83351">
        <ele>2672</ele>
        <time>2019-10-06T08:36:28Z</time>
      </trkpt>
      <trkpt lat="45.74902" lon="6.83351">
        <ele>2671</ele>
        <time>2019-10-06T08:36:32Z</time>
      </trkpt>
      <trkpt lat="45.74902" lon="6.83351">
        <ele>2672</ele>
        <time>2019-10-06T08:36:36Z</time>
      </trkpt>
      <trkpt lat="45.74902" lon="6.83348">
        <ele>2672</ele>
        <time>2019-10-06T08:36:37Z</time>
      </trkpt>
      <trkpt lat="45.74902" lon="6.83348">
        <ele>2672</ele>
        <time>2019-10-06T08:36:41Z</time>
      </trkpt>
      <trkpt lat="45.74902" lon="6.83348">
        <ele>2673</ele>
        <time>2019-10-06T08:36:45Z</time>
      </trkpt>
      <trkpt lat="45.74902" lon="6.83348">
        <ele>2672</ele>
        <time>2019-10-06T08:36:49Z</time>
      </trkpt>
      <trkpt lat="45.749" lon="6.83346">
        <ele>2672</ele>
        <time>2019-10-06T08:36:52Z</time>
      </trkpt>
      <trkpt lat="45.749" lon="6.83346">
        <ele>2672</ele>
        <time>2019-10-06T08:36:54Z</time>
      </trkpt>
      <trkpt lat="45.749" lon="6.83346">
        <ele>2672</ele>
        <time>2019-10-06T08:36:58Z</time>
      </trkpt>
      <trkpt lat="45.749" lon="6.83346">
        <ele>2672</ele>
        <time>2019-10-06T08:37:02Z</time>
      </trkpt>
      <trkpt lat="45.749" lon="6.83346">
        <ele>2672</ele>
        <time>2019-10-06T08:37:06Z</time>
      </trkpt>
      <trkpt lat="45.749" lon="6.83346">
        <ele>2672</ele>
        <time>2019-10-06T08:37:10Z</time>
      </trkpt>
      <trkpt lat="45.749" lon="6.83346">
        <ele>2672</ele>
        <time>2019-10-06T08:37:14Z</time>
      </trkpt>
      <trkpt lat="45.749" lon="6.83344">
        <ele>2672</ele>
        <time>2019-10-06T08:37:15Z</time>
      </trkpt>
      <trkpt lat="45.749" lon="6.83344">
        <ele>2672</ele>
        <time>2019-10-06T08:37:19Z</time>
      </trkpt>
      <trkpt lat="45.749" lon="6.83344">
        <ele>2672</ele>
        <time>2019-10-06T08:37:23Z</time>
      </trkpt>
      <trkpt lat="45.74899" lon="6.83341">
        <ele>2673</ele>
        <time>2019-10-06T08:37:27Z</time>
      </trkpt>
      <trkpt lat="45.74899" lon="6.83341">
        <ele>2673</ele>
        <time>2019-10-06T08:37:28Z</time>
      </trkpt>
      <trkpt lat="45.74899" lon="6.83341">
        <ele>2673</ele>
        <time>2019-10-06T08:37:32Z</time>
      </trkpt>
      <trkpt lat="45.74899" lon="6.83341">
        <ele>2673</ele>
        <time>2019-10-06T08:37:36Z</time>
      </trkpt>
      <trkpt lat="45.74899" lon="6.83341">
        <ele>2672</ele>
        <time>2019-10-06T08:37:40Z</time>
      </trkpt>
      <trkpt lat="45.74899" lon="6.83341">
        <ele>2672</ele>
        <time>2019-10-06T08:37:44Z</time>
      </trkpt>
      <trkpt lat="45.74899" lon="6.83341">
        <ele>2673</ele>
        <time>2019-10-06T08:37:48Z</time>
      </trkpt>
      <trkpt lat="45.74899" lon="6.83341">
        <ele>2673</ele>
        <time>2019-10-06T08:37:52Z</time>
      </trkpt>
      <trkpt lat="45.74899" lon="6.83341">
        <ele>2673</ele>
        <time>2019-10-06T08:37:56Z</time>
      </trkpt>
      <trkpt lat="45.74899" lon="6.83341">
        <ele>2672</ele>
        <time>2019-10-06T08:38:00Z</time>
      </trkpt>
      <trkpt lat="45.74899" lon="6.83341">
        <ele>2672</ele>
        <time>2019-10-06T08:38:04Z</time>
      </trkpt>
      <trkpt lat="45.74899" lon="6.83341">
        <ele>2672</ele>
        <time>2019-10-06T08:38:08Z</time>
      </trkpt>
      <trkpt lat="45.74899" lon="6.83341">
        <ele>2671</ele>
        <time>2019-10-06T08:38:12Z</time>
      </trkpt>
      <trkpt lat="45.74898" lon="6.83339">
        <ele>2671</ele>
        <time>2019-10-06T08:38:14Z</time>
      </trkpt>
      <trkpt lat="45.74898" lon="6.83339">
        <ele>2671</ele>
        <time>2019-10-06T08:38:17Z</time>
      </trkpt>
      <trkpt lat="45.74898" lon="6.83339">
        <ele>2671</ele>
        <time>2019-10-06T08:38:21Z</time>
      </trkpt>
      <trkpt lat="45.74898" lon="6.83339">
        <ele>2671</ele>
        <time>2019-10-06T08:38:25Z</time>
      </trkpt>
      <trkpt lat="45.74898" lon="6.83339">
        <ele>2671</ele>
        <time>2019-10-06T08:38:29Z</time>
      </trkpt>
      <trkpt lat="45.74899" lon="6.83336">
        <ele>2671</ele>
        <time>2019-10-06T08:38:31Z</time>
      </trkpt>
      <trkpt lat="45.74899" lon="6.83336">
        <ele>2671</ele>
        <time>2019-10-06T08:38:34Z</time>
      </trkpt>
      <trkpt lat="45.74899" lon="6.83336">
        <ele>2671</ele>
        <time>2019-10-06T08:38:38Z</time>
      </trkpt>
      <trkpt lat="45.74899" lon="6.83336">
        <ele>2671</ele>
        <time>2019-10-06T08:38:42Z</time>
      </trkpt>
      <trkpt lat="45.74899" lon="6.83336">
        <ele>2671</ele>
        <time>2019-10-06T08:38:46Z</time>
      </trkpt>
      <trkpt lat="45.74899" lon="6.83336">
        <ele>2671</ele>
        <time>2019-10-06T08:38:50Z</time>
      </trkpt>
      <trkpt lat="45.74899" lon="6.83336">
        <ele>2671</ele>
        <time>2019-10-06T08:38:54Z</time>
      </trkpt>
      <trkpt lat="45.74899" lon="6.83333">
        <ele>2671</ele>
        <time>2019-10-06T08:38:55Z</time>
      </trkpt>
      <trkpt lat="45.74899" lon="6.83333">
        <ele>2670</ele>
        <time>2019-10-06T08:38:59Z</time>
      </trkpt>
      <trkpt lat="45.74899" lon="6.8333">
        <ele>2670</ele>
        <time>2019-10-06T08:39:03Z</time>
      </trkpt>
      <trkpt lat="45.74899" lon="6.8333">
        <ele>2670</ele>
        <time>2019-10-06T08:39:04Z</time>
      </trkpt>
      <trkpt lat="45.74899" lon="6.83327">
        <ele>2670</ele>
        <time>2019-10-06T08:39:07Z</time>
      </trkpt>
      <trkpt lat="45.74899" lon="6.83327">
        <ele>2670</ele>
        <time>2019-10-06T08:39:09Z</time>
      </trkpt>
      <trkpt lat="45.74899" lon="6.83327">
        <ele>2670</ele>
        <time>2019-10-06T08:39:13Z</time>
      </trkpt>
      <trkpt lat="45.74899" lon="6.83325">
        <ele>2670</ele>
        <time>2019-10-06T08:39:14Z</time>
      </trkpt>
      <trkpt lat="45.74899" lon="6.83325">
        <ele>2669</ele>
        <time>2019-10-06T08:39:18Z</time>
      </trkpt>
      <trkpt lat="45.74899" lon="6.83325">
        <ele>2668</ele>
        <time>2019-10-06T08:39:22Z</time>
      </trkpt>
      <trkpt lat="45.74898" lon="6.83322">
        <ele>2669</ele>
        <time>2019-10-06T08:39:25Z</time>
      </trkpt>
      <trkpt lat="45.74898" lon="6.83322">
        <ele>2669</ele>
        <time>2019-10-06T08:39:27Z</time>
      </trkpt>
      <trkpt lat="45.74898" lon="6.83322">
        <ele>2669</ele>
        <time>2019-10-06T08:39:31Z</time>
      </trkpt>
      <trkpt lat="45.74898" lon="6.83319">
        <ele>2668</ele>
        <time>2019-10-06T08:39:35Z</time>
      </trkpt>
      <trkpt lat="45.74898" lon="6.83319">
        <ele>2668</ele>
        <time>2019-10-06T08:39:36Z</time>
      </trkpt>
      <trkpt lat="45.74898" lon="6.83319">
        <ele>2668</ele>
        <time>2019-10-06T08:39:40Z</time>
      </trkpt>
      <trkpt lat="45.74898" lon="6.83317">
        <ele>2666</ele>
        <time>2019-10-06T08:39:44Z</time>
      </trkpt>
      <trkpt lat="45.74898" lon="6.83317">
        <ele>2666</ele>
        <time>2019-10-06T08:39:45Z</time>
      </trkpt>
      <trkpt lat="45.74898" lon="6.83317">
        <ele>2666</ele>
        <time>2019-10-06T08:39:49Z</time>
      </trkpt>
      <trkpt lat="45.74898" lon="6.83314">
        <ele>2666</ele>
        <time>2019-10-06T08:39:53Z</time>
      </trkpt>
      <trkpt lat="45.74898" lon="6.83314">
        <ele>2665</ele>
        <time>2019-10-06T08:39:54Z</time>
      </trkpt>
      <trkpt lat="45.74897" lon="6.83311">
        <ele>2665</ele>
        <time>2019-10-06T08:39:57Z</time>
      </trkpt>
      <trkpt lat="45.74897" lon="6.83311">
        <ele>2665</ele>
        <time>2019-10-06T08:39:59Z</time>
      </trkpt>
      <trkpt lat="45.74897" lon="6.83311">
        <ele>2665</ele>
        <time>2019-10-06T08:40:03Z</time>
      </trkpt>
      <trkpt lat="45.74897" lon="6.83311">
        <ele>2666</ele>
        <time>2019-10-06T08:40:07Z</time>
      </trkpt>
      <trkpt lat="45.74897" lon="6.83311">
        <ele>2666</ele>
        <time>2019-10-06T08:40:11Z</time>
      </trkpt>
      <trkpt lat="45.74896" lon="6.83308">
        <ele>2666</ele>
        <time>2019-10-06T08:40:12Z</time>
      </trkpt>
      <trkpt lat="45.74896" lon="6.83308">
        <ele>2666</ele>
        <time>2019-10-06T08:40:16Z</time>
      </trkpt>
      <trkpt lat="45.74895" lon="6.83305">
        <ele>2666</ele>
        <time>2019-10-06T08:40:17Z</time>
      </trkpt>
      <trkpt lat="45.74895" lon="6.83305">
        <ele>2666</ele>
        <time>2019-10-06T08:40:21Z</time>
      </trkpt>
      <trkpt lat="45.74895" lon="6.83303">
        <ele>2665</ele>
        <time>2019-10-06T08:40:22Z</time>
      </trkpt>
      <trkpt lat="45.74895" lon="6.833">
        <ele>2665</ele>
        <time>2019-10-06T08:40:25Z</time>
      </trkpt>
      <trkpt lat="45.74894" lon="6.83297">
        <ele>2665</ele>
        <time>2019-10-06T08:40:27Z</time>
      </trkpt>
      <trkpt lat="45.74893" lon="6.83295">
        <ele>2665</ele>
        <time>2019-10-06T08:40:30Z</time>
      </trkpt>
      <trkpt lat="45.74893" lon="6.83295">
        <ele>2665</ele>
        <time>2019-10-06T08:40:31Z</time>
      </trkpt>
      <trkpt lat="45.74893" lon="6.83292">
        <ele>2665</ele>
        <time>2019-10-06T08:40:34Z</time>
      </trkpt>
      <trkpt lat="45.74893" lon="6.83292">
        <ele>2665</ele>
        <time>2019-10-06T08:40:36Z</time>
      </trkpt>
      <trkpt lat="45.74893" lon="6.83289">
        <ele>2665</ele>
        <time>2019-10-06T08:40:38Z</time>
      </trkpt>
      <trkpt lat="45.74893" lon="6.83286">
        <ele>2665</ele>
        <time>2019-10-06T08:40:41Z</time>
      </trkpt>
      <trkpt lat="45.74893" lon="6.83286">
        <ele>2665</ele>
        <time>2019-10-06T08:40:42Z</time>
      </trkpt>
      <trkpt lat="45.74891" lon="6.83283">
        <ele>2665</ele>
        <time>2019-10-06T08:40:44Z</time>
      </trkpt>
      <trkpt lat="45.74891" lon="6.8328">
        <ele>2664</ele>
        <time>2019-10-06T08:40:47Z</time>
      </trkpt>
      <trkpt lat="45.74891" lon="6.8328">
        <ele>2664</ele>
        <time>2019-10-06T08:40:48Z</time>
      </trkpt>
      <trkpt lat="45.7489" lon="6.83276">
        <ele>2664</ele>
        <time>2019-10-06T08:40:50Z</time>
      </trkpt>
      <trkpt lat="45.74889" lon="6.83273">
        <ele>2664</ele>
        <time>2019-10-06T08:40:53Z</time>
      </trkpt>
      <trkpt lat="45.74889" lon="6.83273">
        <ele>2664</ele>
        <time>2019-10-06T08:40:54Z</time>
      </trkpt>
      <trkpt lat="45.74889" lon="6.8327">
        <ele>2663</ele>
        <time>2019-10-06T08:40:57Z</time>
      </trkpt>
      <trkpt lat="45.74889" lon="6.8327">
        <ele>2663</ele>
        <time>2019-10-06T08:40:59Z</time>
      </trkpt>
      <trkpt lat="45.7489" lon="6.83267">
        <ele>2663</ele>
        <time>2019-10-06T08:41:00Z</time>
      </trkpt>
      <trkpt lat="45.7489" lon="6.83267">
        <ele>2663</ele>
        <time>2019-10-06T08:41:04Z</time>
      </trkpt>
      <trkpt lat="45.7489" lon="6.83265">
        <ele>2662</ele>
        <time>2019-10-06T08:41:05Z</time>
      </trkpt>
      <trkpt lat="45.7489" lon="6.83265">
        <ele>2661</ele>
        <time>2019-10-06T08:41:09Z</time>
      </trkpt>
      <trkpt lat="45.7489" lon="6.83262">
        <ele>2661</ele>
        <time>2019-10-06T08:41:11Z</time>
      </trkpt>
      <trkpt lat="45.7489" lon="6.83259">
        <ele>2661</ele>
        <time>2019-10-06T08:41:14Z</time>
      </trkpt>
      <trkpt lat="45.7489" lon="6.83259">
        <ele>2661</ele>
        <time>2019-10-06T08:41:15Z</time>
      </trkpt>
      <trkpt lat="45.74891" lon="6.83256">
        <ele>2661</ele>
        <time>2019-10-06T08:41:18Z</time>
      </trkpt>
      <trkpt lat="45.74891" lon="6.83256">
        <ele>2660</ele>
        <time>2019-10-06T08:41:20Z</time>
      </trkpt>
      <trkpt lat="45.74891" lon="6.83253">
        <ele>2660</ele>
        <time>2019-10-06T08:41:24Z</time>
      </trkpt>
      <trkpt lat="45.74891" lon="6.83253">
        <ele>2660</ele>
        <time>2019-10-06T08:41:25Z</time>
      </trkpt>
      <trkpt lat="45.74892" lon="6.8325">
        <ele>2660</ele>
        <time>2019-10-06T08:41:28Z</time>
      </trkpt>
      <trkpt lat="45.74892" lon="6.8325">
        <ele>2659</ele>
        <time>2019-10-06T08:41:30Z</time>
      </trkpt>
      <trkpt lat="45.74893" lon="6.83247">
        <ele>2658</ele>
        <time>2019-10-06T08:41:32Z</time>
      </trkpt>
      <trkpt lat="45.74892" lon="6.83244">
        <ele>2660</ele>
        <time>2019-10-06T08:41:35Z</time>
      </trkpt>
      <trkpt lat="45.74892" lon="6.83244">
        <ele>2660</ele>
        <time>2019-10-06T08:41:36Z</time>
      </trkpt>
      <trkpt lat="45.74892" lon="6.8324">
        <ele>2658</ele>
        <time>2019-10-06T08:41:38Z</time>
      </trkpt>
      <trkpt lat="45.74892" lon="6.83236">
        <ele>2658</ele>
        <time>2019-10-06T08:41:41Z</time>
      </trkpt>
      <trkpt lat="45.74892" lon="6.83236">
        <ele>2657</ele>
        <time>2019-10-06T08:41:42Z</time>
      </trkpt>
      <trkpt lat="45.74892" lon="6.83233">
        <ele>2656</ele>
        <time>2019-10-06T08:41:43Z</time>
      </trkpt>
      <trkpt lat="45.74892" lon="6.8323">
        <ele>2656</ele>
        <time>2019-10-06T08:41:45Z</time>
      </trkpt>
      <trkpt lat="45.74892" lon="6.83227">
        <ele>2656</ele>
        <time>2019-10-06T08:41:47Z</time>
      </trkpt>
      <trkpt lat="45.74892" lon="6.83227">
        <ele>2656</ele>
        <time>2019-10-06T08:41:49Z</time>
      </trkpt>
      <trkpt lat="45.74892" lon="6.83223">
        <ele>2656</ele>
        <time>2019-10-06T08:41:50Z</time>
      </trkpt>
      <trkpt lat="45.74892" lon="6.83219">
        <ele>2656</ele>
        <time>2019-10-06T08:41:52Z</time>
      </trkpt>
      <trkpt lat="45.74892" lon="6.83216">
        <ele>2656</ele>
        <time>2019-10-06T08:41:54Z</time>
      </trkpt>
      <trkpt lat="45.74892" lon="6.83216">
        <ele>2656</ele>
        <time>2019-10-06T08:41:56Z</time>
      </trkpt>
      <trkpt lat="45.74893" lon="6.83213">
        <ele>2656</ele>
        <time>2019-10-06T08:41:57Z</time>
      </trkpt>
      <trkpt lat="45.74893" lon="6.8321">
        <ele>2656</ele>
        <time>2019-10-06T08:41:59Z</time>
      </trkpt>
      <trkpt lat="45.74893" lon="6.83206">
        <ele>2656</ele>
        <time>2019-10-06T08:42:01Z</time>
      </trkpt>
      <trkpt lat="45.74893" lon="6.83206">
        <ele>2656</ele>
        <time>2019-10-06T08:42:03Z</time>
      </trkpt>
      <trkpt lat="45.74894" lon="6.83202">
        <ele>2654</ele>
        <time>2019-10-06T08:42:04Z</time>
      </trkpt>
      <trkpt lat="45.74894" lon="6.83198">
        <ele>2654</ele>
        <time>2019-10-06T08:42:07Z</time>
      </trkpt>
      <trkpt lat="45.74894" lon="6.83196">
        <ele>2654</ele>
        <time>2019-10-06T08:42:09Z</time>
      </trkpt>
      <trkpt lat="45.74895" lon="6.83193">
        <ele>2654</ele>
        <time>2019-10-06T08:42:11Z</time>
      </trkpt>
      <trkpt lat="45.74895" lon="6.8319">
        <ele>2654</ele>
        <time>2019-10-06T08:42:13Z</time>
      </trkpt>
      <trkpt lat="45.74894" lon="6.83187">
        <ele>2653</ele>
        <time>2019-10-06T08:42:16Z</time>
      </trkpt>
      <trkpt lat="45.74894" lon="6.83187">
        <ele>2653</ele>
        <time>2019-10-06T08:42:17Z</time>
      </trkpt>
      <trkpt lat="45.74893" lon="6.83184">
        <ele>2652</ele>
        <time>2019-10-06T08:42:20Z</time>
      </trkpt>
      <trkpt lat="45.74893" lon="6.83184">
        <ele>2651</ele>
        <time>2019-10-06T08:42:22Z</time>
      </trkpt>
      <trkpt lat="45.74894" lon="6.83181">
        <ele>2651</ele>
        <time>2019-10-06T08:42:24Z</time>
      </trkpt>
      <trkpt lat="45.74894" lon="6.83181">
        <ele>2651</ele>
        <time>2019-10-06T08:42:27Z</time>
      </trkpt>
      <trkpt lat="45.74894" lon="6.83179">
        <ele>2651</ele>
        <time>2019-10-06T08:42:28Z</time>
      </trkpt>
      <trkpt lat="45.74896" lon="6.83177">
        <ele>2650</ele>
        <time>2019-10-06T08:42:30Z</time>
      </trkpt>
      <trkpt lat="45.74898" lon="6.83177">
        <ele>2650</ele>
        <time>2019-10-06T08:42:32Z</time>
      </trkpt>
      <trkpt lat="45.74898" lon="6.83177">
        <ele>2649</ele>
        <time>2019-10-06T08:42:34Z</time>
      </trkpt>
      <trkpt lat="45.749" lon="6.83175">
        <ele>2648</ele>
        <time>2019-10-06T08:42:35Z</time>
      </trkpt>
      <trkpt lat="45.74902" lon="6.83172">
        <ele>2648</ele>
        <time>2019-10-06T08:42:37Z</time>
      </trkpt>
      <trkpt lat="45.74903" lon="6.8317">
        <ele>2647</ele>
        <time>2019-10-06T08:42:39Z</time>
      </trkpt>
      <trkpt lat="45.74905" lon="6.83167">
        <ele>2647</ele>
        <time>2019-10-06T08:42:41Z</time>
      </trkpt>
      <trkpt lat="45.74906" lon="6.83164">
        <ele>2646</ele>
        <time>2019-10-06T08:42:43Z</time>
      </trkpt>
      <trkpt lat="45.74908" lon="6.83162">
        <ele>2645</ele>
        <time>2019-10-06T08:42:45Z</time>
      </trkpt>
      <trkpt lat="45.74908" lon="6.83158">
        <ele>2645</ele>
        <time>2019-10-06T08:42:48Z</time>
      </trkpt>
      <trkpt lat="45.74908" lon="6.83158">
        <ele>2645</ele>
        <time>2019-10-06T08:42:49Z</time>
      </trkpt>
      <trkpt lat="45.74907" lon="6.83154">
        <ele>2644</ele>
        <time>2019-10-06T08:42:50Z</time>
      </trkpt>
      <trkpt lat="45.74908" lon="6.83151">
        <ele>2644</ele>
        <time>2019-10-06T08:42:52Z</time>
      </trkpt>
      <trkpt lat="45.74909" lon="6.83147">
        <ele>2642</ele>
        <time>2019-10-06T08:42:54Z</time>
      </trkpt>
      <trkpt lat="45.74909" lon="6.83144">
        <ele>2642</ele>
        <time>2019-10-06T08:42:56Z</time>
      </trkpt>
      <trkpt lat="45.7491" lon="6.8314">
        <ele>2642</ele>
        <time>2019-10-06T08:42:58Z</time>
      </trkpt>
      <trkpt lat="45.7491" lon="6.83137">
        <ele>2640</ele>
        <time>2019-10-06T08:43:00Z</time>
      </trkpt>
      <trkpt lat="45.74911" lon="6.83134">
        <ele>2640</ele>
        <time>2019-10-06T08:43:02Z</time>
      </trkpt>
      <trkpt lat="45.7491" lon="6.83132">
        <ele>2639</ele>
        <time>2019-10-06T08:43:04Z</time>
      </trkpt>
      <trkpt lat="45.74909" lon="6.83129">
        <ele>2639</ele>
        <time>2019-10-06T08:43:06Z</time>
      </trkpt>
      <trkpt lat="45.74907" lon="6.83125">
        <ele>2638</ele>
        <time>2019-10-06T08:43:08Z</time>
      </trkpt>
      <trkpt lat="45.74905" lon="6.83121">
        <ele>2638</ele>
        <time>2019-10-06T08:43:10Z</time>
      </trkpt>
      <trkpt lat="45.74903" lon="6.83118">
        <ele>2637</ele>
        <time>2019-10-06T08:43:12Z</time>
      </trkpt>
      <trkpt lat="45.74902" lon="6.83115">
        <ele>2637</ele>
        <time>2019-10-06T08:43:14Z</time>
      </trkpt>
      <trkpt lat="45.74902" lon="6.83111">
        <ele>2638</ele>
        <time>2019-10-06T08:43:16Z</time>
      </trkpt>
      <trkpt lat="45.74903" lon="6.83108">
        <ele>2638</ele>
        <time>2019-10-06T08:43:18Z</time>
      </trkpt>
      <trkpt lat="45.74902" lon="6.83105">
        <ele>2638</ele>
        <time>2019-10-06T08:43:20Z</time>
      </trkpt>
      <trkpt lat="45.74902" lon="6.83103">
        <ele>2638</ele>
        <time>2019-10-06T08:43:22Z</time>
      </trkpt>
      <trkpt lat="45.74901" lon="6.831">
        <ele>2638</ele>
        <time>2019-10-06T08:43:24Z</time>
      </trkpt>
      <trkpt lat="45.74901" lon="6.83096">
        <ele>2638</ele>
        <time>2019-10-06T08:43:26Z</time>
      </trkpt>
      <trkpt lat="45.74901" lon="6.83094">
        <ele>2638</ele>
        <time>2019-10-06T08:43:28Z</time>
      </trkpt>
      <trkpt lat="45.74901" lon="6.83091">
        <ele>2638</ele>
        <time>2019-10-06T08:43:30Z</time>
      </trkpt>
      <trkpt lat="45.74901" lon="6.83088">
        <ele>2639</ele>
        <time>2019-10-06T08:43:32Z</time>
      </trkpt>
      <trkpt lat="45.749" lon="6.83085">
        <ele>2639</ele>
        <time>2019-10-06T08:43:35Z</time>
      </trkpt>
      <trkpt lat="45.749" lon="6.83085">
        <ele>2639</ele>
        <time>2019-10-06T08:43:36Z</time>
      </trkpt>
      <trkpt lat="45.74898" lon="6.83082">
        <ele>2639</ele>
        <time>2019-10-06T08:43:37Z</time>
      </trkpt>
      <trkpt lat="45.74897" lon="6.8308">
        <ele>2639</ele>
        <time>2019-10-06T08:43:39Z</time>
      </trkpt>
      <trkpt lat="45.74896" lon="6.83078">
        <ele>2639</ele>
        <time>2019-10-06T08:43:41Z</time>
      </trkpt>
      <trkpt lat="45.74895" lon="6.83075">
        <ele>2639</ele>
        <time>2019-10-06T08:43:43Z</time>
      </trkpt>
      <trkpt lat="45.74895" lon="6.83072">
        <ele>2639</ele>
        <time>2019-10-06T08:43:45Z</time>
      </trkpt>
      <trkpt lat="45.74895" lon="6.8307">
        <ele>2639</ele>
        <time>2019-10-06T08:43:47Z</time>
      </trkpt>
      <trkpt lat="45.74895" lon="6.83067">
        <ele>2639</ele>
        <time>2019-10-06T08:43:49Z</time>
      </trkpt>
      <trkpt lat="45.74895" lon="6.83064">
        <ele>2640</ele>
        <time>2019-10-06T08:43:51Z</time>
      </trkpt>
      <trkpt lat="45.74895" lon="6.83061">
        <ele>2639</ele>
        <time>2019-10-06T08:43:54Z</time>
      </trkpt>
      <trkpt lat="45.74895" lon="6.83061">
        <ele>2640</ele>
        <time>2019-10-06T08:43:55Z</time>
      </trkpt>
      <trkpt lat="45.74895" lon="6.83057">
        <ele>2640</ele>
        <time>2019-10-06T08:43:56Z</time>
      </trkpt>
      <trkpt lat="45.74896" lon="6.83054">
        <ele>2640</ele>
        <time>2019-10-06T08:43:58Z</time>
      </trkpt>
      <trkpt lat="45.74896" lon="6.83051">
        <ele>2640</ele>
        <time>2019-10-06T08:44:00Z</time>
      </trkpt>
      <trkpt lat="45.74896" lon="6.83047">
        <ele>2639</ele>
        <time>2019-10-06T08:44:02Z</time>
      </trkpt>
      <trkpt lat="45.74896" lon="6.83043">
        <ele>2639</ele>
        <time>2019-10-06T08:44:04Z</time>
      </trkpt>
      <trkpt lat="45.74896" lon="6.83038">
        <ele>2638</ele>
        <time>2019-10-06T08:44:06Z</time>
      </trkpt>
      <trkpt lat="45.74896" lon="6.83036">
        <ele>2638</ele>
        <time>2019-10-06T08:44:07Z</time>
      </trkpt>
      <trkpt lat="45.74896" lon="6.83033">
        <ele>2638</ele>
        <time>2019-10-06T08:44:08Z</time>
      </trkpt>
      <trkpt lat="45.74895" lon="6.83029">
        <ele>2636</ele>
        <time>2019-10-06T08:44:10Z</time>
      </trkpt>
      <trkpt lat="45.74894" lon="6.83025">
        <ele>2636</ele>
        <time>2019-10-06T08:44:12Z</time>
      </trkpt>
      <trkpt lat="45.74894" lon="6.83022">
        <ele>2636</ele>
        <time>2019-10-06T08:44:14Z</time>
      </trkpt>
      <trkpt lat="45.74893" lon="6.83019">
        <ele>2635</ele>
        <time>2019-10-06T08:44:16Z</time>
      </trkpt>
      <trkpt lat="45.74893" lon="6.83017">
        <ele>2634</ele>
        <time>2019-10-06T08:44:18Z</time>
      </trkpt>
      <trkpt lat="45.74893" lon="6.83014">
        <ele>2636</ele>
        <time>2019-10-06T08:44:20Z</time>
      </trkpt>
      <trkpt lat="45.74893" lon="6.83014">
        <ele>2636</ele>
        <time>2019-10-06T08:44:22Z</time>
      </trkpt>
      <trkpt lat="45.74893" lon="6.8301">
        <ele>2635</ele>
        <time>2019-10-06T08:44:23Z</time>
      </trkpt>
      <trkpt lat="45.74893" lon="6.83007">
        <ele>2635</ele>
        <time>2019-10-06T08:44:25Z</time>
      </trkpt>
      <trkpt lat="45.74893" lon="6.83004">
        <ele>2633</ele>
        <time>2019-10-06T08:44:27Z</time>
      </trkpt>
      <trkpt lat="45.74892" lon="6.83001">
        <ele>2632</ele>
        <time>2019-10-06T08:44:29Z</time>
      </trkpt>
      <trkpt lat="45.74891" lon="6.82998">
        <ele>2633</ele>
        <time>2019-10-06T08:44:31Z</time>
      </trkpt>
      <trkpt lat="45.7489" lon="6.82994">
        <ele>2633</ele>
        <time>2019-10-06T08:44:33Z</time>
      </trkpt>
      <trkpt lat="45.74889" lon="6.82991">
        <ele>2629</ele>
        <time>2019-10-06T08:44:35Z</time>
      </trkpt>
      <trkpt lat="45.74889" lon="6.82987">
        <ele>2629</ele>
        <time>2019-10-06T08:44:37Z</time>
      </trkpt>
      <trkpt lat="45.74889" lon="6.82984">
        <ele>2631</ele>
        <time>2019-10-06T08:44:39Z</time>
      </trkpt>
      <trkpt lat="45.74888" lon="6.82981">
        <ele>2629</ele>
        <time>2019-10-06T08:44:41Z</time>
      </trkpt>
      <trkpt lat="45.74888" lon="6.82978">
        <ele>2628</ele>
        <time>2019-10-06T08:44:43Z</time>
      </trkpt>
      <trkpt lat="45.74888" lon="6.82975">
        <ele>2627</ele>
        <time>2019-10-06T08:44:45Z</time>
      </trkpt>
      <trkpt lat="45.74888" lon="6.82971">
        <ele>2625</ele>
        <time>2019-10-06T08:44:47Z</time>
      </trkpt>
      <trkpt lat="45.74888" lon="6.82968">
        <ele>2627</ele>
        <time>2019-10-06T08:44:49Z</time>
      </trkpt>
      <trkpt lat="45.74888" lon="6.82964">
        <ele>2625</ele>
        <time>2019-10-06T08:44:51Z</time>
      </trkpt>
      <trkpt lat="45.74887" lon="6.82959">
        <ele>2624</ele>
        <time>2019-10-06T08:44:53Z</time>
      </trkpt>
      <trkpt lat="45.74887" lon="6.82959">
        <ele>2623</ele>
        <time>2019-10-06T08:44:56Z</time>
      </trkpt>
      <trkpt lat="45.74887" lon="6.82956">
        <ele>2622</ele>
        <time>2019-10-06T08:44:58Z</time>
      </trkpt>
      <trkpt lat="45.74887" lon="6.82952">
        <ele>2622</ele>
        <time>2019-10-06T08:45:00Z</time>
      </trkpt>
      <trkpt lat="45.74886" lon="6.8295">
        <ele>2622</ele>
        <time>2019-10-06T08:45:02Z</time>
      </trkpt>
      <trkpt lat="45.74886" lon="6.82946">
        <ele>2622</ele>
        <time>2019-10-06T08:45:04Z</time>
      </trkpt>
      <trkpt lat="45.74886" lon="6.82946">
        <ele>2622</ele>
        <time>2019-10-06T08:45:06Z</time>
      </trkpt>
      <trkpt lat="45.74885" lon="6.82943">
        <ele>2622</ele>
        <time>2019-10-06T08:45:07Z</time>
      </trkpt>
      <trkpt lat="45.74884" lon="6.8294">
        <ele>2620</ele>
        <time>2019-10-06T08:45:10Z</time>
      </trkpt>
      <trkpt lat="45.74884" lon="6.8294">
        <ele>2619</ele>
        <time>2019-10-06T08:45:12Z</time>
      </trkpt>
      <trkpt lat="45.74885" lon="6.82937">
        <ele>2619</ele>
        <time>2019-10-06T08:45:13Z</time>
      </trkpt>
      <trkpt lat="45.74885" lon="6.82934">
        <ele>2617</ele>
        <time>2019-10-06T08:45:16Z</time>
      </trkpt>
      <trkpt lat="45.74885" lon="6.82934">
        <ele>2617</ele>
        <time>2019-10-06T08:45:18Z</time>
      </trkpt>
      <trkpt lat="45.74885" lon="6.82931">
        <ele>2616</ele>
        <time>2019-10-06T08:45:19Z</time>
      </trkpt>
      <trkpt lat="45.74886" lon="6.82927">
        <ele>2615</ele>
        <time>2019-10-06T08:45:23Z</time>
      </trkpt>
      <trkpt lat="45.74886" lon="6.82927">
        <ele>2615</ele>
        <time>2019-10-06T08:45:24Z</time>
      </trkpt>
      <trkpt lat="45.74885" lon="6.82924">
        <ele>2615</ele>
        <time>2019-10-06T08:45:25Z</time>
      </trkpt>
      <trkpt lat="45.74886" lon="6.82922">
        <ele>2614</ele>
        <time>2019-10-06T08:45:27Z</time>
      </trkpt>
      <trkpt lat="45.74886" lon="6.82919">
        <ele>2612</ele>
        <time>2019-10-06T08:45:30Z</time>
      </trkpt>
      <trkpt lat="45.74886" lon="6.82919">
        <ele>2611</ele>
        <time>2019-10-06T08:45:31Z</time>
      </trkpt>
      <trkpt lat="45.74886" lon="6.82915">
        <ele>2611</ele>
        <time>2019-10-06T08:45:32Z</time>
      </trkpt>
      <trkpt lat="45.74885" lon="6.82912">
        <ele>2611</ele>
        <time>2019-10-06T08:45:34Z</time>
      </trkpt>
      <trkpt lat="45.74885" lon="6.82908">
        <ele>2612</ele>
        <time>2019-10-06T08:45:36Z</time>
      </trkpt>
      <trkpt lat="45.74884" lon="6.82904">
        <ele>2613</ele>
        <time>2019-10-06T08:45:38Z</time>
      </trkpt>
      <trkpt lat="45.74883" lon="6.82901">
        <ele>2613</ele>
        <time>2019-10-06T08:45:40Z</time>
      </trkpt>
      <trkpt lat="45.74882" lon="6.82898">
        <ele>2611</ele>
        <time>2019-10-06T08:45:41Z</time>
      </trkpt>
      <trkpt lat="45.74882" lon="6.82893">
        <ele>2608</ele>
        <time>2019-10-06T08:45:43Z</time>
      </trkpt>
      <trkpt lat="45.74882" lon="6.82889">
        <ele>2607</ele>
        <time>2019-10-06T08:45:45Z</time>
      </trkpt>
      <trkpt lat="45.74882" lon="6.82884">
        <ele>2607</ele>
        <time>2019-10-06T08:45:47Z</time>
      </trkpt>
      <trkpt lat="45.74882" lon="6.8288">
        <ele>2605</ele>
        <time>2019-10-06T08:45:49Z</time>
      </trkpt>
      <trkpt lat="45.74883" lon="6.82877">
        <ele>2605</ele>
        <time>2019-10-06T08:45:51Z</time>
      </trkpt>
      <trkpt lat="45.74883" lon="6.82873">
        <ele>2605</ele>
        <time>2019-10-06T08:45:53Z</time>
      </trkpt>
      <trkpt lat="45.74883" lon="6.82869">
        <ele>2604</ele>
        <time>2019-10-06T08:45:55Z</time>
      </trkpt>
      <trkpt lat="45.74882" lon="6.82865">
        <ele>2602</ele>
        <time>2019-10-06T08:45:57Z</time>
      </trkpt>
      <trkpt lat="45.74883" lon="6.8286">
        <ele>2604</ele>
        <time>2019-10-06T08:45:59Z</time>
      </trkpt>
      <trkpt lat="45.74883" lon="6.82858">
        <ele>2605</ele>
        <time>2019-10-06T08:46:00Z</time>
      </trkpt>
      <trkpt lat="45.74883" lon="6.82855">
        <ele>2605</ele>
        <time>2019-10-06T08:46:01Z</time>
      </trkpt>
      <trkpt lat="45.74883" lon="6.82851">
        <ele>2605</ele>
        <time>2019-10-06T08:46:03Z</time>
      </trkpt>
      <trkpt lat="45.74882" lon="6.82848">
        <ele>2605</ele>
        <time>2019-10-06T08:46:04Z</time>
      </trkpt>
      <trkpt lat="45.74882" lon="6.82845">
        <ele>2604</ele>
        <time>2019-10-06T08:46:05Z</time>
      </trkpt>
      <trkpt lat="45.74882" lon="6.82841">
        <ele>2603</ele>
        <time>2019-10-06T08:46:07Z</time>
      </trkpt>
      <trkpt lat="45.74882" lon="6.82837">
        <ele>2601</ele>
        <time>2019-10-06T08:46:09Z</time>
      </trkpt>
      <trkpt lat="45.74882" lon="6.82833">
        <ele>2600</ele>
        <time>2019-10-06T08:46:11Z</time>
      </trkpt>
      <trkpt lat="45.74882" lon="6.8283">
        <ele>2600</ele>
        <time>2019-10-06T08:46:12Z</time>
      </trkpt>
      <trkpt lat="45.74882" lon="6.82827">
        <ele>2600</ele>
        <time>2019-10-06T08:46:13Z</time>
      </trkpt>
      <trkpt lat="45.74883" lon="6.82823">
        <ele>2599</ele>
        <time>2019-10-06T08:46:15Z</time>
      </trkpt>
      <trkpt lat="45.74883" lon="6.82819">
        <ele>2598</ele>
        <time>2019-10-06T08:46:17Z</time>
      </trkpt>
      <trkpt lat="45.74882" lon="6.82814">
        <ele>2597</ele>
        <time>2019-10-06T08:46:19Z</time>
      </trkpt>
      <trkpt lat="45.74882" lon="6.8281">
        <ele>2598</ele>
        <time>2019-10-06T08:46:21Z</time>
      </trkpt>
      <trkpt lat="45.74881" lon="6.82807">
        <ele>2598</ele>
        <time>2019-10-06T08:46:23Z</time>
      </trkpt>
      <trkpt lat="45.74881" lon="6.82802">
        <ele>2596</ele>
        <time>2019-10-06T08:46:25Z</time>
      </trkpt>
      <trkpt lat="45.74881" lon="6.82798">
        <ele>2595</ele>
        <time>2019-10-06T08:46:27Z</time>
      </trkpt>
      <trkpt lat="45.74881" lon="6.82794">
        <ele>2595</ele>
        <time>2019-10-06T08:46:29Z</time>
      </trkpt>
      <trkpt lat="45.74881" lon="6.82791">
        <ele>2595</ele>
        <time>2019-10-06T08:46:31Z</time>
      </trkpt>
      <trkpt lat="45.74881" lon="6.82787">
        <ele>2592</ele>
        <time>2019-10-06T08:46:33Z</time>
      </trkpt>
      <trkpt lat="45.74881" lon="6.82783">
        <ele>2592</ele>
        <time>2019-10-06T08:46:35Z</time>
      </trkpt>
      <trkpt lat="45.7488" lon="6.82779">
        <ele>2591</ele>
        <time>2019-10-06T08:46:37Z</time>
      </trkpt>
      <trkpt lat="45.74879" lon="6.82776">
        <ele>2591</ele>
        <time>2019-10-06T08:46:39Z</time>
      </trkpt>
      <trkpt lat="45.74879" lon="6.82772">
        <ele>2589</ele>
        <time>2019-10-06T08:46:41Z</time>
      </trkpt>
      <trkpt lat="45.74879" lon="6.82768">
        <ele>2589</ele>
        <time>2019-10-06T08:46:43Z</time>
      </trkpt>
      <trkpt lat="45.7488" lon="6.82764">
        <ele>2589</ele>
        <time>2019-10-06T08:46:45Z</time>
      </trkpt>
      <trkpt lat="45.7488" lon="6.82761">
        <ele>2590</ele>
        <time>2019-10-06T08:46:47Z</time>
      </trkpt>
      <trkpt lat="45.7488" lon="6.82757">
        <ele>2591</ele>
        <time>2019-10-06T08:46:49Z</time>
      </trkpt>
      <trkpt lat="45.7488" lon="6.82754">
        <ele>2591</ele>
        <time>2019-10-06T08:46:50Z</time>
      </trkpt>
      <trkpt lat="45.74879" lon="6.82751">
        <ele>2590</ele>
        <time>2019-10-06T08:46:51Z</time>
      </trkpt>
      <trkpt lat="45.7488" lon="6.82749">
        <ele>2590</ele>
        <time>2019-10-06T08:46:52Z</time>
      </trkpt>
      <trkpt lat="45.7488" lon="6.82746">
        <ele>2590</ele>
        <time>2019-10-06T08:46:53Z</time>
      </trkpt>
      <trkpt lat="45.74881" lon="6.82743">
        <ele>2590</ele>
        <time>2019-10-06T08:46:54Z</time>
      </trkpt>
      <trkpt lat="45.74881" lon="6.8274">
        <ele>2590</ele>
        <time>2019-10-06T08:46:55Z</time>
      </trkpt>
      <trkpt lat="45.74882" lon="6.82737">
        <ele>2590</ele>
        <time>2019-10-06T08:46:56Z</time>
      </trkpt>
      <trkpt lat="45.74882" lon="6.82734">
        <ele>2592</ele>
        <time>2019-10-06T08:46:57Z</time>
      </trkpt>
      <trkpt lat="45.74882" lon="6.82731">
        <ele>2592</ele>
        <time>2019-10-06T08:46:58Z</time>
      </trkpt>
      <trkpt lat="45.74882" lon="6.82728">
        <ele>2591</ele>
        <time>2019-10-06T08:46:59Z</time>
      </trkpt>
      <trkpt lat="45.74882" lon="6.82725">
        <ele>2592</ele>
        <time>2019-10-06T08:47:00Z</time>
      </trkpt>
      <trkpt lat="45.74883" lon="6.82722">
        <ele>2591</ele>
        <time>2019-10-06T08:47:01Z</time>
      </trkpt>
      <trkpt lat="45.74882" lon="6.82718">
        <ele>2590</ele>
        <time>2019-10-06T08:47:02Z</time>
      </trkpt>
      <trkpt lat="45.74882" lon="6.82715">
        <ele>2591</ele>
        <time>2019-10-06T08:47:03Z</time>
      </trkpt>
      <trkpt lat="45.74882" lon="6.82712">
        <ele>2591</ele>
        <time>2019-10-06T08:47:04Z</time>
      </trkpt>
      <trkpt lat="45.74882" lon="6.82709">
        <ele>2589</ele>
        <time>2019-10-06T08:47:05Z</time>
      </trkpt>
      <trkpt lat="45.74882" lon="6.82706">
        <ele>2589</ele>
        <time>2019-10-06T08:47:06Z</time>
      </trkpt>
      <trkpt lat="45.74882" lon="6.82704">
        <ele>2589</ele>
        <time>2019-10-06T08:47:07Z</time>
      </trkpt>
      <trkpt lat="45.74881" lon="6.82699">
        <ele>2587</ele>
        <time>2019-10-06T08:47:09Z</time>
      </trkpt>
      <trkpt lat="45.74881" lon="6.82694">
        <ele>2586</ele>
        <time>2019-10-06T08:47:11Z</time>
      </trkpt>
      <trkpt lat="45.74881" lon="6.82691">
        <ele>2586</ele>
        <time>2019-10-06T08:47:12Z</time>
      </trkpt>
      <trkpt lat="45.74881" lon="6.82686">
        <ele>2586</ele>
        <time>2019-10-06T08:47:14Z</time>
      </trkpt>
      <trkpt lat="45.74881" lon="6.82682">
        <ele>2585</ele>
        <time>2019-10-06T08:47:15Z</time>
      </trkpt>
      <trkpt lat="45.74881" lon="6.82679">
        <ele>2584</ele>
        <time>2019-10-06T08:47:16Z</time>
      </trkpt>
      <trkpt lat="45.74881" lon="6.82677">
        <ele>2585</ele>
        <time>2019-10-06T08:47:17Z</time>
      </trkpt>
      <trkpt lat="45.7488" lon="6.82674">
        <ele>2585</ele>
        <time>2019-10-06T08:47:18Z</time>
      </trkpt>
      <trkpt lat="45.74879" lon="6.82672">
        <ele>2584</ele>
        <time>2019-10-06T08:47:19Z</time>
      </trkpt>
      <trkpt lat="45.74879" lon="6.82667">
        <ele>2581</ele>
        <time>2019-10-06T08:47:21Z</time>
      </trkpt>
      <trkpt lat="45.7488" lon="6.82665">
        <ele>2580</ele>
        <time>2019-10-06T08:47:22Z</time>
      </trkpt>
      <trkpt lat="45.74881" lon="6.82662">
        <ele>2579</ele>
        <time>2019-10-06T08:47:23Z</time>
      </trkpt>
      <trkpt lat="45.74881" lon="6.82659">
        <ele>2579</ele>
        <time>2019-10-06T08:47:24Z</time>
      </trkpt>
      <trkpt lat="45.74881" lon="6.82657">
        <ele>2579</ele>
        <time>2019-10-06T08:47:25Z</time>
      </trkpt>
      <trkpt lat="45.74881" lon="6.82652">
        <ele>2578</ele>
        <time>2019-10-06T08:47:27Z</time>
      </trkpt>
      <trkpt lat="45.74881" lon="6.82647">
        <ele>2577</ele>
        <time>2019-10-06T08:47:29Z</time>
      </trkpt>
      <trkpt lat="45.74881" lon="6.82642">
        <ele>2576</ele>
        <time>2019-10-06T08:47:31Z</time>
      </trkpt>
      <trkpt lat="45.74881" lon="6.82638">
        <ele>2575</ele>
        <time>2019-10-06T08:47:33Z</time>
      </trkpt>
      <trkpt lat="45.74881" lon="6.82633">
        <ele>2575</ele>
        <time>2019-10-06T08:47:35Z</time>
      </trkpt>
      <trkpt lat="45.74882" lon="6.82629">
        <ele>2576</ele>
        <time>2019-10-06T08:47:37Z</time>
      </trkpt>
      <trkpt lat="45.74882" lon="6.82626">
        <ele>2576</ele>
        <time>2019-10-06T08:47:38Z</time>
      </trkpt>
      <trkpt lat="45.74883" lon="6.82623">
        <ele>2576</ele>
        <time>2019-10-06T08:47:39Z</time>
      </trkpt>
      <trkpt lat="45.74883" lon="6.82621">
        <ele>2576</ele>
        <time>2019-10-06T08:47:40Z</time>
      </trkpt>
      <trkpt lat="45.74884" lon="6.82618">
        <ele>2576</ele>
        <time>2019-10-06T08:47:41Z</time>
      </trkpt>
      <trkpt lat="45.74884" lon="6.82615">
        <ele>2575</ele>
        <time>2019-10-06T08:47:42Z</time>
      </trkpt>
      <trkpt lat="45.74884" lon="6.8261">
        <ele>2575</ele>
        <time>2019-10-06T08:47:44Z</time>
      </trkpt>
      <trkpt lat="45.74884" lon="6.82607">
        <ele>2575</ele>
        <time>2019-10-06T08:47:45Z</time>
      </trkpt>
      <trkpt lat="45.74885" lon="6.82605">
        <ele>2575</ele>
        <time>2019-10-06T08:47:46Z</time>
      </trkpt>
      <trkpt lat="45.74885" lon="6.82602">
        <ele>2575</ele>
        <time>2019-10-06T08:47:47Z</time>
      </trkpt>
      <trkpt lat="45.74883" lon="6.82598">
        <ele>2575</ele>
        <time>2019-10-06T08:47:49Z</time>
      </trkpt>
      <trkpt lat="45.74882" lon="6.82596">
        <ele>2574</ele>
        <time>2019-10-06T08:47:50Z</time>
      </trkpt>
      <trkpt lat="45.74881" lon="6.82593">
        <ele>2574</ele>
        <time>2019-10-06T08:47:51Z</time>
      </trkpt>
      <trkpt lat="45.7488" lon="6.82591">
        <ele>2574</ele>
        <time>2019-10-06T08:47:52Z</time>
      </trkpt>
      <trkpt lat="45.7488" lon="6.82588">
        <ele>2575</ele>
        <time>2019-10-06T08:47:53Z</time>
      </trkpt>
      <trkpt lat="45.74879" lon="6.82584">
        <ele>2575</ele>
        <time>2019-10-06T08:47:55Z</time>
      </trkpt>
      <trkpt lat="45.74878" lon="6.8258">
        <ele>2574</ele>
        <time>2019-10-06T08:47:57Z</time>
      </trkpt>
      <trkpt lat="45.74877" lon="6.82575">
        <ele>2574</ele>
        <time>2019-10-06T08:47:59Z</time>
      </trkpt>
      <trkpt lat="45.74877" lon="6.8257">
        <ele>2574</ele>
        <time>2019-10-06T08:48:01Z</time>
      </trkpt>
      <trkpt lat="45.74877" lon="6.82567">
        <ele>2574</ele>
        <time>2019-10-06T08:48:02Z</time>
      </trkpt>
      <trkpt lat="45.74877" lon="6.82565">
        <ele>2574</ele>
        <time>2019-10-06T08:48:03Z</time>
      </trkpt>
      <trkpt lat="45.74876" lon="6.8256">
        <ele>2574</ele>
        <time>2019-10-06T08:48:05Z</time>
      </trkpt>
      <trkpt lat="45.74876" lon="6.82557">
        <ele>2574</ele>
        <time>2019-10-06T08:48:07Z</time>
      </trkpt>
      <trkpt lat="45.74874" lon="6.82554">
        <ele>2575</ele>
        <time>2019-10-06T08:48:09Z</time>
      </trkpt>
      <trkpt lat="45.74873" lon="6.82551">
        <ele>2575</ele>
        <time>2019-10-06T08:48:11Z</time>
      </trkpt>
      <trkpt lat="45.74872" lon="6.82548">
        <ele>2575</ele>
        <time>2019-10-06T08:48:13Z</time>
      </trkpt>
      <trkpt lat="45.74871" lon="6.82544">
        <ele>2575</ele>
        <time>2019-10-06T08:48:15Z</time>
      </trkpt>
      <trkpt lat="45.74871" lon="6.82541">
        <ele>2576</ele>
        <time>2019-10-06T08:48:17Z</time>
      </trkpt>
      <trkpt lat="45.74871" lon="6.82537">
        <ele>2576</ele>
        <time>2019-10-06T08:48:19Z</time>
      </trkpt>
      <trkpt lat="45.7487" lon="6.82533">
        <ele>2576</ele>
        <time>2019-10-06T08:48:21Z</time>
      </trkpt>
      <trkpt lat="45.7487" lon="6.8253">
        <ele>2577</ele>
        <time>2019-10-06T08:48:23Z</time>
      </trkpt>
      <trkpt lat="45.74871" lon="6.82526">
        <ele>2576</ele>
        <time>2019-10-06T08:48:25Z</time>
      </trkpt>
      <trkpt lat="45.74872" lon="6.82521">
        <ele>2576</ele>
        <time>2019-10-06T08:48:27Z</time>
      </trkpt>
      <trkpt lat="45.74873" lon="6.82518">
        <ele>2578</ele>
        <time>2019-10-06T08:48:29Z</time>
      </trkpt>
      <trkpt lat="45.74875" lon="6.82515">
        <ele>2577</ele>
        <time>2019-10-06T08:48:31Z</time>
      </trkpt>
      <trkpt lat="45.74878" lon="6.82514">
        <ele>2576</ele>
        <time>2019-10-06T08:48:33Z</time>
      </trkpt>
      <trkpt lat="45.74881" lon="6.82514">
        <ele>2576</ele>
        <time>2019-10-06T08:48:35Z</time>
      </trkpt>
      <trkpt lat="45.74884" lon="6.82515">
        <ele>2576</ele>
        <time>2019-10-06T08:48:37Z</time>
      </trkpt>
      <trkpt lat="45.74886" lon="6.82514">
        <ele>2573</ele>
        <time>2019-10-06T08:48:39Z</time>
      </trkpt>
      <trkpt lat="45.74886" lon="6.82514">
        <ele>2569</ele>
        <time>2019-10-06T08:48:41Z</time>
      </trkpt>
      <trkpt lat="45.74888" lon="6.82512">
        <ele>2569</ele>
        <time>2019-10-06T08:48:42Z</time>
      </trkpt>
      <trkpt lat="45.74889" lon="6.82511">
        <ele>2569</ele>
        <time>2019-10-06T08:48:44Z</time>
      </trkpt>
      <trkpt lat="45.74891" lon="6.82512">
        <ele>2568</ele>
        <time>2019-10-06T08:48:47Z</time>
      </trkpt>
      <trkpt lat="45.74891" lon="6.82512">
        <ele>2567</ele>
        <time>2019-10-06T08:48:48Z</time>
      </trkpt>
      <trkpt lat="45.74892" lon="6.82509">
        <ele>2567</ele>
        <time>2019-10-06T08:48:49Z</time>
      </trkpt>
      <trkpt lat="45.74891" lon="6.82505">
        <ele>2567</ele>
        <time>2019-10-06T08:48:51Z</time>
      </trkpt>
      <trkpt lat="45.74892" lon="6.82502">
        <ele>2565</ele>
        <time>2019-10-06T08:48:53Z</time>
      </trkpt>
      <trkpt lat="45.74892" lon="6.82499">
        <ele>2564</ele>
        <time>2019-10-06T08:48:55Z</time>
      </trkpt>
      <trkpt lat="45.74892" lon="6.82497">
        <ele>2563</ele>
        <time>2019-10-06T08:48:57Z</time>
      </trkpt>
      <trkpt lat="45.74894" lon="6.82496">
        <ele>2563</ele>
        <time>2019-10-06T08:48:59Z</time>
      </trkpt>
      <trkpt lat="45.74894" lon="6.82496">
        <ele>2562</ele>
        <time>2019-10-06T08:49:02Z</time>
      </trkpt>
      <trkpt lat="45.74896" lon="6.82494">
        <ele>2562</ele>
        <time>2019-10-06T08:49:03Z</time>
      </trkpt>
      <trkpt lat="45.74896" lon="6.82491">
        <ele>2561</ele>
        <time>2019-10-06T08:49:07Z</time>
      </trkpt>
      <trkpt lat="45.74896" lon="6.82491">
        <ele>2560</ele>
        <time>2019-10-06T08:49:08Z</time>
      </trkpt>
      <trkpt lat="45.74895" lon="6.82487">
        <ele>2559</ele>
        <time>2019-10-06T08:49:09Z</time>
      </trkpt>
      <trkpt lat="45.74896" lon="6.82484">
        <ele>2559</ele>
        <time>2019-10-06T08:49:11Z</time>
      </trkpt>
      <trkpt lat="45.74898" lon="6.82485">
        <ele>2559</ele>
        <time>2019-10-06T08:49:13Z</time>
      </trkpt>
      <trkpt lat="45.749" lon="6.82486">
        <ele>2559</ele>
        <time>2019-10-06T08:49:14Z</time>
      </trkpt>
      <trkpt lat="45.74902" lon="6.82489">
        <ele>2559</ele>
        <time>2019-10-06T08:49:16Z</time>
      </trkpt>
      <trkpt lat="45.74904" lon="6.8249">
        <ele>2556</ele>
        <time>2019-10-06T08:49:18Z</time>
      </trkpt>
      <trkpt lat="45.74906" lon="6.82492">
        <ele>2554</ele>
        <time>2019-10-06T08:49:20Z</time>
      </trkpt>
      <trkpt lat="45.74906" lon="6.82492">
        <ele>2553</ele>
        <time>2019-10-06T08:49:23Z</time>
      </trkpt>
      <trkpt lat="45.74907" lon="6.82488">
        <ele>2553</ele>
        <time>2019-10-06T08:49:24Z</time>
      </trkpt>
      <trkpt lat="45.74909" lon="6.82488">
        <ele>2551</ele>
        <time>2019-10-06T08:49:27Z</time>
      </trkpt>
      <trkpt lat="45.74909" lon="6.82488">
        <ele>2549</ele>
        <time>2019-10-06T08:49:29Z</time>
      </trkpt>
      <trkpt lat="45.74909" lon="6.82484">
        <ele>2549</ele>
        <time>2019-10-06T08:49:30Z</time>
      </trkpt>
      <trkpt lat="45.74909" lon="6.82482">
        <ele>2550</ele>
        <time>2019-10-06T08:49:32Z</time>
      </trkpt>
      <trkpt lat="45.74912" lon="6.82482">
        <ele>2549</ele>
        <time>2019-10-06T08:49:34Z</time>
      </trkpt>
      <trkpt lat="45.74912" lon="6.82482">
        <ele>2547</ele>
        <time>2019-10-06T08:49:36Z</time>
      </trkpt>
      <trkpt lat="45.74913" lon="6.82479">
        <ele>2547</ele>
        <time>2019-10-06T08:49:38Z</time>
      </trkpt>
      <trkpt lat="45.74915" lon="6.8248">
        <ele>2547</ele>
        <time>2019-10-06T08:49:41Z</time>
      </trkpt>
      <trkpt lat="45.74915" lon="6.8248">
        <ele>2545</ele>
        <time>2019-10-06T08:49:42Z</time>
      </trkpt>
      <trkpt lat="45.74915" lon="6.82477">
        <ele>2543</ele>
        <time>2019-10-06T08:49:44Z</time>
      </trkpt>
      <trkpt lat="45.74915" lon="6.82474">
        <ele>2545</ele>
        <time>2019-10-06T08:49:46Z</time>
      </trkpt>
      <trkpt lat="45.74914" lon="6.82471">
        <ele>2545</ele>
        <time>2019-10-06T08:49:47Z</time>
      </trkpt>
      <trkpt lat="45.74914" lon="6.82468">
        <ele>2544</ele>
        <time>2019-10-06T08:49:48Z</time>
      </trkpt>
      <trkpt lat="45.74913" lon="6.82466">
        <ele>2543</ele>
        <time>2019-10-06T08:49:49Z</time>
      </trkpt>
      <trkpt lat="45.74912" lon="6.82461">
        <ele>2542</ele>
        <time>2019-10-06T08:49:51Z</time>
      </trkpt>
      <trkpt lat="45.74911" lon="6.82459">
        <ele>2541</ele>
        <time>2019-10-06T08:49:52Z</time>
      </trkpt>
      <trkpt lat="45.7491" lon="6.82456">
        <ele>2540</ele>
        <time>2019-10-06T08:49:53Z</time>
      </trkpt>
      <trkpt lat="45.74909" lon="6.82453">
        <ele>2540</ele>
        <time>2019-10-06T08:49:54Z</time>
      </trkpt>
      <trkpt lat="45.74908" lon="6.8245">
        <ele>2540</ele>
        <time>2019-10-06T08:49:55Z</time>
      </trkpt>
      <trkpt lat="45.74907" lon="6.82448">
        <ele>2540</ele>
        <time>2019-10-06T08:49:56Z</time>
      </trkpt>
      <trkpt lat="45.74906" lon="6.82444">
        <ele>2538</ele>
        <time>2019-10-06T08:49:58Z</time>
      </trkpt>
      <trkpt lat="45.74905" lon="6.82442">
        <ele>2537</ele>
        <time>2019-10-06T08:50:00Z</time>
      </trkpt>
      <trkpt lat="45.74904" lon="6.82438">
        <ele>2536</ele>
        <time>2019-10-06T08:50:02Z</time>
      </trkpt>
      <trkpt lat="45.74903" lon="6.82433">
        <ele>2537</ele>
        <time>2019-10-06T08:50:04Z</time>
      </trkpt>
      <trkpt lat="45.74901" lon="6.8243">
        <ele>2535</ele>
        <time>2019-10-06T08:50:06Z</time>
      </trkpt>
      <trkpt lat="45.74901" lon="6.82427">
        <ele>2533</ele>
        <time>2019-10-06T08:50:08Z</time>
      </trkpt>
      <trkpt lat="45.74899" lon="6.82424">
        <ele>2535</ele>
        <time>2019-10-06T08:50:10Z</time>
      </trkpt>
      <trkpt lat="45.74898" lon="6.82421">
        <ele>2533</ele>
        <time>2019-10-06T08:50:12Z</time>
      </trkpt>
      <trkpt lat="45.74897" lon="6.82417">
        <ele>2532</ele>
        <time>2019-10-06T08:50:14Z</time>
      </trkpt>
      <trkpt lat="45.74896" lon="6.82414">
        <ele>2531</ele>
        <time>2019-10-06T08:50:15Z</time>
      </trkpt>
      <trkpt lat="45.74895" lon="6.8241">
        <ele>2531</ele>
        <time>2019-10-06T08:50:16Z</time>
      </trkpt>
      <trkpt lat="45.74894" lon="6.82407">
        <ele>2531</ele>
        <time>2019-10-06T08:50:17Z</time>
      </trkpt>
      <trkpt lat="45.74892" lon="6.82404">
        <ele>2531</ele>
        <time>2019-10-06T08:50:19Z</time>
      </trkpt>
      <trkpt lat="45.7489" lon="6.824">
        <ele>2529</ele>
        <time>2019-10-06T08:50:21Z</time>
      </trkpt>
      <trkpt lat="45.74888" lon="6.82397">
        <ele>2529</ele>
        <time>2019-10-06T08:50:23Z</time>
      </trkpt>
      <trkpt lat="45.74886" lon="6.82395">
        <ele>2529</ele>
        <time>2019-10-06T08:50:25Z</time>
      </trkpt>
      <trkpt lat="45.74884" lon="6.82391">
        <ele>2529</ele>
        <time>2019-10-06T08:50:27Z</time>
      </trkpt>
      <trkpt lat="45.74882" lon="6.82387">
        <ele>2529</ele>
        <time>2019-10-06T08:50:29Z</time>
      </trkpt>
      <trkpt lat="45.7488" lon="6.82383">
        <ele>2530</ele>
        <time>2019-10-06T08:50:31Z</time>
      </trkpt>
      <trkpt lat="45.74879" lon="6.82379">
        <ele>2530</ele>
        <time>2019-10-06T08:50:33Z</time>
      </trkpt>
      <trkpt lat="45.74877" lon="6.82376">
        <ele>2529</ele>
        <time>2019-10-06T08:50:35Z</time>
      </trkpt>
      <trkpt lat="45.74875" lon="6.82373">
        <ele>2530</ele>
        <time>2019-10-06T08:50:37Z</time>
      </trkpt>
      <trkpt lat="45.74874" lon="6.82371">
        <ele>2530</ele>
        <time>2019-10-06T08:50:39Z</time>
      </trkpt>
      <trkpt lat="45.74872" lon="6.8237">
        <ele>2531</ele>
        <time>2019-10-06T08:50:41Z</time>
      </trkpt>
      <trkpt lat="45.74871" lon="6.82367">
        <ele>2531</ele>
        <time>2019-10-06T08:50:43Z</time>
      </trkpt>
      <trkpt lat="45.7487" lon="6.82364">
        <ele>2531</ele>
        <time>2019-10-06T08:50:45Z</time>
      </trkpt>
      <trkpt lat="45.74869" lon="6.82361">
        <ele>2531</ele>
        <time>2019-10-06T08:50:47Z</time>
      </trkpt>
      <trkpt lat="45.74868" lon="6.82357">
        <ele>2530</ele>
        <time>2019-10-06T08:50:49Z</time>
      </trkpt>
      <trkpt lat="45.74867" lon="6.82354">
        <ele>2529</ele>
        <time>2019-10-06T08:50:50Z</time>
      </trkpt>
      <trkpt lat="45.74865" lon="6.82352">
        <ele>2530</ele>
        <time>2019-10-06T08:50:51Z</time>
      </trkpt>
      <trkpt lat="45.74864" lon="6.82348">
        <ele>2530</ele>
        <time>2019-10-06T08:50:53Z</time>
      </trkpt>
      <trkpt lat="45.74863" lon="6.82345">
        <ele>2530</ele>
        <time>2019-10-06T08:50:55Z</time>
      </trkpt>
      <trkpt lat="45.74862" lon="6.82342">
        <ele>2530</ele>
        <time>2019-10-06T08:50:57Z</time>
      </trkpt>
      <trkpt lat="45.7486" lon="6.8234">
        <ele>2532</ele>
        <time>2019-10-06T08:50:59Z</time>
      </trkpt>
      <trkpt lat="45.74859" lon="6.82338">
        <ele>2532</ele>
        <time>2019-10-06T08:51:01Z</time>
      </trkpt>
      <trkpt lat="45.74859" lon="6.82338">
        <ele>2535</ele>
        <time>2019-10-06T08:51:04Z</time>
      </trkpt>
      <trkpt lat="45.74858" lon="6.82335">
        <ele>2536</ele>
        <time>2019-10-06T08:51:06Z</time>
      </trkpt>
      <trkpt lat="45.74856" lon="6.82333">
        <ele>2539</ele>
        <time>2019-10-06T08:51:09Z</time>
      </trkpt>
      <trkpt lat="45.74856" lon="6.82333">
        <ele>2539</ele>
        <time>2019-10-06T08:51:10Z</time>
      </trkpt>
      <trkpt lat="45.74855" lon="6.82331">
        <ele>2537</ele>
        <time>2019-10-06T08:51:12Z</time>
      </trkpt>
      <trkpt lat="45.74854" lon="6.82327">
        <ele>2536</ele>
        <time>2019-10-06T08:51:15Z</time>
      </trkpt>
      <trkpt lat="45.74854" lon="6.82327">
        <ele>2536</ele>
        <time>2019-10-06T08:51:16Z</time>
      </trkpt>
      <trkpt lat="45.74853" lon="6.82324">
        <ele>2536</ele>
        <time>2019-10-06T08:51:17Z</time>
      </trkpt>
      <trkpt lat="45.74852" lon="6.8232">
        <ele>2536</ele>
        <time>2019-10-06T08:51:19Z</time>
      </trkpt>
      <trkpt lat="45.74851" lon="6.82318">
        <ele>2538</ele>
        <time>2019-10-06T08:51:21Z</time>
      </trkpt>
      <trkpt lat="45.74849" lon="6.82316">
        <ele>2539</ele>
        <time>2019-10-06T08:51:23Z</time>
      </trkpt>
      <trkpt lat="45.74846" lon="6.82314">
        <ele>2538</ele>
        <time>2019-10-06T08:51:26Z</time>
      </trkpt>
      <trkpt lat="45.74846" lon="6.82314">
        <ele>2539</ele>
        <time>2019-10-06T08:51:27Z</time>
      </trkpt>
      <trkpt lat="45.74844" lon="6.82311">
        <ele>2539</ele>
        <time>2019-10-06T08:51:29Z</time>
      </trkpt>
      <trkpt lat="45.74843" lon="6.82308">
        <ele>2539</ele>
        <time>2019-10-06T08:51:31Z</time>
      </trkpt>
      <trkpt lat="45.74843" lon="6.82304">
        <ele>2541</ele>
        <time>2019-10-06T08:51:33Z</time>
      </trkpt>
      <trkpt lat="45.74842" lon="6.82301">
        <ele>2542</ele>
        <time>2019-10-06T08:51:35Z</time>
      </trkpt>
      <trkpt lat="45.74841" lon="6.82299">
        <ele>2540</ele>
        <time>2019-10-06T08:51:37Z</time>
      </trkpt>
      <trkpt lat="45.74839" lon="6.82295">
        <ele>2538</ele>
        <time>2019-10-06T08:51:39Z</time>
      </trkpt>
      <trkpt lat="45.74838" lon="6.82289">
        <ele>2538</ele>
        <time>2019-10-06T08:51:41Z</time>
      </trkpt>
      <trkpt lat="45.74838" lon="6.82288">
        <ele>2537</ele>
        <time>2019-10-06T08:51:42Z</time>
      </trkpt>
      <trkpt lat="45.74838" lon="6.82285">
        <ele>2537</ele>
        <time>2019-10-06T08:51:43Z</time>
      </trkpt>
      <trkpt lat="45.74838" lon="6.82282">
        <ele>2536</ele>
        <time>2019-10-06T08:51:44Z</time>
      </trkpt>
      <trkpt lat="45.74838" lon="6.82278">
        <ele>2535</ele>
        <time>2019-10-06T08:51:45Z</time>
      </trkpt>
      <trkpt lat="45.74838" lon="6.82276">
        <ele>2536</ele>
        <time>2019-10-06T08:51:46Z</time>
      </trkpt>
      <trkpt lat="45.74837" lon="6.82275">
        <ele>2537</ele>
        <time>2019-10-06T08:51:47Z</time>
      </trkpt>
      <trkpt lat="45.74836" lon="6.82272">
        <ele>2537</ele>
        <time>2019-10-06T08:51:48Z</time>
      </trkpt>
      <trkpt lat="45.74835" lon="6.8227">
        <ele>2536</ele>
        <time>2019-10-06T08:51:49Z</time>
      </trkpt>
      <trkpt lat="45.74835" lon="6.82267">
        <ele>2535</ele>
        <time>2019-10-06T08:51:50Z</time>
      </trkpt>
      <trkpt lat="45.74835" lon="6.82264">
        <ele>2535</ele>
        <time>2019-10-06T08:51:51Z</time>
      </trkpt>
      <trkpt lat="45.74835" lon="6.82262">
        <ele>2535</ele>
        <time>2019-10-06T08:51:52Z</time>
      </trkpt>
      <trkpt lat="45.74834" lon="6.82257">
        <ele>2533</ele>
        <time>2019-10-06T08:51:54Z</time>
      </trkpt>
      <trkpt lat="45.74834" lon="6.82254">
        <ele>2533</ele>
        <time>2019-10-06T08:51:55Z</time>
      </trkpt>
      <trkpt lat="45.74833" lon="6.82249">
        <ele>2532</ele>
        <time>2019-10-06T08:51:57Z</time>
      </trkpt>
      <trkpt lat="45.74832" lon="6.82244">
        <ele>2531</ele>
        <time>2019-10-06T08:51:59Z</time>
      </trkpt>
      <trkpt lat="45.74831" lon="6.82242">
        <ele>2530</ele>
        <time>2019-10-06T08:52:00Z</time>
      </trkpt>
      <trkpt lat="45.7483" lon="6.8224">
        <ele>2530</ele>
        <time>2019-10-06T08:52:01Z</time>
      </trkpt>
      <trkpt lat="45.74829" lon="6.82238">
        <ele>2530</ele>
        <time>2019-10-06T08:52:02Z</time>
      </trkpt>
      <trkpt lat="45.74828" lon="6.82235">
        <ele>2530</ele>
        <time>2019-10-06T08:52:03Z</time>
      </trkpt>
      <trkpt lat="45.74826" lon="6.8223">
        <ele>2530</ele>
        <time>2019-10-06T08:52:04Z</time>
      </trkpt>
      <trkpt lat="45.74825" lon="6.82229">
        <ele>2530</ele>
        <time>2019-10-06T08:52:05Z</time>
      </trkpt>
      <trkpt lat="45.74824" lon="6.82227">
        <ele>2530</ele>
        <time>2019-10-06T08:52:06Z</time>
      </trkpt>
      <trkpt lat="45.74823" lon="6.82225">
        <ele>2530</ele>
        <time>2019-10-06T08:52:07Z</time>
      </trkpt>
      <trkpt lat="45.74821" lon="6.82221">
        <ele>2530</ele>
        <time>2019-10-06T08:52:09Z</time>
      </trkpt>
      <trkpt lat="45.7482" lon="6.82217">
        <ele>2530</ele>
        <time>2019-10-06T08:52:11Z</time>
      </trkpt>
      <trkpt lat="45.7482" lon="6.82213">
        <ele>2530</ele>
        <time>2019-10-06T08:52:13Z</time>
      </trkpt>
      <trkpt lat="45.74818" lon="6.82209">
        <ele>2530</ele>
        <time>2019-10-06T08:52:15Z</time>
      </trkpt>
      <trkpt lat="45.74818" lon="6.82206">
        <ele>2531</ele>
        <time>2019-10-06T08:52:17Z</time>
      </trkpt>
      <trkpt lat="45.74817" lon="6.82203">
        <ele>2531</ele>
        <time>2019-10-06T08:52:19Z</time>
      </trkpt>
      <trkpt lat="45.74815" lon="6.82201">
        <ele>2531</ele>
        <time>2019-10-06T08:52:21Z</time>
      </trkpt>
      <trkpt lat="45.74814" lon="6.82197">
        <ele>2531</ele>
        <time>2019-10-06T08:52:23Z</time>
      </trkpt>
      <trkpt lat="45.74814" lon="6.82194">
        <ele>2531</ele>
        <time>2019-10-06T08:52:25Z</time>
      </trkpt>
      <trkpt lat="45.74814" lon="6.82191">
        <ele>2532</ele>
        <time>2019-10-06T08:52:27Z</time>
      </trkpt>
      <trkpt lat="45.74814" lon="6.82188">
        <ele>2532</ele>
        <time>2019-10-06T08:52:29Z</time>
      </trkpt>
      <trkpt lat="45.74813" lon="6.82186">
        <ele>2533</ele>
        <time>2019-10-06T08:52:31Z</time>
      </trkpt>
      <trkpt lat="45.74813" lon="6.82182">
        <ele>2536</ele>
        <time>2019-10-06T08:52:34Z</time>
      </trkpt>
      <trkpt lat="45.74813" lon="6.82182">
        <ele>2536</ele>
        <time>2019-10-06T08:52:35Z</time>
      </trkpt>
      <trkpt lat="45.74813" lon="6.82179">
        <ele>2536</ele>
        <time>2019-10-06T08:52:37Z</time>
      </trkpt>
      <trkpt lat="45.74813" lon="6.82177">
        <ele>2537</ele>
        <time>2019-10-06T08:52:40Z</time>
      </trkpt>
      <trkpt lat="45.74813" lon="6.82177">
        <ele>2537</ele>
        <time>2019-10-06T08:52:41Z</time>
      </trkpt>
      <trkpt lat="45.74813" lon="6.82174">
        <ele>2538</ele>
        <time>2019-10-06T08:52:43Z</time>
      </trkpt>
      <trkpt lat="45.74812" lon="6.82171">
        <ele>2539</ele>
        <time>2019-10-06T08:52:46Z</time>
      </trkpt>
      <trkpt lat="45.74812" lon="6.82171">
        <ele>2540</ele>
        <time>2019-10-06T08:52:47Z</time>
      </trkpt>
      <trkpt lat="45.74811" lon="6.82167">
        <ele>2540</ele>
        <time>2019-10-06T08:52:50Z</time>
      </trkpt>
      <trkpt lat="45.74811" lon="6.82167">
        <ele>2540</ele>
        <time>2019-10-06T08:52:52Z</time>
      </trkpt>
      <trkpt lat="45.7481" lon="6.82164">
        <ele>2540</ele>
        <time>2019-10-06T08:52:53Z</time>
      </trkpt>
      <trkpt lat="45.74809" lon="6.82162">
        <ele>2541</ele>
        <time>2019-10-06T08:52:56Z</time>
      </trkpt>
      <trkpt lat="45.74809" lon="6.82162">
        <ele>2541</ele>
        <time>2019-10-06T08:52:58Z</time>
      </trkpt>
      <trkpt lat="45.74808" lon="6.82159">
        <ele>2541</ele>
        <time>2019-10-06T08:52:59Z</time>
      </trkpt>
      <trkpt lat="45.74807" lon="6.82157">
        <ele>2541</ele>
        <time>2019-10-06T08:53:01Z</time>
      </trkpt>
      <trkpt lat="45.74807" lon="6.82154">
        <ele>2542</ele>
        <time>2019-10-06T08:53:03Z</time>
      </trkpt>
      <trkpt lat="45.74806" lon="6.82152">
        <ele>2542</ele>
        <time>2019-10-06T08:53:05Z</time>
      </trkpt>
      <trkpt lat="45.74806" lon="6.82149">
        <ele>2543</ele>
        <time>2019-10-06T08:53:07Z</time>
      </trkpt>
      <trkpt lat="45.74805" lon="6.82145">
        <ele>2542</ele>
        <time>2019-10-06T08:53:09Z</time>
      </trkpt>
      <trkpt lat="45.74804" lon="6.82142">
        <ele>2542</ele>
        <time>2019-10-06T08:53:11Z</time>
      </trkpt>
      <trkpt lat="45.74804" lon="6.82139">
        <ele>2543</ele>
        <time>2019-10-06T08:53:13Z</time>
      </trkpt>
      <trkpt lat="45.74802" lon="6.82136">
        <ele>2543</ele>
        <time>2019-10-06T08:53:16Z</time>
      </trkpt>
      <trkpt lat="45.74802" lon="6.82136">
        <ele>2542</ele>
        <time>2019-10-06T08:53:17Z</time>
      </trkpt>
      <trkpt lat="45.74802" lon="6.82133">
        <ele>2543</ele>
        <time>2019-10-06T08:53:18Z</time>
      </trkpt>
      <trkpt lat="45.74801" lon="6.8213">
        <ele>2543</ele>
        <time>2019-10-06T08:53:20Z</time>
      </trkpt>
      <trkpt lat="45.74801" lon="6.82126">
        <ele>2543</ele>
        <time>2019-10-06T08:53:22Z</time>
      </trkpt>
      <trkpt lat="45.74801" lon="6.82122">
        <ele>2543</ele>
        <time>2019-10-06T08:53:24Z</time>
      </trkpt>
      <trkpt lat="45.74801" lon="6.82118">
        <ele>2543</ele>
        <time>2019-10-06T08:53:26Z</time>
      </trkpt>
      <trkpt lat="45.74801" lon="6.82113">
        <ele>2543</ele>
        <time>2019-10-06T08:53:28Z</time>
      </trkpt>
      <trkpt lat="45.748" lon="6.82111">
        <ele>2543</ele>
        <time>2019-10-06T08:53:29Z</time>
      </trkpt>
      <trkpt lat="45.748" lon="6.82106">
        <ele>2545</ele>
        <time>2019-10-06T08:53:31Z</time>
      </trkpt>
      <trkpt lat="45.748" lon="6.82102">
        <ele>2544</ele>
        <time>2019-10-06T08:53:33Z</time>
      </trkpt>
      <trkpt lat="45.74799" lon="6.82098">
        <ele>2544</ele>
        <time>2019-10-06T08:53:35Z</time>
      </trkpt>
      <trkpt lat="45.74799" lon="6.82093">
        <ele>2544</ele>
        <time>2019-10-06T08:53:37Z</time>
      </trkpt>
      <trkpt lat="45.748" lon="6.8209">
        <ele>2544</ele>
        <time>2019-10-06T08:53:38Z</time>
      </trkpt>
      <trkpt lat="45.748" lon="6.82087">
        <ele>2543</ele>
        <time>2019-10-06T08:53:40Z</time>
      </trkpt>
      <trkpt lat="45.748" lon="6.82084">
        <ele>2544</ele>
        <time>2019-10-06T08:53:42Z</time>
      </trkpt>
      <trkpt lat="45.748" lon="6.82084">
        <ele>2548</ele>
        <time>2019-10-06T08:53:44Z</time>
      </trkpt>
      <trkpt lat="45.74799" lon="6.8208">
        <ele>2547</ele>
        <time>2019-10-06T08:53:45Z</time>
      </trkpt>
      <trkpt lat="45.748" lon="6.82077">
        <ele>2547</ele>
        <time>2019-10-06T08:53:47Z</time>
      </trkpt>
      <trkpt lat="45.74801" lon="6.82074">
        <ele>2547</ele>
        <time>2019-10-06T08:53:49Z</time>
      </trkpt>
      <trkpt lat="45.74801" lon="6.82074">
        <ele>2547</ele>
        <time>2019-10-06T08:53:51Z</time>
      </trkpt>
      <trkpt lat="45.74801" lon="6.8207">
        <ele>2547</ele>
        <time>2019-10-06T08:53:52Z</time>
      </trkpt>
      <trkpt lat="45.74801" lon="6.82067">
        <ele>2549</ele>
        <time>2019-10-06T08:53:54Z</time>
      </trkpt>
      <trkpt lat="45.748" lon="6.82064">
        <ele>2549</ele>
        <time>2019-10-06T08:53:56Z</time>
      </trkpt>
      <trkpt lat="45.748" lon="6.8206">
        <ele>2548</ele>
        <time>2019-10-06T08:53:58Z</time>
      </trkpt>
      <trkpt lat="45.748" lon="6.82057">
        <ele>2549</ele>
        <time>2019-10-06T08:54:00Z</time>
      </trkpt>
      <trkpt lat="45.748" lon="6.82057">
        <ele>2549</ele>
        <time>2019-10-06T08:54:02Z</time>
      </trkpt>
      <trkpt lat="45.748" lon="6.82053">
        <ele>2549</ele>
        <time>2019-10-06T08:54:03Z</time>
      </trkpt>
      <trkpt lat="45.74801" lon="6.8205">
        <ele>2549</ele>
        <time>2019-10-06T08:54:05Z</time>
      </trkpt>
      <trkpt lat="45.74801" lon="6.82047">
        <ele>2549</ele>
        <time>2019-10-06T08:54:07Z</time>
      </trkpt>
      <trkpt lat="45.74802" lon="6.82045">
        <ele>2550</ele>
        <time>2019-10-06T08:54:09Z</time>
      </trkpt>
      <trkpt lat="45.74801" lon="6.82042">
        <ele>2550</ele>
        <time>2019-10-06T08:54:11Z</time>
      </trkpt>
      <trkpt lat="45.74801" lon="6.82042">
        <ele>2549</ele>
        <time>2019-10-06T08:54:13Z</time>
      </trkpt>
      <trkpt lat="45.748" lon="6.82039">
        <ele>2549</ele>
        <time>2019-10-06T08:54:14Z</time>
      </trkpt>
      <trkpt lat="45.74799" lon="6.82036">
        <ele>2549</ele>
        <time>2019-10-06T08:54:16Z</time>
      </trkpt>
      <trkpt lat="45.74799" lon="6.82032">
        <ele>2550</ele>
        <time>2019-10-06T08:54:18Z</time>
      </trkpt>
      <trkpt lat="45.74799" lon="6.82029">
        <ele>2550</ele>
        <time>2019-10-06T08:54:20Z</time>
      </trkpt>
      <trkpt lat="45.748" lon="6.82025">
        <ele>2550</ele>
        <time>2019-10-06T08:54:22Z</time>
      </trkpt>
      <trkpt lat="45.748" lon="6.82022">
        <ele>2550</ele>
        <time>2019-10-06T08:54:24Z</time>
      </trkpt>
      <trkpt lat="45.748" lon="6.82019">
        <ele>2552</ele>
        <time>2019-10-06T08:54:26Z</time>
      </trkpt>
      <trkpt lat="45.748" lon="6.82016">
        <ele>2552</ele>
        <time>2019-10-06T08:54:28Z</time>
      </trkpt>
      <trkpt lat="45.74801" lon="6.82013">
        <ele>2551</ele>
        <time>2019-10-06T08:54:30Z</time>
      </trkpt>
      <trkpt lat="45.74801" lon="6.82009">
        <ele>2550</ele>
        <time>2019-10-06T08:54:32Z</time>
      </trkpt>
      <trkpt lat="45.74801" lon="6.82006">
        <ele>2551</ele>
        <time>2019-10-06T08:54:34Z</time>
      </trkpt>
      <trkpt lat="45.74801" lon="6.82002">
        <ele>2552</ele>
        <time>2019-10-06T08:54:36Z</time>
      </trkpt>
      <trkpt lat="45.74801" lon="6.81999">
        <ele>2551</ele>
        <time>2019-10-06T08:54:38Z</time>
      </trkpt>
      <trkpt lat="45.74802" lon="6.81996">
        <ele>2552</ele>
        <time>2019-10-06T08:54:40Z</time>
      </trkpt>
      <trkpt lat="45.74801" lon="6.81992">
        <ele>2552</ele>
        <time>2019-10-06T08:54:42Z</time>
      </trkpt>
      <trkpt lat="45.748" lon="6.81989">
        <ele>2553</ele>
        <time>2019-10-06T08:54:44Z</time>
      </trkpt>
      <trkpt lat="45.74799" lon="6.81986">
        <ele>2551</ele>
        <time>2019-10-06T08:54:46Z</time>
      </trkpt>
      <trkpt lat="45.74798" lon="6.81982">
        <ele>2551</ele>
        <time>2019-10-06T08:54:48Z</time>
      </trkpt>
      <trkpt lat="45.74798" lon="6.81979">
        <ele>2553</ele>
        <time>2019-10-06T08:54:50Z</time>
      </trkpt>
      <trkpt lat="45.74799" lon="6.81976">
        <ele>2555</ele>
        <time>2019-10-06T08:54:52Z</time>
      </trkpt>
      <trkpt lat="45.74801" lon="6.81971">
        <ele>2556</ele>
        <time>2019-10-06T08:54:54Z</time>
      </trkpt>
      <trkpt lat="45.74802" lon="6.81969">
        <ele>2556</ele>
        <time>2019-10-06T08:54:55Z</time>
      </trkpt>
      <trkpt lat="45.74802" lon="6.81966">
        <ele>2557</ele>
        <time>2019-10-06T08:54:56Z</time>
      </trkpt>
      <trkpt lat="45.74803" lon="6.81963">
        <ele>2557</ele>
        <time>2019-10-06T08:54:57Z</time>
      </trkpt>
      <trkpt lat="45.74804" lon="6.8196">
        <ele>2556</ele>
        <time>2019-10-06T08:54:58Z</time>
      </trkpt>
      <trkpt lat="45.74803" lon="6.81955">
        <ele>2556</ele>
        <time>2019-10-06T08:55:00Z</time>
      </trkpt>
      <trkpt lat="45.74803" lon="6.81953">
        <ele>2557</ele>
        <time>2019-10-06T08:55:01Z</time>
      </trkpt>
      <trkpt lat="45.74802" lon="6.8195">
        <ele>2557</ele>
        <time>2019-10-06T08:55:02Z</time>
      </trkpt>
      <trkpt lat="45.74802" lon="6.81948">
        <ele>2556</ele>
        <time>2019-10-06T08:55:03Z</time>
      </trkpt>
      <trkpt lat="45.74801" lon="6.81945">
        <ele>2556</ele>
        <time>2019-10-06T08:55:04Z</time>
      </trkpt>
      <trkpt lat="45.74801" lon="6.81942">
        <ele>2555</ele>
        <time>2019-10-06T08:55:05Z</time>
      </trkpt>
      <trkpt lat="45.74801" lon="6.8194">
        <ele>2556</ele>
        <time>2019-10-06T08:55:06Z</time>
      </trkpt>
      <trkpt lat="45.748" lon="6.81937">
        <ele>2556</ele>
        <time>2019-10-06T08:55:07Z</time>
      </trkpt>
      <trkpt lat="45.748" lon="6.81932">
        <ele>2554</ele>
        <time>2019-10-06T08:55:09Z</time>
      </trkpt>
      <trkpt lat="45.748" lon="6.8193">
        <ele>2556</ele>
        <time>2019-10-06T08:55:10Z</time>
      </trkpt>
      <trkpt lat="45.74799" lon="6.81927">
        <ele>2557</ele>
        <time>2019-10-06T08:55:11Z</time>
      </trkpt>
      <trkpt lat="45.74799" lon="6.81923">
        <ele>2557</ele>
        <time>2019-10-06T08:55:13Z</time>
      </trkpt>
      <trkpt lat="45.74798" lon="6.8192">
        <ele>2555</ele>
        <time>2019-10-06T08:55:15Z</time>
      </trkpt>
      <trkpt lat="45.74798" lon="6.81916">
        <ele>2555</ele>
        <time>2019-10-06T08:55:17Z</time>
      </trkpt>
      <trkpt lat="45.74796" lon="6.81913">
        <ele>2555</ele>
        <time>2019-10-06T08:55:19Z</time>
      </trkpt>
      <trkpt lat="45.74795" lon="6.81909">
        <ele>2556</ele>
        <time>2019-10-06T08:55:21Z</time>
      </trkpt>
      <trkpt lat="45.74795" lon="6.81906">
        <ele>2556</ele>
        <time>2019-10-06T08:55:23Z</time>
      </trkpt>
      <trkpt lat="45.74795" lon="6.81904">
        <ele>2556</ele>
        <time>2019-10-06T08:55:25Z</time>
      </trkpt>
      <trkpt lat="45.74796" lon="6.81901">
        <ele>2556</ele>
        <time>2019-10-06T08:55:27Z</time>
      </trkpt>
      <trkpt lat="45.74796" lon="6.81898">
        <ele>2555</ele>
        <time>2019-10-06T08:55:29Z</time>
      </trkpt>
      <trkpt lat="45.74796" lon="6.81894">
        <ele>2556</ele>
        <time>2019-10-06T08:55:31Z</time>
      </trkpt>
      <trkpt lat="45.74796" lon="6.8189">
        <ele>2557</ele>
        <time>2019-10-06T08:55:33Z</time>
      </trkpt>
      <trkpt lat="45.74794" lon="6.81886">
        <ele>2555</ele>
        <time>2019-10-06T08:55:35Z</time>
      </trkpt>
      <trkpt lat="45.74795" lon="6.81881">
        <ele>2554</ele>
        <time>2019-10-06T08:55:37Z</time>
      </trkpt>
      <trkpt lat="45.74796" lon="6.81878">
        <ele>2555</ele>
        <time>2019-10-06T08:55:39Z</time>
      </trkpt>
      <trkpt lat="45.74797" lon="6.81874">
        <ele>2556</ele>
        <time>2019-10-06T08:55:41Z</time>
      </trkpt>
      <trkpt lat="45.74797" lon="6.81871">
        <ele>2555</ele>
        <time>2019-10-06T08:55:43Z</time>
      </trkpt>
      <trkpt lat="45.74797" lon="6.81866">
        <ele>2556</ele>
        <time>2019-10-06T08:55:45Z</time>
      </trkpt>
      <trkpt lat="45.74798" lon="6.81864">
        <ele>2556</ele>
        <time>2019-10-06T08:55:46Z</time>
      </trkpt>
      <trkpt lat="45.74799" lon="6.81861">
        <ele>2554</ele>
        <time>2019-10-06T08:55:48Z</time>
      </trkpt>
      <trkpt lat="45.74798" lon="6.81857">
        <ele>2554</ele>
        <time>2019-10-06T08:55:50Z</time>
      </trkpt>
      <trkpt lat="45.74797" lon="6.81854">
        <ele>2554</ele>
        <time>2019-10-06T08:55:52Z</time>
      </trkpt>
      <trkpt lat="45.74797" lon="6.8185">
        <ele>2555</ele>
        <time>2019-10-06T08:55:54Z</time>
      </trkpt>
      <trkpt lat="45.74796" lon="6.81847">
        <ele>2556</ele>
        <time>2019-10-06T08:55:56Z</time>
      </trkpt>
      <trkpt lat="45.74795" lon="6.81844">
        <ele>2556</ele>
        <time>2019-10-06T08:55:58Z</time>
      </trkpt>
      <trkpt lat="45.74795" lon="6.8184">
        <ele>2554</ele>
        <time>2019-10-06T08:56:00Z</time>
      </trkpt>
      <trkpt lat="45.74795" lon="6.81837">
        <ele>2554</ele>
        <time>2019-10-06T08:56:02Z</time>
      </trkpt>
      <trkpt lat="45.74796" lon="6.81834">
        <ele>2555</ele>
        <time>2019-10-06T08:56:04Z</time>
      </trkpt>
      <trkpt lat="45.74796" lon="6.81832">
        <ele>2557</ele>
        <time>2019-10-06T08:56:06Z</time>
      </trkpt>
      <trkpt lat="45.74795" lon="6.81829">
        <ele>2559</ele>
        <time>2019-10-06T08:56:08Z</time>
      </trkpt>
      <trkpt lat="45.74794" lon="6.81826">
        <ele>2557</ele>
        <time>2019-10-06T08:56:10Z</time>
      </trkpt>
      <trkpt lat="45.74793" lon="6.81823">
        <ele>2559</ele>
        <time>2019-10-06T08:56:12Z</time>
      </trkpt>
      <trkpt lat="45.74792" lon="6.8182">
        <ele>2559</ele>
        <time>2019-10-06T08:56:14Z</time>
      </trkpt>
      <trkpt lat="45.74791" lon="6.81816">
        <ele>2557</ele>
        <time>2019-10-06T08:56:16Z</time>
      </trkpt>
      <trkpt lat="45.7479" lon="6.81813">
        <ele>2559</ele>
        <time>2019-10-06T08:56:18Z</time>
      </trkpt>
      <trkpt lat="45.74788" lon="6.8181">
        <ele>2559</ele>
        <time>2019-10-06T08:56:20Z</time>
      </trkpt>
      <trkpt lat="45.74787" lon="6.81807">
        <ele>2559</ele>
        <time>2019-10-06T08:56:22Z</time>
      </trkpt>
      <trkpt lat="45.74786" lon="6.81803">
        <ele>2560</ele>
        <time>2019-10-06T08:56:24Z</time>
      </trkpt>
      <trkpt lat="45.74785" lon="6.81801">
        <ele>2559</ele>
        <time>2019-10-06T08:56:26Z</time>
      </trkpt>
      <trkpt lat="45.74784" lon="6.81798">
        <ele>2560</ele>
        <time>2019-10-06T08:56:28Z</time>
      </trkpt>
      <trkpt lat="45.74782" lon="6.81795">
        <ele>2560</ele>
        <time>2019-10-06T08:56:30Z</time>
      </trkpt>
      <trkpt lat="45.74781" lon="6.81794">
        <ele>2559</ele>
        <time>2019-10-06T08:56:32Z</time>
      </trkpt>
      <trkpt lat="45.7478" lon="6.81791">
        <ele>2560</ele>
        <time>2019-10-06T08:56:35Z</time>
      </trkpt>
      <trkpt lat="45.7478" lon="6.81791">
        <ele>2561</ele>
        <time>2019-10-06T08:56:36Z</time>
      </trkpt>
      <trkpt lat="45.74778" lon="6.81788">
        <ele>2561</ele>
        <time>2019-10-06T08:56:38Z</time>
      </trkpt>
      <trkpt lat="45.74777" lon="6.81785">
        <ele>2561</ele>
        <time>2019-10-06T08:56:40Z</time>
      </trkpt>
      <trkpt lat="45.74777" lon="6.81782">
        <ele>2561</ele>
        <time>2019-10-06T08:56:42Z</time>
      </trkpt>
      <trkpt lat="45.74776" lon="6.8178">
        <ele>2560</ele>
        <time>2019-10-06T08:56:44Z</time>
      </trkpt>
      <trkpt lat="45.74776" lon="6.8178">
        <ele>2561</ele>
        <time>2019-10-06T08:56:46Z</time>
      </trkpt>
      <trkpt lat="45.74776" lon="6.81776">
        <ele>2561</ele>
        <time>2019-10-06T08:56:47Z</time>
      </trkpt>
      <trkpt lat="45.74774" lon="6.81773">
        <ele>2562</ele>
        <time>2019-10-06T08:56:50Z</time>
      </trkpt>
      <trkpt lat="45.74773" lon="6.8177">
        <ele>2562</ele>
        <time>2019-10-06T08:56:52Z</time>
      </trkpt>
      <trkpt lat="45.74772" lon="6.81768">
        <ele>2561</ele>
        <time>2019-10-06T08:56:54Z</time>
      </trkpt>
      <trkpt lat="45.74771" lon="6.81765">
        <ele>2562</ele>
        <time>2019-10-06T08:56:56Z</time>
      </trkpt>
      <trkpt lat="45.7477" lon="6.81762">
        <ele>2561</ele>
        <time>2019-10-06T08:56:58Z</time>
      </trkpt>
      <trkpt lat="45.74769" lon="6.8176">
        <ele>2561</ele>
        <time>2019-10-06T08:57:00Z</time>
      </trkpt>
      <trkpt lat="45.74769" lon="6.81756">
        <ele>2562</ele>
        <time>2019-10-06T08:57:03Z</time>
      </trkpt>
      <trkpt lat="45.74769" lon="6.81756">
        <ele>2562</ele>
        <time>2019-10-06T08:57:04Z</time>
      </trkpt>
      <trkpt lat="45.74768" lon="6.81754">
        <ele>2562</ele>
        <time>2019-10-06T08:57:05Z</time>
      </trkpt>
      <trkpt lat="45.74768" lon="6.81751">
        <ele>2562</ele>
        <time>2019-10-06T08:57:07Z</time>
      </trkpt>
      <trkpt lat="45.74767" lon="6.81748">
        <ele>2564</ele>
        <time>2019-10-06T08:57:09Z</time>
      </trkpt>
      <trkpt lat="45.74767" lon="6.81748">
        <ele>2563</ele>
        <time>2019-10-06T08:57:11Z</time>
      </trkpt>
      <trkpt lat="45.74767" lon="6.81744">
        <ele>2563</ele>
        <time>2019-10-06T08:57:12Z</time>
      </trkpt>
      <trkpt lat="45.74767" lon="6.81741">
        <ele>2563</ele>
        <time>2019-10-06T08:57:14Z</time>
      </trkpt>
      <trkpt lat="45.74767" lon="6.81739">
        <ele>2563</ele>
        <time>2019-10-06T08:57:16Z</time>
      </trkpt>
      <trkpt lat="45.74767" lon="6.81739">
        <ele>2563</ele>
        <time>2019-10-06T08:57:18Z</time>
      </trkpt>
      <trkpt lat="45.74766" lon="6.81735">
        <ele>2563</ele>
        <time>2019-10-06T08:57:19Z</time>
      </trkpt>
      <trkpt lat="45.74765" lon="6.81732">
        <ele>2564</ele>
        <time>2019-10-06T08:57:22Z</time>
      </trkpt>
      <trkpt lat="45.74765" lon="6.81729">
        <ele>2564</ele>
        <time>2019-10-06T08:57:24Z</time>
      </trkpt>
      <trkpt lat="45.74765" lon="6.81726">
        <ele>2564</ele>
        <time>2019-10-06T08:57:27Z</time>
      </trkpt>
      <trkpt lat="45.74765" lon="6.81726">
        <ele>2564</ele>
        <time>2019-10-06T08:57:28Z</time>
      </trkpt>
      <trkpt lat="45.74765" lon="6.81722">
        <ele>2564</ele>
        <time>2019-10-06T08:57:30Z</time>
      </trkpt>
      <trkpt lat="45.74766" lon="6.81719">
        <ele>2563</ele>
        <time>2019-10-06T08:57:32Z</time>
      </trkpt>
      <trkpt lat="45.74767" lon="6.81716">
        <ele>2564</ele>
        <time>2019-10-06T08:57:34Z</time>
      </trkpt>
      <trkpt lat="45.74767" lon="6.81713">
        <ele>2565</ele>
        <time>2019-10-06T08:57:37Z</time>
      </trkpt>
      <trkpt lat="45.74767" lon="6.81713">
        <ele>2565</ele>
        <time>2019-10-06T08:57:38Z</time>
      </trkpt>
      <trkpt lat="45.74767" lon="6.81709">
        <ele>2565</ele>
        <time>2019-10-06T08:57:39Z</time>
      </trkpt>
      <trkpt lat="45.74766" lon="6.81706">
        <ele>2565</ele>
        <time>2019-10-06T08:57:41Z</time>
      </trkpt>
      <trkpt lat="45.74765" lon="6.81703">
        <ele>2565</ele>
        <time>2019-10-06T08:57:43Z</time>
      </trkpt>
      <trkpt lat="45.74764" lon="6.817">
        <ele>2565</ele>
        <time>2019-10-06T08:57:45Z</time>
      </trkpt>
      <trkpt lat="45.74764" lon="6.81697">
        <ele>2565</ele>
        <time>2019-10-06T08:57:47Z</time>
      </trkpt>
      <trkpt lat="45.74764" lon="6.81693">
        <ele>2563</ele>
        <time>2019-10-06T08:57:49Z</time>
      </trkpt>
      <trkpt lat="45.74763" lon="6.8169">
        <ele>2565</ele>
        <time>2019-10-06T08:57:51Z</time>
      </trkpt>
      <trkpt lat="45.74763" lon="6.81686">
        <ele>2564</ele>
        <time>2019-10-06T08:57:53Z</time>
      </trkpt>
      <trkpt lat="45.74763" lon="6.81683">
        <ele>2564</ele>
        <time>2019-10-06T08:57:55Z</time>
      </trkpt>
      <trkpt lat="45.74763" lon="6.81679">
        <ele>2564</ele>
        <time>2019-10-06T08:57:57Z</time>
      </trkpt>
      <trkpt lat="45.74763" lon="6.81676">
        <ele>2564</ele>
        <time>2019-10-06T08:57:59Z</time>
      </trkpt>
      <trkpt lat="45.74762" lon="6.81673">
        <ele>2565</ele>
        <time>2019-10-06T08:58:01Z</time>
      </trkpt>
      <trkpt lat="45.7476" lon="6.8167">
        <ele>2566</ele>
        <time>2019-10-06T08:58:03Z</time>
      </trkpt>
      <trkpt lat="45.74758" lon="6.81668">
        <ele>2565</ele>
        <time>2019-10-06T08:58:05Z</time>
      </trkpt>
      <trkpt lat="45.74757" lon="6.81664">
        <ele>2565</ele>
        <time>2019-10-06T08:58:07Z</time>
      </trkpt>
      <trkpt lat="45.74756" lon="6.8166">
        <ele>2566</ele>
        <time>2019-10-06T08:58:09Z</time>
      </trkpt>
      <trkpt lat="45.74755" lon="6.81658">
        <ele>2567</ele>
        <time>2019-10-06T08:58:11Z</time>
      </trkpt>
      <trkpt lat="45.74754" lon="6.81654">
        <ele>2566</ele>
        <time>2019-10-06T08:58:13Z</time>
      </trkpt>
      <trkpt lat="45.74754" lon="6.8165">
        <ele>2567</ele>
        <time>2019-10-06T08:58:15Z</time>
      </trkpt>
      <trkpt lat="45.74753" lon="6.81647">
        <ele>2567</ele>
        <time>2019-10-06T08:58:17Z</time>
      </trkpt>
      <trkpt lat="45.74753" lon="6.81643">
        <ele>2567</ele>
        <time>2019-10-06T08:58:19Z</time>
      </trkpt>
      <trkpt lat="45.74753" lon="6.81638">
        <ele>2566</ele>
        <time>2019-10-06T08:58:21Z</time>
      </trkpt>
      <trkpt lat="45.74753" lon="6.81634">
        <ele>2566</ele>
        <time>2019-10-06T08:58:23Z</time>
      </trkpt>
      <trkpt lat="45.74752" lon="6.81631">
        <ele>2566</ele>
        <time>2019-10-06T08:58:25Z</time>
      </trkpt>
      <trkpt lat="45.74752" lon="6.81627">
        <ele>2565</ele>
        <time>2019-10-06T08:58:27Z</time>
      </trkpt>
      <trkpt lat="45.74752" lon="6.81622">
        <ele>2566</ele>
        <time>2019-10-06T08:58:29Z</time>
      </trkpt>
      <trkpt lat="45.74751" lon="6.81618">
        <ele>2567</ele>
        <time>2019-10-06T08:58:31Z</time>
      </trkpt>
      <trkpt lat="45.74751" lon="6.81614">
        <ele>2566</ele>
        <time>2019-10-06T08:58:33Z</time>
      </trkpt>
      <trkpt lat="45.74751" lon="6.8161">
        <ele>2566</ele>
        <time>2019-10-06T08:58:35Z</time>
      </trkpt>
      <trkpt lat="45.7475" lon="6.81606">
        <ele>2568</ele>
        <time>2019-10-06T08:58:37Z</time>
      </trkpt>
      <trkpt lat="45.7475" lon="6.81603">
        <ele>2567</ele>
        <time>2019-10-06T08:58:39Z</time>
      </trkpt>
      <trkpt lat="45.74751" lon="6.81599">
        <ele>2568</ele>
        <time>2019-10-06T08:58:41Z</time>
      </trkpt>
      <trkpt lat="45.7475" lon="6.81596">
        <ele>2568</ele>
        <time>2019-10-06T08:58:43Z</time>
      </trkpt>
      <trkpt lat="45.7475" lon="6.81592">
        <ele>2568</ele>
        <time>2019-10-06T08:58:45Z</time>
      </trkpt>
      <trkpt lat="45.74749" lon="6.81588">
        <ele>2569</ele>
        <time>2019-10-06T08:58:47Z</time>
      </trkpt>
      <trkpt lat="45.74748" lon="6.81585">
        <ele>2569</ele>
        <time>2019-10-06T08:58:48Z</time>
      </trkpt>
      <trkpt lat="45.74748" lon="6.81582">
        <ele>2568</ele>
        <time>2019-10-06T08:58:49Z</time>
      </trkpt>
      <trkpt lat="45.74748" lon="6.8158">
        <ele>2568</ele>
        <time>2019-10-06T08:58:50Z</time>
      </trkpt>
      <trkpt lat="45.74748" lon="6.81577">
        <ele>2568</ele>
        <time>2019-10-06T08:58:51Z</time>
      </trkpt>
      <trkpt lat="45.74748" lon="6.81574">
        <ele>2568</ele>
        <time>2019-10-06T08:58:52Z</time>
      </trkpt>
      <trkpt lat="45.74748" lon="6.81571">
        <ele>2568</ele>
        <time>2019-10-06T08:58:53Z</time>
      </trkpt>
      <trkpt lat="45.74748" lon="6.81568">
        <ele>2568</ele>
        <time>2019-10-06T08:58:54Z</time>
      </trkpt>
      <trkpt lat="45.74748" lon="6.81565">
        <ele>2568</ele>
        <time>2019-10-06T08:58:55Z</time>
      </trkpt>
      <trkpt lat="45.74748" lon="6.81563">
        <ele>2568</ele>
        <time>2019-10-06T08:58:56Z</time>
      </trkpt>
      <trkpt lat="45.74748" lon="6.8156">
        <ele>2568</ele>
        <time>2019-10-06T08:58:57Z</time>
      </trkpt>
      <trkpt lat="45.74748" lon="6.81557">
        <ele>2568</ele>
        <time>2019-10-06T08:58:58Z</time>
      </trkpt>
      <trkpt lat="45.74749" lon="6.81554">
        <ele>2568</ele>
        <time>2019-10-06T08:58:59Z</time>
      </trkpt>
      <trkpt lat="45.7475" lon="6.81552">
        <ele>2567</ele>
        <time>2019-10-06T08:59:00Z</time>
      </trkpt>
      <trkpt lat="45.7475" lon="6.81549">
        <ele>2567</ele>
        <time>2019-10-06T08:59:01Z</time>
      </trkpt>
      <trkpt lat="45.7475" lon="6.81546">
        <ele>2567</ele>
        <time>2019-10-06T08:59:03Z</time>
      </trkpt>
      <trkpt lat="45.7475" lon="6.81542">
        <ele>2567</ele>
        <time>2019-10-06T08:59:05Z</time>
      </trkpt>
      <trkpt lat="45.7475" lon="6.81538">
        <ele>2569</ele>
        <time>2019-10-06T08:59:07Z</time>
      </trkpt>
      <trkpt lat="45.74751" lon="6.81535">
        <ele>2569</ele>
        <time>2019-10-06T08:59:09Z</time>
      </trkpt>
      <trkpt lat="45.74751" lon="6.81531">
        <ele>2569</ele>
        <time>2019-10-06T08:59:11Z</time>
      </trkpt>
      <trkpt lat="45.74751" lon="6.81527">
        <ele>2569</ele>
        <time>2019-10-06T08:59:13Z</time>
      </trkpt>
      <trkpt lat="45.74752" lon="6.81524">
        <ele>2571</ele>
        <time>2019-10-06T08:59:15Z</time>
      </trkpt>
      <trkpt lat="45.74752" lon="6.81519">
        <ele>2572</ele>
        <time>2019-10-06T08:59:17Z</time>
      </trkpt>
      <trkpt lat="45.74752" lon="6.81516">
        <ele>2572</ele>
        <time>2019-10-06T08:59:18Z</time>
      </trkpt>
      <trkpt lat="45.74751" lon="6.81513">
        <ele>2571</ele>
        <time>2019-10-06T08:59:19Z</time>
      </trkpt>
      <trkpt lat="45.74751" lon="6.8151">
        <ele>2571</ele>
        <time>2019-10-06T08:59:20Z</time>
      </trkpt>
      <trkpt lat="45.74752" lon="6.81507">
        <ele>2571</ele>
        <time>2019-10-06T08:59:21Z</time>
      </trkpt>
      <trkpt lat="45.74752" lon="6.81504">
        <ele>2571</ele>
        <time>2019-10-06T08:59:22Z</time>
      </trkpt>
      <trkpt lat="45.74752" lon="6.81501">
        <ele>2572</ele>
        <time>2019-10-06T08:59:23Z</time>
      </trkpt>
      <trkpt lat="45.74752" lon="6.81498">
        <ele>2572</ele>
        <time>2019-10-06T08:59:24Z</time>
      </trkpt>
      <trkpt lat="45.74752" lon="6.81493">
        <ele>2572</ele>
        <time>2019-10-06T08:59:26Z</time>
      </trkpt>
      <trkpt lat="45.74751" lon="6.8149">
        <ele>2572</ele>
        <time>2019-10-06T08:59:27Z</time>
      </trkpt>
      <trkpt lat="45.74751" lon="6.81487">
        <ele>2573</ele>
        <time>2019-10-06T08:59:28Z</time>
      </trkpt>
      <trkpt lat="45.74751" lon="6.81484">
        <ele>2573</ele>
        <time>2019-10-06T08:59:29Z</time>
      </trkpt>
      <trkpt lat="45.74752" lon="6.81481">
        <ele>2573</ele>
        <time>2019-10-06T08:59:30Z</time>
      </trkpt>
      <trkpt lat="45.74752" lon="6.81479">
        <ele>2573</ele>
        <time>2019-10-06T08:59:31Z</time>
      </trkpt>
      <trkpt lat="45.74753" lon="6.81476">
        <ele>2573</ele>
        <time>2019-10-06T08:59:32Z</time>
      </trkpt>
      <trkpt lat="45.74753" lon="6.81473">
        <ele>2573</ele>
        <time>2019-10-06T08:59:33Z</time>
      </trkpt>
      <trkpt lat="45.74753" lon="6.8147">
        <ele>2573</ele>
        <time>2019-10-06T08:59:34Z</time>
      </trkpt>
      <trkpt lat="45.74753" lon="6.81467">
        <ele>2573</ele>
        <time>2019-10-06T08:59:35Z</time>
      </trkpt>
      <trkpt lat="45.74753" lon="6.81464">
        <ele>2574</ele>
        <time>2019-10-06T08:59:36Z</time>
      </trkpt>
      <trkpt lat="45.74753" lon="6.81462">
        <ele>2574</ele>
        <time>2019-10-06T08:59:37Z</time>
      </trkpt>
      <trkpt lat="45.74753" lon="6.81459">
        <ele>2573</ele>
        <time>2019-10-06T08:59:38Z</time>
      </trkpt>
      <trkpt lat="45.74753" lon="6.81456">
        <ele>2572</ele>
        <time>2019-10-06T08:59:39Z</time>
      </trkpt>
      <trkpt lat="45.74754" lon="6.81454">
        <ele>2572</ele>
        <time>2019-10-06T08:59:40Z</time>
      </trkpt>
      <trkpt lat="45.74754" lon="6.81451">
        <ele>2571</ele>
        <time>2019-10-06T08:59:41Z</time>
      </trkpt>
      <trkpt lat="45.74754" lon="6.81448">
        <ele>2571</ele>
        <time>2019-10-06T08:59:42Z</time>
      </trkpt>
      <trkpt lat="45.74754" lon="6.81445">
        <ele>2572</ele>
        <time>2019-10-06T08:59:43Z</time>
      </trkpt>
      <trkpt lat="45.74755" lon="6.8144">
        <ele>2572</ele>
        <time>2019-10-06T08:59:45Z</time>
      </trkpt>
      <trkpt lat="45.74754" lon="6.81437">
        <ele>2572</ele>
        <time>2019-10-06T08:59:46Z</time>
      </trkpt>
      <trkpt lat="45.74754" lon="6.81433">
        <ele>2572</ele>
        <time>2019-10-06T08:59:48Z</time>
      </trkpt>
      <trkpt lat="45.74754" lon="6.8143">
        <ele>2572</ele>
        <time>2019-10-06T08:59:49Z</time>
      </trkpt>
      <trkpt lat="45.74754" lon="6.81427">
        <ele>2572</ele>
        <time>2019-10-06T08:59:50Z</time>
      </trkpt>
      <trkpt lat="45.74754" lon="6.81424">
        <ele>2572</ele>
        <time>2019-10-06T08:59:51Z</time>
      </trkpt>
      <trkpt lat="45.74754" lon="6.81421">
        <ele>2572</ele>
        <time>2019-10-06T08:59:52Z</time>
      </trkpt>
      <trkpt lat="45.74755" lon="6.81419">
        <ele>2572</ele>
        <time>2019-10-06T08:59:53Z</time>
      </trkpt>
      <trkpt lat="45.74755" lon="6.81416">
        <ele>2572</ele>
        <time>2019-10-06T08:59:54Z</time>
      </trkpt>
      <trkpt lat="45.74755" lon="6.81413">
        <ele>2572</ele>
        <time>2019-10-06T08:59:55Z</time>
      </trkpt>
      <trkpt lat="45.74755" lon="6.8141">
        <ele>2572</ele>
        <time>2019-10-06T08:59:56Z</time>
      </trkpt>
      <trkpt lat="45.74755" lon="6.81407">
        <ele>2572</ele>
        <time>2019-10-06T08:59:57Z</time>
      </trkpt>
      <trkpt lat="45.74754" lon="6.81401">
        <ele>2572</ele>
        <time>2019-10-06T08:59:59Z</time>
      </trkpt>
      <trkpt lat="45.74754" lon="6.81398">
        <ele>2572</ele>
        <time>2019-10-06T09:00:00Z</time>
      </trkpt>
      <trkpt lat="45.74754" lon="6.81396">
        <ele>2572</ele>
        <time>2019-10-06T09:00:01Z</time>
      </trkpt>
      <trkpt lat="45.74755" lon="6.81393">
        <ele>2572</ele>
        <time>2019-10-06T09:00:02Z</time>
      </trkpt>
      <trkpt lat="45.74755" lon="6.8139">
        <ele>2573</ele>
        <time>2019-10-06T09:00:03Z</time>
      </trkpt>
      <trkpt lat="45.74755" lon="6.81387">
        <ele>2573</ele>
        <time>2019-10-06T09:00:04Z</time>
      </trkpt>
      <trkpt lat="45.74755" lon="6.81384">
        <ele>2573</ele>
        <time>2019-10-06T09:00:05Z</time>
      </trkpt>
      <trkpt lat="45.74755" lon="6.81381">
        <ele>2573</ele>
        <time>2019-10-06T09:00:06Z</time>
      </trkpt>
      <trkpt lat="45.74756" lon="6.81378">
        <ele>2573</ele>
        <time>2019-10-06T09:00:07Z</time>
      </trkpt>
      <trkpt lat="45.74756" lon="6.81375">
        <ele>2573</ele>
        <time>2019-10-06T09:00:08Z</time>
      </trkpt>
      <trkpt lat="45.74756" lon="6.81373">
        <ele>2573</ele>
        <time>2019-10-06T09:00:09Z</time>
      </trkpt>
      <trkpt lat="45.74756" lon="6.8137">
        <ele>2573</ele>
        <time>2019-10-06T09:00:10Z</time>
      </trkpt>
      <trkpt lat="45.74756" lon="6.81367">
        <ele>2573</ele>
        <time>2019-10-06T09:00:11Z</time>
      </trkpt>
      <trkpt lat="45.74756" lon="6.81362">
        <ele>2574</ele>
        <time>2019-10-06T09:00:13Z</time>
      </trkpt>
      <trkpt lat="45.74756" lon="6.81359">
        <ele>2574</ele>
        <time>2019-10-06T09:00:14Z</time>
      </trkpt>
      <trkpt lat="45.74756" lon="6.81357">
        <ele>2574</ele>
        <time>2019-10-06T09:00:15Z</time>
      </trkpt>
      <trkpt lat="45.74756" lon="6.81354">
        <ele>2574</ele>
        <time>2019-10-06T09:00:16Z</time>
      </trkpt>
      <trkpt lat="45.74756" lon="6.81351">
        <ele>2574</ele>
        <time>2019-10-06T09:00:17Z</time>
      </trkpt>
      <trkpt lat="45.74757" lon="6.81348">
        <ele>2574</ele>
        <time>2019-10-06T09:00:19Z</time>
      </trkpt>
      <trkpt lat="45.74758" lon="6.81345">
        <ele>2574</ele>
        <time>2019-10-06T09:00:21Z</time>
      </trkpt>
      <trkpt lat="45.74759" lon="6.81343">
        <ele>2576</ele>
        <time>2019-10-06T09:00:23Z</time>
      </trkpt>
      <trkpt lat="45.74761" lon="6.8134">
        <ele>2576</ele>
        <time>2019-10-06T09:00:25Z</time>
      </trkpt>
      <trkpt lat="45.74762" lon="6.81337">
        <ele>2575</ele>
        <time>2019-10-06T09:00:27Z</time>
      </trkpt>
      <trkpt lat="45.74763" lon="6.81333">
        <ele>2575</ele>
        <time>2019-10-06T09:00:29Z</time>
      </trkpt>
      <trkpt lat="45.74763" lon="6.81331">
        <ele>2575</ele>
        <time>2019-10-06T09:00:30Z</time>
      </trkpt>
      <trkpt lat="45.74763" lon="6.81328">
        <ele>2575</ele>
        <time>2019-10-06T09:00:31Z</time>
      </trkpt>
      <trkpt lat="45.74763" lon="6.81325">
        <ele>2575</ele>
        <time>2019-10-06T09:00:32Z</time>
      </trkpt>
      <trkpt lat="45.74763" lon="6.81323">
        <ele>2576</ele>
        <time>2019-10-06T09:00:33Z</time>
      </trkpt>
      <trkpt lat="45.74763" lon="6.8132">
        <ele>2576</ele>
        <time>2019-10-06T09:00:34Z</time>
      </trkpt>
      <trkpt lat="45.74763" lon="6.81317">
        <ele>2576</ele>
        <time>2019-10-06T09:00:35Z</time>
      </trkpt>
      <trkpt lat="45.74763" lon="6.81315">
        <ele>2576</ele>
        <time>2019-10-06T09:00:36Z</time>
      </trkpt>
      <trkpt lat="45.74763" lon="6.81311">
        <ele>2576</ele>
        <time>2019-10-06T09:00:38Z</time>
      </trkpt>
      <trkpt lat="45.74763" lon="6.81307">
        <ele>2576</ele>
        <time>2019-10-06T09:00:40Z</time>
      </trkpt>
      <trkpt lat="45.74764" lon="6.81303">
        <ele>2576</ele>
        <time>2019-10-06T09:00:42Z</time>
      </trkpt>
      <trkpt lat="45.74764" lon="6.813">
        <ele>2576</ele>
        <time>2019-10-06T09:00:44Z</time>
      </trkpt>
      <trkpt lat="45.74765" lon="6.81295">
        <ele>2576</ele>
        <time>2019-10-06T09:00:46Z</time>
      </trkpt>
      <trkpt lat="45.74766" lon="6.81293">
        <ele>2576</ele>
        <time>2019-10-06T09:00:47Z</time>
      </trkpt>
      <trkpt lat="45.74768" lon="6.8129">
        <ele>2577</ele>
        <time>2019-10-06T09:00:50Z</time>
      </trkpt>
      <trkpt lat="45.7477" lon="6.81288">
        <ele>2577</ele>
        <time>2019-10-06T09:00:52Z</time>
      </trkpt>
      <trkpt lat="45.74772" lon="6.81285">
        <ele>2578</ele>
        <time>2019-10-06T09:00:54Z</time>
      </trkpt>
      <trkpt lat="45.74772" lon="6.81285">
        <ele>2578</ele>
        <time>2019-10-06T09:00:56Z</time>
      </trkpt>
      <trkpt lat="45.74774" lon="6.81282">
        <ele>2578</ele>
        <time>2019-10-06T09:00:57Z</time>
      </trkpt>
      <trkpt lat="45.74775" lon="6.81279">
        <ele>2578</ele>
        <time>2019-10-06T09:00:59Z</time>
      </trkpt>
      <trkpt lat="45.74775" lon="6.81277">
        <ele>2578</ele>
        <time>2019-10-06T09:01:01Z</time>
      </trkpt>
      <trkpt lat="45.74775" lon="6.81274">
        <ele>2578</ele>
        <time>2019-10-06T09:01:03Z</time>
      </trkpt>
      <trkpt lat="45.74774" lon="6.8127">
        <ele>2579</ele>
        <time>2019-10-06T09:01:06Z</time>
      </trkpt>
      <trkpt lat="45.74774" lon="6.8127">
        <ele>2579</ele>
        <time>2019-10-06T09:01:07Z</time>
      </trkpt>
      <trkpt lat="45.74774" lon="6.81267">
        <ele>2579</ele>
        <time>2019-10-06T09:01:09Z</time>
      </trkpt>
      <trkpt lat="45.74774" lon="6.81263">
        <ele>2579</ele>
        <time>2019-10-06T09:01:11Z</time>
      </trkpt>
      <trkpt lat="45.74775" lon="6.8126">
        <ele>2580</ele>
        <time>2019-10-06T09:01:13Z</time>
      </trkpt>
      <trkpt lat="45.74775" lon="6.81257">
        <ele>2580</ele>
        <time>2019-10-06T09:01:15Z</time>
      </trkpt>
      <trkpt lat="45.74775" lon="6.81254">
        <ele>2581</ele>
        <time>2019-10-06T09:01:17Z</time>
      </trkpt>
      <trkpt lat="45.74775" lon="6.8125">
        <ele>2583</ele>
        <time>2019-10-06T09:01:19Z</time>
      </trkpt>
      <trkpt lat="45.74775" lon="6.81247">
        <ele>2583</ele>
        <time>2019-10-06T09:01:21Z</time>
      </trkpt>
      <trkpt lat="45.74776" lon="6.81244">
        <ele>2583</ele>
        <time>2019-10-06T09:01:23Z</time>
      </trkpt>
      <trkpt lat="45.74776" lon="6.81241">
        <ele>2583</ele>
        <time>2019-10-06T09:01:25Z</time>
      </trkpt>
      <trkpt lat="45.74776" lon="6.81238">
        <ele>2583</ele>
        <time>2019-10-06T09:01:27Z</time>
      </trkpt>
      <trkpt lat="45.74776" lon="6.81234">
        <ele>2583</ele>
        <time>2019-10-06T09:01:29Z</time>
      </trkpt>
      <trkpt lat="45.74775" lon="6.81231">
        <ele>2584</ele>
        <time>2019-10-06T09:01:31Z</time>
      </trkpt>
      <trkpt lat="45.74774" lon="6.81228">
        <ele>2584</ele>
        <time>2019-10-06T09:01:33Z</time>
      </trkpt>
      <trkpt lat="45.74775" lon="6.81224">
        <ele>2584</ele>
        <time>2019-10-06T09:01:35Z</time>
      </trkpt>
      <trkpt lat="45.74775" lon="6.81221">
        <ele>2584</ele>
        <time>2019-10-06T09:01:37Z</time>
      </trkpt>
      <trkpt lat="45.74775" lon="6.81218">
        <ele>2584</ele>
        <time>2019-10-06T09:01:39Z</time>
      </trkpt>
      <trkpt lat="45.74775" lon="6.81214">
        <ele>2584</ele>
        <time>2019-10-06T09:01:41Z</time>
      </trkpt>
      <trkpt lat="45.74775" lon="6.81211">
        <ele>2585</ele>
        <time>2019-10-06T09:01:43Z</time>
      </trkpt>
      <trkpt lat="45.74775" lon="6.81207">
        <ele>2585</ele>
        <time>2019-10-06T09:01:45Z</time>
      </trkpt>
      <trkpt lat="45.74775" lon="6.81204">
        <ele>2585</ele>
        <time>2019-10-06T09:01:47Z</time>
      </trkpt>
      <trkpt lat="45.74774" lon="6.81202">
        <ele>2586</ele>
        <time>2019-10-06T09:01:49Z</time>
      </trkpt>
      <trkpt lat="45.74774" lon="6.81199">
        <ele>2586</ele>
        <time>2019-10-06T09:01:51Z</time>
      </trkpt>
      <trkpt lat="45.74773" lon="6.81196">
        <ele>2587</ele>
        <time>2019-10-06T09:01:53Z</time>
      </trkpt>
      <trkpt lat="45.74772" lon="6.81193">
        <ele>2587</ele>
        <time>2019-10-06T09:01:55Z</time>
      </trkpt>
      <trkpt lat="45.74771" lon="6.81189">
        <ele>2588</ele>
        <time>2019-10-06T09:01:57Z</time>
      </trkpt>
      <trkpt lat="45.74771" lon="6.81186">
        <ele>2587</ele>
        <time>2019-10-06T09:01:59Z</time>
      </trkpt>
      <trkpt lat="45.7477" lon="6.81183">
        <ele>2587</ele>
        <time>2019-10-06T09:02:01Z</time>
      </trkpt>
      <trkpt lat="45.74769" lon="6.8118">
        <ele>2589</ele>
        <time>2019-10-06T09:02:03Z</time>
      </trkpt>
      <trkpt lat="45.74768" lon="6.81177">
        <ele>2590</ele>
        <time>2019-10-06T09:02:05Z</time>
      </trkpt>
      <trkpt lat="45.74768" lon="6.81174">
        <ele>2590</ele>
        <time>2019-10-06T09:02:07Z</time>
      </trkpt>
      <trkpt lat="45.74767" lon="6.81172">
        <ele>2590</ele>
        <time>2019-10-06T09:02:09Z</time>
      </trkpt>
      <trkpt lat="45.74766" lon="6.81169">
        <ele>2590</ele>
        <time>2019-10-06T09:02:11Z</time>
      </trkpt>
      <trkpt lat="45.74765" lon="6.81166">
        <ele>2590</ele>
        <time>2019-10-06T09:02:13Z</time>
      </trkpt>
      <trkpt lat="45.74764" lon="6.81164">
        <ele>2590</ele>
        <time>2019-10-06T09:02:15Z</time>
      </trkpt>
      <trkpt lat="45.74763" lon="6.81161">
        <ele>2590</ele>
        <time>2019-10-06T09:02:17Z</time>
      </trkpt>
      <trkpt lat="45.74762" lon="6.81159">
        <ele>2591</ele>
        <time>2019-10-06T09:02:19Z</time>
      </trkpt>
      <trkpt lat="45.74761" lon="6.81156">
        <ele>2591</ele>
        <time>2019-10-06T09:02:21Z</time>
      </trkpt>
      <trkpt lat="45.7476" lon="6.81153">
        <ele>2591</ele>
        <time>2019-10-06T09:02:23Z</time>
      </trkpt>
      <trkpt lat="45.7476" lon="6.8115">
        <ele>2592</ele>
        <time>2019-10-06T09:02:25Z</time>
      </trkpt>
      <trkpt lat="45.74759" lon="6.81147">
        <ele>2592</ele>
        <time>2019-10-06T09:02:27Z</time>
      </trkpt>
      <trkpt lat="45.74758" lon="6.81144">
        <ele>2595</ele>
        <time>2019-10-06T09:02:29Z</time>
      </trkpt>
      <trkpt lat="45.74757" lon="6.81142">
        <ele>2595</ele>
        <time>2019-10-06T09:02:31Z</time>
      </trkpt>
      <trkpt lat="45.74757" lon="6.81139">
        <ele>2595</ele>
        <time>2019-10-06T09:02:33Z</time>
      </trkpt>
      <trkpt lat="45.74757" lon="6.81136">
        <ele>2596</ele>
        <time>2019-10-06T09:02:35Z</time>
      </trkpt>
      <trkpt lat="45.74756" lon="6.81133">
        <ele>2596</ele>
        <time>2019-10-06T09:02:37Z</time>
      </trkpt>
      <trkpt lat="45.74756" lon="6.8113">
        <ele>2596</ele>
        <time>2019-10-06T09:02:39Z</time>
      </trkpt>
      <trkpt lat="45.74756" lon="6.8113">
        <ele>2596</ele>
        <time>2019-10-06T09:02:41Z</time>
      </trkpt>
      <trkpt lat="45.74755" lon="6.81127">
        <ele>2596</ele>
        <time>2019-10-06T09:02:42Z</time>
      </trkpt>
      <trkpt lat="45.74754" lon="6.81124">
        <ele>2597</ele>
        <time>2019-10-06T09:02:44Z</time>
      </trkpt>
      <trkpt lat="45.74753" lon="6.81121">
        <ele>2597</ele>
        <time>2019-10-06T09:02:46Z</time>
      </trkpt>
      <trkpt lat="45.74753" lon="6.81118">
        <ele>2598</ele>
        <time>2019-10-06T09:02:48Z</time>
      </trkpt>
      <trkpt lat="45.74751" lon="6.81115">
        <ele>2598</ele>
        <time>2019-10-06T09:02:50Z</time>
      </trkpt>
      <trkpt lat="45.7475" lon="6.81113">
        <ele>2598</ele>
        <time>2019-10-06T09:02:52Z</time>
      </trkpt>
      <trkpt lat="45.74749" lon="6.81109">
        <ele>2598</ele>
        <time>2019-10-06T09:02:54Z</time>
      </trkpt>
      <trkpt lat="45.74748" lon="6.81107">
        <ele>2598</ele>
        <time>2019-10-06T09:02:56Z</time>
      </trkpt>
      <trkpt lat="45.74746" lon="6.81104">
        <ele>2599</ele>
        <time>2019-10-06T09:02:58Z</time>
      </trkpt>
      <trkpt lat="45.74746" lon="6.81104">
        <ele>2599</ele>
        <time>2019-10-06T09:03:00Z</time>
      </trkpt>
      <trkpt lat="45.74745" lon="6.81101">
        <ele>2599</ele>
        <time>2019-10-06T09:03:01Z</time>
      </trkpt>
      <trkpt lat="45.74744" lon="6.81098">
        <ele>2598</ele>
        <time>2019-10-06T09:03:03Z</time>
      </trkpt>
      <trkpt lat="45.74743" lon="6.81095">
        <ele>2599</ele>
        <time>2019-10-06T09:03:05Z</time>
      </trkpt>
      <trkpt lat="45.74743" lon="6.81092">
        <ele>2600</ele>
        <time>2019-10-06T09:03:07Z</time>
      </trkpt>
      <trkpt lat="45.74743" lon="6.81088">
        <ele>2602</ele>
        <time>2019-10-06T09:03:09Z</time>
      </trkpt>
      <trkpt lat="45.74743" lon="6.81085">
        <ele>2602</ele>
        <time>2019-10-06T09:03:11Z</time>
      </trkpt>
      <trkpt lat="45.74744" lon="6.81082">
        <ele>2602</ele>
        <time>2019-10-06T09:03:13Z</time>
      </trkpt>
      <trkpt lat="45.74744" lon="6.81079">
        <ele>2602</ele>
        <time>2019-10-06T09:03:15Z</time>
      </trkpt>
      <trkpt lat="45.74743" lon="6.81076">
        <ele>2603</ele>
        <time>2019-10-06T09:03:17Z</time>
      </trkpt>
      <trkpt lat="45.74743" lon="6.81073">
        <ele>2603</ele>
        <time>2019-10-06T09:03:19Z</time>
      </trkpt>
      <trkpt lat="45.74743" lon="6.8107">
        <ele>2604</ele>
        <time>2019-10-06T09:03:21Z</time>
      </trkpt>
      <trkpt lat="45.74742" lon="6.81067">
        <ele>2605</ele>
        <time>2019-10-06T09:03:23Z</time>
      </trkpt>
      <trkpt lat="45.74742" lon="6.81063">
        <ele>2605</ele>
        <time>2019-10-06T09:03:25Z</time>
      </trkpt>
      <trkpt lat="45.74741" lon="6.8106">
        <ele>2605</ele>
        <time>2019-10-06T09:03:27Z</time>
      </trkpt>
      <trkpt lat="45.74742" lon="6.81058">
        <ele>2605</ele>
        <time>2019-10-06T09:03:29Z</time>
      </trkpt>
      <trkpt lat="45.74743" lon="6.81054">
        <ele>2607</ele>
        <time>2019-10-06T09:03:31Z</time>
      </trkpt>
      <trkpt lat="45.74745" lon="6.81051">
        <ele>2607</ele>
        <time>2019-10-06T09:03:33Z</time>
      </trkpt>
      <trkpt lat="45.74746" lon="6.81048">
        <ele>2607</ele>
        <time>2019-10-06T09:03:34Z</time>
      </trkpt>
      <trkpt lat="45.74748" lon="6.81046">
        <ele>2607</ele>
        <time>2019-10-06T09:03:35Z</time>
      </trkpt>
      <trkpt lat="45.74749" lon="6.81044">
        <ele>2607</ele>
        <time>2019-10-06T09:03:36Z</time>
      </trkpt>
      <trkpt lat="45.74751" lon="6.81042">
        <ele>2607</ele>
        <time>2019-10-06T09:03:37Z</time>
      </trkpt>
      <trkpt lat="45.74753" lon="6.81039">
        <ele>2607</ele>
        <time>2019-10-06T09:03:38Z</time>
      </trkpt>
      <trkpt lat="45.74754" lon="6.81037">
        <ele>2607</ele>
        <time>2019-10-06T09:03:39Z</time>
      </trkpt>
      <trkpt lat="45.74756" lon="6.81035">
        <ele>2607</ele>
        <time>2019-10-06T09:03:40Z</time>
      </trkpt>
      <trkpt lat="45.74757" lon="6.81033">
        <ele>2607</ele>
        <time>2019-10-06T09:03:41Z</time>
      </trkpt>
      <trkpt lat="45.74759" lon="6.8103">
        <ele>2607</ele>
        <time>2019-10-06T09:03:42Z</time>
      </trkpt>
      <trkpt lat="45.7476" lon="6.81027">
        <ele>2607</ele>
        <time>2019-10-06T09:03:43Z</time>
      </trkpt>
      <trkpt lat="45.74761" lon="6.81024">
        <ele>2607</ele>
        <time>2019-10-06T09:03:44Z</time>
      </trkpt>
      <trkpt lat="45.74762" lon="6.81022">
        <ele>2607</ele>
        <time>2019-10-06T09:03:45Z</time>
      </trkpt>
      <trkpt lat="45.74763" lon="6.81019">
        <ele>2607</ele>
        <time>2019-10-06T09:03:46Z</time>
      </trkpt>
      <trkpt lat="45.74764" lon="6.81016">
        <ele>2607</ele>
        <time>2019-10-06T09:03:47Z</time>
      </trkpt>
      <trkpt lat="45.74765" lon="6.81013">
        <ele>2607</ele>
        <time>2019-10-06T09:03:48Z</time>
      </trkpt>
      <trkpt lat="45.74765" lon="6.8101">
        <ele>2607</ele>
        <time>2019-10-06T09:03:49Z</time>
      </trkpt>
      <trkpt lat="45.74766" lon="6.81008">
        <ele>2607</ele>
        <time>2019-10-06T09:03:50Z</time>
      </trkpt>
      <trkpt lat="45.74766" lon="6.81005">
        <ele>2607</ele>
        <time>2019-10-06T09:03:51Z</time>
      </trkpt>
      <trkpt lat="45.74766" lon="6.81002">
        <ele>2607</ele>
        <time>2019-10-06T09:03:52Z</time>
      </trkpt>
      <trkpt lat="45.74766" lon="6.80999">
        <ele>2605</ele>
        <time>2019-10-06T09:03:53Z</time>
      </trkpt>
      <trkpt lat="45.74767" lon="6.80996">
        <ele>2605</ele>
        <time>2019-10-06T09:03:54Z</time>
      </trkpt>
      <trkpt lat="45.74767" lon="6.80993">
        <ele>2604</ele>
        <time>2019-10-06T09:03:55Z</time>
      </trkpt>
      <trkpt lat="45.74767" lon="6.8099">
        <ele>2604</ele>
        <time>2019-10-06T09:03:56Z</time>
      </trkpt>
      <trkpt lat="45.74767" lon="6.80987">
        <ele>2604</ele>
        <time>2019-10-06T09:03:57Z</time>
      </trkpt>
      <trkpt lat="45.74767" lon="6.80983">
        <ele>2604</ele>
        <time>2019-10-06T09:03:58Z</time>
      </trkpt>
      <trkpt lat="45.74767" lon="6.80981">
        <ele>2604</ele>
        <time>2019-10-06T09:03:59Z</time>
      </trkpt>
      <trkpt lat="45.74767" lon="6.80978">
        <ele>2604</ele>
        <time>2019-10-06T09:04:00Z</time>
      </trkpt>
      <trkpt lat="45.74767" lon="6.80974">
        <ele>2605</ele>
        <time>2019-10-06T09:04:01Z</time>
      </trkpt>
      <trkpt lat="45.74767" lon="6.80971">
        <ele>2605</ele>
        <time>2019-10-06T09:04:02Z</time>
      </trkpt>
      <trkpt lat="45.74768" lon="6.80968">
        <ele>2605</ele>
        <time>2019-10-06T09:04:03Z</time>
      </trkpt>
      <trkpt lat="45.74769" lon="6.80966">
        <ele>2604</ele>
        <time>2019-10-06T09:04:04Z</time>
      </trkpt>
      <trkpt lat="45.74771" lon="6.80963">
        <ele>2604</ele>
        <time>2019-10-06T09:04:05Z</time>
      </trkpt>
      <trkpt lat="45.74772" lon="6.80961">
        <ele>2604</ele>
        <time>2019-10-06T09:04:06Z</time>
      </trkpt>
      <trkpt lat="45.74773" lon="6.80958">
        <ele>2604</ele>
        <time>2019-10-06T09:04:07Z</time>
      </trkpt>
      <trkpt lat="45.74774" lon="6.80956">
        <ele>2603</ele>
        <time>2019-10-06T09:04:08Z</time>
      </trkpt>
      <trkpt lat="45.74776" lon="6.80953">
        <ele>2604</ele>
        <time>2019-10-06T09:04:09Z</time>
      </trkpt>
      <trkpt lat="45.74777" lon="6.8095">
        <ele>2604</ele>
        <time>2019-10-06T09:04:10Z</time>
      </trkpt>
      <trkpt lat="45.74778" lon="6.80948">
        <ele>2604</ele>
        <time>2019-10-06T09:04:11Z</time>
      </trkpt>
      <trkpt lat="45.74779" lon="6.80945">
        <ele>2604</ele>
        <time>2019-10-06T09:04:12Z</time>
      </trkpt>
      <trkpt lat="45.7478" lon="6.80943">
        <ele>2604</ele>
        <time>2019-10-06T09:04:13Z</time>
      </trkpt>
      <trkpt lat="45.74783" lon="6.8094">
        <ele>2604</ele>
        <time>2019-10-06T09:04:15Z</time>
      </trkpt>
      <trkpt lat="45.74784" lon="6.80938">
        <ele>2604</ele>
        <time>2019-10-06T09:04:16Z</time>
      </trkpt>
      <trkpt lat="45.74787" lon="6.80933">
        <ele>2605</ele>
        <time>2019-10-06T09:04:18Z</time>
      </trkpt>
      <trkpt lat="45.74788" lon="6.80932">
        <ele>2605</ele>
        <time>2019-10-06T09:04:19Z</time>
      </trkpt>
      <trkpt lat="45.74789" lon="6.8093">
        <ele>2605</ele>
        <time>2019-10-06T09:04:20Z</time>
      </trkpt>
      <trkpt lat="45.74791" lon="6.80926">
        <ele>2607</ele>
        <time>2019-10-06T09:04:22Z</time>
      </trkpt>
      <trkpt lat="45.74791" lon="6.80923">
        <ele>2607</ele>
        <time>2019-10-06T09:04:23Z</time>
      </trkpt>
      <trkpt lat="45.74792" lon="6.8092">
        <ele>2605</ele>
        <time>2019-10-06T09:04:24Z</time>
      </trkpt>
      <trkpt lat="45.74792" lon="6.80917">
        <ele>2605</ele>
        <time>2019-10-06T09:04:25Z</time>
      </trkpt>
      <trkpt lat="45.74793" lon="6.80912">
        <ele>2605</ele>
        <time>2019-10-06T09:04:26Z</time>
      </trkpt>
      <trkpt lat="45.74794" lon="6.80908">
        <ele>2605</ele>
        <time>2019-10-06T09:04:27Z</time>
      </trkpt>
      <trkpt lat="45.74795" lon="6.80905">
        <ele>2605</ele>
        <time>2019-10-06T09:04:28Z</time>
      </trkpt>
      <trkpt lat="45.74796" lon="6.80902">
        <ele>2605</ele>
        <time>2019-10-06T09:04:29Z</time>
      </trkpt>
      <trkpt lat="45.74797" lon="6.809">
        <ele>2605</ele>
        <time>2019-10-06T09:04:30Z</time>
      </trkpt>
      <trkpt lat="45.74798" lon="6.80897">
        <ele>2604</ele>
        <time>2019-10-06T09:04:31Z</time>
      </trkpt>
      <trkpt lat="45.748" lon="6.80895">
        <ele>2604</ele>
        <time>2019-10-06T09:04:32Z</time>
      </trkpt>
      <trkpt lat="45.74801" lon="6.80892">
        <ele>2604</ele>
        <time>2019-10-06T09:04:33Z</time>
      </trkpt>
      <trkpt lat="45.74801" lon="6.80889">
        <ele>2605</ele>
        <time>2019-10-06T09:04:34Z</time>
      </trkpt>
      <trkpt lat="45.74802" lon="6.80887">
        <ele>2605</ele>
        <time>2019-10-06T09:04:35Z</time>
      </trkpt>
      <trkpt lat="45.74802" lon="6.80884">
        <ele>2605</ele>
        <time>2019-10-06T09:04:36Z</time>
      </trkpt>
      <trkpt lat="45.74803" lon="6.80881">
        <ele>2605</ele>
        <time>2019-10-06T09:04:37Z</time>
      </trkpt>
      <trkpt lat="45.74803" lon="6.80879">
        <ele>2605</ele>
        <time>2019-10-06T09:04:38Z</time>
      </trkpt>
      <trkpt lat="45.74804" lon="6.80876">
        <ele>2605</ele>
        <time>2019-10-06T09:04:39Z</time>
      </trkpt>
      <trkpt lat="45.74805" lon="6.80874">
        <ele>2605</ele>
        <time>2019-10-06T09:04:40Z</time>
      </trkpt>
      <trkpt lat="45.74807" lon="6.8087">
        <ele>2605</ele>
        <time>2019-10-06T09:04:42Z</time>
      </trkpt>
      <trkpt lat="45.74809" lon="6.80867">
        <ele>2605</ele>
        <time>2019-10-06T09:04:43Z</time>
      </trkpt>
      <trkpt lat="45.7481" lon="6.80865">
        <ele>2605</ele>
        <time>2019-10-06T09:04:44Z</time>
      </trkpt>
      <trkpt lat="45.74811" lon="6.80863">
        <ele>2605</ele>
        <time>2019-10-06T09:04:45Z</time>
      </trkpt>
      <trkpt lat="45.74813" lon="6.80861">
        <ele>2605</ele>
        <time>2019-10-06T09:04:46Z</time>
      </trkpt>
      <trkpt lat="45.74814" lon="6.80859">
        <ele>2605</ele>
        <time>2019-10-06T09:04:47Z</time>
      </trkpt>
      <trkpt lat="45.74816" lon="6.80857">
        <ele>2605</ele>
        <time>2019-10-06T09:04:48Z</time>
      </trkpt>
      <trkpt lat="45.74817" lon="6.80854">
        <ele>2605</ele>
        <time>2019-10-06T09:04:49Z</time>
      </trkpt>
      <trkpt lat="45.74818" lon="6.80852">
        <ele>2605</ele>
        <time>2019-10-06T09:04:50Z</time>
      </trkpt>
      <trkpt lat="45.74818" lon="6.80849">
        <ele>2605</ele>
        <time>2019-10-06T09:04:51Z</time>
      </trkpt>
      <trkpt lat="45.74819" lon="6.80846">
        <ele>2605</ele>
        <time>2019-10-06T09:04:52Z</time>
      </trkpt>
      <trkpt lat="45.7482" lon="6.80844">
        <ele>2605</ele>
        <time>2019-10-06T09:04:53Z</time>
      </trkpt>
      <trkpt lat="45.74822" lon="6.80842">
        <ele>2605</ele>
        <time>2019-10-06T09:04:54Z</time>
      </trkpt>
      <trkpt lat="45.74824" lon="6.80838">
        <ele>2605</ele>
        <time>2019-10-06T09:04:56Z</time>
      </trkpt>
      <trkpt lat="45.74826" lon="6.80836">
        <ele>2605</ele>
        <time>2019-10-06T09:04:57Z</time>
      </trkpt>
      <trkpt lat="45.74828" lon="6.80836">
        <ele>2605</ele>
        <time>2019-10-06T09:04:58Z</time>
      </trkpt>
      <trkpt lat="45.7483" lon="6.80836">
        <ele>2605</ele>
        <time>2019-10-06T09:04:59Z</time>
      </trkpt>
      <trkpt lat="45.74832" lon="6.80836">
        <ele>2605</ele>
        <time>2019-10-06T09:05:00Z</time>
      </trkpt>
      <trkpt lat="45.74834" lon="6.80837">
        <ele>2605</ele>
        <time>2019-10-06T09:05:01Z</time>
      </trkpt>
      <trkpt lat="45.74835" lon="6.80837">
        <ele>2605</ele>
        <time>2019-10-06T09:05:02Z</time>
      </trkpt>
      <trkpt lat="45.74837" lon="6.80837">
        <ele>2605</ele>
        <time>2019-10-06T09:05:03Z</time>
      </trkpt>
      <trkpt lat="45.74839" lon="6.80837">
        <ele>2605</ele>
        <time>2019-10-06T09:05:04Z</time>
      </trkpt>
      <trkpt lat="45.74842" lon="6.80836">
        <ele>2605</ele>
        <time>2019-10-06T09:05:06Z</time>
      </trkpt>
      <trkpt lat="45.74844" lon="6.80835">
        <ele>2605</ele>
        <time>2019-10-06T09:05:07Z</time>
      </trkpt>
      <trkpt lat="45.74846" lon="6.80833">
        <ele>2605</ele>
        <time>2019-10-06T09:05:08Z</time>
      </trkpt>
      <trkpt lat="45.74847" lon="6.80831">
        <ele>2604</ele>
        <time>2019-10-06T09:05:09Z</time>
      </trkpt>
      <trkpt lat="45.7485" lon="6.8083">
        <ele>2604</ele>
        <time>2019-10-06T09:05:10Z</time>
      </trkpt>
      <trkpt lat="45.74852" lon="6.80829">
        <ele>2604</ele>
        <time>2019-10-06T09:05:11Z</time>
      </trkpt>
      <trkpt lat="45.74854" lon="6.80827">
        <ele>2604</ele>
        <time>2019-10-06T09:05:12Z</time>
      </trkpt>
      <trkpt lat="45.74856" lon="6.80826">
        <ele>2604</ele>
        <time>2019-10-06T09:05:13Z</time>
      </trkpt>
      <trkpt lat="45.74858" lon="6.80826">
        <ele>2604</ele>
        <time>2019-10-06T09:05:14Z</time>
      </trkpt>
      <trkpt lat="45.7486" lon="6.80825">
        <ele>2604</ele>
        <time>2019-10-06T09:05:15Z</time>
      </trkpt>
      <trkpt lat="45.74862" lon="6.80824">
        <ele>2605</ele>
        <time>2019-10-06T09:05:16Z</time>
      </trkpt>
      <trkpt lat="45.74864" lon="6.80824">
        <ele>2605</ele>
        <time>2019-10-06T09:05:17Z</time>
      </trkpt>
      <trkpt lat="45.74866" lon="6.80823">
        <ele>2605</ele>
        <time>2019-10-06T09:05:18Z</time>
      </trkpt>
      <trkpt lat="45.74868" lon="6.80822">
        <ele>2607</ele>
        <time>2019-10-06T09:05:19Z</time>
      </trkpt>
      <trkpt lat="45.7487" lon="6.80821">
        <ele>2608</ele>
        <time>2019-10-06T09:05:20Z</time>
      </trkpt>
      <trkpt lat="45.74872" lon="6.8082">
        <ele>2608</ele>
        <time>2019-10-06T09:05:21Z</time>
      </trkpt>
      <trkpt lat="45.74874" lon="6.80819">
        <ele>2608</ele>
        <time>2019-10-06T09:05:22Z</time>
      </trkpt>
      <trkpt lat="45.74876" lon="6.80818">
        <ele>2607</ele>
        <time>2019-10-06T09:05:23Z</time>
      </trkpt>
      <trkpt lat="45.74878" lon="6.80817">
        <ele>2608</ele>
        <time>2019-10-06T09:05:24Z</time>
      </trkpt>
      <trkpt lat="45.7488" lon="6.80816">
        <ele>2608</ele>
        <time>2019-10-06T09:05:25Z</time>
      </trkpt>
      <trkpt lat="45.74882" lon="6.80816">
        <ele>2607</ele>
        <time>2019-10-06T09:05:26Z</time>
      </trkpt>
      <trkpt lat="45.74884" lon="6.80815">
        <ele>2607</ele>
        <time>2019-10-06T09:05:27Z</time>
      </trkpt>
      <trkpt lat="45.74885" lon="6.80813">
        <ele>2607</ele>
        <time>2019-10-06T09:05:28Z</time>
      </trkpt>
      <trkpt lat="45.74887" lon="6.80812">
        <ele>2608</ele>
        <time>2019-10-06T09:05:29Z</time>
      </trkpt>
      <trkpt lat="45.74889" lon="6.8081">
        <ele>2608</ele>
        <time>2019-10-06T09:05:30Z</time>
      </trkpt>
      <trkpt lat="45.74891" lon="6.80809">
        <ele>2607</ele>
        <time>2019-10-06T09:05:31Z</time>
      </trkpt>
      <trkpt lat="45.74893" lon="6.80808">
        <ele>2607</ele>
        <time>2019-10-06T09:05:32Z</time>
      </trkpt>
      <trkpt lat="45.74895" lon="6.80808">
        <ele>2605</ele>
        <time>2019-10-06T09:05:33Z</time>
      </trkpt>
      <trkpt lat="45.74897" lon="6.80807">
        <ele>2605</ele>
        <time>2019-10-06T09:05:34Z</time>
      </trkpt>
      <trkpt lat="45.74899" lon="6.80807">
        <ele>2605</ele>
        <time>2019-10-06T09:05:35Z</time>
      </trkpt>
      <trkpt lat="45.74901" lon="6.80805">
        <ele>2604</ele>
        <time>2019-10-06T09:05:36Z</time>
      </trkpt>
      <trkpt lat="45.74903" lon="6.80804">
        <ele>2604</ele>
        <time>2019-10-06T09:05:37Z</time>
      </trkpt>
      <trkpt lat="45.74905" lon="6.80803">
        <ele>2604</ele>
        <time>2019-10-06T09:05:38Z</time>
      </trkpt>
      <trkpt lat="45.74906" lon="6.80802">
        <ele>2604</ele>
        <time>2019-10-06T09:05:39Z</time>
      </trkpt>
      <trkpt lat="45.74908" lon="6.80801">
        <ele>2604</ele>
        <time>2019-10-06T09:05:40Z</time>
      </trkpt>
      <trkpt lat="45.7491" lon="6.808">
        <ele>2603</ele>
        <time>2019-10-06T09:05:41Z</time>
      </trkpt>
      <trkpt lat="45.74913" lon="6.808">
        <ele>2602</ele>
        <time>2019-10-06T09:05:43Z</time>
      </trkpt>
      <trkpt lat="45.74916" lon="6.808">
        <ele>2601</ele>
        <time>2019-10-06T09:05:44Z</time>
      </trkpt>
      <trkpt lat="45.74918" lon="6.808">
        <ele>2601</ele>
        <time>2019-10-06T09:05:45Z</time>
      </trkpt>
      <trkpt lat="45.74921" lon="6.808">
        <ele>2600</ele>
        <time>2019-10-06T09:05:46Z</time>
      </trkpt>
      <trkpt lat="45.74922" lon="6.808">
        <ele>2601</ele>
        <time>2019-10-06T09:05:47Z</time>
      </trkpt>
      <trkpt lat="45.74925" lon="6.80799">
        <ele>2602</ele>
        <time>2019-10-06T09:05:49Z</time>
      </trkpt>
      <trkpt lat="45.74927" lon="6.808">
        <ele>2603</ele>
        <time>2019-10-06T09:05:51Z</time>
      </trkpt>
      <trkpt lat="45.7493" lon="6.80803">
        <ele>2603</ele>
        <time>2019-10-06T09:05:53Z</time>
      </trkpt>
      <trkpt lat="45.74931" lon="6.80805">
        <ele>2603</ele>
        <time>2019-10-06T09:05:54Z</time>
      </trkpt>
      <trkpt lat="45.74934" lon="6.80806">
        <ele>2603</ele>
        <time>2019-10-06T09:05:56Z</time>
      </trkpt>
      <trkpt lat="45.74936" lon="6.80806">
        <ele>2603</ele>
        <time>2019-10-06T09:05:57Z</time>
      </trkpt>
      <trkpt lat="45.74938" lon="6.80806">
        <ele>2603</ele>
        <time>2019-10-06T09:05:58Z</time>
      </trkpt>
      <trkpt lat="45.74941" lon="6.80807">
        <ele>2603</ele>
        <time>2019-10-06T09:06:00Z</time>
      </trkpt>
      <trkpt lat="45.74945" lon="6.80808">
        <ele>2604</ele>
        <time>2019-10-06T09:06:02Z</time>
      </trkpt>
      <trkpt lat="45.74948" lon="6.80808">
        <ele>2604</ele>
        <time>2019-10-06T09:06:04Z</time>
      </trkpt>
      <trkpt lat="45.7495" lon="6.80809">
        <ele>2605</ele>
        <time>2019-10-06T09:06:06Z</time>
      </trkpt>
      <trkpt lat="45.74952" lon="6.80809">
        <ele>2605</ele>
        <time>2019-10-06T09:06:08Z</time>
      </trkpt>
      <trkpt lat="45.74955" lon="6.80809">
        <ele>2605</ele>
        <time>2019-10-06T09:06:10Z</time>
      </trkpt>
      <trkpt lat="45.74959" lon="6.80808">
        <ele>2604</ele>
        <time>2019-10-06T09:06:12Z</time>
      </trkpt>
      <trkpt lat="45.74961" lon="6.80805">
        <ele>2604</ele>
        <time>2019-10-06T09:06:14Z</time>
      </trkpt>
      <trkpt lat="45.74963" lon="6.80804">
        <ele>2604</ele>
        <time>2019-10-06T09:06:15Z</time>
      </trkpt>
      <trkpt lat="45.74964" lon="6.80802">
        <ele>2603</ele>
        <time>2019-10-06T09:06:16Z</time>
      </trkpt>
      <trkpt lat="45.74967" lon="6.80798">
        <ele>2602</ele>
        <time>2019-10-06T09:06:17Z</time>
      </trkpt>
      <trkpt lat="45.74967" lon="6.80797">
        <ele>2602</ele>
        <time>2019-10-06T09:06:18Z</time>
      </trkpt>
      <trkpt lat="45.74969" lon="6.80797">
        <ele>2602</ele>
        <time>2019-10-06T09:06:19Z</time>
      </trkpt>
      <trkpt lat="45.74971" lon="6.80797">
        <ele>2602</ele>
        <time>2019-10-06T09:06:20Z</time>
      </trkpt>
      <trkpt lat="45.74974" lon="6.80797">
        <ele>2602</ele>
        <time>2019-10-06T09:06:21Z</time>
      </trkpt>
      <trkpt lat="45.74975" lon="6.80798">
        <ele>2602</ele>
        <time>2019-10-06T09:06:22Z</time>
      </trkpt>
      <trkpt lat="45.74977" lon="6.80799">
        <ele>2602</ele>
        <time>2019-10-06T09:06:23Z</time>
      </trkpt>
      <trkpt lat="45.74979" lon="6.808">
        <ele>2601</ele>
        <time>2019-10-06T09:06:24Z</time>
      </trkpt>
      <trkpt lat="45.74982" lon="6.80801">
        <ele>2601</ele>
        <time>2019-10-06T09:06:25Z</time>
      </trkpt>
      <trkpt lat="45.74984" lon="6.80802">
        <ele>2601</ele>
        <time>2019-10-06T09:06:26Z</time>
      </trkpt>
      <trkpt lat="45.74986" lon="6.80803">
        <ele>2601</ele>
        <time>2019-10-06T09:06:27Z</time>
      </trkpt>
      <trkpt lat="45.74988" lon="6.80804">
        <ele>2601</ele>
        <time>2019-10-06T09:06:28Z</time>
      </trkpt>
      <trkpt lat="45.74989" lon="6.80804">
        <ele>2602</ele>
        <time>2019-10-06T09:06:29Z</time>
      </trkpt>
      <trkpt lat="45.74991" lon="6.80805">
        <ele>2602</ele>
        <time>2019-10-06T09:06:30Z</time>
      </trkpt>
      <trkpt lat="45.74993" lon="6.80805">
        <ele>2602</ele>
        <time>2019-10-06T09:06:31Z</time>
      </trkpt>
      <trkpt lat="45.74995" lon="6.80805">
        <ele>2602</ele>
        <time>2019-10-06T09:06:32Z</time>
      </trkpt>
      <trkpt lat="45.74999" lon="6.80805">
        <ele>2601</ele>
        <time>2019-10-06T09:06:34Z</time>
      </trkpt>
      <trkpt lat="45.75002" lon="6.80804">
        <ele>2601</ele>
        <time>2019-10-06T09:06:35Z</time>
      </trkpt>
      <trkpt lat="45.75004" lon="6.80803">
        <ele>2600</ele>
        <time>2019-10-06T09:06:36Z</time>
      </trkpt>
      <trkpt lat="45.75006" lon="6.80801">
        <ele>2600</ele>
        <time>2019-10-06T09:06:37Z</time>
      </trkpt>
      <trkpt lat="45.75007" lon="6.80798">
        <ele>2600</ele>
        <time>2019-10-06T09:06:39Z</time>
      </trkpt>
      <trkpt lat="45.75008" lon="6.80795">
        <ele>2601</ele>
        <time>2019-10-06T09:06:41Z</time>
      </trkpt>
      <trkpt lat="45.75009" lon="6.80792">
        <ele>2601</ele>
        <time>2019-10-06T09:06:43Z</time>
      </trkpt>
      <trkpt lat="45.75011" lon="6.80788">
        <ele>2601</ele>
        <time>2019-10-06T09:06:45Z</time>
      </trkpt>
      <trkpt lat="45.75014" lon="6.80785">
        <ele>2601</ele>
        <time>2019-10-06T09:06:47Z</time>
      </trkpt>
      <trkpt lat="45.75015" lon="6.80783">
        <ele>2601</ele>
        <time>2019-10-06T09:06:49Z</time>
      </trkpt>
      <trkpt lat="45.75016" lon="6.8078">
        <ele>2602</ele>
        <time>2019-10-06T09:06:51Z</time>
      </trkpt>
      <trkpt lat="45.75017" lon="6.80776">
        <ele>2601</ele>
        <time>2019-10-06T09:06:54Z</time>
      </trkpt>
      <trkpt lat="45.75017" lon="6.80776">
        <ele>2602</ele>
        <time>2019-10-06T09:06:55Z</time>
      </trkpt>
      <trkpt lat="45.75016" lon="6.80774">
        <ele>2603</ele>
        <time>2019-10-06T09:06:56Z</time>
      </trkpt>
      <trkpt lat="45.75016" lon="6.80771">
        <ele>2603</ele>
        <time>2019-10-06T09:06:58Z</time>
      </trkpt>
      <trkpt lat="45.75016" lon="6.80769">
        <ele>2603</ele>
        <time>2019-10-06T09:07:00Z</time>
      </trkpt>
      <trkpt lat="45.75016" lon="6.80766">
        <ele>2603</ele>
        <time>2019-10-06T09:07:02Z</time>
      </trkpt>
      <trkpt lat="45.75015" lon="6.80763">
        <ele>2604</ele>
        <time>2019-10-06T09:07:04Z</time>
      </trkpt>
      <trkpt lat="45.75015" lon="6.80763">
        <ele>2605</ele>
        <time>2019-10-06T09:07:06Z</time>
      </trkpt>
      <trkpt lat="45.75014" lon="6.8076">
        <ele>2605</ele>
        <time>2019-10-06T09:07:07Z</time>
      </trkpt>
      <trkpt lat="45.75014" lon="6.80757">
        <ele>2605</ele>
        <time>2019-10-06T09:07:10Z</time>
      </trkpt>
      <trkpt lat="45.75014" lon="6.80754">
        <ele>2607</ele>
        <time>2019-10-06T09:07:12Z</time>
      </trkpt>
      <trkpt lat="45.75015" lon="6.80751">
        <ele>2608</ele>
        <time>2019-10-06T09:07:15Z</time>
      </trkpt>
      <trkpt lat="45.75015" lon="6.80751">
        <ele>2608</ele>
        <time>2019-10-06T09:07:16Z</time>
      </trkpt>
      <trkpt lat="45.75015" lon="6.80748">
        <ele>2610</ele>
        <time>2019-10-06T09:07:18Z</time>
      </trkpt>
      <trkpt lat="45.75016" lon="6.80744">
        <ele>2610</ele>
        <time>2019-10-06T09:07:21Z</time>
      </trkpt>
      <trkpt lat="45.75016" lon="6.80744">
        <ele>2610</ele>
        <time>2019-10-06T09:07:22Z</time>
      </trkpt>
      <trkpt lat="45.75016" lon="6.80742">
        <ele>2610</ele>
        <time>2019-10-06T09:07:23Z</time>
      </trkpt>
      <trkpt lat="45.75018" lon="6.80739">
        <ele>2610</ele>
        <time>2019-10-06T09:07:25Z</time>
      </trkpt>
      <trkpt lat="45.7502" lon="6.80737">
        <ele>2611</ele>
        <time>2019-10-06T09:07:27Z</time>
      </trkpt>
      <trkpt lat="45.75021" lon="6.80736">
        <ele>2611</ele>
        <time>2019-10-06T09:07:29Z</time>
      </trkpt>
      <trkpt lat="45.75023" lon="6.80734">
        <ele>2611</ele>
        <time>2019-10-06T09:07:31Z</time>
      </trkpt>
      <trkpt lat="45.75026" lon="6.80732">
        <ele>2610</ele>
        <time>2019-10-06T09:07:33Z</time>
      </trkpt>
      <trkpt lat="45.75029" lon="6.80729">
        <ele>2610</ele>
        <time>2019-10-06T09:07:35Z</time>
      </trkpt>
      <trkpt lat="45.75031" lon="6.80727">
        <ele>2610</ele>
        <time>2019-10-06T09:07:37Z</time>
      </trkpt>
      <trkpt lat="45.75034" lon="6.80726">
        <ele>2610</ele>
        <time>2019-10-06T09:07:39Z</time>
      </trkpt>
      <trkpt lat="45.75036" lon="6.80726">
        <ele>2610</ele>
        <time>2019-10-06T09:07:41Z</time>
      </trkpt>
      <trkpt lat="45.75038" lon="6.80727">
        <ele>2611</ele>
        <time>2019-10-06T09:07:43Z</time>
      </trkpt>
      <trkpt lat="45.7504" lon="6.80728">
        <ele>2611</ele>
        <time>2019-10-06T09:07:45Z</time>
      </trkpt>
      <trkpt lat="45.75042" lon="6.80729">
        <ele>2612</ele>
        <time>2019-10-06T09:07:47Z</time>
      </trkpt>
      <trkpt lat="45.75045" lon="6.80731">
        <ele>2612</ele>
        <time>2019-10-06T09:07:49Z</time>
      </trkpt>
      <trkpt lat="45.75046" lon="6.80733">
        <ele>2612</ele>
        <time>2019-10-06T09:07:51Z</time>
      </trkpt>
      <trkpt lat="45.75048" lon="6.80733">
        <ele>2612</ele>
        <time>2019-10-06T09:07:53Z</time>
      </trkpt>
      <trkpt lat="45.75051" lon="6.80733">
        <ele>2612</ele>
        <time>2019-10-06T09:07:56Z</time>
      </trkpt>
      <trkpt lat="45.75051" lon="6.80733">
        <ele>2612</ele>
        <time>2019-10-06T09:07:57Z</time>
      </trkpt>
      <trkpt lat="45.75053" lon="6.80732">
        <ele>2612</ele>
        <time>2019-10-06T09:07:58Z</time>
      </trkpt>
      <trkpt lat="45.75056" lon="6.80731">
        <ele>2611</ele>
        <time>2019-10-06T09:08:00Z</time>
      </trkpt>
      <trkpt lat="45.75059" lon="6.80731">
        <ele>2611</ele>
        <time>2019-10-06T09:08:02Z</time>
      </trkpt>
      <trkpt lat="45.75061" lon="6.80731">
        <ele>2611</ele>
        <time>2019-10-06T09:08:03Z</time>
      </trkpt>
      <trkpt lat="45.75063" lon="6.8073">
        <ele>2611</ele>
        <time>2019-10-06T09:08:04Z</time>
      </trkpt>
      <trkpt lat="45.75065" lon="6.80729">
        <ele>2611</ele>
        <time>2019-10-06T09:08:05Z</time>
      </trkpt>
      <trkpt lat="45.75067" lon="6.80728">
        <ele>2612</ele>
        <time>2019-10-06T09:08:06Z</time>
      </trkpt>
      <trkpt lat="45.75069" lon="6.80727">
        <ele>2612</ele>
        <time>2019-10-06T09:08:07Z</time>
      </trkpt>
      <trkpt lat="45.7507" lon="6.80726">
        <ele>2611</ele>
        <time>2019-10-06T09:08:08Z</time>
      </trkpt>
      <trkpt lat="45.75072" lon="6.80724">
        <ele>2611</ele>
        <time>2019-10-06T09:08:09Z</time>
      </trkpt>
      <trkpt lat="45.75075" lon="6.80724">
        <ele>2611</ele>
        <time>2019-10-06T09:08:10Z</time>
      </trkpt>
      <trkpt lat="45.75077" lon="6.80723">
        <ele>2610</ele>
        <time>2019-10-06T09:08:11Z</time>
      </trkpt>
      <trkpt lat="45.7508" lon="6.80722">
        <ele>2610</ele>
        <time>2019-10-06T09:08:12Z</time>
      </trkpt>
      <trkpt lat="45.75082" lon="6.80721">
        <ele>2610</ele>
        <time>2019-10-06T09:08:13Z</time>
      </trkpt>
      <trkpt lat="45.75084" lon="6.80719">
        <ele>2610</ele>
        <time>2019-10-06T09:08:14Z</time>
      </trkpt>
      <trkpt lat="45.75085" lon="6.80718">
        <ele>2609</ele>
        <time>2019-10-06T09:08:15Z</time>
      </trkpt>
      <trkpt lat="45.75088" lon="6.80716">
        <ele>2609</ele>
        <time>2019-10-06T09:08:16Z</time>
      </trkpt>
      <trkpt lat="45.75089" lon="6.80716">
        <ele>2609</ele>
        <time>2019-10-06T09:08:17Z</time>
      </trkpt>
      <trkpt lat="45.75091" lon="6.80715">
        <ele>2610</ele>
        <time>2019-10-06T09:08:18Z</time>
      </trkpt>
      <trkpt lat="45.75093" lon="6.80714">
        <ele>2610</ele>
        <time>2019-10-06T09:08:19Z</time>
      </trkpt>
      <trkpt lat="45.75095" lon="6.80712">
        <ele>2609</ele>
        <time>2019-10-06T09:08:20Z</time>
      </trkpt>
      <trkpt lat="45.75097" lon="6.80711">
        <ele>2609</ele>
        <time>2019-10-06T09:08:21Z</time>
      </trkpt>
      <trkpt lat="45.75099" lon="6.8071">
        <ele>2608</ele>
        <time>2019-10-06T09:08:22Z</time>
      </trkpt>
      <trkpt lat="45.75101" lon="6.8071">
        <ele>2608</ele>
        <time>2019-10-06T09:08:23Z</time>
      </trkpt>
      <trkpt lat="45.75104" lon="6.8071">
        <ele>2608</ele>
        <time>2019-10-06T09:08:24Z</time>
      </trkpt>
      <trkpt lat="45.75105" lon="6.80711">
        <ele>2608</ele>
        <time>2019-10-06T09:08:25Z</time>
      </trkpt>
      <trkpt lat="45.75107" lon="6.80711">
        <ele>2608</ele>
        <time>2019-10-06T09:08:26Z</time>
      </trkpt>
      <trkpt lat="45.75109" lon="6.80713">
        <ele>2609</ele>
        <time>2019-10-06T09:08:27Z</time>
      </trkpt>
      <trkpt lat="45.75111" lon="6.80714">
        <ele>2609</ele>
        <time>2019-10-06T09:08:28Z</time>
      </trkpt>
      <trkpt lat="45.75114" lon="6.80716">
        <ele>2610</ele>
        <time>2019-10-06T09:08:30Z</time>
      </trkpt>
      <trkpt lat="45.75116" lon="6.80716">
        <ele>2611</ele>
        <time>2019-10-06T09:08:32Z</time>
      </trkpt>
      <trkpt lat="45.75118" lon="6.80716">
        <ele>2611</ele>
        <time>2019-10-06T09:08:34Z</time>
      </trkpt>
      <trkpt lat="45.7512" lon="6.80716">
        <ele>2611</ele>
        <time>2019-10-06T09:08:36Z</time>
      </trkpt>
      <trkpt lat="45.75122" lon="6.80716">
        <ele>2612</ele>
        <time>2019-10-06T09:08:38Z</time>
      </trkpt>
      <trkpt lat="45.75125" lon="6.80717">
        <ele>2613</ele>
        <time>2019-10-06T09:08:41Z</time>
      </trkpt>
      <trkpt lat="45.75125" lon="6.80717">
        <ele>2613</ele>
        <time>2019-10-06T09:08:42Z</time>
      </trkpt>
      <trkpt lat="45.75127" lon="6.80719">
        <ele>2613</ele>
        <time>2019-10-06T09:08:44Z</time>
      </trkpt>
      <trkpt lat="45.75127" lon="6.80719">
        <ele>2612</ele>
        <time>2019-10-06T09:08:47Z</time>
      </trkpt>
      <trkpt lat="45.75129" lon="6.80719">
        <ele>2615</ele>
        <time>2019-10-06T09:08:51Z</time>
      </trkpt>
      <trkpt lat="45.75129" lon="6.80719">
        <ele>2614</ele>
        <time>2019-10-06T09:08:52Z</time>
      </trkpt>
      <trkpt lat="45.75131" lon="6.80719">
        <ele>2613</ele>
        <time>2019-10-06T09:08:53Z</time>
      </trkpt>
      <trkpt lat="45.75134" lon="6.80719">
        <ele>2613</ele>
        <time>2019-10-06T09:08:55Z</time>
      </trkpt>
      <trkpt lat="45.75136" lon="6.80714">
        <ele>2615</ele>
        <time>2019-10-06T09:08:57Z</time>
      </trkpt>
      <trkpt lat="45.75138" lon="6.80711">
        <ele>2614</ele>
        <time>2019-10-06T09:08:58Z</time>
      </trkpt>
      <trkpt lat="45.75139" lon="6.80708">
        <ele>2612</ele>
        <time>2019-10-06T09:08:59Z</time>
      </trkpt>
      <trkpt lat="45.7514" lon="6.80705">
        <ele>2614</ele>
        <time>2019-10-06T09:09:00Z</time>
      </trkpt>
      <trkpt lat="45.75141" lon="6.80702">
        <ele>2614</ele>
        <time>2019-10-06T09:09:01Z</time>
      </trkpt>
      <trkpt lat="45.75142" lon="6.80699">
        <ele>2612</ele>
        <time>2019-10-06T09:09:02Z</time>
      </trkpt>
      <trkpt lat="45.75143" lon="6.80696">
        <ele>2612</ele>
        <time>2019-10-06T09:09:03Z</time>
      </trkpt>
      <trkpt lat="45.75144" lon="6.80693">
        <ele>2612</ele>
        <time>2019-10-06T09:09:04Z</time>
      </trkpt>
      <trkpt lat="45.75144" lon="6.8069">
        <ele>2610</ele>
        <time>2019-10-06T09:09:05Z</time>
      </trkpt>
      <trkpt lat="45.75145" lon="6.80687">
        <ele>2611</ele>
        <time>2019-10-06T09:09:06Z</time>
      </trkpt>
      <trkpt lat="45.75146" lon="6.80683">
        <ele>2611</ele>
        <time>2019-10-06T09:09:07Z</time>
      </trkpt>
      <trkpt lat="45.75146" lon="6.8068">
        <ele>2610</ele>
        <time>2019-10-06T09:09:08Z</time>
      </trkpt>
      <trkpt lat="45.75147" lon="6.80677">
        <ele>2609</ele>
        <time>2019-10-06T09:09:09Z</time>
      </trkpt>
      <trkpt lat="45.75147" lon="6.80674">
        <ele>2609</ele>
        <time>2019-10-06T09:09:10Z</time>
      </trkpt>
      <trkpt lat="45.75147" lon="6.8067">
        <ele>2609</ele>
        <time>2019-10-06T09:09:11Z</time>
      </trkpt>
      <trkpt lat="45.75148" lon="6.80667">
        <ele>2609</ele>
        <time>2019-10-06T09:09:12Z</time>
      </trkpt>
      <trkpt lat="45.75148" lon="6.80664">
        <ele>2609</ele>
        <time>2019-10-06T09:09:13Z</time>
      </trkpt>
      <trkpt lat="45.75148" lon="6.80661">
        <ele>2609</ele>
        <time>2019-10-06T09:09:14Z</time>
      </trkpt>
      <trkpt lat="45.75148" lon="6.80657">
        <ele>2608</ele>
        <time>2019-10-06T09:09:15Z</time>
      </trkpt>
      <trkpt lat="45.75148" lon="6.80654">
        <ele>2608</ele>
        <time>2019-10-06T09:09:16Z</time>
      </trkpt>
      <trkpt lat="45.75148" lon="6.80651">
        <ele>2608</ele>
        <time>2019-10-06T09:09:17Z</time>
      </trkpt>
      <trkpt lat="45.75148" lon="6.80648">
        <ele>2608</ele>
        <time>2019-10-06T09:09:18Z</time>
      </trkpt>
      <trkpt lat="45.75148" lon="6.80646">
        <ele>2609</ele>
        <time>2019-10-06T09:09:19Z</time>
      </trkpt>
      <trkpt lat="45.75147" lon="6.80641">
        <ele>2609</ele>
        <time>2019-10-06T09:09:21Z</time>
      </trkpt>
      <trkpt lat="45.75147" lon="6.80636">
        <ele>2608</ele>
        <time>2019-10-06T09:09:23Z</time>
      </trkpt>
      <trkpt lat="45.75147" lon="6.80632">
        <ele>2608</ele>
        <time>2019-10-06T09:09:25Z</time>
      </trkpt>
      <trkpt lat="45.75145" lon="6.80628">
        <ele>2610</ele>
        <time>2019-10-06T09:09:27Z</time>
      </trkpt>
      <trkpt lat="45.75144" lon="6.80625">
        <ele>2610</ele>
        <time>2019-10-06T09:09:28Z</time>
      </trkpt>
      <trkpt lat="45.75143" lon="6.80623">
        <ele>2609</ele>
        <time>2019-10-06T09:09:29Z</time>
      </trkpt>
      <trkpt lat="45.7514" lon="6.80619">
        <ele>2608</ele>
        <time>2019-10-06T09:09:31Z</time>
      </trkpt>
      <trkpt lat="45.75137" lon="6.80616">
        <ele>2608</ele>
        <time>2019-10-06T09:09:33Z</time>
      </trkpt>
      <trkpt lat="45.75136" lon="6.80613">
        <ele>2607</ele>
        <time>2019-10-06T09:09:34Z</time>
      </trkpt>
      <trkpt lat="45.75135" lon="6.80611">
        <ele>2607</ele>
        <time>2019-10-06T09:09:35Z</time>
      </trkpt>
      <trkpt lat="45.75134" lon="6.80608">
        <ele>2607</ele>
        <time>2019-10-06T09:09:36Z</time>
      </trkpt>
      <trkpt lat="45.75133" lon="6.80606">
        <ele>2605</ele>
        <time>2019-10-06T09:09:37Z</time>
      </trkpt>
      <trkpt lat="45.75132" lon="6.80604">
        <ele>2605</ele>
        <time>2019-10-06T09:09:38Z</time>
      </trkpt>
      <trkpt lat="45.75131" lon="6.80601">
        <ele>2605</ele>
        <time>2019-10-06T09:09:39Z</time>
      </trkpt>
      <trkpt lat="45.75129" lon="6.80597">
        <ele>2604</ele>
        <time>2019-10-06T09:09:41Z</time>
      </trkpt>
      <trkpt lat="45.75127" lon="6.80593">
        <ele>2604</ele>
        <time>2019-10-06T09:09:43Z</time>
      </trkpt>
      <trkpt lat="45.75125" lon="6.8059">
        <ele>2603</ele>
        <time>2019-10-06T09:09:45Z</time>
      </trkpt>
      <trkpt lat="45.75123" lon="6.80586">
        <ele>2601</ele>
        <time>2019-10-06T09:09:47Z</time>
      </trkpt>
      <trkpt lat="45.75122" lon="6.80582">
        <ele>2600</ele>
        <time>2019-10-06T09:09:49Z</time>
      </trkpt>
      <trkpt lat="45.7512" lon="6.80578">
        <ele>2600</ele>
        <time>2019-10-06T09:09:51Z</time>
      </trkpt>
      <trkpt lat="45.75118" lon="6.80575">
        <ele>2600</ele>
        <time>2019-10-06T09:09:53Z</time>
      </trkpt>
      <trkpt lat="45.75115" lon="6.80572">
        <ele>2598</ele>
        <time>2019-10-06T09:09:55Z</time>
      </trkpt>
      <trkpt lat="45.75113" lon="6.8057">
        <ele>2598</ele>
        <time>2019-10-06T09:09:56Z</time>
      </trkpt>
      <trkpt lat="45.75112" lon="6.80569">
        <ele>2598</ele>
        <time>2019-10-06T09:09:57Z</time>
      </trkpt>
      <trkpt lat="45.7511" lon="6.80566">
        <ele>2598</ele>
        <time>2019-10-06T09:09:59Z</time>
      </trkpt>
      <trkpt lat="45.75107" lon="6.80562">
        <ele>2596</ele>
        <time>2019-10-06T09:10:01Z</time>
      </trkpt>
      <trkpt lat="45.75106" lon="6.80558">
        <ele>2596</ele>
        <time>2019-10-06T09:10:03Z</time>
      </trkpt>
      <trkpt lat="45.75104" lon="6.80554">
        <ele>2596</ele>
        <time>2019-10-06T09:10:05Z</time>
      </trkpt>
      <trkpt lat="45.75102" lon="6.8055">
        <ele>2596</ele>
        <time>2019-10-06T09:10:07Z</time>
      </trkpt>
      <trkpt lat="45.75101" lon="6.80548">
        <ele>2596</ele>
        <time>2019-10-06T09:10:08Z</time>
      </trkpt>
      <trkpt lat="45.75099" lon="6.80544">
        <ele>2595</ele>
        <time>2019-10-06T09:10:10Z</time>
      </trkpt>
      <trkpt lat="45.75096" lon="6.80541">
        <ele>2595</ele>
        <time>2019-10-06T09:10:12Z</time>
      </trkpt>
      <trkpt lat="45.75095" lon="6.8054">
        <ele>2593</ele>
        <time>2019-10-06T09:10:13Z</time>
      </trkpt>
      <trkpt lat="45.75093" lon="6.80538">
        <ele>2593</ele>
        <time>2019-10-06T09:10:14Z</time>
      </trkpt>
      <trkpt lat="45.75092" lon="6.80536">
        <ele>2593</ele>
        <time>2019-10-06T09:10:15Z</time>
      </trkpt>
      <trkpt lat="45.75091" lon="6.80534">
        <ele>2592</ele>
        <time>2019-10-06T09:10:16Z</time>
      </trkpt>
      <trkpt lat="45.7509" lon="6.80532">
        <ele>2592</ele>
        <time>2019-10-06T09:10:17Z</time>
      </trkpt>
      <trkpt lat="45.75089" lon="6.80529">
        <ele>2592</ele>
        <time>2019-10-06T09:10:18Z</time>
      </trkpt>
      <trkpt lat="45.75087" lon="6.80527">
        <ele>2592</ele>
        <time>2019-10-06T09:10:19Z</time>
      </trkpt>
      <trkpt lat="45.75087" lon="6.80524">
        <ele>2592</ele>
        <time>2019-10-06T09:10:20Z</time>
      </trkpt>
      <trkpt lat="45.75086" lon="6.80522">
        <ele>2591</ele>
        <time>2019-10-06T09:10:21Z</time>
      </trkpt>
      <trkpt lat="45.75084" lon="6.80518">
        <ele>2591</ele>
        <time>2019-10-06T09:10:23Z</time>
      </trkpt>
      <trkpt lat="45.75083" lon="6.80515">
        <ele>2591</ele>
        <time>2019-10-06T09:10:24Z</time>
      </trkpt>
      <trkpt lat="45.75082" lon="6.80513">
        <ele>2590</ele>
        <time>2019-10-06T09:10:25Z</time>
      </trkpt>
      <trkpt lat="45.75081" lon="6.8051">
        <ele>2590</ele>
        <time>2019-10-06T09:10:26Z</time>
      </trkpt>
      <trkpt lat="45.7508" lon="6.80508">
        <ele>2590</ele>
        <time>2019-10-06T09:10:27Z</time>
      </trkpt>
      <trkpt lat="45.7508" lon="6.80505">
        <ele>2590</ele>
        <time>2019-10-06T09:10:28Z</time>
      </trkpt>
      <trkpt lat="45.75079" lon="6.80502">
        <ele>2590</ele>
        <time>2019-10-06T09:10:29Z</time>
      </trkpt>
      <trkpt lat="45.75078" lon="6.80499">
        <ele>2589</ele>
        <time>2019-10-06T09:10:30Z</time>
      </trkpt>
      <trkpt lat="45.75077" lon="6.80496">
        <ele>2588</ele>
        <time>2019-10-06T09:10:31Z</time>
      </trkpt>
      <trkpt lat="45.75077" lon="6.80494">
        <ele>2587</ele>
        <time>2019-10-06T09:10:32Z</time>
      </trkpt>
      <trkpt lat="45.75077" lon="6.80491">
        <ele>2587</ele>
        <time>2019-10-06T09:10:33Z</time>
      </trkpt>
      <trkpt lat="45.75076" lon="6.80488">
        <ele>2587</ele>
        <time>2019-10-06T09:10:34Z</time>
      </trkpt>
      <trkpt lat="45.75075" lon="6.80485">
        <ele>2586</ele>
        <time>2019-10-06T09:10:35Z</time>
      </trkpt>
      <trkpt lat="45.75074" lon="6.80482">
        <ele>2587</ele>
        <time>2019-10-06T09:10:36Z</time>
      </trkpt>
      <trkpt lat="45.75074" lon="6.80479">
        <ele>2587</ele>
        <time>2019-10-06T09:10:37Z</time>
      </trkpt>
      <trkpt lat="45.75073" lon="6.80475">
        <ele>2586</ele>
        <time>2019-10-06T09:10:38Z</time>
      </trkpt>
      <trkpt lat="45.75073" lon="6.80474">
        <ele>2587</ele>
        <time>2019-10-06T09:10:39Z</time>
      </trkpt>
      <trkpt lat="45.75072" lon="6.80471">
        <ele>2587</ele>
        <time>2019-10-06T09:10:40Z</time>
      </trkpt>
      <trkpt lat="45.75072" lon="6.80468">
        <ele>2586</ele>
        <time>2019-10-06T09:10:41Z</time>
      </trkpt>
      <trkpt lat="45.75072" lon="6.80465">
        <ele>2586</ele>
        <time>2019-10-06T09:10:42Z</time>
      </trkpt>
      <trkpt lat="45.75071" lon="6.80462">
        <ele>2586</ele>
        <time>2019-10-06T09:10:43Z</time>
      </trkpt>
      <trkpt lat="45.75071" lon="6.80459">
        <ele>2586</ele>
        <time>2019-10-06T09:10:44Z</time>
      </trkpt>
      <trkpt lat="45.7507" lon="6.80457">
        <ele>2586</ele>
        <time>2019-10-06T09:10:45Z</time>
      </trkpt>
      <trkpt lat="45.75068" lon="6.80454">
        <ele>2586</ele>
        <time>2019-10-06T09:10:46Z</time>
      </trkpt>
      <trkpt lat="45.75067" lon="6.80452">
        <ele>2586</ele>
        <time>2019-10-06T09:10:47Z</time>
      </trkpt>
      <trkpt lat="45.75065" lon="6.80449">
        <ele>2585</ele>
        <time>2019-10-06T09:10:48Z</time>
      </trkpt>
      <trkpt lat="45.75063" lon="6.80447">
        <ele>2586</ele>
        <time>2019-10-06T09:10:49Z</time>
      </trkpt>
      <trkpt lat="45.75061" lon="6.80445">
        <ele>2586</ele>
        <time>2019-10-06T09:10:50Z</time>
      </trkpt>
      <trkpt lat="45.7506" lon="6.80442">
        <ele>2585</ele>
        <time>2019-10-06T09:10:51Z</time>
      </trkpt>
      <trkpt lat="45.75058" lon="6.8044">
        <ele>2586</ele>
        <time>2019-10-06T09:10:52Z</time>
      </trkpt>
      <trkpt lat="45.75056" lon="6.80438">
        <ele>2586</ele>
        <time>2019-10-06T09:10:53Z</time>
      </trkpt>
      <trkpt lat="45.75055" lon="6.80435">
        <ele>2585</ele>
        <time>2019-10-06T09:10:54Z</time>
      </trkpt>
      <trkpt lat="45.75053" lon="6.80432">
        <ele>2585</ele>
        <time>2019-10-06T09:10:55Z</time>
      </trkpt>
      <trkpt lat="45.75052" lon="6.8043">
        <ele>2584</ele>
        <time>2019-10-06T09:10:56Z</time>
      </trkpt>
      <trkpt lat="45.75052" lon="6.80426">
        <ele>2584</ele>
        <time>2019-10-06T09:10:57Z</time>
      </trkpt>
      <trkpt lat="45.75051" lon="6.80423">
        <ele>2584</ele>
        <time>2019-10-06T09:10:58Z</time>
      </trkpt>
      <trkpt lat="45.7505" lon="6.8042">
        <ele>2584</ele>
        <time>2019-10-06T09:10:59Z</time>
      </trkpt>
      <trkpt lat="45.75049" lon="6.80417">
        <ele>2585</ele>
        <time>2019-10-06T09:11:00Z</time>
      </trkpt>
      <trkpt lat="45.75048" lon="6.80414">
        <ele>2585</ele>
        <time>2019-10-06T09:11:01Z</time>
      </trkpt>
      <trkpt lat="45.75047" lon="6.80412">
        <ele>2584</ele>
        <time>2019-10-06T09:11:02Z</time>
      </trkpt>
      <trkpt lat="45.75045" lon="6.8041">
        <ele>2584</ele>
        <time>2019-10-06T09:11:03Z</time>
      </trkpt>
      <trkpt lat="45.75044" lon="6.80407">
        <ele>2584</ele>
        <time>2019-10-06T09:11:04Z</time>
      </trkpt>
      <trkpt lat="45.75042" lon="6.80405">
        <ele>2583</ele>
        <time>2019-10-06T09:11:05Z</time>
      </trkpt>
      <trkpt lat="45.7504" lon="6.80403">
        <ele>2581</ele>
        <time>2019-10-06T09:11:06Z</time>
      </trkpt>
      <trkpt lat="45.75039" lon="6.804">
        <ele>2581</ele>
        <time>2019-10-06T09:11:07Z</time>
      </trkpt>
      <trkpt lat="45.75037" lon="6.80398">
        <ele>2580</ele>
        <time>2019-10-06T09:11:08Z</time>
      </trkpt>
      <trkpt lat="45.75036" lon="6.80396">
        <ele>2579</ele>
        <time>2019-10-06T09:11:09Z</time>
      </trkpt>
      <trkpt lat="45.75034" lon="6.80393">
        <ele>2580</ele>
        <time>2019-10-06T09:11:10Z</time>
      </trkpt>
      <trkpt lat="45.75033" lon="6.80391">
        <ele>2580</ele>
        <time>2019-10-06T09:11:11Z</time>
      </trkpt>
      <trkpt lat="45.75031" lon="6.80389">
        <ele>2580</ele>
        <time>2019-10-06T09:11:12Z</time>
      </trkpt>
      <trkpt lat="45.7503" lon="6.80387">
        <ele>2579</ele>
        <time>2019-10-06T09:11:13Z</time>
      </trkpt>
      <trkpt lat="45.75027" lon="6.80384">
        <ele>2579</ele>
        <time>2019-10-06T09:11:15Z</time>
      </trkpt>
      <trkpt lat="45.75026" lon="6.80381">
        <ele>2579</ele>
        <time>2019-10-06T09:11:16Z</time>
      </trkpt>
      <trkpt lat="45.75024" lon="6.80379">
        <ele>2579</ele>
        <time>2019-10-06T09:11:17Z</time>
      </trkpt>
      <trkpt lat="45.75023" lon="6.80376">
        <ele>2579</ele>
        <time>2019-10-06T09:11:18Z</time>
      </trkpt>
      <trkpt lat="45.75021" lon="6.80374">
        <ele>2579</ele>
        <time>2019-10-06T09:11:19Z</time>
      </trkpt>
      <trkpt lat="45.7502" lon="6.80372">
        <ele>2578</ele>
        <time>2019-10-06T09:11:20Z</time>
      </trkpt>
      <trkpt lat="45.75018" lon="6.80369">
        <ele>2577</ele>
        <time>2019-10-06T09:11:21Z</time>
      </trkpt>
      <trkpt lat="45.75017" lon="6.80366">
        <ele>2576</ele>
        <time>2019-10-06T09:11:22Z</time>
      </trkpt>
      <trkpt lat="45.75016" lon="6.80363">
        <ele>2577</ele>
        <time>2019-10-06T09:11:23Z</time>
      </trkpt>
      <trkpt lat="45.75015" lon="6.8036">
        <ele>2577</ele>
        <time>2019-10-06T09:11:24Z</time>
      </trkpt>
      <trkpt lat="45.75014" lon="6.80358">
        <ele>2577</ele>
        <time>2019-10-06T09:11:25Z</time>
      </trkpt>
      <trkpt lat="45.75013" lon="6.80356">
        <ele>2576</ele>
        <time>2019-10-06T09:11:26Z</time>
      </trkpt>
      <trkpt lat="45.75011" lon="6.80354">
        <ele>2576</ele>
        <time>2019-10-06T09:11:27Z</time>
      </trkpt>
      <trkpt lat="45.7501" lon="6.80351">
        <ele>2576</ele>
        <time>2019-10-06T09:11:28Z</time>
      </trkpt>
      <trkpt lat="45.75009" lon="6.80349">
        <ele>2575</ele>
        <time>2019-10-06T09:11:29Z</time>
      </trkpt>
      <trkpt lat="45.75008" lon="6.80347">
        <ele>2575</ele>
        <time>2019-10-06T09:11:30Z</time>
      </trkpt>
      <trkpt lat="45.75007" lon="6.80344">
        <ele>2575</ele>
        <time>2019-10-06T09:11:31Z</time>
      </trkpt>
      <trkpt lat="45.75006" lon="6.80341">
        <ele>2575</ele>
        <time>2019-10-06T09:11:32Z</time>
      </trkpt>
      <trkpt lat="45.75006" lon="6.80339">
        <ele>2575</ele>
        <time>2019-10-06T09:11:33Z</time>
      </trkpt>
      <trkpt lat="45.75005" lon="6.80336">
        <ele>2575</ele>
        <time>2019-10-06T09:11:34Z</time>
      </trkpt>
      <trkpt lat="45.75004" lon="6.80333">
        <ele>2575</ele>
        <time>2019-10-06T09:11:35Z</time>
      </trkpt>
      <trkpt lat="45.75002" lon="6.8033">
        <ele>2574</ele>
        <time>2019-10-06T09:11:36Z</time>
      </trkpt>
      <trkpt lat="45.75001" lon="6.80328">
        <ele>2574</ele>
        <time>2019-10-06T09:11:37Z</time>
      </trkpt>
      <trkpt lat="45.74999" lon="6.80326">
        <ele>2573</ele>
        <time>2019-10-06T09:11:38Z</time>
      </trkpt>
      <trkpt lat="45.74998" lon="6.80324">
        <ele>2573</ele>
        <time>2019-10-06T09:11:39Z</time>
      </trkpt>
      <trkpt lat="45.74996" lon="6.80322">
        <ele>2573</ele>
        <time>2019-10-06T09:11:40Z</time>
      </trkpt>
      <trkpt lat="45.74995" lon="6.80319">
        <ele>2573</ele>
        <time>2019-10-06T09:11:41Z</time>
      </trkpt>
      <trkpt lat="45.74994" lon="6.80316">
        <ele>2572</ele>
        <time>2019-10-06T09:11:42Z</time>
      </trkpt>
      <trkpt lat="45.74993" lon="6.80314">
        <ele>2571</ele>
        <time>2019-10-06T09:11:43Z</time>
      </trkpt>
      <trkpt lat="45.74992" lon="6.80311">
        <ele>2572</ele>
        <time>2019-10-06T09:11:44Z</time>
      </trkpt>
      <trkpt lat="45.74991" lon="6.80309">
        <ele>2572</ele>
        <time>2019-10-06T09:11:45Z</time>
      </trkpt>
      <trkpt lat="45.74989" lon="6.80307">
        <ele>2571</ele>
        <time>2019-10-06T09:11:46Z</time>
      </trkpt>
      <trkpt lat="45.74987" lon="6.80305">
        <ele>2571</ele>
        <time>2019-10-06T09:11:47Z</time>
      </trkpt>
      <trkpt lat="45.74985" lon="6.80302">
        <ele>2571</ele>
        <time>2019-10-06T09:11:48Z</time>
      </trkpt>
      <trkpt lat="45.74984" lon="6.80299">
        <ele>2569</ele>
        <time>2019-10-06T09:11:49Z</time>
      </trkpt>
      <trkpt lat="45.74983" lon="6.80296">
        <ele>2569</ele>
        <time>2019-10-06T09:11:50Z</time>
      </trkpt>
      <trkpt lat="45.74982" lon="6.80294">
        <ele>2569</ele>
        <time>2019-10-06T09:11:51Z</time>
      </trkpt>
      <trkpt lat="45.7498" lon="6.80291">
        <ele>2569</ele>
        <time>2019-10-06T09:11:52Z</time>
      </trkpt>
      <trkpt lat="45.74979" lon="6.80288">
        <ele>2569</ele>
        <time>2019-10-06T09:11:53Z</time>
      </trkpt>
      <trkpt lat="45.74978" lon="6.80285">
        <ele>2568</ele>
        <time>2019-10-06T09:11:54Z</time>
      </trkpt>
      <trkpt lat="45.74977" lon="6.80282">
        <ele>2568</ele>
        <time>2019-10-06T09:11:55Z</time>
      </trkpt>
      <trkpt lat="45.74976" lon="6.80279">
        <ele>2568</ele>
        <time>2019-10-06T09:11:56Z</time>
      </trkpt>
      <trkpt lat="45.74975" lon="6.80276">
        <ele>2566</ele>
        <time>2019-10-06T09:11:57Z</time>
      </trkpt>
      <trkpt lat="45.74974" lon="6.80273">
        <ele>2565</ele>
        <time>2019-10-06T09:11:58Z</time>
      </trkpt>
      <trkpt lat="45.74973" lon="6.8027">
        <ele>2565</ele>
        <time>2019-10-06T09:11:59Z</time>
      </trkpt>
      <trkpt lat="45.74972" lon="6.80267">
        <ele>2565</ele>
        <time>2019-10-06T09:12:00Z</time>
      </trkpt>
      <trkpt lat="45.74971" lon="6.80264">
        <ele>2565</ele>
        <time>2019-10-06T09:12:01Z</time>
      </trkpt>
      <trkpt lat="45.74971" lon="6.80262">
        <ele>2565</ele>
        <time>2019-10-06T09:12:02Z</time>
      </trkpt>
      <trkpt lat="45.7497" lon="6.80259">
        <ele>2565</ele>
        <time>2019-10-06T09:12:03Z</time>
      </trkpt>
      <trkpt lat="45.74969" lon="6.80255">
        <ele>2565</ele>
        <time>2019-10-06T09:12:04Z</time>
      </trkpt>
      <trkpt lat="45.74969" lon="6.80252">
        <ele>2564</ele>
        <time>2019-10-06T09:12:05Z</time>
      </trkpt>
      <trkpt lat="45.74968" lon="6.80249">
        <ele>2564</ele>
        <time>2019-10-06T09:12:06Z</time>
      </trkpt>
      <trkpt lat="45.74967" lon="6.80246">
        <ele>2564</ele>
        <time>2019-10-06T09:12:07Z</time>
      </trkpt>
      <trkpt lat="45.74966" lon="6.80243">
        <ele>2563</ele>
        <time>2019-10-06T09:12:08Z</time>
      </trkpt>
      <trkpt lat="45.74966" lon="6.80241">
        <ele>2562</ele>
        <time>2019-10-06T09:12:09Z</time>
      </trkpt>
      <trkpt lat="45.74965" lon="6.80237">
        <ele>2562</ele>
        <time>2019-10-06T09:12:10Z</time>
      </trkpt>
      <trkpt lat="45.74964" lon="6.80234">
        <ele>2562</ele>
        <time>2019-10-06T09:12:11Z</time>
      </trkpt>
      <trkpt lat="45.74963" lon="6.80231">
        <ele>2561</ele>
        <time>2019-10-06T09:12:12Z</time>
      </trkpt>
      <trkpt lat="45.74963" lon="6.80228">
        <ele>2560</ele>
        <time>2019-10-06T09:12:13Z</time>
      </trkpt>
      <trkpt lat="45.74963" lon="6.80224">
        <ele>2559</ele>
        <time>2019-10-06T09:12:14Z</time>
      </trkpt>
      <trkpt lat="45.74962" lon="6.80221">
        <ele>2559</ele>
        <time>2019-10-06T09:12:15Z</time>
      </trkpt>
      <trkpt lat="45.74961" lon="6.80218">
        <ele>2559</ele>
        <time>2019-10-06T09:12:16Z</time>
      </trkpt>
      <trkpt lat="45.7496" lon="6.80215">
        <ele>2559</ele>
        <time>2019-10-06T09:12:17Z</time>
      </trkpt>
      <trkpt lat="45.74959" lon="6.80212">
        <ele>2557</ele>
        <time>2019-10-06T09:12:18Z</time>
      </trkpt>
      <trkpt lat="45.74959" lon="6.80209">
        <ele>2556</ele>
        <time>2019-10-06T09:12:19Z</time>
      </trkpt>
      <trkpt lat="45.74958" lon="6.80206">
        <ele>2556</ele>
        <time>2019-10-06T09:12:20Z</time>
      </trkpt>
      <trkpt lat="45.74957" lon="6.80203">
        <ele>2556</ele>
        <time>2019-10-06T09:12:21Z</time>
      </trkpt>
      <trkpt lat="45.74956" lon="6.802">
        <ele>2556</ele>
        <time>2019-10-06T09:12:22Z</time>
      </trkpt>
      <trkpt lat="45.74954" lon="6.80197">
        <ele>2555</ele>
        <time>2019-10-06T09:12:23Z</time>
      </trkpt>
      <trkpt lat="45.74953" lon="6.80195">
        <ele>2555</ele>
        <time>2019-10-06T09:12:24Z</time>
      </trkpt>
      <trkpt lat="45.74951" lon="6.80192">
        <ele>2555</ele>
        <time>2019-10-06T09:12:25Z</time>
      </trkpt>
      <trkpt lat="45.7495" lon="6.80189">
        <ele>2553</ele>
        <time>2019-10-06T09:12:26Z</time>
      </trkpt>
      <trkpt lat="45.74948" lon="6.80187">
        <ele>2553</ele>
        <time>2019-10-06T09:12:27Z</time>
      </trkpt>
      <trkpt lat="45.74947" lon="6.80184">
        <ele>2553</ele>
        <time>2019-10-06T09:12:28Z</time>
      </trkpt>
      <trkpt lat="45.74947" lon="6.80181">
        <ele>2552</ele>
        <time>2019-10-06T09:12:29Z</time>
      </trkpt>
      <trkpt lat="45.74946" lon="6.80178">
        <ele>2552</ele>
        <time>2019-10-06T09:12:30Z</time>
      </trkpt>
      <trkpt lat="45.74945" lon="6.80174">
        <ele>2551</ele>
        <time>2019-10-06T09:12:31Z</time>
      </trkpt>
      <trkpt lat="45.74945" lon="6.80171">
        <ele>2550</ele>
        <time>2019-10-06T09:12:32Z</time>
      </trkpt>
      <trkpt lat="45.74946" lon="6.80167">
        <ele>2550</ele>
        <time>2019-10-06T09:12:33Z</time>
      </trkpt>
      <trkpt lat="45.74946" lon="6.80164">
        <ele>2550</ele>
        <time>2019-10-06T09:12:34Z</time>
      </trkpt>
      <trkpt lat="45.74946" lon="6.80161">
        <ele>2550</ele>
        <time>2019-10-06T09:12:35Z</time>
      </trkpt>
      <trkpt lat="45.74946" lon="6.80158">
        <ele>2550</ele>
        <time>2019-10-06T09:12:36Z</time>
      </trkpt>
      <trkpt lat="45.74946" lon="6.80155">
        <ele>2549</ele>
        <time>2019-10-06T09:12:37Z</time>
      </trkpt>
      <trkpt lat="45.74946" lon="6.80151">
        <ele>2549</ele>
        <time>2019-10-06T09:12:38Z</time>
      </trkpt>
      <trkpt lat="45.74946" lon="6.80147">
        <ele>2549</ele>
        <time>2019-10-06T09:12:39Z</time>
      </trkpt>
      <trkpt lat="45.74945" lon="6.80145">
        <ele>2548</ele>
        <time>2019-10-06T09:12:40Z</time>
      </trkpt>
      <trkpt lat="45.74945" lon="6.80142">
        <ele>2548</ele>
        <time>2019-10-06T09:12:41Z</time>
      </trkpt>
      <trkpt lat="45.74944" lon="6.80139">
        <ele>2548</ele>
        <time>2019-10-06T09:12:42Z</time>
      </trkpt>
      <trkpt lat="45.74943" lon="6.80136">
        <ele>2547</ele>
        <time>2019-10-06T09:12:43Z</time>
      </trkpt>
      <trkpt lat="45.74942" lon="6.80133">
        <ele>2548</ele>
        <time>2019-10-06T09:12:44Z</time>
      </trkpt>
      <trkpt lat="45.74941" lon="6.8013">
        <ele>2548</ele>
        <time>2019-10-06T09:12:45Z</time>
      </trkpt>
      <trkpt lat="45.7494" lon="6.80128">
        <ele>2548</ele>
        <time>2019-10-06T09:12:46Z</time>
      </trkpt>
      <trkpt lat="45.74939" lon="6.80125">
        <ele>2547</ele>
        <time>2019-10-06T09:12:47Z</time>
      </trkpt>
      <trkpt lat="45.74938" lon="6.80122">
        <ele>2547</ele>
        <time>2019-10-06T09:12:48Z</time>
      </trkpt>
      <trkpt lat="45.74937" lon="6.8012">
        <ele>2547</ele>
        <time>2019-10-06T09:12:49Z</time>
      </trkpt>
      <trkpt lat="45.74936" lon="6.80117">
        <ele>2547</ele>
        <time>2019-10-06T09:12:50Z</time>
      </trkpt>
      <trkpt lat="45.74935" lon="6.80114">
        <ele>2545</ele>
        <time>2019-10-06T09:12:51Z</time>
      </trkpt>
      <trkpt lat="45.74934" lon="6.80111">
        <ele>2545</ele>
        <time>2019-10-06T09:12:52Z</time>
      </trkpt>
      <trkpt lat="45.74933" lon="6.80108">
        <ele>2544</ele>
        <time>2019-10-06T09:12:53Z</time>
      </trkpt>
      <trkpt lat="45.74932" lon="6.80106">
        <ele>2544</ele>
        <time>2019-10-06T09:12:54Z</time>
      </trkpt>
      <trkpt lat="45.74931" lon="6.80103">
        <ele>2544</ele>
        <time>2019-10-06T09:12:55Z</time>
      </trkpt>
      <trkpt lat="45.7493" lon="6.801">
        <ele>2543</ele>
        <time>2019-10-06T09:12:56Z</time>
      </trkpt>
      <trkpt lat="45.7493" lon="6.80097">
        <ele>2543</ele>
        <time>2019-10-06T09:12:57Z</time>
      </trkpt>
      <trkpt lat="45.74929" lon="6.80095">
        <ele>2542</ele>
        <time>2019-10-06T09:12:58Z</time>
      </trkpt>
      <trkpt lat="45.74927" lon="6.8009">
        <ele>2542</ele>
        <time>2019-10-06T09:13:00Z</time>
      </trkpt>
      <trkpt lat="45.74926" lon="6.80087">
        <ele>2542</ele>
        <time>2019-10-06T09:13:02Z</time>
      </trkpt>
      <trkpt lat="45.74926" lon="6.80087">
        <ele>2541</ele>
        <time>2019-10-06T09:13:04Z</time>
      </trkpt>
      <trkpt lat="45.74926" lon="6.80087">
        <ele>2541</ele>
        <time>2019-10-06T09:13:08Z</time>
      </trkpt>
      <trkpt lat="45.74926" lon="6.80087">
        <ele>2541</ele>
        <time>2019-10-06T09:13:12Z</time>
      </trkpt>
      <trkpt lat="45.74926" lon="6.80087">
        <ele>2541</ele>
        <time>2019-10-06T09:13:16Z</time>
      </trkpt>
      <trkpt lat="45.74926" lon="6.80087">
        <ele>2541</ele>
        <time>2019-10-06T09:13:20Z</time>
      </trkpt>
      <trkpt lat="45.74926" lon="6.80087">
        <ele>2541</ele>
        <time>2019-10-06T09:13:24Z</time>
      </trkpt>
      <trkpt lat="45.74926" lon="6.80087">
        <ele>2541</ele>
        <time>2019-10-06T09:13:28Z</time>
      </trkpt>
      <trkpt lat="45.74926" lon="6.80087">
        <ele>2541</ele>
        <time>2019-10-06T09:13:32Z</time>
      </trkpt>
      <trkpt lat="45.74926" lon="6.80087">
        <ele>2541</ele>
        <time>2019-10-06T09:13:36Z</time>
      </trkpt>
      <trkpt lat="45.74926" lon="6.80087">
        <ele>2541</ele>
        <time>2019-10-06T09:13:40Z</time>
      </trkpt>
      <trkpt lat="45.74925" lon="6.80084">
        <ele>2541</ele>
        <time>2019-10-06T09:13:43Z</time>
      </trkpt>
      <trkpt lat="45.74924" lon="6.80081">
        <ele>2541</ele>
        <time>2019-10-06T09:13:45Z</time>
      </trkpt>
      <trkpt lat="45.74923" lon="6.80078">
        <ele>2541</ele>
        <time>2019-10-06T09:13:46Z</time>
      </trkpt>
      <trkpt lat="45.74922" lon="6.80076">
        <ele>2540</ele>
        <time>2019-10-06T09:13:47Z</time>
      </trkpt>
      <trkpt lat="45.74921" lon="6.80073">
        <ele>2540</ele>
        <time>2019-10-06T09:13:48Z</time>
      </trkpt>
      <trkpt lat="45.7492" lon="6.80071">
        <ele>2540</ele>
        <time>2019-10-06T09:13:49Z</time>
      </trkpt>
      <trkpt lat="45.74919" lon="6.80068">
        <ele>2539</ele>
        <time>2019-10-06T09:13:50Z</time>
      </trkpt>
      <trkpt lat="45.74918" lon="6.80064">
        <ele>2538</ele>
        <time>2019-10-06T09:13:51Z</time>
      </trkpt>
      <trkpt lat="45.74917" lon="6.80061">
        <ele>2538</ele>
        <time>2019-10-06T09:13:52Z</time>
      </trkpt>
      <trkpt lat="45.74916" lon="6.80058">
        <ele>2538</ele>
        <time>2019-10-06T09:13:53Z</time>
      </trkpt>
      <trkpt lat="45.74915" lon="6.80055">
        <ele>2537</ele>
        <time>2019-10-06T09:13:54Z</time>
      </trkpt>
      <trkpt lat="45.74914" lon="6.80052">
        <ele>2537</ele>
        <time>2019-10-06T09:13:55Z</time>
      </trkpt>
      <trkpt lat="45.74913" lon="6.80049">
        <ele>2536</ele>
        <time>2019-10-06T09:13:56Z</time>
      </trkpt>
      <trkpt lat="45.74912" lon="6.80045">
        <ele>2536</ele>
        <time>2019-10-06T09:13:57Z</time>
      </trkpt>
      <trkpt lat="45.74911" lon="6.80042">
        <ele>2536</ele>
        <time>2019-10-06T09:13:58Z</time>
      </trkpt>
      <trkpt lat="45.7491" lon="6.80039">
        <ele>2536</ele>
        <time>2019-10-06T09:13:59Z</time>
      </trkpt>
      <trkpt lat="45.74909" lon="6.80036">
        <ele>2535</ele>
        <time>2019-10-06T09:14:00Z</time>
      </trkpt>
      <trkpt lat="45.74908" lon="6.80033">
        <ele>2535</ele>
        <time>2019-10-06T09:14:01Z</time>
      </trkpt>
      <trkpt lat="45.74907" lon="6.8003">
        <ele>2535</ele>
        <time>2019-10-06T09:14:02Z</time>
      </trkpt>
      <trkpt lat="45.74906" lon="6.80027">
        <ele>2535</ele>
        <time>2019-10-06T09:14:03Z</time>
      </trkpt>
      <trkpt lat="45.74906" lon="6.80024">
        <ele>2533</ele>
        <time>2019-10-06T09:14:04Z</time>
      </trkpt>
      <trkpt lat="45.74905" lon="6.80021">
        <ele>2533</ele>
        <time>2019-10-06T09:14:05Z</time>
      </trkpt>
      <trkpt lat="45.74903" lon="6.80019">
        <ele>2532</ele>
        <time>2019-10-06T09:14:06Z</time>
      </trkpt>
      <trkpt lat="45.74902" lon="6.80016">
        <ele>2532</ele>
        <time>2019-10-06T09:14:07Z</time>
      </trkpt>
      <trkpt lat="45.74901" lon="6.80014">
        <ele>2532</ele>
        <time>2019-10-06T09:14:08Z</time>
      </trkpt>
      <trkpt lat="45.74899" lon="6.80012">
        <ele>2531</ele>
        <time>2019-10-06T09:14:09Z</time>
      </trkpt>
      <trkpt lat="45.74898" lon="6.80009">
        <ele>2530</ele>
        <time>2019-10-06T09:14:10Z</time>
      </trkpt>
      <trkpt lat="45.74897" lon="6.80006">
        <ele>2530</ele>
        <time>2019-10-06T09:14:11Z</time>
      </trkpt>
      <trkpt lat="45.74896" lon="6.80003">
        <ele>2529</ele>
        <time>2019-10-06T09:14:12Z</time>
      </trkpt>
      <trkpt lat="45.74895" lon="6.8">
        <ele>2528</ele>
        <time>2019-10-06T09:14:13Z</time>
      </trkpt>
      <trkpt lat="45.74895" lon="6.79997">
        <ele>2528</ele>
        <time>2019-10-06T09:14:14Z</time>
      </trkpt>
      <trkpt lat="45.74892" lon="6.79993">
        <ele>2528</ele>
        <time>2019-10-06T09:14:16Z</time>
      </trkpt>
      <trkpt lat="45.74891" lon="6.7999">
        <ele>2527</ele>
        <time>2019-10-06T09:14:17Z</time>
      </trkpt>
      <trkpt lat="45.7489" lon="6.79988">
        <ele>2526</ele>
        <time>2019-10-06T09:14:18Z</time>
      </trkpt>
      <trkpt lat="45.74889" lon="6.79985">
        <ele>2525</ele>
        <time>2019-10-06T09:14:19Z</time>
      </trkpt>
      <trkpt lat="45.74889" lon="6.79982">
        <ele>2524</ele>
        <time>2019-10-06T09:14:20Z</time>
      </trkpt>
      <trkpt lat="45.74888" lon="6.79979">
        <ele>2524</ele>
        <time>2019-10-06T09:14:21Z</time>
      </trkpt>
      <trkpt lat="45.74887" lon="6.79976">
        <ele>2524</ele>
        <time>2019-10-06T09:14:22Z</time>
      </trkpt>
      <trkpt lat="45.74886" lon="6.79972">
        <ele>2523</ele>
        <time>2019-10-06T09:14:23Z</time>
      </trkpt>
      <trkpt lat="45.74886" lon="6.79969">
        <ele>2523</ele>
        <time>2019-10-06T09:14:24Z</time>
      </trkpt>
      <trkpt lat="45.74885" lon="6.79966">
        <ele>2523</ele>
        <time>2019-10-06T09:14:25Z</time>
      </trkpt>
      <trkpt lat="45.74884" lon="6.79962">
        <ele>2522</ele>
        <time>2019-10-06T09:14:26Z</time>
      </trkpt>
      <trkpt lat="45.74882" lon="6.79959">
        <ele>2520</ele>
        <time>2019-10-06T09:14:27Z</time>
      </trkpt>
      <trkpt lat="45.74881" lon="6.79957">
        <ele>2520</ele>
        <time>2019-10-06T09:14:28Z</time>
      </trkpt>
      <trkpt lat="45.74878" lon="6.79955">
        <ele>2520</ele>
        <time>2019-10-06T09:14:29Z</time>
      </trkpt>
      <trkpt lat="45.74876" lon="6.79952">
        <ele>2519</ele>
        <time>2019-10-06T09:14:30Z</time>
      </trkpt>
      <trkpt lat="45.74875" lon="6.79949">
        <ele>2518</ele>
        <time>2019-10-06T09:14:31Z</time>
      </trkpt>
      <trkpt lat="45.74874" lon="6.79946">
        <ele>2518</ele>
        <time>2019-10-06T09:14:32Z</time>
      </trkpt>
      <trkpt lat="45.74873" lon="6.79942">
        <ele>2518</ele>
        <time>2019-10-06T09:14:33Z</time>
      </trkpt>
      <trkpt lat="45.74872" lon="6.79939">
        <ele>2518</ele>
        <time>2019-10-06T09:14:34Z</time>
      </trkpt>
      <trkpt lat="45.74871" lon="6.79936">
        <ele>2518</ele>
        <time>2019-10-06T09:14:35Z</time>
      </trkpt>
      <trkpt lat="45.7487" lon="6.79933">
        <ele>2518</ele>
        <time>2019-10-06T09:14:36Z</time>
      </trkpt>
      <trkpt lat="45.7487" lon="6.7993">
        <ele>2518</ele>
        <time>2019-10-06T09:14:37Z</time>
      </trkpt>
      <trkpt lat="45.7487" lon="6.79926">
        <ele>2518</ele>
        <time>2019-10-06T09:14:38Z</time>
      </trkpt>
      <trkpt lat="45.74869" lon="6.79923">
        <ele>2518</ele>
        <time>2019-10-06T09:14:39Z</time>
      </trkpt>
      <trkpt lat="45.74869" lon="6.7992">
        <ele>2517</ele>
        <time>2019-10-06T09:14:40Z</time>
      </trkpt>
      <trkpt lat="45.74868" lon="6.79917">
        <ele>2517</ele>
        <time>2019-10-06T09:14:41Z</time>
      </trkpt>
      <trkpt lat="45.74868" lon="6.79913">
        <ele>2517</ele>
        <time>2019-10-06T09:14:42Z</time>
      </trkpt>
      <trkpt lat="45.74867" lon="6.7991">
        <ele>2517</ele>
        <time>2019-10-06T09:14:43Z</time>
      </trkpt>
      <trkpt lat="45.74866" lon="6.79907">
        <ele>2517</ele>
        <time>2019-10-06T09:14:44Z</time>
      </trkpt>
      <trkpt lat="45.74865" lon="6.79903">
        <ele>2517</ele>
        <time>2019-10-06T09:14:45Z</time>
      </trkpt>
      <trkpt lat="45.74864" lon="6.799">
        <ele>2516</ele>
        <time>2019-10-06T09:14:46Z</time>
      </trkpt>
      <trkpt lat="45.74864" lon="6.79897">
        <ele>2516</ele>
        <time>2019-10-06T09:14:47Z</time>
      </trkpt>
      <trkpt lat="45.74862" lon="6.79894">
        <ele>2516</ele>
        <time>2019-10-06T09:14:48Z</time>
      </trkpt>
      <trkpt lat="45.74861" lon="6.79891">
        <ele>2515</ele>
        <time>2019-10-06T09:14:49Z</time>
      </trkpt>
      <trkpt lat="45.7486" lon="6.79888">
        <ele>2515</ele>
        <time>2019-10-06T09:14:50Z</time>
      </trkpt>
      <trkpt lat="45.7486" lon="6.79884">
        <ele>2515</ele>
        <time>2019-10-06T09:14:51Z</time>
      </trkpt>
      <trkpt lat="45.74859" lon="6.79881">
        <ele>2514</ele>
        <time>2019-10-06T09:14:52Z</time>
      </trkpt>
      <trkpt lat="45.74859" lon="6.79878">
        <ele>2513</ele>
        <time>2019-10-06T09:14:53Z</time>
      </trkpt>
      <trkpt lat="45.74858" lon="6.79873">
        <ele>2512</ele>
        <time>2019-10-06T09:14:54Z</time>
      </trkpt>
      <trkpt lat="45.74858" lon="6.79871">
        <ele>2512</ele>
        <time>2019-10-06T09:14:55Z</time>
      </trkpt>
      <trkpt lat="45.74857" lon="6.79868">
        <ele>2511</ele>
        <time>2019-10-06T09:14:56Z</time>
      </trkpt>
      <trkpt lat="45.74856" lon="6.79865">
        <ele>2511</ele>
        <time>2019-10-06T09:14:57Z</time>
      </trkpt>
      <trkpt lat="45.74856" lon="6.79861">
        <ele>2511</ele>
        <time>2019-10-06T09:14:58Z</time>
      </trkpt>
      <trkpt lat="45.74855" lon="6.79858">
        <ele>2510</ele>
        <time>2019-10-06T09:14:59Z</time>
      </trkpt>
      <trkpt lat="45.74854" lon="6.79854">
        <ele>2510</ele>
        <time>2019-10-06T09:15:00Z</time>
      </trkpt>
      <trkpt lat="45.74854" lon="6.79851">
        <ele>2507</ele>
        <time>2019-10-06T09:15:01Z</time>
      </trkpt>
      <trkpt lat="45.74853" lon="6.79848">
        <ele>2507</ele>
        <time>2019-10-06T09:15:02Z</time>
      </trkpt>
      <trkpt lat="45.74852" lon="6.79845">
        <ele>2505</ele>
        <time>2019-10-06T09:15:03Z</time>
      </trkpt>
      <trkpt lat="45.74851" lon="6.79841">
        <ele>2505</ele>
        <time>2019-10-06T09:15:04Z</time>
      </trkpt>
      <trkpt lat="45.7485" lon="6.79838">
        <ele>2505</ele>
        <time>2019-10-06T09:15:05Z</time>
      </trkpt>
      <trkpt lat="45.74849" lon="6.79835">
        <ele>2505</ele>
        <time>2019-10-06T09:15:06Z</time>
      </trkpt>
      <trkpt lat="45.74848" lon="6.79832">
        <ele>2504</ele>
        <time>2019-10-06T09:15:07Z</time>
      </trkpt>
      <trkpt lat="45.74846" lon="6.79829">
        <ele>2504</ele>
        <time>2019-10-06T09:15:08Z</time>
      </trkpt>
      <trkpt lat="45.74844" lon="6.79827">
        <ele>2503</ele>
        <time>2019-10-06T09:15:09Z</time>
      </trkpt>
      <trkpt lat="45.74843" lon="6.79823">
        <ele>2503</ele>
        <time>2019-10-06T09:15:10Z</time>
      </trkpt>
      <trkpt lat="45.74841" lon="6.7982">
        <ele>2502</ele>
        <time>2019-10-06T09:15:11Z</time>
      </trkpt>
      <trkpt lat="45.74839" lon="6.79818">
        <ele>2501</ele>
        <time>2019-10-06T09:15:12Z</time>
      </trkpt>
      <trkpt lat="45.74838" lon="6.79815">
        <ele>2501</ele>
        <time>2019-10-06T09:15:13Z</time>
      </trkpt>
      <trkpt lat="45.74837" lon="6.79812">
        <ele>2500</ele>
        <time>2019-10-06T09:15:14Z</time>
      </trkpt>
      <trkpt lat="45.74835" lon="6.79809">
        <ele>2500</ele>
        <time>2019-10-06T09:15:15Z</time>
      </trkpt>
      <trkpt lat="45.74834" lon="6.79805">
        <ele>2499</ele>
        <time>2019-10-06T09:15:16Z</time>
      </trkpt>
      <trkpt lat="45.74833" lon="6.79802">
        <ele>2498</ele>
        <time>2019-10-06T09:15:17Z</time>
      </trkpt>
      <trkpt lat="45.74832" lon="6.79799">
        <ele>2498</ele>
        <time>2019-10-06T09:15:18Z</time>
      </trkpt>
      <trkpt lat="45.74831" lon="6.79796">
        <ele>2496</ele>
        <time>2019-10-06T09:15:19Z</time>
      </trkpt>
      <trkpt lat="45.7483" lon="6.79793">
        <ele>2496</ele>
        <time>2019-10-06T09:15:20Z</time>
      </trkpt>
      <trkpt lat="45.74829" lon="6.79791">
        <ele>2496</ele>
        <time>2019-10-06T09:15:21Z</time>
      </trkpt>
      <trkpt lat="45.74828" lon="6.79789">
        <ele>2495</ele>
        <time>2019-10-06T09:15:22Z</time>
      </trkpt>
      <trkpt lat="45.74826" lon="6.79786">
        <ele>2495</ele>
        <time>2019-10-06T09:15:23Z</time>
      </trkpt>
      <trkpt lat="45.74825" lon="6.79784">
        <ele>2494</ele>
        <time>2019-10-06T09:15:24Z</time>
      </trkpt>
      <trkpt lat="45.74824" lon="6.79782">
        <ele>2494</ele>
        <time>2019-10-06T09:15:25Z</time>
      </trkpt>
      <trkpt lat="45.74823" lon="6.79779">
        <ele>2493</ele>
        <time>2019-10-06T09:15:26Z</time>
      </trkpt>
      <trkpt lat="45.74822" lon="6.79776">
        <ele>2493</ele>
        <time>2019-10-06T09:15:27Z</time>
      </trkpt>
      <trkpt lat="45.74821" lon="6.79772">
        <ele>2492</ele>
        <time>2019-10-06T09:15:29Z</time>
      </trkpt>
      <trkpt lat="45.74819" lon="6.79769">
        <ele>2491</ele>
        <time>2019-10-06T09:15:30Z</time>
      </trkpt>
      <trkpt lat="45.74818" lon="6.79767">
        <ele>2491</ele>
        <time>2019-10-06T09:15:31Z</time>
      </trkpt>
      <trkpt lat="45.74816" lon="6.79766">
        <ele>2491</ele>
        <time>2019-10-06T09:15:32Z</time>
      </trkpt>
      <trkpt lat="45.74814" lon="6.79765">
        <ele>2490</ele>
        <time>2019-10-06T09:15:33Z</time>
      </trkpt>
      <trkpt lat="45.74811" lon="6.79764">
        <ele>2489</ele>
        <time>2019-10-06T09:15:34Z</time>
      </trkpt>
      <trkpt lat="45.74809" lon="6.79763">
        <ele>2488</ele>
        <time>2019-10-06T09:15:35Z</time>
      </trkpt>
      <trkpt lat="45.74807" lon="6.79762">
        <ele>2487</ele>
        <time>2019-10-06T09:15:36Z</time>
      </trkpt>
      <trkpt lat="45.74805" lon="6.7976">
        <ele>2487</ele>
        <time>2019-10-06T09:15:37Z</time>
      </trkpt>
      <trkpt lat="45.74802" lon="6.79759">
        <ele>2486</ele>
        <time>2019-10-06T09:15:38Z</time>
      </trkpt>
      <trkpt lat="45.74801" lon="6.79757">
        <ele>2486</ele>
        <time>2019-10-06T09:15:39Z</time>
      </trkpt>
      <trkpt lat="45.74799" lon="6.79756">
        <ele>2486</ele>
        <time>2019-10-06T09:15:40Z</time>
      </trkpt>
      <trkpt lat="45.74797" lon="6.79755">
        <ele>2484</ele>
        <time>2019-10-06T09:15:41Z</time>
      </trkpt>
      <trkpt lat="45.74795" lon="6.79753">
        <ele>2483</ele>
        <time>2019-10-06T09:15:42Z</time>
      </trkpt>
      <trkpt lat="45.74793" lon="6.79751">
        <ele>2482</ele>
        <time>2019-10-06T09:15:43Z</time>
      </trkpt>
      <trkpt lat="45.74792" lon="6.79748">
        <ele>2482</ele>
        <time>2019-10-06T09:15:44Z</time>
      </trkpt>
      <trkpt lat="45.74791" lon="6.79746">
        <ele>2481</ele>
        <time>2019-10-06T09:15:45Z</time>
      </trkpt>
      <trkpt lat="45.74789" lon="6.79742">
        <ele>2481</ele>
        <time>2019-10-06T09:15:46Z</time>
      </trkpt>
      <trkpt lat="45.74788" lon="6.79741">
        <ele>2481</ele>
        <time>2019-10-06T09:15:47Z</time>
      </trkpt>
      <trkpt lat="45.74786" lon="6.79739">
        <ele>2480</ele>
        <time>2019-10-06T09:15:48Z</time>
      </trkpt>
      <trkpt lat="45.74785" lon="6.79737">
        <ele>2480</ele>
        <time>2019-10-06T09:15:49Z</time>
      </trkpt>
      <trkpt lat="45.74784" lon="6.79735">
        <ele>2479</ele>
        <time>2019-10-06T09:15:50Z</time>
      </trkpt>
      <trkpt lat="45.74782" lon="6.79732">
        <ele>2479</ele>
        <time>2019-10-06T09:15:51Z</time>
      </trkpt>
      <trkpt lat="45.74781" lon="6.7973">
        <ele>2478</ele>
        <time>2019-10-06T09:15:52Z</time>
      </trkpt>
      <trkpt lat="45.7478" lon="6.79728">
        <ele>2478</ele>
        <time>2019-10-06T09:15:53Z</time>
      </trkpt>
      <trkpt lat="45.74778" lon="6.79725">
        <ele>2478</ele>
        <time>2019-10-06T09:15:54Z</time>
      </trkpt>
      <trkpt lat="45.74777" lon="6.79722">
        <ele>2477</ele>
        <time>2019-10-06T09:15:55Z</time>
      </trkpt>
      <trkpt lat="45.74776" lon="6.79718">
        <ele>2477</ele>
        <time>2019-10-06T09:15:56Z</time>
      </trkpt>
      <trkpt lat="45.74775" lon="6.79715">
        <ele>2476</ele>
        <time>2019-10-06T09:15:57Z</time>
      </trkpt>
      <trkpt lat="45.74774" lon="6.79712">
        <ele>2475</ele>
        <time>2019-10-06T09:15:58Z</time>
      </trkpt>
      <trkpt lat="45.74773" lon="6.79709">
        <ele>2475</ele>
        <time>2019-10-06T09:15:59Z</time>
      </trkpt>
      <trkpt lat="45.74772" lon="6.79706">
        <ele>2475</ele>
        <time>2019-10-06T09:16:00Z</time>
      </trkpt>
      <trkpt lat="45.74771" lon="6.79703">
        <ele>2475</ele>
        <time>2019-10-06T09:16:01Z</time>
      </trkpt>
      <trkpt lat="45.7477" lon="6.797">
        <ele>2475</ele>
        <time>2019-10-06T09:16:02Z</time>
      </trkpt>
      <trkpt lat="45.74768" lon="6.79698">
        <ele>2475</ele>
        <time>2019-10-06T09:16:03Z</time>
      </trkpt>
      <trkpt lat="45.74767" lon="6.79695">
        <ele>2474</ele>
        <time>2019-10-06T09:16:04Z</time>
      </trkpt>
      <trkpt lat="45.74766" lon="6.79692">
        <ele>2474</ele>
        <time>2019-10-06T09:16:05Z</time>
      </trkpt>
      <trkpt lat="45.74765" lon="6.7969">
        <ele>2474</ele>
        <time>2019-10-06T09:16:06Z</time>
      </trkpt>
      <trkpt lat="45.74764" lon="6.79687">
        <ele>2472</ele>
        <time>2019-10-06T09:16:07Z</time>
      </trkpt>
      <trkpt lat="45.74763" lon="6.79684">
        <ele>2472</ele>
        <time>2019-10-06T09:16:08Z</time>
      </trkpt>
      <trkpt lat="45.74762" lon="6.79681">
        <ele>2474</ele>
        <time>2019-10-06T09:16:09Z</time>
      </trkpt>
      <trkpt lat="45.7476" lon="6.79678">
        <ele>2474</ele>
        <time>2019-10-06T09:16:10Z</time>
      </trkpt>
      <trkpt lat="45.74759" lon="6.79676">
        <ele>2472</ele>
        <time>2019-10-06T09:16:11Z</time>
      </trkpt>
      <trkpt lat="45.74758" lon="6.79673">
        <ele>2472</ele>
        <time>2019-10-06T09:16:12Z</time>
      </trkpt>
      <trkpt lat="45.74757" lon="6.79671">
        <ele>2472</ele>
        <time>2019-10-06T09:16:13Z</time>
      </trkpt>
      <trkpt lat="45.74756" lon="6.79668">
        <ele>2472</ele>
        <time>2019-10-06T09:16:14Z</time>
      </trkpt>
      <trkpt lat="45.74755" lon="6.79666">
        <ele>2471</ele>
        <time>2019-10-06T09:16:15Z</time>
      </trkpt>
      <trkpt lat="45.74754" lon="6.79663">
        <ele>2471</ele>
        <time>2019-10-06T09:16:16Z</time>
      </trkpt>
      <trkpt lat="45.74754" lon="6.79661">
        <ele>2470</ele>
        <time>2019-10-06T09:16:17Z</time>
      </trkpt>
      <trkpt lat="45.74753" lon="6.79658">
        <ele>2470</ele>
        <time>2019-10-06T09:16:18Z</time>
      </trkpt>
      <trkpt lat="45.74752" lon="6.79655">
        <ele>2470</ele>
        <time>2019-10-06T09:16:19Z</time>
      </trkpt>
      <trkpt lat="45.74751" lon="6.79653">
        <ele>2469</ele>
        <time>2019-10-06T09:16:20Z</time>
      </trkpt>
      <trkpt lat="45.7475" lon="6.7965">
        <ele>2469</ele>
        <time>2019-10-06T09:16:21Z</time>
      </trkpt>
      <trkpt lat="45.74749" lon="6.79645">
        <ele>2468</ele>
        <time>2019-10-06T09:16:23Z</time>
      </trkpt>
      <trkpt lat="45.74747" lon="6.79641">
        <ele>2468</ele>
        <time>2019-10-06T09:16:25Z</time>
      </trkpt>
      <trkpt lat="45.74746" lon="6.79638">
        <ele>2468</ele>
        <time>2019-10-06T09:16:26Z</time>
      </trkpt>
      <trkpt lat="45.74745" lon="6.79636">
        <ele>2468</ele>
        <time>2019-10-06T09:16:27Z</time>
      </trkpt>
      <trkpt lat="45.74745" lon="6.79633">
        <ele>2468</ele>
        <time>2019-10-06T09:16:28Z</time>
      </trkpt>
      <trkpt lat="45.74743" lon="6.79629">
        <ele>2468</ele>
        <time>2019-10-06T09:16:30Z</time>
      </trkpt>
      <trkpt lat="45.74742" lon="6.79624">
        <ele>2467</ele>
        <time>2019-10-06T09:16:32Z</time>
      </trkpt>
      <trkpt lat="45.74741" lon="6.79621">
        <ele>2467</ele>
        <time>2019-10-06T09:16:33Z</time>
      </trkpt>
      <trkpt lat="45.7474" lon="6.79619">
        <ele>2467</ele>
        <time>2019-10-06T09:16:34Z</time>
      </trkpt>
      <trkpt lat="45.7474" lon="6.79616">
        <ele>2466</ele>
        <time>2019-10-06T09:16:35Z</time>
      </trkpt>
      <trkpt lat="45.7474" lon="6.79613">
        <ele>2466</ele>
        <time>2019-10-06T09:16:36Z</time>
      </trkpt>
      <trkpt lat="45.74739" lon="6.7961">
        <ele>2466</ele>
        <time>2019-10-06T09:16:37Z</time>
      </trkpt>
      <trkpt lat="45.74738" lon="6.79608">
        <ele>2466</ele>
        <time>2019-10-06T09:16:38Z</time>
      </trkpt>
      <trkpt lat="45.74738" lon="6.79605">
        <ele>2466</ele>
        <time>2019-10-06T09:16:39Z</time>
      </trkpt>
      <trkpt lat="45.74737" lon="6.79603">
        <ele>2465</ele>
        <time>2019-10-06T09:16:40Z</time>
      </trkpt>
      <trkpt lat="45.74735" lon="6.796">
        <ele>2465</ele>
        <time>2019-10-06T09:16:42Z</time>
      </trkpt>
      <trkpt lat="45.74733" lon="6.79598">
        <ele>2464</ele>
        <time>2019-10-06T09:16:43Z</time>
      </trkpt>
      <trkpt lat="45.74732" lon="6.79596">
        <ele>2463</ele>
        <time>2019-10-06T09:16:44Z</time>
      </trkpt>
      <trkpt lat="45.74731" lon="6.79593">
        <ele>2463</ele>
        <time>2019-10-06T09:16:45Z</time>
      </trkpt>
      <trkpt lat="45.74729" lon="6.7959">
        <ele>2463</ele>
        <time>2019-10-06T09:16:46Z</time>
      </trkpt>
      <trkpt lat="45.74728" lon="6.79588">
        <ele>2463</ele>
        <time>2019-10-06T09:16:47Z</time>
      </trkpt>
      <trkpt lat="45.74727" lon="6.79585">
        <ele>2462</ele>
        <time>2019-10-06T09:16:48Z</time>
      </trkpt>
      <trkpt lat="45.74726" lon="6.79583">
        <ele>2462</ele>
        <time>2019-10-06T09:16:49Z</time>
      </trkpt>
      <trkpt lat="45.74724" lon="6.7958">
        <ele>2462</ele>
        <time>2019-10-06T09:16:50Z</time>
      </trkpt>
      <trkpt lat="45.74723" lon="6.79577">
        <ele>2461</ele>
        <time>2019-10-06T09:16:51Z</time>
      </trkpt>
      <trkpt lat="45.74722" lon="6.79574">
        <ele>2461</ele>
        <time>2019-10-06T09:16:52Z</time>
      </trkpt>
      <trkpt lat="45.7472" lon="6.79572">
        <ele>2461</ele>
        <time>2019-10-06T09:16:53Z</time>
      </trkpt>
      <trkpt lat="45.74719" lon="6.79569">
        <ele>2461</ele>
        <time>2019-10-06T09:16:54Z</time>
      </trkpt>
      <trkpt lat="45.74718" lon="6.79566">
        <ele>2461</ele>
        <time>2019-10-06T09:16:55Z</time>
      </trkpt>
      <trkpt lat="45.74716" lon="6.79563">
        <ele>2461</ele>
        <time>2019-10-06T09:16:56Z</time>
      </trkpt>
      <trkpt lat="45.74715" lon="6.79561">
        <ele>2460</ele>
        <time>2019-10-06T09:16:57Z</time>
      </trkpt>
      <trkpt lat="45.74713" lon="6.79558">
        <ele>2459</ele>
        <time>2019-10-06T09:16:58Z</time>
      </trkpt>
      <trkpt lat="45.74712" lon="6.79556">
        <ele>2459</ele>
        <time>2019-10-06T09:16:59Z</time>
      </trkpt>
      <trkpt lat="45.74711" lon="6.79553">
        <ele>2458</ele>
        <time>2019-10-06T09:17:00Z</time>
      </trkpt>
      <trkpt lat="45.7471" lon="6.7955">
        <ele>2458</ele>
        <time>2019-10-06T09:17:01Z</time>
      </trkpt>
      <trkpt lat="45.74709" lon="6.79548">
        <ele>2457</ele>
        <time>2019-10-06T09:17:02Z</time>
      </trkpt>
      <trkpt lat="45.74708" lon="6.79546">
        <ele>2457</ele>
        <time>2019-10-06T09:17:03Z</time>
      </trkpt>
      <trkpt lat="45.74707" lon="6.79543">
        <ele>2457</ele>
        <time>2019-10-06T09:17:04Z</time>
      </trkpt>
      <trkpt lat="45.74706" lon="6.7954">
        <ele>2457</ele>
        <time>2019-10-06T09:17:05Z</time>
      </trkpt>
      <trkpt lat="45.74705" lon="6.79537">
        <ele>2457</ele>
        <time>2019-10-06T09:17:06Z</time>
      </trkpt>
      <trkpt lat="45.74704" lon="6.79535">
        <ele>2457</ele>
        <time>2019-10-06T09:17:07Z</time>
      </trkpt>
      <trkpt lat="45.74703" lon="6.79532">
        <ele>2456</ele>
        <time>2019-10-06T09:17:08Z</time>
      </trkpt>
      <trkpt lat="45.74702" lon="6.79529">
        <ele>2456</ele>
        <time>2019-10-06T09:17:09Z</time>
      </trkpt>
      <trkpt lat="45.74701" lon="6.79527">
        <ele>2454</ele>
        <time>2019-10-06T09:17:10Z</time>
      </trkpt>
      <trkpt lat="45.747" lon="6.79524">
        <ele>2454</ele>
        <time>2019-10-06T09:17:11Z</time>
      </trkpt>
      <trkpt lat="45.74699" lon="6.79521">
        <ele>2454</ele>
        <time>2019-10-06T09:17:12Z</time>
      </trkpt>
      <trkpt lat="45.74697" lon="6.79519">
        <ele>2454</ele>
        <time>2019-10-06T09:17:13Z</time>
      </trkpt>
      <trkpt lat="45.74696" lon="6.79518">
        <ele>2454</ele>
        <time>2019-10-06T09:17:14Z</time>
      </trkpt>
      <trkpt lat="45.74694" lon="6.79516">
        <ele>2452</ele>
        <time>2019-10-06T09:17:15Z</time>
      </trkpt>
      <trkpt lat="45.74693" lon="6.79513">
        <ele>2451</ele>
        <time>2019-10-06T09:17:16Z</time>
      </trkpt>
      <trkpt lat="45.74692" lon="6.79511">
        <ele>2452</ele>
        <time>2019-10-06T09:17:17Z</time>
      </trkpt>
      <trkpt lat="45.74691" lon="6.79508">
        <ele>2452</ele>
        <time>2019-10-06T09:17:18Z</time>
      </trkpt>
      <trkpt lat="45.7469" lon="6.79506">
        <ele>2451</ele>
        <time>2019-10-06T09:17:19Z</time>
      </trkpt>
      <trkpt lat="45.74688" lon="6.79503">
        <ele>2451</ele>
        <time>2019-10-06T09:17:20Z</time>
      </trkpt>
      <trkpt lat="45.74688" lon="6.795">
        <ele>2451</ele>
        <time>2019-10-06T09:17:21Z</time>
      </trkpt>
      <trkpt lat="45.74687" lon="6.79498">
        <ele>2450</ele>
        <time>2019-10-06T09:17:22Z</time>
      </trkpt>
      <trkpt lat="45.74686" lon="6.79495">
        <ele>2449</ele>
        <time>2019-10-06T09:17:23Z</time>
      </trkpt>
      <trkpt lat="45.74685" lon="6.79493">
        <ele>2449</ele>
        <time>2019-10-06T09:17:24Z</time>
      </trkpt>
      <trkpt lat="45.74684" lon="6.79491">
        <ele>2449</ele>
        <time>2019-10-06T09:17:25Z</time>
      </trkpt>
      <trkpt lat="45.74682" lon="6.79489">
        <ele>2449</ele>
        <time>2019-10-06T09:17:26Z</time>
      </trkpt>
      <trkpt lat="45.7468" lon="6.79487">
        <ele>2448</ele>
        <time>2019-10-06T09:17:27Z</time>
      </trkpt>
      <trkpt lat="45.74679" lon="6.79485">
        <ele>2448</ele>
        <time>2019-10-06T09:17:28Z</time>
      </trkpt>
      <trkpt lat="45.74678" lon="6.79482">
        <ele>2448</ele>
        <time>2019-10-06T09:17:29Z</time>
      </trkpt>
      <trkpt lat="45.74678" lon="6.79479">
        <ele>2447</ele>
        <time>2019-10-06T09:17:30Z</time>
      </trkpt>
      <trkpt lat="45.74677" lon="6.79476">
        <ele>2446</ele>
        <time>2019-10-06T09:17:31Z</time>
      </trkpt>
      <trkpt lat="45.74677" lon="6.79473">
        <ele>2446</ele>
        <time>2019-10-06T09:17:32Z</time>
      </trkpt>
      <trkpt lat="45.74676" lon="6.79471">
        <ele>2446</ele>
        <time>2019-10-06T09:17:33Z</time>
      </trkpt>
      <trkpt lat="45.74676" lon="6.79468">
        <ele>2446</ele>
        <time>2019-10-06T09:17:34Z</time>
      </trkpt>
      <trkpt lat="45.74675" lon="6.79465">
        <ele>2446</ele>
        <time>2019-10-06T09:17:35Z</time>
      </trkpt>
      <trkpt lat="45.74674" lon="6.79462">
        <ele>2445</ele>
        <time>2019-10-06T09:17:36Z</time>
      </trkpt>
      <trkpt lat="45.74673" lon="6.7946">
        <ele>2445</ele>
        <time>2019-10-06T09:17:37Z</time>
      </trkpt>
      <trkpt lat="45.74672" lon="6.79458">
        <ele>2445</ele>
        <time>2019-10-06T09:17:38Z</time>
      </trkpt>
      <trkpt lat="45.74671" lon="6.79455">
        <ele>2444</ele>
        <time>2019-10-06T09:17:39Z</time>
      </trkpt>
      <trkpt lat="45.74671" lon="6.79453">
        <ele>2443</ele>
        <time>2019-10-06T09:17:40Z</time>
      </trkpt>
      <trkpt lat="45.7467" lon="6.7945">
        <ele>2443</ele>
        <time>2019-10-06T09:17:41Z</time>
      </trkpt>
      <trkpt lat="45.7467" lon="6.79448">
        <ele>2443</ele>
        <time>2019-10-06T09:17:42Z</time>
      </trkpt>
      <trkpt lat="45.7467" lon="6.79443">
        <ele>2441</ele>
        <time>2019-10-06T09:17:44Z</time>
      </trkpt>
      <trkpt lat="45.74668" lon="6.79438">
        <ele>2441</ele>
        <time>2019-10-06T09:17:46Z</time>
      </trkpt>
      <trkpt lat="45.74666" lon="6.79434">
        <ele>2441</ele>
        <time>2019-10-06T09:17:48Z</time>
      </trkpt>
      <trkpt lat="45.74667" lon="6.79429">
        <ele>2440</ele>
        <time>2019-10-06T09:17:50Z</time>
      </trkpt>
      <trkpt lat="45.74666" lon="6.79426">
        <ele>2439</ele>
        <time>2019-10-06T09:17:51Z</time>
      </trkpt>
      <trkpt lat="45.74665" lon="6.79422">
        <ele>2439</ele>
        <time>2019-10-06T09:17:53Z</time>
      </trkpt>
      <trkpt lat="45.74664" lon="6.79419">
        <ele>2439</ele>
        <time>2019-10-06T09:17:54Z</time>
      </trkpt>
      <trkpt lat="45.74663" lon="6.79415">
        <ele>2438</ele>
        <time>2019-10-06T09:17:56Z</time>
      </trkpt>
      <trkpt lat="45.74661" lon="6.79411">
        <ele>2438</ele>
        <time>2019-10-06T09:17:58Z</time>
      </trkpt>
      <trkpt lat="45.7466" lon="6.79409">
        <ele>2437</ele>
        <time>2019-10-06T09:17:59Z</time>
      </trkpt>
      <trkpt lat="45.74659" lon="6.79407">
        <ele>2436</ele>
        <time>2019-10-06T09:18:00Z</time>
      </trkpt>
      <trkpt lat="45.74658" lon="6.79404">
        <ele>2436</ele>
        <time>2019-10-06T09:18:01Z</time>
      </trkpt>
      <trkpt lat="45.74658" lon="6.79401">
        <ele>2436</ele>
        <time>2019-10-06T09:18:02Z</time>
      </trkpt>
      <trkpt lat="45.74657" lon="6.79399">
        <ele>2435</ele>
        <time>2019-10-06T09:18:03Z</time>
      </trkpt>
      <trkpt lat="45.74655" lon="6.79394">
        <ele>2435</ele>
        <time>2019-10-06T09:18:05Z</time>
      </trkpt>
      <trkpt lat="45.74654" lon="6.79392">
        <ele>2435</ele>
        <time>2019-10-06T09:18:06Z</time>
      </trkpt>
      <trkpt lat="45.74653" lon="6.7939">
        <ele>2434</ele>
        <time>2019-10-06T09:18:07Z</time>
      </trkpt>
      <trkpt lat="45.74652" lon="6.79388">
        <ele>2434</ele>
        <time>2019-10-06T09:18:08Z</time>
      </trkpt>
      <trkpt lat="45.74651" lon="6.79386">
        <ele>2434</ele>
        <time>2019-10-06T09:18:09Z</time>
      </trkpt>
      <trkpt lat="45.7465" lon="6.79383">
        <ele>2434</ele>
        <time>2019-10-06T09:18:10Z</time>
      </trkpt>
      <trkpt lat="45.74647" lon="6.7938">
        <ele>2434</ele>
        <time>2019-10-06T09:18:12Z</time>
      </trkpt>
      <trkpt lat="45.74646" lon="6.79378">
        <ele>2433</ele>
        <time>2019-10-06T09:18:13Z</time>
      </trkpt>
      <trkpt lat="45.74643" lon="6.79374">
        <ele>2432</ele>
        <time>2019-10-06T09:18:15Z</time>
      </trkpt>
      <trkpt lat="45.74642" lon="6.79372">
        <ele>2432</ele>
        <time>2019-10-06T09:18:16Z</time>
      </trkpt>
      <trkpt lat="45.74641" lon="6.7937">
        <ele>2431</ele>
        <time>2019-10-06T09:18:17Z</time>
      </trkpt>
      <trkpt lat="45.7464" lon="6.79367">
        <ele>2431</ele>
        <time>2019-10-06T09:18:18Z</time>
      </trkpt>
      <trkpt lat="45.74639" lon="6.79365">
        <ele>2430</ele>
        <time>2019-10-06T09:18:19Z</time>
      </trkpt>
      <trkpt lat="45.74639" lon="6.79362">
        <ele>2430</ele>
        <time>2019-10-06T09:18:20Z</time>
      </trkpt>
      <trkpt lat="45.74638" lon="6.7936">
        <ele>2430</ele>
        <time>2019-10-06T09:18:21Z</time>
      </trkpt>
      <trkpt lat="45.74638" lon="6.79357">
        <ele>2430</ele>
        <time>2019-10-06T09:18:22Z</time>
      </trkpt>
      <trkpt lat="45.74637" lon="6.79354">
        <ele>2428</ele>
        <time>2019-10-06T09:18:23Z</time>
      </trkpt>
      <trkpt lat="45.74637" lon="6.79351">
        <ele>2428</ele>
        <time>2019-10-06T09:18:24Z</time>
      </trkpt>
      <trkpt lat="45.74636" lon="6.79349">
        <ele>2428</ele>
        <time>2019-10-06T09:18:25Z</time>
      </trkpt>
      <trkpt lat="45.74635" lon="6.79346">
        <ele>2427</ele>
        <time>2019-10-06T09:18:26Z</time>
      </trkpt>
      <trkpt lat="45.74634" lon="6.79344">
        <ele>2427</ele>
        <time>2019-10-06T09:18:27Z</time>
      </trkpt>
      <trkpt lat="45.74634" lon="6.79341">
        <ele>2426</ele>
        <time>2019-10-06T09:18:28Z</time>
      </trkpt>
      <trkpt lat="45.74633" lon="6.79338">
        <ele>2425</ele>
        <time>2019-10-06T09:18:29Z</time>
      </trkpt>
      <trkpt lat="45.74632" lon="6.79335">
        <ele>2425</ele>
        <time>2019-10-06T09:18:30Z</time>
      </trkpt>
      <trkpt lat="45.74631" lon="6.79333">
        <ele>2425</ele>
        <time>2019-10-06T09:18:31Z</time>
      </trkpt>
      <trkpt lat="45.74631" lon="6.7933">
        <ele>2423</ele>
        <time>2019-10-06T09:18:32Z</time>
      </trkpt>
      <trkpt lat="45.74631" lon="6.79327">
        <ele>2422</ele>
        <time>2019-10-06T09:18:33Z</time>
      </trkpt>
      <trkpt lat="45.74631" lon="6.79324">
        <ele>2422</ele>
        <time>2019-10-06T09:18:34Z</time>
      </trkpt>
      <trkpt lat="45.7463" lon="6.79321">
        <ele>2422</ele>
        <time>2019-10-06T09:18:35Z</time>
      </trkpt>
      <trkpt lat="45.74629" lon="6.79318">
        <ele>2422</ele>
        <time>2019-10-06T09:18:36Z</time>
      </trkpt>
      <trkpt lat="45.74629" lon="6.79315">
        <ele>2422</ele>
        <time>2019-10-06T09:18:37Z</time>
      </trkpt>
      <trkpt lat="45.74628" lon="6.79313">
        <ele>2422</ele>
        <time>2019-10-06T09:18:38Z</time>
      </trkpt>
      <trkpt lat="45.74628" lon="6.7931">
        <ele>2421</ele>
        <time>2019-10-06T09:18:39Z</time>
      </trkpt>
      <trkpt lat="45.74627" lon="6.79307">
        <ele>2421</ele>
        <time>2019-10-06T09:18:40Z</time>
      </trkpt>
      <trkpt lat="45.74626" lon="6.79304">
        <ele>2421</ele>
        <time>2019-10-06T09:18:41Z</time>
      </trkpt>
      <trkpt lat="45.74625" lon="6.79302">
        <ele>2420</ele>
        <time>2019-10-06T09:18:42Z</time>
      </trkpt>
      <trkpt lat="45.74624" lon="6.79299">
        <ele>2420</ele>
        <time>2019-10-06T09:18:43Z</time>
      </trkpt>
      <trkpt lat="45.74624" lon="6.79296">
        <ele>2420</ele>
        <time>2019-10-06T09:18:44Z</time>
      </trkpt>
      <trkpt lat="45.74623" lon="6.79294">
        <ele>2420</ele>
        <time>2019-10-06T09:18:45Z</time>
      </trkpt>
      <trkpt lat="45.74622" lon="6.79291">
        <ele>2419</ele>
        <time>2019-10-06T09:18:46Z</time>
      </trkpt>
      <trkpt lat="45.74622" lon="6.79288">
        <ele>2418</ele>
        <time>2019-10-06T09:18:47Z</time>
      </trkpt>
      <trkpt lat="45.74621" lon="6.79284">
        <ele>2417</ele>
        <time>2019-10-06T09:18:49Z</time>
      </trkpt>
      <trkpt lat="45.74619" lon="6.7928">
        <ele>2417</ele>
        <time>2019-10-06T09:18:51Z</time>
      </trkpt>
      <trkpt lat="45.74617" lon="6.79278">
        <ele>2417</ele>
        <time>2019-10-06T09:18:52Z</time>
      </trkpt>
      <trkpt lat="45.74614" lon="6.79275">
        <ele>2416</ele>
        <time>2019-10-06T09:18:54Z</time>
      </trkpt>
      <trkpt lat="45.74612" lon="6.79273">
        <ele>2415</ele>
        <time>2019-10-06T09:18:56Z</time>
      </trkpt>
      <trkpt lat="45.7461" lon="6.79271">
        <ele>2415</ele>
        <time>2019-10-06T09:18:57Z</time>
      </trkpt>
      <trkpt lat="45.74609" lon="6.79268">
        <ele>2415</ele>
        <time>2019-10-06T09:18:58Z</time>
      </trkpt>
      <trkpt lat="45.74608" lon="6.79265">
        <ele>2414</ele>
        <time>2019-10-06T09:18:59Z</time>
      </trkpt>
      <trkpt lat="45.74608" lon="6.79262">
        <ele>2413</ele>
        <time>2019-10-06T09:19:00Z</time>
      </trkpt>
      <trkpt lat="45.74608" lon="6.79259">
        <ele>2413</ele>
        <time>2019-10-06T09:19:01Z</time>
      </trkpt>
      <trkpt lat="45.74608" lon="6.79256">
        <ele>2412</ele>
        <time>2019-10-06T09:19:02Z</time>
      </trkpt>
      <trkpt lat="45.74607" lon="6.79253">
        <ele>2412</ele>
        <time>2019-10-06T09:19:03Z</time>
      </trkpt>
      <trkpt lat="45.74607" lon="6.79251">
        <ele>2412</ele>
        <time>2019-10-06T09:19:04Z</time>
      </trkpt>
      <trkpt lat="45.74606" lon="6.79248">
        <ele>2412</ele>
        <time>2019-10-06T09:19:05Z</time>
      </trkpt>
      <trkpt lat="45.74606" lon="6.79245">
        <ele>2411</ele>
        <time>2019-10-06T09:19:06Z</time>
      </trkpt>
      <trkpt lat="45.74605" lon="6.79242">
        <ele>2411</ele>
        <time>2019-10-06T09:19:07Z</time>
      </trkpt>
      <trkpt lat="45.74605" lon="6.79239">
        <ele>2410</ele>
        <time>2019-10-06T09:19:08Z</time>
      </trkpt>
      <trkpt lat="45.74605" lon="6.79236">
        <ele>2410</ele>
        <time>2019-10-06T09:19:09Z</time>
      </trkpt>
      <trkpt lat="45.74604" lon="6.79233">
        <ele>2410</ele>
        <time>2019-10-06T09:19:10Z</time>
      </trkpt>
      <trkpt lat="45.74604" lon="6.7923">
        <ele>2409</ele>
        <time>2019-10-06T09:19:11Z</time>
      </trkpt>
      <trkpt lat="45.74603" lon="6.79228">
        <ele>2408</ele>
        <time>2019-10-06T09:19:12Z</time>
      </trkpt>
      <trkpt lat="45.74603" lon="6.79225">
        <ele>2408</ele>
        <time>2019-10-06T09:19:13Z</time>
      </trkpt>
      <trkpt lat="45.74603" lon="6.79221">
        <ele>2408</ele>
        <time>2019-10-06T09:19:14Z</time>
      </trkpt>
      <trkpt lat="45.74602" lon="6.79217">
        <ele>2407</ele>
        <time>2019-10-06T09:19:15Z</time>
      </trkpt>
      <trkpt lat="45.74602" lon="6.79215">
        <ele>2406</ele>
        <time>2019-10-06T09:19:16Z</time>
      </trkpt>
      <trkpt lat="45.74602" lon="6.79212">
        <ele>2406</ele>
        <time>2019-10-06T09:19:17Z</time>
      </trkpt>
      <trkpt lat="45.74603" lon="6.79208">
        <ele>2405</ele>
        <time>2019-10-06T09:19:18Z</time>
      </trkpt>
      <trkpt lat="45.74603" lon="6.79205">
        <ele>2405</ele>
        <time>2019-10-06T09:19:19Z</time>
      </trkpt>
      <trkpt lat="45.74602" lon="6.79202">
        <ele>2404</ele>
        <time>2019-10-06T09:19:20Z</time>
      </trkpt>
      <trkpt lat="45.74602" lon="6.792">
        <ele>2402</ele>
        <time>2019-10-06T09:19:21Z</time>
      </trkpt>
      <trkpt lat="45.74602" lon="6.79197">
        <ele>2402</ele>
        <time>2019-10-06T09:19:22Z</time>
      </trkpt>
      <trkpt lat="45.74601" lon="6.79194">
        <ele>2402</ele>
        <time>2019-10-06T09:19:23Z</time>
      </trkpt>
      <trkpt lat="45.746" lon="6.79192">
        <ele>2402</ele>
        <time>2019-10-06T09:19:24Z</time>
      </trkpt>
      <trkpt lat="45.74599" lon="6.79189">
        <ele>2401</ele>
        <time>2019-10-06T09:19:25Z</time>
      </trkpt>
      <trkpt lat="45.74599" lon="6.79187">
        <ele>2401</ele>
        <time>2019-10-06T09:19:26Z</time>
      </trkpt>
      <trkpt lat="45.74598" lon="6.79184">
        <ele>2401</ele>
        <time>2019-10-06T09:19:27Z</time>
      </trkpt>
      <trkpt lat="45.74597" lon="6.79181">
        <ele>2401</ele>
        <time>2019-10-06T09:19:28Z</time>
      </trkpt>
      <trkpt lat="45.74596" lon="6.79179">
        <ele>2400</ele>
        <time>2019-10-06T09:19:29Z</time>
      </trkpt>
      <trkpt lat="45.74594" lon="6.79177">
        <ele>2400</ele>
        <time>2019-10-06T09:19:30Z</time>
      </trkpt>
      <trkpt lat="45.74593" lon="6.79175">
        <ele>2399</ele>
        <time>2019-10-06T09:19:31Z</time>
      </trkpt>
      <trkpt lat="45.74591" lon="6.79174">
        <ele>2398</ele>
        <time>2019-10-06T09:19:32Z</time>
      </trkpt>
      <trkpt lat="45.74589" lon="6.79172">
        <ele>2398</ele>
        <time>2019-10-06T09:19:33Z</time>
      </trkpt>
      <trkpt lat="45.74588" lon="6.7917">
        <ele>2398</ele>
        <time>2019-10-06T09:19:34Z</time>
      </trkpt>
      <trkpt lat="45.74586" lon="6.79169">
        <ele>2398</ele>
        <time>2019-10-06T09:19:35Z</time>
      </trkpt>
      <trkpt lat="45.74585" lon="6.79168">
        <ele>2397</ele>
        <time>2019-10-06T09:19:36Z</time>
      </trkpt>
      <trkpt lat="45.74583" lon="6.79166">
        <ele>2397</ele>
        <time>2019-10-06T09:19:37Z</time>
      </trkpt>
      <trkpt lat="45.74581" lon="6.79164">
        <ele>2396</ele>
        <time>2019-10-06T09:19:38Z</time>
      </trkpt>
      <trkpt lat="45.7458" lon="6.79162">
        <ele>2395</ele>
        <time>2019-10-06T09:19:39Z</time>
      </trkpt>
      <trkpt lat="45.74579" lon="6.7916">
        <ele>2395</ele>
        <time>2019-10-06T09:19:40Z</time>
      </trkpt>
      <trkpt lat="45.74577" lon="6.79159">
        <ele>2394</ele>
        <time>2019-10-06T09:19:41Z</time>
      </trkpt>
      <trkpt lat="45.74576" lon="6.79156">
        <ele>2394</ele>
        <time>2019-10-06T09:19:42Z</time>
      </trkpt>
      <trkpt lat="45.74574" lon="6.79154">
        <ele>2393</ele>
        <time>2019-10-06T09:19:43Z</time>
      </trkpt>
      <trkpt lat="45.74572" lon="6.79153">
        <ele>2393</ele>
        <time>2019-10-06T09:19:44Z</time>
      </trkpt>
      <trkpt lat="45.7457" lon="6.79152">
        <ele>2393</ele>
        <time>2019-10-06T09:19:45Z</time>
      </trkpt>
      <trkpt lat="45.74568" lon="6.79151">
        <ele>2392</ele>
        <time>2019-10-06T09:19:46Z</time>
      </trkpt>
      <trkpt lat="45.74566" lon="6.79151">
        <ele>2392</ele>
        <time>2019-10-06T09:19:47Z</time>
      </trkpt>
      <trkpt lat="45.74563" lon="6.79151">
        <ele>2391</ele>
        <time>2019-10-06T09:19:48Z</time>
      </trkpt>
      <trkpt lat="45.74561" lon="6.7915">
        <ele>2391</ele>
        <time>2019-10-06T09:19:49Z</time>
      </trkpt>
      <trkpt lat="45.74559" lon="6.7915">
        <ele>2390</ele>
        <time>2019-10-06T09:19:50Z</time>
      </trkpt>
      <trkpt lat="45.74556" lon="6.7915">
        <ele>2390</ele>
        <time>2019-10-06T09:19:51Z</time>
      </trkpt>
      <trkpt lat="45.74554" lon="6.79149">
        <ele>2390</ele>
        <time>2019-10-06T09:19:52Z</time>
      </trkpt>
      <trkpt lat="45.74552" lon="6.79149">
        <ele>2389</ele>
        <time>2019-10-06T09:19:53Z</time>
      </trkpt>
      <trkpt lat="45.7455" lon="6.79148">
        <ele>2389</ele>
        <time>2019-10-06T09:19:54Z</time>
      </trkpt>
      <trkpt lat="45.74547" lon="6.79147">
        <ele>2388</ele>
        <time>2019-10-06T09:19:55Z</time>
      </trkpt>
      <trkpt lat="45.74545" lon="6.79146">
        <ele>2387</ele>
        <time>2019-10-06T09:19:56Z</time>
      </trkpt>
      <trkpt lat="45.74543" lon="6.79145">
        <ele>2387</ele>
        <time>2019-10-06T09:19:57Z</time>
      </trkpt>
      <trkpt lat="45.7454" lon="6.79145">
        <ele>2386</ele>
        <time>2019-10-06T09:19:58Z</time>
      </trkpt>
      <trkpt lat="45.74538" lon="6.79144">
        <ele>2386</ele>
        <time>2019-10-06T09:19:59Z</time>
      </trkpt>
      <trkpt lat="45.74535" lon="6.79143">
        <ele>2385</ele>
        <time>2019-10-06T09:20:00Z</time>
      </trkpt>
      <trkpt lat="45.74533" lon="6.79142">
        <ele>2385</ele>
        <time>2019-10-06T09:20:01Z</time>
      </trkpt>
      <trkpt lat="45.74531" lon="6.79141">
        <ele>2384</ele>
        <time>2019-10-06T09:20:02Z</time>
      </trkpt>
      <trkpt lat="45.74529" lon="6.79139">
        <ele>2384</ele>
        <time>2019-10-06T09:20:03Z</time>
      </trkpt>
      <trkpt lat="45.74527" lon="6.79138">
        <ele>2384</ele>
        <time>2019-10-06T09:20:04Z</time>
      </trkpt>
      <trkpt lat="45.74524" lon="6.79138">
        <ele>2383</ele>
        <time>2019-10-06T09:20:05Z</time>
      </trkpt>
      <trkpt lat="45.74522" lon="6.79138">
        <ele>2383</ele>
        <time>2019-10-06T09:20:06Z</time>
      </trkpt>
      <trkpt lat="45.7452" lon="6.79139">
        <ele>2383</ele>
        <time>2019-10-06T09:20:07Z</time>
      </trkpt>
      <trkpt lat="45.74518" lon="6.79141">
        <ele>2383</ele>
        <time>2019-10-06T09:20:08Z</time>
      </trkpt>
      <trkpt lat="45.74516" lon="6.79142">
        <ele>2383</ele>
        <time>2019-10-06T09:20:09Z</time>
      </trkpt>
      <trkpt lat="45.74515" lon="6.79144">
        <ele>2382</ele>
        <time>2019-10-06T09:20:10Z</time>
      </trkpt>
      <trkpt lat="45.74513" lon="6.79146">
        <ele>2381</ele>
        <time>2019-10-06T09:20:11Z</time>
      </trkpt>
      <trkpt lat="45.74511" lon="6.79149">
        <ele>2381</ele>
        <time>2019-10-06T09:20:12Z</time>
      </trkpt>
      <trkpt lat="45.7451" lon="6.79151">
        <ele>2380</ele>
        <time>2019-10-06T09:20:13Z</time>
      </trkpt>
      <trkpt lat="45.74508" lon="6.79153">
        <ele>2379</ele>
        <time>2019-10-06T09:20:14Z</time>
      </trkpt>
      <trkpt lat="45.74506" lon="6.79154">
        <ele>2379</ele>
        <time>2019-10-06T09:20:15Z</time>
      </trkpt>
      <trkpt lat="45.74504" lon="6.79156">
        <ele>2379</ele>
        <time>2019-10-06T09:20:16Z</time>
      </trkpt>
      <trkpt lat="45.74502" lon="6.79157">
        <ele>2379</ele>
        <time>2019-10-06T09:20:17Z</time>
      </trkpt>
      <trkpt lat="45.745" lon="6.79157">
        <ele>2379</ele>
        <time>2019-10-06T09:20:18Z</time>
      </trkpt>
      <trkpt lat="45.74497" lon="6.79158">
        <ele>2379</ele>
        <time>2019-10-06T09:20:19Z</time>
      </trkpt>
      <trkpt lat="45.74495" lon="6.79158">
        <ele>2378</ele>
        <time>2019-10-06T09:20:20Z</time>
      </trkpt>
      <trkpt lat="45.74492" lon="6.79158">
        <ele>2378</ele>
        <time>2019-10-06T09:20:21Z</time>
      </trkpt>
      <trkpt lat="45.7449" lon="6.79159">
        <ele>2376</ele>
        <time>2019-10-06T09:20:22Z</time>
      </trkpt>
      <trkpt lat="45.74488" lon="6.79159">
        <ele>2375</ele>
        <time>2019-10-06T09:20:23Z</time>
      </trkpt>
      <trkpt lat="45.74485" lon="6.7916">
        <ele>2375</ele>
        <time>2019-10-06T09:20:24Z</time>
      </trkpt>
      <trkpt lat="45.74482" lon="6.79162">
        <ele>2374</ele>
        <time>2019-10-06T09:20:25Z</time>
      </trkpt>
      <trkpt lat="45.74481" lon="6.79163">
        <ele>2374</ele>
        <time>2019-10-06T09:20:26Z</time>
      </trkpt>
      <trkpt lat="45.74479" lon="6.79164">
        <ele>2374</ele>
        <time>2019-10-06T09:20:27Z</time>
      </trkpt>
      <trkpt lat="45.74477" lon="6.79166">
        <ele>2373</ele>
        <time>2019-10-06T09:20:28Z</time>
      </trkpt>
      <trkpt lat="45.74474" lon="6.79168">
        <ele>2373</ele>
        <time>2019-10-06T09:20:29Z</time>
      </trkpt>
      <trkpt lat="45.74472" lon="6.7917">
        <ele>2372</ele>
        <time>2019-10-06T09:20:30Z</time>
      </trkpt>
      <trkpt lat="45.7447" lon="6.79171">
        <ele>2372</ele>
        <time>2019-10-06T09:20:31Z</time>
      </trkpt>
      <trkpt lat="45.74468" lon="6.79173">
        <ele>2372</ele>
        <time>2019-10-06T09:20:32Z</time>
      </trkpt>
      <trkpt lat="45.74465" lon="6.79174">
        <ele>2372</ele>
        <time>2019-10-06T09:20:33Z</time>
      </trkpt>
      <trkpt lat="45.74463" lon="6.79175">
        <ele>2371</ele>
        <time>2019-10-06T09:20:34Z</time>
      </trkpt>
      <trkpt lat="45.74461" lon="6.79176">
        <ele>2370</ele>
        <time>2019-10-06T09:20:35Z</time>
      </trkpt>
      <trkpt lat="45.74459" lon="6.79177">
        <ele>2370</ele>
        <time>2019-10-06T09:20:36Z</time>
      </trkpt>
      <trkpt lat="45.74456" lon="6.79178">
        <ele>2369</ele>
        <time>2019-10-06T09:20:37Z</time>
      </trkpt>
      <trkpt lat="45.74454" lon="6.7918">
        <ele>2368</ele>
        <time>2019-10-06T09:20:38Z</time>
      </trkpt>
      <trkpt lat="45.74452" lon="6.79181">
        <ele>2368</ele>
        <time>2019-10-06T09:20:39Z</time>
      </trkpt>
      <trkpt lat="45.74449" lon="6.79182">
        <ele>2368</ele>
        <time>2019-10-06T09:20:40Z</time>
      </trkpt>
      <trkpt lat="45.74447" lon="6.79183">
        <ele>2368</ele>
        <time>2019-10-06T09:20:41Z</time>
      </trkpt>
      <trkpt lat="45.74445" lon="6.79184">
        <ele>2367</ele>
        <time>2019-10-06T09:20:42Z</time>
      </trkpt>
      <trkpt lat="45.74443" lon="6.79185">
        <ele>2367</ele>
        <time>2019-10-06T09:20:43Z</time>
      </trkpt>
      <trkpt lat="45.7444" lon="6.79186">
        <ele>2367</ele>
        <time>2019-10-06T09:20:44Z</time>
      </trkpt>
      <trkpt lat="45.74438" lon="6.79188">
        <ele>2366</ele>
        <time>2019-10-06T09:20:45Z</time>
      </trkpt>
      <trkpt lat="45.74436" lon="6.7919">
        <ele>2366</ele>
        <time>2019-10-06T09:20:46Z</time>
      </trkpt>
      <trkpt lat="45.74434" lon="6.79191">
        <ele>2366</ele>
        <time>2019-10-06T09:20:47Z</time>
      </trkpt>
      <trkpt lat="45.74432" lon="6.79192">
        <ele>2365</ele>
        <time>2019-10-06T09:20:48Z</time>
      </trkpt>
      <trkpt lat="45.7443" lon="6.79194">
        <ele>2364</ele>
        <time>2019-10-06T09:20:49Z</time>
      </trkpt>
      <trkpt lat="45.74428" lon="6.79195">
        <ele>2364</ele>
        <time>2019-10-06T09:20:50Z</time>
      </trkpt>
      <trkpt lat="45.74425" lon="6.79197">
        <ele>2364</ele>
        <time>2019-10-06T09:20:51Z</time>
      </trkpt>
      <trkpt lat="45.74423" lon="6.79199">
        <ele>2363</ele>
        <time>2019-10-06T09:20:52Z</time>
      </trkpt>
      <trkpt lat="45.74421" lon="6.79201">
        <ele>2363</ele>
        <time>2019-10-06T09:20:53Z</time>
      </trkpt>
      <trkpt lat="45.74419" lon="6.79203">
        <ele>2363</ele>
        <time>2019-10-06T09:20:54Z</time>
      </trkpt>
      <trkpt lat="45.74416" lon="6.79205">
        <ele>2362</ele>
        <time>2019-10-06T09:20:55Z</time>
      </trkpt>
      <trkpt lat="45.74414" lon="6.79207">
        <ele>2361</ele>
        <time>2019-10-06T09:20:56Z</time>
      </trkpt>
      <trkpt lat="45.74412" lon="6.79209">
        <ele>2362</ele>
        <time>2019-10-06T09:20:57Z</time>
      </trkpt>
      <trkpt lat="45.7441" lon="6.79212">
        <ele>2362</ele>
        <time>2019-10-06T09:20:58Z</time>
      </trkpt>
      <trkpt lat="45.74408" lon="6.79214">
        <ele>2361</ele>
        <time>2019-10-06T09:20:59Z</time>
      </trkpt>
      <trkpt lat="45.74407" lon="6.79216">
        <ele>2360</ele>
        <time>2019-10-06T09:21:00Z</time>
      </trkpt>
      <trkpt lat="45.74405" lon="6.79217">
        <ele>2360</ele>
        <time>2019-10-06T09:21:01Z</time>
      </trkpt>
      <trkpt lat="45.74403" lon="6.79219">
        <ele>2359</ele>
        <time>2019-10-06T09:21:02Z</time>
      </trkpt>
      <trkpt lat="45.74401" lon="6.79221">
        <ele>2358</ele>
        <time>2019-10-06T09:21:03Z</time>
      </trkpt>
      <trkpt lat="45.74399" lon="6.79224">
        <ele>2357</ele>
        <time>2019-10-06T09:21:04Z</time>
      </trkpt>
      <trkpt lat="45.74398" lon="6.79226">
        <ele>2357</ele>
        <time>2019-10-06T09:21:05Z</time>
      </trkpt>
      <trkpt lat="45.74396" lon="6.79229">
        <ele>2357</ele>
        <time>2019-10-06T09:21:06Z</time>
      </trkpt>
      <trkpt lat="45.74395" lon="6.79232">
        <ele>2357</ele>
        <time>2019-10-06T09:21:07Z</time>
      </trkpt>
      <trkpt lat="45.74394" lon="6.79235">
        <ele>2357</ele>
        <time>2019-10-06T09:21:08Z</time>
      </trkpt>
      <trkpt lat="45.74393" lon="6.79238">
        <ele>2357</ele>
        <time>2019-10-06T09:21:09Z</time>
      </trkpt>
      <trkpt lat="45.74392" lon="6.79241">
        <ele>2356</ele>
        <time>2019-10-06T09:21:10Z</time>
      </trkpt>
      <trkpt lat="45.74392" lon="6.79244">
        <ele>2355</ele>
        <time>2019-10-06T09:21:11Z</time>
      </trkpt>
      <trkpt lat="45.74392" lon="6.79248">
        <ele>2355</ele>
        <time>2019-10-06T09:21:12Z</time>
      </trkpt>
      <trkpt lat="45.74392" lon="6.7925">
        <ele>2355</ele>
        <time>2019-10-06T09:21:13Z</time>
      </trkpt>
      <trkpt lat="45.74391" lon="6.79252">
        <ele>2355</ele>
        <time>2019-10-06T09:21:14Z</time>
      </trkpt>
      <trkpt lat="45.74391" lon="6.79255">
        <ele>2354</ele>
        <time>2019-10-06T09:21:15Z</time>
      </trkpt>
      <trkpt lat="45.7439" lon="6.79259">
        <ele>2353</ele>
        <time>2019-10-06T09:21:16Z</time>
      </trkpt>
      <trkpt lat="45.74389" lon="6.79262">
        <ele>2353</ele>
        <time>2019-10-06T09:21:17Z</time>
      </trkpt>
      <trkpt lat="45.74389" lon="6.79265">
        <ele>2352</ele>
        <time>2019-10-06T09:21:18Z</time>
      </trkpt>
      <trkpt lat="45.74388" lon="6.79268">
        <ele>2352</ele>
        <time>2019-10-06T09:21:19Z</time>
      </trkpt>
      <trkpt lat="45.74387" lon="6.79271">
        <ele>2350</ele>
        <time>2019-10-06T09:21:20Z</time>
      </trkpt>
      <trkpt lat="45.74386" lon="6.79274">
        <ele>2350</ele>
        <time>2019-10-06T09:21:21Z</time>
      </trkpt>
      <trkpt lat="45.74385" lon="6.79277">
        <ele>2350</ele>
        <time>2019-10-06T09:21:22Z</time>
      </trkpt>
      <trkpt lat="45.74384" lon="6.79281">
        <ele>2350</ele>
        <time>2019-10-06T09:21:23Z</time>
      </trkpt>
      <trkpt lat="45.74383" lon="6.79284">
        <ele>2350</ele>
        <time>2019-10-06T09:21:24Z</time>
      </trkpt>
      <trkpt lat="45.74382" lon="6.79287">
        <ele>2349</ele>
        <time>2019-10-06T09:21:25Z</time>
      </trkpt>
      <trkpt lat="45.7438" lon="6.79289">
        <ele>2349</ele>
        <time>2019-10-06T09:21:26Z</time>
      </trkpt>
      <trkpt lat="45.74379" lon="6.79291">
        <ele>2349</ele>
        <time>2019-10-06T09:21:27Z</time>
      </trkpt>
      <trkpt lat="45.74377" lon="6.79294">
        <ele>2349</ele>
        <time>2019-10-06T09:21:28Z</time>
      </trkpt>
      <trkpt lat="45.74376" lon="6.79296">
        <ele>2349</ele>
        <time>2019-10-06T09:21:29Z</time>
      </trkpt>
      <trkpt lat="45.74374" lon="6.79298">
        <ele>2349</ele>
        <time>2019-10-06T09:21:30Z</time>
      </trkpt>
      <trkpt lat="45.74372" lon="6.793">
        <ele>2349</ele>
        <time>2019-10-06T09:21:31Z</time>
      </trkpt>
      <trkpt lat="45.7437" lon="6.79301">
        <ele>2349</ele>
        <time>2019-10-06T09:21:32Z</time>
      </trkpt>
      <trkpt lat="45.74368" lon="6.79301">
        <ele>2349</ele>
        <time>2019-10-06T09:21:33Z</time>
      </trkpt>
      <trkpt lat="45.74366" lon="6.79301">
        <ele>2349</ele>
        <time>2019-10-06T09:21:34Z</time>
      </trkpt>
      <trkpt lat="45.74364" lon="6.79301">
        <ele>2349</ele>
        <time>2019-10-06T09:21:35Z</time>
      </trkpt>
      <trkpt lat="45.74362" lon="6.79301">
        <ele>2349</ele>
        <time>2019-10-06T09:21:36Z</time>
      </trkpt>
      <trkpt lat="45.7436" lon="6.79301">
        <ele>2349</ele>
        <time>2019-10-06T09:21:37Z</time>
      </trkpt>
      <trkpt lat="45.74358" lon="6.79301">
        <ele>2349</ele>
        <time>2019-10-06T09:21:38Z</time>
      </trkpt>
      <trkpt lat="45.74356" lon="6.79302">
        <ele>2348</ele>
        <time>2019-10-06T09:21:39Z</time>
      </trkpt>
      <trkpt lat="45.74354" lon="6.79303">
        <ele>2348</ele>
        <time>2019-10-06T09:21:40Z</time>
      </trkpt>
      <trkpt lat="45.74353" lon="6.79305">
        <ele>2348</ele>
        <time>2019-10-06T09:21:41Z</time>
      </trkpt>
      <trkpt lat="45.74352" lon="6.79307">
        <ele>2348</ele>
        <time>2019-10-06T09:21:42Z</time>
      </trkpt>
      <trkpt lat="45.74352" lon="6.79311">
        <ele>2348</ele>
        <time>2019-10-06T09:21:43Z</time>
      </trkpt>
      <trkpt lat="45.74352" lon="6.79314">
        <ele>2347</ele>
        <time>2019-10-06T09:21:44Z</time>
      </trkpt>
      <trkpt lat="45.74352" lon="6.79318">
        <ele>2346</ele>
        <time>2019-10-06T09:21:45Z</time>
      </trkpt>
      <trkpt lat="45.74352" lon="6.79322">
        <ele>2345</ele>
        <time>2019-10-06T09:21:46Z</time>
      </trkpt>
      <trkpt lat="45.74352" lon="6.79325">
        <ele>2344</ele>
        <time>2019-10-06T09:21:47Z</time>
      </trkpt>
      <trkpt lat="45.74351" lon="6.79328">
        <ele>2343</ele>
        <time>2019-10-06T09:21:48Z</time>
      </trkpt>
      <trkpt lat="45.74349" lon="6.7933">
        <ele>2343</ele>
        <time>2019-10-06T09:21:49Z</time>
      </trkpt>
      <trkpt lat="45.74347" lon="6.79331">
        <ele>2343</ele>
        <time>2019-10-06T09:21:50Z</time>
      </trkpt>
      <trkpt lat="45.74344" lon="6.79333">
        <ele>2342</ele>
        <time>2019-10-06T09:21:52Z</time>
      </trkpt>
      <trkpt lat="45.74341" lon="6.79332">
        <ele>2342</ele>
        <time>2019-10-06T09:21:54Z</time>
      </trkpt>
      <trkpt lat="45.74338" lon="6.79331">
        <ele>2342</ele>
        <time>2019-10-06T09:21:56Z</time>
      </trkpt>
      <trkpt lat="45.74336" lon="6.79335">
        <ele>2340</ele>
        <time>2019-10-06T09:21:58Z</time>
      </trkpt>
      <trkpt lat="45.74335" lon="6.79337">
        <ele>2340</ele>
        <time>2019-10-06T09:21:59Z</time>
      </trkpt>
      <trkpt lat="45.74333" lon="6.79337">
        <ele>2340</ele>
        <time>2019-10-06T09:22:00Z</time>
      </trkpt>
      <trkpt lat="45.74331" lon="6.79337">
        <ele>2339</ele>
        <time>2019-10-06T09:22:01Z</time>
      </trkpt>
      <trkpt lat="45.74328" lon="6.79336">
        <ele>2338</ele>
        <time>2019-10-06T09:22:03Z</time>
      </trkpt>
      <trkpt lat="45.74328" lon="6.79336">
        <ele>2338</ele>
        <time>2019-10-06T09:22:06Z</time>
      </trkpt>
      <trkpt lat="45.74326" lon="6.79335">
        <ele>2338</ele>
        <time>2019-10-06T09:22:07Z</time>
      </trkpt>
      <trkpt lat="45.74324" lon="6.79334">
        <ele>2338</ele>
        <time>2019-10-06T09:22:09Z</time>
      </trkpt>
      <trkpt lat="45.74321" lon="6.79331">
        <ele>2337</ele>
        <time>2019-10-06T09:22:11Z</time>
      </trkpt>
      <trkpt lat="45.7432" lon="6.7933">
        <ele>2336</ele>
        <time>2019-10-06T09:22:12Z</time>
      </trkpt>
      <trkpt lat="45.74318" lon="6.79328">
        <ele>2336</ele>
        <time>2019-10-06T09:22:13Z</time>
      </trkpt>
      <trkpt lat="45.74316" lon="6.79326">
        <ele>2336</ele>
        <time>2019-10-06T09:22:14Z</time>
      </trkpt>
      <trkpt lat="45.74314" lon="6.79326">
        <ele>2335</ele>
        <time>2019-10-06T09:22:15Z</time>
      </trkpt>
      <trkpt lat="45.74311" lon="6.79325">
        <ele>2334</ele>
        <time>2019-10-06T09:22:16Z</time>
      </trkpt>
      <trkpt lat="45.7431" lon="6.79325">
        <ele>2333</ele>
        <time>2019-10-06T09:22:17Z</time>
      </trkpt>
      <trkpt lat="45.74308" lon="6.79324">
        <ele>2333</ele>
        <time>2019-10-06T09:22:18Z</time>
      </trkpt>
      <trkpt lat="45.74306" lon="6.79322">
        <ele>2333</ele>
        <time>2019-10-06T09:22:19Z</time>
      </trkpt>
      <trkpt lat="45.74304" lon="6.7932">
        <ele>2332</ele>
        <time>2019-10-06T09:22:20Z</time>
      </trkpt>
      <trkpt lat="45.74303" lon="6.79317">
        <ele>2332</ele>
        <time>2019-10-06T09:22:21Z</time>
      </trkpt>
      <trkpt lat="45.74302" lon="6.79314">
        <ele>2331</ele>
        <time>2019-10-06T09:22:22Z</time>
      </trkpt>
      <trkpt lat="45.74301" lon="6.7931">
        <ele>2331</ele>
        <time>2019-10-06T09:22:23Z</time>
      </trkpt>
      <trkpt lat="45.743" lon="6.79308">
        <ele>2331</ele>
        <time>2019-10-06T09:22:24Z</time>
      </trkpt>
      <trkpt lat="45.743" lon="6.79305">
        <ele>2330</ele>
        <time>2019-10-06T09:22:25Z</time>
      </trkpt>
      <trkpt lat="45.74299" lon="6.79302">
        <ele>2330</ele>
        <time>2019-10-06T09:22:26Z</time>
      </trkpt>
      <trkpt lat="45.74298" lon="6.79299">
        <ele>2329</ele>
        <time>2019-10-06T09:22:27Z</time>
      </trkpt>
      <trkpt lat="45.74296" lon="6.79298">
        <ele>2329</ele>
        <time>2019-10-06T09:22:28Z</time>
      </trkpt>
      <trkpt lat="45.74294" lon="6.79298">
        <ele>2329</ele>
        <time>2019-10-06T09:22:29Z</time>
      </trkpt>
      <trkpt lat="45.74292" lon="6.79299">
        <ele>2328</ele>
        <time>2019-10-06T09:22:30Z</time>
      </trkpt>
      <trkpt lat="45.7429" lon="6.79301">
        <ele>2328</ele>
        <time>2019-10-06T09:22:31Z</time>
      </trkpt>
      <trkpt lat="45.74288" lon="6.79303">
        <ele>2327</ele>
        <time>2019-10-06T09:22:32Z</time>
      </trkpt>
      <trkpt lat="45.74286" lon="6.79304">
        <ele>2326</ele>
        <time>2019-10-06T09:22:33Z</time>
      </trkpt>
      <trkpt lat="45.74284" lon="6.79305">
        <ele>2326</ele>
        <time>2019-10-06T09:22:34Z</time>
      </trkpt>
      <trkpt lat="45.74281" lon="6.79304">
        <ele>2326</ele>
        <time>2019-10-06T09:22:35Z</time>
      </trkpt>
      <trkpt lat="45.74279" lon="6.79303">
        <ele>2326</ele>
        <time>2019-10-06T09:22:36Z</time>
      </trkpt>
      <trkpt lat="45.74277" lon="6.79302">
        <ele>2324</ele>
        <time>2019-10-06T09:22:37Z</time>
      </trkpt>
      <trkpt lat="45.74276" lon="6.793">
        <ele>2324</ele>
        <time>2019-10-06T09:22:38Z</time>
      </trkpt>
      <trkpt lat="45.74274" lon="6.79298">
        <ele>2324</ele>
        <time>2019-10-06T09:22:39Z</time>
      </trkpt>
      <trkpt lat="45.74273" lon="6.79296">
        <ele>2323</ele>
        <time>2019-10-06T09:22:40Z</time>
      </trkpt>
      <trkpt lat="45.74271" lon="6.79295">
        <ele>2322</ele>
        <time>2019-10-06T09:22:41Z</time>
      </trkpt>
      <trkpt lat="45.74269" lon="6.79294">
        <ele>2322</ele>
        <time>2019-10-06T09:22:42Z</time>
      </trkpt>
      <trkpt lat="45.74266" lon="6.79294">
        <ele>2322</ele>
        <time>2019-10-06T09:22:43Z</time>
      </trkpt>
      <trkpt lat="45.74264" lon="6.79293">
        <ele>2321</ele>
        <time>2019-10-06T09:22:44Z</time>
      </trkpt>
      <trkpt lat="45.74263" lon="6.79292">
        <ele>2321</ele>
        <time>2019-10-06T09:22:45Z</time>
      </trkpt>
      <trkpt lat="45.74262" lon="6.7929">
        <ele>2321</ele>
        <time>2019-10-06T09:22:46Z</time>
      </trkpt>
      <trkpt lat="45.7426" lon="6.79286">
        <ele>2321</ele>
        <time>2019-10-06T09:22:48Z</time>
      </trkpt>
      <trkpt lat="45.74259" lon="6.79284">
        <ele>2321</ele>
        <time>2019-10-06T09:22:49Z</time>
      </trkpt>
      <trkpt lat="45.74258" lon="6.79281">
        <ele>2321</ele>
        <time>2019-10-06T09:22:50Z</time>
      </trkpt>
      <trkpt lat="45.74256" lon="6.79278">
        <ele>2320</ele>
        <time>2019-10-06T09:22:51Z</time>
      </trkpt>
      <trkpt lat="45.74255" lon="6.79276">
        <ele>2319</ele>
        <time>2019-10-06T09:22:52Z</time>
      </trkpt>
      <trkpt lat="45.74253" lon="6.79273">
        <ele>2319</ele>
        <time>2019-10-06T09:22:53Z</time>
      </trkpt>
      <trkpt lat="45.74252" lon="6.79271">
        <ele>2319</ele>
        <time>2019-10-06T09:22:54Z</time>
      </trkpt>
      <trkpt lat="45.7425" lon="6.79269">
        <ele>2319</ele>
        <time>2019-10-06T09:22:55Z</time>
      </trkpt>
      <trkpt lat="45.74249" lon="6.79267">
        <ele>2319</ele>
        <time>2019-10-06T09:22:56Z</time>
      </trkpt>
      <trkpt lat="45.74247" lon="6.79265">
        <ele>2319</ele>
        <time>2019-10-06T09:22:57Z</time>
      </trkpt>
      <trkpt lat="45.74245" lon="6.79264">
        <ele>2317</ele>
        <time>2019-10-06T09:22:58Z</time>
      </trkpt>
      <trkpt lat="45.74243" lon="6.79263">
        <ele>2316</ele>
        <time>2019-10-06T09:22:59Z</time>
      </trkpt>
      <trkpt lat="45.74241" lon="6.79262">
        <ele>2316</ele>
        <time>2019-10-06T09:23:00Z</time>
      </trkpt>
      <trkpt lat="45.74238" lon="6.79261">
        <ele>2316</ele>
        <time>2019-10-06T09:23:01Z</time>
      </trkpt>
      <trkpt lat="45.74236" lon="6.7926">
        <ele>2315</ele>
        <time>2019-10-06T09:23:02Z</time>
      </trkpt>
      <trkpt lat="45.74234" lon="6.79259">
        <ele>2314</ele>
        <time>2019-10-06T09:23:03Z</time>
      </trkpt>
      <trkpt lat="45.74232" lon="6.79258">
        <ele>2313</ele>
        <time>2019-10-06T09:23:04Z</time>
      </trkpt>
      <trkpt lat="45.7423" lon="6.79256">
        <ele>2313</ele>
        <time>2019-10-06T09:23:05Z</time>
      </trkpt>
      <trkpt lat="45.74228" lon="6.79254">
        <ele>2312</ele>
        <time>2019-10-06T09:23:06Z</time>
      </trkpt>
      <trkpt lat="45.74226" lon="6.79251">
        <ele>2311</ele>
        <time>2019-10-06T09:23:07Z</time>
      </trkpt>
      <trkpt lat="45.74225" lon="6.79249">
        <ele>2311</ele>
        <time>2019-10-06T09:23:08Z</time>
      </trkpt>
      <trkpt lat="45.74223" lon="6.79246">
        <ele>2311</ele>
        <time>2019-10-06T09:23:09Z</time>
      </trkpt>
      <trkpt lat="45.74221" lon="6.79244">
        <ele>2310</ele>
        <time>2019-10-06T09:23:10Z</time>
      </trkpt>
      <trkpt lat="45.74219" lon="6.79243">
        <ele>2309</ele>
        <time>2019-10-06T09:23:11Z</time>
      </trkpt>
      <trkpt lat="45.74217" lon="6.79241">
        <ele>2309</ele>
        <time>2019-10-06T09:23:12Z</time>
      </trkpt>
      <trkpt lat="45.74215" lon="6.7924">
        <ele>2308</ele>
        <time>2019-10-06T09:23:13Z</time>
      </trkpt>
      <trkpt lat="45.74213" lon="6.79239">
        <ele>2308</ele>
        <time>2019-10-06T09:23:14Z</time>
      </trkpt>
      <trkpt lat="45.74211" lon="6.79238">
        <ele>2307</ele>
        <time>2019-10-06T09:23:15Z</time>
      </trkpt>
      <trkpt lat="45.7421" lon="6.79236">
        <ele>2307</ele>
        <time>2019-10-06T09:23:16Z</time>
      </trkpt>
      <trkpt lat="45.74208" lon="6.79234">
        <ele>2306</ele>
        <time>2019-10-06T09:23:17Z</time>
      </trkpt>
      <trkpt lat="45.74207" lon="6.79232">
        <ele>2305</ele>
        <time>2019-10-06T09:23:18Z</time>
      </trkpt>
      <trkpt lat="45.74206" lon="6.7923">
        <ele>2304</ele>
        <time>2019-10-06T09:23:19Z</time>
      </trkpt>
      <trkpt lat="45.74204" lon="6.79228">
        <ele>2304</ele>
        <time>2019-10-06T09:23:20Z</time>
      </trkpt>
      <trkpt lat="45.74203" lon="6.79226">
        <ele>2303</ele>
        <time>2019-10-06T09:23:21Z</time>
      </trkpt>
      <trkpt lat="45.74201" lon="6.79224">
        <ele>2302</ele>
        <time>2019-10-06T09:23:22Z</time>
      </trkpt>
      <trkpt lat="45.742" lon="6.79222">
        <ele>2301</ele>
        <time>2019-10-06T09:23:23Z</time>
      </trkpt>
      <trkpt lat="45.742" lon="6.79219">
        <ele>2300</ele>
        <time>2019-10-06T09:23:24Z</time>
      </trkpt>
      <trkpt lat="45.742" lon="6.79215">
        <ele>2300</ele>
        <time>2019-10-06T09:23:26Z</time>
      </trkpt>
      <trkpt lat="45.742" lon="6.79212">
        <ele>2300</ele>
        <time>2019-10-06T09:23:27Z</time>
      </trkpt>
      <trkpt lat="45.74199" lon="6.79209">
        <ele>2298</ele>
        <time>2019-10-06T09:23:28Z</time>
      </trkpt>
      <trkpt lat="45.74199" lon="6.79206">
        <ele>2297</ele>
        <time>2019-10-06T09:23:29Z</time>
      </trkpt>
      <trkpt lat="45.74199" lon="6.79203">
        <ele>2297</ele>
        <time>2019-10-06T09:23:30Z</time>
      </trkpt>
      <trkpt lat="45.74199" lon="6.79198">
        <ele>2295</ele>
        <time>2019-10-06T09:23:32Z</time>
      </trkpt>
      <trkpt lat="45.74199" lon="6.79195">
        <ele>2294</ele>
        <time>2019-10-06T09:23:33Z</time>
      </trkpt>
      <trkpt lat="45.74199" lon="6.79191">
        <ele>2294</ele>
        <time>2019-10-06T09:23:34Z</time>
      </trkpt>
      <trkpt lat="45.74199" lon="6.79188">
        <ele>2294</ele>
        <time>2019-10-06T09:23:35Z</time>
      </trkpt>
      <trkpt lat="45.74199" lon="6.79185">
        <ele>2292</ele>
        <time>2019-10-06T09:23:36Z</time>
      </trkpt>
      <trkpt lat="45.74199" lon="6.79182">
        <ele>2291</ele>
        <time>2019-10-06T09:23:37Z</time>
      </trkpt>
      <trkpt lat="45.74198" lon="6.79179">
        <ele>2291</ele>
        <time>2019-10-06T09:23:38Z</time>
      </trkpt>
      <trkpt lat="45.74195" lon="6.79178">
        <ele>2291</ele>
        <time>2019-10-06T09:23:40Z</time>
      </trkpt>
      <trkpt lat="45.74193" lon="6.79178">
        <ele>2291</ele>
        <time>2019-10-06T09:23:41Z</time>
      </trkpt>
      <trkpt lat="45.74191" lon="6.79178">
        <ele>2291</ele>
        <time>2019-10-06T09:23:42Z</time>
      </trkpt>
      <trkpt lat="45.7419" lon="6.79177">
        <ele>2290</ele>
        <time>2019-10-06T09:23:43Z</time>
      </trkpt>
      <trkpt lat="45.74189" lon="6.79174">
        <ele>2290</ele>
        <time>2019-10-06T09:23:44Z</time>
      </trkpt>
      <trkpt lat="45.74188" lon="6.79171">
        <ele>2290</ele>
        <time>2019-10-06T09:23:45Z</time>
      </trkpt>
      <trkpt lat="45.74188" lon="6.79168">
        <ele>2290</ele>
        <time>2019-10-06T09:23:46Z</time>
      </trkpt>
      <trkpt lat="45.74188" lon="6.79165">
        <ele>2289</ele>
        <time>2019-10-06T09:23:47Z</time>
      </trkpt>
      <trkpt lat="45.74188" lon="6.79161">
        <ele>2289</ele>
        <time>2019-10-06T09:23:48Z</time>
      </trkpt>
      <trkpt lat="45.74188" lon="6.79157">
        <ele>2289</ele>
        <time>2019-10-06T09:23:49Z</time>
      </trkpt>
      <trkpt lat="45.74187" lon="6.79153">
        <ele>2289</ele>
        <time>2019-10-06T09:23:50Z</time>
      </trkpt>
      <trkpt lat="45.74187" lon="6.7915">
        <ele>2289</ele>
        <time>2019-10-06T09:23:51Z</time>
      </trkpt>
      <trkpt lat="45.74186" lon="6.79147">
        <ele>2288</ele>
        <time>2019-10-06T09:23:52Z</time>
      </trkpt>
      <trkpt lat="45.74185" lon="6.79143">
        <ele>2287</ele>
        <time>2019-10-06T09:23:53Z</time>
      </trkpt>
      <trkpt lat="45.74184" lon="6.7914">
        <ele>2287</ele>
        <time>2019-10-06T09:23:54Z</time>
      </trkpt>
      <trkpt lat="45.74183" lon="6.79137">
        <ele>2287</ele>
        <time>2019-10-06T09:23:55Z</time>
      </trkpt>
      <trkpt lat="45.74182" lon="6.79134">
        <ele>2287</ele>
        <time>2019-10-06T09:23:56Z</time>
      </trkpt>
      <trkpt lat="45.7418" lon="6.79132">
        <ele>2286</ele>
        <time>2019-10-06T09:23:57Z</time>
      </trkpt>
      <trkpt lat="45.74178" lon="6.7913">
        <ele>2286</ele>
        <time>2019-10-06T09:23:58Z</time>
      </trkpt>
      <trkpt lat="45.74177" lon="6.79127">
        <ele>2286</ele>
        <time>2019-10-06T09:23:59Z</time>
      </trkpt>
      <trkpt lat="45.74175" lon="6.79124">
        <ele>2286</ele>
        <time>2019-10-06T09:24:00Z</time>
      </trkpt>
      <trkpt lat="45.74174" lon="6.79121">
        <ele>2286</ele>
        <time>2019-10-06T09:24:01Z</time>
      </trkpt>
      <trkpt lat="45.74173" lon="6.79118">
        <ele>2286</ele>
        <time>2019-10-06T09:24:02Z</time>
      </trkpt>
      <trkpt lat="45.74172" lon="6.79116">
        <ele>2285</ele>
        <time>2019-10-06T09:24:03Z</time>
      </trkpt>
      <trkpt lat="45.74171" lon="6.79113">
        <ele>2285</ele>
        <time>2019-10-06T09:24:04Z</time>
      </trkpt>
      <trkpt lat="45.7417" lon="6.7911">
        <ele>2284</ele>
        <time>2019-10-06T09:24:05Z</time>
      </trkpt>
      <trkpt lat="45.74169" lon="6.79107">
        <ele>2283</ele>
        <time>2019-10-06T09:24:06Z</time>
      </trkpt>
      <trkpt lat="45.74169" lon="6.79104">
        <ele>2282</ele>
        <time>2019-10-06T09:24:07Z</time>
      </trkpt>
      <trkpt lat="45.74168" lon="6.79101">
        <ele>2282</ele>
        <time>2019-10-06T09:24:08Z</time>
      </trkpt>
      <trkpt lat="45.74167" lon="6.79098">
        <ele>2282</ele>
        <time>2019-10-06T09:24:09Z</time>
      </trkpt>
      <trkpt lat="45.74166" lon="6.79094">
        <ele>2282</ele>
        <time>2019-10-06T09:24:10Z</time>
      </trkpt>
      <trkpt lat="45.74165" lon="6.79092">
        <ele>2281</ele>
        <time>2019-10-06T09:24:11Z</time>
      </trkpt>
      <trkpt lat="45.74163" lon="6.79089">
        <ele>2281</ele>
        <time>2019-10-06T09:24:12Z</time>
      </trkpt>
      <trkpt lat="45.74162" lon="6.79086">
        <ele>2281</ele>
        <time>2019-10-06T09:24:13Z</time>
      </trkpt>
      <trkpt lat="45.74161" lon="6.79082">
        <ele>2280</ele>
        <time>2019-10-06T09:24:14Z</time>
      </trkpt>
      <trkpt lat="45.7416" lon="6.79079">
        <ele>2279</ele>
        <time>2019-10-06T09:24:15Z</time>
      </trkpt>
      <trkpt lat="45.74159" lon="6.79076">
        <ele>2279</ele>
        <time>2019-10-06T09:24:16Z</time>
      </trkpt>
      <trkpt lat="45.74158" lon="6.79072">
        <ele>2278</ele>
        <time>2019-10-06T09:24:17Z</time>
      </trkpt>
      <trkpt lat="45.74157" lon="6.79069">
        <ele>2278</ele>
        <time>2019-10-06T09:24:18Z</time>
      </trkpt>
      <trkpt lat="45.74155" lon="6.79064">
        <ele>2278</ele>
        <time>2019-10-06T09:24:19Z</time>
      </trkpt>
      <trkpt lat="45.74155" lon="6.79062">
        <ele>2277</ele>
        <time>2019-10-06T09:24:20Z</time>
      </trkpt>
      <trkpt lat="45.74153" lon="6.79059">
        <ele>2276</ele>
        <time>2019-10-06T09:24:21Z</time>
      </trkpt>
      <trkpt lat="45.74153" lon="6.79056">
        <ele>2276</ele>
        <time>2019-10-06T09:24:22Z</time>
      </trkpt>
      <trkpt lat="45.74151" lon="6.79054">
        <ele>2275</ele>
        <time>2019-10-06T09:24:23Z</time>
      </trkpt>
      <trkpt lat="45.7415" lon="6.79051">
        <ele>2274</ele>
        <time>2019-10-06T09:24:24Z</time>
      </trkpt>
      <trkpt lat="45.74149" lon="6.79047">
        <ele>2274</ele>
        <time>2019-10-06T09:24:25Z</time>
      </trkpt>
      <trkpt lat="45.74148" lon="6.79044">
        <ele>2272</ele>
        <time>2019-10-06T09:24:26Z</time>
      </trkpt>
      <trkpt lat="45.74148" lon="6.79041">
        <ele>2272</ele>
        <time>2019-10-06T09:24:27Z</time>
      </trkpt>
      <trkpt lat="45.74147" lon="6.79037">
        <ele>2272</ele>
        <time>2019-10-06T09:24:28Z</time>
      </trkpt>
      <trkpt lat="45.74147" lon="6.79033">
        <ele>2271</ele>
        <time>2019-10-06T09:24:29Z</time>
      </trkpt>
      <trkpt lat="45.74146" lon="6.79029">
        <ele>2271</ele>
        <time>2019-10-06T09:24:30Z</time>
      </trkpt>
      <trkpt lat="45.74146" lon="6.79026">
        <ele>2271</ele>
        <time>2019-10-06T09:24:31Z</time>
      </trkpt>
      <trkpt lat="45.74146" lon="6.79022">
        <ele>2271</ele>
        <time>2019-10-06T09:24:32Z</time>
      </trkpt>
      <trkpt lat="45.74146" lon="6.79019">
        <ele>2271</ele>
        <time>2019-10-06T09:24:33Z</time>
      </trkpt>
      <trkpt lat="45.74146" lon="6.79015">
        <ele>2270</ele>
        <time>2019-10-06T09:24:34Z</time>
      </trkpt>
      <trkpt lat="45.74146" lon="6.79012">
        <ele>2270</ele>
        <time>2019-10-06T09:24:35Z</time>
      </trkpt>
      <trkpt lat="45.74145" lon="6.79008">
        <ele>2269</ele>
        <time>2019-10-06T09:24:36Z</time>
      </trkpt>
      <trkpt lat="45.74145" lon="6.79005">
        <ele>2269</ele>
        <time>2019-10-06T09:24:37Z</time>
      </trkpt>
      <trkpt lat="45.74144" lon="6.79001">
        <ele>2269</ele>
        <time>2019-10-06T09:24:38Z</time>
      </trkpt>
      <trkpt lat="45.74143" lon="6.78998">
        <ele>2268</ele>
        <time>2019-10-06T09:24:39Z</time>
      </trkpt>
      <trkpt lat="45.74142" lon="6.78995">
        <ele>2267</ele>
        <time>2019-10-06T09:24:40Z</time>
      </trkpt>
      <trkpt lat="45.7414" lon="6.78992">
        <ele>2266</ele>
        <time>2019-10-06T09:24:41Z</time>
      </trkpt>
      <trkpt lat="45.74139" lon="6.78989">
        <ele>2266</ele>
        <time>2019-10-06T09:24:42Z</time>
      </trkpt>
      <trkpt lat="45.74137" lon="6.78987">
        <ele>2266</ele>
        <time>2019-10-06T09:24:43Z</time>
      </trkpt>
      <trkpt lat="45.74135" lon="6.78984">
        <ele>2265</ele>
        <time>2019-10-06T09:24:44Z</time>
      </trkpt>
      <trkpt lat="45.74134" lon="6.78981">
        <ele>2265</ele>
        <time>2019-10-06T09:24:45Z</time>
      </trkpt>
      <trkpt lat="45.74132" lon="6.78979">
        <ele>2265</ele>
        <time>2019-10-06T09:24:46Z</time>
      </trkpt>
      <trkpt lat="45.7413" lon="6.78977">
        <ele>2265</ele>
        <time>2019-10-06T09:24:47Z</time>
      </trkpt>
      <trkpt lat="45.74129" lon="6.78974">
        <ele>2264</ele>
        <time>2019-10-06T09:24:48Z</time>
      </trkpt>
      <trkpt lat="45.74128" lon="6.78971">
        <ele>2264</ele>
        <time>2019-10-06T09:24:49Z</time>
      </trkpt>
      <trkpt lat="45.74127" lon="6.78969">
        <ele>2263</ele>
        <time>2019-10-06T09:24:50Z</time>
      </trkpt>
      <trkpt lat="45.74125" lon="6.78965">
        <ele>2263</ele>
        <time>2019-10-06T09:24:51Z</time>
      </trkpt>
      <trkpt lat="45.74123" lon="6.78961">
        <ele>2262</ele>
        <time>2019-10-06T09:24:52Z</time>
      </trkpt>
      <trkpt lat="45.74122" lon="6.7896">
        <ele>2262</ele>
        <time>2019-10-06T09:24:53Z</time>
      </trkpt>
      <trkpt lat="45.7412" lon="6.78957">
        <ele>2262</ele>
        <time>2019-10-06T09:24:54Z</time>
      </trkpt>
      <trkpt lat="45.74119" lon="6.78955">
        <ele>2262</ele>
        <time>2019-10-06T09:24:55Z</time>
      </trkpt>
      <trkpt lat="45.74117" lon="6.78953">
        <ele>2261</ele>
        <time>2019-10-06T09:24:56Z</time>
      </trkpt>
      <trkpt lat="45.74115" lon="6.78951">
        <ele>2261</ele>
        <time>2019-10-06T09:24:57Z</time>
      </trkpt>
      <trkpt lat="45.74114" lon="6.78948">
        <ele>2260</ele>
        <time>2019-10-06T09:24:58Z</time>
      </trkpt>
      <trkpt lat="45.74112" lon="6.78945">
        <ele>2260</ele>
        <time>2019-10-06T09:24:59Z</time>
      </trkpt>
      <trkpt lat="45.74111" lon="6.78943">
        <ele>2260</ele>
        <time>2019-10-06T09:25:00Z</time>
      </trkpt>
      <trkpt lat="45.74109" lon="6.78941">
        <ele>2260</ele>
        <time>2019-10-06T09:25:01Z</time>
      </trkpt>
      <trkpt lat="45.74107" lon="6.78939">
        <ele>2260</ele>
        <time>2019-10-06T09:25:02Z</time>
      </trkpt>
      <trkpt lat="45.74105" lon="6.78937">
        <ele>2259</ele>
        <time>2019-10-06T09:25:03Z</time>
      </trkpt>
      <trkpt lat="45.74103" lon="6.78936">
        <ele>2259</ele>
        <time>2019-10-06T09:25:04Z</time>
      </trkpt>
      <trkpt lat="45.74101" lon="6.78935">
        <ele>2258</ele>
        <time>2019-10-06T09:25:05Z</time>
      </trkpt>
      <trkpt lat="45.74099" lon="6.78934">
        <ele>2258</ele>
        <time>2019-10-06T09:25:06Z</time>
      </trkpt>
      <trkpt lat="45.74097" lon="6.78933">
        <ele>2258</ele>
        <time>2019-10-06T09:25:07Z</time>
      </trkpt>
      <trkpt lat="45.74095" lon="6.78932">
        <ele>2258</ele>
        <time>2019-10-06T09:25:08Z</time>
      </trkpt>
      <trkpt lat="45.74093" lon="6.78932">
        <ele>2258</ele>
        <time>2019-10-06T09:25:09Z</time>
      </trkpt>
      <trkpt lat="45.74091" lon="6.78931">
        <ele>2257</ele>
        <time>2019-10-06T09:25:10Z</time>
      </trkpt>
      <trkpt lat="45.74088" lon="6.78931">
        <ele>2257</ele>
        <time>2019-10-06T09:25:11Z</time>
      </trkpt>
      <trkpt lat="45.74086" lon="6.78931">
        <ele>2257</ele>
        <time>2019-10-06T09:25:12Z</time>
      </trkpt>
      <trkpt lat="45.74084" lon="6.7893">
        <ele>2257</ele>
        <time>2019-10-06T09:25:13Z</time>
      </trkpt>
      <trkpt lat="45.74082" lon="6.7893">
        <ele>2257</ele>
        <time>2019-10-06T09:25:14Z</time>
      </trkpt>
      <trkpt lat="45.7408" lon="6.78929">
        <ele>2257</ele>
        <time>2019-10-06T09:25:15Z</time>
      </trkpt>
      <trkpt lat="45.74077" lon="6.78928">
        <ele>2257</ele>
        <time>2019-10-06T09:25:16Z</time>
      </trkpt>
      <trkpt lat="45.74075" lon="6.78926">
        <ele>2256</ele>
        <time>2019-10-06T09:25:17Z</time>
      </trkpt>
      <trkpt lat="45.74073" lon="6.78924">
        <ele>2256</ele>
        <time>2019-10-06T09:25:18Z</time>
      </trkpt>
      <trkpt lat="45.74072" lon="6.78921">
        <ele>2256</ele>
        <time>2019-10-06T09:25:19Z</time>
      </trkpt>
      <trkpt lat="45.7407" lon="6.78919">
        <ele>2256</ele>
        <time>2019-10-06T09:25:20Z</time>
      </trkpt>
      <trkpt lat="45.74069" lon="6.78917">
        <ele>2256</ele>
        <time>2019-10-06T09:25:21Z</time>
      </trkpt>
      <trkpt lat="45.74067" lon="6.78915">
        <ele>2256</ele>
        <time>2019-10-06T09:25:22Z</time>
      </trkpt>
      <trkpt lat="45.74064" lon="6.78912">
        <ele>2256</ele>
        <time>2019-10-06T09:25:24Z</time>
      </trkpt>
      <trkpt lat="45.74062" lon="6.78911">
        <ele>2256</ele>
        <time>2019-10-06T09:25:25Z</time>
      </trkpt>
      <trkpt lat="45.7406" lon="6.78911">
        <ele>2256</ele>
        <time>2019-10-06T09:25:26Z</time>
      </trkpt>
      <trkpt lat="45.74057" lon="6.78913">
        <ele>2254</ele>
        <time>2019-10-06T09:25:28Z</time>
      </trkpt>
      <trkpt lat="45.74056" lon="6.78915">
        <ele>2254</ele>
        <time>2019-10-06T09:25:29Z</time>
      </trkpt>
      <trkpt lat="45.74055" lon="6.78917">
        <ele>2253</ele>
        <time>2019-10-06T09:25:30Z</time>
      </trkpt>
      <trkpt lat="45.74053" lon="6.7892">
        <ele>2253</ele>
        <time>2019-10-06T09:25:31Z</time>
      </trkpt>
      <trkpt lat="45.74052" lon="6.78922">
        <ele>2252</ele>
        <time>2019-10-06T09:25:32Z</time>
      </trkpt>
      <trkpt lat="45.7405" lon="6.78923">
        <ele>2252</ele>
        <time>2019-10-06T09:25:33Z</time>
      </trkpt>
      <trkpt lat="45.74047" lon="6.78923">
        <ele>2252</ele>
        <time>2019-10-06T09:25:34Z</time>
      </trkpt>
      <trkpt lat="45.74045" lon="6.78922">
        <ele>2251</ele>
        <time>2019-10-06T09:25:35Z</time>
      </trkpt>
      <trkpt lat="45.74043" lon="6.78921">
        <ele>2250</ele>
        <time>2019-10-06T09:25:36Z</time>
      </trkpt>
      <trkpt lat="45.74041" lon="6.78919">
        <ele>2250</ele>
        <time>2019-10-06T09:25:37Z</time>
      </trkpt>
      <trkpt lat="45.74039" lon="6.78918">
        <ele>2250</ele>
        <time>2019-10-06T09:25:38Z</time>
      </trkpt>
      <trkpt lat="45.74037" lon="6.78918">
        <ele>2249</ele>
        <time>2019-10-06T09:25:39Z</time>
      </trkpt>
      <trkpt lat="45.74035" lon="6.78919">
        <ele>2248</ele>
        <time>2019-10-06T09:25:40Z</time>
      </trkpt>
      <trkpt lat="45.74031" lon="6.78921">
        <ele>2246</ele>
        <time>2019-10-06T09:25:41Z</time>
      </trkpt>
      <trkpt lat="45.7403" lon="6.78921">
        <ele>2245</ele>
        <time>2019-10-06T09:25:42Z</time>
      </trkpt>
      <trkpt lat="45.74028" lon="6.78923">
        <ele>2245</ele>
        <time>2019-10-06T09:25:43Z</time>
      </trkpt>
      <trkpt lat="45.74025" lon="6.78924">
        <ele>2245</ele>
        <time>2019-10-06T09:25:44Z</time>
      </trkpt>
      <trkpt lat="45.74023" lon="6.78924">
        <ele>2244</ele>
        <time>2019-10-06T09:25:45Z</time>
      </trkpt>
      <trkpt lat="45.7402" lon="6.78924">
        <ele>2244</ele>
        <time>2019-10-06T09:25:46Z</time>
      </trkpt>
      <trkpt lat="45.74018" lon="6.78923">
        <ele>2243</ele>
        <time>2019-10-06T09:25:47Z</time>
      </trkpt>
      <trkpt lat="45.74015" lon="6.78922">
        <ele>2243</ele>
        <time>2019-10-06T09:25:48Z</time>
      </trkpt>
      <trkpt lat="45.74013" lon="6.78922">
        <ele>2242</ele>
        <time>2019-10-06T09:25:49Z</time>
      </trkpt>
      <trkpt lat="45.74011" lon="6.78922">
        <ele>2241</ele>
        <time>2019-10-06T09:25:50Z</time>
      </trkpt>
      <trkpt lat="45.74008" lon="6.78922">
        <ele>2240</ele>
        <time>2019-10-06T09:25:51Z</time>
      </trkpt>
      <trkpt lat="45.74006" lon="6.78923">
        <ele>2240</ele>
        <time>2019-10-06T09:25:52Z</time>
      </trkpt>
      <trkpt lat="45.74004" lon="6.78924">
        <ele>2240</ele>
        <time>2019-10-06T09:25:53Z</time>
      </trkpt>
      <trkpt lat="45.74002" lon="6.78925">
        <ele>2240</ele>
        <time>2019-10-06T09:25:54Z</time>
      </trkpt>
      <trkpt lat="45.74" lon="6.78927">
        <ele>2239</ele>
        <time>2019-10-06T09:25:55Z</time>
      </trkpt>
      <trkpt lat="45.73997" lon="6.78929">
        <ele>2239</ele>
        <time>2019-10-06T09:25:56Z</time>
      </trkpt>
      <trkpt lat="45.73995" lon="6.78931">
        <ele>2239</ele>
        <time>2019-10-06T09:25:57Z</time>
      </trkpt>
      <trkpt lat="45.73993" lon="6.78933">
        <ele>2238</ele>
        <time>2019-10-06T09:25:58Z</time>
      </trkpt>
      <trkpt lat="45.7399" lon="6.78936">
        <ele>2238</ele>
        <time>2019-10-06T09:25:59Z</time>
      </trkpt>
      <trkpt lat="45.73989" lon="6.78937">
        <ele>2238</ele>
        <time>2019-10-06T09:26:00Z</time>
      </trkpt>
      <trkpt lat="45.73987" lon="6.7894">
        <ele>2238</ele>
        <time>2019-10-06T09:26:01Z</time>
      </trkpt>
      <trkpt lat="45.73985" lon="6.78942">
        <ele>2237</ele>
        <time>2019-10-06T09:26:02Z</time>
      </trkpt>
      <trkpt lat="45.73984" lon="6.78944">
        <ele>2236</ele>
        <time>2019-10-06T09:26:03Z</time>
      </trkpt>
      <trkpt lat="45.73983" lon="6.78947">
        <ele>2236</ele>
        <time>2019-10-06T09:26:04Z</time>
      </trkpt>
      <trkpt lat="45.73981" lon="6.78948">
        <ele>2236</ele>
        <time>2019-10-06T09:26:05Z</time>
      </trkpt>
      <trkpt lat="45.73978" lon="6.78949">
        <ele>2236</ele>
        <time>2019-10-06T09:26:07Z</time>
      </trkpt>
      <trkpt lat="45.73976" lon="6.78949">
        <ele>2236</ele>
        <time>2019-10-06T09:26:09Z</time>
      </trkpt>
      <trkpt lat="45.73974" lon="6.78947">
        <ele>2236</ele>
        <time>2019-10-06T09:26:10Z</time>
      </trkpt>
      <trkpt lat="45.73972" lon="6.78945">
        <ele>2236</ele>
        <time>2019-10-06T09:26:11Z</time>
      </trkpt>
      <trkpt lat="45.73971" lon="6.78942">
        <ele>2236</ele>
        <time>2019-10-06T09:26:12Z</time>
      </trkpt>
      <trkpt lat="45.7397" lon="6.78939">
        <ele>2236</ele>
        <time>2019-10-06T09:26:13Z</time>
      </trkpt>
      <trkpt lat="45.73969" lon="6.78936">
        <ele>2236</ele>
        <time>2019-10-06T09:26:14Z</time>
      </trkpt>
      <trkpt lat="45.73967" lon="6.78934">
        <ele>2236</ele>
        <time>2019-10-06T09:26:15Z</time>
      </trkpt>
      <trkpt lat="45.73966" lon="6.78932">
        <ele>2236</ele>
        <time>2019-10-06T09:26:16Z</time>
      </trkpt>
      <trkpt lat="45.73965" lon="6.7893">
        <ele>2236</ele>
        <time>2019-10-06T09:26:17Z</time>
      </trkpt>
      <trkpt lat="45.73964" lon="6.78925">
        <ele>2236</ele>
        <time>2019-10-06T09:26:19Z</time>
      </trkpt>
      <trkpt lat="45.73963" lon="6.78923">
        <ele>2236</ele>
        <time>2019-10-06T09:26:20Z</time>
      </trkpt>
      <trkpt lat="45.73962" lon="6.7892">
        <ele>2236</ele>
        <time>2019-10-06T09:26:21Z</time>
      </trkpt>
      <trkpt lat="45.73962" lon="6.78916">
        <ele>2236</ele>
        <time>2019-10-06T09:26:22Z</time>
      </trkpt>
      <trkpt lat="45.73961" lon="6.78913">
        <ele>2236</ele>
        <time>2019-10-06T09:26:23Z</time>
      </trkpt>
      <trkpt lat="45.73961" lon="6.78909">
        <ele>2236</ele>
        <time>2019-10-06T09:26:24Z</time>
      </trkpt>
      <trkpt lat="45.73961" lon="6.78906">
        <ele>2236</ele>
        <time>2019-10-06T09:26:25Z</time>
      </trkpt>
      <trkpt lat="45.73961" lon="6.78902">
        <ele>2236</ele>
        <time>2019-10-06T09:26:26Z</time>
      </trkpt>
      <trkpt lat="45.7396" lon="6.78899">
        <ele>2237</ele>
        <time>2019-10-06T09:26:27Z</time>
      </trkpt>
      <trkpt lat="45.7396" lon="6.78896">
        <ele>2237</ele>
        <time>2019-10-06T09:26:28Z</time>
      </trkpt>
      <trkpt lat="45.73959" lon="6.78894">
        <ele>2237</ele>
        <time>2019-10-06T09:26:29Z</time>
      </trkpt>
      <trkpt lat="45.73958" lon="6.78891">
        <ele>2237</ele>
        <time>2019-10-06T09:26:30Z</time>
      </trkpt>
      <trkpt lat="45.73957" lon="6.78889">
        <ele>2237</ele>
        <time>2019-10-06T09:26:31Z</time>
      </trkpt>
      <trkpt lat="45.73956" lon="6.78885">
        <ele>2237</ele>
        <time>2019-10-06T09:26:33Z</time>
      </trkpt>
      <trkpt lat="45.73954" lon="6.78881">
        <ele>2238</ele>
        <time>2019-10-06T09:26:35Z</time>
      </trkpt>
      <trkpt lat="45.73953" lon="6.78877">
        <ele>2238</ele>
        <time>2019-10-06T09:26:37Z</time>
      </trkpt>
      <trkpt lat="45.73952" lon="6.78873">
        <ele>2238</ele>
        <time>2019-10-06T09:26:39Z</time>
      </trkpt>
      <trkpt lat="45.73951" lon="6.7887">
        <ele>2239</ele>
        <time>2019-10-06T09:26:41Z</time>
      </trkpt>
      <trkpt lat="45.7395" lon="6.78866">
        <ele>2239</ele>
        <time>2019-10-06T09:26:43Z</time>
      </trkpt>
      <trkpt lat="45.73948" lon="6.78862">
        <ele>2239</ele>
        <time>2019-10-06T09:26:45Z</time>
      </trkpt>
      <trkpt lat="45.73946" lon="6.78857">
        <ele>2239</ele>
        <time>2019-10-06T09:26:47Z</time>
      </trkpt>
      <trkpt lat="45.73945" lon="6.78854">
        <ele>2239</ele>
        <time>2019-10-06T09:26:48Z</time>
      </trkpt>
      <trkpt lat="45.73942" lon="6.78851">
        <ele>2239</ele>
        <time>2019-10-06T09:26:50Z</time>
      </trkpt>
      <trkpt lat="45.7394" lon="6.78849">
        <ele>2238</ele>
        <time>2019-10-06T09:26:51Z</time>
      </trkpt>
      <trkpt lat="45.73939" lon="6.78847">
        <ele>2238</ele>
        <time>2019-10-06T09:26:52Z</time>
      </trkpt>
      <trkpt lat="45.73938" lon="6.78844">
        <ele>2238</ele>
        <time>2019-10-06T09:26:53Z</time>
      </trkpt>
      <trkpt lat="45.73938" lon="6.78839">
        <ele>2238</ele>
        <time>2019-10-06T09:26:55Z</time>
      </trkpt>
      <trkpt lat="45.73939" lon="6.78834">
        <ele>2238</ele>
        <time>2019-10-06T09:26:57Z</time>
      </trkpt>
      <trkpt lat="45.73939" lon="6.7883">
        <ele>2238</ele>
        <time>2019-10-06T09:26:59Z</time>
      </trkpt>
      <trkpt lat="45.7394" lon="6.78826">
        <ele>2238</ele>
        <time>2019-10-06T09:27:01Z</time>
      </trkpt>
      <trkpt lat="45.7394" lon="6.78822">
        <ele>2238</ele>
        <time>2019-10-06T09:27:03Z</time>
      </trkpt>
      <trkpt lat="45.7394" lon="6.78817">
        <ele>2238</ele>
        <time>2019-10-06T09:27:05Z</time>
      </trkpt>
      <trkpt lat="45.7394" lon="6.78813">
        <ele>2239</ele>
        <time>2019-10-06T09:27:07Z</time>
      </trkpt>
      <trkpt lat="45.73939" lon="6.78809">
        <ele>2239</ele>
        <time>2019-10-06T09:27:09Z</time>
      </trkpt>
      <trkpt lat="45.73938" lon="6.78806">
        <ele>2239</ele>
        <time>2019-10-06T09:27:11Z</time>
      </trkpt>
      <trkpt lat="45.73937" lon="6.78802">
        <ele>2239</ele>
        <time>2019-10-06T09:27:13Z</time>
      </trkpt>
      <trkpt lat="45.73935" lon="6.78799">
        <ele>2240</ele>
        <time>2019-10-06T09:27:15Z</time>
      </trkpt>
      <trkpt lat="45.73934" lon="6.78796">
        <ele>2240</ele>
        <time>2019-10-06T09:27:17Z</time>
      </trkpt>
      <trkpt lat="45.73933" lon="6.78793">
        <ele>2240</ele>
        <time>2019-10-06T09:27:19Z</time>
      </trkpt>
      <trkpt lat="45.73931" lon="6.7879">
        <ele>2241</ele>
        <time>2019-10-06T09:27:21Z</time>
      </trkpt>
      <trkpt lat="45.7393" lon="6.78787">
        <ele>2241</ele>
        <time>2019-10-06T09:27:23Z</time>
      </trkpt>
      <trkpt lat="45.7393" lon="6.78784">
        <ele>2241</ele>
        <time>2019-10-06T09:27:25Z</time>
      </trkpt>
      <trkpt lat="45.73929" lon="6.78781">
        <ele>2242</ele>
        <time>2019-10-06T09:27:27Z</time>
      </trkpt>
      <trkpt lat="45.73928" lon="6.78778">
        <ele>2242</ele>
        <time>2019-10-06T09:27:29Z</time>
      </trkpt>
      <trkpt lat="45.73926" lon="6.78776">
        <ele>2242</ele>
        <time>2019-10-06T09:27:31Z</time>
      </trkpt>
      <trkpt lat="45.73925" lon="6.78773">
        <ele>2242</ele>
        <time>2019-10-06T09:27:33Z</time>
      </trkpt>
      <trkpt lat="45.73923" lon="6.78771">
        <ele>2241</ele>
        <time>2019-10-06T09:27:35Z</time>
      </trkpt>
      <trkpt lat="45.73921" lon="6.78768">
        <ele>2241</ele>
        <time>2019-10-06T09:27:37Z</time>
      </trkpt>
      <trkpt lat="45.7392" lon="6.78765">
        <ele>2241</ele>
        <time>2019-10-06T09:27:39Z</time>
      </trkpt>
      <trkpt lat="45.73918" lon="6.78762">
        <ele>2241</ele>
        <time>2019-10-06T09:27:41Z</time>
      </trkpt>
      <trkpt lat="45.73917" lon="6.78759">
        <ele>2240</ele>
        <time>2019-10-06T09:27:43Z</time>
      </trkpt>
      <trkpt lat="45.73916" lon="6.78755">
        <ele>2240</ele>
        <time>2019-10-06T09:27:45Z</time>
      </trkpt>
      <trkpt lat="45.73914" lon="6.78752">
        <ele>2240</ele>
        <time>2019-10-06T09:27:47Z</time>
      </trkpt>
      <trkpt lat="45.73912" lon="6.78748">
        <ele>2240</ele>
        <time>2019-10-06T09:27:49Z</time>
      </trkpt>
      <trkpt lat="45.7391" lon="6.78746">
        <ele>2240</ele>
        <time>2019-10-06T09:27:50Z</time>
      </trkpt>
      <trkpt lat="45.73909" lon="6.78744">
        <ele>2240</ele>
        <time>2019-10-06T09:27:51Z</time>
      </trkpt>
      <trkpt lat="45.73908" lon="6.78741">
        <ele>2239</ele>
        <time>2019-10-06T09:27:52Z</time>
      </trkpt>
      <trkpt lat="45.73906" lon="6.78738">
        <ele>2238</ele>
        <time>2019-10-06T09:27:53Z</time>
      </trkpt>
      <trkpt lat="45.73905" lon="6.78735">
        <ele>2238</ele>
        <time>2019-10-06T09:27:54Z</time>
      </trkpt>
      <trkpt lat="45.73904" lon="6.78732">
        <ele>2238</ele>
        <time>2019-10-06T09:27:55Z</time>
      </trkpt>
      <trkpt lat="45.73903" lon="6.78727">
        <ele>2238</ele>
        <time>2019-10-06T09:27:56Z</time>
      </trkpt>
      <trkpt lat="45.73903" lon="6.78725">
        <ele>2238</ele>
        <time>2019-10-06T09:27:57Z</time>
      </trkpt>
      <trkpt lat="45.73903" lon="6.7872">
        <ele>2238</ele>
        <time>2019-10-06T09:27:58Z</time>
      </trkpt>
      <trkpt lat="45.73903" lon="6.78718">
        <ele>2238</ele>
        <time>2019-10-06T09:27:59Z</time>
      </trkpt>
      <trkpt lat="45.73903" lon="6.78715">
        <ele>2238</ele>
        <time>2019-10-06T09:28:00Z</time>
      </trkpt>
      <trkpt lat="45.73903" lon="6.78712">
        <ele>2238</ele>
        <time>2019-10-06T09:28:01Z</time>
      </trkpt>
      <trkpt lat="45.73903" lon="6.78709">
        <ele>2238</ele>
        <time>2019-10-06T09:28:02Z</time>
      </trkpt>
      <trkpt lat="45.73903" lon="6.78706">
        <ele>2237</ele>
        <time>2019-10-06T09:28:03Z</time>
      </trkpt>
      <trkpt lat="45.73903" lon="6.78704">
        <ele>2236</ele>
        <time>2019-10-06T09:28:04Z</time>
      </trkpt>
      <trkpt lat="45.73903" lon="6.78699">
        <ele>2236</ele>
        <time>2019-10-06T09:28:05Z</time>
      </trkpt>
      <trkpt lat="45.73903" lon="6.78697">
        <ele>2236</ele>
        <time>2019-10-06T09:28:06Z</time>
      </trkpt>
      <trkpt lat="45.73903" lon="6.78694">
        <ele>2235</ele>
        <time>2019-10-06T09:28:07Z</time>
      </trkpt>
      <trkpt lat="45.73904" lon="6.78691">
        <ele>2234</ele>
        <time>2019-10-06T09:28:08Z</time>
      </trkpt>
      <trkpt lat="45.73904" lon="6.78688">
        <ele>2234</ele>
        <time>2019-10-06T09:28:09Z</time>
      </trkpt>
      <trkpt lat="45.73904" lon="6.78685">
        <ele>2233</ele>
        <time>2019-10-06T09:28:10Z</time>
      </trkpt>
      <trkpt lat="45.73904" lon="6.78682">
        <ele>2232</ele>
        <time>2019-10-06T09:28:11Z</time>
      </trkpt>
      <trkpt lat="45.73903" lon="6.78679">
        <ele>2231</ele>
        <time>2019-10-06T09:28:12Z</time>
      </trkpt>
      <trkpt lat="45.73901" lon="6.78676">
        <ele>2231</ele>
        <time>2019-10-06T09:28:13Z</time>
      </trkpt>
      <trkpt lat="45.739" lon="6.78674">
        <ele>2231</ele>
        <time>2019-10-06T09:28:14Z</time>
      </trkpt>
      <trkpt lat="45.73898" lon="6.78671">
        <ele>2230</ele>
        <time>2019-10-06T09:28:15Z</time>
      </trkpt>
      <trkpt lat="45.73897" lon="6.78669">
        <ele>2230</ele>
        <time>2019-10-06T09:28:16Z</time>
      </trkpt>
      <trkpt lat="45.73895" lon="6.78668">
        <ele>2230</ele>
        <time>2019-10-06T09:28:17Z</time>
      </trkpt>
      <trkpt lat="45.73893" lon="6.78666">
        <ele>2229</ele>
        <time>2019-10-06T09:28:18Z</time>
      </trkpt>
      <trkpt lat="45.73891" lon="6.78664">
        <ele>2229</ele>
        <time>2019-10-06T09:28:19Z</time>
      </trkpt>
      <trkpt lat="45.73889" lon="6.78663">
        <ele>2229</ele>
        <time>2019-10-06T09:28:20Z</time>
      </trkpt>
      <trkpt lat="45.73886" lon="6.78661">
        <ele>2229</ele>
        <time>2019-10-06T09:28:21Z</time>
      </trkpt>
      <trkpt lat="45.73885" lon="6.7866">
        <ele>2229</ele>
        <time>2019-10-06T09:28:22Z</time>
      </trkpt>
      <trkpt lat="45.73883" lon="6.78659">
        <ele>2229</ele>
        <time>2019-10-06T09:28:23Z</time>
      </trkpt>
      <trkpt lat="45.73882" lon="6.78657">
        <ele>2228</ele>
        <time>2019-10-06T09:28:24Z</time>
      </trkpt>
      <trkpt lat="45.7388" lon="6.78656">
        <ele>2228</ele>
        <time>2019-10-06T09:28:25Z</time>
      </trkpt>
      <trkpt lat="45.73878" lon="6.78654">
        <ele>2227</ele>
        <time>2019-10-06T09:28:26Z</time>
      </trkpt>
      <trkpt lat="45.73877" lon="6.78652">
        <ele>2226</ele>
        <time>2019-10-06T09:28:27Z</time>
      </trkpt>
      <trkpt lat="45.73876" lon="6.7865">
        <ele>2226</ele>
        <time>2019-10-06T09:28:28Z</time>
      </trkpt>
      <trkpt lat="45.73874" lon="6.78648">
        <ele>2225</ele>
        <time>2019-10-06T09:28:29Z</time>
      </trkpt>
      <trkpt lat="45.73872" lon="6.78643">
        <ele>2225</ele>
        <time>2019-10-06T09:28:31Z</time>
      </trkpt>
      <trkpt lat="45.73871" lon="6.78641">
        <ele>2225</ele>
        <time>2019-10-06T09:28:32Z</time>
      </trkpt>
      <trkpt lat="45.7387" lon="6.78639">
        <ele>2225</ele>
        <time>2019-10-06T09:28:33Z</time>
      </trkpt>
      <trkpt lat="45.73869" lon="6.78637">
        <ele>2224</ele>
        <time>2019-10-06T09:28:34Z</time>
      </trkpt>
      <trkpt lat="45.73867" lon="6.78635">
        <ele>2223</ele>
        <time>2019-10-06T09:28:35Z</time>
      </trkpt>
      <trkpt lat="45.73865" lon="6.78633">
        <ele>2223</ele>
        <time>2019-10-06T09:28:36Z</time>
      </trkpt>
      <trkpt lat="45.73863" lon="6.78631">
        <ele>2222</ele>
        <time>2019-10-06T09:28:37Z</time>
      </trkpt>
      <trkpt lat="45.73861" lon="6.7863">
        <ele>2222</ele>
        <time>2019-10-06T09:28:38Z</time>
      </trkpt>
      <trkpt lat="45.73859" lon="6.78628">
        <ele>2222</ele>
        <time>2019-10-06T09:28:39Z</time>
      </trkpt>
      <trkpt lat="45.73857" lon="6.78627">
        <ele>2220</ele>
        <time>2019-10-06T09:28:40Z</time>
      </trkpt>
      <trkpt lat="45.73855" lon="6.78626">
        <ele>2219</ele>
        <time>2019-10-06T09:28:41Z</time>
      </trkpt>
      <trkpt lat="45.73853" lon="6.78625">
        <ele>2218</ele>
        <time>2019-10-06T09:28:42Z</time>
      </trkpt>
      <trkpt lat="45.73851" lon="6.78624">
        <ele>2218</ele>
        <time>2019-10-06T09:28:43Z</time>
      </trkpt>
      <trkpt lat="45.73849" lon="6.78624">
        <ele>2217</ele>
        <time>2019-10-06T09:28:44Z</time>
      </trkpt>
      <trkpt lat="45.73848" lon="6.78622">
        <ele>2216</ele>
        <time>2019-10-06T09:28:45Z</time>
      </trkpt>
      <trkpt lat="45.73846" lon="6.78618">
        <ele>2215</ele>
        <time>2019-10-06T09:28:47Z</time>
      </trkpt>
      <trkpt lat="45.73843" lon="6.78615">
        <ele>2214</ele>
        <time>2019-10-06T09:28:48Z</time>
      </trkpt>
      <trkpt lat="45.73843" lon="6.78615">
        <ele>2213</ele>
        <time>2019-10-06T09:28:49Z</time>
      </trkpt>
      <trkpt lat="45.73841" lon="6.78613">
        <ele>2213</ele>
        <time>2019-10-06T09:28:50Z</time>
      </trkpt>
      <trkpt lat="45.73839" lon="6.78611">
        <ele>2212</ele>
        <time>2019-10-06T09:28:51Z</time>
      </trkpt>
      <trkpt lat="45.73838" lon="6.78608">
        <ele>2211</ele>
        <time>2019-10-06T09:28:52Z</time>
      </trkpt>
      <trkpt lat="45.73836" lon="6.78606">
        <ele>2210</ele>
        <time>2019-10-06T09:28:53Z</time>
      </trkpt>
      <trkpt lat="45.73834" lon="6.78604">
        <ele>2210</ele>
        <time>2019-10-06T09:28:54Z</time>
      </trkpt>
      <trkpt lat="45.73832" lon="6.78601">
        <ele>2209</ele>
        <time>2019-10-06T09:28:55Z</time>
      </trkpt>
      <trkpt lat="45.7383" lon="6.78599">
        <ele>2209</ele>
        <time>2019-10-06T09:28:56Z</time>
      </trkpt>
      <trkpt lat="45.73828" lon="6.78597">
        <ele>2208</ele>
        <time>2019-10-06T09:28:57Z</time>
      </trkpt>
      <trkpt lat="45.73825" lon="6.78595">
        <ele>2208</ele>
        <time>2019-10-06T09:28:58Z</time>
      </trkpt>
      <trkpt lat="45.73823" lon="6.78594">
        <ele>2208</ele>
        <time>2019-10-06T09:28:59Z</time>
      </trkpt>
      <trkpt lat="45.7382" lon="6.78593">
        <ele>2207</ele>
        <time>2019-10-06T09:29:00Z</time>
      </trkpt>
      <trkpt lat="45.73818" lon="6.78592">
        <ele>2207</ele>
        <time>2019-10-06T09:29:01Z</time>
      </trkpt>
      <trkpt lat="45.73816" lon="6.78591">
        <ele>2206</ele>
        <time>2019-10-06T09:29:02Z</time>
      </trkpt>
      <trkpt lat="45.73813" lon="6.7859">
        <ele>2205</ele>
        <time>2019-10-06T09:29:03Z</time>
      </trkpt>
      <trkpt lat="45.73811" lon="6.78589">
        <ele>2205</ele>
        <time>2019-10-06T09:29:04Z</time>
      </trkpt>
      <trkpt lat="45.73809" lon="6.78589">
        <ele>2204</ele>
        <time>2019-10-06T09:29:05Z</time>
      </trkpt>
      <trkpt lat="45.73807" lon="6.78587">
        <ele>2204</ele>
        <time>2019-10-06T09:29:06Z</time>
      </trkpt>
      <trkpt lat="45.73805" lon="6.78586">
        <ele>2203</ele>
        <time>2019-10-06T09:29:07Z</time>
      </trkpt>
      <trkpt lat="45.73803" lon="6.78584">
        <ele>2203</ele>
        <time>2019-10-06T09:29:08Z</time>
      </trkpt>
      <trkpt lat="45.73801" lon="6.78582">
        <ele>2203</ele>
        <time>2019-10-06T09:29:09Z</time>
      </trkpt>
      <trkpt lat="45.73799" lon="6.7858">
        <ele>2203</ele>
        <time>2019-10-06T09:29:10Z</time>
      </trkpt>
      <trkpt lat="45.73797" lon="6.78578">
        <ele>2202</ele>
        <time>2019-10-06T09:29:11Z</time>
      </trkpt>
      <trkpt lat="45.73795" lon="6.78576">
        <ele>2201</ele>
        <time>2019-10-06T09:29:12Z</time>
      </trkpt>
      <trkpt lat="45.73792" lon="6.78575">
        <ele>2200</ele>
        <time>2019-10-06T09:29:13Z</time>
      </trkpt>
      <trkpt lat="45.7379" lon="6.78573">
        <ele>2200</ele>
        <time>2019-10-06T09:29:14Z</time>
      </trkpt>
      <trkpt lat="45.73787" lon="6.78571">
        <ele>2199</ele>
        <time>2019-10-06T09:29:15Z</time>
      </trkpt>
      <trkpt lat="45.73785" lon="6.78571">
        <ele>2199</ele>
        <time>2019-10-06T09:29:16Z</time>
      </trkpt>
      <trkpt lat="45.73783" lon="6.78569">
        <ele>2198</ele>
        <time>2019-10-06T09:29:17Z</time>
      </trkpt>
      <trkpt lat="45.7378" lon="6.78568">
        <ele>2197</ele>
        <time>2019-10-06T09:29:18Z</time>
      </trkpt>
      <trkpt lat="45.73778" lon="6.78566">
        <ele>2197</ele>
        <time>2019-10-06T09:29:19Z</time>
      </trkpt>
      <trkpt lat="45.73775" lon="6.78565">
        <ele>2196</ele>
        <time>2019-10-06T09:29:20Z</time>
      </trkpt>
      <trkpt lat="45.73773" lon="6.78563">
        <ele>2196</ele>
        <time>2019-10-06T09:29:21Z</time>
      </trkpt>
      <trkpt lat="45.73771" lon="6.78561">
        <ele>2194</ele>
        <time>2019-10-06T09:29:22Z</time>
      </trkpt>
      <trkpt lat="45.7377" lon="6.78559">
        <ele>2194</ele>
        <time>2019-10-06T09:29:23Z</time>
      </trkpt>
      <trkpt lat="45.73768" lon="6.78556">
        <ele>2194</ele>
        <time>2019-10-06T09:29:24Z</time>
      </trkpt>
      <trkpt lat="45.73767" lon="6.78553">
        <ele>2193</ele>
        <time>2019-10-06T09:29:25Z</time>
      </trkpt>
      <trkpt lat="45.73765" lon="6.78551">
        <ele>2192</ele>
        <time>2019-10-06T09:29:26Z</time>
      </trkpt>
      <trkpt lat="45.73763" lon="6.78549">
        <ele>2191</ele>
        <time>2019-10-06T09:29:27Z</time>
      </trkpt>
      <trkpt lat="45.73761" lon="6.78548">
        <ele>2191</ele>
        <time>2019-10-06T09:29:28Z</time>
      </trkpt>
      <trkpt lat="45.73758" lon="6.78546">
        <ele>2190</ele>
        <time>2019-10-06T09:29:29Z</time>
      </trkpt>
      <trkpt lat="45.73756" lon="6.78544">
        <ele>2189</ele>
        <time>2019-10-06T09:29:30Z</time>
      </trkpt>
      <trkpt lat="45.73755" lon="6.78542">
        <ele>2189</ele>
        <time>2019-10-06T09:29:31Z</time>
      </trkpt>
      <trkpt lat="45.73753" lon="6.7854">
        <ele>2188</ele>
        <time>2019-10-06T09:29:32Z</time>
      </trkpt>
      <trkpt lat="45.73753" lon="6.78537">
        <ele>2188</ele>
        <time>2019-10-06T09:29:33Z</time>
      </trkpt>
      <trkpt lat="45.73752" lon="6.78533">
        <ele>2188</ele>
        <time>2019-10-06T09:29:34Z</time>
      </trkpt>
      <trkpt lat="45.73752" lon="6.78531">
        <ele>2187</ele>
        <time>2019-10-06T09:29:35Z</time>
      </trkpt>
      <trkpt lat="45.73751" lon="6.78528">
        <ele>2187</ele>
        <time>2019-10-06T09:29:36Z</time>
      </trkpt>
      <trkpt lat="45.7375" lon="6.78526">
        <ele>2185</ele>
        <time>2019-10-06T09:29:37Z</time>
      </trkpt>
      <trkpt lat="45.73748" lon="6.78523">
        <ele>2184</ele>
        <time>2019-10-06T09:29:38Z</time>
      </trkpt>
      <trkpt lat="45.73747" lon="6.7852">
        <ele>2184</ele>
        <time>2019-10-06T09:29:39Z</time>
      </trkpt>
      <trkpt lat="45.73745" lon="6.78518">
        <ele>2184</ele>
        <time>2019-10-06T09:29:40Z</time>
      </trkpt>
      <trkpt lat="45.73743" lon="6.78516">
        <ele>2183</ele>
        <time>2019-10-06T09:29:41Z</time>
      </trkpt>
      <trkpt lat="45.73741" lon="6.78514">
        <ele>2182</ele>
        <time>2019-10-06T09:29:42Z</time>
      </trkpt>
      <trkpt lat="45.73739" lon="6.78511">
        <ele>2182</ele>
        <time>2019-10-06T09:29:43Z</time>
      </trkpt>
      <trkpt lat="45.73737" lon="6.7851">
        <ele>2181</ele>
        <time>2019-10-06T09:29:44Z</time>
      </trkpt>
      <trkpt lat="45.73735" lon="6.78508">
        <ele>2180</ele>
        <time>2019-10-06T09:29:45Z</time>
      </trkpt>
      <trkpt lat="45.73733" lon="6.78507">
        <ele>2180</ele>
        <time>2019-10-06T09:29:46Z</time>
      </trkpt>
      <trkpt lat="45.7373" lon="6.78506">
        <ele>2179</ele>
        <time>2019-10-06T09:29:47Z</time>
      </trkpt>
      <trkpt lat="45.73728" lon="6.78505">
        <ele>2179</ele>
        <time>2019-10-06T09:29:48Z</time>
      </trkpt>
      <trkpt lat="45.73725" lon="6.78504">
        <ele>2178</ele>
        <time>2019-10-06T09:29:49Z</time>
      </trkpt>
      <trkpt lat="45.73723" lon="6.78503">
        <ele>2177</ele>
        <time>2019-10-06T09:29:50Z</time>
      </trkpt>
      <trkpt lat="45.73721" lon="6.78502">
        <ele>2177</ele>
        <time>2019-10-06T09:29:51Z</time>
      </trkpt>
      <trkpt lat="45.73719" lon="6.78501">
        <ele>2177</ele>
        <time>2019-10-06T09:29:52Z</time>
      </trkpt>
      <trkpt lat="45.73717" lon="6.78499">
        <ele>2177</ele>
        <time>2019-10-06T09:29:53Z</time>
      </trkpt>
      <trkpt lat="45.73715" lon="6.78498">
        <ele>2176</ele>
        <time>2019-10-06T09:29:54Z</time>
      </trkpt>
      <trkpt lat="45.73713" lon="6.78498">
        <ele>2176</ele>
        <time>2019-10-06T09:29:55Z</time>
      </trkpt>
      <trkpt lat="45.7371" lon="6.78497">
        <ele>2176</ele>
        <time>2019-10-06T09:29:56Z</time>
      </trkpt>
      <trkpt lat="45.73708" lon="6.78496">
        <ele>2176</ele>
        <time>2019-10-06T09:29:57Z</time>
      </trkpt>
      <trkpt lat="45.73706" lon="6.78494">
        <ele>2175</ele>
        <time>2019-10-06T09:29:58Z</time>
      </trkpt>
      <trkpt lat="45.73704" lon="6.78492">
        <ele>2175</ele>
        <time>2019-10-06T09:29:59Z</time>
      </trkpt>
      <trkpt lat="45.73701" lon="6.78491">
        <ele>2175</ele>
        <time>2019-10-06T09:30:00Z</time>
      </trkpt>
      <trkpt lat="45.73699" lon="6.7849">
        <ele>2175</ele>
        <time>2019-10-06T09:30:01Z</time>
      </trkpt>
      <trkpt lat="45.73697" lon="6.78489">
        <ele>2175</ele>
        <time>2019-10-06T09:30:02Z</time>
      </trkpt>
      <trkpt lat="45.73695" lon="6.78489">
        <ele>2175</ele>
        <time>2019-10-06T09:30:03Z</time>
      </trkpt>
      <trkpt lat="45.73693" lon="6.78488">
        <ele>2174</ele>
        <time>2019-10-06T09:30:04Z</time>
      </trkpt>
      <trkpt lat="45.73691" lon="6.78488">
        <ele>2174</ele>
        <time>2019-10-06T09:30:05Z</time>
      </trkpt>
      <trkpt lat="45.73688" lon="6.78488">
        <ele>2174</ele>
        <time>2019-10-06T09:30:06Z</time>
      </trkpt>
      <trkpt lat="45.73686" lon="6.78486">
        <ele>2174</ele>
        <time>2019-10-06T09:30:07Z</time>
      </trkpt>
      <trkpt lat="45.73684" lon="6.78483">
        <ele>2174</ele>
        <time>2019-10-06T09:30:08Z</time>
      </trkpt>
      <trkpt lat="45.73683" lon="6.7848">
        <ele>2173</ele>
        <time>2019-10-06T09:30:09Z</time>
      </trkpt>
      <trkpt lat="45.73682" lon="6.78478">
        <ele>2172</ele>
        <time>2019-10-06T09:30:10Z</time>
      </trkpt>
      <trkpt lat="45.7368" lon="6.78476">
        <ele>2171</ele>
        <time>2019-10-06T09:30:11Z</time>
      </trkpt>
      <trkpt lat="45.73679" lon="6.78474">
        <ele>2171</ele>
        <time>2019-10-06T09:30:12Z</time>
      </trkpt>
      <trkpt lat="45.73677" lon="6.78472">
        <ele>2171</ele>
        <time>2019-10-06T09:30:13Z</time>
      </trkpt>
      <trkpt lat="45.73675" lon="6.78471">
        <ele>2171</ele>
        <time>2019-10-06T09:30:14Z</time>
      </trkpt>
      <trkpt lat="45.73672" lon="6.7847">
        <ele>2171</ele>
        <time>2019-10-06T09:30:15Z</time>
      </trkpt>
      <trkpt lat="45.7367" lon="6.78469">
        <ele>2170</ele>
        <time>2019-10-06T09:30:16Z</time>
      </trkpt>
      <trkpt lat="45.73668" lon="6.78468">
        <ele>2168</ele>
        <time>2019-10-06T09:30:17Z</time>
      </trkpt>
      <trkpt lat="45.73665" lon="6.78467">
        <ele>2167</ele>
        <time>2019-10-06T09:30:18Z</time>
      </trkpt>
      <trkpt lat="45.73663" lon="6.78466">
        <ele>2167</ele>
        <time>2019-10-06T09:30:19Z</time>
      </trkpt>
      <trkpt lat="45.73661" lon="6.78467">
        <ele>2167</ele>
        <time>2019-10-06T09:30:20Z</time>
      </trkpt>
      <trkpt lat="45.73659" lon="6.78468">
        <ele>2167</ele>
        <time>2019-10-06T09:30:21Z</time>
      </trkpt>
      <trkpt lat="45.73657" lon="6.78472">
        <ele>2166</ele>
        <time>2019-10-06T09:30:23Z</time>
      </trkpt>
      <trkpt lat="45.73654" lon="6.78473">
        <ele>2166</ele>
        <time>2019-10-06T09:30:25Z</time>
      </trkpt>
      <trkpt lat="45.73651" lon="6.78471">
        <ele>2166</ele>
        <time>2019-10-06T09:30:27Z</time>
      </trkpt>
      <trkpt lat="45.73649" lon="6.7847">
        <ele>2166</ele>
        <time>2019-10-06T09:30:28Z</time>
      </trkpt>
      <trkpt lat="45.73647" lon="6.78469">
        <ele>2166</ele>
        <time>2019-10-06T09:30:29Z</time>
      </trkpt>
      <trkpt lat="45.73645" lon="6.78468">
        <ele>2166</ele>
        <time>2019-10-06T09:30:30Z</time>
      </trkpt>
      <trkpt lat="45.73643" lon="6.78467">
        <ele>2166</ele>
        <time>2019-10-06T09:30:31Z</time>
      </trkpt>
      <trkpt lat="45.73641" lon="6.78466">
        <ele>2165</ele>
        <time>2019-10-06T09:30:32Z</time>
      </trkpt>
      <trkpt lat="45.73639" lon="6.78466">
        <ele>2165</ele>
        <time>2019-10-06T09:30:33Z</time>
      </trkpt>
      <trkpt lat="45.73636" lon="6.78464">
        <ele>2165</ele>
        <time>2019-10-06T09:30:34Z</time>
      </trkpt>
      <trkpt lat="45.73634" lon="6.78464">
        <ele>2165</ele>
        <time>2019-10-06T09:30:35Z</time>
      </trkpt>
      <trkpt lat="45.73632" lon="6.78462">
        <ele>2164</ele>
        <time>2019-10-06T09:30:36Z</time>
      </trkpt>
      <trkpt lat="45.7363" lon="6.78459">
        <ele>2164</ele>
        <time>2019-10-06T09:30:37Z</time>
      </trkpt>
      <trkpt lat="45.73628" lon="6.78457">
        <ele>2163</ele>
        <time>2019-10-06T09:30:38Z</time>
      </trkpt>
      <trkpt lat="45.73627" lon="6.78455">
        <ele>2163</ele>
        <time>2019-10-06T09:30:39Z</time>
      </trkpt>
      <trkpt lat="45.73625" lon="6.78453">
        <ele>2163</ele>
        <time>2019-10-06T09:30:40Z</time>
      </trkpt>
      <trkpt lat="45.73624" lon="6.78451">
        <ele>2162</ele>
        <time>2019-10-06T09:30:41Z</time>
      </trkpt>
      <trkpt lat="45.73623" lon="6.78448">
        <ele>2162</ele>
        <time>2019-10-06T09:30:42Z</time>
      </trkpt>
      <trkpt lat="45.73622" lon="6.78445">
        <ele>2162</ele>
        <time>2019-10-06T09:30:43Z</time>
      </trkpt>
      <trkpt lat="45.73621" lon="6.78443">
        <ele>2161</ele>
        <time>2019-10-06T09:30:44Z</time>
      </trkpt>
      <trkpt lat="45.73619" lon="6.78441">
        <ele>2161</ele>
        <time>2019-10-06T09:30:45Z</time>
      </trkpt>
      <trkpt lat="45.73616" lon="6.78439">
        <ele>2161</ele>
        <time>2019-10-06T09:30:46Z</time>
      </trkpt>
      <trkpt lat="45.73614" lon="6.78439">
        <ele>2160</ele>
        <time>2019-10-06T09:30:47Z</time>
      </trkpt>
      <trkpt lat="45.73612" lon="6.7844">
        <ele>2160</ele>
        <time>2019-10-06T09:30:48Z</time>
      </trkpt>
      <trkpt lat="45.7361" lon="6.7844">
        <ele>2160</ele>
        <time>2019-10-06T09:30:49Z</time>
      </trkpt>
      <trkpt lat="45.73608" lon="6.78441">
        <ele>2160</ele>
        <time>2019-10-06T09:30:50Z</time>
      </trkpt>
      <trkpt lat="45.73606" lon="6.78442">
        <ele>2159</ele>
        <time>2019-10-06T09:30:51Z</time>
      </trkpt>
      <trkpt lat="45.73603" lon="6.78443">
        <ele>2159</ele>
        <time>2019-10-06T09:30:52Z</time>
      </trkpt>
      <trkpt lat="45.73601" lon="6.78444">
        <ele>2157</ele>
        <time>2019-10-06T09:30:53Z</time>
      </trkpt>
      <trkpt lat="45.73599" lon="6.78445">
        <ele>2156</ele>
        <time>2019-10-06T09:30:54Z</time>
      </trkpt>
      <trkpt lat="45.73596" lon="6.78444">
        <ele>2156</ele>
        <time>2019-10-06T09:30:55Z</time>
      </trkpt>
      <trkpt lat="45.73594" lon="6.78443">
        <ele>2156</ele>
        <time>2019-10-06T09:30:56Z</time>
      </trkpt>
      <trkpt lat="45.73593" lon="6.7844">
        <ele>2156</ele>
        <time>2019-10-06T09:30:57Z</time>
      </trkpt>
      <trkpt lat="45.73592" lon="6.78438">
        <ele>2156</ele>
        <time>2019-10-06T09:30:58Z</time>
      </trkpt>
      <trkpt lat="45.7359" lon="6.78436">
        <ele>2155</ele>
        <time>2019-10-06T09:30:59Z</time>
      </trkpt>
      <trkpt lat="45.73588" lon="6.78434">
        <ele>2155</ele>
        <time>2019-10-06T09:31:00Z</time>
      </trkpt>
      <trkpt lat="45.73587" lon="6.78432">
        <ele>2155</ele>
        <time>2019-10-06T09:31:01Z</time>
      </trkpt>
      <trkpt lat="45.73585" lon="6.7843">
        <ele>2154</ele>
        <time>2019-10-06T09:31:02Z</time>
      </trkpt>
      <trkpt lat="45.73583" lon="6.78428">
        <ele>2154</ele>
        <time>2019-10-06T09:31:03Z</time>
      </trkpt>
      <trkpt lat="45.73581" lon="6.78426">
        <ele>2153</ele>
        <time>2019-10-06T09:31:04Z</time>
      </trkpt>
      <trkpt lat="45.73579" lon="6.78423">
        <ele>2153</ele>
        <time>2019-10-06T09:31:05Z</time>
      </trkpt>
      <trkpt lat="45.73578" lon="6.7842">
        <ele>2152</ele>
        <time>2019-10-06T09:31:06Z</time>
      </trkpt>
      <trkpt lat="45.73577" lon="6.78417">
        <ele>2151</ele>
        <time>2019-10-06T09:31:07Z</time>
      </trkpt>
      <trkpt lat="45.73576" lon="6.78414">
        <ele>2151</ele>
        <time>2019-10-06T09:31:08Z</time>
      </trkpt>
      <trkpt lat="45.73575" lon="6.78411">
        <ele>2150</ele>
        <time>2019-10-06T09:31:09Z</time>
      </trkpt>
      <trkpt lat="45.73575" lon="6.78407">
        <ele>2150</ele>
        <time>2019-10-06T09:31:10Z</time>
      </trkpt>
      <trkpt lat="45.73575" lon="6.78404">
        <ele>2150</ele>
        <time>2019-10-06T09:31:11Z</time>
      </trkpt>
      <trkpt lat="45.73574" lon="6.78401">
        <ele>2150</ele>
        <time>2019-10-06T09:31:12Z</time>
      </trkpt>
      <trkpt lat="45.73574" lon="6.78398">
        <ele>2149</ele>
        <time>2019-10-06T09:31:13Z</time>
      </trkpt>
      <trkpt lat="45.73574" lon="6.78395">
        <ele>2148</ele>
        <time>2019-10-06T09:31:14Z</time>
      </trkpt>
      <trkpt lat="45.73573" lon="6.78392">
        <ele>2148</ele>
        <time>2019-10-06T09:31:15Z</time>
      </trkpt>
      <trkpt lat="45.73573" lon="6.78389">
        <ele>2147</ele>
        <time>2019-10-06T09:31:16Z</time>
      </trkpt>
      <trkpt lat="45.73572" lon="6.78386">
        <ele>2146</ele>
        <time>2019-10-06T09:31:17Z</time>
      </trkpt>
      <trkpt lat="45.73571" lon="6.78383">
        <ele>2145</ele>
        <time>2019-10-06T09:31:18Z</time>
      </trkpt>
      <trkpt lat="45.7357" lon="6.78379">
        <ele>2145</ele>
        <time>2019-10-06T09:31:19Z</time>
      </trkpt>
      <trkpt lat="45.7357" lon="6.78376">
        <ele>2144</ele>
        <time>2019-10-06T09:31:20Z</time>
      </trkpt>
      <trkpt lat="45.73569" lon="6.78372">
        <ele>2142</ele>
        <time>2019-10-06T09:31:21Z</time>
      </trkpt>
      <trkpt lat="45.73569" lon="6.78369">
        <ele>2142</ele>
        <time>2019-10-06T09:31:22Z</time>
      </trkpt>
      <trkpt lat="45.73568" lon="6.78365">
        <ele>2141</ele>
        <time>2019-10-06T09:31:23Z</time>
      </trkpt>
      <trkpt lat="45.73567" lon="6.78363">
        <ele>2141</ele>
        <time>2019-10-06T09:31:24Z</time>
      </trkpt>
      <trkpt lat="45.73565" lon="6.78359">
        <ele>2141</ele>
        <time>2019-10-06T09:31:25Z</time>
      </trkpt>
      <trkpt lat="45.73564" lon="6.78356">
        <ele>2140</ele>
        <time>2019-10-06T09:31:26Z</time>
      </trkpt>
      <trkpt lat="45.73563" lon="6.78353">
        <ele>2140</ele>
        <time>2019-10-06T09:31:27Z</time>
      </trkpt>
      <trkpt lat="45.73561" lon="6.78349">
        <ele>2139</ele>
        <time>2019-10-06T09:31:28Z</time>
      </trkpt>
      <trkpt lat="45.7356" lon="6.78346">
        <ele>2139</ele>
        <time>2019-10-06T09:31:29Z</time>
      </trkpt>
      <trkpt lat="45.73558" lon="6.78343">
        <ele>2139</ele>
        <time>2019-10-06T09:31:30Z</time>
      </trkpt>
      <trkpt lat="45.73557" lon="6.78341">
        <ele>2139</ele>
        <time>2019-10-06T09:31:31Z</time>
      </trkpt>
      <trkpt lat="45.73555" lon="6.78338">
        <ele>2138</ele>
        <time>2019-10-06T09:31:32Z</time>
      </trkpt>
      <trkpt lat="45.73553" lon="6.78335">
        <ele>2138</ele>
        <time>2019-10-06T09:31:33Z</time>
      </trkpt>
      <trkpt lat="45.73552" lon="6.78332">
        <ele>2138</ele>
        <time>2019-10-06T09:31:34Z</time>
      </trkpt>
      <trkpt lat="45.7355" lon="6.7833">
        <ele>2137</ele>
        <time>2019-10-06T09:31:35Z</time>
      </trkpt>
      <trkpt lat="45.73548" lon="6.78327">
        <ele>2136</ele>
        <time>2019-10-06T09:31:36Z</time>
      </trkpt>
      <trkpt lat="45.73546" lon="6.78325">
        <ele>2135</ele>
        <time>2019-10-06T09:31:37Z</time>
      </trkpt>
      <trkpt lat="45.73544" lon="6.78323">
        <ele>2134</ele>
        <time>2019-10-06T09:31:38Z</time>
      </trkpt>
      <trkpt lat="45.73542" lon="6.7832">
        <ele>2134</ele>
        <time>2019-10-06T09:31:39Z</time>
      </trkpt>
      <trkpt lat="45.7354" lon="6.78318">
        <ele>2134</ele>
        <time>2019-10-06T09:31:40Z</time>
      </trkpt>
      <trkpt lat="45.73538" lon="6.78316">
        <ele>2134</ele>
        <time>2019-10-06T09:31:41Z</time>
      </trkpt>
      <trkpt lat="45.73536" lon="6.78313">
        <ele>2133</ele>
        <time>2019-10-06T09:31:42Z</time>
      </trkpt>
      <trkpt lat="45.73534" lon="6.78311">
        <ele>2133</ele>
        <time>2019-10-06T09:31:43Z</time>
      </trkpt>
      <trkpt lat="45.73532" lon="6.78309">
        <ele>2133</ele>
        <time>2019-10-06T09:31:44Z</time>
      </trkpt>
      <trkpt lat="45.7353" lon="6.78307">
        <ele>2132</ele>
        <time>2019-10-06T09:31:45Z</time>
      </trkpt>
      <trkpt lat="45.73528" lon="6.78305">
        <ele>2131</ele>
        <time>2019-10-06T09:31:46Z</time>
      </trkpt>
      <trkpt lat="45.73527" lon="6.78303">
        <ele>2130</ele>
        <time>2019-10-06T09:31:47Z</time>
      </trkpt>
      <trkpt lat="45.73525" lon="6.78301">
        <ele>2130</ele>
        <time>2019-10-06T09:31:48Z</time>
      </trkpt>
      <trkpt lat="45.73523" lon="6.78299">
        <ele>2130</ele>
        <time>2019-10-06T09:31:49Z</time>
      </trkpt>
      <trkpt lat="45.73519" lon="6.78296">
        <ele>2130</ele>
        <time>2019-10-06T09:31:50Z</time>
      </trkpt>
      <trkpt lat="45.73518" lon="6.78295">
        <ele>2129</ele>
        <time>2019-10-06T09:31:51Z</time>
      </trkpt>
      <trkpt lat="45.73516" lon="6.78294">
        <ele>2128</ele>
        <time>2019-10-06T09:31:52Z</time>
      </trkpt>
      <trkpt lat="45.73514" lon="6.78293">
        <ele>2128</ele>
        <time>2019-10-06T09:31:53Z</time>
      </trkpt>
      <trkpt lat="45.73511" lon="6.78291">
        <ele>2128</ele>
        <time>2019-10-06T09:31:54Z</time>
      </trkpt>
      <trkpt lat="45.73509" lon="6.7829">
        <ele>2128</ele>
        <time>2019-10-06T09:31:55Z</time>
      </trkpt>
      <trkpt lat="45.73507" lon="6.78288">
        <ele>2127</ele>
        <time>2019-10-06T09:31:56Z</time>
      </trkpt>
      <trkpt lat="45.73504" lon="6.78288">
        <ele>2126</ele>
        <time>2019-10-06T09:31:57Z</time>
      </trkpt>
      <trkpt lat="45.73502" lon="6.78288">
        <ele>2126</ele>
        <time>2019-10-06T09:31:58Z</time>
      </trkpt>
      <trkpt lat="45.735" lon="6.78288">
        <ele>2126</ele>
        <time>2019-10-06T09:31:59Z</time>
      </trkpt>
      <trkpt lat="45.73498" lon="6.78288">
        <ele>2125</ele>
        <time>2019-10-06T09:32:00Z</time>
      </trkpt>
      <trkpt lat="45.73495" lon="6.78289">
        <ele>2125</ele>
        <time>2019-10-06T09:32:01Z</time>
      </trkpt>
      <trkpt lat="45.73493" lon="6.78291">
        <ele>2125</ele>
        <time>2019-10-06T09:32:02Z</time>
      </trkpt>
      <trkpt lat="45.73492" lon="6.78293">
        <ele>2125</ele>
        <time>2019-10-06T09:32:03Z</time>
      </trkpt>
      <trkpt lat="45.73491" lon="6.78296">
        <ele>2125</ele>
        <time>2019-10-06T09:32:05Z</time>
      </trkpt>
      <trkpt lat="45.73489" lon="6.78298">
        <ele>2125</ele>
        <time>2019-10-06T09:32:07Z</time>
      </trkpt>
      <trkpt lat="45.73489" lon="6.78298">
        <ele>2125</ele>
        <time>2019-10-06T09:32:09Z</time>
      </trkpt>
      <trkpt lat="45.73489" lon="6.78301">
        <ele>2125</ele>
        <time>2019-10-06T09:32:10Z</time>
      </trkpt>
      <trkpt lat="45.73487" lon="6.78303">
        <ele>2126</ele>
        <time>2019-10-06T09:32:13Z</time>
      </trkpt>
      <trkpt lat="45.73485" lon="6.78303">
        <ele>2127</ele>
        <time>2019-10-06T09:32:15Z</time>
      </trkpt>
      <trkpt lat="45.73483" lon="6.78304">
        <ele>2129</ele>
        <time>2019-10-06T09:32:18Z</time>
      </trkpt>
      <trkpt lat="45.73483" lon="6.78304">
        <ele>2129</ele>
        <time>2019-10-06T09:32:19Z</time>
      </trkpt>
      <trkpt lat="45.73483" lon="6.78304">
        <ele>2129</ele>
        <time>2019-10-06T09:32:23Z</time>
      </trkpt>
      <trkpt lat="45.73482" lon="6.78306">
        <ele>2130</ele>
        <time>2019-10-06T09:32:25Z</time>
      </trkpt>
      <trkpt lat="45.73482" lon="6.78306">
        <ele>2130</ele>
        <time>2019-10-06T09:32:28Z</time>
      </trkpt>
      <trkpt lat="45.73483" lon="6.78309">
        <ele>2131</ele>
        <time>2019-10-06T09:32:30Z</time>
      </trkpt>
      <trkpt lat="45.73484" lon="6.78312">
        <ele>2133</ele>
        <time>2019-10-06T09:32:33Z</time>
      </trkpt>
      <trkpt lat="45.73484" lon="6.78312">
        <ele>2133</ele>
        <time>2019-10-06T09:32:34Z</time>
      </trkpt>
      <trkpt lat="45.73485" lon="6.78314">
        <ele>2133</ele>
        <time>2019-10-06T09:32:36Z</time>
      </trkpt>
      <trkpt lat="45.73486" lon="6.78316">
        <ele>2134</ele>
        <time>2019-10-06T09:32:39Z</time>
      </trkpt>
      <trkpt lat="45.73486" lon="6.78316">
        <ele>2134</ele>
        <time>2019-10-06T09:32:40Z</time>
      </trkpt>
      <trkpt lat="45.73485" lon="6.78319">
        <ele>2135</ele>
        <time>2019-10-06T09:32:42Z</time>
      </trkpt>
      <trkpt lat="45.73485" lon="6.78319">
        <ele>2135</ele>
        <time>2019-10-06T09:32:45Z</time>
      </trkpt>
      <trkpt lat="45.73485" lon="6.78322">
        <ele>2135</ele>
        <time>2019-10-06T09:32:46Z</time>
      </trkpt>
      <trkpt lat="45.73486" lon="6.78325">
        <ele>2136</ele>
        <time>2019-10-06T09:32:50Z</time>
      </trkpt>
      <trkpt lat="45.73486" lon="6.78325">
        <ele>2136</ele>
        <time>2019-10-06T09:32:51Z</time>
      </trkpt>
      <trkpt lat="45.73485" lon="6.78328">
        <ele>2136</ele>
        <time>2019-10-06T09:32:53Z</time>
      </trkpt>
      <trkpt lat="45.73484" lon="6.78331">
        <ele>2136</ele>
        <time>2019-10-06T09:32:55Z</time>
      </trkpt>
      <trkpt lat="45.73484" lon="6.78334">
        <ele>2136</ele>
        <time>2019-10-06T09:32:57Z</time>
      </trkpt>
      <trkpt lat="45.73484" lon="6.78336">
        <ele>2136</ele>
        <time>2019-10-06T09:32:59Z</time>
      </trkpt>
      <trkpt lat="45.73483" lon="6.7834">
        <ele>2135</ele>
        <time>2019-10-06T09:33:01Z</time>
      </trkpt>
      <trkpt lat="45.73483" lon="6.78344">
        <ele>2135</ele>
        <time>2019-10-06T09:33:03Z</time>
      </trkpt>
      <trkpt lat="45.73483" lon="6.78348">
        <ele>2134</ele>
        <time>2019-10-06T09:33:05Z</time>
      </trkpt>
      <trkpt lat="45.73483" lon="6.78353">
        <ele>2133</ele>
        <time>2019-10-06T09:33:07Z</time>
      </trkpt>
      <trkpt lat="45.73484" lon="6.78358">
        <ele>2132</ele>
        <time>2019-10-06T09:33:09Z</time>
      </trkpt>
      <trkpt lat="45.73485" lon="6.78362">
        <ele>2131</ele>
        <time>2019-10-06T09:33:11Z</time>
      </trkpt>
      <trkpt lat="45.73483" lon="6.78366">
        <ele>2130</ele>
        <time>2019-10-06T09:33:13Z</time>
      </trkpt>
      <trkpt lat="45.7348" lon="6.78365">
        <ele>2128</ele>
        <time>2019-10-06T09:33:15Z</time>
      </trkpt>
      <trkpt lat="45.73477" lon="6.78363">
        <ele>2127</ele>
        <time>2019-10-06T09:33:17Z</time>
      </trkpt>
      <trkpt lat="45.73475" lon="6.7836">
        <ele>2126</ele>
        <time>2019-10-06T09:33:19Z</time>
      </trkpt>
      <trkpt lat="45.73472" lon="6.78358">
        <ele>2126</ele>
        <time>2019-10-06T09:33:21Z</time>
      </trkpt>
      <trkpt lat="45.73471" lon="6.78361">
        <ele>2125</ele>
        <time>2019-10-06T09:33:24Z</time>
      </trkpt>
      <trkpt lat="45.73471" lon="6.78361">
        <ele>2124</ele>
        <time>2019-10-06T09:33:25Z</time>
      </trkpt>
      <trkpt lat="45.73469" lon="6.78366">
        <ele>2122</ele>
        <time>2019-10-06T09:33:26Z</time>
      </trkpt>
      <trkpt lat="45.73469" lon="6.78369">
        <ele>2121</ele>
        <time>2019-10-06T09:33:27Z</time>
      </trkpt>
      <trkpt lat="45.73469" lon="6.78373">
        <ele>2120</ele>
        <time>2019-10-06T09:33:28Z</time>
      </trkpt>
      <trkpt lat="45.73468" lon="6.78376">
        <ele>2120</ele>
        <time>2019-10-06T09:33:29Z</time>
      </trkpt>
      <trkpt lat="45.73467" lon="6.78378">
        <ele>2119</ele>
        <time>2019-10-06T09:33:30Z</time>
      </trkpt>
      <trkpt lat="45.73467" lon="6.78381">
        <ele>2119</ele>
        <time>2019-10-06T09:33:31Z</time>
      </trkpt>
      <trkpt lat="45.73464" lon="6.78384">
        <ele>2119</ele>
        <time>2019-10-06T09:33:33Z</time>
      </trkpt>
      <trkpt lat="45.73462" lon="6.78386">
        <ele>2116</ele>
        <time>2019-10-06T09:33:35Z</time>
      </trkpt>
      <trkpt lat="45.73459" lon="6.78388">
        <ele>2116</ele>
        <time>2019-10-06T09:33:37Z</time>
      </trkpt>
      <trkpt lat="45.73457" lon="6.7839">
        <ele>2115</ele>
        <time>2019-10-06T09:33:39Z</time>
      </trkpt>
      <trkpt lat="45.73456" lon="6.78394">
        <ele>2115</ele>
        <time>2019-10-06T09:33:41Z</time>
      </trkpt>
      <trkpt lat="45.73455" lon="6.78397">
        <ele>2115</ele>
        <time>2019-10-06T09:33:43Z</time>
      </trkpt>
      <trkpt lat="45.73453" lon="6.78401">
        <ele>2113</ele>
        <time>2019-10-06T09:33:45Z</time>
      </trkpt>
      <trkpt lat="45.73451" lon="6.78403">
        <ele>2112</ele>
        <time>2019-10-06T09:33:46Z</time>
      </trkpt>
      <trkpt lat="45.7345" lon="6.78405">
        <ele>2112</ele>
        <time>2019-10-06T09:33:47Z</time>
      </trkpt>
      <trkpt lat="45.73447" lon="6.78406">
        <ele>2111</ele>
        <time>2019-10-06T09:33:49Z</time>
      </trkpt>
      <trkpt lat="45.73443" lon="6.78407">
        <ele>2110</ele>
        <time>2019-10-06T09:33:51Z</time>
      </trkpt>
      <trkpt lat="45.73442" lon="6.78408">
        <ele>2110</ele>
        <time>2019-10-06T09:33:52Z</time>
      </trkpt>
      <trkpt lat="45.7344" lon="6.78409">
        <ele>2110</ele>
        <time>2019-10-06T09:33:53Z</time>
      </trkpt>
      <trkpt lat="45.73438" lon="6.78411">
        <ele>2110</ele>
        <time>2019-10-06T09:33:55Z</time>
      </trkpt>
      <trkpt lat="45.73436" lon="6.78415">
        <ele>2110</ele>
        <time>2019-10-06T09:33:57Z</time>
      </trkpt>
      <trkpt lat="45.73435" lon="6.78418">
        <ele>2109</ele>
        <time>2019-10-06T09:33:58Z</time>
      </trkpt>
      <trkpt lat="45.73433" lon="6.7842">
        <ele>2109</ele>
        <time>2019-10-06T09:33:59Z</time>
      </trkpt>
      <trkpt lat="45.73432" lon="6.78423">
        <ele>2108</ele>
        <time>2019-10-06T09:34:00Z</time>
      </trkpt>
      <trkpt lat="45.73431" lon="6.78426">
        <ele>2108</ele>
        <time>2019-10-06T09:34:01Z</time>
      </trkpt>
      <trkpt lat="45.7343" lon="6.78429">
        <ele>2108</ele>
        <time>2019-10-06T09:34:03Z</time>
      </trkpt>
      <trkpt lat="45.73428" lon="6.78431">
        <ele>2107</ele>
        <time>2019-10-06T09:34:05Z</time>
      </trkpt>
      <trkpt lat="45.73427" lon="6.78433">
        <ele>2106</ele>
        <time>2019-10-06T09:34:07Z</time>
      </trkpt>
      <trkpt lat="45.73425" lon="6.78436">
        <ele>2105</ele>
        <time>2019-10-06T09:34:09Z</time>
      </trkpt>
      <trkpt lat="45.73423" lon="6.78439">
        <ele>2104</ele>
        <time>2019-10-06T09:34:11Z</time>
      </trkpt>
      <trkpt lat="45.7342" lon="6.78442">
        <ele>2103</ele>
        <time>2019-10-06T09:34:13Z</time>
      </trkpt>
      <trkpt lat="45.73418" lon="6.78445">
        <ele>2102</ele>
        <time>2019-10-06T09:34:15Z</time>
      </trkpt>
      <trkpt lat="45.73416" lon="6.78447">
        <ele>2102</ele>
        <time>2019-10-06T09:34:17Z</time>
      </trkpt>
      <trkpt lat="45.73414" lon="6.7845">
        <ele>2102</ele>
        <time>2019-10-06T09:34:19Z</time>
      </trkpt>
      <trkpt lat="45.73413" lon="6.78452">
        <ele>2103</ele>
        <time>2019-10-06T09:34:22Z</time>
      </trkpt>
      <trkpt lat="45.73413" lon="6.78452">
        <ele>2103</ele>
        <time>2019-10-06T09:34:23Z</time>
      </trkpt>
      <trkpt lat="45.73413" lon="6.78455">
        <ele>2103</ele>
        <time>2019-10-06T09:34:24Z</time>
      </trkpt>
      <trkpt lat="45.73412" lon="6.78458">
        <ele>2102</ele>
        <time>2019-10-06T09:34:26Z</time>
      </trkpt>
      <trkpt lat="45.73411" lon="6.78461">
        <ele>2102</ele>
        <time>2019-10-06T09:34:28Z</time>
      </trkpt>
      <trkpt lat="45.7341" lon="6.78464">
        <ele>2103</ele>
        <time>2019-10-06T09:34:30Z</time>
      </trkpt>
      <trkpt lat="45.73408" lon="6.78467">
        <ele>2104</ele>
        <time>2019-10-06T09:34:33Z</time>
      </trkpt>
      <trkpt lat="45.73408" lon="6.78467">
        <ele>2104</ele>
        <time>2019-10-06T09:34:34Z</time>
      </trkpt>
      <trkpt lat="45.73408" lon="6.78471">
        <ele>2104</ele>
        <time>2019-10-06T09:34:35Z</time>
      </trkpt>
      <trkpt lat="45.73408" lon="6.78474">
        <ele>2104</ele>
        <time>2019-10-06T09:34:37Z</time>
      </trkpt>
      <trkpt lat="45.73406" lon="6.78476">
        <ele>2104</ele>
        <time>2019-10-06T09:34:40Z</time>
      </trkpt>
      <trkpt lat="45.73406" lon="6.78476">
        <ele>2104</ele>
        <time>2019-10-06T09:34:41Z</time>
      </trkpt>
      <trkpt lat="45.73404" lon="6.78476">
        <ele>2104</ele>
        <time>2019-10-06T09:34:42Z</time>
      </trkpt>
      <trkpt lat="45.73401" lon="6.78475">
        <ele>2102</ele>
        <time>2019-10-06T09:34:44Z</time>
      </trkpt>
      <trkpt lat="45.73398" lon="6.78475">
        <ele>2102</ele>
        <time>2019-10-06T09:34:46Z</time>
      </trkpt>
      <trkpt lat="45.73396" lon="6.78476">
        <ele>2102</ele>
        <time>2019-10-06T09:34:48Z</time>
      </trkpt>
      <trkpt lat="45.73394" lon="6.78474">
        <ele>2102</ele>
        <time>2019-10-06T09:34:50Z</time>
      </trkpt>
      <trkpt lat="45.73393" lon="6.78471">
        <ele>2102</ele>
        <time>2019-10-06T09:34:52Z</time>
      </trkpt>
      <trkpt lat="45.73393" lon="6.78468">
        <ele>2102</ele>
        <time>2019-10-06T09:34:54Z</time>
      </trkpt>
      <trkpt lat="45.73393" lon="6.78466">
        <ele>2101</ele>
        <time>2019-10-06T09:34:56Z</time>
      </trkpt>
      <trkpt lat="45.73392" lon="6.78463">
        <ele>2101</ele>
        <time>2019-10-06T09:34:59Z</time>
      </trkpt>
      <trkpt lat="45.73392" lon="6.78463">
        <ele>2100</ele>
        <time>2019-10-06T09:35:00Z</time>
      </trkpt>
      <trkpt lat="45.73391" lon="6.78461">
        <ele>2101</ele>
        <time>2019-10-06T09:35:02Z</time>
      </trkpt>
      <trkpt lat="45.7339" lon="6.78457">
        <ele>2102</ele>
        <time>2019-10-06T09:35:04Z</time>
      </trkpt>
      <trkpt lat="45.73389" lon="6.78455">
        <ele>2102</ele>
        <time>2019-10-06T09:35:07Z</time>
      </trkpt>
      <trkpt lat="45.73389" lon="6.78455">
        <ele>2103</ele>
        <time>2019-10-06T09:35:08Z</time>
      </trkpt>
      <trkpt lat="45.73387" lon="6.78453">
        <ele>2104</ele>
        <time>2019-10-06T09:35:11Z</time>
      </trkpt>
      <trkpt lat="45.73387" lon="6.78453">
        <ele>2104</ele>
        <time>2019-10-06T09:35:13Z</time>
      </trkpt>
      <trkpt lat="45.73385" lon="6.78451">
        <ele>2105</ele>
        <time>2019-10-06T09:35:15Z</time>
      </trkpt>
      <trkpt lat="45.73385" lon="6.78451">
        <ele>2106</ele>
        <time>2019-10-06T09:35:18Z</time>
      </trkpt>
      <trkpt lat="45.73383" lon="6.7845">
        <ele>2106</ele>
        <time>2019-10-06T09:35:19Z</time>
      </trkpt>
      <trkpt lat="45.73381" lon="6.78448">
        <ele>2108</ele>
        <time>2019-10-06T09:35:23Z</time>
      </trkpt>
      <trkpt lat="45.73381" lon="6.78448">
        <ele>2108</ele>
        <time>2019-10-06T09:35:24Z</time>
      </trkpt>
      <trkpt lat="45.73379" lon="6.78448">
        <ele>2108</ele>
        <time>2019-10-06T09:35:27Z</time>
      </trkpt>
      <trkpt lat="45.73379" lon="6.78448">
        <ele>2108</ele>
        <time>2019-10-06T09:35:29Z</time>
      </trkpt>
      <trkpt lat="45.73377" lon="6.78447">
        <ele>2109</ele>
        <time>2019-10-06T09:35:32Z</time>
      </trkpt>
      <trkpt lat="45.73377" lon="6.78447">
        <ele>2109</ele>
        <time>2019-10-06T09:35:34Z</time>
      </trkpt>
      <trkpt lat="45.73375" lon="6.78445">
        <ele>2110</ele>
        <time>2019-10-06T09:35:36Z</time>
      </trkpt>
      <trkpt lat="45.73375" lon="6.78445">
        <ele>2111</ele>
        <time>2019-10-06T09:35:39Z</time>
      </trkpt>
      <trkpt lat="45.73373" lon="6.78447">
        <ele>2111</ele>
        <time>2019-10-06T09:35:42Z</time>
      </trkpt>
      <trkpt lat="45.73373" lon="6.78447">
        <ele>2112</ele>
        <time>2019-10-06T09:35:44Z</time>
      </trkpt>
      <trkpt lat="45.73371" lon="6.78448">
        <ele>2112</ele>
        <time>2019-10-06T09:35:46Z</time>
      </trkpt>
      <trkpt lat="45.73371" lon="6.78448">
        <ele>2113</ele>
        <time>2019-10-06T09:35:49Z</time>
      </trkpt>
      <trkpt lat="45.7337" lon="6.78451">
        <ele>2114</ele>
        <time>2019-10-06T09:35:51Z</time>
      </trkpt>
      <trkpt lat="45.7337" lon="6.78451">
        <ele>2114</ele>
        <time>2019-10-06T09:35:54Z</time>
      </trkpt>
      <trkpt lat="45.73368" lon="6.78451">
        <ele>2114</ele>
        <time>2019-10-06T09:35:55Z</time>
      </trkpt>
      <trkpt lat="45.73366" lon="6.78449">
        <ele>2116</ele>
        <time>2019-10-06T09:35:59Z</time>
      </trkpt>
      <trkpt lat="45.73366" lon="6.78449">
        <ele>2116</ele>
        <time>2019-10-06T09:36:00Z</time>
      </trkpt>
      <trkpt lat="45.73366" lon="6.78449">
        <ele>2116</ele>
        <time>2019-10-06T09:36:04Z</time>
      </trkpt>
      <trkpt lat="45.73364" lon="6.7845">
        <ele>2118</ele>
        <time>2019-10-06T09:36:06Z</time>
      </trkpt>
      <trkpt lat="45.73362" lon="6.78449">
        <ele>2118</ele>
        <time>2019-10-06T09:36:09Z</time>
      </trkpt>
      <trkpt lat="45.73362" lon="6.78449">
        <ele>2118</ele>
        <time>2019-10-06T09:36:10Z</time>
      </trkpt>
      <trkpt lat="45.73361" lon="6.78448">
        <ele>2120</ele>
        <time>2019-10-06T09:36:12Z</time>
      </trkpt>
      <trkpt lat="45.73359" lon="6.78447">
        <ele>2120</ele>
        <time>2019-10-06T09:36:15Z</time>
      </trkpt>
      <trkpt lat="45.73359" lon="6.78447">
        <ele>2120</ele>
        <time>2019-10-06T09:36:16Z</time>
      </trkpt>
      <trkpt lat="45.73357" lon="6.78445">
        <ele>2120</ele>
        <time>2019-10-06T09:36:18Z</time>
      </trkpt>
      <trkpt lat="45.73355" lon="6.78443">
        <ele>2120</ele>
        <time>2019-10-06T09:36:21Z</time>
      </trkpt>
      <trkpt lat="45.73355" lon="6.78443">
        <ele>2120</ele>
        <time>2019-10-06T09:36:22Z</time>
      </trkpt>
      <trkpt lat="45.73353" lon="6.78442">
        <ele>2120</ele>
        <time>2019-10-06T09:36:23Z</time>
      </trkpt>
      <trkpt lat="45.73351" lon="6.7844">
        <ele>2120</ele>
        <time>2019-10-06T09:36:25Z</time>
      </trkpt>
      <trkpt lat="45.73349" lon="6.78439">
        <ele>2122</ele>
        <time>2019-10-06T09:36:27Z</time>
      </trkpt>
      <trkpt lat="45.73347" lon="6.78437">
        <ele>2122</ele>
        <time>2019-10-06T09:36:29Z</time>
      </trkpt>
      <trkpt lat="45.73345" lon="6.78436">
        <ele>2122</ele>
        <time>2019-10-06T09:36:31Z</time>
      </trkpt>
      <trkpt lat="45.73343" lon="6.78434">
        <ele>2122</ele>
        <time>2019-10-06T09:36:33Z</time>
      </trkpt>
      <trkpt lat="45.73342" lon="6.78432">
        <ele>2122</ele>
        <time>2019-10-06T09:36:35Z</time>
      </trkpt>
      <trkpt lat="45.73342" lon="6.78432">
        <ele>2123</ele>
        <time>2019-10-06T09:36:37Z</time>
      </trkpt>
      <trkpt lat="45.7334" lon="6.7843">
        <ele>2123</ele>
        <time>2019-10-06T09:36:38Z</time>
      </trkpt>
      <trkpt lat="45.73337" lon="6.7843">
        <ele>2122</ele>
        <time>2019-10-06T09:36:41Z</time>
      </trkpt>
      <trkpt lat="45.73335" lon="6.78429">
        <ele>2122</ele>
        <time>2019-10-06T09:36:43Z</time>
      </trkpt>
      <trkpt lat="45.73333" lon="6.78428">
        <ele>2123</ele>
        <time>2019-10-06T09:36:46Z</time>
      </trkpt>
      <trkpt lat="45.73333" lon="6.78428">
        <ele>2123</ele>
        <time>2019-10-06T09:36:47Z</time>
      </trkpt>
      <trkpt lat="45.73332" lon="6.78426">
        <ele>2123</ele>
        <time>2019-10-06T09:36:50Z</time>
      </trkpt>
      <trkpt lat="45.73332" lon="6.78426">
        <ele>2123</ele>
        <time>2019-10-06T09:36:52Z</time>
      </trkpt>
      <trkpt lat="45.73329" lon="6.78424">
        <ele>2123</ele>
        <time>2019-10-06T09:36:53Z</time>
      </trkpt>
      <trkpt lat="45.73328" lon="6.78421">
        <ele>2123</ele>
        <time>2019-10-06T09:36:55Z</time>
      </trkpt>
      <trkpt lat="45.73326" lon="6.78419">
        <ele>2123</ele>
        <time>2019-10-06T09:36:57Z</time>
      </trkpt>
      <trkpt lat="45.73325" lon="6.78416">
        <ele>2123</ele>
        <time>2019-10-06T09:36:59Z</time>
      </trkpt>
      <trkpt lat="45.73323" lon="6.78413">
        <ele>2124</ele>
        <time>2019-10-06T09:37:02Z</time>
      </trkpt>
      <trkpt lat="45.73323" lon="6.78413">
        <ele>2124</ele>
        <time>2019-10-06T09:37:03Z</time>
      </trkpt>
      <trkpt lat="45.73322" lon="6.78411">
        <ele>2125</ele>
        <time>2019-10-06T09:37:04Z</time>
      </trkpt>
      <trkpt lat="45.7332" lon="6.78409">
        <ele>2125</ele>
        <time>2019-10-06T09:37:07Z</time>
      </trkpt>
      <trkpt lat="45.7332" lon="6.78409">
        <ele>2126</ele>
        <time>2019-10-06T09:37:09Z</time>
      </trkpt>
      <trkpt lat="45.73319" lon="6.78412">
        <ele>2126</ele>
        <time>2019-10-06T09:37:13Z</time>
      </trkpt>
      <trkpt lat="45.73319" lon="6.78412">
        <ele>2126</ele>
        <time>2019-10-06T09:37:14Z</time>
      </trkpt>
      <trkpt lat="45.7332" lon="6.78414">
        <ele>2126</ele>
        <time>2019-10-06T09:37:15Z</time>
      </trkpt>
      <trkpt lat="45.73318" lon="6.78415">
        <ele>2127</ele>
        <time>2019-10-06T09:37:19Z</time>
      </trkpt>
      <trkpt lat="45.73318" lon="6.78415">
        <ele>2127</ele>
        <time>2019-10-06T09:37:20Z</time>
      </trkpt>
      <trkpt lat="45.73316" lon="6.78417">
        <ele>2128</ele>
        <time>2019-10-06T09:37:23Z</time>
      </trkpt>
      <trkpt lat="45.73316" lon="6.78417">
        <ele>2129</ele>
        <time>2019-10-06T09:37:25Z</time>
      </trkpt>
      <trkpt lat="45.73314" lon="6.78416">
        <ele>2129</ele>
        <time>2019-10-06T09:37:27Z</time>
      </trkpt>
      <trkpt lat="45.73314" lon="6.78416">
        <ele>2129</ele>
        <time>2019-10-06T09:37:30Z</time>
      </trkpt>
      <trkpt lat="45.73312" lon="6.78414">
        <ele>2129</ele>
        <time>2019-10-06T09:37:31Z</time>
      </trkpt>
      <trkpt lat="45.73311" lon="6.78411">
        <ele>2130</ele>
        <time>2019-10-06T09:37:34Z</time>
      </trkpt>
      <trkpt lat="45.73311" lon="6.78411">
        <ele>2130</ele>
        <time>2019-10-06T09:37:36Z</time>
      </trkpt>
      <trkpt lat="45.73309" lon="6.78409">
        <ele>2131</ele>
        <time>2019-10-06T09:37:37Z</time>
      </trkpt>
      <trkpt lat="45.73308" lon="6.78407">
        <ele>2131</ele>
        <time>2019-10-06T09:37:41Z</time>
      </trkpt>
      <trkpt lat="45.73308" lon="6.78407">
        <ele>2132</ele>
        <time>2019-10-06T09:37:42Z</time>
      </trkpt>
      <trkpt lat="45.73306" lon="6.78405">
        <ele>2132</ele>
        <time>2019-10-06T09:37:44Z</time>
      </trkpt>
      <trkpt lat="45.73304" lon="6.78402">
        <ele>2132</ele>
        <time>2019-10-06T09:37:47Z</time>
      </trkpt>
      <trkpt lat="45.73304" lon="6.78402">
        <ele>2133</ele>
        <time>2019-10-06T09:37:48Z</time>
      </trkpt>
      <trkpt lat="45.73303" lon="6.78401">
        <ele>2133</ele>
        <time>2019-10-06T09:37:49Z</time>
      </trkpt>
      <trkpt lat="45.73301" lon="6.78398">
        <ele>2133</ele>
        <time>2019-10-06T09:37:51Z</time>
      </trkpt>
      <trkpt lat="45.733" lon="6.78395">
        <ele>2133</ele>
        <time>2019-10-06T09:37:54Z</time>
      </trkpt>
      <trkpt lat="45.733" lon="6.78395">
        <ele>2134</ele>
        <time>2019-10-06T09:37:55Z</time>
      </trkpt>
      <trkpt lat="45.73298" lon="6.78394">
        <ele>2134</ele>
        <time>2019-10-06T09:37:58Z</time>
      </trkpt>
      <trkpt lat="45.73298" lon="6.78394">
        <ele>2135</ele>
        <time>2019-10-06T09:38:00Z</time>
      </trkpt>
      <trkpt lat="45.73297" lon="6.78396">
        <ele>2135</ele>
        <time>2019-10-06T09:38:02Z</time>
      </trkpt>
      <trkpt lat="45.73297" lon="6.78396">
        <ele>2135</ele>
        <time>2019-10-06T09:38:05Z</time>
      </trkpt>
      <trkpt lat="45.73294" lon="6.78394">
        <ele>2135</ele>
        <time>2019-10-06T09:38:06Z</time>
      </trkpt>
      <trkpt lat="45.73293" lon="6.78392">
        <ele>2136</ele>
        <time>2019-10-06T09:38:08Z</time>
      </trkpt>
      <trkpt lat="45.73292" lon="6.78389">
        <ele>2137</ele>
        <time>2019-10-06T09:38:11Z</time>
      </trkpt>
      <trkpt lat="45.73292" lon="6.78389">
        <ele>2137</ele>
        <time>2019-10-06T09:38:12Z</time>
      </trkpt>
      <trkpt lat="45.73291" lon="6.78387">
        <ele>2137</ele>
        <time>2019-10-06T09:38:13Z</time>
      </trkpt>
      <trkpt lat="45.7329" lon="6.78384">
        <ele>2137</ele>
        <time>2019-10-06T09:38:15Z</time>
      </trkpt>
      <trkpt lat="45.7329" lon="6.78382">
        <ele>2137</ele>
        <time>2019-10-06T09:38:17Z</time>
      </trkpt>
      <trkpt lat="45.7329" lon="6.78382">
        <ele>2138</ele>
        <time>2019-10-06T09:38:19Z</time>
      </trkpt>
      <trkpt lat="45.73289" lon="6.78379">
        <ele>2138</ele>
        <time>2019-10-06T09:38:20Z</time>
      </trkpt>
      <trkpt lat="45.73288" lon="6.78375">
        <ele>2139</ele>
        <time>2019-10-06T09:38:23Z</time>
      </trkpt>
      <trkpt lat="45.73288" lon="6.78373">
        <ele>2139</ele>
        <time>2019-10-06T09:38:25Z</time>
      </trkpt>
      <trkpt lat="45.73287" lon="6.7837">
        <ele>2139</ele>
        <time>2019-10-06T09:38:28Z</time>
      </trkpt>
      <trkpt lat="45.73287" lon="6.7837">
        <ele>2139</ele>
        <time>2019-10-06T09:38:29Z</time>
      </trkpt>
      <trkpt lat="45.73287" lon="6.78366">
        <ele>2140</ele>
        <time>2019-10-06T09:38:31Z</time>
      </trkpt>
      <trkpt lat="45.73286" lon="6.78364">
        <ele>2141</ele>
        <time>2019-10-06T09:38:34Z</time>
      </trkpt>
      <trkpt lat="45.73286" lon="6.78364">
        <ele>2141</ele>
        <time>2019-10-06T09:38:35Z</time>
      </trkpt>
      <trkpt lat="45.73285" lon="6.7836">
        <ele>2141</ele>
        <time>2019-10-06T09:38:37Z</time>
      </trkpt>
      <trkpt lat="45.73285" lon="6.78357">
        <ele>2142</ele>
        <time>2019-10-06T09:38:40Z</time>
      </trkpt>
      <trkpt lat="45.73285" lon="6.78357">
        <ele>2142</ele>
        <time>2019-10-06T09:38:41Z</time>
      </trkpt>
      <trkpt lat="45.73284" lon="6.78354">
        <ele>2142</ele>
        <time>2019-10-06T09:38:42Z</time>
      </trkpt>
      <trkpt lat="45.73284" lon="6.78351">
        <ele>2142</ele>
        <time>2019-10-06T09:38:44Z</time>
      </trkpt>
      <trkpt lat="45.73284" lon="6.78348">
        <ele>2142</ele>
        <time>2019-10-06T09:38:46Z</time>
      </trkpt>
      <trkpt lat="45.73284" lon="6.78345">
        <ele>2142</ele>
        <time>2019-10-06T09:38:48Z</time>
      </trkpt>
      <trkpt lat="45.73284" lon="6.78342">
        <ele>2144</ele>
        <time>2019-10-06T09:38:50Z</time>
      </trkpt>
      <trkpt lat="45.73284" lon="6.78342">
        <ele>2144</ele>
        <time>2019-10-06T09:38:52Z</time>
      </trkpt>
      <trkpt lat="45.73285" lon="6.78339">
        <ele>2144</ele>
        <time>2019-10-06T09:38:53Z</time>
      </trkpt>
      <trkpt lat="45.73285" lon="6.78336">
        <ele>2144</ele>
        <time>2019-10-06T09:38:56Z</time>
      </trkpt>
      <trkpt lat="45.73285" lon="6.78336">
        <ele>2145</ele>
        <time>2019-10-06T09:38:58Z</time>
      </trkpt>
      <trkpt lat="45.73286" lon="6.78332">
        <ele>2146</ele>
        <time>2019-10-06T09:38:59Z</time>
      </trkpt>
      <trkpt lat="45.73286" lon="6.78332">
        <ele>2146</ele>
        <time>2019-10-06T09:39:03Z</time>
      </trkpt>
      <trkpt lat="45.73283" lon="6.78333">
        <ele>2147</ele>
        <time>2019-10-06T09:39:06Z</time>
      </trkpt>
      <trkpt lat="45.73283" lon="6.78333">
        <ele>2147</ele>
        <time>2019-10-06T09:39:08Z</time>
      </trkpt>
      <trkpt lat="45.73282" lon="6.78335">
        <ele>2147</ele>
        <time>2019-10-06T09:39:10Z</time>
      </trkpt>
      <trkpt lat="45.73282" lon="6.78335">
        <ele>2147</ele>
        <time>2019-10-06T09:39:13Z</time>
      </trkpt>
      <trkpt lat="45.73281" lon="6.78338">
        <ele>2148</ele>
        <time>2019-10-06T09:39:14Z</time>
      </trkpt>
      <trkpt lat="45.73279" lon="6.78341">
        <ele>2148</ele>
        <time>2019-10-06T09:39:17Z</time>
      </trkpt>
      <trkpt lat="45.73278" lon="6.78341">
        <ele>2149</ele>
        <time>2019-10-06T09:39:19Z</time>
      </trkpt>
      <trkpt lat="45.73276" lon="6.78341">
        <ele>2150</ele>
        <time>2019-10-06T09:39:21Z</time>
      </trkpt>
      <trkpt lat="45.73274" lon="6.7834">
        <ele>2150</ele>
        <time>2019-10-06T09:39:23Z</time>
      </trkpt>
      <trkpt lat="45.73272" lon="6.78339">
        <ele>2150</ele>
        <time>2019-10-06T09:39:25Z</time>
      </trkpt>
      <trkpt lat="45.7327" lon="6.78338">
        <ele>2150</ele>
        <time>2019-10-06T09:39:27Z</time>
      </trkpt>
      <trkpt lat="45.73268" lon="6.78338">
        <ele>2150</ele>
        <time>2019-10-06T09:39:29Z</time>
      </trkpt>
      <trkpt lat="45.73268" lon="6.78338">
        <ele>2150</ele>
        <time>2019-10-06T09:39:31Z</time>
      </trkpt>
      <trkpt lat="45.73266" lon="6.78337">
        <ele>2150</ele>
        <time>2019-10-06T09:39:32Z</time>
      </trkpt>
      <trkpt lat="45.73263" lon="6.78337">
        <ele>2150</ele>
        <time>2019-10-06T09:39:34Z</time>
      </trkpt>
      <trkpt lat="45.73261" lon="6.78336">
        <ele>2151</ele>
        <time>2019-10-06T09:39:36Z</time>
      </trkpt>
      <trkpt lat="45.73259" lon="6.78335">
        <ele>2151</ele>
        <time>2019-10-06T09:39:38Z</time>
      </trkpt>
      <trkpt lat="45.73257" lon="6.78335">
        <ele>2151</ele>
        <time>2019-10-06T09:39:41Z</time>
      </trkpt>
      <trkpt lat="45.73257" lon="6.78335">
        <ele>2152</ele>
        <time>2019-10-06T09:39:42Z</time>
      </trkpt>
      <trkpt lat="45.73255" lon="6.78334">
        <ele>2152</ele>
        <time>2019-10-06T09:39:44Z</time>
      </trkpt>
      <trkpt lat="45.73253" lon="6.78334">
        <ele>2152</ele>
        <time>2019-10-06T09:39:47Z</time>
      </trkpt>
      <trkpt lat="45.73253" lon="6.78334">
        <ele>2153</ele>
        <time>2019-10-06T09:39:48Z</time>
      </trkpt>
      <trkpt lat="45.73253" lon="6.78334">
        <ele>2153</ele>
        <time>2019-10-06T09:39:52Z</time>
      </trkpt>
      <trkpt lat="45.73251" lon="6.78333">
        <ele>2153</ele>
        <time>2019-10-06T09:39:56Z</time>
      </trkpt>
      <trkpt lat="45.73251" lon="6.78333">
        <ele>2153</ele>
        <time>2019-10-06T09:39:57Z</time>
      </trkpt>
      <trkpt lat="45.73249" lon="6.78333">
        <ele>2153</ele>
        <time>2019-10-06T09:39:59Z</time>
      </trkpt>
      <trkpt lat="45.73249" lon="6.78333">
        <ele>2155</ele>
        <time>2019-10-06T09:40:02Z</time>
      </trkpt>
      <trkpt lat="45.73247" lon="6.78333">
        <ele>2155</ele>
        <time>2019-10-06T09:40:03Z</time>
      </trkpt>
      <trkpt lat="45.73245" lon="6.78334">
        <ele>2156</ele>
        <time>2019-10-06T09:40:06Z</time>
      </trkpt>
      <trkpt lat="45.73245" lon="6.78334">
        <ele>2157</ele>
        <time>2019-10-06T09:40:08Z</time>
      </trkpt>
      <trkpt lat="45.73242" lon="6.78333">
        <ele>2157</ele>
        <time>2019-10-06T09:40:10Z</time>
      </trkpt>
      <trkpt lat="45.73242" lon="6.78333">
        <ele>2158</ele>
        <time>2019-10-06T09:40:13Z</time>
      </trkpt>
      <trkpt lat="45.7324" lon="6.78333">
        <ele>2158</ele>
        <time>2019-10-06T09:40:14Z</time>
      </trkpt>
      <trkpt lat="45.73238" lon="6.78333">
        <ele>2159</ele>
        <time>2019-10-06T09:40:18Z</time>
      </trkpt>
      <trkpt lat="45.73238" lon="6.78333">
        <ele>2159</ele>
        <time>2019-10-06T09:40:19Z</time>
      </trkpt>
      <trkpt lat="45.73236" lon="6.78331">
        <ele>2159</ele>
        <time>2019-10-06T09:40:21Z</time>
      </trkpt>
      <trkpt lat="45.73234" lon="6.7833">
        <ele>2160</ele>
        <time>2019-10-06T09:40:24Z</time>
      </trkpt>
      <trkpt lat="45.73234" lon="6.7833">
        <ele>2160</ele>
        <time>2019-10-06T09:40:25Z</time>
      </trkpt>
      <trkpt lat="45.73232" lon="6.7833">
        <ele>2160</ele>
        <time>2019-10-06T09:40:27Z</time>
      </trkpt>
      <trkpt lat="45.7323" lon="6.78327">
        <ele>2161</ele>
        <time>2019-10-06T09:40:30Z</time>
      </trkpt>
      <trkpt lat="45.7323" lon="6.78327">
        <ele>2161</ele>
        <time>2019-10-06T09:40:31Z</time>
      </trkpt>
      <trkpt lat="45.73228" lon="6.78325">
        <ele>2161</ele>
        <time>2019-10-06T09:40:32Z</time>
      </trkpt>
      <trkpt lat="45.73227" lon="6.78323">
        <ele>2161</ele>
        <time>2019-10-06T09:40:34Z</time>
      </trkpt>
      <trkpt lat="45.73227" lon="6.78323">
        <ele>2162</ele>
        <time>2019-10-06T09:40:37Z</time>
      </trkpt>
      <trkpt lat="45.73224" lon="6.78323">
        <ele>2163</ele>
        <time>2019-10-06T09:40:38Z</time>
      </trkpt>
      <trkpt lat="45.73222" lon="6.78321">
        <ele>2163</ele>
        <time>2019-10-06T09:40:41Z</time>
      </trkpt>
      <trkpt lat="45.73222" lon="6.78321">
        <ele>2164</ele>
        <time>2019-10-06T09:40:43Z</time>
      </trkpt>
      <trkpt lat="45.7322" lon="6.78319">
        <ele>2164</ele>
        <time>2019-10-06T09:40:44Z</time>
      </trkpt>
      <trkpt lat="45.73218" lon="6.78318">
        <ele>2164</ele>
        <time>2019-10-06T09:40:47Z</time>
      </trkpt>
      <trkpt lat="45.73218" lon="6.78318">
        <ele>2164</ele>
        <time>2019-10-06T09:40:49Z</time>
      </trkpt>
      <trkpt lat="45.73215" lon="6.78317">
        <ele>2165</ele>
        <time>2019-10-06T09:40:50Z</time>
      </trkpt>
      <trkpt lat="45.73214" lon="6.78315">
        <ele>2165</ele>
        <time>2019-10-06T09:40:52Z</time>
      </trkpt>
      <trkpt lat="45.73212" lon="6.78314">
        <ele>2165</ele>
        <time>2019-10-06T09:40:54Z</time>
      </trkpt>
      <trkpt lat="45.73209" lon="6.78312">
        <ele>2165</ele>
        <time>2019-10-06T09:40:56Z</time>
      </trkpt>
      <trkpt lat="45.73207" lon="6.78311">
        <ele>2165</ele>
        <time>2019-10-06T09:40:58Z</time>
      </trkpt>
      <trkpt lat="45.73207" lon="6.78311">
        <ele>2165</ele>
        <time>2019-10-06T09:41:00Z</time>
      </trkpt>
      <trkpt lat="45.73205" lon="6.78309">
        <ele>2165</ele>
        <time>2019-10-06T09:41:01Z</time>
      </trkpt>
      <trkpt lat="45.73203" lon="6.78309">
        <ele>2166</ele>
        <time>2019-10-06T09:41:03Z</time>
      </trkpt>
      <trkpt lat="45.732" lon="6.78308">
        <ele>2167</ele>
        <time>2019-10-06T09:41:05Z</time>
      </trkpt>
      <trkpt lat="45.73198" lon="6.78306">
        <ele>2167</ele>
        <time>2019-10-06T09:41:07Z</time>
      </trkpt>
      <trkpt lat="45.73196" lon="6.78304">
        <ele>2167</ele>
        <time>2019-10-06T09:41:10Z</time>
      </trkpt>
      <trkpt lat="45.73196" lon="6.78304">
        <ele>2167</ele>
        <time>2019-10-06T09:41:11Z</time>
      </trkpt>
      <trkpt lat="45.73195" lon="6.78302">
        <ele>2168</ele>
        <time>2019-10-06T09:41:13Z</time>
      </trkpt>
      <trkpt lat="45.73193" lon="6.783">
        <ele>2168</ele>
        <time>2019-10-06T09:41:15Z</time>
      </trkpt>
      <trkpt lat="45.73191" lon="6.78298">
        <ele>2170</ele>
        <time>2019-10-06T09:41:17Z</time>
      </trkpt>
      <trkpt lat="45.7319" lon="6.78295">
        <ele>2170</ele>
        <time>2019-10-06T09:41:19Z</time>
      </trkpt>
      <trkpt lat="45.73188" lon="6.78293">
        <ele>2170</ele>
        <time>2019-10-06T09:41:21Z</time>
      </trkpt>
      <trkpt lat="45.73186" lon="6.78291">
        <ele>2170</ele>
        <time>2019-10-06T09:41:23Z</time>
      </trkpt>
      <trkpt lat="45.73185" lon="6.78289">
        <ele>2170</ele>
        <time>2019-10-06T09:41:25Z</time>
      </trkpt>
      <trkpt lat="45.73183" lon="6.78287">
        <ele>2168</ele>
        <time>2019-10-06T09:41:27Z</time>
      </trkpt>
      <trkpt lat="45.7318" lon="6.78286">
        <ele>2168</ele>
        <time>2019-10-06T09:41:29Z</time>
      </trkpt>
      <trkpt lat="45.73178" lon="6.78285">
        <ele>2168</ele>
        <time>2019-10-06T09:41:31Z</time>
      </trkpt>
      <trkpt lat="45.73176" lon="6.78283">
        <ele>2170</ele>
        <time>2019-10-06T09:41:33Z</time>
      </trkpt>
      <trkpt lat="45.73174" lon="6.78281">
        <ele>2170</ele>
        <time>2019-10-06T09:41:35Z</time>
      </trkpt>
      <trkpt lat="45.73172" lon="6.78278">
        <ele>2170</ele>
        <time>2019-10-06T09:41:37Z</time>
      </trkpt>
      <trkpt lat="45.7317" lon="6.78277">
        <ele>2170</ele>
        <time>2019-10-06T09:41:39Z</time>
      </trkpt>
      <trkpt lat="45.73167" lon="6.78277">
        <ele>2171</ele>
        <time>2019-10-06T09:41:41Z</time>
      </trkpt>
      <trkpt lat="45.73165" lon="6.78277">
        <ele>2171</ele>
        <time>2019-10-06T09:41:43Z</time>
      </trkpt>
      <trkpt lat="45.73163" lon="6.78276">
        <ele>2171</ele>
        <time>2019-10-06T09:41:45Z</time>
      </trkpt>
      <trkpt lat="45.7316" lon="6.78275">
        <ele>2171</ele>
        <time>2019-10-06T09:41:47Z</time>
      </trkpt>
      <trkpt lat="45.73158" lon="6.78273">
        <ele>2171</ele>
        <time>2019-10-06T09:41:49Z</time>
      </trkpt>
      <trkpt lat="45.73156" lon="6.78271">
        <ele>2171</ele>
        <time>2019-10-06T09:41:51Z</time>
      </trkpt>
      <trkpt lat="45.73155" lon="6.78269">
        <ele>2171</ele>
        <time>2019-10-06T09:41:53Z</time>
      </trkpt>
      <trkpt lat="45.73152" lon="6.78267">
        <ele>2171</ele>
        <time>2019-10-06T09:41:55Z</time>
      </trkpt>
      <trkpt lat="45.7315" lon="6.78265">
        <ele>2171</ele>
        <time>2019-10-06T09:41:57Z</time>
      </trkpt>
      <trkpt lat="45.73148" lon="6.78263">
        <ele>2172</ele>
        <time>2019-10-06T09:41:59Z</time>
      </trkpt>
      <trkpt lat="45.73145" lon="6.78262">
        <ele>2172</ele>
        <time>2019-10-06T09:42:01Z</time>
      </trkpt>
      <trkpt lat="45.73142" lon="6.78262">
        <ele>2172</ele>
        <time>2019-10-06T09:42:03Z</time>
      </trkpt>
      <trkpt lat="45.73139" lon="6.78261">
        <ele>2171</ele>
        <time>2019-10-06T09:42:05Z</time>
      </trkpt>
      <trkpt lat="45.73136" lon="6.78261">
        <ele>2171</ele>
        <time>2019-10-06T09:42:07Z</time>
      </trkpt>
      <trkpt lat="45.73134" lon="6.7826">
        <ele>2171</ele>
        <time>2019-10-06T09:42:09Z</time>
      </trkpt>
      <trkpt lat="45.73131" lon="6.78258">
        <ele>2171</ele>
        <time>2019-10-06T09:42:11Z</time>
      </trkpt>
      <trkpt lat="45.73129" lon="6.78258">
        <ele>2171</ele>
        <time>2019-10-06T09:42:13Z</time>
      </trkpt>
      <trkpt lat="45.73127" lon="6.78258">
        <ele>2171</ele>
        <time>2019-10-06T09:42:15Z</time>
      </trkpt>
      <trkpt lat="45.73127" lon="6.78258">
        <ele>2172</ele>
        <time>2019-10-06T09:42:17Z</time>
      </trkpt>
      <trkpt lat="45.73124" lon="6.78258">
        <ele>2172</ele>
        <time>2019-10-06T09:42:18Z</time>
      </trkpt>
      <trkpt lat="45.73122" lon="6.78258">
        <ele>2173</ele>
        <time>2019-10-06T09:42:20Z</time>
      </trkpt>
      <trkpt lat="45.7312" lon="6.78257">
        <ele>2173</ele>
        <time>2019-10-06T09:42:22Z</time>
      </trkpt>
      <trkpt lat="45.7312" lon="6.78257">
        <ele>2173</ele>
        <time>2019-10-06T09:42:24Z</time>
      </trkpt>
      <trkpt lat="45.73118" lon="6.78258">
        <ele>2173</ele>
        <time>2019-10-06T09:42:25Z</time>
      </trkpt>
      <trkpt lat="45.73117" lon="6.78258">
        <ele>2175</ele>
        <time>2019-10-06T09:42:28Z</time>
      </trkpt>
      <trkpt lat="45.73117" lon="6.78258">
        <ele>2176</ele>
        <time>2019-10-06T09:42:30Z</time>
      </trkpt>
      <trkpt lat="45.73115" lon="6.78257">
        <ele>2176</ele>
        <time>2019-10-06T09:42:32Z</time>
      </trkpt>
      <trkpt lat="45.73115" lon="6.78257">
        <ele>2177</ele>
        <time>2019-10-06T09:42:35Z</time>
      </trkpt>
      <trkpt lat="45.73112" lon="6.78257">
        <ele>2178</ele>
        <time>2019-10-06T09:42:39Z</time>
      </trkpt>
      <trkpt lat="45.73112" lon="6.78257">
        <ele>2178</ele>
        <time>2019-10-06T09:42:40Z</time>
      </trkpt>
      <trkpt lat="45.73112" lon="6.78257">
        <ele>2180</ele>
        <time>2019-10-06T09:42:44Z</time>
      </trkpt>
      <trkpt lat="45.7311" lon="6.78257">
        <ele>2180</ele>
        <time>2019-10-06T09:42:45Z</time>
      </trkpt>
      <trkpt lat="45.73108" lon="6.78257">
        <ele>2180</ele>
        <time>2019-10-06T09:42:48Z</time>
      </trkpt>
      <trkpt lat="45.73108" lon="6.78257">
        <ele>2181</ele>
        <time>2019-10-06T09:42:50Z</time>
      </trkpt>
      <trkpt lat="45.73105" lon="6.78257">
        <ele>2181</ele>
        <time>2019-10-06T09:42:51Z</time>
      </trkpt>
      <trkpt lat="45.73104" lon="6.78256">
        <ele>2182</ele>
        <time>2019-10-06T09:42:53Z</time>
      </trkpt>
      <trkpt lat="45.73103" lon="6.78254">
        <ele>2182</ele>
        <time>2019-10-06T09:42:56Z</time>
      </trkpt>
      <trkpt lat="45.73103" lon="6.78254">
        <ele>2182</ele>
        <time>2019-10-06T09:42:57Z</time>
      </trkpt>
      <trkpt lat="45.73103" lon="6.78254">
        <ele>2182</ele>
        <time>2019-10-06T09:43:01Z</time>
      </trkpt>
      <trkpt lat="45.73104" lon="6.78257">
        <ele>2183</ele>
        <time>2019-10-06T09:43:04Z</time>
      </trkpt>
      <trkpt lat="45.73104" lon="6.78257">
        <ele>2183</ele>
        <time>2019-10-06T09:43:06Z</time>
      </trkpt>
      <trkpt lat="45.73105" lon="6.7826">
        <ele>2184</ele>
        <time>2019-10-06T09:43:08Z</time>
      </trkpt>
      <trkpt lat="45.73105" lon="6.7826">
        <ele>2184</ele>
        <time>2019-10-06T09:43:11Z</time>
      </trkpt>
      <trkpt lat="45.73105" lon="6.78263">
        <ele>2184</ele>
        <time>2019-10-06T09:43:13Z</time>
      </trkpt>
      <trkpt lat="45.73105" lon="6.78263">
        <ele>2185</ele>
        <time>2019-10-06T09:43:16Z</time>
      </trkpt>
      <trkpt lat="45.73106" lon="6.78265">
        <ele>2185</ele>
        <time>2019-10-06T09:43:17Z</time>
      </trkpt>
      <trkpt lat="45.73106" lon="6.78265">
        <ele>2186</ele>
        <time>2019-10-06T09:43:21Z</time>
      </trkpt>
      <trkpt lat="45.73108" lon="6.78267">
        <ele>2186</ele>
        <time>2019-10-06T09:43:22Z</time>
      </trkpt>
      <trkpt lat="45.73108" lon="6.78267">
        <ele>2187</ele>
        <time>2019-10-06T09:43:26Z</time>
      </trkpt>
      <trkpt lat="45.73108" lon="6.78271">
        <ele>2187</ele>
        <time>2019-10-06T09:43:27Z</time>
      </trkpt>
      <trkpt lat="45.73107" lon="6.78273">
        <ele>2188</ele>
        <time>2019-10-06T09:43:31Z</time>
      </trkpt>
      <trkpt lat="45.73107" lon="6.78273">
        <ele>2188</ele>
        <time>2019-10-06T09:43:32Z</time>
      </trkpt>
      <trkpt lat="45.73105" lon="6.78273">
        <ele>2189</ele>
        <time>2019-10-06T09:43:35Z</time>
      </trkpt>
      <trkpt lat="45.73105" lon="6.78273">
        <ele>2189</ele>
        <time>2019-10-06T09:43:37Z</time>
      </trkpt>
      <trkpt lat="45.73104" lon="6.78272">
        <ele>2190</ele>
        <time>2019-10-06T09:43:39Z</time>
      </trkpt>
      <trkpt lat="45.73103" lon="6.78269">
        <ele>2190</ele>
        <time>2019-10-06T09:43:40Z</time>
      </trkpt>
      <trkpt lat="45.73102" lon="6.78267">
        <ele>2190</ele>
        <time>2019-10-06T09:43:41Z</time>
      </trkpt>
      <trkpt lat="45.731" lon="6.78264">
        <ele>2191</ele>
        <time>2019-10-06T09:43:43Z</time>
      </trkpt>
      <trkpt lat="45.73098" lon="6.78264">
        <ele>2191</ele>
        <time>2019-10-06T09:43:46Z</time>
      </trkpt>
      <trkpt lat="45.73098" lon="6.78264">
        <ele>2191</ele>
        <time>2019-10-06T09:43:47Z</time>
      </trkpt>
      <trkpt lat="45.73095" lon="6.78264">
        <ele>2192</ele>
        <time>2019-10-06T09:43:51Z</time>
      </trkpt>
      <trkpt lat="45.73095" lon="6.78264">
        <ele>2192</ele>
        <time>2019-10-06T09:43:52Z</time>
      </trkpt>
      <trkpt lat="45.73094" lon="6.78263">
        <ele>2193</ele>
        <time>2019-10-06T09:43:54Z</time>
      </trkpt>
      <trkpt lat="45.73094" lon="6.78263">
        <ele>2193</ele>
        <time>2019-10-06T09:43:57Z</time>
      </trkpt>
      <trkpt lat="45.73094" lon="6.78263">
        <ele>2194</ele>
        <time>2019-10-06T09:44:01Z</time>
      </trkpt>
      <trkpt lat="45.73092" lon="6.78265">
        <ele>2194</ele>
        <time>2019-10-06T09:44:02Z</time>
      </trkpt>
      <trkpt lat="45.7309" lon="6.78264">
        <ele>2196</ele>
        <time>2019-10-06T09:44:06Z</time>
      </trkpt>
      <trkpt lat="45.7309" lon="6.78264">
        <ele>2197</ele>
        <time>2019-10-06T09:44:07Z</time>
      </trkpt>
      <trkpt lat="45.73088" lon="6.78263">
        <ele>2197</ele>
        <time>2019-10-06T09:44:09Z</time>
      </trkpt>
      <trkpt lat="45.73087" lon="6.78261">
        <ele>2197</ele>
        <time>2019-10-06T09:44:12Z</time>
      </trkpt>
      <trkpt lat="45.73087" lon="6.78261">
        <ele>2198</ele>
        <time>2019-10-06T09:44:13Z</time>
      </trkpt>
      <trkpt lat="45.73085" lon="6.78259">
        <ele>2199</ele>
        <time>2019-10-06T09:44:16Z</time>
      </trkpt>
      <trkpt lat="45.73085" lon="6.78259">
        <ele>2200</ele>
        <time>2019-10-06T09:44:18Z</time>
      </trkpt>
      <trkpt lat="45.73084" lon="6.78258">
        <ele>2200</ele>
        <time>2019-10-06T09:44:20Z</time>
      </trkpt>
      <trkpt lat="45.73084" lon="6.78258">
        <ele>2201</ele>
        <time>2019-10-06T09:44:23Z</time>
      </trkpt>
      <trkpt lat="45.73082" lon="6.78257">
        <ele>2201</ele>
        <time>2019-10-06T09:44:25Z</time>
      </trkpt>
      <trkpt lat="45.73082" lon="6.78257">
        <ele>2202</ele>
        <time>2019-10-06T09:44:28Z</time>
      </trkpt>
      <trkpt lat="45.7308" lon="6.78256">
        <ele>2202</ele>
        <time>2019-10-06T09:44:29Z</time>
      </trkpt>
      <trkpt lat="45.73078" lon="6.78255">
        <ele>2202</ele>
        <time>2019-10-06T09:44:32Z</time>
      </trkpt>
      <trkpt lat="45.73075" lon="6.78254">
        <ele>2202</ele>
        <time>2019-10-06T09:44:34Z</time>
      </trkpt>
      <trkpt lat="45.73073" lon="6.78254">
        <ele>2202</ele>
        <time>2019-10-06T09:44:36Z</time>
      </trkpt>
      <trkpt lat="45.7307" lon="6.78254">
        <ele>2202</ele>
        <time>2019-10-06T09:44:38Z</time>
      </trkpt>
      <trkpt lat="45.73068" lon="6.78253">
        <ele>2202</ele>
        <time>2019-10-06T09:44:40Z</time>
      </trkpt>
      <trkpt lat="45.73066" lon="6.78253">
        <ele>2203</ele>
        <time>2019-10-06T09:44:42Z</time>
      </trkpt>
      <trkpt lat="45.73064" lon="6.78252">
        <ele>2203</ele>
        <time>2019-10-06T09:44:45Z</time>
      </trkpt>
      <trkpt lat="45.73064" lon="6.78252">
        <ele>2203</ele>
        <time>2019-10-06T09:44:46Z</time>
      </trkpt>
      <trkpt lat="45.73062" lon="6.78251">
        <ele>2203</ele>
        <time>2019-10-06T09:44:48Z</time>
      </trkpt>
      <trkpt lat="45.7306" lon="6.7825">
        <ele>2204</ele>
        <time>2019-10-06T09:44:50Z</time>
      </trkpt>
      <trkpt lat="45.7306" lon="6.7825">
        <ele>2204</ele>
        <time>2019-10-06T09:44:52Z</time>
      </trkpt>
      <trkpt lat="45.73058" lon="6.78248">
        <ele>2204</ele>
        <time>2019-10-06T09:44:53Z</time>
      </trkpt>
      <trkpt lat="45.73056" lon="6.78246">
        <ele>2205</ele>
        <time>2019-10-06T09:44:56Z</time>
      </trkpt>
      <trkpt lat="45.73056" lon="6.78246">
        <ele>2206</ele>
        <time>2019-10-06T09:44:58Z</time>
      </trkpt>
      <trkpt lat="45.73053" lon="6.78244">
        <ele>2206</ele>
        <time>2019-10-06T09:44:59Z</time>
      </trkpt>
      <trkpt lat="45.73052" lon="6.78242">
        <ele>2206</ele>
        <time>2019-10-06T09:45:01Z</time>
      </trkpt>
      <trkpt lat="45.73051" lon="6.78239">
        <ele>2207</ele>
        <time>2019-10-06T09:45:04Z</time>
      </trkpt>
      <trkpt lat="45.73051" lon="6.78239">
        <ele>2207</ele>
        <time>2019-10-06T09:45:05Z</time>
      </trkpt>
      <trkpt lat="45.7305" lon="6.78237">
        <ele>2207</ele>
        <time>2019-10-06T09:45:07Z</time>
      </trkpt>
      <trkpt lat="45.73049" lon="6.78234">
        <ele>2208</ele>
        <time>2019-10-06T09:45:10Z</time>
      </trkpt>
      <trkpt lat="45.73049" lon="6.78234">
        <ele>2208</ele>
        <time>2019-10-06T09:45:11Z</time>
      </trkpt>
      <trkpt lat="45.7305" lon="6.7823">
        <ele>2208</ele>
        <time>2019-10-06T09:45:13Z</time>
      </trkpt>
      <trkpt lat="45.7305" lon="6.78227">
        <ele>2208</ele>
        <time>2019-10-06T09:45:15Z</time>
      </trkpt>
      <trkpt lat="45.73051" lon="6.78224">
        <ele>2208</ele>
        <time>2019-10-06T09:45:17Z</time>
      </trkpt>
      <trkpt lat="45.7305" lon="6.7822">
        <ele>2209</ele>
        <time>2019-10-06T09:45:20Z</time>
      </trkpt>
      <trkpt lat="45.7305" lon="6.7822">
        <ele>2209</ele>
        <time>2019-10-06T09:45:21Z</time>
      </trkpt>
      <trkpt lat="45.7305" lon="6.78218">
        <ele>2209</ele>
        <time>2019-10-06T09:45:22Z</time>
      </trkpt>
      <trkpt lat="45.73049" lon="6.78214">
        <ele>2209</ele>
        <time>2019-10-06T09:45:24Z</time>
      </trkpt>
      <trkpt lat="45.73047" lon="6.78211">
        <ele>2208</ele>
        <time>2019-10-06T09:45:26Z</time>
      </trkpt>
      <trkpt lat="45.73045" lon="6.78209">
        <ele>2208</ele>
        <time>2019-10-06T09:45:28Z</time>
      </trkpt>
      <trkpt lat="45.73043" lon="6.78207">
        <ele>2208</ele>
        <time>2019-10-06T09:45:30Z</time>
      </trkpt>
      <trkpt lat="45.7304" lon="6.78205">
        <ele>2208</ele>
        <time>2019-10-06T09:45:32Z</time>
      </trkpt>
      <trkpt lat="45.73037" lon="6.78202">
        <ele>2208</ele>
        <time>2019-10-06T09:45:34Z</time>
      </trkpt>
      <trkpt lat="45.73034" lon="6.782">
        <ele>2208</ele>
        <time>2019-10-06T09:45:36Z</time>
      </trkpt>
      <trkpt lat="45.73031" lon="6.78199">
        <ele>2208</ele>
        <time>2019-10-06T09:45:38Z</time>
      </trkpt>
      <trkpt lat="45.73028" lon="6.78199">
        <ele>2208</ele>
        <time>2019-10-06T09:45:40Z</time>
      </trkpt>
      <trkpt lat="45.73027" lon="6.78201">
        <ele>2207</ele>
        <time>2019-10-06T09:45:41Z</time>
      </trkpt>
      <trkpt lat="45.73025" lon="6.78202">
        <ele>2207</ele>
        <time>2019-10-06T09:45:42Z</time>
      </trkpt>
      <trkpt lat="45.73023" lon="6.78203">
        <ele>2207</ele>
        <time>2019-10-06T09:45:43Z</time>
      </trkpt>
      <trkpt lat="45.73021" lon="6.78204">
        <ele>2206</ele>
        <time>2019-10-06T09:45:44Z</time>
      </trkpt>
      <trkpt lat="45.73018" lon="6.78207">
        <ele>2206</ele>
        <time>2019-10-06T09:45:46Z</time>
      </trkpt>
      <trkpt lat="45.73016" lon="6.78209">
        <ele>2207</ele>
        <time>2019-10-06T09:45:48Z</time>
      </trkpt>
      <trkpt lat="45.73011" lon="6.7821">
        <ele>2206</ele>
        <time>2019-10-06T09:45:50Z</time>
      </trkpt>
      <trkpt lat="45.7301" lon="6.7821">
        <ele>2206</ele>
        <time>2019-10-06T09:45:51Z</time>
      </trkpt>
      <trkpt lat="45.73009" lon="6.78211">
        <ele>2206</ele>
        <time>2019-10-06T09:45:52Z</time>
      </trkpt>
      <trkpt lat="45.73006" lon="6.78211">
        <ele>2205</ele>
        <time>2019-10-06T09:45:53Z</time>
      </trkpt>
      <trkpt lat="45.73004" lon="6.78211">
        <ele>2205</ele>
        <time>2019-10-06T09:45:54Z</time>
      </trkpt>
      <trkpt lat="45.73002" lon="6.78211">
        <ele>2205</ele>
        <time>2019-10-06T09:45:56Z</time>
      </trkpt>
      <trkpt lat="45.73" lon="6.7821">
        <ele>2205</ele>
        <time>2019-10-06T09:45:58Z</time>
      </trkpt>
      <trkpt lat="45.72998" lon="6.78208">
        <ele>2205</ele>
        <time>2019-10-06T09:46:00Z</time>
      </trkpt>
      <trkpt lat="45.72997" lon="6.78206">
        <ele>2205</ele>
        <time>2019-10-06T09:46:02Z</time>
      </trkpt>
      <trkpt lat="45.72996" lon="6.78203">
        <ele>2205</ele>
        <time>2019-10-06T09:46:04Z</time>
      </trkpt>
      <trkpt lat="45.72995" lon="6.782">
        <ele>2206</ele>
        <time>2019-10-06T09:46:06Z</time>
      </trkpt>
      <trkpt lat="45.72995" lon="6.78197">
        <ele>2206</ele>
        <time>2019-10-06T09:46:08Z</time>
      </trkpt>
      <trkpt lat="45.72995" lon="6.78193">
        <ele>2206</ele>
        <time>2019-10-06T09:46:11Z</time>
      </trkpt>
      <trkpt lat="45.72995" lon="6.78193">
        <ele>2206</ele>
        <time>2019-10-06T09:46:12Z</time>
      </trkpt>
      <trkpt lat="45.72995" lon="6.78189">
        <ele>2207</ele>
        <time>2019-10-06T09:46:14Z</time>
      </trkpt>
      <trkpt lat="45.72995" lon="6.78187">
        <ele>2207</ele>
        <time>2019-10-06T09:46:16Z</time>
      </trkpt>
      <trkpt lat="45.72995" lon="6.78184">
        <ele>2208</ele>
        <time>2019-10-06T09:46:18Z</time>
      </trkpt>
      <trkpt lat="45.72995" lon="6.78181">
        <ele>2209</ele>
        <time>2019-10-06T09:46:20Z</time>
      </trkpt>
      <trkpt lat="45.72995" lon="6.78181">
        <ele>2209</ele>
        <time>2019-10-06T09:46:22Z</time>
      </trkpt>
      <trkpt lat="45.72995" lon="6.78177">
        <ele>2209</ele>
        <time>2019-10-06T09:46:23Z</time>
      </trkpt>
      <trkpt lat="45.72994" lon="6.78174">
        <ele>2209</ele>
        <time>2019-10-06T09:46:26Z</time>
      </trkpt>
      <trkpt lat="45.72994" lon="6.78174">
        <ele>2209</ele>
        <time>2019-10-06T09:46:28Z</time>
      </trkpt>
      <trkpt lat="45.72994" lon="6.7817">
        <ele>2210</ele>
        <time>2019-10-06T09:46:29Z</time>
      </trkpt>
      <trkpt lat="45.72994" lon="6.78167">
        <ele>2210</ele>
        <time>2019-10-06T09:46:32Z</time>
      </trkpt>
      <trkpt lat="45.72994" lon="6.78164">
        <ele>2210</ele>
        <time>2019-10-06T09:46:34Z</time>
      </trkpt>
      <trkpt lat="45.72993" lon="6.78161">
        <ele>2210</ele>
        <time>2019-10-06T09:46:36Z</time>
      </trkpt>
      <trkpt lat="45.72993" lon="6.78161">
        <ele>2211</ele>
        <time>2019-10-06T09:46:38Z</time>
      </trkpt>
      <trkpt lat="45.72992" lon="6.78159">
        <ele>2211</ele>
        <time>2019-10-06T09:46:39Z</time>
      </trkpt>
      <trkpt lat="45.7299" lon="6.78158">
        <ele>2212</ele>
        <time>2019-10-06T09:46:42Z</time>
      </trkpt>
      <trkpt lat="45.7299" lon="6.78158">
        <ele>2212</ele>
        <time>2019-10-06T09:46:44Z</time>
      </trkpt>
      <trkpt lat="45.72988" lon="6.78157">
        <ele>2213</ele>
        <time>2019-10-06T09:46:45Z</time>
      </trkpt>
      <trkpt lat="45.72986" lon="6.78156">
        <ele>2214</ele>
        <time>2019-10-06T09:46:48Z</time>
      </trkpt>
      <trkpt lat="45.72986" lon="6.78156">
        <ele>2215</ele>
        <time>2019-10-06T09:46:50Z</time>
      </trkpt>
      <trkpt lat="45.72984" lon="6.78156">
        <ele>2214</ele>
        <time>2019-10-06T09:46:51Z</time>
      </trkpt>
      <trkpt lat="45.72981" lon="6.78155">
        <ele>2215</ele>
        <time>2019-10-06T09:46:54Z</time>
      </trkpt>
      <trkpt lat="45.72981" lon="6.78155">
        <ele>2215</ele>
        <time>2019-10-06T09:46:56Z</time>
      </trkpt>
      <trkpt lat="45.72979" lon="6.78154">
        <ele>2216</ele>
        <time>2019-10-06T09:46:57Z</time>
      </trkpt>
      <trkpt lat="45.72977" lon="6.78154">
        <ele>2216</ele>
        <time>2019-10-06T09:47:00Z</time>
      </trkpt>
      <trkpt lat="45.72977" lon="6.78154">
        <ele>2216</ele>
        <time>2019-10-06T09:47:02Z</time>
      </trkpt>
      <trkpt lat="45.72976" lon="6.78153">
        <ele>2217</ele>
        <time>2019-10-06T09:47:03Z</time>
      </trkpt>
      <trkpt lat="45.72974" lon="6.78152">
        <ele>2218</ele>
        <time>2019-10-06T09:47:07Z</time>
      </trkpt>
      <trkpt lat="45.72974" lon="6.78152">
        <ele>2218</ele>
        <time>2019-10-06T09:47:08Z</time>
      </trkpt>
      <trkpt lat="45.72972" lon="6.78151">
        <ele>2219</ele>
        <time>2019-10-06T09:47:11Z</time>
      </trkpt>
      <trkpt lat="45.72972" lon="6.78151">
        <ele>2219</ele>
        <time>2019-10-06T09:47:13Z</time>
      </trkpt>
      <trkpt lat="45.7297" lon="6.78149">
        <ele>2219</ele>
        <time>2019-10-06T09:47:14Z</time>
      </trkpt>
      <trkpt lat="45.72968" lon="6.78149">
        <ele>2220</ele>
        <time>2019-10-06T09:47:18Z</time>
      </trkpt>
      <trkpt lat="45.72968" lon="6.78149">
        <ele>2220</ele>
        <time>2019-10-06T09:47:19Z</time>
      </trkpt>
      <trkpt lat="45.72966" lon="6.78149">
        <ele>2220</ele>
        <time>2019-10-06T09:47:22Z</time>
      </trkpt>
      <trkpt lat="45.72966" lon="6.78149">
        <ele>2222</ele>
        <time>2019-10-06T09:47:24Z</time>
      </trkpt>
      <trkpt lat="45.72963" lon="6.7815">
        <ele>2222</ele>
        <time>2019-10-06T09:47:26Z</time>
      </trkpt>
      <trkpt lat="45.72963" lon="6.7815">
        <ele>2223</ele>
        <time>2019-10-06T09:47:29Z</time>
      </trkpt>
      <trkpt lat="45.72961" lon="6.78149">
        <ele>2223</ele>
        <time>2019-10-06T09:47:30Z</time>
      </trkpt>
      <trkpt lat="45.72959" lon="6.7815">
        <ele>2224</ele>
        <time>2019-10-06T09:47:34Z</time>
      </trkpt>
      <trkpt lat="45.72959" lon="6.7815">
        <ele>2224</ele>
        <time>2019-10-06T09:47:35Z</time>
      </trkpt>
      <trkpt lat="45.72956" lon="6.7815">
        <ele>2224</ele>
        <time>2019-10-06T09:47:37Z</time>
      </trkpt>
      <trkpt lat="45.72954" lon="6.7815">
        <ele>2224</ele>
        <time>2019-10-06T09:47:40Z</time>
      </trkpt>
      <trkpt lat="45.72954" lon="6.7815">
        <ele>2224</ele>
        <time>2019-10-06T09:47:41Z</time>
      </trkpt>
      <trkpt lat="45.72952" lon="6.7815">
        <ele>2224</ele>
        <time>2019-10-06T09:47:43Z</time>
      </trkpt>
      <trkpt lat="45.72952" lon="6.7815">
        <ele>2226</ele>
        <time>2019-10-06T09:47:46Z</time>
      </trkpt>
      <trkpt lat="45.7295" lon="6.78152">
        <ele>2226</ele>
        <time>2019-10-06T09:47:47Z</time>
      </trkpt>
      <trkpt lat="45.72949" lon="6.78154">
        <ele>2227</ele>
        <time>2019-10-06T09:47:51Z</time>
      </trkpt>
      <trkpt lat="45.72949" lon="6.78154">
        <ele>2228</ele>
        <time>2019-10-06T09:47:52Z</time>
      </trkpt>
      <trkpt lat="45.72948" lon="6.78156">
        <ele>2228</ele>
        <time>2019-10-06T09:47:54Z</time>
      </trkpt>
      <trkpt lat="45.72948" lon="6.78156">
        <ele>2228</ele>
        <time>2019-10-06T09:47:57Z</time>
      </trkpt>
      <trkpt lat="45.72948" lon="6.7816">
        <ele>2228</ele>
        <time>2019-10-06T09:47:58Z</time>
      </trkpt>
      <trkpt lat="45.72948" lon="6.78162">
        <ele>2228</ele>
        <time>2019-10-06T09:48:01Z</time>
      </trkpt>
      <trkpt lat="45.72948" lon="6.78162">
        <ele>2229</ele>
        <time>2019-10-06T09:48:03Z</time>
      </trkpt>
      <trkpt lat="45.72949" lon="6.78165">
        <ele>2229</ele>
        <time>2019-10-06T09:48:04Z</time>
      </trkpt>
      <trkpt lat="45.72949" lon="6.78167">
        <ele>2230</ele>
        <time>2019-10-06T09:48:08Z</time>
      </trkpt>
      <trkpt lat="45.72949" lon="6.78167">
        <ele>2230</ele>
        <time>2019-10-06T09:48:09Z</time>
      </trkpt>
      <trkpt lat="45.72947" lon="6.78168">
        <ele>2230</ele>
        <time>2019-10-06T09:48:11Z</time>
      </trkpt>
      <trkpt lat="45.72946" lon="6.78168">
        <ele>2231</ele>
        <time>2019-10-06T09:48:14Z</time>
      </trkpt>
      <trkpt lat="45.72946" lon="6.78168">
        <ele>2231</ele>
        <time>2019-10-06T09:48:15Z</time>
      </trkpt>
      <trkpt lat="45.72944" lon="6.78167">
        <ele>2231</ele>
        <time>2019-10-06T09:48:17Z</time>
      </trkpt>
      <trkpt lat="45.72942" lon="6.78167">
        <ele>2231</ele>
        <time>2019-10-06T09:48:20Z</time>
      </trkpt>
      <trkpt lat="45.72942" lon="6.78167">
        <ele>2231</ele>
        <time>2019-10-06T09:48:21Z</time>
      </trkpt>
      <trkpt lat="45.7294" lon="6.78165">
        <ele>2232</ele>
        <time>2019-10-06T09:48:23Z</time>
      </trkpt>
      <trkpt lat="45.72937" lon="6.78164">
        <ele>2233</ele>
        <time>2019-10-06T09:48:26Z</time>
      </trkpt>
      <trkpt lat="45.72937" lon="6.78164">
        <ele>2233</ele>
        <time>2019-10-06T09:48:27Z</time>
      </trkpt>
      <trkpt lat="45.72935" lon="6.78163">
        <ele>2234</ele>
        <time>2019-10-06T09:48:29Z</time>
      </trkpt>
      <trkpt lat="45.72933" lon="6.78162">
        <ele>2234</ele>
        <time>2019-10-06T09:48:32Z</time>
      </trkpt>
      <trkpt lat="45.72933" lon="6.78162">
        <ele>2234</ele>
        <time>2019-10-06T09:48:33Z</time>
      </trkpt>
      <trkpt lat="45.7293" lon="6.78162">
        <ele>2235</ele>
        <time>2019-10-06T09:48:35Z</time>
      </trkpt>
      <trkpt lat="45.72929" lon="6.78161">
        <ele>2236</ele>
        <time>2019-10-06T09:48:37Z</time>
      </trkpt>
      <trkpt lat="45.72929" lon="6.78161">
        <ele>2236</ele>
        <time>2019-10-06T09:48:39Z</time>
      </trkpt>
      <trkpt lat="45.72926" lon="6.7816">
        <ele>2236</ele>
        <time>2019-10-06T09:48:40Z</time>
      </trkpt>
      <trkpt lat="45.72924" lon="6.78161">
        <ele>2236</ele>
        <time>2019-10-06T09:48:43Z</time>
      </trkpt>
      <trkpt lat="45.72924" lon="6.78161">
        <ele>2236</ele>
        <time>2019-10-06T09:48:45Z</time>
      </trkpt>
      <trkpt lat="45.72922" lon="6.78162">
        <ele>2236</ele>
        <time>2019-10-06T09:48:47Z</time>
      </trkpt>
      <trkpt lat="45.7292" lon="6.78162">
        <ele>2238</ele>
        <time>2019-10-06T09:48:50Z</time>
      </trkpt>
      <trkpt lat="45.7292" lon="6.78162">
        <ele>2238</ele>
        <time>2019-10-06T09:48:51Z</time>
      </trkpt>
      <trkpt lat="45.72918" lon="6.78163">
        <ele>2238</ele>
        <time>2019-10-06T09:48:53Z</time>
      </trkpt>
      <trkpt lat="45.72915" lon="6.78162">
        <ele>2239</ele>
        <time>2019-10-06T09:48:56Z</time>
      </trkpt>
      <trkpt lat="45.72915" lon="6.78162">
        <ele>2239</ele>
        <time>2019-10-06T09:48:57Z</time>
      </trkpt>
      <trkpt lat="45.72913" lon="6.78161">
        <ele>2239</ele>
        <time>2019-10-06T09:48:59Z</time>
      </trkpt>
      <trkpt lat="45.72911" lon="6.7816">
        <ele>2240</ele>
        <time>2019-10-06T09:49:02Z</time>
      </trkpt>
      <trkpt lat="45.72911" lon="6.7816">
        <ele>2240</ele>
        <time>2019-10-06T09:49:03Z</time>
      </trkpt>
      <trkpt lat="45.72909" lon="6.78159">
        <ele>2240</ele>
        <time>2019-10-06T09:49:05Z</time>
      </trkpt>
      <trkpt lat="45.72909" lon="6.78159">
        <ele>2240</ele>
        <time>2019-10-06T09:49:08Z</time>
      </trkpt>
      <trkpt lat="45.72907" lon="6.78159">
        <ele>2241</ele>
        <time>2019-10-06T09:49:09Z</time>
      </trkpt>
      <trkpt lat="45.72906" lon="6.78158">
        <ele>2241</ele>
        <time>2019-10-06T09:49:12Z</time>
      </trkpt>
      <trkpt lat="45.72906" lon="6.78158">
        <ele>2241</ele>
        <time>2019-10-06T09:49:14Z</time>
      </trkpt>
      <trkpt lat="45.72903" lon="6.78156">
        <ele>2241</ele>
        <time>2019-10-06T09:49:15Z</time>
      </trkpt>
      <trkpt lat="45.72901" lon="6.78154">
        <ele>2243</ele>
        <time>2019-10-06T09:49:18Z</time>
      </trkpt>
      <trkpt lat="45.72901" lon="6.78154">
        <ele>2243</ele>
        <time>2019-10-06T09:49:20Z</time>
      </trkpt>
      <trkpt lat="45.72899" lon="6.78153">
        <ele>2243</ele>
        <time>2019-10-06T09:49:21Z</time>
      </trkpt>
      <trkpt lat="45.72897" lon="6.78153">
        <ele>2244</ele>
        <time>2019-10-06T09:49:24Z</time>
      </trkpt>
      <trkpt lat="45.72897" lon="6.78153">
        <ele>2244</ele>
        <time>2019-10-06T09:49:26Z</time>
      </trkpt>
      <trkpt lat="45.72895" lon="6.78153">
        <ele>2244</ele>
        <time>2019-10-06T09:49:27Z</time>
      </trkpt>
      <trkpt lat="45.72893" lon="6.78154">
        <ele>2245</ele>
        <time>2019-10-06T09:49:30Z</time>
      </trkpt>
      <trkpt lat="45.72893" lon="6.78154">
        <ele>2245</ele>
        <time>2019-10-06T09:49:32Z</time>
      </trkpt>
      <trkpt lat="45.72891" lon="6.78154">
        <ele>2245</ele>
        <time>2019-10-06T09:49:33Z</time>
      </trkpt>
      <trkpt lat="45.7289" lon="6.78155">
        <ele>2245</ele>
        <time>2019-10-06T09:49:36Z</time>
      </trkpt>
      <trkpt lat="45.72888" lon="6.78156">
        <ele>2248</ele>
        <time>2019-10-06T09:49:38Z</time>
      </trkpt>
      <trkpt lat="45.72888" lon="6.78156">
        <ele>2246</ele>
        <time>2019-10-06T09:49:41Z</time>
      </trkpt>
      <trkpt lat="45.72886" lon="6.78157">
        <ele>2248</ele>
        <time>2019-10-06T09:49:42Z</time>
      </trkpt>
      <trkpt lat="45.72884" lon="6.78157">
        <ele>2249</ele>
        <time>2019-10-06T09:49:44Z</time>
      </trkpt>
      <trkpt lat="45.72881" lon="6.78157">
        <ele>2249</ele>
        <time>2019-10-06T09:49:47Z</time>
      </trkpt>
      <trkpt lat="45.72881" lon="6.78157">
        <ele>2249</ele>
        <time>2019-10-06T09:49:48Z</time>
      </trkpt>
      <trkpt lat="45.72879" lon="6.78158">
        <ele>2249</ele>
        <time>2019-10-06T09:49:51Z</time>
      </trkpt>
      <trkpt lat="45.72879" lon="6.78158">
        <ele>2250</ele>
        <time>2019-10-06T09:49:53Z</time>
      </trkpt>
      <trkpt lat="45.72877" lon="6.78158">
        <ele>2250</ele>
        <time>2019-10-06T09:49:54Z</time>
      </trkpt>
      <trkpt lat="45.72875" lon="6.78157">
        <ele>2250</ele>
        <time>2019-10-06T09:49:57Z</time>
      </trkpt>
      <trkpt lat="45.72875" lon="6.78157">
        <ele>2250</ele>
        <time>2019-10-06T09:49:59Z</time>
      </trkpt>
      <trkpt lat="45.72873" lon="6.78157">
        <ele>2250</ele>
        <time>2019-10-06T09:50:01Z</time>
      </trkpt>
      <trkpt lat="45.7287" lon="6.78158">
        <ele>2250</ele>
        <time>2019-10-06T09:50:04Z</time>
      </trkpt>
      <trkpt lat="45.7287" lon="6.78158">
        <ele>2251</ele>
        <time>2019-10-06T09:50:05Z</time>
      </trkpt>
      <trkpt lat="45.72868" lon="6.78158">
        <ele>2251</ele>
        <time>2019-10-06T09:50:08Z</time>
      </trkpt>
      <trkpt lat="45.72868" lon="6.78158">
        <ele>2252</ele>
        <time>2019-10-06T09:50:10Z</time>
      </trkpt>
      <trkpt lat="45.72866" lon="6.78158">
        <ele>2252</ele>
        <time>2019-10-06T09:50:12Z</time>
      </trkpt>
      <trkpt lat="45.72866" lon="6.78158">
        <ele>2252</ele>
        <time>2019-10-06T09:50:15Z</time>
      </trkpt>
      <trkpt lat="45.72865" lon="6.78158">
        <ele>2253</ele>
        <time>2019-10-06T09:50:16Z</time>
      </trkpt>
      <trkpt lat="45.72863" lon="6.78159">
        <ele>2253</ele>
        <time>2019-10-06T09:50:20Z</time>
      </trkpt>
      <trkpt lat="45.72863" lon="6.78159">
        <ele>2253</ele>
        <time>2019-10-06T09:50:21Z</time>
      </trkpt>
      <trkpt lat="45.72861" lon="6.78158">
        <ele>2254</ele>
        <time>2019-10-06T09:50:24Z</time>
      </trkpt>
      <trkpt lat="45.72861" lon="6.78158">
        <ele>2254</ele>
        <time>2019-10-06T09:50:26Z</time>
      </trkpt>
      <trkpt lat="45.72858" lon="6.78158">
        <ele>2254</ele>
        <time>2019-10-06T09:50:28Z</time>
      </trkpt>
      <trkpt lat="45.72856" lon="6.78157">
        <ele>2255</ele>
        <time>2019-10-06T09:50:31Z</time>
      </trkpt>
      <trkpt lat="45.72856" lon="6.78157">
        <ele>2256</ele>
        <time>2019-10-06T09:50:32Z</time>
      </trkpt>
      <trkpt lat="45.72855" lon="6.78156">
        <ele>2256</ele>
        <time>2019-10-06T09:50:33Z</time>
      </trkpt>
      <trkpt lat="45.72852" lon="6.78156">
        <ele>2256</ele>
        <time>2019-10-06T09:50:36Z</time>
      </trkpt>
      <trkpt lat="45.72852" lon="6.78156">
        <ele>2258</ele>
        <time>2019-10-06T09:50:38Z</time>
      </trkpt>
      <trkpt lat="45.7285" lon="6.78156">
        <ele>2258</ele>
        <time>2019-10-06T09:50:39Z</time>
      </trkpt>
      <trkpt lat="45.72848" lon="6.78156">
        <ele>2258</ele>
        <time>2019-10-06T09:50:43Z</time>
      </trkpt>
      <trkpt lat="45.72848" lon="6.78156">
        <ele>2258</ele>
        <time>2019-10-06T09:50:44Z</time>
      </trkpt>
      <trkpt lat="45.72846" lon="6.78156">
        <ele>2258</ele>
        <time>2019-10-06T09:50:47Z</time>
      </trkpt>
      <trkpt lat="45.72846" lon="6.78156">
        <ele>2259</ele>
        <time>2019-10-06T09:50:49Z</time>
      </trkpt>
      <trkpt lat="45.72844" lon="6.78155">
        <ele>2259</ele>
        <time>2019-10-06T09:50:50Z</time>
      </trkpt>
      <trkpt lat="45.72842" lon="6.78155">
        <ele>2259</ele>
        <time>2019-10-06T09:50:52Z</time>
      </trkpt>
      <trkpt lat="45.72839" lon="6.78154">
        <ele>2260</ele>
        <time>2019-10-06T09:50:55Z</time>
      </trkpt>
      <trkpt lat="45.72839" lon="6.78154">
        <ele>2260</ele>
        <time>2019-10-06T09:50:56Z</time>
      </trkpt>
      <trkpt lat="45.72837" lon="6.78154">
        <ele>2260</ele>
        <time>2019-10-06T09:50:58Z</time>
      </trkpt>
      <trkpt lat="45.72835" lon="6.78153">
        <ele>2261</ele>
        <time>2019-10-06T09:51:01Z</time>
      </trkpt>
      <trkpt lat="45.72835" lon="6.78153">
        <ele>2261</ele>
        <time>2019-10-06T09:51:02Z</time>
      </trkpt>
      <trkpt lat="45.72833" lon="6.78153">
        <ele>2262</ele>
        <time>2019-10-06T09:51:04Z</time>
      </trkpt>
      <trkpt lat="45.72831" lon="6.78152">
        <ele>2262</ele>
        <time>2019-10-06T09:51:07Z</time>
      </trkpt>
      <trkpt lat="45.72831" lon="6.78152">
        <ele>2262</ele>
        <time>2019-10-06T09:51:08Z</time>
      </trkpt>
      <trkpt lat="45.72829" lon="6.78152">
        <ele>2263</ele>
        <time>2019-10-06T09:51:10Z</time>
      </trkpt>
      <trkpt lat="45.72827" lon="6.78153">
        <ele>2264</ele>
        <time>2019-10-06T09:51:13Z</time>
      </trkpt>
      <trkpt lat="45.72827" lon="6.78153">
        <ele>2264</ele>
        <time>2019-10-06T09:51:14Z</time>
      </trkpt>
      <trkpt lat="45.72825" lon="6.78153">
        <ele>2264</ele>
        <time>2019-10-06T09:51:17Z</time>
      </trkpt>
      <trkpt lat="45.72825" lon="6.78153">
        <ele>2265</ele>
        <time>2019-10-06T09:51:19Z</time>
      </trkpt>
      <trkpt lat="45.72823" lon="6.78154">
        <ele>2265</ele>
        <time>2019-10-06T09:51:20Z</time>
      </trkpt>
      <trkpt lat="45.72821" lon="6.78153">
        <ele>2265</ele>
        <time>2019-10-06T09:51:24Z</time>
      </trkpt>
      <trkpt lat="45.72821" lon="6.78153">
        <ele>2265</ele>
        <time>2019-10-06T09:51:25Z</time>
      </trkpt>
      <trkpt lat="45.72818" lon="6.78152">
        <ele>2265</ele>
        <time>2019-10-06T09:51:27Z</time>
      </trkpt>
      <trkpt lat="45.72816" lon="6.78151">
        <ele>2266</ele>
        <time>2019-10-06T09:51:30Z</time>
      </trkpt>
      <trkpt lat="45.72816" lon="6.78151">
        <ele>2266</ele>
        <time>2019-10-06T09:51:31Z</time>
      </trkpt>
      <trkpt lat="45.72813" lon="6.78151">
        <ele>2266</ele>
        <time>2019-10-06T09:51:33Z</time>
      </trkpt>
      <trkpt lat="45.72811" lon="6.78152">
        <ele>2267</ele>
        <time>2019-10-06T09:51:36Z</time>
      </trkpt>
      <trkpt lat="45.72811" lon="6.78152">
        <ele>2267</ele>
        <time>2019-10-06T09:51:37Z</time>
      </trkpt>
      <trkpt lat="45.72809" lon="6.78154">
        <ele>2267</ele>
        <time>2019-10-06T09:51:39Z</time>
      </trkpt>
      <trkpt lat="45.72809" lon="6.78154">
        <ele>2268</ele>
        <time>2019-10-06T09:51:42Z</time>
      </trkpt>
      <trkpt lat="45.72807" lon="6.78156">
        <ele>2269</ele>
        <time>2019-10-06T09:51:43Z</time>
      </trkpt>
      <trkpt lat="45.72806" lon="6.78158">
        <ele>2269</ele>
        <time>2019-10-06T09:51:45Z</time>
      </trkpt>
      <trkpt lat="45.72804" lon="6.78159">
        <ele>2269</ele>
        <time>2019-10-06T09:51:47Z</time>
      </trkpt>
      <trkpt lat="45.72802" lon="6.78159">
        <ele>2269</ele>
        <time>2019-10-06T09:51:49Z</time>
      </trkpt>
      <trkpt lat="45.72799" lon="6.78159">
        <ele>2270</ele>
        <time>2019-10-06T09:51:51Z</time>
      </trkpt>
      <trkpt lat="45.72797" lon="6.7816">
        <ele>2269</ele>
        <time>2019-10-06T09:51:53Z</time>
      </trkpt>
      <trkpt lat="45.72795" lon="6.7816">
        <ele>2269</ele>
        <time>2019-10-06T09:51:55Z</time>
      </trkpt>
      <trkpt lat="45.72793" lon="6.7816">
        <ele>2270</ele>
        <time>2019-10-06T09:51:57Z</time>
      </trkpt>
      <trkpt lat="45.72791" lon="6.78161">
        <ele>2270</ele>
        <time>2019-10-06T09:51:59Z</time>
      </trkpt>
      <trkpt lat="45.72789" lon="6.78161">
        <ele>2271</ele>
        <time>2019-10-06T09:52:01Z</time>
      </trkpt>
      <trkpt lat="45.72787" lon="6.78161">
        <ele>2271</ele>
        <time>2019-10-06T09:52:03Z</time>
      </trkpt>
      <trkpt lat="45.72787" lon="6.78161">
        <ele>2271</ele>
        <time>2019-10-06T09:52:05Z</time>
      </trkpt>
      <trkpt lat="45.72784" lon="6.78162">
        <ele>2271</ele>
        <time>2019-10-06T09:52:06Z</time>
      </trkpt>
      <trkpt lat="45.72782" lon="6.78162">
        <ele>2271</ele>
        <time>2019-10-06T09:52:08Z</time>
      </trkpt>
      <trkpt lat="45.7278" lon="6.78163">
        <ele>2271</ele>
        <time>2019-10-06T09:52:10Z</time>
      </trkpt>
      <trkpt lat="45.7278" lon="6.78163">
        <ele>2272</ele>
        <time>2019-10-06T09:52:12Z</time>
      </trkpt>
      <trkpt lat="45.72778" lon="6.78164">
        <ele>2272</ele>
        <time>2019-10-06T09:52:13Z</time>
      </trkpt>
      <trkpt lat="45.72776" lon="6.78165">
        <ele>2272</ele>
        <time>2019-10-06T09:52:16Z</time>
      </trkpt>
      <trkpt lat="45.72774" lon="6.78164">
        <ele>2272</ele>
        <time>2019-10-06T09:52:18Z</time>
      </trkpt>
      <trkpt lat="45.72772" lon="6.78165">
        <ele>2275</ele>
        <time>2019-10-06T09:52:21Z</time>
      </trkpt>
      <trkpt lat="45.72772" lon="6.78165">
        <ele>2275</ele>
        <time>2019-10-06T09:52:22Z</time>
      </trkpt>
      <trkpt lat="45.72769" lon="6.78165">
        <ele>2276</ele>
        <time>2019-10-06T09:52:24Z</time>
      </trkpt>
      <trkpt lat="45.72767" lon="6.78165">
        <ele>2276</ele>
        <time>2019-10-06T09:52:26Z</time>
      </trkpt>
      <trkpt lat="45.72767" lon="6.78165">
        <ele>2276</ele>
        <time>2019-10-06T09:52:28Z</time>
      </trkpt>
      <trkpt lat="45.72764" lon="6.78165">
        <ele>2276</ele>
        <time>2019-10-06T09:52:29Z</time>
      </trkpt>
      <trkpt lat="45.72762" lon="6.78165">
        <ele>2276</ele>
        <time>2019-10-06T09:52:32Z</time>
      </trkpt>
      <trkpt lat="45.72762" lon="6.78165">
        <ele>2277</ele>
        <time>2019-10-06T09:52:34Z</time>
      </trkpt>
      <trkpt lat="45.7276" lon="6.78166">
        <ele>2277</ele>
        <time>2019-10-06T09:52:35Z</time>
      </trkpt>
      <trkpt lat="45.72758" lon="6.78168">
        <ele>2278</ele>
        <time>2019-10-06T09:52:38Z</time>
      </trkpt>
      <trkpt lat="45.72758" lon="6.78168">
        <ele>2278</ele>
        <time>2019-10-06T09:52:40Z</time>
      </trkpt>
      <trkpt lat="45.72757" lon="6.7817">
        <ele>2278</ele>
        <time>2019-10-06T09:52:41Z</time>
      </trkpt>
      <trkpt lat="45.72755" lon="6.78171">
        <ele>2279</ele>
        <time>2019-10-06T09:52:44Z</time>
      </trkpt>
      <trkpt lat="45.72755" lon="6.78171">
        <ele>2280</ele>
        <time>2019-10-06T09:52:46Z</time>
      </trkpt>
      <trkpt lat="45.72752" lon="6.78169">
        <ele>2280</ele>
        <time>2019-10-06T09:52:47Z</time>
      </trkpt>
      <trkpt lat="45.7275" lon="6.78169">
        <ele>2280</ele>
        <time>2019-10-06T09:52:50Z</time>
      </trkpt>
      <trkpt lat="45.72748" lon="6.78169">
        <ele>2281</ele>
        <time>2019-10-06T09:52:52Z</time>
      </trkpt>
      <trkpt lat="45.72745" lon="6.78168">
        <ele>2281</ele>
        <time>2019-10-06T09:52:55Z</time>
      </trkpt>
      <trkpt lat="45.72745" lon="6.78168">
        <ele>2281</ele>
        <time>2019-10-06T09:52:56Z</time>
      </trkpt>
      <trkpt lat="45.72743" lon="6.78168">
        <ele>2281</ele>
        <time>2019-10-06T09:52:58Z</time>
      </trkpt>
      <trkpt lat="45.72741" lon="6.78168">
        <ele>2282</ele>
        <time>2019-10-06T09:53:00Z</time>
      </trkpt>
      <trkpt lat="45.72739" lon="6.78167">
        <ele>2282</ele>
        <time>2019-10-06T09:53:02Z</time>
      </trkpt>
      <trkpt lat="45.72737" lon="6.78167">
        <ele>2283</ele>
        <time>2019-10-06T09:53:04Z</time>
      </trkpt>
      <trkpt lat="45.72737" lon="6.78167">
        <ele>2283</ele>
        <time>2019-10-06T09:53:06Z</time>
      </trkpt>
      <trkpt lat="45.72735" lon="6.78168">
        <ele>2283</ele>
        <time>2019-10-06T09:53:07Z</time>
      </trkpt>
      <trkpt lat="45.72733" lon="6.78168">
        <ele>2284</ele>
        <time>2019-10-06T09:53:10Z</time>
      </trkpt>
      <trkpt lat="45.72733" lon="6.78168">
        <ele>2285</ele>
        <time>2019-10-06T09:53:12Z</time>
      </trkpt>
      <trkpt lat="45.72731" lon="6.78169">
        <ele>2285</ele>
        <time>2019-10-06T09:53:13Z</time>
      </trkpt>
      <trkpt lat="45.72729" lon="6.78171">
        <ele>2286</ele>
        <time>2019-10-06T09:53:16Z</time>
      </trkpt>
      <trkpt lat="45.72729" lon="6.78171">
        <ele>2286</ele>
        <time>2019-10-06T09:53:18Z</time>
      </trkpt>
      <trkpt lat="45.72726" lon="6.78171">
        <ele>2286</ele>
        <time>2019-10-06T09:53:19Z</time>
      </trkpt>
      <trkpt lat="45.72724" lon="6.78171">
        <ele>2286</ele>
        <time>2019-10-06T09:53:21Z</time>
      </trkpt>
      <trkpt lat="45.72722" lon="6.78171">
        <ele>2287</ele>
        <time>2019-10-06T09:53:24Z</time>
      </trkpt>
      <trkpt lat="45.72722" lon="6.78171">
        <ele>2287</ele>
        <time>2019-10-06T09:53:25Z</time>
      </trkpt>
      <trkpt lat="45.7272" lon="6.78172">
        <ele>2287</ele>
        <time>2019-10-06T09:53:26Z</time>
      </trkpt>
      <trkpt lat="45.72718" lon="6.78172">
        <ele>2287</ele>
        <time>2019-10-06T09:53:29Z</time>
      </trkpt>
      <trkpt lat="45.72718" lon="6.78172">
        <ele>2288</ele>
        <time>2019-10-06T09:53:31Z</time>
      </trkpt>
      <trkpt lat="45.72715" lon="6.78172">
        <ele>2288</ele>
        <time>2019-10-06T09:53:32Z</time>
      </trkpt>
      <trkpt lat="45.72713" lon="6.78172">
        <ele>2288</ele>
        <time>2019-10-06T09:53:34Z</time>
      </trkpt>
      <trkpt lat="45.72711" lon="6.78171">
        <ele>2288</ele>
        <time>2019-10-06T09:53:36Z</time>
      </trkpt>
      <trkpt lat="45.72711" lon="6.78171">
        <ele>2289</ele>
        <time>2019-10-06T09:53:38Z</time>
      </trkpt>
      <trkpt lat="45.72709" lon="6.78171">
        <ele>2289</ele>
        <time>2019-10-06T09:53:39Z</time>
      </trkpt>
      <trkpt lat="45.72707" lon="6.78171">
        <ele>2290</ele>
        <time>2019-10-06T09:53:42Z</time>
      </trkpt>
      <trkpt lat="45.72707" lon="6.78171">
        <ele>2291</ele>
        <time>2019-10-06T09:53:44Z</time>
      </trkpt>
      <trkpt lat="45.72705" lon="6.78172">
        <ele>2291</ele>
        <time>2019-10-06T09:53:46Z</time>
      </trkpt>
      <trkpt lat="45.72703" lon="6.78173">
        <ele>2291</ele>
        <time>2019-10-06T09:53:49Z</time>
      </trkpt>
      <trkpt lat="45.72703" lon="6.78173">
        <ele>2291</ele>
        <time>2019-10-06T09:53:50Z</time>
      </trkpt>
      <trkpt lat="45.72701" lon="6.78175">
        <ele>2292</ele>
        <time>2019-10-06T09:53:53Z</time>
      </trkpt>
      <trkpt lat="45.72701" lon="6.78175">
        <ele>2292</ele>
        <time>2019-10-06T09:53:55Z</time>
      </trkpt>
      <trkpt lat="45.72699" lon="6.78177">
        <ele>2292</ele>
        <time>2019-10-06T09:53:56Z</time>
      </trkpt>
      <trkpt lat="45.72698" lon="6.78179">
        <ele>2293</ele>
        <time>2019-10-06T09:53:58Z</time>
      </trkpt>
      <trkpt lat="45.72696" lon="6.78181">
        <ele>2293</ele>
        <time>2019-10-06T09:54:00Z</time>
      </trkpt>
      <trkpt lat="45.72694" lon="6.78181">
        <ele>2294</ele>
        <time>2019-10-06T09:54:02Z</time>
      </trkpt>
      <trkpt lat="45.72692" lon="6.78181">
        <ele>2294</ele>
        <time>2019-10-06T09:54:04Z</time>
      </trkpt>
      <trkpt lat="45.7269" lon="6.78181">
        <ele>2294</ele>
        <time>2019-10-06T09:54:06Z</time>
      </trkpt>
      <trkpt lat="45.72688" lon="6.78182">
        <ele>2295</ele>
        <time>2019-10-06T09:54:08Z</time>
      </trkpt>
      <trkpt lat="45.72686" lon="6.78182">
        <ele>2295</ele>
        <time>2019-10-06T09:54:10Z</time>
      </trkpt>
      <trkpt lat="45.72684" lon="6.78183">
        <ele>2295</ele>
        <time>2019-10-06T09:54:12Z</time>
      </trkpt>
      <trkpt lat="45.72682" lon="6.78184">
        <ele>2296</ele>
        <time>2019-10-06T09:54:14Z</time>
      </trkpt>
      <trkpt lat="45.72681" lon="6.78185">
        <ele>2296</ele>
        <time>2019-10-06T09:54:16Z</time>
      </trkpt>
      <trkpt lat="45.72681" lon="6.78185">
        <ele>2296</ele>
        <time>2019-10-06T09:54:18Z</time>
      </trkpt>
      <trkpt lat="45.72678" lon="6.78186">
        <ele>2296</ele>
        <time>2019-10-06T09:54:19Z</time>
      </trkpt>
      <trkpt lat="45.72676" lon="6.78187">
        <ele>2297</ele>
        <time>2019-10-06T09:54:22Z</time>
      </trkpt>
      <trkpt lat="45.72676" lon="6.78187">
        <ele>2298</ele>
        <time>2019-10-06T09:54:24Z</time>
      </trkpt>
      <trkpt lat="45.72673" lon="6.78187">
        <ele>2298</ele>
        <time>2019-10-06T09:54:25Z</time>
      </trkpt>
      <trkpt lat="45.72671" lon="6.78189">
        <ele>2298</ele>
        <time>2019-10-06T09:54:28Z</time>
      </trkpt>
      <trkpt lat="45.72671" lon="6.78189">
        <ele>2298</ele>
        <time>2019-10-06T09:54:30Z</time>
      </trkpt>
      <trkpt lat="45.72668" lon="6.7819">
        <ele>2298</ele>
        <time>2019-10-06T09:54:31Z</time>
      </trkpt>
      <trkpt lat="45.72667" lon="6.7819">
        <ele>2298</ele>
        <time>2019-10-06T09:54:33Z</time>
      </trkpt>
      <trkpt lat="45.72665" lon="6.78189">
        <ele>2300</ele>
        <time>2019-10-06T09:54:35Z</time>
      </trkpt>
      <trkpt lat="45.72665" lon="6.78189">
        <ele>2300</ele>
        <time>2019-10-06T09:54:37Z</time>
      </trkpt>
      <trkpt lat="45.72663" lon="6.78188">
        <ele>2300</ele>
        <time>2019-10-06T09:54:38Z</time>
      </trkpt>
      <trkpt lat="45.7266" lon="6.78189">
        <ele>2301</ele>
        <time>2019-10-06T09:54:41Z</time>
      </trkpt>
      <trkpt lat="45.7266" lon="6.78189">
        <ele>2302</ele>
        <time>2019-10-06T09:54:43Z</time>
      </trkpt>
      <trkpt lat="45.72658" lon="6.7819">
        <ele>2302</ele>
        <time>2019-10-06T09:54:44Z</time>
      </trkpt>
      <trkpt lat="45.72656" lon="6.78191">
        <ele>2302</ele>
        <time>2019-10-06T09:54:47Z</time>
      </trkpt>
      <trkpt lat="45.72656" lon="6.78191">
        <ele>2302</ele>
        <time>2019-10-06T09:54:49Z</time>
      </trkpt>
      <trkpt lat="45.72654" lon="6.78191">
        <ele>2302</ele>
        <time>2019-10-06T09:54:50Z</time>
      </trkpt>
      <trkpt lat="45.72651" lon="6.78191">
        <ele>2303</ele>
        <time>2019-10-06T09:54:53Z</time>
      </trkpt>
      <trkpt lat="45.72651" lon="6.78191">
        <ele>2304</ele>
        <time>2019-10-06T09:54:55Z</time>
      </trkpt>
      <trkpt lat="45.72649" lon="6.78192">
        <ele>2304</ele>
        <time>2019-10-06T09:54:57Z</time>
      </trkpt>
      <trkpt lat="45.72647" lon="6.78193">
        <ele>2305</ele>
        <time>2019-10-06T09:55:00Z</time>
      </trkpt>
      <trkpt lat="45.72647" lon="6.78193">
        <ele>2305</ele>
        <time>2019-10-06T09:55:01Z</time>
      </trkpt>
      <trkpt lat="45.72645" lon="6.78193">
        <ele>2306</ele>
        <time>2019-10-06T09:55:03Z</time>
      </trkpt>
      <trkpt lat="45.72643" lon="6.78193">
        <ele>2306</ele>
        <time>2019-10-06T09:55:06Z</time>
      </trkpt>
      <trkpt lat="45.72643" lon="6.78193">
        <ele>2307</ele>
        <time>2019-10-06T09:55:07Z</time>
      </trkpt>
      <trkpt lat="45.72641" lon="6.78195">
        <ele>2307</ele>
        <time>2019-10-06T09:55:09Z</time>
      </trkpt>
      <trkpt lat="45.72639" lon="6.78195">
        <ele>2307</ele>
        <time>2019-10-06T09:55:12Z</time>
      </trkpt>
      <trkpt lat="45.72639" lon="6.78195">
        <ele>2307</ele>
        <time>2019-10-06T09:55:13Z</time>
      </trkpt>
      <trkpt lat="45.72637" lon="6.78196">
        <ele>2307</ele>
        <time>2019-10-06T09:55:15Z</time>
      </trkpt>
      <trkpt lat="45.72635" lon="6.78197">
        <ele>2308</ele>
        <time>2019-10-06T09:55:18Z</time>
      </trkpt>
      <trkpt lat="45.72635" lon="6.78197">
        <ele>2308</ele>
        <time>2019-10-06T09:55:19Z</time>
      </trkpt>
      <trkpt lat="45.72633" lon="6.78197">
        <ele>2308</ele>
        <time>2019-10-06T09:55:20Z</time>
      </trkpt>
      <trkpt lat="45.72631" lon="6.78197">
        <ele>2308</ele>
        <time>2019-10-06T09:55:23Z</time>
      </trkpt>
      <trkpt lat="45.72631" lon="6.78197">
        <ele>2309</ele>
        <time>2019-10-06T09:55:25Z</time>
      </trkpt>
      <trkpt lat="45.72629" lon="6.78197">
        <ele>2310</ele>
        <time>2019-10-06T09:55:26Z</time>
      </trkpt>
      <trkpt lat="45.72627" lon="6.78197">
        <ele>2310</ele>
        <time>2019-10-06T09:55:29Z</time>
      </trkpt>
      <trkpt lat="45.72627" lon="6.78197">
        <ele>2310</ele>
        <time>2019-10-06T09:55:31Z</time>
      </trkpt>
      <trkpt lat="45.72625" lon="6.78197">
        <ele>2311</ele>
        <time>2019-10-06T09:55:32Z</time>
      </trkpt>
      <trkpt lat="45.72622" lon="6.78198">
        <ele>2311</ele>
        <time>2019-10-06T09:55:35Z</time>
      </trkpt>
      <trkpt lat="45.72622" lon="6.78198">
        <ele>2312</ele>
        <time>2019-10-06T09:55:37Z</time>
      </trkpt>
      <trkpt lat="45.7262" lon="6.78199">
        <ele>2312</ele>
        <time>2019-10-06T09:55:38Z</time>
      </trkpt>
      <trkpt lat="45.72617" lon="6.78199">
        <ele>2312</ele>
        <time>2019-10-06T09:55:41Z</time>
      </trkpt>
      <trkpt lat="45.72617" lon="6.78199">
        <ele>2313</ele>
        <time>2019-10-06T09:55:43Z</time>
      </trkpt>
      <trkpt lat="45.72615" lon="6.78199">
        <ele>2313</ele>
        <time>2019-10-06T09:55:44Z</time>
      </trkpt>
      <trkpt lat="45.72613" lon="6.78201">
        <ele>2313</ele>
        <time>2019-10-06T09:55:47Z</time>
      </trkpt>
      <trkpt lat="45.72613" lon="6.78201">
        <ele>2314</ele>
        <time>2019-10-06T09:55:49Z</time>
      </trkpt>
      <trkpt lat="45.72611" lon="6.78202">
        <ele>2314</ele>
        <time>2019-10-06T09:55:50Z</time>
      </trkpt>
      <trkpt lat="45.7261" lon="6.78204">
        <ele>2314</ele>
        <time>2019-10-06T09:55:53Z</time>
      </trkpt>
      <trkpt lat="45.7261" lon="6.78204">
        <ele>2315</ele>
        <time>2019-10-06T09:55:55Z</time>
      </trkpt>
      <trkpt lat="45.72608" lon="6.78205">
        <ele>2315</ele>
        <time>2019-10-06T09:55:56Z</time>
      </trkpt>
      <trkpt lat="45.72606" lon="6.78207">
        <ele>2315</ele>
        <time>2019-10-06T09:55:59Z</time>
      </trkpt>
      <trkpt lat="45.72606" lon="6.78207">
        <ele>2316</ele>
        <time>2019-10-06T09:56:01Z</time>
      </trkpt>
      <trkpt lat="45.72605" lon="6.7821">
        <ele>2317</ele>
        <time>2019-10-06T09:56:03Z</time>
      </trkpt>
      <trkpt lat="45.72603" lon="6.78211">
        <ele>2317</ele>
        <time>2019-10-06T09:56:06Z</time>
      </trkpt>
      <trkpt lat="45.72603" lon="6.78211">
        <ele>2317</ele>
        <time>2019-10-06T09:56:07Z</time>
      </trkpt>
      <trkpt lat="45.72601" lon="6.78212">
        <ele>2317</ele>
        <time>2019-10-06T09:56:09Z</time>
      </trkpt>
      <trkpt lat="45.72601" lon="6.78212">
        <ele>2318</ele>
        <time>2019-10-06T09:56:12Z</time>
      </trkpt>
      <trkpt lat="45.726" lon="6.78214">
        <ele>2319</ele>
        <time>2019-10-06T09:56:14Z</time>
      </trkpt>
      <trkpt lat="45.72598" lon="6.78216">
        <ele>2320</ele>
        <time>2019-10-06T09:56:17Z</time>
      </trkpt>
      <trkpt lat="45.72598" lon="6.78216">
        <ele>2320</ele>
        <time>2019-10-06T09:56:18Z</time>
      </trkpt>
      <trkpt lat="45.72596" lon="6.78217">
        <ele>2320</ele>
        <time>2019-10-06T09:56:20Z</time>
      </trkpt>
      <trkpt lat="45.72594" lon="6.78219">
        <ele>2321</ele>
        <time>2019-10-06T09:56:23Z</time>
      </trkpt>
      <trkpt lat="45.72594" lon="6.78219">
        <ele>2321</ele>
        <time>2019-10-06T09:56:24Z</time>
      </trkpt>
      <trkpt lat="45.72593" lon="6.78221">
        <ele>2322</ele>
        <time>2019-10-06T09:56:26Z</time>
      </trkpt>
      <trkpt lat="45.72591" lon="6.78223">
        <ele>2322</ele>
        <time>2019-10-06T09:56:29Z</time>
      </trkpt>
      <trkpt lat="45.72591" lon="6.78223">
        <ele>2322</ele>
        <time>2019-10-06T09:56:30Z</time>
      </trkpt>
      <trkpt lat="45.72588" lon="6.78224">
        <ele>2322</ele>
        <time>2019-10-06T09:56:33Z</time>
      </trkpt>
      <trkpt lat="45.72588" lon="6.78224">
        <ele>2323</ele>
        <time>2019-10-06T09:56:35Z</time>
      </trkpt>
      <trkpt lat="45.72586" lon="6.78226">
        <ele>2323</ele>
        <time>2019-10-06T09:56:36Z</time>
      </trkpt>
      <trkpt lat="45.72584" lon="6.78228">
        <ele>2323</ele>
        <time>2019-10-06T09:56:40Z</time>
      </trkpt>
      <trkpt lat="45.72584" lon="6.78228">
        <ele>2324</ele>
        <time>2019-10-06T09:56:41Z</time>
      </trkpt>
      <trkpt lat="45.72583" lon="6.78229">
        <ele>2324</ele>
        <time>2019-10-06T09:56:43Z</time>
      </trkpt>
      <trkpt lat="45.72581" lon="6.78231">
        <ele>2326</ele>
        <time>2019-10-06T09:56:46Z</time>
      </trkpt>
      <trkpt lat="45.72581" lon="6.78231">
        <ele>2326</ele>
        <time>2019-10-06T09:56:47Z</time>
      </trkpt>
      <trkpt lat="45.7258" lon="6.78233">
        <ele>2327</ele>
        <time>2019-10-06T09:56:50Z</time>
      </trkpt>
      <trkpt lat="45.7258" lon="6.78233">
        <ele>2327</ele>
        <time>2019-10-06T09:56:52Z</time>
      </trkpt>
      <trkpt lat="45.72578" lon="6.78235">
        <ele>2327</ele>
        <time>2019-10-06T09:56:53Z</time>
      </trkpt>
      <trkpt lat="45.72575" lon="6.78236">
        <ele>2327</ele>
        <time>2019-10-06T09:56:56Z</time>
      </trkpt>
      <trkpt lat="45.72575" lon="6.78236">
        <ele>2328</ele>
        <time>2019-10-06T09:56:58Z</time>
      </trkpt>
      <trkpt lat="45.72573" lon="6.78237">
        <ele>2328</ele>
        <time>2019-10-06T09:56:59Z</time>
      </trkpt>
      <trkpt lat="45.72572" lon="6.78238">
        <ele>2328</ele>
        <time>2019-10-06T09:57:02Z</time>
      </trkpt>
      <trkpt lat="45.72572" lon="6.78238">
        <ele>2329</ele>
        <time>2019-10-06T09:57:04Z</time>
      </trkpt>
      <trkpt lat="45.72569" lon="6.78239">
        <ele>2329</ele>
        <time>2019-10-06T09:57:06Z</time>
      </trkpt>
      <trkpt lat="45.72567" lon="6.7824">
        <ele>2330</ele>
        <time>2019-10-06T09:57:09Z</time>
      </trkpt>
      <trkpt lat="45.72567" lon="6.7824">
        <ele>2330</ele>
        <time>2019-10-06T09:57:10Z</time>
      </trkpt>
      <trkpt lat="45.72568" lon="6.78243">
        <ele>2331</ele>
        <time>2019-10-06T09:57:13Z</time>
      </trkpt>
      <trkpt lat="45.72568" lon="6.78243">
        <ele>2331</ele>
        <time>2019-10-06T09:57:15Z</time>
      </trkpt>
      <trkpt lat="45.7257" lon="6.78245">
        <ele>2331</ele>
        <time>2019-10-06T09:57:16Z</time>
      </trkpt>
      <trkpt lat="45.72571" lon="6.78247">
        <ele>2331</ele>
        <time>2019-10-06T09:57:19Z</time>
      </trkpt>
      <trkpt lat="45.72571" lon="6.78247">
        <ele>2332</ele>
        <time>2019-10-06T09:57:21Z</time>
      </trkpt>
      <trkpt lat="45.72573" lon="6.78249">
        <ele>2332</ele>
        <time>2019-10-06T09:57:22Z</time>
      </trkpt>
      <trkpt lat="45.72576" lon="6.78251">
        <ele>2332</ele>
        <time>2019-10-06T09:57:25Z</time>
      </trkpt>
      <trkpt lat="45.72576" lon="6.78251">
        <ele>2332</ele>
        <time>2019-10-06T09:57:27Z</time>
      </trkpt>
      <trkpt lat="45.72578" lon="6.78253">
        <ele>2332</ele>
        <time>2019-10-06T09:57:28Z</time>
      </trkpt>
      <trkpt lat="45.7258" lon="6.78255">
        <ele>2334</ele>
        <time>2019-10-06T09:57:31Z</time>
      </trkpt>
      <trkpt lat="45.7258" lon="6.78255">
        <ele>2334</ele>
        <time>2019-10-06T09:57:33Z</time>
      </trkpt>
      <trkpt lat="45.72582" lon="6.78256">
        <ele>2334</ele>
        <time>2019-10-06T09:57:34Z</time>
      </trkpt>
      <trkpt lat="45.72584" lon="6.78257">
        <ele>2334</ele>
        <time>2019-10-06T09:57:37Z</time>
      </trkpt>
      <trkpt lat="45.72584" lon="6.78257">
        <ele>2335</ele>
        <time>2019-10-06T09:57:39Z</time>
      </trkpt>
      <trkpt lat="45.72586" lon="6.78258">
        <ele>2335</ele>
        <time>2019-10-06T09:57:40Z</time>
      </trkpt>
      <trkpt lat="45.72587" lon="6.7826">
        <ele>2336</ele>
        <time>2019-10-06T09:57:43Z</time>
      </trkpt>
      <trkpt lat="45.72587" lon="6.7826">
        <ele>2337</ele>
        <time>2019-10-06T09:57:45Z</time>
      </trkpt>
      <trkpt lat="45.72589" lon="6.78262">
        <ele>2337</ele>
        <time>2019-10-06T09:57:46Z</time>
      </trkpt>
      <trkpt lat="45.7259" lon="6.78264">
        <ele>2337</ele>
        <time>2019-10-06T09:57:50Z</time>
      </trkpt>
      <trkpt lat="45.7259" lon="6.78264">
        <ele>2337</ele>
        <time>2019-10-06T09:57:51Z</time>
      </trkpt>
      <trkpt lat="45.72588" lon="6.78267">
        <ele>2338</ele>
        <time>2019-10-06T09:57:54Z</time>
      </trkpt>
      <trkpt lat="45.72588" lon="6.78267">
        <ele>2338</ele>
        <time>2019-10-06T09:57:56Z</time>
      </trkpt>
      <trkpt lat="45.72587" lon="6.78269">
        <ele>2339</ele>
        <time>2019-10-06T09:57:58Z</time>
      </trkpt>
      <trkpt lat="45.72587" lon="6.78269">
        <ele>2339</ele>
        <time>2019-10-06T09:58:01Z</time>
      </trkpt>
      <trkpt lat="45.72585" lon="6.78271">
        <ele>2340</ele>
        <time>2019-10-06T09:58:02Z</time>
      </trkpt>
      <trkpt lat="45.72583" lon="6.78272">
        <ele>2340</ele>
        <time>2019-10-06T09:58:05Z</time>
      </trkpt>
      <trkpt lat="45.72583" lon="6.78272">
        <ele>2341</ele>
        <time>2019-10-06T09:58:07Z</time>
      </trkpt>
      <trkpt lat="45.72581" lon="6.78274">
        <ele>2341</ele>
        <time>2019-10-06T09:58:08Z</time>
      </trkpt>
      <trkpt lat="45.7258" lon="6.78276">
        <ele>2341</ele>
        <time>2019-10-06T09:58:10Z</time>
      </trkpt>
      <trkpt lat="45.72578" lon="6.78278">
        <ele>2342</ele>
        <time>2019-10-06T09:58:13Z</time>
      </trkpt>
      <trkpt lat="45.72578" lon="6.78278">
        <ele>2342</ele>
        <time>2019-10-06T09:58:14Z</time>
      </trkpt>
      <trkpt lat="45.72576" lon="6.7828">
        <ele>2342</ele>
        <time>2019-10-06T09:58:16Z</time>
      </trkpt>
      <trkpt lat="45.72574" lon="6.78281">
        <ele>2343</ele>
        <time>2019-10-06T09:58:19Z</time>
      </trkpt>
      <trkpt lat="45.72574" lon="6.78281">
        <ele>2343</ele>
        <time>2019-10-06T09:58:20Z</time>
      </trkpt>
      <trkpt lat="45.72573" lon="6.78283">
        <ele>2344</ele>
        <time>2019-10-06T09:58:23Z</time>
      </trkpt>
      <trkpt lat="45.72573" lon="6.78283">
        <ele>2344</ele>
        <time>2019-10-06T09:58:25Z</time>
      </trkpt>
      <trkpt lat="45.72571" lon="6.78285">
        <ele>2345</ele>
        <time>2019-10-06T09:58:26Z</time>
      </trkpt>
      <trkpt lat="45.72569" lon="6.78287">
        <ele>2345</ele>
        <time>2019-10-06T09:58:29Z</time>
      </trkpt>
      <trkpt lat="45.72569" lon="6.78287">
        <ele>2345</ele>
        <time>2019-10-06T09:58:31Z</time>
      </trkpt>
      <trkpt lat="45.72567" lon="6.78288">
        <ele>2346</ele>
        <time>2019-10-06T09:58:33Z</time>
      </trkpt>
      <trkpt lat="45.72567" lon="6.78288">
        <ele>2347</ele>
        <time>2019-10-06T09:58:36Z</time>
      </trkpt>
      <trkpt lat="45.72565" lon="6.78289">
        <ele>2348</ele>
        <time>2019-10-06T09:58:39Z</time>
      </trkpt>
      <trkpt lat="45.72565" lon="6.78289">
        <ele>2348</ele>
        <time>2019-10-06T09:58:41Z</time>
      </trkpt>
      <trkpt lat="45.72563" lon="6.78291">
        <ele>2349</ele>
        <time>2019-10-06T09:58:42Z</time>
      </trkpt>
      <trkpt lat="45.72561" lon="6.78291">
        <ele>2349</ele>
        <time>2019-10-06T09:58:45Z</time>
      </trkpt>
      <trkpt lat="45.72561" lon="6.78291">
        <ele>2349</ele>
        <time>2019-10-06T09:58:47Z</time>
      </trkpt>
      <trkpt lat="45.72558" lon="6.78292">
        <ele>2350</ele>
        <time>2019-10-06T09:58:48Z</time>
      </trkpt>
      <trkpt lat="45.72557" lon="6.78294">
        <ele>2352</ele>
        <time>2019-10-06T09:58:51Z</time>
      </trkpt>
      <trkpt lat="45.72557" lon="6.78294">
        <ele>2352</ele>
        <time>2019-10-06T09:58:53Z</time>
      </trkpt>
      <trkpt lat="45.72555" lon="6.78295">
        <ele>2352</ele>
        <time>2019-10-06T09:58:54Z</time>
      </trkpt>
      <trkpt lat="45.72553" lon="6.78297">
        <ele>2353</ele>
        <time>2019-10-06T09:58:57Z</time>
      </trkpt>
      <trkpt lat="45.72553" lon="6.78297">
        <ele>2353</ele>
        <time>2019-10-06T09:58:59Z</time>
      </trkpt>
      <trkpt lat="45.72551" lon="6.78298">
        <ele>2353</ele>
        <time>2019-10-06T09:59:00Z</time>
      </trkpt>
      <trkpt lat="45.72549" lon="6.78299">
        <ele>2354</ele>
        <time>2019-10-06T09:59:03Z</time>
      </trkpt>
      <trkpt lat="45.72549" lon="6.78299">
        <ele>2355</ele>
        <time>2019-10-06T09:59:05Z</time>
      </trkpt>
      <trkpt lat="45.72548" lon="6.78301">
        <ele>2355</ele>
        <time>2019-10-06T09:59:06Z</time>
      </trkpt>
      <trkpt lat="45.72546" lon="6.78303">
        <ele>2355</ele>
        <time>2019-10-06T09:59:09Z</time>
      </trkpt>
      <trkpt lat="45.72546" lon="6.78303">
        <ele>2355</ele>
        <time>2019-10-06T09:59:11Z</time>
      </trkpt>
      <trkpt lat="45.72544" lon="6.78305">
        <ele>2356</ele>
        <time>2019-10-06T09:59:13Z</time>
      </trkpt>
      <trkpt lat="45.72544" lon="6.78305">
        <ele>2356</ele>
        <time>2019-10-06T09:59:16Z</time>
      </trkpt>
      <trkpt lat="45.72543" lon="6.78308">
        <ele>2356</ele>
        <time>2019-10-06T09:59:17Z</time>
      </trkpt>
      <trkpt lat="45.72541" lon="6.7831">
        <ele>2357</ele>
        <time>2019-10-06T09:59:20Z</time>
      </trkpt>
      <trkpt lat="45.72541" lon="6.7831">
        <ele>2357</ele>
        <time>2019-10-06T09:59:22Z</time>
      </trkpt>
      <trkpt lat="45.7254" lon="6.78312">
        <ele>2358</ele>
        <time>2019-10-06T09:59:26Z</time>
      </trkpt>
      <trkpt lat="45.7254" lon="6.78312">
        <ele>2359</ele>
        <time>2019-10-06T09:59:27Z</time>
      </trkpt>
      <trkpt lat="45.72538" lon="6.78314">
        <ele>2359</ele>
        <time>2019-10-06T09:59:29Z</time>
      </trkpt>
      <trkpt lat="45.72536" lon="6.78315">
        <ele>2359</ele>
        <time>2019-10-06T09:59:31Z</time>
      </trkpt>
      <trkpt lat="45.72534" lon="6.78316">
        <ele>2359</ele>
        <time>2019-10-06T09:59:33Z</time>
      </trkpt>
      <trkpt lat="45.72533" lon="6.78317">
        <ele>2359</ele>
        <time>2019-10-06T09:59:35Z</time>
      </trkpt>
      <trkpt lat="45.72533" lon="6.78317">
        <ele>2359</ele>
        <time>2019-10-06T09:59:37Z</time>
      </trkpt>
      <trkpt lat="45.72531" lon="6.78319">
        <ele>2360</ele>
        <time>2019-10-06T09:59:38Z</time>
      </trkpt>
      <trkpt lat="45.72528" lon="6.78319">
        <ele>2360</ele>
        <time>2019-10-06T09:59:41Z</time>
      </trkpt>
      <trkpt lat="45.72528" lon="6.78319">
        <ele>2361</ele>
        <time>2019-10-06T09:59:43Z</time>
      </trkpt>
      <trkpt lat="45.72527" lon="6.7832">
        <ele>2362</ele>
        <time>2019-10-06T09:59:46Z</time>
      </trkpt>
      <trkpt lat="45.72527" lon="6.7832">
        <ele>2362</ele>
        <time>2019-10-06T09:59:48Z</time>
      </trkpt>
      <trkpt lat="45.72525" lon="6.78321">
        <ele>2362</ele>
        <time>2019-10-06T09:59:50Z</time>
      </trkpt>
      <trkpt lat="45.72525" lon="6.78321">
        <ele>2364</ele>
        <time>2019-10-06T09:59:53Z</time>
      </trkpt>
      <trkpt lat="45.72523" lon="6.78322">
        <ele>2364</ele>
        <time>2019-10-06T09:59:55Z</time>
      </trkpt>
      <trkpt lat="45.72523" lon="6.78322">
        <ele>2365</ele>
        <time>2019-10-06T09:59:58Z</time>
      </trkpt>
      <trkpt lat="45.72521" lon="6.78323">
        <ele>2365</ele>
        <time>2019-10-06T09:59:59Z</time>
      </trkpt>
      <trkpt lat="45.72519" lon="6.78324">
        <ele>2365</ele>
        <time>2019-10-06T10:00:02Z</time>
      </trkpt>
      <trkpt lat="45.72519" lon="6.78324">
        <ele>2365</ele>
        <time>2019-10-06T10:00:04Z</time>
      </trkpt>
      <trkpt lat="45.72517" lon="6.78324">
        <ele>2365</ele>
        <time>2019-10-06T10:00:05Z</time>
      </trkpt>
      <trkpt lat="45.72515" lon="6.78326">
        <ele>2366</ele>
        <time>2019-10-06T10:00:08Z</time>
      </trkpt>
      <trkpt lat="45.72515" lon="6.78326">
        <ele>2366</ele>
        <time>2019-10-06T10:00:10Z</time>
      </trkpt>
      <trkpt lat="45.72513" lon="6.78327">
        <ele>2366</ele>
        <time>2019-10-06T10:00:11Z</time>
      </trkpt>
      <trkpt lat="45.72512" lon="6.78328">
        <ele>2367</ele>
        <time>2019-10-06T10:00:14Z</time>
      </trkpt>
      <trkpt lat="45.72512" lon="6.78328">
        <ele>2367</ele>
        <time>2019-10-06T10:00:16Z</time>
      </trkpt>
      <trkpt lat="45.7251" lon="6.7833">
        <ele>2367</ele>
        <time>2019-10-06T10:00:17Z</time>
      </trkpt>
      <trkpt lat="45.72508" lon="6.78332">
        <ele>2368</ele>
        <time>2019-10-06T10:00:20Z</time>
      </trkpt>
      <trkpt lat="45.72508" lon="6.78332">
        <ele>2368</ele>
        <time>2019-10-06T10:00:22Z</time>
      </trkpt>
      <trkpt lat="45.72508" lon="6.78335">
        <ele>2369</ele>
        <time>2019-10-06T10:00:26Z</time>
      </trkpt>
      <trkpt lat="45.72508" lon="6.78335">
        <ele>2369</ele>
        <time>2019-10-06T10:00:27Z</time>
      </trkpt>
      <trkpt lat="45.7251" lon="6.78336">
        <ele>2369</ele>
        <time>2019-10-06T10:00:29Z</time>
      </trkpt>
      <trkpt lat="45.7251" lon="6.78336">
        <ele>2370</ele>
        <time>2019-10-06T10:00:32Z</time>
      </trkpt>
      <trkpt lat="45.72512" lon="6.78338">
        <ele>2370</ele>
        <time>2019-10-06T10:00:34Z</time>
      </trkpt>
      <trkpt lat="45.72512" lon="6.78338">
        <ele>2371</ele>
        <time>2019-10-06T10:00:37Z</time>
      </trkpt>
      <trkpt lat="45.72514" lon="6.7834">
        <ele>2371</ele>
        <time>2019-10-06T10:00:38Z</time>
      </trkpt>
      <trkpt lat="45.72515" lon="6.78341">
        <ele>2372</ele>
        <time>2019-10-06T10:00:41Z</time>
      </trkpt>
      <trkpt lat="45.72515" lon="6.78341">
        <ele>2372</ele>
        <time>2019-10-06T10:00:43Z</time>
      </trkpt>
      <trkpt lat="45.72517" lon="6.78343">
        <ele>2373</ele>
        <time>2019-10-06T10:00:45Z</time>
      </trkpt>
      <trkpt lat="45.72518" lon="6.78344">
        <ele>2374</ele>
        <time>2019-10-06T10:00:48Z</time>
      </trkpt>
      <trkpt lat="45.72518" lon="6.78344">
        <ele>2374</ele>
        <time>2019-10-06T10:00:49Z</time>
      </trkpt>
      <trkpt lat="45.7252" lon="6.78346">
        <ele>2374</ele>
        <time>2019-10-06T10:00:52Z</time>
      </trkpt>
      <trkpt lat="45.7252" lon="6.78346">
        <ele>2374</ele>
        <time>2019-10-06T10:00:54Z</time>
      </trkpt>
      <trkpt lat="45.72522" lon="6.78348">
        <ele>2374</ele>
        <time>2019-10-06T10:00:55Z</time>
      </trkpt>
      <trkpt lat="45.72524" lon="6.78349">
        <ele>2375</ele>
        <time>2019-10-06T10:00:58Z</time>
      </trkpt>
      <trkpt lat="45.72524" lon="6.78349">
        <ele>2375</ele>
        <time>2019-10-06T10:01:00Z</time>
      </trkpt>
      <trkpt lat="45.72526" lon="6.7835">
        <ele>2375</ele>
        <time>2019-10-06T10:01:01Z</time>
      </trkpt>
      <trkpt lat="45.72528" lon="6.78351">
        <ele>2376</ele>
        <time>2019-10-06T10:01:04Z</time>
      </trkpt>
      <trkpt lat="45.72528" lon="6.78351">
        <ele>2376</ele>
        <time>2019-10-06T10:01:06Z</time>
      </trkpt>
      <trkpt lat="45.7253" lon="6.78351">
        <ele>2378</ele>
        <time>2019-10-06T10:01:07Z</time>
      </trkpt>
      <trkpt lat="45.72531" lon="6.78352">
        <ele>2378</ele>
        <time>2019-10-06T10:01:10Z</time>
      </trkpt>
      <trkpt lat="45.72531" lon="6.78352">
        <ele>2379</ele>
        <time>2019-10-06T10:01:12Z</time>
      </trkpt>
      <trkpt lat="45.72533" lon="6.78354">
        <ele>2379</ele>
        <time>2019-10-06T10:01:14Z</time>
      </trkpt>
      <trkpt lat="45.72535" lon="6.78355">
        <ele>2379</ele>
        <time>2019-10-06T10:01:17Z</time>
      </trkpt>
      <trkpt lat="45.72535" lon="6.78355">
        <ele>2380</ele>
        <time>2019-10-06T10:01:18Z</time>
      </trkpt>
      <trkpt lat="45.72536" lon="6.78358">
        <ele>2380</ele>
        <time>2019-10-06T10:01:21Z</time>
      </trkpt>
      <trkpt lat="45.72536" lon="6.78358">
        <ele>2380</ele>
        <time>2019-10-06T10:01:23Z</time>
      </trkpt>
      <trkpt lat="45.72537" lon="6.78361">
        <ele>2380</ele>
        <time>2019-10-06T10:01:25Z</time>
      </trkpt>
      <trkpt lat="45.72537" lon="6.78361">
        <ele>2382</ele>
        <time>2019-10-06T10:01:28Z</time>
      </trkpt>
      <trkpt lat="45.72538" lon="6.78363">
        <ele>2382</ele>
        <time>2019-10-06T10:01:29Z</time>
      </trkpt>
      <trkpt lat="45.72538" lon="6.78366">
        <ele>2383</ele>
        <time>2019-10-06T10:01:33Z</time>
      </trkpt>
      <trkpt lat="45.72538" lon="6.78366">
        <ele>2383</ele>
        <time>2019-10-06T10:01:34Z</time>
      </trkpt>
      <trkpt lat="45.72538" lon="6.78366">
        <ele>2384</ele>
        <time>2019-10-06T10:01:38Z</time>
      </trkpt>
      <trkpt lat="45.72537" lon="6.78368">
        <ele>2384</ele>
        <time>2019-10-06T10:01:39Z</time>
      </trkpt>
      <trkpt lat="45.72537" lon="6.78368">
        <ele>2385</ele>
        <time>2019-10-06T10:01:43Z</time>
      </trkpt>
      <trkpt lat="45.72534" lon="6.78369">
        <ele>2386</ele>
        <time>2019-10-06T10:01:47Z</time>
      </trkpt>
      <trkpt lat="45.72534" lon="6.78369">
        <ele>2386</ele>
        <time>2019-10-06T10:01:48Z</time>
      </trkpt>
      <trkpt lat="45.72533" lon="6.78371">
        <ele>2387</ele>
        <time>2019-10-06T10:01:52Z</time>
      </trkpt>
      <trkpt lat="45.72533" lon="6.78371">
        <ele>2387</ele>
        <time>2019-10-06T10:01:53Z</time>
      </trkpt>
      <trkpt lat="45.72531" lon="6.78372">
        <ele>2388</ele>
        <time>2019-10-06T10:01:56Z</time>
      </trkpt>
      <trkpt lat="45.72531" lon="6.78372">
        <ele>2388</ele>
        <time>2019-10-06T10:01:58Z</time>
      </trkpt>
      <trkpt lat="45.72529" lon="6.78373">
        <ele>2389</ele>
        <time>2019-10-06T10:02:00Z</time>
      </trkpt>
      <trkpt lat="45.72527" lon="6.78375">
        <ele>2389</ele>
        <time>2019-10-06T10:02:03Z</time>
      </trkpt>
      <trkpt lat="45.72527" lon="6.78375">
        <ele>2389</ele>
        <time>2019-10-06T10:02:04Z</time>
      </trkpt>
      <trkpt lat="45.72525" lon="6.78377">
        <ele>2389</ele>
        <time>2019-10-06T10:02:07Z</time>
      </trkpt>
      <trkpt lat="45.72525" lon="6.78377">
        <ele>2390</ele>
        <time>2019-10-06T10:02:09Z</time>
      </trkpt>
      <trkpt lat="45.72524" lon="6.7838">
        <ele>2390</ele>
        <time>2019-10-06T10:02:13Z</time>
      </trkpt>
      <trkpt lat="45.72524" lon="6.7838">
        <ele>2391</ele>
        <time>2019-10-06T10:02:14Z</time>
      </trkpt>
      <trkpt lat="45.72522" lon="6.78382">
        <ele>2391</ele>
        <time>2019-10-06T10:02:16Z</time>
      </trkpt>
      <trkpt lat="45.7252" lon="6.78384">
        <ele>2392</ele>
        <time>2019-10-06T10:02:19Z</time>
      </trkpt>
      <trkpt lat="45.7252" lon="6.78384">
        <ele>2392</ele>
        <time>2019-10-06T10:02:20Z</time>
      </trkpt>
      <trkpt lat="45.72518" lon="6.78385">
        <ele>2392</ele>
        <time>2019-10-06T10:02:22Z</time>
      </trkpt>
      <trkpt lat="45.72516" lon="6.78387">
        <ele>2393</ele>
        <time>2019-10-06T10:02:25Z</time>
      </trkpt>
      <trkpt lat="45.72516" lon="6.78387">
        <ele>2393</ele>
        <time>2019-10-06T10:02:26Z</time>
      </trkpt>
      <trkpt lat="45.72515" lon="6.78388">
        <ele>2393</ele>
        <time>2019-10-06T10:02:28Z</time>
      </trkpt>
      <trkpt lat="45.72513" lon="6.7839">
        <ele>2393</ele>
        <time>2019-10-06T10:02:31Z</time>
      </trkpt>
      <trkpt lat="45.72513" lon="6.7839">
        <ele>2393</ele>
        <time>2019-10-06T10:02:32Z</time>
      </trkpt>
      <trkpt lat="45.72512" lon="6.78392">
        <ele>2394</ele>
        <time>2019-10-06T10:02:34Z</time>
      </trkpt>
      <trkpt lat="45.7251" lon="6.78394">
        <ele>2395</ele>
        <time>2019-10-06T10:02:37Z</time>
      </trkpt>
      <trkpt lat="45.7251" lon="6.78394">
        <ele>2395</ele>
        <time>2019-10-06T10:02:38Z</time>
      </trkpt>
      <trkpt lat="45.72508" lon="6.78395">
        <ele>2395</ele>
        <time>2019-10-06T10:02:41Z</time>
      </trkpt>
      <trkpt lat="45.72508" lon="6.78395">
        <ele>2395</ele>
        <time>2019-10-06T10:02:43Z</time>
      </trkpt>
      <trkpt lat="45.72507" lon="6.78398">
        <ele>2395</ele>
        <time>2019-10-06T10:02:44Z</time>
      </trkpt>
      <trkpt lat="45.72505" lon="6.784">
        <ele>2396</ele>
        <time>2019-10-06T10:02:48Z</time>
      </trkpt>
      <trkpt lat="45.72505" lon="6.784">
        <ele>2396</ele>
        <time>2019-10-06T10:02:49Z</time>
      </trkpt>
      <trkpt lat="45.72504" lon="6.78401">
        <ele>2396</ele>
        <time>2019-10-06T10:02:51Z</time>
      </trkpt>
      <trkpt lat="45.72503" lon="6.78403">
        <ele>2398</ele>
        <time>2019-10-06T10:02:54Z</time>
      </trkpt>
      <trkpt lat="45.72503" lon="6.78403">
        <ele>2398</ele>
        <time>2019-10-06T10:02:55Z</time>
      </trkpt>
      <trkpt lat="45.72501" lon="6.78406">
        <ele>2398</ele>
        <time>2019-10-06T10:02:58Z</time>
      </trkpt>
      <trkpt lat="45.72501" lon="6.78406">
        <ele>2399</ele>
        <time>2019-10-06T10:03:00Z</time>
      </trkpt>
      <trkpt lat="45.72499" lon="6.78408">
        <ele>2399</ele>
        <time>2019-10-06T10:03:01Z</time>
      </trkpt>
      <trkpt lat="45.72498" lon="6.78411">
        <ele>2399</ele>
        <time>2019-10-06T10:03:04Z</time>
      </trkpt>
      <trkpt lat="45.72497" lon="6.78414">
        <ele>2400</ele>
        <time>2019-10-06T10:03:06Z</time>
      </trkpt>
      <trkpt lat="45.72496" lon="6.78417">
        <ele>2400</ele>
        <time>2019-10-06T10:03:08Z</time>
      </trkpt>
      <trkpt lat="45.72495" lon="6.7842">
        <ele>2400</ele>
        <time>2019-10-06T10:03:10Z</time>
      </trkpt>
      <trkpt lat="45.72495" lon="6.78423">
        <ele>2400</ele>
        <time>2019-10-06T10:03:12Z</time>
      </trkpt>
      <trkpt lat="45.72494" lon="6.78426">
        <ele>2400</ele>
        <time>2019-10-06T10:03:14Z</time>
      </trkpt>
      <trkpt lat="45.72493" lon="6.78429">
        <ele>2400</ele>
        <time>2019-10-06T10:03:17Z</time>
      </trkpt>
      <trkpt lat="45.72493" lon="6.78429">
        <ele>2400</ele>
        <time>2019-10-06T10:03:18Z</time>
      </trkpt>
      <trkpt lat="45.72491" lon="6.7843">
        <ele>2399</ele>
        <time>2019-10-06T10:03:20Z</time>
      </trkpt>
      <trkpt lat="45.72489" lon="6.78429">
        <ele>2399</ele>
        <time>2019-10-06T10:03:23Z</time>
      </trkpt>
      <trkpt lat="45.72489" lon="6.78429">
        <ele>2399</ele>
        <time>2019-10-06T10:03:24Z</time>
      </trkpt>
      <trkpt lat="45.72487" lon="6.78428">
        <ele>2399</ele>
        <time>2019-10-06T10:03:25Z</time>
      </trkpt>
      <trkpt lat="45.72485" lon="6.78427">
        <ele>2399</ele>
        <time>2019-10-06T10:03:27Z</time>
      </trkpt>
      <trkpt lat="45.72483" lon="6.78427">
        <ele>2399</ele>
        <time>2019-10-06T10:03:29Z</time>
      </trkpt>
      <trkpt lat="45.72483" lon="6.78427">
        <ele>2400</ele>
        <time>2019-10-06T10:03:31Z</time>
      </trkpt>
      <trkpt lat="45.7248" lon="6.78426">
        <ele>2399</ele>
        <time>2019-10-06T10:03:32Z</time>
      </trkpt>
      <trkpt lat="45.72478" lon="6.78426">
        <ele>2400</ele>
        <time>2019-10-06T10:03:35Z</time>
      </trkpt>
      <trkpt lat="45.72478" lon="6.78426">
        <ele>2400</ele>
        <time>2019-10-06T10:03:37Z</time>
      </trkpt>
      <trkpt lat="45.72476" lon="6.78426">
        <ele>2400</ele>
        <time>2019-10-06T10:03:38Z</time>
      </trkpt>
      <trkpt lat="45.72474" lon="6.78426">
        <ele>2401</ele>
        <time>2019-10-06T10:03:41Z</time>
      </trkpt>
      <trkpt lat="45.72471" lon="6.78426">
        <ele>2401</ele>
        <time>2019-10-06T10:03:43Z</time>
      </trkpt>
      <trkpt lat="45.72469" lon="6.78426">
        <ele>2402</ele>
        <time>2019-10-06T10:03:46Z</time>
      </trkpt>
      <trkpt lat="45.72469" lon="6.78426">
        <ele>2402</ele>
        <time>2019-10-06T10:03:47Z</time>
      </trkpt>
      <trkpt lat="45.72467" lon="6.78427">
        <ele>2402</ele>
        <time>2019-10-06T10:03:48Z</time>
      </trkpt>
      <trkpt lat="45.72465" lon="6.78429">
        <ele>2402</ele>
        <time>2019-10-06T10:03:50Z</time>
      </trkpt>
      <trkpt lat="45.72464" lon="6.78431">
        <ele>2404</ele>
        <time>2019-10-06T10:03:52Z</time>
      </trkpt>
      <trkpt lat="45.72464" lon="6.78431">
        <ele>2404</ele>
        <time>2019-10-06T10:03:54Z</time>
      </trkpt>
      <trkpt lat="45.72462" lon="6.78433">
        <ele>2404</ele>
        <time>2019-10-06T10:03:55Z</time>
      </trkpt>
      <trkpt lat="45.7246" lon="6.78434">
        <ele>2404</ele>
        <time>2019-10-06T10:03:57Z</time>
      </trkpt>
      <trkpt lat="45.72458" lon="6.78434">
        <ele>2404</ele>
        <time>2019-10-06T10:03:59Z</time>
      </trkpt>
      <trkpt lat="45.72457" lon="6.78435">
        <ele>2404</ele>
        <time>2019-10-06T10:04:01Z</time>
      </trkpt>
      <trkpt lat="45.72455" lon="6.78436">
        <ele>2404</ele>
        <time>2019-10-06T10:04:03Z</time>
      </trkpt>
      <trkpt lat="45.72455" lon="6.78436">
        <ele>2404</ele>
        <time>2019-10-06T10:04:05Z</time>
      </trkpt>
      <trkpt lat="45.72452" lon="6.78436">
        <ele>2405</ele>
        <time>2019-10-06T10:04:06Z</time>
      </trkpt>
      <trkpt lat="45.72449" lon="6.78437">
        <ele>2406</ele>
        <time>2019-10-06T10:04:09Z</time>
      </trkpt>
      <trkpt lat="45.72447" lon="6.78436">
        <ele>2406</ele>
        <time>2019-10-06T10:04:11Z</time>
      </trkpt>
      <trkpt lat="45.72445" lon="6.78435">
        <ele>2406</ele>
        <time>2019-10-06T10:04:13Z</time>
      </trkpt>
      <trkpt lat="45.72443" lon="6.78435">
        <ele>2407</ele>
        <time>2019-10-06T10:04:15Z</time>
      </trkpt>
      <trkpt lat="45.72441" lon="6.78434">
        <ele>2407</ele>
        <time>2019-10-06T10:04:17Z</time>
      </trkpt>
      <trkpt lat="45.72439" lon="6.78435">
        <ele>2407</ele>
        <time>2019-10-06T10:04:19Z</time>
      </trkpt>
      <trkpt lat="45.72437" lon="6.78437">
        <ele>2407</ele>
        <time>2019-10-06T10:04:21Z</time>
      </trkpt>
      <trkpt lat="45.72435" lon="6.78438">
        <ele>2406</ele>
        <time>2019-10-06T10:04:23Z</time>
      </trkpt>
      <trkpt lat="45.72432" lon="6.7844">
        <ele>2406</ele>
        <time>2019-10-06T10:04:25Z</time>
      </trkpt>
      <trkpt lat="45.7243" lon="6.78441">
        <ele>2406</ele>
        <time>2019-10-06T10:04:27Z</time>
      </trkpt>
      <trkpt lat="45.72428" lon="6.78444">
        <ele>2406</ele>
        <time>2019-10-06T10:04:29Z</time>
      </trkpt>
      <trkpt lat="45.72426" lon="6.78446">
        <ele>2405</ele>
        <time>2019-10-06T10:04:31Z</time>
      </trkpt>
      <trkpt lat="45.72424" lon="6.78448">
        <ele>2405</ele>
        <time>2019-10-06T10:04:33Z</time>
      </trkpt>
      <trkpt lat="45.72421" lon="6.78449">
        <ele>2405</ele>
        <time>2019-10-06T10:04:35Z</time>
      </trkpt>
      <trkpt lat="45.72419" lon="6.78449">
        <ele>2405</ele>
        <time>2019-10-06T10:04:37Z</time>
      </trkpt>
      <trkpt lat="45.72416" lon="6.78451">
        <ele>2405</ele>
        <time>2019-10-06T10:04:39Z</time>
      </trkpt>
      <trkpt lat="45.72415" lon="6.78452">
        <ele>2405</ele>
        <time>2019-10-06T10:04:41Z</time>
      </trkpt>
      <trkpt lat="45.72412" lon="6.78453">
        <ele>2405</ele>
        <time>2019-10-06T10:04:43Z</time>
      </trkpt>
      <trkpt lat="45.7241" lon="6.7845">
        <ele>2405</ele>
        <time>2019-10-06T10:04:45Z</time>
      </trkpt>
      <trkpt lat="45.72409" lon="6.78448">
        <ele>2405</ele>
        <time>2019-10-06T10:04:47Z</time>
      </trkpt>
      <trkpt lat="45.72407" lon="6.78446">
        <ele>2405</ele>
        <time>2019-10-06T10:04:50Z</time>
      </trkpt>
      <trkpt lat="45.72407" lon="6.78446">
        <ele>2405</ele>
        <time>2019-10-06T10:04:51Z</time>
      </trkpt>
      <trkpt lat="45.72405" lon="6.78444">
        <ele>2405</ele>
        <time>2019-10-06T10:04:52Z</time>
      </trkpt>
      <trkpt lat="45.72403" lon="6.78443">
        <ele>2405</ele>
        <time>2019-10-06T10:04:54Z</time>
      </trkpt>
      <trkpt lat="45.72401" lon="6.78442">
        <ele>2406</ele>
        <time>2019-10-06T10:04:56Z</time>
      </trkpt>
      <trkpt lat="45.72399" lon="6.78442">
        <ele>2406</ele>
        <time>2019-10-06T10:04:58Z</time>
      </trkpt>
      <trkpt lat="45.72396" lon="6.78441">
        <ele>2406</ele>
        <time>2019-10-06T10:05:00Z</time>
      </trkpt>
      <trkpt lat="45.72394" lon="6.78441">
        <ele>2406</ele>
        <time>2019-10-06T10:05:02Z</time>
      </trkpt>
      <trkpt lat="45.72393" lon="6.78441">
        <ele>2406</ele>
        <time>2019-10-06T10:05:04Z</time>
      </trkpt>
      <trkpt lat="45.72393" lon="6.78441">
        <ele>2406</ele>
        <time>2019-10-06T10:05:06Z</time>
      </trkpt>
      <trkpt lat="45.7239" lon="6.78441">
        <ele>2406</ele>
        <time>2019-10-06T10:05:07Z</time>
      </trkpt>
      <trkpt lat="45.72388" lon="6.7844">
        <ele>2406</ele>
        <time>2019-10-06T10:05:11Z</time>
      </trkpt>
      <trkpt lat="45.72388" lon="6.7844">
        <ele>2406</ele>
        <time>2019-10-06T10:05:12Z</time>
      </trkpt>
      <trkpt lat="45.72386" lon="6.78439">
        <ele>2406</ele>
        <time>2019-10-06T10:05:14Z</time>
      </trkpt>
      <trkpt lat="45.72384" lon="6.78438">
        <ele>2406</ele>
        <time>2019-10-06T10:05:17Z</time>
      </trkpt>
      <trkpt lat="45.72384" lon="6.78438">
        <ele>2406</ele>
        <time>2019-10-06T10:05:18Z</time>
      </trkpt>
      <trkpt lat="45.72381" lon="6.78439">
        <ele>2406</ele>
        <time>2019-10-06T10:05:21Z</time>
      </trkpt>
      <trkpt lat="45.72381" lon="6.78439">
        <ele>2406</ele>
        <time>2019-10-06T10:05:23Z</time>
      </trkpt>
      <trkpt lat="45.72379" lon="6.78437">
        <ele>2407</ele>
        <time>2019-10-06T10:05:24Z</time>
      </trkpt>
      <trkpt lat="45.72378" lon="6.78434">
        <ele>2407</ele>
        <time>2019-10-06T10:05:26Z</time>
      </trkpt>
      <trkpt lat="45.72378" lon="6.78431">
        <ele>2407</ele>
        <time>2019-10-06T10:05:28Z</time>
      </trkpt>
      <trkpt lat="45.72378" lon="6.78428">
        <ele>2407</ele>
        <time>2019-10-06T10:05:30Z</time>
      </trkpt>
      <trkpt lat="45.72378" lon="6.78425">
        <ele>2407</ele>
        <time>2019-10-06T10:05:32Z</time>
      </trkpt>
      <trkpt lat="45.72378" lon="6.78425">
        <ele>2407</ele>
        <time>2019-10-06T10:05:34Z</time>
      </trkpt>
      <trkpt lat="45.72378" lon="6.78423">
        <ele>2408</ele>
        <time>2019-10-06T10:05:36Z</time>
      </trkpt>
      <trkpt lat="45.72378" lon="6.78423">
        <ele>2409</ele>
        <time>2019-10-06T10:05:39Z</time>
      </trkpt>
      <trkpt lat="45.72376" lon="6.7842">
        <ele>2409</ele>
        <time>2019-10-06T10:05:41Z</time>
      </trkpt>
      <trkpt lat="45.72376" lon="6.7842">
        <ele>2410</ele>
        <time>2019-10-06T10:05:44Z</time>
      </trkpt>
      <trkpt lat="45.72375" lon="6.78417">
        <ele>2410</ele>
        <time>2019-10-06T10:05:45Z</time>
      </trkpt>
      <trkpt lat="45.72374" lon="6.78415">
        <ele>2411</ele>
        <time>2019-10-06T10:05:49Z</time>
      </trkpt>
      <trkpt lat="45.72374" lon="6.78415">
        <ele>2411</ele>
        <time>2019-10-06T10:05:50Z</time>
      </trkpt>
      <trkpt lat="45.72373" lon="6.78412">
        <ele>2412</ele>
        <time>2019-10-06T10:05:53Z</time>
      </trkpt>
      <trkpt lat="45.72373" lon="6.78412">
        <ele>2412</ele>
        <time>2019-10-06T10:05:55Z</time>
      </trkpt>
      <trkpt lat="45.72373" lon="6.78409">
        <ele>2412</ele>
        <time>2019-10-06T10:05:56Z</time>
      </trkpt>
      <trkpt lat="45.72372" lon="6.78406">
        <ele>2412</ele>
        <time>2019-10-06T10:05:59Z</time>
      </trkpt>
      <trkpt lat="45.72372" lon="6.78406">
        <ele>2412</ele>
        <time>2019-10-06T10:06:01Z</time>
      </trkpt>
      <trkpt lat="45.72371" lon="6.78404">
        <ele>2413</ele>
        <time>2019-10-06T10:06:02Z</time>
      </trkpt>
      <trkpt lat="45.7237" lon="6.78402">
        <ele>2414</ele>
        <time>2019-10-06T10:06:05Z</time>
      </trkpt>
      <trkpt lat="45.7237" lon="6.78402">
        <ele>2414</ele>
        <time>2019-10-06T10:06:07Z</time>
      </trkpt>
      <trkpt lat="45.72368" lon="6.784">
        <ele>2415</ele>
        <time>2019-10-06T10:06:09Z</time>
      </trkpt>
      <trkpt lat="45.72368" lon="6.784">
        <ele>2415</ele>
        <time>2019-10-06T10:06:12Z</time>
      </trkpt>
      <trkpt lat="45.72366" lon="6.78399">
        <ele>2415</ele>
        <time>2019-10-06T10:06:13Z</time>
      </trkpt>
      <trkpt lat="45.72365" lon="6.78397">
        <ele>2416</ele>
        <time>2019-10-06T10:06:16Z</time>
      </trkpt>
      <trkpt lat="45.72365" lon="6.78397">
        <ele>2416</ele>
        <time>2019-10-06T10:06:18Z</time>
      </trkpt>
      <trkpt lat="45.72363" lon="6.78395">
        <ele>2416</ele>
        <time>2019-10-06T10:06:19Z</time>
      </trkpt>
      <trkpt lat="45.72361" lon="6.78393">
        <ele>2417</ele>
        <time>2019-10-06T10:06:22Z</time>
      </trkpt>
      <trkpt lat="45.72361" lon="6.78393">
        <ele>2417</ele>
        <time>2019-10-06T10:06:24Z</time>
      </trkpt>
      <trkpt lat="45.7236" lon="6.78392">
        <ele>2417</ele>
        <time>2019-10-06T10:06:26Z</time>
      </trkpt>
      <trkpt lat="45.7236" lon="6.78392">
        <ele>2419</ele>
        <time>2019-10-06T10:06:29Z</time>
      </trkpt>
      <trkpt lat="45.72358" lon="6.7839">
        <ele>2419</ele>
        <time>2019-10-06T10:06:30Z</time>
      </trkpt>
      <trkpt lat="45.72356" lon="6.78389">
        <ele>2419</ele>
        <time>2019-10-06T10:06:34Z</time>
      </trkpt>
      <trkpt lat="45.72356" lon="6.78389">
        <ele>2419</ele>
        <time>2019-10-06T10:06:35Z</time>
      </trkpt>
      <trkpt lat="45.72354" lon="6.78387">
        <ele>2420</ele>
        <time>2019-10-06T10:06:38Z</time>
      </trkpt>
      <trkpt lat="45.72354" lon="6.78387">
        <ele>2420</ele>
        <time>2019-10-06T10:06:40Z</time>
      </trkpt>
      <trkpt lat="45.72352" lon="6.78386">
        <ele>2421</ele>
        <time>2019-10-06T10:06:42Z</time>
      </trkpt>
      <trkpt lat="45.72352" lon="6.78386">
        <ele>2421</ele>
        <time>2019-10-06T10:06:45Z</time>
      </trkpt>
      <trkpt lat="45.7235" lon="6.78385">
        <ele>2421</ele>
        <time>2019-10-06T10:06:46Z</time>
      </trkpt>
      <trkpt lat="45.7235" lon="6.78385">
        <ele>2422</ele>
        <time>2019-10-06T10:06:50Z</time>
      </trkpt>
      <trkpt lat="45.72348" lon="6.78384">
        <ele>2422</ele>
        <time>2019-10-06T10:06:52Z</time>
      </trkpt>
      <trkpt lat="45.72348" lon="6.78384">
        <ele>2423</ele>
        <time>2019-10-06T10:06:55Z</time>
      </trkpt>
      <trkpt lat="45.72346" lon="6.78384">
        <ele>2424</ele>
        <time>2019-10-06T10:06:56Z</time>
      </trkpt>
      <trkpt lat="45.72345" lon="6.78383">
        <ele>2424</ele>
        <time>2019-10-06T10:06:59Z</time>
      </trkpt>
      <trkpt lat="45.72345" lon="6.78383">
        <ele>2424</ele>
        <time>2019-10-06T10:07:01Z</time>
      </trkpt>
      <trkpt lat="45.72343" lon="6.78382">
        <ele>2425</ele>
        <time>2019-10-06T10:07:03Z</time>
      </trkpt>
      <trkpt lat="45.72343" lon="6.78382">
        <ele>2425</ele>
        <time>2019-10-06T10:07:06Z</time>
      </trkpt>
      <trkpt lat="45.72341" lon="6.78381">
        <ele>2425</ele>
        <time>2019-10-06T10:07:07Z</time>
      </trkpt>
      <trkpt lat="45.7234" lon="6.78379">
        <ele>2426</ele>
        <time>2019-10-06T10:07:10Z</time>
      </trkpt>
      <trkpt lat="45.7234" lon="6.78379">
        <ele>2426</ele>
        <time>2019-10-06T10:07:12Z</time>
      </trkpt>
      <trkpt lat="45.72338" lon="6.78377">
        <ele>2427</ele>
        <time>2019-10-06T10:07:13Z</time>
      </trkpt>
      <trkpt lat="45.72336" lon="6.78377">
        <ele>2428</ele>
        <time>2019-10-06T10:07:16Z</time>
      </trkpt>
      <trkpt lat="45.72336" lon="6.78377">
        <ele>2428</ele>
        <time>2019-10-06T10:07:18Z</time>
      </trkpt>
      <trkpt lat="45.72334" lon="6.78375">
        <ele>2428</ele>
        <time>2019-10-06T10:07:19Z</time>
      </trkpt>
      <trkpt lat="45.72333" lon="6.78374">
        <ele>2430</ele>
        <time>2019-10-06T10:07:22Z</time>
      </trkpt>
      <trkpt lat="45.72333" lon="6.78374">
        <ele>2431</ele>
        <time>2019-10-06T10:07:24Z</time>
      </trkpt>
      <trkpt lat="45.72331" lon="6.78373">
        <ele>2431</ele>
        <time>2019-10-06T10:07:25Z</time>
      </trkpt>
      <trkpt lat="45.72329" lon="6.78372">
        <ele>2431</ele>
        <time>2019-10-06T10:07:28Z</time>
      </trkpt>
      <trkpt lat="45.72329" lon="6.78372">
        <ele>2432</ele>
        <time>2019-10-06T10:07:30Z</time>
      </trkpt>
      <trkpt lat="45.72327" lon="6.78371">
        <ele>2432</ele>
        <time>2019-10-06T10:07:31Z</time>
      </trkpt>
      <trkpt lat="45.72325" lon="6.78371">
        <ele>2432</ele>
        <time>2019-10-06T10:07:34Z</time>
      </trkpt>
      <trkpt lat="45.72325" lon="6.78371">
        <ele>2432</ele>
        <time>2019-10-06T10:07:36Z</time>
      </trkpt>
      <trkpt lat="45.72323" lon="6.78369">
        <ele>2432</ele>
        <time>2019-10-06T10:07:37Z</time>
      </trkpt>
      <trkpt lat="45.72321" lon="6.78368">
        <ele>2433</ele>
        <time>2019-10-06T10:07:40Z</time>
      </trkpt>
      <trkpt lat="45.72321" lon="6.78368">
        <ele>2433</ele>
        <time>2019-10-06T10:07:42Z</time>
      </trkpt>
      <trkpt lat="45.72319" lon="6.78367">
        <ele>2433</ele>
        <time>2019-10-06T10:07:43Z</time>
      </trkpt>
      <trkpt lat="45.72317" lon="6.78366">
        <ele>2435</ele>
        <time>2019-10-06T10:07:47Z</time>
      </trkpt>
      <trkpt lat="45.72317" lon="6.78366">
        <ele>2435</ele>
        <time>2019-10-06T10:07:48Z</time>
      </trkpt>
      <trkpt lat="45.72315" lon="6.78365">
        <ele>2435</ele>
        <time>2019-10-06T10:07:51Z</time>
      </trkpt>
      <trkpt lat="45.72315" lon="6.78365">
        <ele>2435</ele>
        <time>2019-10-06T10:07:53Z</time>
      </trkpt>
      <trkpt lat="45.72313" lon="6.78364">
        <ele>2435</ele>
        <time>2019-10-06T10:07:54Z</time>
      </trkpt>
      <trkpt lat="45.72311" lon="6.78362">
        <ele>2436</ele>
        <time>2019-10-06T10:07:57Z</time>
      </trkpt>
      <trkpt lat="45.72311" lon="6.78362">
        <ele>2436</ele>
        <time>2019-10-06T10:07:59Z</time>
      </trkpt>
      <trkpt lat="45.72308" lon="6.78361">
        <ele>2436</ele>
        <time>2019-10-06T10:08:00Z</time>
      </trkpt>
      <trkpt lat="45.72306" lon="6.78361">
        <ele>2437</ele>
        <time>2019-10-06T10:08:03Z</time>
      </trkpt>
      <trkpt lat="45.72306" lon="6.78361">
        <ele>2437</ele>
        <time>2019-10-06T10:08:05Z</time>
      </trkpt>
      <trkpt lat="45.72303" lon="6.78361">
        <ele>2437</ele>
        <time>2019-10-06T10:08:06Z</time>
      </trkpt>
      <trkpt lat="45.72301" lon="6.78361">
        <ele>2437</ele>
        <time>2019-10-06T10:08:09Z</time>
      </trkpt>
      <trkpt lat="45.72301" lon="6.78361">
        <ele>2438</ele>
        <time>2019-10-06T10:08:11Z</time>
      </trkpt>
      <trkpt lat="45.72299" lon="6.7836">
        <ele>2438</ele>
        <time>2019-10-06T10:08:12Z</time>
      </trkpt>
      <trkpt lat="45.72299" lon="6.7836">
        <ele>2438</ele>
        <time>2019-10-06T10:08:16Z</time>
      </trkpt>
      <trkpt lat="45.72297" lon="6.7836">
        <ele>2438</ele>
        <time>2019-10-06T10:08:17Z</time>
      </trkpt>
      <trkpt lat="45.72295" lon="6.78359">
        <ele>2439</ele>
        <time>2019-10-06T10:08:21Z</time>
      </trkpt>
      <trkpt lat="45.72295" lon="6.78359">
        <ele>2440</ele>
        <time>2019-10-06T10:08:22Z</time>
      </trkpt>
      <trkpt lat="45.72294" lon="6.78358">
        <ele>2441</ele>
        <time>2019-10-06T10:08:26Z</time>
      </trkpt>
      <trkpt lat="45.72294" lon="6.78358">
        <ele>2441</ele>
        <time>2019-10-06T10:08:27Z</time>
      </trkpt>
      <trkpt lat="45.72292" lon="6.78356">
        <ele>2441</ele>
        <time>2019-10-06T10:08:29Z</time>
      </trkpt>
      <trkpt lat="45.7229" lon="6.78355">
        <ele>2441</ele>
        <time>2019-10-06T10:08:32Z</time>
      </trkpt>
      <trkpt lat="45.7229" lon="6.78355">
        <ele>2441</ele>
        <time>2019-10-06T10:08:33Z</time>
      </trkpt>
      <trkpt lat="45.72288" lon="6.78355">
        <ele>2442</ele>
        <time>2019-10-06T10:08:36Z</time>
      </trkpt>
      <trkpt lat="45.72288" lon="6.78355">
        <ele>2442</ele>
        <time>2019-10-06T10:08:38Z</time>
      </trkpt>
      <trkpt lat="45.72288" lon="6.78355">
        <ele>2443</ele>
        <time>2019-10-06T10:08:42Z</time>
      </trkpt>
      <trkpt lat="45.72289" lon="6.78358">
        <ele>2444</ele>
        <time>2019-10-06T10:08:43Z</time>
      </trkpt>
      <trkpt lat="45.72289" lon="6.78361">
        <ele>2444</ele>
        <time>2019-10-06T10:08:46Z</time>
      </trkpt>
      <trkpt lat="45.72289" lon="6.78361">
        <ele>2444</ele>
        <time>2019-10-06T10:08:48Z</time>
      </trkpt>
      <trkpt lat="45.7229" lon="6.78364">
        <ele>2445</ele>
        <time>2019-10-06T10:08:49Z</time>
      </trkpt>
      <trkpt lat="45.7229" lon="6.78367">
        <ele>2445</ele>
        <time>2019-10-06T10:08:53Z</time>
      </trkpt>
      <trkpt lat="45.7229" lon="6.78367">
        <ele>2446</ele>
        <time>2019-10-06T10:08:54Z</time>
      </trkpt>
      <trkpt lat="45.7229" lon="6.7837">
        <ele>2446</ele>
        <time>2019-10-06T10:08:56Z</time>
      </trkpt>
      <trkpt lat="45.7229" lon="6.7837">
        <ele>2447</ele>
        <time>2019-10-06T10:08:59Z</time>
      </trkpt>
      <trkpt lat="45.72292" lon="6.78373">
        <ele>2447</ele>
        <time>2019-10-06T10:09:00Z</time>
      </trkpt>
      <trkpt lat="45.72292" lon="6.78373">
        <ele>2447</ele>
        <time>2019-10-06T10:09:04Z</time>
      </trkpt>
      <trkpt lat="45.72293" lon="6.78375">
        <ele>2447</ele>
        <time>2019-10-06T10:09:05Z</time>
      </trkpt>
      <trkpt lat="45.72294" lon="6.78377">
        <ele>2447</ele>
        <time>2019-10-06T10:09:09Z</time>
      </trkpt>
      <trkpt lat="45.72294" lon="6.78377">
        <ele>2448</ele>
        <time>2019-10-06T10:09:10Z</time>
      </trkpt>
      <trkpt lat="45.72296" lon="6.78379">
        <ele>2448</ele>
        <time>2019-10-06T10:09:12Z</time>
      </trkpt>
      <trkpt lat="45.72298" lon="6.78382">
        <ele>2449</ele>
        <time>2019-10-06T10:09:15Z</time>
      </trkpt>
      <trkpt lat="45.72298" lon="6.78382">
        <ele>2449</ele>
        <time>2019-10-06T10:09:16Z</time>
      </trkpt>
      <trkpt lat="45.72299" lon="6.78385">
        <ele>2449</ele>
        <time>2019-10-06T10:09:19Z</time>
      </trkpt>
      <trkpt lat="45.72299" lon="6.78385">
        <ele>2450</ele>
        <time>2019-10-06T10:09:21Z</time>
      </trkpt>
      <trkpt lat="45.72299" lon="6.78387">
        <ele>2450</ele>
        <time>2019-10-06T10:09:23Z</time>
      </trkpt>
      <trkpt lat="45.72299" lon="6.78387">
        <ele>2451</ele>
        <time>2019-10-06T10:09:26Z</time>
      </trkpt>
      <trkpt lat="45.723" lon="6.7839">
        <ele>2451</ele>
        <time>2019-10-06T10:09:27Z</time>
      </trkpt>
      <trkpt lat="45.72301" lon="6.78393">
        <ele>2451</ele>
        <time>2019-10-06T10:09:31Z</time>
      </trkpt>
      <trkpt lat="45.72301" lon="6.78393">
        <ele>2452</ele>
        <time>2019-10-06T10:09:32Z</time>
      </trkpt>
      <trkpt lat="45.72301" lon="6.78396">
        <ele>2452</ele>
        <time>2019-10-06T10:09:35Z</time>
      </trkpt>
      <trkpt lat="45.72301" lon="6.78396">
        <ele>2452</ele>
        <time>2019-10-06T10:09:37Z</time>
      </trkpt>
      <trkpt lat="45.72302" lon="6.78399">
        <ele>2453</ele>
        <time>2019-10-06T10:09:39Z</time>
      </trkpt>
      <trkpt lat="45.72302" lon="6.78399">
        <ele>2454</ele>
        <time>2019-10-06T10:09:42Z</time>
      </trkpt>
      <trkpt lat="45.72302" lon="6.78402">
        <ele>2454</ele>
        <time>2019-10-06T10:09:44Z</time>
      </trkpt>
      <trkpt lat="45.72303" lon="6.78405">
        <ele>2454</ele>
        <time>2019-10-06T10:09:47Z</time>
      </trkpt>
      <trkpt lat="45.72303" lon="6.78405">
        <ele>2454</ele>
        <time>2019-10-06T10:09:48Z</time>
      </trkpt>
      <trkpt lat="45.72304" lon="6.78408">
        <ele>2454</ele>
        <time>2019-10-06T10:09:49Z</time>
      </trkpt>
      <trkpt lat="45.72304" lon="6.78408">
        <ele>2457</ele>
        <time>2019-10-06T10:09:53Z</time>
      </trkpt>
      <trkpt lat="45.72302" lon="6.78408">
        <ele>2457</ele>
        <time>2019-10-06T10:09:55Z</time>
      </trkpt>
      <trkpt lat="45.72302" lon="6.78408">
        <ele>2458</ele>
        <time>2019-10-06T10:09:58Z</time>
      </trkpt>
      <trkpt lat="45.723" lon="6.78407">
        <ele>2458</ele>
        <time>2019-10-06T10:09:59Z</time>
      </trkpt>
      <trkpt lat="45.72298" lon="6.78405">
        <ele>2458</ele>
        <time>2019-10-06T10:10:03Z</time>
      </trkpt>
      <trkpt lat="45.72298" lon="6.78405">
        <ele>2458</ele>
        <time>2019-10-06T10:10:04Z</time>
      </trkpt>
      <trkpt lat="45.72297" lon="6.78404">
        <ele>2459</ele>
        <time>2019-10-06T10:10:07Z</time>
      </trkpt>
      <trkpt lat="45.72297" lon="6.78404">
        <ele>2459</ele>
        <time>2019-10-06T10:10:09Z</time>
      </trkpt>
      <trkpt lat="45.72294" lon="6.78403">
        <ele>2460</ele>
        <time>2019-10-06T10:10:11Z</time>
      </trkpt>
      <trkpt lat="45.72292" lon="6.78403">
        <ele>2460</ele>
        <time>2019-10-06T10:10:14Z</time>
      </trkpt>
      <trkpt lat="45.72292" lon="6.78403">
        <ele>2460</ele>
        <time>2019-10-06T10:10:15Z</time>
      </trkpt>
      <trkpt lat="45.7229" lon="6.78402">
        <ele>2461</ele>
        <time>2019-10-06T10:10:17Z</time>
      </trkpt>
      <trkpt lat="45.7229" lon="6.78402">
        <ele>2462</ele>
        <time>2019-10-06T10:10:20Z</time>
      </trkpt>
      <trkpt lat="45.72288" lon="6.78401">
        <ele>2462</ele>
        <time>2019-10-06T10:10:21Z</time>
      </trkpt>
      <trkpt lat="45.72286" lon="6.784">
        <ele>2462</ele>
        <time>2019-10-06T10:10:25Z</time>
      </trkpt>
      <trkpt lat="45.72286" lon="6.784">
        <ele>2462</ele>
        <time>2019-10-06T10:10:26Z</time>
      </trkpt>
      <trkpt lat="45.72284" lon="6.78399">
        <ele>2463</ele>
        <time>2019-10-06T10:10:29Z</time>
      </trkpt>
      <trkpt lat="45.72284" lon="6.78399">
        <ele>2463</ele>
        <time>2019-10-06T10:10:31Z</time>
      </trkpt>
      <trkpt lat="45.72282" lon="6.78398">
        <ele>2464</ele>
        <time>2019-10-06T10:10:33Z</time>
      </trkpt>
      <trkpt lat="45.72282" lon="6.78398">
        <ele>2465</ele>
        <time>2019-10-06T10:10:36Z</time>
      </trkpt>
      <trkpt lat="45.7228" lon="6.78398">
        <ele>2465</ele>
        <time>2019-10-06T10:10:37Z</time>
      </trkpt>
      <trkpt lat="45.72278" lon="6.78396">
        <ele>2465</ele>
        <time>2019-10-06T10:10:41Z</time>
      </trkpt>
      <trkpt lat="45.72278" lon="6.78396">
        <ele>2465</ele>
        <time>2019-10-06T10:10:42Z</time>
      </trkpt>
      <trkpt lat="45.72275" lon="6.78395">
        <ele>2465</ele>
        <time>2019-10-06T10:10:44Z</time>
      </trkpt>
      <trkpt lat="45.72273" lon="6.78395">
        <ele>2466</ele>
        <time>2019-10-06T10:10:47Z</time>
      </trkpt>
      <trkpt lat="45.72273" lon="6.78395">
        <ele>2467</ele>
        <time>2019-10-06T10:10:48Z</time>
      </trkpt>
      <trkpt lat="45.72272" lon="6.78396">
        <ele>2467</ele>
        <time>2019-10-06T10:10:50Z</time>
      </trkpt>
      <trkpt lat="45.72269" lon="6.78395">
        <ele>2467</ele>
        <time>2019-10-06T10:10:53Z</time>
      </trkpt>
      <trkpt lat="45.72269" lon="6.78395">
        <ele>2467</ele>
        <time>2019-10-06T10:10:54Z</time>
      </trkpt>
      <trkpt lat="45.72268" lon="6.78392">
        <ele>2468</ele>
        <time>2019-10-06T10:10:57Z</time>
      </trkpt>
      <trkpt lat="45.72268" lon="6.78392">
        <ele>2468</ele>
        <time>2019-10-06T10:10:59Z</time>
      </trkpt>
      <trkpt lat="45.72267" lon="6.7839">
        <ele>2468</ele>
        <time>2019-10-06T10:11:03Z</time>
      </trkpt>
      <trkpt lat="45.72267" lon="6.7839">
        <ele>2468</ele>
        <time>2019-10-06T10:11:04Z</time>
      </trkpt>
      <trkpt lat="45.72266" lon="6.78387">
        <ele>2468</ele>
        <time>2019-10-06T10:11:08Z</time>
      </trkpt>
      <trkpt lat="45.72266" lon="6.78387">
        <ele>2468</ele>
        <time>2019-10-06T10:11:09Z</time>
      </trkpt>
      <trkpt lat="45.72266" lon="6.78387">
        <ele>2469</ele>
        <time>2019-10-06T10:11:13Z</time>
      </trkpt>
      <trkpt lat="45.72265" lon="6.78385">
        <ele>2470</ele>
        <time>2019-10-06T10:11:14Z</time>
      </trkpt>
      <trkpt lat="45.72264" lon="6.78382">
        <ele>2470</ele>
        <time>2019-10-06T10:11:18Z</time>
      </trkpt>
      <trkpt lat="45.72264" lon="6.78382">
        <ele>2470</ele>
        <time>2019-10-06T10:11:19Z</time>
      </trkpt>
      <trkpt lat="45.72262" lon="6.7838">
        <ele>2470</ele>
        <time>2019-10-06T10:11:21Z</time>
      </trkpt>
      <trkpt lat="45.72262" lon="6.7838">
        <ele>2470</ele>
        <time>2019-10-06T10:11:24Z</time>
      </trkpt>
      <trkpt lat="45.7226" lon="6.78379">
        <ele>2470</ele>
        <time>2019-10-06T10:11:25Z</time>
      </trkpt>
      <trkpt lat="45.7226" lon="6.78379">
        <ele>2472</ele>
        <time>2019-10-06T10:11:29Z</time>
      </trkpt>
      <trkpt lat="45.7226" lon="6.78379">
        <ele>2472</ele>
        <time>2019-10-06T10:11:33Z</time>
      </trkpt>
      <trkpt lat="45.7226" lon="6.78383">
        <ele>2474</ele>
        <time>2019-10-06T10:11:36Z</time>
      </trkpt>
      <trkpt lat="45.7226" lon="6.78383">
        <ele>2474</ele>
        <time>2019-10-06T10:11:38Z</time>
      </trkpt>
      <trkpt lat="45.7226" lon="6.78385">
        <ele>2474</ele>
        <time>2019-10-06T10:11:39Z</time>
      </trkpt>
      <trkpt lat="45.72261" lon="6.78388">
        <ele>2474</ele>
        <time>2019-10-06T10:11:42Z</time>
      </trkpt>
      <trkpt lat="45.72261" lon="6.78391">
        <ele>2474</ele>
        <time>2019-10-06T10:11:44Z</time>
      </trkpt>
      <trkpt lat="45.72261" lon="6.78394">
        <ele>2475</ele>
        <time>2019-10-06T10:11:47Z</time>
      </trkpt>
      <trkpt lat="45.72261" lon="6.78394">
        <ele>2475</ele>
        <time>2019-10-06T10:11:48Z</time>
      </trkpt>
      <trkpt lat="45.7226" lon="6.78397">
        <ele>2476</ele>
        <time>2019-10-06T10:11:51Z</time>
      </trkpt>
      <trkpt lat="45.7226" lon="6.78397">
        <ele>2477</ele>
        <time>2019-10-06T10:11:53Z</time>
      </trkpt>
      <trkpt lat="45.72258" lon="6.78395">
        <ele>2478</ele>
        <time>2019-10-06T10:11:56Z</time>
      </trkpt>
      <trkpt lat="45.72258" lon="6.78395">
        <ele>2478</ele>
        <time>2019-10-06T10:11:58Z</time>
      </trkpt>
      <trkpt lat="45.72257" lon="6.78392">
        <ele>2478</ele>
        <time>2019-10-06T10:12:00Z</time>
      </trkpt>
      <trkpt lat="45.72257" lon="6.78392">
        <ele>2478</ele>
        <time>2019-10-06T10:12:03Z</time>
      </trkpt>
      <trkpt lat="45.72256" lon="6.78389">
        <ele>2479</ele>
        <time>2019-10-06T10:12:05Z</time>
      </trkpt>
      <trkpt lat="45.72256" lon="6.78389">
        <ele>2479</ele>
        <time>2019-10-06T10:12:08Z</time>
      </trkpt>
      <trkpt lat="45.72255" lon="6.78387">
        <ele>2479</ele>
        <time>2019-10-06T10:12:09Z</time>
      </trkpt>
      <trkpt lat="45.72252" lon="6.78385">
        <ele>2480</ele>
        <time>2019-10-06T10:12:12Z</time>
      </trkpt>
      <trkpt lat="45.72252" lon="6.78385">
        <ele>2480</ele>
        <time>2019-10-06T10:12:14Z</time>
      </trkpt>
      <trkpt lat="45.72251" lon="6.78383">
        <ele>2480</ele>
        <time>2019-10-06T10:12:15Z</time>
      </trkpt>
      <trkpt lat="45.72249" lon="6.78381">
        <ele>2480</ele>
        <time>2019-10-06T10:12:18Z</time>
      </trkpt>
      <trkpt lat="45.72249" lon="6.78381">
        <ele>2480</ele>
        <time>2019-10-06T10:12:20Z</time>
      </trkpt>
      <trkpt lat="45.72247" lon="6.78379">
        <ele>2480</ele>
        <time>2019-10-06T10:12:21Z</time>
      </trkpt>
      <trkpt lat="45.72246" lon="6.78377">
        <ele>2480</ele>
        <time>2019-10-06T10:12:24Z</time>
      </trkpt>
      <trkpt lat="45.72244" lon="6.78375">
        <ele>2480</ele>
        <time>2019-10-06T10:12:26Z</time>
      </trkpt>
      <trkpt lat="45.72243" lon="6.78373">
        <ele>2480</ele>
        <time>2019-10-06T10:12:29Z</time>
      </trkpt>
      <trkpt lat="45.72243" lon="6.78373">
        <ele>2481</ele>
        <time>2019-10-06T10:12:30Z</time>
      </trkpt>
      <trkpt lat="45.72241" lon="6.78371">
        <ele>2481</ele>
        <time>2019-10-06T10:12:32Z</time>
      </trkpt>
      <trkpt lat="45.7224" lon="6.78368">
        <ele>2481</ele>
        <time>2019-10-06T10:12:35Z</time>
      </trkpt>
      <trkpt lat="45.7224" lon="6.78368">
        <ele>2481</ele>
        <time>2019-10-06T10:12:36Z</time>
      </trkpt>
      <trkpt lat="45.72239" lon="6.78365">
        <ele>2481</ele>
        <time>2019-10-06T10:12:38Z</time>
      </trkpt>
      <trkpt lat="45.72237" lon="6.78363">
        <ele>2482</ele>
        <time>2019-10-06T10:12:41Z</time>
      </trkpt>
      <trkpt lat="45.72237" lon="6.78363">
        <ele>2482</ele>
        <time>2019-10-06T10:12:42Z</time>
      </trkpt>
      <trkpt lat="45.72237" lon="6.78363">
        <ele>2482</ele>
        <time>2019-10-06T10:12:46Z</time>
      </trkpt>
      <trkpt lat="45.72237" lon="6.78366">
        <ele>2482</ele>
        <time>2019-10-06T10:12:48Z</time>
      </trkpt>
      <trkpt lat="45.72239" lon="6.78369">
        <ele>2483</ele>
        <time>2019-10-06T10:12:51Z</time>
      </trkpt>
      <trkpt lat="45.72239" lon="6.78369">
        <ele>2483</ele>
        <time>2019-10-06T10:12:52Z</time>
      </trkpt>
      <trkpt lat="45.7224" lon="6.78371">
        <ele>2483</ele>
        <time>2019-10-06T10:12:53Z</time>
      </trkpt>
      <trkpt lat="45.72241" lon="6.78374">
        <ele>2484</ele>
        <time>2019-10-06T10:12:56Z</time>
      </trkpt>
      <trkpt lat="45.72241" lon="6.78374">
        <ele>2484</ele>
        <time>2019-10-06T10:12:58Z</time>
      </trkpt>
      <trkpt lat="45.72239" lon="6.78376">
        <ele>2486</ele>
        <time>2019-10-06T10:13:01Z</time>
      </trkpt>
      <trkpt lat="45.72239" lon="6.78376">
        <ele>2486</ele>
        <time>2019-10-06T10:13:03Z</time>
      </trkpt>
      <trkpt lat="45.72238" lon="6.78375">
        <ele>2486</ele>
        <time>2019-10-06T10:13:05Z</time>
      </trkpt>
      <trkpt lat="45.72236" lon="6.78373">
        <ele>2487</ele>
        <time>2019-10-06T10:13:08Z</time>
      </trkpt>
      <trkpt lat="45.72236" lon="6.78373">
        <ele>2488</ele>
        <time>2019-10-06T10:13:09Z</time>
      </trkpt>
      <trkpt lat="45.72234" lon="6.78371">
        <ele>2488</ele>
        <time>2019-10-06T10:13:11Z</time>
      </trkpt>
      <trkpt lat="45.72232" lon="6.7837">
        <ele>2488</ele>
        <time>2019-10-06T10:13:14Z</time>
      </trkpt>
      <trkpt lat="45.72232" lon="6.7837">
        <ele>2488</ele>
        <time>2019-10-06T10:13:15Z</time>
      </trkpt>
      <trkpt lat="45.7223" lon="6.7837">
        <ele>2488</ele>
        <time>2019-10-06T10:13:19Z</time>
      </trkpt>
      <trkpt lat="45.7223" lon="6.7837">
        <ele>2489</ele>
        <time>2019-10-06T10:13:20Z</time>
      </trkpt>
      <trkpt lat="45.72229" lon="6.78369">
        <ele>2490</ele>
        <time>2019-10-06T10:13:23Z</time>
      </trkpt>
      <trkpt lat="45.72229" lon="6.78369">
        <ele>2490</ele>
        <time>2019-10-06T10:13:25Z</time>
      </trkpt>
      <trkpt lat="45.72226" lon="6.78369">
        <ele>2490</ele>
        <time>2019-10-06T10:13:28Z</time>
      </trkpt>
      <trkpt lat="45.72226" lon="6.78369">
        <ele>2490</ele>
        <time>2019-10-06T10:13:30Z</time>
      </trkpt>
      <trkpt lat="45.72226" lon="6.78369">
        <ele>2492</ele>
        <time>2019-10-06T10:13:34Z</time>
      </trkpt>
      <trkpt lat="45.72225" lon="6.78371">
        <ele>2492</ele>
        <time>2019-10-06T10:13:37Z</time>
      </trkpt>
      <trkpt lat="45.72225" lon="6.78371">
        <ele>2492</ele>
        <time>2019-10-06T10:13:39Z</time>
      </trkpt>
      <trkpt lat="45.72225" lon="6.78373">
        <ele>2493</ele>
        <time>2019-10-06T10:13:42Z</time>
      </trkpt>
      <trkpt lat="45.72225" lon="6.78373">
        <ele>2493</ele>
        <time>2019-10-06T10:13:44Z</time>
      </trkpt>
      <trkpt lat="45.72225" lon="6.78376">
        <ele>2495</ele>
        <time>2019-10-06T10:13:47Z</time>
      </trkpt>
      <trkpt lat="45.72225" lon="6.78376">
        <ele>2495</ele>
        <time>2019-10-06T10:13:49Z</time>
      </trkpt>
      <trkpt lat="45.72225" lon="6.78379">
        <ele>2496</ele>
        <time>2019-10-06T10:13:53Z</time>
      </trkpt>
      <trkpt lat="45.72225" lon="6.78379">
        <ele>2496</ele>
        <time>2019-10-06T10:13:54Z</time>
      </trkpt>
      <trkpt lat="45.72225" lon="6.78382">
        <ele>2496</ele>
        <time>2019-10-06T10:13:58Z</time>
      </trkpt>
      <trkpt lat="45.72225" lon="6.78382">
        <ele>2498</ele>
        <time>2019-10-06T10:13:59Z</time>
      </trkpt>
      <trkpt lat="45.72225" lon="6.78385">
        <ele>2498</ele>
        <time>2019-10-06T10:14:03Z</time>
      </trkpt>
      <trkpt lat="45.72225" lon="6.78385">
        <ele>2498</ele>
        <time>2019-10-06T10:14:04Z</time>
      </trkpt>
      <trkpt lat="45.72225" lon="6.78388">
        <ele>2498</ele>
        <time>2019-10-06T10:14:08Z</time>
      </trkpt>
      <trkpt lat="45.72225" lon="6.78388">
        <ele>2498</ele>
        <time>2019-10-06T10:14:09Z</time>
      </trkpt>
      <trkpt lat="45.72225" lon="6.7839">
        <ele>2499</ele>
        <time>2019-10-06T10:14:12Z</time>
      </trkpt>
      <trkpt lat="45.72225" lon="6.7839">
        <ele>2499</ele>
        <time>2019-10-06T10:14:14Z</time>
      </trkpt>
      <trkpt lat="45.72224" lon="6.78393">
        <ele>2499</ele>
        <time>2019-10-06T10:14:16Z</time>
      </trkpt>
      <trkpt lat="45.72224" lon="6.78393">
        <ele>2500</ele>
        <time>2019-10-06T10:14:19Z</time>
      </trkpt>
      <trkpt lat="45.72224" lon="6.78396">
        <ele>2500</ele>
        <time>2019-10-06T10:14:20Z</time>
      </trkpt>
      <trkpt lat="45.72224" lon="6.78399">
        <ele>2500</ele>
        <time>2019-10-06T10:14:23Z</time>
      </trkpt>
      <trkpt lat="45.72224" lon="6.78399">
        <ele>2500</ele>
        <time>2019-10-06T10:14:25Z</time>
      </trkpt>
      <trkpt lat="45.72224" lon="6.78401">
        <ele>2500</ele>
        <time>2019-10-06T10:14:26Z</time>
      </trkpt>
      <trkpt lat="45.72223" lon="6.78404">
        <ele>2502</ele>
        <time>2019-10-06T10:14:29Z</time>
      </trkpt>
      <trkpt lat="45.72223" lon="6.78404">
        <ele>2503</ele>
        <time>2019-10-06T10:14:31Z</time>
      </trkpt>
      <trkpt lat="45.72223" lon="6.78407">
        <ele>2503</ele>
        <time>2019-10-06T10:14:33Z</time>
      </trkpt>
      <trkpt lat="45.72223" lon="6.78407">
        <ele>2503</ele>
        <time>2019-10-06T10:14:36Z</time>
      </trkpt>
      <trkpt lat="45.72224" lon="6.7841">
        <ele>2503</ele>
        <time>2019-10-06T10:14:37Z</time>
      </trkpt>
      <trkpt lat="45.72224" lon="6.78412">
        <ele>2504</ele>
        <time>2019-10-06T10:14:40Z</time>
      </trkpt>
      <trkpt lat="45.72224" lon="6.78412">
        <ele>2504</ele>
        <time>2019-10-06T10:14:42Z</time>
      </trkpt>
      <trkpt lat="45.72223" lon="6.78414">
        <ele>2505</ele>
        <time>2019-10-06T10:14:45Z</time>
      </trkpt>
      <trkpt lat="45.72223" lon="6.78414">
        <ele>2505</ele>
        <time>2019-10-06T10:14:47Z</time>
      </trkpt>
      <trkpt lat="45.72221" lon="6.78413">
        <ele>2505</ele>
        <time>2019-10-06T10:14:49Z</time>
      </trkpt>
      <trkpt lat="45.72221" lon="6.78413">
        <ele>2505</ele>
        <time>2019-10-06T10:14:52Z</time>
      </trkpt>
      <trkpt lat="45.72221" lon="6.78413">
        <ele>2506</ele>
        <time>2019-10-06T10:14:56Z</time>
      </trkpt>
      <trkpt lat="45.7222" lon="6.78415">
        <ele>2506</ele>
        <time>2019-10-06T10:14:57Z</time>
      </trkpt>
      <trkpt lat="45.72221" lon="6.78418">
        <ele>2507</ele>
        <time>2019-10-06T10:15:01Z</time>
      </trkpt>
      <trkpt lat="45.72221" lon="6.78418">
        <ele>2507</ele>
        <time>2019-10-06T10:15:02Z</time>
      </trkpt>
      <trkpt lat="45.72221" lon="6.78421">
        <ele>2508</ele>
        <time>2019-10-06T10:15:05Z</time>
      </trkpt>
      <trkpt lat="45.72221" lon="6.78421">
        <ele>2508</ele>
        <time>2019-10-06T10:15:07Z</time>
      </trkpt>
      <trkpt lat="45.72222" lon="6.78424">
        <ele>2508</ele>
        <time>2019-10-06T10:15:08Z</time>
      </trkpt>
      <trkpt lat="45.72222" lon="6.78427">
        <ele>2508</ele>
        <time>2019-10-06T10:15:11Z</time>
      </trkpt>
      <trkpt lat="45.72222" lon="6.78427">
        <ele>2510</ele>
        <time>2019-10-06T10:15:13Z</time>
      </trkpt>
      <trkpt lat="45.72223" lon="6.78429">
        <ele>2511</ele>
        <time>2019-10-06T10:15:14Z</time>
      </trkpt>
      <trkpt lat="45.72222" lon="6.78432">
        <ele>2511</ele>
        <time>2019-10-06T10:15:17Z</time>
      </trkpt>
      <trkpt lat="45.72222" lon="6.78432">
        <ele>2511</ele>
        <time>2019-10-06T10:15:19Z</time>
      </trkpt>
      <trkpt lat="45.72222" lon="6.78435">
        <ele>2511</ele>
        <time>2019-10-06T10:15:22Z</time>
      </trkpt>
      <trkpt lat="45.72222" lon="6.78435">
        <ele>2512</ele>
        <time>2019-10-06T10:15:24Z</time>
      </trkpt>
      <trkpt lat="45.72222" lon="6.78439">
        <ele>2512</ele>
        <time>2019-10-06T10:15:26Z</time>
      </trkpt>
      <trkpt lat="45.72222" lon="6.78443">
        <ele>2512</ele>
        <time>2019-10-06T10:15:29Z</time>
      </trkpt>
      <trkpt lat="45.72222" lon="6.78443">
        <ele>2512</ele>
        <time>2019-10-06T10:15:30Z</time>
      </trkpt>
      <trkpt lat="45.72223" lon="6.78446">
        <ele>2512</ele>
        <time>2019-10-06T10:15:32Z</time>
      </trkpt>
      <trkpt lat="45.72222" lon="6.7845">
        <ele>2512</ele>
        <time>2019-10-06T10:15:35Z</time>
      </trkpt>
      <trkpt lat="45.72222" lon="6.7845">
        <ele>2513</ele>
        <time>2019-10-06T10:15:36Z</time>
      </trkpt>
      <trkpt lat="45.72222" lon="6.78453">
        <ele>2514</ele>
        <time>2019-10-06T10:15:38Z</time>
      </trkpt>
      <trkpt lat="45.72223" lon="6.78456">
        <ele>2514</ele>
        <time>2019-10-06T10:15:41Z</time>
      </trkpt>
      <trkpt lat="45.72223" lon="6.78456">
        <ele>2514</ele>
        <time>2019-10-06T10:15:42Z</time>
      </trkpt>
      <trkpt lat="45.72223" lon="6.78459">
        <ele>2515</ele>
        <time>2019-10-06T10:15:44Z</time>
      </trkpt>
      <trkpt lat="45.72224" lon="6.78462">
        <ele>2515</ele>
        <time>2019-10-06T10:15:47Z</time>
      </trkpt>
      <trkpt lat="45.72224" lon="6.78462">
        <ele>2516</ele>
        <time>2019-10-06T10:15:48Z</time>
      </trkpt>
      <trkpt lat="45.72225" lon="6.78465">
        <ele>2516</ele>
        <time>2019-10-06T10:15:51Z</time>
      </trkpt>
      <trkpt lat="45.72225" lon="6.78465">
        <ele>2516</ele>
        <time>2019-10-06T10:15:53Z</time>
      </trkpt>
      <trkpt lat="45.72226" lon="6.78467">
        <ele>2516</ele>
        <time>2019-10-06T10:15:54Z</time>
      </trkpt>
      <trkpt lat="45.72228" lon="6.78469">
        <ele>2517</ele>
        <time>2019-10-06T10:15:57Z</time>
      </trkpt>
      <trkpt lat="45.72228" lon="6.78469">
        <ele>2517</ele>
        <time>2019-10-06T10:15:59Z</time>
      </trkpt>
      <trkpt lat="45.72229" lon="6.78471">
        <ele>2517</ele>
        <time>2019-10-06T10:16:01Z</time>
      </trkpt>
      <trkpt lat="45.72229" lon="6.78471">
        <ele>2518</ele>
        <time>2019-10-06T10:16:04Z</time>
      </trkpt>
      <trkpt lat="45.7223" lon="6.78473">
        <ele>2519</ele>
        <time>2019-10-06T10:16:05Z</time>
      </trkpt>
      <trkpt lat="45.72229" lon="6.78474">
        <ele>2519</ele>
        <time>2019-10-06T10:16:09Z</time>
      </trkpt>
      <trkpt lat="45.72229" lon="6.78474">
        <ele>2520</ele>
        <time>2019-10-06T10:16:10Z</time>
      </trkpt>
      <trkpt lat="45.72229" lon="6.78474">
        <ele>2522</ele>
        <time>2019-10-06T10:16:14Z</time>
      </trkpt>
      <trkpt lat="45.72227" lon="6.78476">
        <ele>2522</ele>
        <time>2019-10-06T10:16:16Z</time>
      </trkpt>
      <trkpt lat="45.72227" lon="6.78476">
        <ele>2522</ele>
        <time>2019-10-06T10:16:19Z</time>
      </trkpt>
      <trkpt lat="45.72225" lon="6.78476">
        <ele>2522</ele>
        <time>2019-10-06T10:16:20Z</time>
      </trkpt>
      <trkpt lat="45.72223" lon="6.78476">
        <ele>2523</ele>
        <time>2019-10-06T10:16:23Z</time>
      </trkpt>
      <trkpt lat="45.72223" lon="6.78476">
        <ele>2523</ele>
        <time>2019-10-06T10:16:25Z</time>
      </trkpt>
      <trkpt lat="45.72221" lon="6.78476">
        <ele>2524</ele>
        <time>2019-10-06T10:16:27Z</time>
      </trkpt>
      <trkpt lat="45.72221" lon="6.78476">
        <ele>2524</ele>
        <time>2019-10-06T10:16:30Z</time>
      </trkpt>
      <trkpt lat="45.72218" lon="6.78476">
        <ele>2524</ele>
        <time>2019-10-06T10:16:33Z</time>
      </trkpt>
      <trkpt lat="45.72218" lon="6.78476">
        <ele>2525</ele>
        <time>2019-10-06T10:16:35Z</time>
      </trkpt>
      <trkpt lat="45.72217" lon="6.78475">
        <ele>2527</ele>
        <time>2019-10-06T10:16:38Z</time>
      </trkpt>
      <trkpt lat="45.72217" lon="6.78475">
        <ele>2527</ele>
        <time>2019-10-06T10:16:40Z</time>
      </trkpt>
      <trkpt lat="45.72215" lon="6.78475">
        <ele>2527</ele>
        <time>2019-10-06T10:16:44Z</time>
      </trkpt>
      <trkpt lat="45.72215" lon="6.78475">
        <ele>2527</ele>
        <time>2019-10-06T10:16:45Z</time>
      </trkpt>
      <trkpt lat="45.72215" lon="6.78475">
        <ele>2527</ele>
        <time>2019-10-06T10:16:49Z</time>
      </trkpt>
      <trkpt lat="45.72213" lon="6.78476">
        <ele>2527</ele>
        <time>2019-10-06T10:16:51Z</time>
      </trkpt>
      <trkpt lat="45.72213" lon="6.78476">
        <ele>2528</ele>
        <time>2019-10-06T10:16:54Z</time>
      </trkpt>
      <trkpt lat="45.72213" lon="6.78476">
        <ele>2529</ele>
        <time>2019-10-06T10:16:58Z</time>
      </trkpt>
      <trkpt lat="45.72212" lon="6.78478">
        <ele>2529</ele>
        <time>2019-10-06T10:16:59Z</time>
      </trkpt>
      <trkpt lat="45.72214" lon="6.78481">
        <ele>2530</ele>
        <time>2019-10-06T10:17:03Z</time>
      </trkpt>
      <trkpt lat="45.72214" lon="6.78481">
        <ele>2530</ele>
        <time>2019-10-06T10:17:04Z</time>
      </trkpt>
      <trkpt lat="45.72215" lon="6.78484">
        <ele>2530</ele>
        <time>2019-10-06T10:17:06Z</time>
      </trkpt>
      <trkpt lat="45.72215" lon="6.78484">
        <ele>2531</ele>
        <time>2019-10-06T10:17:09Z</time>
      </trkpt>
      <trkpt lat="45.72215" lon="6.78488">
        <ele>2531</ele>
        <time>2019-10-06T10:17:10Z</time>
      </trkpt>
      <trkpt lat="45.72215" lon="6.78488">
        <ele>2532</ele>
        <time>2019-10-06T10:17:14Z</time>
      </trkpt>
      <trkpt lat="45.72216" lon="6.78489">
        <ele>2532</ele>
        <time>2019-10-06T10:17:17Z</time>
      </trkpt>
      <trkpt lat="45.72216" lon="6.78489">
        <ele>2533</ele>
        <time>2019-10-06T10:17:19Z</time>
      </trkpt>
      <trkpt lat="45.72217" lon="6.78492">
        <ele>2533</ele>
        <time>2019-10-06T10:17:21Z</time>
      </trkpt>
      <trkpt lat="45.72217" lon="6.78492">
        <ele>2535</ele>
        <time>2019-10-06T10:17:24Z</time>
      </trkpt>
      <trkpt lat="45.72215" lon="6.78493">
        <ele>2535</ele>
        <time>2019-10-06T10:17:25Z</time>
      </trkpt>
      <trkpt lat="45.72215" lon="6.78493">
        <ele>2536</ele>
        <time>2019-10-06T10:17:29Z</time>
      </trkpt>
      <trkpt lat="45.72213" lon="6.78494">
        <ele>2536</ele>
        <time>2019-10-06T10:17:30Z</time>
      </trkpt>
      <trkpt lat="45.72211" lon="6.78495">
        <ele>2536</ele>
        <time>2019-10-06T10:17:34Z</time>
      </trkpt>
      <trkpt lat="45.72211" lon="6.78495">
        <ele>2536</ele>
        <time>2019-10-06T10:17:35Z</time>
      </trkpt>
      <trkpt lat="45.72211" lon="6.78495">
        <ele>2537</ele>
        <time>2019-10-06T10:17:39Z</time>
      </trkpt>
      <trkpt lat="45.72209" lon="6.78495">
        <ele>2537</ele>
        <time>2019-10-06T10:17:40Z</time>
      </trkpt>
      <trkpt lat="45.72209" lon="6.78495">
        <ele>2538</ele>
        <time>2019-10-06T10:17:44Z</time>
      </trkpt>
      <trkpt lat="45.72207" lon="6.78495">
        <ele>2538</ele>
        <time>2019-10-06T10:17:46Z</time>
      </trkpt>
      <trkpt lat="45.72207" lon="6.78495">
        <ele>2538</ele>
        <time>2019-10-06T10:17:49Z</time>
      </trkpt>
      <trkpt lat="45.72205" lon="6.78495">
        <ele>2539</ele>
        <time>2019-10-06T10:17:50Z</time>
      </trkpt>
      <trkpt lat="45.72205" lon="6.78495">
        <ele>2540</ele>
        <time>2019-10-06T10:17:54Z</time>
      </trkpt>
      <trkpt lat="45.72203" lon="6.78495">
        <ele>2540</ele>
        <time>2019-10-06T10:17:55Z</time>
      </trkpt>
      <trkpt lat="45.72201" lon="6.78495">
        <ele>2540</ele>
        <time>2019-10-06T10:17:59Z</time>
      </trkpt>
      <trkpt lat="45.72201" lon="6.78495">
        <ele>2540</ele>
        <time>2019-10-06T10:18:00Z</time>
      </trkpt>
      <trkpt lat="45.72199" lon="6.78495">
        <ele>2540</ele>
        <time>2019-10-06T10:18:03Z</time>
      </trkpt>
      <trkpt lat="45.72199" lon="6.78495">
        <ele>2542</ele>
        <time>2019-10-06T10:18:05Z</time>
      </trkpt>
      <trkpt lat="45.72197" lon="6.78495">
        <ele>2542</ele>
        <time>2019-10-06T10:18:07Z</time>
      </trkpt>
      <trkpt lat="45.72197" lon="6.78495">
        <ele>2543</ele>
        <time>2019-10-06T10:18:10Z</time>
      </trkpt>
      <trkpt lat="45.72195" lon="6.78495">
        <ele>2543</ele>
        <time>2019-10-06T10:18:12Z</time>
      </trkpt>
      <trkpt lat="45.72195" lon="6.78495">
        <ele>2543</ele>
        <time>2019-10-06T10:18:15Z</time>
      </trkpt>
      <trkpt lat="45.72194" lon="6.78498">
        <ele>2543</ele>
        <time>2019-10-06T10:18:18Z</time>
      </trkpt>
      <trkpt lat="45.72194" lon="6.78498">
        <ele>2543</ele>
        <time>2019-10-06T10:18:20Z</time>
      </trkpt>
      <trkpt lat="45.72194" lon="6.785">
        <ele>2544</ele>
        <time>2019-10-06T10:18:21Z</time>
      </trkpt>
      <trkpt lat="45.72195" lon="6.78503">
        <ele>2544</ele>
        <time>2019-10-06T10:18:25Z</time>
      </trkpt>
      <trkpt lat="45.72195" lon="6.78503">
        <ele>2545</ele>
        <time>2019-10-06T10:18:26Z</time>
      </trkpt>
      <trkpt lat="45.72196" lon="6.78506">
        <ele>2545</ele>
        <time>2019-10-06T10:18:29Z</time>
      </trkpt>
      <trkpt lat="45.72196" lon="6.78506">
        <ele>2545</ele>
        <time>2019-10-06T10:18:31Z</time>
      </trkpt>
      <trkpt lat="45.72197" lon="6.78509">
        <ele>2547</ele>
        <time>2019-10-06T10:18:32Z</time>
      </trkpt>
      <trkpt lat="45.72196" lon="6.78512">
        <ele>2547</ele>
        <time>2019-10-06T10:18:36Z</time>
      </trkpt>
      <trkpt lat="45.72196" lon="6.78512">
        <ele>2547</ele>
        <time>2019-10-06T10:18:37Z</time>
      </trkpt>
      <trkpt lat="45.72196" lon="6.78515">
        <ele>2548</ele>
        <time>2019-10-06T10:18:39Z</time>
      </trkpt>
      <trkpt lat="45.72195" lon="6.78517">
        <ele>2548</ele>
        <time>2019-10-06T10:18:42Z</time>
      </trkpt>
      <trkpt lat="45.72195" lon="6.78517">
        <ele>2548</ele>
        <time>2019-10-06T10:18:43Z</time>
      </trkpt>
      <trkpt lat="45.72194" lon="6.7852">
        <ele>2549</ele>
        <time>2019-10-06T10:18:45Z</time>
      </trkpt>
      <trkpt lat="45.72195" lon="6.78523">
        <ele>2549</ele>
        <time>2019-10-06T10:18:48Z</time>
      </trkpt>
      <trkpt lat="45.72195" lon="6.78523">
        <ele>2549</ele>
        <time>2019-10-06T10:18:49Z</time>
      </trkpt>
      <trkpt lat="45.72195" lon="6.78525">
        <ele>2550</ele>
        <time>2019-10-06T10:18:51Z</time>
      </trkpt>
      <trkpt lat="45.72195" lon="6.78525">
        <ele>2550</ele>
        <time>2019-10-06T10:18:54Z</time>
      </trkpt>
      <trkpt lat="45.72194" lon="6.78528">
        <ele>2550</ele>
        <time>2019-10-06T10:18:55Z</time>
      </trkpt>
      <trkpt lat="45.72193" lon="6.78531">
        <ele>2551</ele>
        <time>2019-10-06T10:18:58Z</time>
      </trkpt>
      <trkpt lat="45.72193" lon="6.78531">
        <ele>2551</ele>
        <time>2019-10-06T10:19:00Z</time>
      </trkpt>
      <trkpt lat="45.72193" lon="6.78534">
        <ele>2551</ele>
        <time>2019-10-06T10:19:01Z</time>
      </trkpt>
      <trkpt lat="45.72192" lon="6.78537">
        <ele>2552</ele>
        <time>2019-10-06T10:19:04Z</time>
      </trkpt>
      <trkpt lat="45.72192" lon="6.78537">
        <ele>2552</ele>
        <time>2019-10-06T10:19:06Z</time>
      </trkpt>
      <trkpt lat="45.72192" lon="6.7854">
        <ele>2552</ele>
        <time>2019-10-06T10:19:07Z</time>
      </trkpt>
      <trkpt lat="45.72192" lon="6.78543">
        <ele>2554</ele>
        <time>2019-10-06T10:19:11Z</time>
      </trkpt>
      <trkpt lat="45.72192" lon="6.78543">
        <ele>2554</ele>
        <time>2019-10-06T10:19:12Z</time>
      </trkpt>
      <trkpt lat="45.72191" lon="6.78546">
        <ele>2554</ele>
        <time>2019-10-06T10:19:14Z</time>
      </trkpt>
      <trkpt lat="45.72191" lon="6.78549">
        <ele>2554</ele>
        <time>2019-10-06T10:19:17Z</time>
      </trkpt>
      <trkpt lat="45.72191" lon="6.78549">
        <ele>2555</ele>
        <time>2019-10-06T10:19:18Z</time>
      </trkpt>
      <trkpt lat="45.72191" lon="6.78552">
        <ele>2555</ele>
        <time>2019-10-06T10:19:20Z</time>
      </trkpt>
      <trkpt lat="45.72191" lon="6.78554">
        <ele>2556</ele>
        <time>2019-10-06T10:19:22Z</time>
      </trkpt>
      <trkpt lat="45.72192" lon="6.78557">
        <ele>2556</ele>
        <time>2019-10-06T10:19:24Z</time>
      </trkpt>
      <trkpt lat="45.72192" lon="6.7856">
        <ele>2556</ele>
        <time>2019-10-06T10:19:26Z</time>
      </trkpt>
      <trkpt lat="45.72192" lon="6.78562">
        <ele>2556</ele>
        <time>2019-10-06T10:19:28Z</time>
      </trkpt>
      <trkpt lat="45.72193" lon="6.78565">
        <ele>2556</ele>
        <time>2019-10-06T10:19:30Z</time>
      </trkpt>
      <trkpt lat="45.72194" lon="6.78568">
        <ele>2556</ele>
        <time>2019-10-06T10:19:32Z</time>
      </trkpt>
      <trkpt lat="45.72196" lon="6.7857">
        <ele>2557</ele>
        <time>2019-10-06T10:19:34Z</time>
      </trkpt>
      <trkpt lat="45.72197" lon="6.78572">
        <ele>2557</ele>
        <time>2019-10-06T10:19:36Z</time>
      </trkpt>
      <trkpt lat="45.72198" lon="6.78575">
        <ele>2557</ele>
        <time>2019-10-06T10:19:38Z</time>
      </trkpt>
      <trkpt lat="45.72199" lon="6.78578">
        <ele>2556</ele>
        <time>2019-10-06T10:19:40Z</time>
      </trkpt>
      <trkpt lat="45.722" lon="6.78581">
        <ele>2557</ele>
        <time>2019-10-06T10:19:42Z</time>
      </trkpt>
      <trkpt lat="45.722" lon="6.78584">
        <ele>2557</ele>
        <time>2019-10-06T10:19:44Z</time>
      </trkpt>
      <trkpt lat="45.72201" lon="6.78587">
        <ele>2557</ele>
        <time>2019-10-06T10:19:47Z</time>
      </trkpt>
      <trkpt lat="45.72201" lon="6.78587">
        <ele>2557</ele>
        <time>2019-10-06T10:19:48Z</time>
      </trkpt>
      <trkpt lat="45.722" lon="6.78591">
        <ele>2559</ele>
        <time>2019-10-06T10:19:50Z</time>
      </trkpt>
      <trkpt lat="45.72199" lon="6.78594">
        <ele>2559</ele>
        <time>2019-10-06T10:19:52Z</time>
      </trkpt>
      <trkpt lat="45.72199" lon="6.78597">
        <ele>2559</ele>
        <time>2019-10-06T10:19:54Z</time>
      </trkpt>
      <trkpt lat="45.72198" lon="6.786">
        <ele>2559</ele>
        <time>2019-10-06T10:19:56Z</time>
      </trkpt>
      <trkpt lat="45.72198" lon="6.786">
        <ele>2559</ele>
        <time>2019-10-06T10:19:58Z</time>
      </trkpt>
      <trkpt lat="45.72197" lon="6.78603">
        <ele>2559</ele>
        <time>2019-10-06T10:19:59Z</time>
      </trkpt>
      <trkpt lat="45.72196" lon="6.78606">
        <ele>2559</ele>
        <time>2019-10-06T10:20:02Z</time>
      </trkpt>
      <trkpt lat="45.72196" lon="6.78606">
        <ele>2560</ele>
        <time>2019-10-06T10:20:04Z</time>
      </trkpt>
      <trkpt lat="45.72196" lon="6.78609">
        <ele>2560</ele>
        <time>2019-10-06T10:20:05Z</time>
      </trkpt>
      <trkpt lat="45.72195" lon="6.78612">
        <ele>2560</ele>
        <time>2019-10-06T10:20:08Z</time>
      </trkpt>
      <trkpt lat="45.72195" lon="6.78612">
        <ele>2560</ele>
        <time>2019-10-06T10:20:10Z</time>
      </trkpt>
      <trkpt lat="45.72193" lon="6.78614">
        <ele>2561</ele>
        <time>2019-10-06T10:20:11Z</time>
      </trkpt>
      <trkpt lat="45.72193" lon="6.78614">
        <ele>2561</ele>
        <time>2019-10-06T10:20:15Z</time>
      </trkpt>
      <trkpt lat="45.72192" lon="6.78616">
        <ele>2561</ele>
        <time>2019-10-06T10:20:16Z</time>
      </trkpt>
      <trkpt lat="45.72192" lon="6.78619">
        <ele>2562</ele>
        <time>2019-10-06T10:20:20Z</time>
      </trkpt>
      <trkpt lat="45.72192" lon="6.78619">
        <ele>2562</ele>
        <time>2019-10-06T10:20:21Z</time>
      </trkpt>
      <trkpt lat="45.72193" lon="6.78622">
        <ele>2562</ele>
        <time>2019-10-06T10:20:24Z</time>
      </trkpt>
      <trkpt lat="45.72193" lon="6.78622">
        <ele>2563</ele>
        <time>2019-10-06T10:20:26Z</time>
      </trkpt>
      <trkpt lat="45.72193" lon="6.78625">
        <ele>2563</ele>
        <time>2019-10-06T10:20:28Z</time>
      </trkpt>
      <trkpt lat="45.72193" lon="6.78625">
        <ele>2564</ele>
        <time>2019-10-06T10:20:31Z</time>
      </trkpt>
      <trkpt lat="45.72194" lon="6.78628">
        <ele>2564</ele>
        <time>2019-10-06T10:20:32Z</time>
      </trkpt>
      <trkpt lat="45.72194" lon="6.78631">
        <ele>2565</ele>
        <time>2019-10-06T10:20:36Z</time>
      </trkpt>
      <trkpt lat="45.72194" lon="6.78631">
        <ele>2565</ele>
        <time>2019-10-06T10:20:37Z</time>
      </trkpt>
      <trkpt lat="45.72194" lon="6.78634">
        <ele>2565</ele>
        <time>2019-10-06T10:20:40Z</time>
      </trkpt>
      <trkpt lat="45.72194" lon="6.78634">
        <ele>2565</ele>
        <time>2019-10-06T10:20:42Z</time>
      </trkpt>
      <trkpt lat="45.72194" lon="6.78637">
        <ele>2566</ele>
        <time>2019-10-06T10:20:44Z</time>
      </trkpt>
      <trkpt lat="45.72194" lon="6.78637">
        <ele>2566</ele>
        <time>2019-10-06T10:20:47Z</time>
      </trkpt>
      <trkpt lat="45.72194" lon="6.7864">
        <ele>2567</ele>
        <time>2019-10-06T10:20:48Z</time>
      </trkpt>
      <trkpt lat="45.72194" lon="6.78642">
        <ele>2567</ele>
        <time>2019-10-06T10:20:52Z</time>
      </trkpt>
      <trkpt lat="45.72194" lon="6.78642">
        <ele>2567</ele>
        <time>2019-10-06T10:20:53Z</time>
      </trkpt>
      <trkpt lat="45.72194" lon="6.78645">
        <ele>2569</ele>
        <time>2019-10-06T10:20:56Z</time>
      </trkpt>
      <trkpt lat="45.72194" lon="6.78645">
        <ele>2569</ele>
        <time>2019-10-06T10:20:58Z</time>
      </trkpt>
      <trkpt lat="45.72193" lon="6.78649">
        <ele>2569</ele>
        <time>2019-10-06T10:21:01Z</time>
      </trkpt>
      <trkpt lat="45.72193" lon="6.78649">
        <ele>2571</ele>
        <time>2019-10-06T10:21:03Z</time>
      </trkpt>
      <trkpt lat="45.72193" lon="6.78652">
        <ele>2571</ele>
        <time>2019-10-06T10:21:05Z</time>
      </trkpt>
      <trkpt lat="45.72193" lon="6.78652">
        <ele>2571</ele>
        <time>2019-10-06T10:21:08Z</time>
      </trkpt>
      <trkpt lat="45.72194" lon="6.78654">
        <ele>2571</ele>
        <time>2019-10-06T10:21:09Z</time>
      </trkpt>
      <trkpt lat="45.72193" lon="6.78657">
        <ele>2571</ele>
        <time>2019-10-06T10:21:13Z</time>
      </trkpt>
      <trkpt lat="45.72193" lon="6.78657">
        <ele>2572</ele>
        <time>2019-10-06T10:21:14Z</time>
      </trkpt>
      <trkpt lat="45.72193" lon="6.78661">
        <ele>2573</ele>
        <time>2019-10-06T10:21:18Z</time>
      </trkpt>
      <trkpt lat="45.72193" lon="6.78661">
        <ele>2573</ele>
        <time>2019-10-06T10:21:19Z</time>
      </trkpt>
      <trkpt lat="45.72193" lon="6.78663">
        <ele>2573</ele>
        <time>2019-10-06T10:21:22Z</time>
      </trkpt>
      <trkpt lat="45.72193" lon="6.78663">
        <ele>2574</ele>
        <time>2019-10-06T10:21:24Z</time>
      </trkpt>
      <trkpt lat="45.72193" lon="6.78666">
        <ele>2574</ele>
        <time>2019-10-06T10:21:27Z</time>
      </trkpt>
      <trkpt lat="45.72193" lon="6.78666">
        <ele>2576</ele>
        <time>2019-10-06T10:21:29Z</time>
      </trkpt>
      <trkpt lat="45.72194" lon="6.78669">
        <ele>2576</ele>
        <time>2019-10-06T10:21:30Z</time>
      </trkpt>
      <trkpt lat="45.72194" lon="6.78669">
        <ele>2577</ele>
        <time>2019-10-06T10:21:34Z</time>
      </trkpt>
      <trkpt lat="45.72193" lon="6.78671">
        <ele>2577</ele>
        <time>2019-10-06T10:21:35Z</time>
      </trkpt>
      <trkpt lat="45.72193" lon="6.78671">
        <ele>2577</ele>
        <time>2019-10-06T10:21:39Z</time>
      </trkpt>
      <trkpt lat="45.72194" lon="6.78675">
        <ele>2577</ele>
        <time>2019-10-06T10:21:40Z</time>
      </trkpt>
      <trkpt lat="45.72194" lon="6.78677">
        <ele>2578</ele>
        <time>2019-10-06T10:21:44Z</time>
      </trkpt>
      <trkpt lat="45.72194" lon="6.78677">
        <ele>2578</ele>
        <time>2019-10-06T10:21:45Z</time>
      </trkpt>
      <trkpt lat="45.72195" lon="6.7868">
        <ele>2579</ele>
        <time>2019-10-06T10:21:48Z</time>
      </trkpt>
      <trkpt lat="45.72195" lon="6.7868">
        <ele>2580</ele>
        <time>2019-10-06T10:21:50Z</time>
      </trkpt>
      <trkpt lat="45.72195" lon="6.78683">
        <ele>2580</ele>
        <time>2019-10-06T10:21:52Z</time>
      </trkpt>
      <trkpt lat="45.72195" lon="6.78683">
        <ele>2579</ele>
        <time>2019-10-06T10:21:55Z</time>
      </trkpt>
      <trkpt lat="45.72197" lon="6.78686">
        <ele>2579</ele>
        <time>2019-10-06T10:21:56Z</time>
      </trkpt>
      <trkpt lat="45.72198" lon="6.7869">
        <ele>2580</ele>
        <time>2019-10-06T10:21:59Z</time>
      </trkpt>
      <trkpt lat="45.72198" lon="6.7869">
        <ele>2580</ele>
        <time>2019-10-06T10:22:01Z</time>
      </trkpt>
      <trkpt lat="45.72198" lon="6.78692">
        <ele>2581</ele>
        <time>2019-10-06T10:22:02Z</time>
      </trkpt>
      <trkpt lat="45.72199" lon="6.78695">
        <ele>2581</ele>
        <time>2019-10-06T10:22:06Z</time>
      </trkpt>
      <trkpt lat="45.72199" lon="6.78695">
        <ele>2583</ele>
        <time>2019-10-06T10:22:07Z</time>
      </trkpt>
      <trkpt lat="45.72199" lon="6.78698">
        <ele>2583</ele>
        <time>2019-10-06T10:22:11Z</time>
      </trkpt>
      <trkpt lat="45.72199" lon="6.78698">
        <ele>2583</ele>
        <time>2019-10-06T10:22:12Z</time>
      </trkpt>
      <trkpt lat="45.722" lon="6.78701">
        <ele>2584</ele>
        <time>2019-10-06T10:22:16Z</time>
      </trkpt>
      <trkpt lat="45.722" lon="6.78701">
        <ele>2584</ele>
        <time>2019-10-06T10:22:17Z</time>
      </trkpt>
      <trkpt lat="45.72201" lon="6.78703">
        <ele>2585</ele>
        <time>2019-10-06T10:22:21Z</time>
      </trkpt>
      <trkpt lat="45.72201" lon="6.78703">
        <ele>2585</ele>
        <time>2019-10-06T10:22:22Z</time>
      </trkpt>
      <trkpt lat="45.72201" lon="6.78706">
        <ele>2586</ele>
        <time>2019-10-06T10:22:25Z</time>
      </trkpt>
      <trkpt lat="45.72201" lon="6.78706">
        <ele>2586</ele>
        <time>2019-10-06T10:22:27Z</time>
      </trkpt>
      <trkpt lat="45.72202" lon="6.78709">
        <ele>2586</ele>
        <time>2019-10-06T10:22:29Z</time>
      </trkpt>
      <trkpt lat="45.72202" lon="6.78709">
        <ele>2587</ele>
        <time>2019-10-06T10:22:32Z</time>
      </trkpt>
      <trkpt lat="45.72202" lon="6.78711">
        <ele>2587</ele>
        <time>2019-10-06T10:22:34Z</time>
      </trkpt>
      <trkpt lat="45.72202" lon="6.78711">
        <ele>2588</ele>
        <time>2019-10-06T10:22:37Z</time>
      </trkpt>
      <trkpt lat="45.72203" lon="6.78714">
        <ele>2588</ele>
        <time>2019-10-06T10:22:38Z</time>
      </trkpt>
      <trkpt lat="45.72203" lon="6.78714">
        <ele>2588</ele>
        <time>2019-10-06T10:22:42Z</time>
      </trkpt>
      <trkpt lat="45.72203" lon="6.78717">
        <ele>2589</ele>
        <time>2019-10-06T10:22:44Z</time>
      </trkpt>
      <trkpt lat="45.72203" lon="6.78717">
        <ele>2590</ele>
        <time>2019-10-06T10:22:47Z</time>
      </trkpt>
      <trkpt lat="45.72202" lon="6.78719">
        <ele>2590</ele>
        <time>2019-10-06T10:22:48Z</time>
      </trkpt>
      <trkpt lat="45.72201" lon="6.78721">
        <ele>2591</ele>
        <time>2019-10-06T10:22:52Z</time>
      </trkpt>
      <trkpt lat="45.72201" lon="6.78721">
        <ele>2592</ele>
        <time>2019-10-06T10:22:53Z</time>
      </trkpt>
      <trkpt lat="45.72201" lon="6.78721">
        <ele>2592</ele>
        <time>2019-10-06T10:22:57Z</time>
      </trkpt>
      <trkpt lat="45.722" lon="6.78723">
        <ele>2593</ele>
        <time>2019-10-06T10:23:00Z</time>
      </trkpt>
      <trkpt lat="45.722" lon="6.78723">
        <ele>2593</ele>
        <time>2019-10-06T10:23:02Z</time>
      </trkpt>
      <trkpt lat="45.722" lon="6.78723">
        <ele>2593</ele>
        <time>2019-10-06T10:23:06Z</time>
      </trkpt>
      <trkpt lat="45.722" lon="6.78726">
        <ele>2593</ele>
        <time>2019-10-06T10:23:07Z</time>
      </trkpt>
      <trkpt lat="45.722" lon="6.78729">
        <ele>2595</ele>
        <time>2019-10-06T10:23:11Z</time>
      </trkpt>
      <trkpt lat="45.722" lon="6.78729">
        <ele>2595</ele>
        <time>2019-10-06T10:23:12Z</time>
      </trkpt>
      <trkpt lat="45.722" lon="6.78729">
        <ele>2597</ele>
        <time>2019-10-06T10:23:16Z</time>
      </trkpt>
      <trkpt lat="45.72198" lon="6.78731">
        <ele>2597</ele>
        <time>2019-10-06T10:23:17Z</time>
      </trkpt>
      <trkpt lat="45.72198" lon="6.78731">
        <ele>2598</ele>
        <time>2019-10-06T10:23:21Z</time>
      </trkpt>
      <trkpt lat="45.72197" lon="6.78732">
        <ele>2598</ele>
        <time>2019-10-06T10:23:24Z</time>
      </trkpt>
      <trkpt lat="45.72197" lon="6.78732">
        <ele>2598</ele>
        <time>2019-10-06T10:23:26Z</time>
      </trkpt>
      <trkpt lat="45.72197" lon="6.78732">
        <ele>2599</ele>
        <time>2019-10-06T10:23:30Z</time>
      </trkpt>
      <trkpt lat="45.72195" lon="6.78733">
        <ele>2599</ele>
        <time>2019-10-06T10:23:33Z</time>
      </trkpt>
      <trkpt lat="45.72195" lon="6.78733">
        <ele>2600</ele>
        <time>2019-10-06T10:23:35Z</time>
      </trkpt>
      <trkpt lat="45.72195" lon="6.78733">
        <ele>2601</ele>
        <time>2019-10-06T10:23:39Z</time>
      </trkpt>
      <trkpt lat="45.72194" lon="6.78736">
        <ele>2601</ele>
        <time>2019-10-06T10:23:41Z</time>
      </trkpt>
      <trkpt lat="45.72194" lon="6.78736">
        <ele>2602</ele>
        <time>2019-10-06T10:23:44Z</time>
      </trkpt>
      <trkpt lat="45.72194" lon="6.78739">
        <ele>2602</ele>
        <time>2019-10-06T10:23:45Z</time>
      </trkpt>
      <trkpt lat="45.72194" lon="6.78739">
        <ele>2602</ele>
        <time>2019-10-06T10:23:49Z</time>
      </trkpt>
      <trkpt lat="45.72194" lon="6.78742">
        <ele>2602</ele>
        <time>2019-10-06T10:23:50Z</time>
      </trkpt>
      <trkpt lat="45.72194" lon="6.78742">
        <ele>2603</ele>
        <time>2019-10-06T10:23:54Z</time>
      </trkpt>
      <trkpt lat="45.72194" lon="6.78744">
        <ele>2603</ele>
        <time>2019-10-06T10:23:56Z</time>
      </trkpt>
      <trkpt lat="45.72196" lon="6.78747">
        <ele>2604</ele>
        <time>2019-10-06T10:23:59Z</time>
      </trkpt>
      <trkpt lat="45.72196" lon="6.78747">
        <ele>2604</ele>
        <time>2019-10-06T10:24:00Z</time>
      </trkpt>
      <trkpt lat="45.72197" lon="6.78749">
        <ele>2604</ele>
        <time>2019-10-06T10:24:02Z</time>
      </trkpt>
      <trkpt lat="45.72199" lon="6.78751">
        <ele>2605</ele>
        <time>2019-10-06T10:24:05Z</time>
      </trkpt>
      <trkpt lat="45.72199" lon="6.78751">
        <ele>2605</ele>
        <time>2019-10-06T10:24:06Z</time>
      </trkpt>
      <trkpt lat="45.72201" lon="6.78752">
        <ele>2605</ele>
        <time>2019-10-06T10:24:08Z</time>
      </trkpt>
      <trkpt lat="45.72203" lon="6.78753">
        <ele>2605</ele>
        <time>2019-10-06T10:24:11Z</time>
      </trkpt>
      <trkpt lat="45.72203" lon="6.78753">
        <ele>2605</ele>
        <time>2019-10-06T10:24:12Z</time>
      </trkpt>
      <trkpt lat="45.72205" lon="6.78752">
        <ele>2605</ele>
        <time>2019-10-06T10:24:13Z</time>
      </trkpt>
      <trkpt lat="45.72207" lon="6.78752">
        <ele>2608</ele>
        <time>2019-10-06T10:24:17Z</time>
      </trkpt>
      <trkpt lat="45.72207" lon="6.78752">
        <ele>2608</ele>
        <time>2019-10-06T10:24:18Z</time>
      </trkpt>
      <trkpt lat="45.72209" lon="6.78751">
        <ele>2608</ele>
        <time>2019-10-06T10:24:20Z</time>
      </trkpt>
      <trkpt lat="45.7221" lon="6.78749">
        <ele>2608</ele>
        <time>2019-10-06T10:24:23Z</time>
      </trkpt>
      <trkpt lat="45.7221" lon="6.78749">
        <ele>2608</ele>
        <time>2019-10-06T10:24:24Z</time>
      </trkpt>
      <trkpt lat="45.72212" lon="6.78749">
        <ele>2609</ele>
        <time>2019-10-06T10:24:26Z</time>
      </trkpt>
      <trkpt lat="45.72213" lon="6.78751">
        <ele>2610</ele>
        <time>2019-10-06T10:24:29Z</time>
      </trkpt>
      <trkpt lat="45.72213" lon="6.78751">
        <ele>2610</ele>
        <time>2019-10-06T10:24:30Z</time>
      </trkpt>
      <trkpt lat="45.72212" lon="6.78754">
        <ele>2611</ele>
        <time>2019-10-06T10:24:33Z</time>
      </trkpt>
      <trkpt lat="45.72212" lon="6.78754">
        <ele>2611</ele>
        <time>2019-10-06T10:24:35Z</time>
      </trkpt>
      <trkpt lat="45.72212" lon="6.78757">
        <ele>2612</ele>
        <time>2019-10-06T10:24:37Z</time>
      </trkpt>
      <trkpt lat="45.72212" lon="6.78757">
        <ele>2612</ele>
        <time>2019-10-06T10:24:40Z</time>
      </trkpt>
      <trkpt lat="45.72211" lon="6.78759">
        <ele>2613</ele>
        <time>2019-10-06T10:24:41Z</time>
      </trkpt>
      <trkpt lat="45.72211" lon="6.78759">
        <ele>2613</ele>
        <time>2019-10-06T10:24:45Z</time>
      </trkpt>
      <trkpt lat="45.72211" lon="6.78762">
        <ele>2613</ele>
        <time>2019-10-06T10:24:46Z</time>
      </trkpt>
      <trkpt lat="45.7221" lon="6.78765">
        <ele>2614</ele>
        <time>2019-10-06T10:24:50Z</time>
      </trkpt>
      <trkpt lat="45.7221" lon="6.78765">
        <ele>2614</ele>
        <time>2019-10-06T10:24:51Z</time>
      </trkpt>
      <trkpt lat="45.7221" lon="6.78767">
        <ele>2615</ele>
        <time>2019-10-06T10:24:55Z</time>
      </trkpt>
      <trkpt lat="45.7221" lon="6.78767">
        <ele>2615</ele>
        <time>2019-10-06T10:24:56Z</time>
      </trkpt>
      <trkpt lat="45.72209" lon="6.7877">
        <ele>2616</ele>
        <time>2019-10-06T10:25:00Z</time>
      </trkpt>
      <trkpt lat="45.72209" lon="6.7877">
        <ele>2616</ele>
        <time>2019-10-06T10:25:01Z</time>
      </trkpt>
      <trkpt lat="45.72207" lon="6.78773">
        <ele>2616</ele>
        <time>2019-10-06T10:25:03Z</time>
      </trkpt>
      <trkpt lat="45.72206" lon="6.78775">
        <ele>2617</ele>
        <time>2019-10-06T10:25:06Z</time>
      </trkpt>
      <trkpt lat="45.72206" lon="6.78775">
        <ele>2617</ele>
        <time>2019-10-06T10:25:07Z</time>
      </trkpt>
      <trkpt lat="45.72204" lon="6.78777">
        <ele>2617</ele>
        <time>2019-10-06T10:25:09Z</time>
      </trkpt>
      <trkpt lat="45.72202" lon="6.78778">
        <ele>2617</ele>
        <time>2019-10-06T10:25:12Z</time>
      </trkpt>
      <trkpt lat="45.72202" lon="6.78778">
        <ele>2617</ele>
        <time>2019-10-06T10:25:13Z</time>
      </trkpt>
      <trkpt lat="45.722" lon="6.78778">
        <ele>2619</ele>
        <time>2019-10-06T10:25:15Z</time>
      </trkpt>
      <trkpt lat="45.72198" lon="6.78779">
        <ele>2619</ele>
        <time>2019-10-06T10:25:18Z</time>
      </trkpt>
      <trkpt lat="45.72198" lon="6.78779">
        <ele>2620</ele>
        <time>2019-10-06T10:25:19Z</time>
      </trkpt>
      <trkpt lat="45.72196" lon="6.7878">
        <ele>2620</ele>
        <time>2019-10-06T10:25:21Z</time>
      </trkpt>
      <trkpt lat="45.72196" lon="6.7878">
        <ele>2620</ele>
        <time>2019-10-06T10:25:24Z</time>
      </trkpt>
      <trkpt lat="45.72195" lon="6.78782">
        <ele>2621</ele>
        <time>2019-10-06T10:25:25Z</time>
      </trkpt>
      <trkpt lat="45.72195" lon="6.78782">
        <ele>2622</ele>
        <time>2019-10-06T10:25:29Z</time>
      </trkpt>
      <trkpt lat="45.72193" lon="6.78784">
        <ele>2622</ele>
        <time>2019-10-06T10:25:31Z</time>
      </trkpt>
      <trkpt lat="45.72193" lon="6.78784">
        <ele>2623</ele>
        <time>2019-10-06T10:25:34Z</time>
      </trkpt>
      <trkpt lat="45.72191" lon="6.78785">
        <ele>2623</ele>
        <time>2019-10-06T10:25:36Z</time>
      </trkpt>
      <trkpt lat="45.72191" lon="6.78785">
        <ele>2624</ele>
        <time>2019-10-06T10:25:39Z</time>
      </trkpt>
      <trkpt lat="45.72189" lon="6.78786">
        <ele>2624</ele>
        <time>2019-10-06T10:25:41Z</time>
      </trkpt>
      <trkpt lat="45.72189" lon="6.78786">
        <ele>2625</ele>
        <time>2019-10-06T10:25:44Z</time>
      </trkpt>
      <trkpt lat="45.72188" lon="6.78787">
        <ele>2625</ele>
        <time>2019-10-06T10:25:46Z</time>
      </trkpt>
      <trkpt lat="45.72188" lon="6.78787">
        <ele>2625</ele>
        <time>2019-10-06T10:25:49Z</time>
      </trkpt>
      <trkpt lat="45.72186" lon="6.7879">
        <ele>2625</ele>
        <time>2019-10-06T10:25:51Z</time>
      </trkpt>
      <trkpt lat="45.72186" lon="6.7879">
        <ele>2626</ele>
        <time>2019-10-06T10:25:54Z</time>
      </trkpt>
      <trkpt lat="45.72184" lon="6.78792">
        <ele>2626</ele>
        <time>2019-10-06T10:25:55Z</time>
      </trkpt>
      <trkpt lat="45.72183" lon="6.78794">
        <ele>2626</ele>
        <time>2019-10-06T10:25:58Z</time>
      </trkpt>
      <trkpt lat="45.72183" lon="6.78794">
        <ele>2626</ele>
        <time>2019-10-06T10:26:00Z</time>
      </trkpt>
      <trkpt lat="45.72181" lon="6.78795">
        <ele>2627</ele>
        <time>2019-10-06T10:26:02Z</time>
      </trkpt>
      <trkpt lat="45.72181" lon="6.78795">
        <ele>2628</ele>
        <time>2019-10-06T10:26:05Z</time>
      </trkpt>
      <trkpt lat="45.72181" lon="6.78798">
        <ele>2629</ele>
        <time>2019-10-06T10:26:09Z</time>
      </trkpt>
      <trkpt lat="45.72181" lon="6.78798">
        <ele>2629</ele>
        <time>2019-10-06T10:26:10Z</time>
      </trkpt>
      <trkpt lat="45.72182" lon="6.78801">
        <ele>2629</ele>
        <time>2019-10-06T10:26:14Z</time>
      </trkpt>
      <trkpt lat="45.72182" lon="6.78801">
        <ele>2629</ele>
        <time>2019-10-06T10:26:15Z</time>
      </trkpt>
      <trkpt lat="45.72184" lon="6.78803">
        <ele>2631</ele>
        <time>2019-10-06T10:26:18Z</time>
      </trkpt>
      <trkpt lat="45.72184" lon="6.78803">
        <ele>2631</ele>
        <time>2019-10-06T10:26:20Z</time>
      </trkpt>
      <trkpt lat="45.72185" lon="6.78804">
        <ele>2631</ele>
        <time>2019-10-06T10:26:21Z</time>
      </trkpt>
      <trkpt lat="45.72186" lon="6.78807">
        <ele>2632</ele>
        <time>2019-10-06T10:26:24Z</time>
      </trkpt>
      <trkpt lat="45.72186" lon="6.78807">
        <ele>2632</ele>
        <time>2019-10-06T10:26:26Z</time>
      </trkpt>
      <trkpt lat="45.72187" lon="6.78809">
        <ele>2633</ele>
        <time>2019-10-06T10:26:28Z</time>
      </trkpt>
      <trkpt lat="45.72187" lon="6.78809">
        <ele>2633</ele>
        <time>2019-10-06T10:26:31Z</time>
      </trkpt>
      <trkpt lat="45.72187" lon="6.78809">
        <ele>2634</ele>
        <time>2019-10-06T10:26:35Z</time>
      </trkpt>
      <trkpt lat="45.72189" lon="6.78811">
        <ele>2634</ele>
        <time>2019-10-06T10:26:36Z</time>
      </trkpt>
      <trkpt lat="45.72189" lon="6.78811">
        <ele>2635</ele>
        <time>2019-10-06T10:26:40Z</time>
      </trkpt>
      <trkpt lat="45.72191" lon="6.78812">
        <ele>2635</ele>
        <time>2019-10-06T10:26:41Z</time>
      </trkpt>
      <trkpt lat="45.72192" lon="6.78813">
        <ele>2636</ele>
        <time>2019-10-06T10:26:45Z</time>
      </trkpt>
      <trkpt lat="45.72192" lon="6.78813">
        <ele>2636</ele>
        <time>2019-10-06T10:26:46Z</time>
      </trkpt>
      <trkpt lat="45.72193" lon="6.78816">
        <ele>2637</ele>
        <time>2019-10-06T10:26:49Z</time>
      </trkpt>
      <trkpt lat="45.72193" lon="6.78816">
        <ele>2637</ele>
        <time>2019-10-06T10:26:51Z</time>
      </trkpt>
      <trkpt lat="45.72192" lon="6.78818">
        <ele>2638</ele>
        <time>2019-10-06T10:26:54Z</time>
      </trkpt>
      <trkpt lat="45.72192" lon="6.78818">
        <ele>2639</ele>
        <time>2019-10-06T10:26:56Z</time>
      </trkpt>
      <trkpt lat="45.72192" lon="6.78821">
        <ele>2640</ele>
        <time>2019-10-06T10:26:59Z</time>
      </trkpt>
      <trkpt lat="45.72192" lon="6.78821">
        <ele>2641</ele>
        <time>2019-10-06T10:27:01Z</time>
      </trkpt>
      <trkpt lat="45.72191" lon="6.78824">
        <ele>2641</ele>
        <time>2019-10-06T10:27:03Z</time>
      </trkpt>
      <trkpt lat="45.72191" lon="6.78824">
        <ele>2642</ele>
        <time>2019-10-06T10:27:06Z</time>
      </trkpt>
      <trkpt lat="45.7219" lon="6.78827">
        <ele>2642</ele>
        <time>2019-10-06T10:27:07Z</time>
      </trkpt>
      <trkpt lat="45.7219" lon="6.7883">
        <ele>2642</ele>
        <time>2019-10-06T10:27:10Z</time>
      </trkpt>
      <trkpt lat="45.7219" lon="6.7883">
        <ele>2642</ele>
        <time>2019-10-06T10:27:12Z</time>
      </trkpt>
      <trkpt lat="45.72189" lon="6.78833">
        <ele>2642</ele>
        <time>2019-10-06T10:27:13Z</time>
      </trkpt>
      <trkpt lat="45.72189" lon="6.78836">
        <ele>2642</ele>
        <time>2019-10-06T10:27:17Z</time>
      </trkpt>
      <trkpt lat="45.72189" lon="6.78836">
        <ele>2642</ele>
        <time>2019-10-06T10:27:18Z</time>
      </trkpt>
      <trkpt lat="45.72189" lon="6.78839">
        <ele>2644</ele>
        <time>2019-10-06T10:27:22Z</time>
      </trkpt>
      <trkpt lat="45.72189" lon="6.78839">
        <ele>2644</ele>
        <time>2019-10-06T10:27:23Z</time>
      </trkpt>
      <trkpt lat="45.72189" lon="6.78839">
        <ele>2645</ele>
        <time>2019-10-06T10:27:27Z</time>
      </trkpt>
      <trkpt lat="45.72189" lon="6.78843">
        <ele>2645</ele>
        <time>2019-10-06T10:27:28Z</time>
      </trkpt>
      <trkpt lat="45.72191" lon="6.78845">
        <ele>2645</ele>
        <time>2019-10-06T10:27:32Z</time>
      </trkpt>
      <trkpt lat="45.72191" lon="6.78845">
        <ele>2645</ele>
        <time>2019-10-06T10:27:33Z</time>
      </trkpt>
      <trkpt lat="45.72191" lon="6.78848">
        <ele>2646</ele>
        <time>2019-10-06T10:27:35Z</time>
      </trkpt>
      <trkpt lat="45.72191" lon="6.78848">
        <ele>2647</ele>
        <time>2019-10-06T10:27:38Z</time>
      </trkpt>
      <trkpt lat="45.72189" lon="6.78849">
        <ele>2647</ele>
        <time>2019-10-06T10:27:39Z</time>
      </trkpt>
      <trkpt lat="45.72187" lon="6.78849">
        <ele>2647</ele>
        <time>2019-10-06T10:27:42Z</time>
      </trkpt>
      <trkpt lat="45.72187" lon="6.78849">
        <ele>2648</ele>
        <time>2019-10-06T10:27:44Z</time>
      </trkpt>
      <trkpt lat="45.72185" lon="6.78851">
        <ele>2648</ele>
        <time>2019-10-06T10:27:47Z</time>
      </trkpt>
      <trkpt lat="45.72185" lon="6.78851">
        <ele>2648</ele>
        <time>2019-10-06T10:27:49Z</time>
      </trkpt>
      <trkpt lat="45.72184" lon="6.78853">
        <ele>2649</ele>
        <time>2019-10-06T10:27:52Z</time>
      </trkpt>
      <trkpt lat="45.72184" lon="6.78853">
        <ele>2649</ele>
        <time>2019-10-06T10:27:54Z</time>
      </trkpt>
      <trkpt lat="45.72183" lon="6.78856">
        <ele>2650</ele>
        <time>2019-10-06T10:27:58Z</time>
      </trkpt>
      <trkpt lat="45.72183" lon="6.78856">
        <ele>2650</ele>
        <time>2019-10-06T10:27:59Z</time>
      </trkpt>
      <trkpt lat="45.72181" lon="6.78856">
        <ele>2651</ele>
        <time>2019-10-06T10:28:02Z</time>
      </trkpt>
      <trkpt lat="45.72181" lon="6.78856">
        <ele>2651</ele>
        <time>2019-10-06T10:28:04Z</time>
      </trkpt>
      <trkpt lat="45.72179" lon="6.78857">
        <ele>2652</ele>
        <time>2019-10-06T10:28:07Z</time>
      </trkpt>
      <trkpt lat="45.72179" lon="6.78857">
        <ele>2652</ele>
        <time>2019-10-06T10:28:09Z</time>
      </trkpt>
      <trkpt lat="45.72179" lon="6.78857">
        <ele>2653</ele>
        <time>2019-10-06T10:28:13Z</time>
      </trkpt>
      <trkpt lat="45.72177" lon="6.78859">
        <ele>2653</ele>
        <time>2019-10-06T10:28:15Z</time>
      </trkpt>
      <trkpt lat="45.72177" lon="6.78859">
        <ele>2653</ele>
        <time>2019-10-06T10:28:18Z</time>
      </trkpt>
      <trkpt lat="45.72176" lon="6.78861">
        <ele>2654</ele>
        <time>2019-10-06T10:28:21Z</time>
      </trkpt>
      <trkpt lat="45.72176" lon="6.78861">
        <ele>2654</ele>
        <time>2019-10-06T10:28:23Z</time>
      </trkpt>
      <trkpt lat="45.72175" lon="6.78863">
        <ele>2656</ele>
        <time>2019-10-06T10:28:26Z</time>
      </trkpt>
      <trkpt lat="45.72175" lon="6.78863">
        <ele>2657</ele>
        <time>2019-10-06T10:28:28Z</time>
      </trkpt>
      <trkpt lat="45.72173" lon="6.78864">
        <ele>2657</ele>
        <time>2019-10-06T10:28:31Z</time>
      </trkpt>
      <trkpt lat="45.72173" lon="6.78864">
        <ele>2657</ele>
        <time>2019-10-06T10:28:33Z</time>
      </trkpt>
      <trkpt lat="45.72171" lon="6.78865">
        <ele>2658</ele>
        <time>2019-10-06T10:28:35Z</time>
      </trkpt>
      <trkpt lat="45.72171" lon="6.78865">
        <ele>2659</ele>
        <time>2019-10-06T10:28:38Z</time>
      </trkpt>
      <trkpt lat="45.72169" lon="6.78866">
        <ele>2658</ele>
        <time>2019-10-06T10:28:40Z</time>
      </trkpt>
      <trkpt lat="45.72169" lon="6.78866">
        <ele>2659</ele>
        <time>2019-10-06T10:28:43Z</time>
      </trkpt>
      <trkpt lat="45.72167" lon="6.78867">
        <ele>2659</ele>
        <time>2019-10-06T10:28:45Z</time>
      </trkpt>
      <trkpt lat="45.72167" lon="6.78867">
        <ele>2659</ele>
        <time>2019-10-06T10:28:48Z</time>
      </trkpt>
      <trkpt lat="45.72165" lon="6.78869">
        <ele>2659</ele>
        <time>2019-10-06T10:28:50Z</time>
      </trkpt>
      <trkpt lat="45.72165" lon="6.78869">
        <ele>2660</ele>
        <time>2019-10-06T10:28:53Z</time>
      </trkpt>
      <trkpt lat="45.72164" lon="6.7887">
        <ele>2660</ele>
        <time>2019-10-06T10:28:55Z</time>
      </trkpt>
      <trkpt lat="45.72162" lon="6.78871">
        <ele>2661</ele>
        <time>2019-10-06T10:28:58Z</time>
      </trkpt>
      <trkpt lat="45.72162" lon="6.78871">
        <ele>2661</ele>
        <time>2019-10-06T10:28:59Z</time>
      </trkpt>
      <trkpt lat="45.7216" lon="6.78871">
        <ele>2662</ele>
        <time>2019-10-06T10:29:03Z</time>
      </trkpt>
      <trkpt lat="45.7216" lon="6.78871">
        <ele>2662</ele>
        <time>2019-10-06T10:29:04Z</time>
      </trkpt>
      <trkpt lat="45.72158" lon="6.78871">
        <ele>2663</ele>
        <time>2019-10-06T10:29:06Z</time>
      </trkpt>
      <trkpt lat="45.72157" lon="6.78869">
        <ele>2663</ele>
        <time>2019-10-06T10:29:09Z</time>
      </trkpt>
      <trkpt lat="45.72157" lon="6.78869">
        <ele>2663</ele>
        <time>2019-10-06T10:29:10Z</time>
      </trkpt>
      <trkpt lat="45.72154" lon="6.78868">
        <ele>2663</ele>
        <time>2019-10-06T10:29:12Z</time>
      </trkpt>
      <trkpt lat="45.72152" lon="6.78869">
        <ele>2663</ele>
        <time>2019-10-06T10:29:15Z</time>
      </trkpt>
      <trkpt lat="45.72152" lon="6.78869">
        <ele>2664</ele>
        <time>2019-10-06T10:29:16Z</time>
      </trkpt>
      <trkpt lat="45.7215" lon="6.78868">
        <ele>2664</ele>
        <time>2019-10-06T10:29:18Z</time>
      </trkpt>
      <trkpt lat="45.7215" lon="6.78868">
        <ele>2666</ele>
        <time>2019-10-06T10:29:21Z</time>
      </trkpt>
      <trkpt lat="45.72148" lon="6.78866">
        <ele>2666</ele>
        <time>2019-10-06T10:29:22Z</time>
      </trkpt>
      <trkpt lat="45.72148" lon="6.78866">
        <ele>2666</ele>
        <time>2019-10-06T10:29:26Z</time>
      </trkpt>
      <trkpt lat="45.72146" lon="6.78866">
        <ele>2666</ele>
        <time>2019-10-06T10:29:27Z</time>
      </trkpt>
      <trkpt lat="45.72146" lon="6.78866">
        <ele>2666</ele>
        <time>2019-10-06T10:29:31Z</time>
      </trkpt>
      <trkpt lat="45.72144" lon="6.78867">
        <ele>2666</ele>
        <time>2019-10-06T10:29:33Z</time>
      </trkpt>
      <trkpt lat="45.72144" lon="6.78867">
        <ele>2668</ele>
        <time>2019-10-06T10:29:36Z</time>
      </trkpt>
      <trkpt lat="45.72144" lon="6.7887">
        <ele>2669</ele>
        <time>2019-10-06T10:29:40Z</time>
      </trkpt>
      <trkpt lat="45.72144" lon="6.7887">
        <ele>2669</ele>
        <time>2019-10-06T10:29:41Z</time>
      </trkpt>
      <trkpt lat="45.72144" lon="6.7887">
        <ele>2670</ele>
        <time>2019-10-06T10:29:45Z</time>
      </trkpt>
      <trkpt lat="45.72143" lon="6.78872">
        <ele>2671</ele>
        <time>2019-10-06T10:29:49Z</time>
      </trkpt>
      <trkpt lat="45.72143" lon="6.78872">
        <ele>2671</ele>
        <time>2019-10-06T10:29:50Z</time>
      </trkpt>
      <trkpt lat="45.72142" lon="6.78875">
        <ele>2672</ele>
        <time>2019-10-06T10:29:54Z</time>
      </trkpt>
      <trkpt lat="45.72142" lon="6.78875">
        <ele>2672</ele>
        <time>2019-10-06T10:29:55Z</time>
      </trkpt>
      <trkpt lat="45.72142" lon="6.78877">
        <ele>2672</ele>
        <time>2019-10-06T10:29:59Z</time>
      </trkpt>
      <trkpt lat="45.72142" lon="6.78877">
        <ele>2672</ele>
        <time>2019-10-06T10:30:00Z</time>
      </trkpt>
      <trkpt lat="45.72141" lon="6.7888">
        <ele>2673</ele>
        <time>2019-10-06T10:30:03Z</time>
      </trkpt>
      <trkpt lat="45.72141" lon="6.7888">
        <ele>2674</ele>
        <time>2019-10-06T10:30:05Z</time>
      </trkpt>
      <trkpt lat="45.72141" lon="6.7888">
        <ele>2674</ele>
        <time>2019-10-06T10:30:09Z</time>
      </trkpt>
      <trkpt lat="45.72139" lon="6.78881">
        <ele>2674</ele>
        <time>2019-10-06T10:30:10Z</time>
      </trkpt>
      <trkpt lat="45.72139" lon="6.78881">
        <ele>2676</ele>
        <time>2019-10-06T10:30:14Z</time>
      </trkpt>
      <trkpt lat="45.72137" lon="6.78881">
        <ele>2676</ele>
        <time>2019-10-06T10:30:16Z</time>
      </trkpt>
      <trkpt lat="45.72137" lon="6.78881">
        <ele>2676</ele>
        <time>2019-10-06T10:30:19Z</time>
      </trkpt>
      <trkpt lat="45.72136" lon="6.78884">
        <ele>2677</ele>
        <time>2019-10-06T10:30:23Z</time>
      </trkpt>
      <trkpt lat="45.72136" lon="6.78884">
        <ele>2677</ele>
        <time>2019-10-06T10:30:24Z</time>
      </trkpt>
      <trkpt lat="45.72136" lon="6.78884">
        <ele>2678</ele>
        <time>2019-10-06T10:30:28Z</time>
      </trkpt>
      <trkpt lat="45.72136" lon="6.78886">
        <ele>2680</ele>
        <time>2019-10-06T10:30:29Z</time>
      </trkpt>
      <trkpt lat="45.72136" lon="6.78886">
        <ele>2680</ele>
        <time>2019-10-06T10:30:33Z</time>
      </trkpt>
      <trkpt lat="45.72134" lon="6.78889">
        <ele>2680</ele>
        <time>2019-10-06T10:30:34Z</time>
      </trkpt>
      <trkpt lat="45.72134" lon="6.78891">
        <ele>2681</ele>
        <time>2019-10-06T10:30:38Z</time>
      </trkpt>
      <trkpt lat="45.72134" lon="6.78891">
        <ele>2681</ele>
        <time>2019-10-06T10:30:39Z</time>
      </trkpt>
      <trkpt lat="45.72133" lon="6.78893">
        <ele>2681</ele>
        <time>2019-10-06T10:30:43Z</time>
      </trkpt>
      <trkpt lat="45.72133" lon="6.78893">
        <ele>2682</ele>
        <time>2019-10-06T10:30:44Z</time>
      </trkpt>
      <trkpt lat="45.72133" lon="6.78893">
        <ele>2682</ele>
        <time>2019-10-06T10:30:48Z</time>
      </trkpt>
      <trkpt lat="45.72133" lon="6.78893">
        <ele>2683</ele>
        <time>2019-10-06T10:30:52Z</time>
      </trkpt>
      <trkpt lat="45.72131" lon="6.78895">
        <ele>2684</ele>
        <time>2019-10-06T10:30:55Z</time>
      </trkpt>
      <trkpt lat="45.72131" lon="6.78895">
        <ele>2684</ele>
        <time>2019-10-06T10:30:57Z</time>
      </trkpt>
      <trkpt lat="45.7213" lon="6.78897">
        <ele>2684</ele>
        <time>2019-10-06T10:31:00Z</time>
      </trkpt>
      <trkpt lat="45.7213" lon="6.78897">
        <ele>2684</ele>
        <time>2019-10-06T10:31:02Z</time>
      </trkpt>
      <trkpt lat="45.72128" lon="6.78899">
        <ele>2686</ele>
        <time>2019-10-06T10:31:05Z</time>
      </trkpt>
      <trkpt lat="45.72128" lon="6.78899">
        <ele>2686</ele>
        <time>2019-10-06T10:31:07Z</time>
      </trkpt>
      <trkpt lat="45.72128" lon="6.78899">
        <ele>2687</ele>
        <time>2019-10-06T10:31:11Z</time>
      </trkpt>
      <trkpt lat="45.72128" lon="6.78899">
        <ele>2687</ele>
        <time>2019-10-06T10:31:15Z</time>
      </trkpt>
      <trkpt lat="45.72128" lon="6.78902">
        <ele>2687</ele>
        <time>2019-10-06T10:31:19Z</time>
      </trkpt>
      <trkpt lat="45.72128" lon="6.78902">
        <ele>2688</ele>
        <time>2019-10-06T10:31:20Z</time>
      </trkpt>
      <trkpt lat="45.72128" lon="6.78902">
        <ele>2688</ele>
        <time>2019-10-06T10:31:24Z</time>
      </trkpt>
      <trkpt lat="45.72127" lon="6.78904">
        <ele>2689</ele>
        <time>2019-10-06T10:31:26Z</time>
      </trkpt>
      <trkpt lat="45.72127" lon="6.78904">
        <ele>2690</ele>
        <time>2019-10-06T10:31:29Z</time>
      </trkpt>
      <trkpt lat="45.72126" lon="6.78906">
        <ele>2690</ele>
        <time>2019-10-06T10:31:31Z</time>
      </trkpt>
      <trkpt lat="45.72126" lon="6.78906">
        <ele>2690</ele>
        <time>2019-10-06T10:31:34Z</time>
      </trkpt>
      <trkpt lat="45.72124" lon="6.78907">
        <ele>2692</ele>
        <time>2019-10-06T10:31:38Z</time>
      </trkpt>
      <trkpt lat="45.72124" lon="6.78907">
        <ele>2692</ele>
        <time>2019-10-06T10:31:39Z</time>
      </trkpt>
      <trkpt lat="45.72124" lon="6.78907">
        <ele>2693</ele>
        <time>2019-10-06T10:31:43Z</time>
      </trkpt>
      <trkpt lat="45.72124" lon="6.78907">
        <ele>2694</ele>
        <time>2019-10-06T10:31:47Z</time>
      </trkpt>
      <trkpt lat="45.72123" lon="6.7891">
        <ele>2694</ele>
        <time>2019-10-06T10:31:48Z</time>
      </trkpt>
      <trkpt lat="45.72123" lon="6.7891">
        <ele>2695</ele>
        <time>2019-10-06T10:31:52Z</time>
      </trkpt>
      <trkpt lat="45.72123" lon="6.7891">
        <ele>2695</ele>
        <time>2019-10-06T10:31:56Z</time>
      </trkpt>
      <trkpt lat="45.72123" lon="6.7891">
        <ele>2696</ele>
        <time>2019-10-06T10:32:00Z</time>
      </trkpt>
      <trkpt lat="45.72122" lon="6.78912">
        <ele>2696</ele>
        <time>2019-10-06T10:32:04Z</time>
      </trkpt>
      <trkpt lat="45.72122" lon="6.78912">
        <ele>2696</ele>
        <time>2019-10-06T10:32:05Z</time>
      </trkpt>
      <trkpt lat="45.72122" lon="6.78912">
        <ele>2697</ele>
        <time>2019-10-06T10:32:09Z</time>
      </trkpt>
      <trkpt lat="45.72121" lon="6.78914">
        <ele>2697</ele>
        <time>2019-10-06T10:32:12Z</time>
      </trkpt>
      <trkpt lat="45.72121" lon="6.78914">
        <ele>2698</ele>
        <time>2019-10-06T10:32:14Z</time>
      </trkpt>
      <trkpt lat="45.72121" lon="6.78914">
        <ele>2699</ele>
        <time>2019-10-06T10:32:18Z</time>
      </trkpt>
      <trkpt lat="45.72121" lon="6.78914">
        <ele>2699</ele>
        <time>2019-10-06T10:32:22Z</time>
      </trkpt>
      <trkpt lat="45.72119" lon="6.78916">
        <ele>2700</ele>
        <time>2019-10-06T10:32:24Z</time>
      </trkpt>
      <trkpt lat="45.72119" lon="6.78916">
        <ele>2700</ele>
        <time>2019-10-06T10:32:27Z</time>
      </trkpt>
      <trkpt lat="45.72117" lon="6.78917">
        <ele>2701</ele>
        <time>2019-10-06T10:32:29Z</time>
      </trkpt>
      <trkpt lat="45.72117" lon="6.78917">
        <ele>2701</ele>
        <time>2019-10-06T10:32:32Z</time>
      </trkpt>
      <trkpt lat="45.72115" lon="6.78915">
        <ele>2701</ele>
        <time>2019-10-06T10:32:33Z</time>
      </trkpt>
      <trkpt lat="45.72115" lon="6.78915">
        <ele>2701</ele>
        <time>2019-10-06T10:32:37Z</time>
      </trkpt>
      <trkpt lat="45.72114" lon="6.78913">
        <ele>2702</ele>
        <time>2019-10-06T10:32:39Z</time>
      </trkpt>
      <trkpt lat="45.72114" lon="6.78913">
        <ele>2704</ele>
        <time>2019-10-06T10:32:42Z</time>
      </trkpt>
      <trkpt lat="45.72114" lon="6.78913">
        <ele>2704</ele>
        <time>2019-10-06T10:32:46Z</time>
      </trkpt>
      <trkpt lat="45.72112" lon="6.78915">
        <ele>2704</ele>
        <time>2019-10-06T10:32:47Z</time>
      </trkpt>
      <trkpt lat="45.72112" lon="6.78915">
        <ele>2705</ele>
        <time>2019-10-06T10:32:51Z</time>
      </trkpt>
      <trkpt lat="45.72112" lon="6.78918">
        <ele>2705</ele>
        <time>2019-10-06T10:32:52Z</time>
      </trkpt>
      <trkpt lat="45.72112" lon="6.78918">
        <ele>2705</ele>
        <time>2019-10-06T10:32:56Z</time>
      </trkpt>
      <trkpt lat="45.72114" lon="6.78919">
        <ele>2705</ele>
        <time>2019-10-06T10:32:57Z</time>
      </trkpt>
      <trkpt lat="45.72114" lon="6.78919">
        <ele>2705</ele>
        <time>2019-10-06T10:33:01Z</time>
      </trkpt>
      <trkpt lat="45.72116" lon="6.78921">
        <ele>2705</ele>
        <time>2019-10-06T10:33:03Z</time>
      </trkpt>
      <trkpt lat="45.72117" lon="6.78924">
        <ele>2705</ele>
        <time>2019-10-06T10:33:06Z</time>
      </trkpt>
      <trkpt lat="45.72117" lon="6.78924">
        <ele>2705</ele>
        <time>2019-10-06T10:33:07Z</time>
      </trkpt>
      <trkpt lat="45.72117" lon="6.78924">
        <ele>2706</ele>
        <time>2019-10-06T10:33:11Z</time>
      </trkpt>
      <trkpt lat="45.72117" lon="6.78924">
        <ele>2707</ele>
        <time>2019-10-06T10:33:15Z</time>
      </trkpt>
      <trkpt lat="45.72116" lon="6.78926">
        <ele>2707</ele>
        <time>2019-10-06T10:33:17Z</time>
      </trkpt>
      <trkpt lat="45.72116" lon="6.78926">
        <ele>2707</ele>
        <time>2019-10-06T10:33:20Z</time>
      </trkpt>
      <trkpt lat="45.72116" lon="6.78926">
        <ele>2707</ele>
        <time>2019-10-06T10:33:24Z</time>
      </trkpt>
      <trkpt lat="45.72116" lon="6.78926">
        <ele>2708</ele>
        <time>2019-10-06T10:33:28Z</time>
      </trkpt>
      <trkpt lat="45.72115" lon="6.78924">
        <ele>2708</ele>
        <time>2019-10-06T10:33:29Z</time>
      </trkpt>
      <trkpt lat="45.72115" lon="6.78924">
        <ele>2709</ele>
        <time>2019-10-06T10:33:33Z</time>
      </trkpt>
      <trkpt lat="45.72114" lon="6.78921">
        <ele>2709</ele>
        <time>2019-10-06T10:33:34Z</time>
      </trkpt>
      <trkpt lat="45.72114" lon="6.78921">
        <ele>2710</ele>
        <time>2019-10-06T10:33:38Z</time>
      </trkpt>
      <trkpt lat="45.72114" lon="6.78921">
        <ele>2710</ele>
        <time>2019-10-06T10:33:42Z</time>
      </trkpt>
      <trkpt lat="45.72112" lon="6.7892">
        <ele>2710</ele>
        <time>2019-10-06T10:33:43Z</time>
      </trkpt>
      <trkpt lat="45.72112" lon="6.7892">
        <ele>2710</ele>
        <time>2019-10-06T10:33:47Z</time>
      </trkpt>
      <trkpt lat="45.72112" lon="6.7892">
        <ele>2710</ele>
        <time>2019-10-06T10:33:51Z</time>
      </trkpt>
      <trkpt lat="45.72112" lon="6.7892">
        <ele>2710</ele>
        <time>2019-10-06T10:33:55Z</time>
      </trkpt>
      <trkpt lat="45.7211" lon="6.78922">
        <ele>2710</ele>
        <time>2019-10-06T10:33:57Z</time>
      </trkpt>
      <trkpt lat="45.7211" lon="6.78922">
        <ele>2710</ele>
        <time>2019-10-06T10:34:00Z</time>
      </trkpt>
      <trkpt lat="45.7211" lon="6.78922">
        <ele>2710</ele>
        <time>2019-10-06T10:34:04Z</time>
      </trkpt>
      <trkpt lat="45.7211" lon="6.78922">
        <ele>2710</ele>
        <time>2019-10-06T10:34:08Z</time>
      </trkpt>
      <trkpt lat="45.7211" lon="6.78922">
        <ele>2709</ele>
        <time>2019-10-06T10:34:12Z</time>
      </trkpt>
      <trkpt lat="45.7211" lon="6.78922">
        <ele>2710</ele>
        <time>2019-10-06T10:34:16Z</time>
      </trkpt>
      <trkpt lat="45.7211" lon="6.78922">
        <ele>2710</ele>
        <time>2019-10-06T10:34:20Z</time>
      </trkpt>
      <trkpt lat="45.7211" lon="6.78922">
        <ele>2710</ele>
        <time>2019-10-06T10:34:24Z</time>
      </trkpt>
      <trkpt lat="45.7211" lon="6.78922">
        <ele>2710</ele>
        <time>2019-10-06T10:34:28Z</time>
      </trkpt>
      <trkpt lat="45.7211" lon="6.78922">
        <ele>2710</ele>
        <time>2019-10-06T10:34:32Z</time>
      </trkpt>
      <trkpt lat="45.7211" lon="6.78922">
        <ele>2710</ele>
        <time>2019-10-06T10:34:36Z</time>
      </trkpt>
      <trkpt lat="45.7211" lon="6.78922">
        <ele>2710</ele>
        <time>2019-10-06T10:34:40Z</time>
      </trkpt>
      <trkpt lat="45.7211" lon="6.78922">
        <ele>2710</ele>
        <time>2019-10-06T10:34:44Z</time>
      </trkpt>
      <trkpt lat="45.7211" lon="6.78922">
        <ele>2710</ele>
        <time>2019-10-06T10:34:50Z</time>
      </trkpt>
      <trkpt lat="45.7211" lon="6.78922">
        <ele>2710</ele>
        <time>2019-10-06T10:34:54Z</time>
      </trkpt>
      <trkpt lat="45.7211" lon="6.78922">
        <ele>2710</ele>
        <time>2019-10-06T10:34:58Z</time>
      </trkpt>
      <trkpt lat="45.7211" lon="6.78922">
        <ele>2710</ele>
        <time>2019-10-06T10:35:02Z</time>
      </trkpt>
      <trkpt lat="45.7211" lon="6.78922">
        <ele>2710</ele>
        <time>2019-10-06T10:35:06Z</time>
      </trkpt>
      <trkpt lat="45.7211" lon="6.78922">
        <ele>2710</ele>
        <time>2019-10-06T10:35:10Z</time>
      </trkpt>
      <trkpt lat="45.7211" lon="6.78922">
        <ele>2710</ele>
        <time>2019-10-06T10:35:14Z</time>
      </trkpt>
      <trkpt lat="45.7211" lon="6.78922">
        <ele>2710</ele>
        <time>2019-10-06T10:35:18Z</time>
      </trkpt>
      <trkpt lat="45.7211" lon="6.78922">
        <ele>2710</ele>
        <time>2019-10-06T10:35:22Z</time>
      </trkpt>
      <trkpt lat="45.7211" lon="6.78922">
        <ele>2710</ele>
        <time>2019-10-06T10:35:26Z</time>
      </trkpt>
      <trkpt lat="45.7211" lon="6.78922">
        <ele>2711</ele>
        <time>2019-10-06T10:35:30Z</time>
      </trkpt>
      <trkpt lat="45.7211" lon="6.78922">
        <ele>2710</ele>
        <time>2019-10-06T10:35:34Z</time>
      </trkpt>
      <trkpt lat="45.7211" lon="6.78922">
        <ele>2710</ele>
        <time>2019-10-06T10:35:38Z</time>
      </trkpt>
      <trkpt lat="45.7211" lon="6.78922">
        <ele>2711</ele>
        <time>2019-10-06T10:35:42Z</time>
      </trkpt>
      <trkpt lat="45.7211" lon="6.78922">
        <ele>2711</ele>
        <time>2019-10-06T10:35:46Z</time>
      </trkpt>
      <trkpt lat="45.72111" lon="6.78925">
        <ele>2711</ele>
        <time>2019-10-06T10:35:50Z</time>
      </trkpt>
      <trkpt lat="45.72111" lon="6.78925">
        <ele>2710</ele>
        <time>2019-10-06T10:35:51Z</time>
      </trkpt>
      <trkpt lat="45.72112" lon="6.78926">
        <ele>2710</ele>
        <time>2019-10-06T10:35:52Z</time>
      </trkpt>
      <trkpt lat="45.72114" lon="6.78929">
        <ele>2710</ele>
        <time>2019-10-06T10:35:54Z</time>
      </trkpt>
      <trkpt lat="45.72115" lon="6.78931">
        <ele>2710</ele>
        <time>2019-10-06T10:35:56Z</time>
      </trkpt>
      <trkpt lat="45.72116" lon="6.78933">
        <ele>2710</ele>
        <time>2019-10-06T10:35:58Z</time>
      </trkpt>
      <trkpt lat="45.72116" lon="6.78937">
        <ele>2709</ele>
        <time>2019-10-06T10:36:00Z</time>
      </trkpt>
      <trkpt lat="45.72118" lon="6.78939">
        <ele>2709</ele>
        <time>2019-10-06T10:36:02Z</time>
      </trkpt>
      <trkpt lat="45.72118" lon="6.78943">
        <ele>2709</ele>
        <time>2019-10-06T10:36:04Z</time>
      </trkpt>
      <trkpt lat="45.72118" lon="6.78943">
        <ele>2709</ele>
        <time>2019-10-06T10:36:06Z</time>
      </trkpt>
      <trkpt lat="45.7212" lon="6.78947">
        <ele>2708</ele>
        <time>2019-10-06T10:36:07Z</time>
      </trkpt>
      <trkpt lat="45.72121" lon="6.78951">
        <ele>2708</ele>
        <time>2019-10-06T10:36:09Z</time>
      </trkpt>
      <trkpt lat="45.72122" lon="6.78953">
        <ele>2708</ele>
        <time>2019-10-06T10:36:10Z</time>
      </trkpt>
      <trkpt lat="45.72122" lon="6.78954">
        <ele>2707</ele>
        <time>2019-10-06T10:36:11Z</time>
      </trkpt>
      <trkpt lat="45.72122" lon="6.78957">
        <ele>2707</ele>
        <time>2019-10-06T10:36:12Z</time>
      </trkpt>
      <trkpt lat="45.72121" lon="6.78959">
        <ele>2707</ele>
        <time>2019-10-06T10:36:13Z</time>
      </trkpt>
      <trkpt lat="45.72119" lon="6.78961">
        <ele>2706</ele>
        <time>2019-10-06T10:36:14Z</time>
      </trkpt>
      <trkpt lat="45.72118" lon="6.78962">
        <ele>2705</ele>
        <time>2019-10-06T10:36:15Z</time>
      </trkpt>
      <trkpt lat="45.72116" lon="6.78963">
        <ele>2704</ele>
        <time>2019-10-06T10:36:16Z</time>
      </trkpt>
      <trkpt lat="45.72114" lon="6.78963">
        <ele>2704</ele>
        <time>2019-10-06T10:36:17Z</time>
      </trkpt>
      <trkpt lat="45.72112" lon="6.78964">
        <ele>2702</ele>
        <time>2019-10-06T10:36:18Z</time>
      </trkpt>
      <trkpt lat="45.7211" lon="6.78966">
        <ele>2702</ele>
        <time>2019-10-06T10:36:19Z</time>
      </trkpt>
      <trkpt lat="45.72107" lon="6.78966">
        <ele>2701</ele>
        <time>2019-10-06T10:36:20Z</time>
      </trkpt>
      <trkpt lat="45.72105" lon="6.78966">
        <ele>2700</ele>
        <time>2019-10-06T10:36:21Z</time>
      </trkpt>
      <trkpt lat="45.72103" lon="6.78966">
        <ele>2700</ele>
        <time>2019-10-06T10:36:22Z</time>
      </trkpt>
      <trkpt lat="45.721" lon="6.78967">
        <ele>2699</ele>
        <time>2019-10-06T10:36:23Z</time>
      </trkpt>
      <trkpt lat="45.72098" lon="6.78966">
        <ele>2698</ele>
        <time>2019-10-06T10:36:24Z</time>
      </trkpt>
      <trkpt lat="45.72096" lon="6.78966">
        <ele>2698</ele>
        <time>2019-10-06T10:36:25Z</time>
      </trkpt>
      <trkpt lat="45.72094" lon="6.78965">
        <ele>2698</ele>
        <time>2019-10-06T10:36:26Z</time>
      </trkpt>
      <trkpt lat="45.72091" lon="6.78964">
        <ele>2696</ele>
        <time>2019-10-06T10:36:28Z</time>
      </trkpt>
      <trkpt lat="45.72087" lon="6.78963">
        <ele>2695</ele>
        <time>2019-10-06T10:36:30Z</time>
      </trkpt>
      <trkpt lat="45.72085" lon="6.78963">
        <ele>2694</ele>
        <time>2019-10-06T10:36:31Z</time>
      </trkpt>
      <trkpt lat="45.72084" lon="6.78963">
        <ele>2693</ele>
        <time>2019-10-06T10:36:32Z</time>
      </trkpt>
      <trkpt lat="45.72082" lon="6.78963">
        <ele>2692</ele>
        <time>2019-10-06T10:36:33Z</time>
      </trkpt>
      <trkpt lat="45.72079" lon="6.78962">
        <ele>2692</ele>
        <time>2019-10-06T10:36:35Z</time>
      </trkpt>
      <trkpt lat="45.72075" lon="6.78963">
        <ele>2690</ele>
        <time>2019-10-06T10:36:37Z</time>
      </trkpt>
      <trkpt lat="45.72072" lon="6.78962">
        <ele>2690</ele>
        <time>2019-10-06T10:36:39Z</time>
      </trkpt>
      <trkpt lat="45.7207" lon="6.78961">
        <ele>2689</ele>
        <time>2019-10-06T10:36:40Z</time>
      </trkpt>
      <trkpt lat="45.72068" lon="6.7896">
        <ele>2688</ele>
        <time>2019-10-06T10:36:41Z</time>
      </trkpt>
      <trkpt lat="45.72067" lon="6.78958">
        <ele>2688</ele>
        <time>2019-10-06T10:36:42Z</time>
      </trkpt>
      <trkpt lat="45.72064" lon="6.78955">
        <ele>2687</ele>
        <time>2019-10-06T10:36:44Z</time>
      </trkpt>
      <trkpt lat="45.72062" lon="6.78954">
        <ele>2687</ele>
        <time>2019-10-06T10:36:45Z</time>
      </trkpt>
      <trkpt lat="45.7206" lon="6.78954">
        <ele>2687</ele>
        <time>2019-10-06T10:36:46Z</time>
      </trkpt>
      <trkpt lat="45.72058" lon="6.78954">
        <ele>2686</ele>
        <time>2019-10-06T10:36:47Z</time>
      </trkpt>
      <trkpt lat="45.72056" lon="6.78953">
        <ele>2686</ele>
        <time>2019-10-06T10:36:48Z</time>
      </trkpt>
      <trkpt lat="45.72052" lon="6.78953">
        <ele>2686</ele>
        <time>2019-10-06T10:36:50Z</time>
      </trkpt>
      <trkpt lat="45.7205" lon="6.78952">
        <ele>2686</ele>
        <time>2019-10-06T10:36:51Z</time>
      </trkpt>
      <trkpt lat="45.72048" lon="6.78951">
        <ele>2685</ele>
        <time>2019-10-06T10:36:52Z</time>
      </trkpt>
      <trkpt lat="45.72046" lon="6.78949">
        <ele>2685</ele>
        <time>2019-10-06T10:36:53Z</time>
      </trkpt>
      <trkpt lat="45.72044" lon="6.78947">
        <ele>2684</ele>
        <time>2019-10-06T10:36:54Z</time>
      </trkpt>
      <trkpt lat="45.72042" lon="6.78946">
        <ele>2683</ele>
        <time>2019-10-06T10:36:55Z</time>
      </trkpt>
      <trkpt lat="45.7204" lon="6.78945">
        <ele>2683</ele>
        <time>2019-10-06T10:36:56Z</time>
      </trkpt>
      <trkpt lat="45.72038" lon="6.78945">
        <ele>2683</ele>
        <time>2019-10-06T10:36:57Z</time>
      </trkpt>
      <trkpt lat="45.72036" lon="6.78944">
        <ele>2683</ele>
        <time>2019-10-06T10:36:58Z</time>
      </trkpt>
      <trkpt lat="45.72035" lon="6.78943">
        <ele>2682</ele>
        <time>2019-10-06T10:36:59Z</time>
      </trkpt>
      <trkpt lat="45.72033" lon="6.78942">
        <ele>2681</ele>
        <time>2019-10-06T10:37:00Z</time>
      </trkpt>
      <trkpt lat="45.7203" lon="6.7894">
        <ele>2682</ele>
        <time>2019-10-06T10:37:02Z</time>
      </trkpt>
      <trkpt lat="45.72028" lon="6.78939">
        <ele>2682</ele>
        <time>2019-10-06T10:37:03Z</time>
      </trkpt>
      <trkpt lat="45.72026" lon="6.78938">
        <ele>2682</ele>
        <time>2019-10-06T10:37:04Z</time>
      </trkpt>
      <trkpt lat="45.72023" lon="6.78937">
        <ele>2680</ele>
        <time>2019-10-06T10:37:06Z</time>
      </trkpt>
      <trkpt lat="45.72021" lon="6.78937">
        <ele>2680</ele>
        <time>2019-10-06T10:37:07Z</time>
      </trkpt>
      <trkpt lat="45.72019" lon="6.78935">
        <ele>2680</ele>
        <time>2019-10-06T10:37:08Z</time>
      </trkpt>
      <trkpt lat="45.72017" lon="6.78934">
        <ele>2680</ele>
        <time>2019-10-06T10:37:09Z</time>
      </trkpt>
      <trkpt lat="45.72014" lon="6.78933">
        <ele>2678</ele>
        <time>2019-10-06T10:37:10Z</time>
      </trkpt>
      <trkpt lat="45.72012" lon="6.78931">
        <ele>2678</ele>
        <time>2019-10-06T10:37:11Z</time>
      </trkpt>
      <trkpt lat="45.7201" lon="6.78929">
        <ele>2678</ele>
        <time>2019-10-06T10:37:12Z</time>
      </trkpt>
      <trkpt lat="45.72008" lon="6.78927">
        <ele>2677</ele>
        <time>2019-10-06T10:37:13Z</time>
      </trkpt>
      <trkpt lat="45.72006" lon="6.78925">
        <ele>2676</ele>
        <time>2019-10-06T10:37:14Z</time>
      </trkpt>
      <trkpt lat="45.72004" lon="6.78923">
        <ele>2676</ele>
        <time>2019-10-06T10:37:15Z</time>
      </trkpt>
      <trkpt lat="45.72002" lon="6.78922">
        <ele>2676</ele>
        <time>2019-10-06T10:37:16Z</time>
      </trkpt>
      <trkpt lat="45.72" lon="6.78922">
        <ele>2675</ele>
        <time>2019-10-06T10:37:17Z</time>
      </trkpt>
      <trkpt lat="45.71998" lon="6.78922">
        <ele>2675</ele>
        <time>2019-10-06T10:37:18Z</time>
      </trkpt>
      <trkpt lat="45.71995" lon="6.78921">
        <ele>2675</ele>
        <time>2019-10-06T10:37:19Z</time>
      </trkpt>
      <trkpt lat="45.71993" lon="6.7892">
        <ele>2675</ele>
        <time>2019-10-06T10:37:20Z</time>
      </trkpt>
      <trkpt lat="45.71991" lon="6.78919">
        <ele>2674</ele>
        <time>2019-10-06T10:37:21Z</time>
      </trkpt>
      <trkpt lat="45.7199" lon="6.78917">
        <ele>2674</ele>
        <time>2019-10-06T10:37:22Z</time>
      </trkpt>
      <trkpt lat="45.71989" lon="6.78915">
        <ele>2673</ele>
        <time>2019-10-06T10:37:23Z</time>
      </trkpt>
      <trkpt lat="45.71988" lon="6.78912">
        <ele>2673</ele>
        <time>2019-10-06T10:37:24Z</time>
      </trkpt>
      <trkpt lat="45.71988" lon="6.7891">
        <ele>2672</ele>
        <time>2019-10-06T10:37:25Z</time>
      </trkpt>
      <trkpt lat="45.71987" lon="6.78908">
        <ele>2671</ele>
        <time>2019-10-06T10:37:26Z</time>
      </trkpt>
      <trkpt lat="45.71986" lon="6.78905">
        <ele>2671</ele>
        <time>2019-10-06T10:37:27Z</time>
      </trkpt>
      <trkpt lat="45.71985" lon="6.78901">
        <ele>2671</ele>
        <time>2019-10-06T10:37:28Z</time>
      </trkpt>
      <trkpt lat="45.71984" lon="6.789">
        <ele>2671</ele>
        <time>2019-10-06T10:37:29Z</time>
      </trkpt>
      <trkpt lat="45.71983" lon="6.78898">
        <ele>2671</ele>
        <time>2019-10-06T10:37:30Z</time>
      </trkpt>
      <trkpt lat="45.71982" lon="6.78895">
        <ele>2670</ele>
        <time>2019-10-06T10:37:31Z</time>
      </trkpt>
      <trkpt lat="45.71981" lon="6.78891">
        <ele>2669</ele>
        <time>2019-10-06T10:37:33Z</time>
      </trkpt>
      <trkpt lat="45.71979" lon="6.78887">
        <ele>2669</ele>
        <time>2019-10-06T10:37:35Z</time>
      </trkpt>
      <trkpt lat="45.71978" lon="6.78885">
        <ele>2669</ele>
        <time>2019-10-06T10:37:37Z</time>
      </trkpt>
      <trkpt lat="45.71976" lon="6.78884">
        <ele>2669</ele>
        <time>2019-10-06T10:37:39Z</time>
      </trkpt>
      <trkpt lat="45.71976" lon="6.78884">
        <ele>2670</ele>
        <time>2019-10-06T10:37:41Z</time>
      </trkpt>
      <trkpt lat="45.71974" lon="6.78881">
        <ele>2670</ele>
        <time>2019-10-06T10:37:42Z</time>
      </trkpt>
      <trkpt lat="45.71972" lon="6.78879">
        <ele>2669</ele>
        <time>2019-10-06T10:37:44Z</time>
      </trkpt>
      <trkpt lat="45.71969" lon="6.78878">
        <ele>2669</ele>
        <time>2019-10-06T10:37:46Z</time>
      </trkpt>
      <trkpt lat="45.71967" lon="6.78877">
        <ele>2669</ele>
        <time>2019-10-06T10:37:47Z</time>
      </trkpt>
      <trkpt lat="45.71965" lon="6.78876">
        <ele>2669</ele>
        <time>2019-10-06T10:37:48Z</time>
      </trkpt>
      <trkpt lat="45.71963" lon="6.78876">
        <ele>2668</ele>
        <time>2019-10-06T10:37:49Z</time>
      </trkpt>
      <trkpt lat="45.71961" lon="6.78875">
        <ele>2668</ele>
        <time>2019-10-06T10:37:50Z</time>
      </trkpt>
      <trkpt lat="45.71958" lon="6.78874">
        <ele>2668</ele>
        <time>2019-10-06T10:37:51Z</time>
      </trkpt>
      <trkpt lat="45.71957" lon="6.78874">
        <ele>2668</ele>
        <time>2019-10-06T10:37:52Z</time>
      </trkpt>
      <trkpt lat="45.71955" lon="6.78873">
        <ele>2668</ele>
        <time>2019-10-06T10:37:53Z</time>
      </trkpt>
      <trkpt lat="45.71953" lon="6.78872">
        <ele>2668</ele>
        <time>2019-10-06T10:37:54Z</time>
      </trkpt>
      <trkpt lat="45.71951" lon="6.78871">
        <ele>2666</ele>
        <time>2019-10-06T10:37:55Z</time>
      </trkpt>
      <trkpt lat="45.71949" lon="6.78871">
        <ele>2665</ele>
        <time>2019-10-06T10:37:56Z</time>
      </trkpt>
      <trkpt lat="45.71947" lon="6.7887">
        <ele>2665</ele>
        <time>2019-10-06T10:37:57Z</time>
      </trkpt>
      <trkpt lat="45.71944" lon="6.78869">
        <ele>2664</ele>
        <time>2019-10-06T10:37:58Z</time>
      </trkpt>
      <trkpt lat="45.71942" lon="6.78868">
        <ele>2664</ele>
        <time>2019-10-06T10:37:59Z</time>
      </trkpt>
      <trkpt lat="45.71939" lon="6.78867">
        <ele>2664</ele>
        <time>2019-10-06T10:38:00Z</time>
      </trkpt>
      <trkpt lat="45.71938" lon="6.78866">
        <ele>2664</ele>
        <time>2019-10-06T10:38:01Z</time>
      </trkpt>
      <trkpt lat="45.71937" lon="6.78865">
        <ele>2664</ele>
        <time>2019-10-06T10:38:02Z</time>
      </trkpt>
      <trkpt lat="45.71935" lon="6.78865">
        <ele>2663</ele>
        <time>2019-10-06T10:38:03Z</time>
      </trkpt>
      <trkpt lat="45.71932" lon="6.78864">
        <ele>2662</ele>
        <time>2019-10-06T10:38:04Z</time>
      </trkpt>
      <trkpt lat="45.71931" lon="6.78863">
        <ele>2662</ele>
        <time>2019-10-06T10:38:05Z</time>
      </trkpt>
      <trkpt lat="45.71929" lon="6.78862">
        <ele>2662</ele>
        <time>2019-10-06T10:38:06Z</time>
      </trkpt>
      <trkpt lat="45.71926" lon="6.78862">
        <ele>2661</ele>
        <time>2019-10-06T10:38:07Z</time>
      </trkpt>
      <trkpt lat="45.71924" lon="6.78861">
        <ele>2660</ele>
        <time>2019-10-06T10:38:08Z</time>
      </trkpt>
      <trkpt lat="45.71922" lon="6.78861">
        <ele>2661</ele>
        <time>2019-10-06T10:38:09Z</time>
      </trkpt>
      <trkpt lat="45.7192" lon="6.78861">
        <ele>2661</ele>
        <time>2019-10-06T10:38:10Z</time>
      </trkpt>
      <trkpt lat="45.71917" lon="6.78861">
        <ele>2661</ele>
        <time>2019-10-06T10:38:11Z</time>
      </trkpt>
      <trkpt lat="45.71916" lon="6.78861">
        <ele>2660</ele>
        <time>2019-10-06T10:38:12Z</time>
      </trkpt>
      <trkpt lat="45.71913" lon="6.78861">
        <ele>2660</ele>
        <time>2019-10-06T10:38:13Z</time>
      </trkpt>
      <trkpt lat="45.71911" lon="6.78861">
        <ele>2660</ele>
        <time>2019-10-06T10:38:14Z</time>
      </trkpt>
      <trkpt lat="45.71909" lon="6.78862">
        <ele>2659</ele>
        <time>2019-10-06T10:38:15Z</time>
      </trkpt>
      <trkpt lat="45.71907" lon="6.78862">
        <ele>2659</ele>
        <time>2019-10-06T10:38:16Z</time>
      </trkpt>
      <trkpt lat="45.71905" lon="6.78863">
        <ele>2659</ele>
        <time>2019-10-06T10:38:17Z</time>
      </trkpt>
      <trkpt lat="45.71903" lon="6.78863">
        <ele>2659</ele>
        <time>2019-10-06T10:38:18Z</time>
      </trkpt>
      <trkpt lat="45.719" lon="6.78863">
        <ele>2659</ele>
        <time>2019-10-06T10:38:19Z</time>
      </trkpt>
      <trkpt lat="45.71898" lon="6.78862">
        <ele>2659</ele>
        <time>2019-10-06T10:38:20Z</time>
      </trkpt>
      <trkpt lat="45.71897" lon="6.78861">
        <ele>2658</ele>
        <time>2019-10-06T10:38:21Z</time>
      </trkpt>
      <trkpt lat="45.71895" lon="6.7886">
        <ele>2658</ele>
        <time>2019-10-06T10:38:22Z</time>
      </trkpt>
      <trkpt lat="45.71892" lon="6.78858">
        <ele>2658</ele>
        <time>2019-10-06T10:38:23Z</time>
      </trkpt>
      <trkpt lat="45.7189" lon="6.78858">
        <ele>2658</ele>
        <time>2019-10-06T10:38:24Z</time>
      </trkpt>
      <trkpt lat="45.71889" lon="6.78857">
        <ele>2658</ele>
        <time>2019-10-06T10:38:25Z</time>
      </trkpt>
      <trkpt lat="45.71887" lon="6.78856">
        <ele>2658</ele>
        <time>2019-10-06T10:38:26Z</time>
      </trkpt>
      <trkpt lat="45.71885" lon="6.78856">
        <ele>2658</ele>
        <time>2019-10-06T10:38:27Z</time>
      </trkpt>
      <trkpt lat="45.71883" lon="6.78855">
        <ele>2657</ele>
        <time>2019-10-06T10:38:28Z</time>
      </trkpt>
      <trkpt lat="45.71881" lon="6.78855">
        <ele>2657</ele>
        <time>2019-10-06T10:38:29Z</time>
      </trkpt>
      <trkpt lat="45.71878" lon="6.78854">
        <ele>2657</ele>
        <time>2019-10-06T10:38:30Z</time>
      </trkpt>
      <trkpt lat="45.71876" lon="6.78853">
        <ele>2657</ele>
        <time>2019-10-06T10:38:31Z</time>
      </trkpt>
      <trkpt lat="45.71874" lon="6.78852">
        <ele>2657</ele>
        <time>2019-10-06T10:38:32Z</time>
      </trkpt>
      <trkpt lat="45.71872" lon="6.78852">
        <ele>2657</ele>
        <time>2019-10-06T10:38:33Z</time>
      </trkpt>
      <trkpt lat="45.71869" lon="6.78851">
        <ele>2656</ele>
        <time>2019-10-06T10:38:34Z</time>
      </trkpt>
      <trkpt lat="45.71867" lon="6.7885">
        <ele>2656</ele>
        <time>2019-10-06T10:38:35Z</time>
      </trkpt>
      <trkpt lat="45.71865" lon="6.78849">
        <ele>2656</ele>
        <time>2019-10-06T10:38:36Z</time>
      </trkpt>
      <trkpt lat="45.71863" lon="6.78848">
        <ele>2654</ele>
        <time>2019-10-06T10:38:37Z</time>
      </trkpt>
      <trkpt lat="45.71861" lon="6.78847">
        <ele>2654</ele>
        <time>2019-10-06T10:38:38Z</time>
      </trkpt>
      <trkpt lat="45.71857" lon="6.78846">
        <ele>2653</ele>
        <time>2019-10-06T10:38:39Z</time>
      </trkpt>
      <trkpt lat="45.71856" lon="6.78846">
        <ele>2653</ele>
        <time>2019-10-06T10:38:40Z</time>
      </trkpt>
      <trkpt lat="45.71852" lon="6.78846">
        <ele>2653</ele>
        <time>2019-10-06T10:38:41Z</time>
      </trkpt>
      <trkpt lat="45.71851" lon="6.78846">
        <ele>2653</ele>
        <time>2019-10-06T10:38:42Z</time>
      </trkpt>
      <trkpt lat="45.71849" lon="6.78846">
        <ele>2653</ele>
        <time>2019-10-06T10:38:43Z</time>
      </trkpt>
      <trkpt lat="45.71847" lon="6.78847">
        <ele>2653</ele>
        <time>2019-10-06T10:38:44Z</time>
      </trkpt>
      <trkpt lat="45.71844" lon="6.78847">
        <ele>2652</ele>
        <time>2019-10-06T10:38:45Z</time>
      </trkpt>
      <trkpt lat="45.71842" lon="6.78848">
        <ele>2652</ele>
        <time>2019-10-06T10:38:46Z</time>
      </trkpt>
      <trkpt lat="45.7184" lon="6.78849">
        <ele>2652</ele>
        <time>2019-10-06T10:38:47Z</time>
      </trkpt>
      <trkpt lat="45.71838" lon="6.78849">
        <ele>2652</ele>
        <time>2019-10-06T10:38:48Z</time>
      </trkpt>
      <trkpt lat="45.71836" lon="6.78849">
        <ele>2651</ele>
        <time>2019-10-06T10:38:49Z</time>
      </trkpt>
      <trkpt lat="45.71834" lon="6.78849">
        <ele>2651</ele>
        <time>2019-10-06T10:38:50Z</time>
      </trkpt>
      <trkpt lat="45.71832" lon="6.78848">
        <ele>2650</ele>
        <time>2019-10-06T10:38:51Z</time>
      </trkpt>
      <trkpt lat="45.7183" lon="6.78847">
        <ele>2650</ele>
        <time>2019-10-06T10:38:52Z</time>
      </trkpt>
      <trkpt lat="45.71829" lon="6.78846">
        <ele>2650</ele>
        <time>2019-10-06T10:38:53Z</time>
      </trkpt>
      <trkpt lat="45.71826" lon="6.78846">
        <ele>2649</ele>
        <time>2019-10-06T10:38:54Z</time>
      </trkpt>
      <trkpt lat="45.71824" lon="6.78845">
        <ele>2648</ele>
        <time>2019-10-06T10:38:55Z</time>
      </trkpt>
      <trkpt lat="45.71822" lon="6.78844">
        <ele>2648</ele>
        <time>2019-10-06T10:38:56Z</time>
      </trkpt>
      <trkpt lat="45.7182" lon="6.78844">
        <ele>2648</ele>
        <time>2019-10-06T10:38:57Z</time>
      </trkpt>
      <trkpt lat="45.71817" lon="6.78844">
        <ele>2648</ele>
        <time>2019-10-06T10:38:58Z</time>
      </trkpt>
      <trkpt lat="45.71815" lon="6.78844">
        <ele>2648</ele>
        <time>2019-10-06T10:38:59Z</time>
      </trkpt>
      <trkpt lat="45.71813" lon="6.78844">
        <ele>2648</ele>
        <time>2019-10-06T10:39:00Z</time>
      </trkpt>
      <trkpt lat="45.71811" lon="6.78843">
        <ele>2648</ele>
        <time>2019-10-06T10:39:01Z</time>
      </trkpt>
      <trkpt lat="45.71809" lon="6.78843">
        <ele>2648</ele>
        <time>2019-10-06T10:39:02Z</time>
      </trkpt>
      <trkpt lat="45.71807" lon="6.78842">
        <ele>2648</ele>
        <time>2019-10-06T10:39:03Z</time>
      </trkpt>
      <trkpt lat="45.71805" lon="6.78842">
        <ele>2648</ele>
        <time>2019-10-06T10:39:04Z</time>
      </trkpt>
      <trkpt lat="45.71803" lon="6.78841">
        <ele>2648</ele>
        <time>2019-10-06T10:39:05Z</time>
      </trkpt>
      <trkpt lat="45.71802" lon="6.7884">
        <ele>2648</ele>
        <time>2019-10-06T10:39:06Z</time>
      </trkpt>
      <trkpt lat="45.71799" lon="6.78839">
        <ele>2647</ele>
        <time>2019-10-06T10:39:08Z</time>
      </trkpt>
      <trkpt lat="45.71797" lon="6.78838">
        <ele>2648</ele>
        <time>2019-10-06T10:39:10Z</time>
      </trkpt>
      <trkpt lat="45.71795" lon="6.78837">
        <ele>2648</ele>
        <time>2019-10-06T10:39:12Z</time>
      </trkpt>
      <trkpt lat="45.71792" lon="6.78836">
        <ele>2649</ele>
        <time>2019-10-06T10:39:14Z</time>
      </trkpt>
      <trkpt lat="45.71789" lon="6.78836">
        <ele>2649</ele>
        <time>2019-10-06T10:39:16Z</time>
      </trkpt>
      <trkpt lat="45.71787" lon="6.78835">
        <ele>2648</ele>
        <time>2019-10-06T10:39:17Z</time>
      </trkpt>
      <trkpt lat="45.71785" lon="6.78834">
        <ele>2649</ele>
        <time>2019-10-06T10:39:18Z</time>
      </trkpt>
      <trkpt lat="45.71784" lon="6.78832">
        <ele>2649</ele>
        <time>2019-10-06T10:39:19Z</time>
      </trkpt>
      <trkpt lat="45.7178" lon="6.78831">
        <ele>2648</ele>
        <time>2019-10-06T10:39:21Z</time>
      </trkpt>
      <trkpt lat="45.71778" lon="6.7883">
        <ele>2648</ele>
        <time>2019-10-06T10:39:22Z</time>
      </trkpt>
      <trkpt lat="45.71776" lon="6.7883">
        <ele>2648</ele>
        <time>2019-10-06T10:39:23Z</time>
      </trkpt>
      <trkpt lat="45.71774" lon="6.7883">
        <ele>2648</ele>
        <time>2019-10-06T10:39:24Z</time>
      </trkpt>
      <trkpt lat="45.71772" lon="6.7883">
        <ele>2648</ele>
        <time>2019-10-06T10:39:25Z</time>
      </trkpt>
      <trkpt lat="45.7177" lon="6.78831">
        <ele>2648</ele>
        <time>2019-10-06T10:39:26Z</time>
      </trkpt>
      <trkpt lat="45.71768" lon="6.78831">
        <ele>2648</ele>
        <time>2019-10-06T10:39:27Z</time>
      </trkpt>
      <trkpt lat="45.71766" lon="6.78831">
        <ele>2648</ele>
        <time>2019-10-06T10:39:28Z</time>
      </trkpt>
      <trkpt lat="45.71764" lon="6.7883">
        <ele>2647</ele>
        <time>2019-10-06T10:39:29Z</time>
      </trkpt>
      <trkpt lat="45.71762" lon="6.7883">
        <ele>2647</ele>
        <time>2019-10-06T10:39:30Z</time>
      </trkpt>
      <trkpt lat="45.7176" lon="6.78829">
        <ele>2647</ele>
        <time>2019-10-06T10:39:31Z</time>
      </trkpt>
      <trkpt lat="45.71758" lon="6.7883">
        <ele>2647</ele>
        <time>2019-10-06T10:39:32Z</time>
      </trkpt>
      <trkpt lat="45.71755" lon="6.78833">
        <ele>2646</ele>
        <time>2019-10-06T10:39:34Z</time>
      </trkpt>
      <trkpt lat="45.71753" lon="6.78836">
        <ele>2646</ele>
        <time>2019-10-06T10:39:36Z</time>
      </trkpt>
      <trkpt lat="45.7175" lon="6.78839">
        <ele>2645</ele>
        <time>2019-10-06T10:39:38Z</time>
      </trkpt>
      <trkpt lat="45.71748" lon="6.7884">
        <ele>2645</ele>
        <time>2019-10-06T10:39:39Z</time>
      </trkpt>
      <trkpt lat="45.71746" lon="6.78842">
        <ele>2645</ele>
        <time>2019-10-06T10:39:40Z</time>
      </trkpt>
      <trkpt lat="45.71745" lon="6.78843">
        <ele>2644</ele>
        <time>2019-10-06T10:39:41Z</time>
      </trkpt>
      <trkpt lat="45.71743" lon="6.78844">
        <ele>2644</ele>
        <time>2019-10-06T10:39:42Z</time>
      </trkpt>
      <trkpt lat="45.71741" lon="6.78846">
        <ele>2644</ele>
        <time>2019-10-06T10:39:43Z</time>
      </trkpt>
      <trkpt lat="45.71738" lon="6.7885">
        <ele>2644</ele>
        <time>2019-10-06T10:39:44Z</time>
      </trkpt>
      <trkpt lat="45.71737" lon="6.78851">
        <ele>2642</ele>
        <time>2019-10-06T10:39:45Z</time>
      </trkpt>
      <trkpt lat="45.71735" lon="6.78853">
        <ele>2642</ele>
        <time>2019-10-06T10:39:46Z</time>
      </trkpt>
      <trkpt lat="45.71733" lon="6.78856">
        <ele>2642</ele>
        <time>2019-10-06T10:39:47Z</time>
      </trkpt>
      <trkpt lat="45.71731" lon="6.78858">
        <ele>2642</ele>
        <time>2019-10-06T10:39:48Z</time>
      </trkpt>
      <trkpt lat="45.71729" lon="6.78859">
        <ele>2641</ele>
        <time>2019-10-06T10:39:49Z</time>
      </trkpt>
      <trkpt lat="45.71727" lon="6.78861">
        <ele>2641</ele>
        <time>2019-10-06T10:39:50Z</time>
      </trkpt>
      <trkpt lat="45.71725" lon="6.78862">
        <ele>2641</ele>
        <time>2019-10-06T10:39:51Z</time>
      </trkpt>
      <trkpt lat="45.71723" lon="6.78864">
        <ele>2641</ele>
        <time>2019-10-06T10:39:52Z</time>
      </trkpt>
      <trkpt lat="45.71721" lon="6.78865">
        <ele>2640</ele>
        <time>2019-10-06T10:39:53Z</time>
      </trkpt>
      <trkpt lat="45.71719" lon="6.78866">
        <ele>2640</ele>
        <time>2019-10-06T10:39:54Z</time>
      </trkpt>
      <trkpt lat="45.71716" lon="6.78867">
        <ele>2640</ele>
        <time>2019-10-06T10:39:55Z</time>
      </trkpt>
      <trkpt lat="45.71714" lon="6.78869">
        <ele>2640</ele>
        <time>2019-10-06T10:39:56Z</time>
      </trkpt>
      <trkpt lat="45.71712" lon="6.7887">
        <ele>2639</ele>
        <time>2019-10-06T10:39:57Z</time>
      </trkpt>
      <trkpt lat="45.71711" lon="6.78871">
        <ele>2639</ele>
        <time>2019-10-06T10:39:58Z</time>
      </trkpt>
      <trkpt lat="45.71708" lon="6.78873">
        <ele>2639</ele>
        <time>2019-10-06T10:39:59Z</time>
      </trkpt>
      <trkpt lat="45.71706" lon="6.78875">
        <ele>2639</ele>
        <time>2019-10-06T10:40:00Z</time>
      </trkpt>
      <trkpt lat="45.71705" lon="6.78877">
        <ele>2638</ele>
        <time>2019-10-06T10:40:01Z</time>
      </trkpt>
      <trkpt lat="45.71702" lon="6.78878">
        <ele>2637</ele>
        <time>2019-10-06T10:40:02Z</time>
      </trkpt>
      <trkpt lat="45.717" lon="6.78878">
        <ele>2637</ele>
        <time>2019-10-06T10:40:03Z</time>
      </trkpt>
      <trkpt lat="45.71698" lon="6.78879">
        <ele>2637</ele>
        <time>2019-10-06T10:40:04Z</time>
      </trkpt>
      <trkpt lat="45.71696" lon="6.78883">
        <ele>2637</ele>
        <time>2019-10-06T10:40:06Z</time>
      </trkpt>
      <trkpt lat="45.71695" lon="6.78885">
        <ele>2637</ele>
        <time>2019-10-06T10:40:07Z</time>
      </trkpt>
      <trkpt lat="45.71695" lon="6.78888">
        <ele>2638</ele>
        <time>2019-10-06T10:40:08Z</time>
      </trkpt>
      <trkpt lat="45.71693" lon="6.78889">
        <ele>2638</ele>
        <time>2019-10-06T10:40:09Z</time>
      </trkpt>
      <trkpt lat="45.71692" lon="6.78891">
        <ele>2638</ele>
        <time>2019-10-06T10:40:10Z</time>
      </trkpt>
      <trkpt lat="45.7169" lon="6.78893">
        <ele>2638</ele>
        <time>2019-10-06T10:40:11Z</time>
      </trkpt>
      <trkpt lat="45.71689" lon="6.78895">
        <ele>2638</ele>
        <time>2019-10-06T10:40:12Z</time>
      </trkpt>
      <trkpt lat="45.71687" lon="6.78897">
        <ele>2638</ele>
        <time>2019-10-06T10:40:13Z</time>
      </trkpt>
      <trkpt lat="45.71686" lon="6.78899">
        <ele>2638</ele>
        <time>2019-10-06T10:40:14Z</time>
      </trkpt>
      <trkpt lat="45.71684" lon="6.78901">
        <ele>2638</ele>
        <time>2019-10-06T10:40:15Z</time>
      </trkpt>
      <trkpt lat="45.71682" lon="6.78903">
        <ele>2638</ele>
        <time>2019-10-06T10:40:16Z</time>
      </trkpt>
      <trkpt lat="45.71681" lon="6.78905">
        <ele>2638</ele>
        <time>2019-10-06T10:40:17Z</time>
      </trkpt>
      <trkpt lat="45.71679" lon="6.78907">
        <ele>2637</ele>
        <time>2019-10-06T10:40:18Z</time>
      </trkpt>
      <trkpt lat="45.71678" lon="6.78909">
        <ele>2636</ele>
        <time>2019-10-06T10:40:19Z</time>
      </trkpt>
      <trkpt lat="45.71676" lon="6.78911">
        <ele>2636</ele>
        <time>2019-10-06T10:40:20Z</time>
      </trkpt>
      <trkpt lat="45.71674" lon="6.78913">
        <ele>2636</ele>
        <time>2019-10-06T10:40:21Z</time>
      </trkpt>
      <trkpt lat="45.71672" lon="6.78915">
        <ele>2635</ele>
        <time>2019-10-06T10:40:22Z</time>
      </trkpt>
      <trkpt lat="45.7167" lon="6.78916">
        <ele>2635</ele>
        <time>2019-10-06T10:40:23Z</time>
      </trkpt>
      <trkpt lat="45.71668" lon="6.78919">
        <ele>2635</ele>
        <time>2019-10-06T10:40:24Z</time>
      </trkpt>
      <trkpt lat="45.71666" lon="6.78921">
        <ele>2634</ele>
        <time>2019-10-06T10:40:25Z</time>
      </trkpt>
      <trkpt lat="45.71664" lon="6.78924">
        <ele>2634</ele>
        <time>2019-10-06T10:40:26Z</time>
      </trkpt>
      <trkpt lat="45.71662" lon="6.78926">
        <ele>2634</ele>
        <time>2019-10-06T10:40:27Z</time>
      </trkpt>
      <trkpt lat="45.7166" lon="6.78929">
        <ele>2634</ele>
        <time>2019-10-06T10:40:28Z</time>
      </trkpt>
      <trkpt lat="45.71658" lon="6.78931">
        <ele>2633</ele>
        <time>2019-10-06T10:40:29Z</time>
      </trkpt>
      <trkpt lat="45.71656" lon="6.78934">
        <ele>2633</ele>
        <time>2019-10-06T10:40:30Z</time>
      </trkpt>
      <trkpt lat="45.71655" lon="6.78936">
        <ele>2632</ele>
        <time>2019-10-06T10:40:31Z</time>
      </trkpt>
      <trkpt lat="45.71653" lon="6.78939">
        <ele>2632</ele>
        <time>2019-10-06T10:40:32Z</time>
      </trkpt>
      <trkpt lat="45.7165" lon="6.78942">
        <ele>2631</ele>
        <time>2019-10-06T10:40:33Z</time>
      </trkpt>
      <trkpt lat="45.71649" lon="6.78942">
        <ele>2631</ele>
        <time>2019-10-06T10:40:34Z</time>
      </trkpt>
      <trkpt lat="45.71647" lon="6.78944">
        <ele>2631</ele>
        <time>2019-10-06T10:40:35Z</time>
      </trkpt>
      <trkpt lat="45.71645" lon="6.78945">
        <ele>2631</ele>
        <time>2019-10-06T10:40:36Z</time>
      </trkpt>
      <trkpt lat="45.71644" lon="6.78947">
        <ele>2631</ele>
        <time>2019-10-06T10:40:37Z</time>
      </trkpt>
      <trkpt lat="45.71642" lon="6.78948">
        <ele>2631</ele>
        <time>2019-10-06T10:40:38Z</time>
      </trkpt>
      <trkpt lat="45.7164" lon="6.78949">
        <ele>2631</ele>
        <time>2019-10-06T10:40:39Z</time>
      </trkpt>
      <trkpt lat="45.71638" lon="6.78951">
        <ele>2631</ele>
        <time>2019-10-06T10:40:40Z</time>
      </trkpt>
      <trkpt lat="45.71636" lon="6.78953">
        <ele>2631</ele>
        <time>2019-10-06T10:40:41Z</time>
      </trkpt>
      <trkpt lat="45.71634" lon="6.78954">
        <ele>2631</ele>
        <time>2019-10-06T10:40:42Z</time>
      </trkpt>
      <trkpt lat="45.71632" lon="6.78955">
        <ele>2631</ele>
        <time>2019-10-06T10:40:43Z</time>
      </trkpt>
      <trkpt lat="45.7163" lon="6.78956">
        <ele>2629</ele>
        <time>2019-10-06T10:40:44Z</time>
      </trkpt>
      <trkpt lat="45.71628" lon="6.78957">
        <ele>2629</ele>
        <time>2019-10-06T10:40:45Z</time>
      </trkpt>
      <trkpt lat="45.71627" lon="6.78958">
        <ele>2629</ele>
        <time>2019-10-06T10:40:46Z</time>
      </trkpt>
      <trkpt lat="45.71623" lon="6.78961">
        <ele>2627</ele>
        <time>2019-10-06T10:40:48Z</time>
      </trkpt>
      <trkpt lat="45.71622" lon="6.78962">
        <ele>2627</ele>
        <time>2019-10-06T10:40:49Z</time>
      </trkpt>
      <trkpt lat="45.7162" lon="6.78963">
        <ele>2626</ele>
        <time>2019-10-06T10:40:50Z</time>
      </trkpt>
      <trkpt lat="45.71618" lon="6.78965">
        <ele>2626</ele>
        <time>2019-10-06T10:40:51Z</time>
      </trkpt>
      <trkpt lat="45.71616" lon="6.78968">
        <ele>2626</ele>
        <time>2019-10-06T10:40:52Z</time>
      </trkpt>
      <trkpt lat="45.71615" lon="6.78968">
        <ele>2626</ele>
        <time>2019-10-06T10:40:53Z</time>
      </trkpt>
      <trkpt lat="45.71612" lon="6.7897">
        <ele>2625</ele>
        <time>2019-10-06T10:40:54Z</time>
      </trkpt>
      <trkpt lat="45.71611" lon="6.78971">
        <ele>2625</ele>
        <time>2019-10-06T10:40:55Z</time>
      </trkpt>
      <trkpt lat="45.71609" lon="6.78973">
        <ele>2624</ele>
        <time>2019-10-06T10:40:56Z</time>
      </trkpt>
      <trkpt lat="45.71606" lon="6.78975">
        <ele>2624</ele>
        <time>2019-10-06T10:40:57Z</time>
      </trkpt>
      <trkpt lat="45.71605" lon="6.78976">
        <ele>2623</ele>
        <time>2019-10-06T10:40:58Z</time>
      </trkpt>
      <trkpt lat="45.71604" lon="6.78978">
        <ele>2622</ele>
        <time>2019-10-06T10:40:59Z</time>
      </trkpt>
      <trkpt lat="45.71602" lon="6.78979">
        <ele>2622</ele>
        <time>2019-10-06T10:41:00Z</time>
      </trkpt>
      <trkpt lat="45.716" lon="6.78981">
        <ele>2622</ele>
        <time>2019-10-06T10:41:01Z</time>
      </trkpt>
      <trkpt lat="45.71598" lon="6.78982">
        <ele>2621</ele>
        <time>2019-10-06T10:41:02Z</time>
      </trkpt>
      <trkpt lat="45.71596" lon="6.78984">
        <ele>2621</ele>
        <time>2019-10-06T10:41:03Z</time>
      </trkpt>
      <trkpt lat="45.71593" lon="6.78987">
        <ele>2621</ele>
        <time>2019-10-06T10:41:04Z</time>
      </trkpt>
      <trkpt lat="45.71592" lon="6.78987">
        <ele>2621</ele>
        <time>2019-10-06T10:41:05Z</time>
      </trkpt>
      <trkpt lat="45.71589" lon="6.7899">
        <ele>2621</ele>
        <time>2019-10-06T10:41:06Z</time>
      </trkpt>
      <trkpt lat="45.71588" lon="6.78991">
        <ele>2621</ele>
        <time>2019-10-06T10:41:07Z</time>
      </trkpt>
      <trkpt lat="45.71586" lon="6.78993">
        <ele>2620</ele>
        <time>2019-10-06T10:41:08Z</time>
      </trkpt>
      <trkpt lat="45.71585" lon="6.78994">
        <ele>2620</ele>
        <time>2019-10-06T10:41:09Z</time>
      </trkpt>
      <trkpt lat="45.71581" lon="6.78998">
        <ele>2620</ele>
        <time>2019-10-06T10:41:11Z</time>
      </trkpt>
      <trkpt lat="45.7158" lon="6.78999">
        <ele>2620</ele>
        <time>2019-10-06T10:41:12Z</time>
      </trkpt>
      <trkpt lat="45.71578" lon="6.79001">
        <ele>2619</ele>
        <time>2019-10-06T10:41:13Z</time>
      </trkpt>
      <trkpt lat="45.71577" lon="6.79002">
        <ele>2619</ele>
        <time>2019-10-06T10:41:14Z</time>
      </trkpt>
      <trkpt lat="45.71575" lon="6.79003">
        <ele>2619</ele>
        <time>2019-10-06T10:41:15Z</time>
      </trkpt>
      <trkpt lat="45.71573" lon="6.79005">
        <ele>2619</ele>
        <time>2019-10-06T10:41:16Z</time>
      </trkpt>
      <trkpt lat="45.71572" lon="6.79006">
        <ele>2619</ele>
        <time>2019-10-06T10:41:17Z</time>
      </trkpt>
      <trkpt lat="45.7157" lon="6.79007">
        <ele>2617</ele>
        <time>2019-10-06T10:41:18Z</time>
      </trkpt>
      <trkpt lat="45.71569" lon="6.79009">
        <ele>2619</ele>
        <time>2019-10-06T10:41:19Z</time>
      </trkpt>
      <trkpt lat="45.71566" lon="6.79011">
        <ele>2617</ele>
        <time>2019-10-06T10:41:21Z</time>
      </trkpt>
      <trkpt lat="45.71563" lon="6.79014">
        <ele>2616</ele>
        <time>2019-10-06T10:41:23Z</time>
      </trkpt>
      <trkpt lat="45.71561" lon="6.79017">
        <ele>2616</ele>
        <time>2019-10-06T10:41:25Z</time>
      </trkpt>
      <trkpt lat="45.71558" lon="6.7902">
        <ele>2615</ele>
        <time>2019-10-06T10:41:27Z</time>
      </trkpt>
      <trkpt lat="45.71557" lon="6.79024">
        <ele>2615</ele>
        <time>2019-10-06T10:41:29Z</time>
      </trkpt>
      <trkpt lat="45.71555" lon="6.79028">
        <ele>2614</ele>
        <time>2019-10-06T10:41:31Z</time>
      </trkpt>
      <trkpt lat="45.71554" lon="6.7903">
        <ele>2613</ele>
        <time>2019-10-06T10:41:32Z</time>
      </trkpt>
      <trkpt lat="45.71553" lon="6.79032">
        <ele>2613</ele>
        <time>2019-10-06T10:41:33Z</time>
      </trkpt>
      <trkpt lat="45.71551" lon="6.79033">
        <ele>2613</ele>
        <time>2019-10-06T10:41:34Z</time>
      </trkpt>
      <trkpt lat="45.71549" lon="6.79035">
        <ele>2612</ele>
        <time>2019-10-06T10:41:35Z</time>
      </trkpt>
      <trkpt lat="45.71548" lon="6.79036">
        <ele>2612</ele>
        <time>2019-10-06T10:41:36Z</time>
      </trkpt>
      <trkpt lat="45.71546" lon="6.79038">
        <ele>2612</ele>
        <time>2019-10-06T10:41:37Z</time>
      </trkpt>
      <trkpt lat="45.71543" lon="6.79041">
        <ele>2611</ele>
        <time>2019-10-06T10:41:39Z</time>
      </trkpt>
      <trkpt lat="45.71541" lon="6.79043">
        <ele>2610</ele>
        <time>2019-10-06T10:41:41Z</time>
      </trkpt>
      <trkpt lat="45.71539" lon="6.79046">
        <ele>2610</ele>
        <time>2019-10-06T10:41:42Z</time>
      </trkpt>
      <trkpt lat="45.71538" lon="6.79048">
        <ele>2609</ele>
        <time>2019-10-06T10:41:43Z</time>
      </trkpt>
      <trkpt lat="45.71535" lon="6.79051">
        <ele>2609</ele>
        <time>2019-10-06T10:41:45Z</time>
      </trkpt>
      <trkpt lat="45.71534" lon="6.79052">
        <ele>2609</ele>
        <time>2019-10-06T10:41:46Z</time>
      </trkpt>
      <trkpt lat="45.71532" lon="6.79054">
        <ele>2609</ele>
        <time>2019-10-06T10:41:47Z</time>
      </trkpt>
      <trkpt lat="45.7153" lon="6.79056">
        <ele>2609</ele>
        <time>2019-10-06T10:41:48Z</time>
      </trkpt>
      <trkpt lat="45.71528" lon="6.79057">
        <ele>2608</ele>
        <time>2019-10-06T10:41:49Z</time>
      </trkpt>
      <trkpt lat="45.71526" lon="6.79058">
        <ele>2608</ele>
        <time>2019-10-06T10:41:50Z</time>
      </trkpt>
      <trkpt lat="45.71524" lon="6.79059">
        <ele>2608</ele>
        <time>2019-10-06T10:41:51Z</time>
      </trkpt>
      <trkpt lat="45.71521" lon="6.7906">
        <ele>2608</ele>
        <time>2019-10-06T10:41:52Z</time>
      </trkpt>
      <trkpt lat="45.71519" lon="6.79062">
        <ele>2607</ele>
        <time>2019-10-06T10:41:53Z</time>
      </trkpt>
      <trkpt lat="45.71517" lon="6.79063">
        <ele>2605</ele>
        <time>2019-10-06T10:41:54Z</time>
      </trkpt>
      <trkpt lat="45.71515" lon="6.79065">
        <ele>2605</ele>
        <time>2019-10-06T10:41:55Z</time>
      </trkpt>
      <trkpt lat="45.71513" lon="6.79066">
        <ele>2605</ele>
        <time>2019-10-06T10:41:56Z</time>
      </trkpt>
      <trkpt lat="45.71511" lon="6.79067">
        <ele>2604</ele>
        <time>2019-10-06T10:41:57Z</time>
      </trkpt>
      <trkpt lat="45.71508" lon="6.79069">
        <ele>2604</ele>
        <time>2019-10-06T10:41:58Z</time>
      </trkpt>
      <trkpt lat="45.71507" lon="6.7907">
        <ele>2604</ele>
        <time>2019-10-06T10:41:59Z</time>
      </trkpt>
      <trkpt lat="45.71505" lon="6.79072">
        <ele>2603</ele>
        <time>2019-10-06T10:42:00Z</time>
      </trkpt>
      <trkpt lat="45.71503" lon="6.79073">
        <ele>2603</ele>
        <time>2019-10-06T10:42:01Z</time>
      </trkpt>
      <trkpt lat="45.71501" lon="6.79078">
        <ele>2603</ele>
        <time>2019-10-06T10:42:03Z</time>
      </trkpt>
      <trkpt lat="45.71501" lon="6.7908">
        <ele>2603</ele>
        <time>2019-10-06T10:42:04Z</time>
      </trkpt>
      <trkpt lat="45.71499" lon="6.79081">
        <ele>2603</ele>
        <time>2019-10-06T10:42:05Z</time>
      </trkpt>
      <trkpt lat="45.71495" lon="6.79082">
        <ele>2603</ele>
        <time>2019-10-06T10:42:07Z</time>
      </trkpt>
      <trkpt lat="45.71494" lon="6.79083">
        <ele>2603</ele>
        <time>2019-10-06T10:42:08Z</time>
      </trkpt>
      <trkpt lat="45.71492" lon="6.79084">
        <ele>2603</ele>
        <time>2019-10-06T10:42:09Z</time>
      </trkpt>
      <trkpt lat="45.7149" lon="6.79086">
        <ele>2602</ele>
        <time>2019-10-06T10:42:10Z</time>
      </trkpt>
      <trkpt lat="45.71489" lon="6.79087">
        <ele>2602</ele>
        <time>2019-10-06T10:42:11Z</time>
      </trkpt>
      <trkpt lat="45.71487" lon="6.79087">
        <ele>2603</ele>
        <time>2019-10-06T10:42:12Z</time>
      </trkpt>
      <trkpt lat="45.71485" lon="6.79088">
        <ele>2603</ele>
        <time>2019-10-06T10:42:13Z</time>
      </trkpt>
      <trkpt lat="45.71483" lon="6.79088">
        <ele>2603</ele>
        <time>2019-10-06T10:42:14Z</time>
      </trkpt>
      <trkpt lat="45.71481" lon="6.79088">
        <ele>2602</ele>
        <time>2019-10-06T10:42:15Z</time>
      </trkpt>
      <trkpt lat="45.71479" lon="6.79088">
        <ele>2602</ele>
        <time>2019-10-06T10:42:16Z</time>
      </trkpt>
      <trkpt lat="45.71477" lon="6.79088">
        <ele>2602</ele>
        <time>2019-10-06T10:42:17Z</time>
      </trkpt>
      <trkpt lat="45.71475" lon="6.79088">
        <ele>2602</ele>
        <time>2019-10-06T10:42:18Z</time>
      </trkpt>
      <trkpt lat="45.71473" lon="6.79088">
        <ele>2602</ele>
        <time>2019-10-06T10:42:19Z</time>
      </trkpt>
      <trkpt lat="45.71471" lon="6.79089">
        <ele>2602</ele>
        <time>2019-10-06T10:42:20Z</time>
      </trkpt>
      <trkpt lat="45.71469" lon="6.79089">
        <ele>2602</ele>
        <time>2019-10-06T10:42:21Z</time>
      </trkpt>
      <trkpt lat="45.71467" lon="6.79089">
        <ele>2601</ele>
        <time>2019-10-06T10:42:22Z</time>
      </trkpt>
      <trkpt lat="45.71464" lon="6.79089">
        <ele>2601</ele>
        <time>2019-10-06T10:42:23Z</time>
      </trkpt>
      <trkpt lat="45.71462" lon="6.79089">
        <ele>2601</ele>
        <time>2019-10-06T10:42:24Z</time>
      </trkpt>
      <trkpt lat="45.7146" lon="6.79088">
        <ele>2601</ele>
        <time>2019-10-06T10:42:25Z</time>
      </trkpt>
      <trkpt lat="45.71459" lon="6.79088">
        <ele>2601</ele>
        <time>2019-10-06T10:42:26Z</time>
      </trkpt>
      <trkpt lat="45.71457" lon="6.79087">
        <ele>2600</ele>
        <time>2019-10-06T10:42:27Z</time>
      </trkpt>
      <trkpt lat="45.71453" lon="6.79086">
        <ele>2599</ele>
        <time>2019-10-06T10:42:29Z</time>
      </trkpt>
      <trkpt lat="45.71452" lon="6.79087">
        <ele>2599</ele>
        <time>2019-10-06T10:42:30Z</time>
      </trkpt>
      <trkpt lat="45.7145" lon="6.79087">
        <ele>2599</ele>
        <time>2019-10-06T10:42:31Z</time>
      </trkpt>
      <trkpt lat="45.71446" lon="6.79087">
        <ele>2598</ele>
        <time>2019-10-06T10:42:33Z</time>
      </trkpt>
      <trkpt lat="45.71443" lon="6.79087">
        <ele>2598</ele>
        <time>2019-10-06T10:42:35Z</time>
      </trkpt>
      <trkpt lat="45.7144" lon="6.79088">
        <ele>2597</ele>
        <time>2019-10-06T10:42:37Z</time>
      </trkpt>
      <trkpt lat="45.71437" lon="6.79091">
        <ele>2596</ele>
        <time>2019-10-06T10:42:39Z</time>
      </trkpt>
      <trkpt lat="45.71433" lon="6.79093">
        <ele>2595</ele>
        <time>2019-10-06T10:42:41Z</time>
      </trkpt>
      <trkpt lat="45.7143" lon="6.79094">
        <ele>2595</ele>
        <time>2019-10-06T10:42:43Z</time>
      </trkpt>
      <trkpt lat="45.71428" lon="6.79097">
        <ele>2593</ele>
        <time>2019-10-06T10:42:45Z</time>
      </trkpt>
      <trkpt lat="45.71425" lon="6.791">
        <ele>2592</ele>
        <time>2019-10-06T10:42:47Z</time>
      </trkpt>
      <trkpt lat="45.71423" lon="6.79101">
        <ele>2591</ele>
        <time>2019-10-06T10:42:48Z</time>
      </trkpt>
      <trkpt lat="45.71422" lon="6.79102">
        <ele>2591</ele>
        <time>2019-10-06T10:42:49Z</time>
      </trkpt>
      <trkpt lat="45.71419" lon="6.79104">
        <ele>2589</ele>
        <time>2019-10-06T10:42:51Z</time>
      </trkpt>
      <trkpt lat="45.71417" lon="6.79106">
        <ele>2588</ele>
        <time>2019-10-06T10:42:52Z</time>
      </trkpt>
      <trkpt lat="45.71415" lon="6.79106">
        <ele>2588</ele>
        <time>2019-10-06T10:42:53Z</time>
      </trkpt>
      <trkpt lat="45.71412" lon="6.79107">
        <ele>2588</ele>
        <time>2019-10-06T10:42:55Z</time>
      </trkpt>
      <trkpt lat="45.71408" lon="6.79107">
        <ele>2587</ele>
        <time>2019-10-06T10:42:57Z</time>
      </trkpt>
      <trkpt lat="45.71406" lon="6.79108">
        <ele>2587</ele>
        <time>2019-10-06T10:42:58Z</time>
      </trkpt>
      <trkpt lat="45.71405" lon="6.79108">
        <ele>2586</ele>
        <time>2019-10-06T10:42:59Z</time>
      </trkpt>
      <trkpt lat="45.71403" lon="6.79109">
        <ele>2584</ele>
        <time>2019-10-06T10:43:00Z</time>
      </trkpt>
      <trkpt lat="45.71402" lon="6.79109">
        <ele>2584</ele>
        <time>2019-10-06T10:43:01Z</time>
      </trkpt>
      <trkpt lat="45.714" lon="6.7911">
        <ele>2584</ele>
        <time>2019-10-06T10:43:02Z</time>
      </trkpt>
      <trkpt lat="45.71398" lon="6.7911">
        <ele>2584</ele>
        <time>2019-10-06T10:43:03Z</time>
      </trkpt>
      <trkpt lat="45.71394" lon="6.79111">
        <ele>2584</ele>
        <time>2019-10-06T10:43:05Z</time>
      </trkpt>
      <trkpt lat="45.71393" lon="6.79113">
        <ele>2584</ele>
        <time>2019-10-06T10:43:06Z</time>
      </trkpt>
      <trkpt lat="45.71391" lon="6.79114">
        <ele>2583</ele>
        <time>2019-10-06T10:43:07Z</time>
      </trkpt>
      <trkpt lat="45.71387" lon="6.79115">
        <ele>2581</ele>
        <time>2019-10-06T10:43:09Z</time>
      </trkpt>
      <trkpt lat="45.71384" lon="6.79118">
        <ele>2580</ele>
        <time>2019-10-06T10:43:11Z</time>
      </trkpt>
      <trkpt lat="45.71383" lon="6.79119">
        <ele>2580</ele>
        <time>2019-10-06T10:43:12Z</time>
      </trkpt>
      <trkpt lat="45.7138" lon="6.79121">
        <ele>2578</ele>
        <time>2019-10-06T10:43:14Z</time>
      </trkpt>
      <trkpt lat="45.71378" lon="6.79124">
        <ele>2578</ele>
        <time>2019-10-06T10:43:16Z</time>
      </trkpt>
      <trkpt lat="45.71376" lon="6.79127">
        <ele>2577</ele>
        <time>2019-10-06T10:43:18Z</time>
      </trkpt>
      <trkpt lat="45.71373" lon="6.7913">
        <ele>2575</ele>
        <time>2019-10-06T10:43:20Z</time>
      </trkpt>
      <trkpt lat="45.7137" lon="6.79131">
        <ele>2574</ele>
        <time>2019-10-06T10:43:22Z</time>
      </trkpt>
      <trkpt lat="45.71368" lon="6.79134">
        <ele>2574</ele>
        <time>2019-10-06T10:43:24Z</time>
      </trkpt>
      <trkpt lat="45.71367" lon="6.79136">
        <ele>2573</ele>
        <time>2019-10-06T10:43:25Z</time>
      </trkpt>
      <trkpt lat="45.71366" lon="6.79138">
        <ele>2573</ele>
        <time>2019-10-06T10:43:26Z</time>
      </trkpt>
      <trkpt lat="45.71365" lon="6.7914">
        <ele>2573</ele>
        <time>2019-10-06T10:43:27Z</time>
      </trkpt>
      <trkpt lat="45.71362" lon="6.79144">
        <ele>2571</ele>
        <time>2019-10-06T10:43:29Z</time>
      </trkpt>
      <trkpt lat="45.71359" lon="6.79146">
        <ele>2571</ele>
        <time>2019-10-06T10:43:31Z</time>
      </trkpt>
      <trkpt lat="45.71358" lon="6.79147">
        <ele>2569</ele>
        <time>2019-10-06T10:43:32Z</time>
      </trkpt>
      <trkpt lat="45.71356" lon="6.79149">
        <ele>2568</ele>
        <time>2019-10-06T10:43:33Z</time>
      </trkpt>
      <trkpt lat="45.71353" lon="6.79151">
        <ele>2567</ele>
        <time>2019-10-06T10:43:35Z</time>
      </trkpt>
      <trkpt lat="45.71349" lon="6.79153">
        <ele>2567</ele>
        <time>2019-10-06T10:43:37Z</time>
      </trkpt>
      <trkpt lat="45.71348" lon="6.79154">
        <ele>2567</ele>
        <time>2019-10-06T10:43:38Z</time>
      </trkpt>
      <trkpt lat="45.71345" lon="6.79157">
        <ele>2566</ele>
        <time>2019-10-06T10:43:40Z</time>
      </trkpt>
      <trkpt lat="45.71342" lon="6.79159">
        <ele>2565</ele>
        <time>2019-10-06T10:43:42Z</time>
      </trkpt>
      <trkpt lat="45.7134" lon="6.7916">
        <ele>2564</ele>
        <time>2019-10-06T10:43:43Z</time>
      </trkpt>
      <trkpt lat="45.71339" lon="6.79161">
        <ele>2564</ele>
        <time>2019-10-06T10:43:44Z</time>
      </trkpt>
      <trkpt lat="45.71336" lon="6.79164">
        <ele>2564</ele>
        <time>2019-10-06T10:43:46Z</time>
      </trkpt>
      <trkpt lat="45.71333" lon="6.79166">
        <ele>2563</ele>
        <time>2019-10-06T10:43:48Z</time>
      </trkpt>
      <trkpt lat="45.71331" lon="6.79168">
        <ele>2562</ele>
        <time>2019-10-06T10:43:50Z</time>
      </trkpt>
      <trkpt lat="45.71328" lon="6.79169">
        <ele>2561</ele>
        <time>2019-10-06T10:43:52Z</time>
      </trkpt>
      <trkpt lat="45.71325" lon="6.79169">
        <ele>2560</ele>
        <time>2019-10-06T10:43:54Z</time>
      </trkpt>
      <trkpt lat="45.71323" lon="6.7917">
        <ele>2560</ele>
        <time>2019-10-06T10:43:56Z</time>
      </trkpt>
      <trkpt lat="45.71321" lon="6.7917">
        <ele>2559</ele>
        <time>2019-10-06T10:43:57Z</time>
      </trkpt>
      <trkpt lat="45.71319" lon="6.79171">
        <ele>2559</ele>
        <time>2019-10-06T10:43:58Z</time>
      </trkpt>
      <trkpt lat="45.71317" lon="6.79172">
        <ele>2560</ele>
        <time>2019-10-06T10:43:59Z</time>
      </trkpt>
      <trkpt lat="45.71315" lon="6.79173">
        <ele>2560</ele>
        <time>2019-10-06T10:44:00Z</time>
      </trkpt>
      <trkpt lat="45.71314" lon="6.79174">
        <ele>2560</ele>
        <time>2019-10-06T10:44:01Z</time>
      </trkpt>
      <trkpt lat="45.7131" lon="6.79176">
        <ele>2560</ele>
        <time>2019-10-06T10:44:03Z</time>
      </trkpt>
      <trkpt lat="45.71309" lon="6.79177">
        <ele>2560</ele>
        <time>2019-10-06T10:44:04Z</time>
      </trkpt>
      <trkpt lat="45.71307" lon="6.79179">
        <ele>2560</ele>
        <time>2019-10-06T10:44:05Z</time>
      </trkpt>
      <trkpt lat="45.71305" lon="6.7918">
        <ele>2560</ele>
        <time>2019-10-06T10:44:06Z</time>
      </trkpt>
      <trkpt lat="45.71303" lon="6.79182">
        <ele>2560</ele>
        <time>2019-10-06T10:44:07Z</time>
      </trkpt>
      <trkpt lat="45.71302" lon="6.79183">
        <ele>2560</ele>
        <time>2019-10-06T10:44:08Z</time>
      </trkpt>
      <trkpt lat="45.713" lon="6.79184">
        <ele>2559</ele>
        <time>2019-10-06T10:44:09Z</time>
      </trkpt>
      <trkpt lat="45.71297" lon="6.79185">
        <ele>2559</ele>
        <time>2019-10-06T10:44:11Z</time>
      </trkpt>
      <trkpt lat="45.71294" lon="6.79188">
        <ele>2559</ele>
        <time>2019-10-06T10:44:13Z</time>
      </trkpt>
      <trkpt lat="45.71292" lon="6.7919">
        <ele>2557</ele>
        <time>2019-10-06T10:44:15Z</time>
      </trkpt>
      <trkpt lat="45.71289" lon="6.79192">
        <ele>2557</ele>
        <time>2019-10-06T10:44:17Z</time>
      </trkpt>
      <trkpt lat="45.71286" lon="6.79193">
        <ele>2557</ele>
        <time>2019-10-06T10:44:19Z</time>
      </trkpt>
      <trkpt lat="45.71284" lon="6.79195">
        <ele>2557</ele>
        <time>2019-10-06T10:44:20Z</time>
      </trkpt>
      <trkpt lat="45.71283" lon="6.79196">
        <ele>2557</ele>
        <time>2019-10-06T10:44:21Z</time>
      </trkpt>
      <trkpt lat="45.7128" lon="6.79199">
        <ele>2556</ele>
        <time>2019-10-06T10:44:23Z</time>
      </trkpt>
      <trkpt lat="45.71277" lon="6.79201">
        <ele>2555</ele>
        <time>2019-10-06T10:44:25Z</time>
      </trkpt>
      <trkpt lat="45.71274" lon="6.79202">
        <ele>2555</ele>
        <time>2019-10-06T10:44:27Z</time>
      </trkpt>
      <trkpt lat="45.71272" lon="6.79203">
        <ele>2555</ele>
        <time>2019-10-06T10:44:28Z</time>
      </trkpt>
      <trkpt lat="45.71269" lon="6.79206">
        <ele>2554</ele>
        <time>2019-10-06T10:44:30Z</time>
      </trkpt>
      <trkpt lat="45.71268" lon="6.79208">
        <ele>2554</ele>
        <time>2019-10-06T10:44:31Z</time>
      </trkpt>
      <trkpt lat="45.71266" lon="6.7921">
        <ele>2554</ele>
        <time>2019-10-06T10:44:32Z</time>
      </trkpt>
      <trkpt lat="45.71264" lon="6.79211">
        <ele>2554</ele>
        <time>2019-10-06T10:44:33Z</time>
      </trkpt>
      <trkpt lat="45.71263" lon="6.79213">
        <ele>2554</ele>
        <time>2019-10-06T10:44:34Z</time>
      </trkpt>
      <trkpt lat="45.7126" lon="6.79215">
        <ele>2553</ele>
        <time>2019-10-06T10:44:36Z</time>
      </trkpt>
      <trkpt lat="45.71257" lon="6.79217">
        <ele>2553</ele>
        <time>2019-10-06T10:44:38Z</time>
      </trkpt>
      <trkpt lat="45.71253" lon="6.79219">
        <ele>2553</ele>
        <time>2019-10-06T10:44:40Z</time>
      </trkpt>
      <trkpt lat="45.7125" lon="6.79222">
        <ele>2553</ele>
        <time>2019-10-06T10:44:42Z</time>
      </trkpt>
      <trkpt lat="45.71247" lon="6.79224">
        <ele>2552</ele>
        <time>2019-10-06T10:44:44Z</time>
      </trkpt>
      <trkpt lat="45.71246" lon="6.79226">
        <ele>2552</ele>
        <time>2019-10-06T10:44:45Z</time>
      </trkpt>
      <trkpt lat="45.71244" lon="6.79227">
        <ele>2552</ele>
        <time>2019-10-06T10:44:46Z</time>
      </trkpt>
      <trkpt lat="45.71242" lon="6.7923">
        <ele>2551</ele>
        <time>2019-10-06T10:44:48Z</time>
      </trkpt>
      <trkpt lat="45.7124" lon="6.79232">
        <ele>2551</ele>
        <time>2019-10-06T10:44:49Z</time>
      </trkpt>
      <trkpt lat="45.71239" lon="6.79234">
        <ele>2551</ele>
        <time>2019-10-06T10:44:50Z</time>
      </trkpt>
      <trkpt lat="45.71237" lon="6.79235">
        <ele>2551</ele>
        <time>2019-10-06T10:44:51Z</time>
      </trkpt>
      <trkpt lat="45.71235" lon="6.79237">
        <ele>2550</ele>
        <time>2019-10-06T10:44:52Z</time>
      </trkpt>
      <trkpt lat="45.71234" lon="6.79238">
        <ele>2549</ele>
        <time>2019-10-06T10:44:53Z</time>
      </trkpt>
      <trkpt lat="45.71232" lon="6.7924">
        <ele>2549</ele>
        <time>2019-10-06T10:44:54Z</time>
      </trkpt>
      <trkpt lat="45.7123" lon="6.79241">
        <ele>2549</ele>
        <time>2019-10-06T10:44:55Z</time>
      </trkpt>
      <trkpt lat="45.71229" lon="6.79243">
        <ele>2549</ele>
        <time>2019-10-06T10:44:56Z</time>
      </trkpt>
      <trkpt lat="45.71226" lon="6.79246">
        <ele>2549</ele>
        <time>2019-10-06T10:44:58Z</time>
      </trkpt>
      <trkpt lat="45.71223" lon="6.79249">
        <ele>2549</ele>
        <time>2019-10-06T10:45:00Z</time>
      </trkpt>
      <trkpt lat="45.7122" lon="6.7925">
        <ele>2545</ele>
        <time>2019-10-06T10:45:02Z</time>
      </trkpt>
      <trkpt lat="45.71217" lon="6.79252">
        <ele>2545</ele>
        <time>2019-10-06T10:45:04Z</time>
      </trkpt>
      <trkpt lat="45.71215" lon="6.79255">
        <ele>2545</ele>
        <time>2019-10-06T10:45:06Z</time>
      </trkpt>
      <trkpt lat="45.71213" lon="6.79257">
        <ele>2544</ele>
        <time>2019-10-06T10:45:08Z</time>
      </trkpt>
      <trkpt lat="45.7121" lon="6.79261">
        <ele>2543</ele>
        <time>2019-10-06T10:45:10Z</time>
      </trkpt>
      <trkpt lat="45.71209" lon="6.79262">
        <ele>2542</ele>
        <time>2019-10-06T10:45:11Z</time>
      </trkpt>
      <trkpt lat="45.71208" lon="6.79263">
        <ele>2542</ele>
        <time>2019-10-06T10:45:12Z</time>
      </trkpt>
      <trkpt lat="45.71207" lon="6.79265">
        <ele>2542</ele>
        <time>2019-10-06T10:45:13Z</time>
      </trkpt>
      <trkpt lat="45.71205" lon="6.79267">
        <ele>2542</ele>
        <time>2019-10-06T10:45:14Z</time>
      </trkpt>
      <trkpt lat="45.71203" lon="6.79271">
        <ele>2541</ele>
        <time>2019-10-06T10:45:15Z</time>
      </trkpt>
      <trkpt lat="45.71203" lon="6.79272">
        <ele>2541</ele>
        <time>2019-10-06T10:45:16Z</time>
      </trkpt>
      <trkpt lat="45.71202" lon="6.79273">
        <ele>2541</ele>
        <time>2019-10-06T10:45:17Z</time>
      </trkpt>
      <trkpt lat="45.71201" lon="6.79275">
        <ele>2540</ele>
        <time>2019-10-06T10:45:18Z</time>
      </trkpt>
      <trkpt lat="45.71199" lon="6.79277">
        <ele>2540</ele>
        <time>2019-10-06T10:45:19Z</time>
      </trkpt>
      <trkpt lat="45.71196" lon="6.7928">
        <ele>2540</ele>
        <time>2019-10-06T10:45:21Z</time>
      </trkpt>
      <trkpt lat="45.71194" lon="6.79283">
        <ele>2539</ele>
        <time>2019-10-06T10:45:23Z</time>
      </trkpt>
      <trkpt lat="45.71192" lon="6.79285">
        <ele>2539</ele>
        <time>2019-10-06T10:45:25Z</time>
      </trkpt>
      <trkpt lat="45.7119" lon="6.79286">
        <ele>2539</ele>
        <time>2019-10-06T10:45:26Z</time>
      </trkpt>
      <trkpt lat="45.71189" lon="6.79288">
        <ele>2539</ele>
        <time>2019-10-06T10:45:27Z</time>
      </trkpt>
      <trkpt lat="45.71187" lon="6.79289">
        <ele>2539</ele>
        <time>2019-10-06T10:45:28Z</time>
      </trkpt>
      <trkpt lat="45.71185" lon="6.7929">
        <ele>2539</ele>
        <time>2019-10-06T10:45:29Z</time>
      </trkpt>
      <trkpt lat="45.71184" lon="6.79292">
        <ele>2539</ele>
        <time>2019-10-06T10:45:30Z</time>
      </trkpt>
      <trkpt lat="45.71182" lon="6.79293">
        <ele>2538</ele>
        <time>2019-10-06T10:45:31Z</time>
      </trkpt>
      <trkpt lat="45.7118" lon="6.79295">
        <ele>2538</ele>
        <time>2019-10-06T10:45:32Z</time>
      </trkpt>
      <trkpt lat="45.71178" lon="6.79298">
        <ele>2537</ele>
        <time>2019-10-06T10:45:34Z</time>
      </trkpt>
      <trkpt lat="45.71177" lon="6.79302">
        <ele>2537</ele>
        <time>2019-10-06T10:45:36Z</time>
      </trkpt>
      <trkpt lat="45.71175" lon="6.79307">
        <ele>2537</ele>
        <time>2019-10-06T10:45:38Z</time>
      </trkpt>
      <trkpt lat="45.71173" lon="6.79309">
        <ele>2536</ele>
        <time>2019-10-06T10:45:40Z</time>
      </trkpt>
      <trkpt lat="45.71171" lon="6.7931">
        <ele>2536</ele>
        <time>2019-10-06T10:45:42Z</time>
      </trkpt>
      <trkpt lat="45.71169" lon="6.79313">
        <ele>2536</ele>
        <time>2019-10-06T10:45:44Z</time>
      </trkpt>
      <trkpt lat="45.71167" lon="6.79314">
        <ele>2535</ele>
        <time>2019-10-06T10:45:45Z</time>
      </trkpt>
      <trkpt lat="45.71165" lon="6.79315">
        <ele>2533</ele>
        <time>2019-10-06T10:45:46Z</time>
      </trkpt>
      <trkpt lat="45.71163" lon="6.79316">
        <ele>2533</ele>
        <time>2019-10-06T10:45:47Z</time>
      </trkpt>
      <trkpt lat="45.71162" lon="6.79316">
        <ele>2533</ele>
        <time>2019-10-06T10:45:48Z</time>
      </trkpt>
      <trkpt lat="45.71159" lon="6.79318">
        <ele>2532</ele>
        <time>2019-10-06T10:45:50Z</time>
      </trkpt>
      <trkpt lat="45.71157" lon="6.79319">
        <ele>2532</ele>
        <time>2019-10-06T10:45:51Z</time>
      </trkpt>
      <trkpt lat="45.71156" lon="6.79321">
        <ele>2532</ele>
        <time>2019-10-06T10:45:52Z</time>
      </trkpt>
      <trkpt lat="45.71155" lon="6.79323">
        <ele>2531</ele>
        <time>2019-10-06T10:45:53Z</time>
      </trkpt>
      <trkpt lat="45.71152" lon="6.79326">
        <ele>2530</ele>
        <time>2019-10-06T10:45:55Z</time>
      </trkpt>
      <trkpt lat="45.71151" lon="6.79328">
        <ele>2529</ele>
        <time>2019-10-06T10:45:56Z</time>
      </trkpt>
      <trkpt lat="45.7115" lon="6.79331">
        <ele>2528</ele>
        <time>2019-10-06T10:45:57Z</time>
      </trkpt>
      <trkpt lat="45.71149" lon="6.79333">
        <ele>2528</ele>
        <time>2019-10-06T10:45:58Z</time>
      </trkpt>
      <trkpt lat="45.71148" lon="6.79335">
        <ele>2528</ele>
        <time>2019-10-06T10:45:59Z</time>
      </trkpt>
      <trkpt lat="45.71146" lon="6.79337">
        <ele>2528</ele>
        <time>2019-10-06T10:46:00Z</time>
      </trkpt>
      <trkpt lat="45.71144" lon="6.79339">
        <ele>2528</ele>
        <time>2019-10-06T10:46:01Z</time>
      </trkpt>
      <trkpt lat="45.71142" lon="6.79341">
        <ele>2528</ele>
        <time>2019-10-06T10:46:02Z</time>
      </trkpt>
      <trkpt lat="45.71141" lon="6.79342">
        <ele>2528</ele>
        <time>2019-10-06T10:46:03Z</time>
      </trkpt>
      <trkpt lat="45.71139" lon="6.79344">
        <ele>2528</ele>
        <time>2019-10-06T10:46:04Z</time>
      </trkpt>
      <trkpt lat="45.71137" lon="6.79346">
        <ele>2528</ele>
        <time>2019-10-06T10:46:05Z</time>
      </trkpt>
      <trkpt lat="45.71136" lon="6.79348">
        <ele>2528</ele>
        <time>2019-10-06T10:46:06Z</time>
      </trkpt>
      <trkpt lat="45.71133" lon="6.79353">
        <ele>2527</ele>
        <time>2019-10-06T10:46:08Z</time>
      </trkpt>
      <trkpt lat="45.71132" lon="6.79354">
        <ele>2527</ele>
        <time>2019-10-06T10:46:09Z</time>
      </trkpt>
      <trkpt lat="45.71132" lon="6.79355">
        <ele>2527</ele>
        <time>2019-10-06T10:46:10Z</time>
      </trkpt>
      <trkpt lat="45.71129" lon="6.79358">
        <ele>2527</ele>
        <time>2019-10-06T10:46:11Z</time>
      </trkpt>
      <trkpt lat="45.71129" lon="6.79359">
        <ele>2527</ele>
        <time>2019-10-06T10:46:12Z</time>
      </trkpt>
      <trkpt lat="45.71127" lon="6.79361">
        <ele>2527</ele>
        <time>2019-10-06T10:46:13Z</time>
      </trkpt>
      <trkpt lat="45.71126" lon="6.79363">
        <ele>2527</ele>
        <time>2019-10-06T10:46:14Z</time>
      </trkpt>
      <trkpt lat="45.71125" lon="6.79366">
        <ele>2526</ele>
        <time>2019-10-06T10:46:15Z</time>
      </trkpt>
      <trkpt lat="45.71124" lon="6.79368">
        <ele>2525</ele>
        <time>2019-10-06T10:46:16Z</time>
      </trkpt>
      <trkpt lat="45.71124" lon="6.79371">
        <ele>2525</ele>
        <time>2019-10-06T10:46:17Z</time>
      </trkpt>
      <trkpt lat="45.71123" lon="6.79373">
        <ele>2525</ele>
        <time>2019-10-06T10:46:18Z</time>
      </trkpt>
      <trkpt lat="45.71122" lon="6.79376">
        <ele>2525</ele>
        <time>2019-10-06T10:46:19Z</time>
      </trkpt>
      <trkpt lat="45.71121" lon="6.7938">
        <ele>2525</ele>
        <time>2019-10-06T10:46:21Z</time>
      </trkpt>
      <trkpt lat="45.71119" lon="6.79385">
        <ele>2525</ele>
        <time>2019-10-06T10:46:23Z</time>
      </trkpt>
      <trkpt lat="45.71116" lon="6.79388">
        <ele>2524</ele>
        <time>2019-10-06T10:46:25Z</time>
      </trkpt>
      <trkpt lat="45.71115" lon="6.7939">
        <ele>2524</ele>
        <time>2019-10-06T10:46:26Z</time>
      </trkpt>
      <trkpt lat="45.71113" lon="6.79393">
        <ele>2524</ele>
        <time>2019-10-06T10:46:27Z</time>
      </trkpt>
      <trkpt lat="45.71112" lon="6.79394">
        <ele>2524</ele>
        <time>2019-10-06T10:46:28Z</time>
      </trkpt>
      <trkpt lat="45.7111" lon="6.79398">
        <ele>2523</ele>
        <time>2019-10-06T10:46:30Z</time>
      </trkpt>
      <trkpt lat="45.71108" lon="6.79402">
        <ele>2523</ele>
        <time>2019-10-06T10:46:32Z</time>
      </trkpt>
      <trkpt lat="45.71106" lon="6.79407">
        <ele>2523</ele>
        <time>2019-10-06T10:46:34Z</time>
      </trkpt>
      <trkpt lat="45.71105" lon="6.79411">
        <ele>2522</ele>
        <time>2019-10-06T10:46:36Z</time>
      </trkpt>
      <trkpt lat="45.71105" lon="6.79415">
        <ele>2522</ele>
        <time>2019-10-06T10:46:38Z</time>
      </trkpt>
      <trkpt lat="45.71106" lon="6.79419">
        <ele>2520</ele>
        <time>2019-10-06T10:46:40Z</time>
      </trkpt>
      <trkpt lat="45.71107" lon="6.79423">
        <ele>2519</ele>
        <time>2019-10-06T10:46:42Z</time>
      </trkpt>
      <trkpt lat="45.71107" lon="6.79427">
        <ele>2517</ele>
        <time>2019-10-06T10:46:44Z</time>
      </trkpt>
      <trkpt lat="45.71107" lon="6.79431">
        <ele>2517</ele>
        <time>2019-10-06T10:46:46Z</time>
      </trkpt>
      <trkpt lat="45.71106" lon="6.79435">
        <ele>2516</ele>
        <time>2019-10-06T10:46:48Z</time>
      </trkpt>
      <trkpt lat="45.71106" lon="6.79439">
        <ele>2515</ele>
        <time>2019-10-06T10:46:50Z</time>
      </trkpt>
      <trkpt lat="45.71105" lon="6.79442">
        <ele>2515</ele>
        <time>2019-10-06T10:46:52Z</time>
      </trkpt>
      <trkpt lat="45.71105" lon="6.79446">
        <ele>2514</ele>
        <time>2019-10-06T10:46:54Z</time>
      </trkpt>
      <trkpt lat="45.71106" lon="6.79449">
        <ele>2513</ele>
        <time>2019-10-06T10:46:57Z</time>
      </trkpt>
      <trkpt lat="45.71106" lon="6.79449">
        <ele>2512</ele>
        <time>2019-10-06T10:46:58Z</time>
      </trkpt>
      <trkpt lat="45.71108" lon="6.79452">
        <ele>2512</ele>
        <time>2019-10-06T10:46:59Z</time>
      </trkpt>
      <trkpt lat="45.71109" lon="6.79455">
        <ele>2510</ele>
        <time>2019-10-06T10:47:01Z</time>
      </trkpt>
      <trkpt lat="45.7111" lon="6.79458">
        <ele>2510</ele>
        <time>2019-10-06T10:47:03Z</time>
      </trkpt>
      <trkpt lat="45.7111" lon="6.79462">
        <ele>2507</ele>
        <time>2019-10-06T10:47:05Z</time>
      </trkpt>
      <trkpt lat="45.71112" lon="6.79466">
        <ele>2506</ele>
        <time>2019-10-06T10:47:07Z</time>
      </trkpt>
      <trkpt lat="45.71112" lon="6.7947">
        <ele>2506</ele>
        <time>2019-10-06T10:47:09Z</time>
      </trkpt>
      <trkpt lat="45.71112" lon="6.79475">
        <ele>2505</ele>
        <time>2019-10-06T10:47:11Z</time>
      </trkpt>
      <trkpt lat="45.71111" lon="6.79478">
        <ele>2505</ele>
        <time>2019-10-06T10:47:12Z</time>
      </trkpt>
      <trkpt lat="45.71112" lon="6.79483">
        <ele>2505</ele>
        <time>2019-10-06T10:47:14Z</time>
      </trkpt>
      <trkpt lat="45.71111" lon="6.79487">
        <ele>2505</ele>
        <time>2019-10-06T10:47:16Z</time>
      </trkpt>
      <trkpt lat="45.71111" lon="6.79492">
        <ele>2504</ele>
        <time>2019-10-06T10:47:18Z</time>
      </trkpt>
      <trkpt lat="45.71111" lon="6.79496">
        <ele>2503</ele>
        <time>2019-10-06T10:47:20Z</time>
      </trkpt>
      <trkpt lat="45.7111" lon="6.79501">
        <ele>2502</ele>
        <time>2019-10-06T10:47:22Z</time>
      </trkpt>
      <trkpt lat="45.7111" lon="6.79504">
        <ele>2501</ele>
        <time>2019-10-06T10:47:23Z</time>
      </trkpt>
      <trkpt lat="45.7111" lon="6.79507">
        <ele>2501</ele>
        <time>2019-10-06T10:47:24Z</time>
      </trkpt>
      <trkpt lat="45.7111" lon="6.79511">
        <ele>2501</ele>
        <time>2019-10-06T10:47:25Z</time>
      </trkpt>
      <trkpt lat="45.7111" lon="6.79513">
        <ele>2500</ele>
        <time>2019-10-06T10:47:26Z</time>
      </trkpt>
      <trkpt lat="45.7111" lon="6.79514">
        <ele>2500</ele>
        <time>2019-10-06T10:47:27Z</time>
      </trkpt>
      <trkpt lat="45.71111" lon="6.79517">
        <ele>2500</ele>
        <time>2019-10-06T10:47:28Z</time>
      </trkpt>
      <trkpt lat="45.71112" lon="6.79519">
        <ele>2499</ele>
        <time>2019-10-06T10:47:29Z</time>
      </trkpt>
      <trkpt lat="45.71112" lon="6.79522">
        <ele>2499</ele>
        <time>2019-10-06T10:47:30Z</time>
      </trkpt>
      <trkpt lat="45.71111" lon="6.79524">
        <ele>2499</ele>
        <time>2019-10-06T10:47:31Z</time>
      </trkpt>
      <trkpt lat="45.71111" lon="6.79527">
        <ele>2499</ele>
        <time>2019-10-06T10:47:32Z</time>
      </trkpt>
      <trkpt lat="45.7111" lon="6.7953">
        <ele>2499</ele>
        <time>2019-10-06T10:47:33Z</time>
      </trkpt>
      <trkpt lat="45.71109" lon="6.79533">
        <ele>2499</ele>
        <time>2019-10-06T10:47:34Z</time>
      </trkpt>
      <trkpt lat="45.71108" lon="6.79535">
        <ele>2498</ele>
        <time>2019-10-06T10:47:35Z</time>
      </trkpt>
      <trkpt lat="45.71108" lon="6.79538">
        <ele>2498</ele>
        <time>2019-10-06T10:47:36Z</time>
      </trkpt>
      <trkpt lat="45.71107" lon="6.79541">
        <ele>2498</ele>
        <time>2019-10-06T10:47:37Z</time>
      </trkpt>
      <trkpt lat="45.71106" lon="6.79545">
        <ele>2498</ele>
        <time>2019-10-06T10:47:39Z</time>
      </trkpt>
      <trkpt lat="45.71105" lon="6.79549">
        <ele>2496</ele>
        <time>2019-10-06T10:47:41Z</time>
      </trkpt>
      <trkpt lat="45.71103" lon="6.79553">
        <ele>2495</ele>
        <time>2019-10-06T10:47:43Z</time>
      </trkpt>
      <trkpt lat="45.71101" lon="6.79556">
        <ele>2493</ele>
        <time>2019-10-06T10:47:45Z</time>
      </trkpt>
      <trkpt lat="45.711" lon="6.7956">
        <ele>2493</ele>
        <time>2019-10-06T10:47:47Z</time>
      </trkpt>
      <trkpt lat="45.71099" lon="6.79564">
        <ele>2492</ele>
        <time>2019-10-06T10:47:49Z</time>
      </trkpt>
      <trkpt lat="45.71098" lon="6.79568">
        <ele>2491</ele>
        <time>2019-10-06T10:47:51Z</time>
      </trkpt>
      <trkpt lat="45.71096" lon="6.7957">
        <ele>2490</ele>
        <time>2019-10-06T10:47:52Z</time>
      </trkpt>
      <trkpt lat="45.71095" lon="6.79573">
        <ele>2489</ele>
        <time>2019-10-06T10:47:54Z</time>
      </trkpt>
      <trkpt lat="45.71093" lon="6.79578">
        <ele>2487</ele>
        <time>2019-10-06T10:47:56Z</time>
      </trkpt>
      <trkpt lat="45.71092" lon="6.79581">
        <ele>2487</ele>
        <time>2019-10-06T10:47:58Z</time>
      </trkpt>
      <trkpt lat="45.71093" lon="6.79583">
        <ele>2487</ele>
        <time>2019-10-06T10:48:00Z</time>
      </trkpt>
      <trkpt lat="45.71093" lon="6.79587">
        <ele>2487</ele>
        <time>2019-10-06T10:48:02Z</time>
      </trkpt>
      <trkpt lat="45.71093" lon="6.7959">
        <ele>2487</ele>
        <time>2019-10-06T10:48:04Z</time>
      </trkpt>
      <trkpt lat="45.71093" lon="6.79592">
        <ele>2487</ele>
        <time>2019-10-06T10:48:06Z</time>
      </trkpt>
      <trkpt lat="45.71091" lon="6.79594">
        <ele>2487</ele>
        <time>2019-10-06T10:48:08Z</time>
      </trkpt>
      <trkpt lat="45.71089" lon="6.79596">
        <ele>2488</ele>
        <time>2019-10-06T10:48:10Z</time>
      </trkpt>
      <trkpt lat="45.71088" lon="6.796">
        <ele>2488</ele>
        <time>2019-10-06T10:48:12Z</time>
      </trkpt>
      <trkpt lat="45.71086" lon="6.79604">
        <ele>2487</ele>
        <time>2019-10-06T10:48:14Z</time>
      </trkpt>
      <trkpt lat="45.71085" lon="6.79608">
        <ele>2487</ele>
        <time>2019-10-06T10:48:16Z</time>
      </trkpt>
      <trkpt lat="45.71084" lon="6.79612">
        <ele>2487</ele>
        <time>2019-10-06T10:48:18Z</time>
      </trkpt>
      <trkpt lat="45.71083" lon="6.79617">
        <ele>2487</ele>
        <time>2019-10-06T10:48:20Z</time>
      </trkpt>
      <trkpt lat="45.71082" lon="6.79621">
        <ele>2486</ele>
        <time>2019-10-06T10:48:22Z</time>
      </trkpt>
      <trkpt lat="45.71081" lon="6.79625">
        <ele>2484</ele>
        <time>2019-10-06T10:48:24Z</time>
      </trkpt>
      <trkpt lat="45.7108" lon="6.7963">
        <ele>2484</ele>
        <time>2019-10-06T10:48:26Z</time>
      </trkpt>
      <trkpt lat="45.71078" lon="6.79635">
        <ele>2482</ele>
        <time>2019-10-06T10:48:28Z</time>
      </trkpt>
      <trkpt lat="45.71077" lon="6.79638">
        <ele>2481</ele>
        <time>2019-10-06T10:48:30Z</time>
      </trkpt>
      <trkpt lat="45.71077" lon="6.79641">
        <ele>2480</ele>
        <time>2019-10-06T10:48:32Z</time>
      </trkpt>
      <trkpt lat="45.71075" lon="6.79644">
        <ele>2480</ele>
        <time>2019-10-06T10:48:34Z</time>
      </trkpt>
      <trkpt lat="45.71074" lon="6.79647">
        <ele>2480</ele>
        <time>2019-10-06T10:48:36Z</time>
      </trkpt>
      <trkpt lat="45.71072" lon="6.7965">
        <ele>2480</ele>
        <time>2019-10-06T10:48:38Z</time>
      </trkpt>
      <trkpt lat="45.71069" lon="6.79654">
        <ele>2479</ele>
        <time>2019-10-06T10:48:40Z</time>
      </trkpt>
      <trkpt lat="45.71068" lon="6.79655">
        <ele>2478</ele>
        <time>2019-10-06T10:48:41Z</time>
      </trkpt>
      <trkpt lat="45.71066" lon="6.79657">
        <ele>2478</ele>
        <time>2019-10-06T10:48:42Z</time>
      </trkpt>
      <trkpt lat="45.71064" lon="6.7966">
        <ele>2478</ele>
        <time>2019-10-06T10:48:44Z</time>
      </trkpt>
      <trkpt lat="45.71062" lon="6.79662">
        <ele>2478</ele>
        <time>2019-10-06T10:48:45Z</time>
      </trkpt>
      <trkpt lat="45.71061" lon="6.79664">
        <ele>2478</ele>
        <time>2019-10-06T10:48:46Z</time>
      </trkpt>
      <trkpt lat="45.7106" lon="6.79666">
        <ele>2478</ele>
        <time>2019-10-06T10:48:47Z</time>
      </trkpt>
      <trkpt lat="45.71058" lon="6.79667">
        <ele>2477</ele>
        <time>2019-10-06T10:48:48Z</time>
      </trkpt>
      <trkpt lat="45.71057" lon="6.79669">
        <ele>2477</ele>
        <time>2019-10-06T10:48:49Z</time>
      </trkpt>
      <trkpt lat="45.71056" lon="6.79672">
        <ele>2477</ele>
        <time>2019-10-06T10:48:50Z</time>
      </trkpt>
      <trkpt lat="45.71054" lon="6.79676">
        <ele>2476</ele>
        <time>2019-10-06T10:48:52Z</time>
      </trkpt>
      <trkpt lat="45.71052" lon="6.7968">
        <ele>2475</ele>
        <time>2019-10-06T10:48:54Z</time>
      </trkpt>
      <trkpt lat="45.7105" lon="6.79682">
        <ele>2475</ele>
        <time>2019-10-06T10:48:55Z</time>
      </trkpt>
      <trkpt lat="45.71049" lon="6.79684">
        <ele>2475</ele>
        <time>2019-10-06T10:48:56Z</time>
      </trkpt>
      <trkpt lat="45.71047" lon="6.79686">
        <ele>2475</ele>
        <time>2019-10-06T10:48:57Z</time>
      </trkpt>
      <trkpt lat="45.71046" lon="6.79688">
        <ele>2475</ele>
        <time>2019-10-06T10:48:58Z</time>
      </trkpt>
      <trkpt lat="45.71044" lon="6.7969">
        <ele>2474</ele>
        <time>2019-10-06T10:48:59Z</time>
      </trkpt>
      <trkpt lat="45.71043" lon="6.79692">
        <ele>2472</ele>
        <time>2019-10-06T10:49:00Z</time>
      </trkpt>
      <trkpt lat="45.71041" lon="6.79694">
        <ele>2472</ele>
        <time>2019-10-06T10:49:01Z</time>
      </trkpt>
      <trkpt lat="45.71039" lon="6.79696">
        <ele>2472</ele>
        <time>2019-10-06T10:49:02Z</time>
      </trkpt>
      <trkpt lat="45.71038" lon="6.79698">
        <ele>2471</ele>
        <time>2019-10-06T10:49:03Z</time>
      </trkpt>
      <trkpt lat="45.71036" lon="6.797">
        <ele>2471</ele>
        <time>2019-10-06T10:49:04Z</time>
      </trkpt>
      <trkpt lat="45.71034" lon="6.79701">
        <ele>2471</ele>
        <time>2019-10-06T10:49:05Z</time>
      </trkpt>
      <trkpt lat="45.71032" lon="6.79703">
        <ele>2470</ele>
        <time>2019-10-06T10:49:06Z</time>
      </trkpt>
      <trkpt lat="45.71031" lon="6.79705">
        <ele>2469</ele>
        <time>2019-10-06T10:49:07Z</time>
      </trkpt>
      <trkpt lat="45.71029" lon="6.79707">
        <ele>2469</ele>
        <time>2019-10-06T10:49:08Z</time>
      </trkpt>
      <trkpt lat="45.71027" lon="6.79709">
        <ele>2469</ele>
        <time>2019-10-06T10:49:09Z</time>
      </trkpt>
      <trkpt lat="45.71026" lon="6.79711">
        <ele>2469</ele>
        <time>2019-10-06T10:49:10Z</time>
      </trkpt>
      <trkpt lat="45.71025" lon="6.79714">
        <ele>2469</ele>
        <time>2019-10-06T10:49:11Z</time>
      </trkpt>
      <trkpt lat="45.71024" lon="6.79716">
        <ele>2469</ele>
        <time>2019-10-06T10:49:12Z</time>
      </trkpt>
      <trkpt lat="45.71022" lon="6.7972">
        <ele>2468</ele>
        <time>2019-10-06T10:49:14Z</time>
      </trkpt>
      <trkpt lat="45.71021" lon="6.79723">
        <ele>2468</ele>
        <time>2019-10-06T10:49:15Z</time>
      </trkpt>
      <trkpt lat="45.7102" lon="6.79728">
        <ele>2468</ele>
        <time>2019-10-06T10:49:17Z</time>
      </trkpt>
      <trkpt lat="45.7102" lon="6.7973">
        <ele>2468</ele>
        <time>2019-10-06T10:49:18Z</time>
      </trkpt>
      <trkpt lat="45.71019" lon="6.79733">
        <ele>2467</ele>
        <time>2019-10-06T10:49:19Z</time>
      </trkpt>
      <trkpt lat="45.71018" lon="6.79736">
        <ele>2467</ele>
        <time>2019-10-06T10:49:20Z</time>
      </trkpt>
      <trkpt lat="45.71017" lon="6.79738">
        <ele>2467</ele>
        <time>2019-10-06T10:49:21Z</time>
      </trkpt>
      <trkpt lat="45.71017" lon="6.79741">
        <ele>2466</ele>
        <time>2019-10-06T10:49:22Z</time>
      </trkpt>
      <trkpt lat="45.71016" lon="6.79744">
        <ele>2466</ele>
        <time>2019-10-06T10:49:23Z</time>
      </trkpt>
      <trkpt lat="45.71015" lon="6.79746">
        <ele>2466</ele>
        <time>2019-10-06T10:49:24Z</time>
      </trkpt>
      <trkpt lat="45.71013" lon="6.79748">
        <ele>2465</ele>
        <time>2019-10-06T10:49:25Z</time>
      </trkpt>
      <trkpt lat="45.7101" lon="6.79753">
        <ele>2464</ele>
        <time>2019-10-06T10:49:27Z</time>
      </trkpt>
      <trkpt lat="45.7101" lon="6.79754">
        <ele>2464</ele>
        <time>2019-10-06T10:49:28Z</time>
      </trkpt>
      <trkpt lat="45.71008" lon="6.79756">
        <ele>2464</ele>
        <time>2019-10-06T10:49:29Z</time>
      </trkpt>
      <trkpt lat="45.71007" lon="6.79758">
        <ele>2463</ele>
        <time>2019-10-06T10:49:30Z</time>
      </trkpt>
      <trkpt lat="45.71005" lon="6.7976">
        <ele>2463</ele>
        <time>2019-10-06T10:49:31Z</time>
      </trkpt>
      <trkpt lat="45.71004" lon="6.79763">
        <ele>2462</ele>
        <time>2019-10-06T10:49:32Z</time>
      </trkpt>
      <trkpt lat="45.71003" lon="6.79765">
        <ele>2462</ele>
        <time>2019-10-06T10:49:33Z</time>
      </trkpt>
      <trkpt lat="45.71001" lon="6.79766">
        <ele>2462</ele>
        <time>2019-10-06T10:49:34Z</time>
      </trkpt>
      <trkpt lat="45.71" lon="6.79768">
        <ele>2462</ele>
        <time>2019-10-06T10:49:35Z</time>
      </trkpt>
      <trkpt lat="45.70998" lon="6.79772">
        <ele>2461</ele>
        <time>2019-10-06T10:49:37Z</time>
      </trkpt>
      <trkpt lat="45.70995" lon="6.79775">
        <ele>2460</ele>
        <time>2019-10-06T10:49:39Z</time>
      </trkpt>
      <trkpt lat="45.70992" lon="6.79777">
        <ele>2459</ele>
        <time>2019-10-06T10:49:41Z</time>
      </trkpt>
      <trkpt lat="45.70989" lon="6.7978">
        <ele>2459</ele>
        <time>2019-10-06T10:49:43Z</time>
      </trkpt>
      <trkpt lat="45.70988" lon="6.79781">
        <ele>2458</ele>
        <time>2019-10-06T10:49:44Z</time>
      </trkpt>
      <trkpt lat="45.70986" lon="6.79782">
        <ele>2457</ele>
        <time>2019-10-06T10:49:45Z</time>
      </trkpt>
      <trkpt lat="45.70984" lon="6.79783">
        <ele>2457</ele>
        <time>2019-10-06T10:49:46Z</time>
      </trkpt>
      <trkpt lat="45.70981" lon="6.79785">
        <ele>2457</ele>
        <time>2019-10-06T10:49:47Z</time>
      </trkpt>
      <trkpt lat="45.7098" lon="6.79785">
        <ele>2457</ele>
        <time>2019-10-06T10:49:48Z</time>
      </trkpt>
      <trkpt lat="45.70978" lon="6.79787">
        <ele>2457</ele>
        <time>2019-10-06T10:49:49Z</time>
      </trkpt>
      <trkpt lat="45.70975" lon="6.79789">
        <ele>2456</ele>
        <time>2019-10-06T10:49:50Z</time>
      </trkpt>
      <trkpt lat="45.70974" lon="6.7979">
        <ele>2454</ele>
        <time>2019-10-06T10:49:51Z</time>
      </trkpt>
      <trkpt lat="45.70972" lon="6.79791">
        <ele>2454</ele>
        <time>2019-10-06T10:49:52Z</time>
      </trkpt>
      <trkpt lat="45.7097" lon="6.79792">
        <ele>2454</ele>
        <time>2019-10-06T10:49:53Z</time>
      </trkpt>
      <trkpt lat="45.70967" lon="6.79796">
        <ele>2453</ele>
        <time>2019-10-06T10:49:55Z</time>
      </trkpt>
      <trkpt lat="45.70966" lon="6.79798">
        <ele>2453</ele>
        <time>2019-10-06T10:49:56Z</time>
      </trkpt>
      <trkpt lat="45.70964" lon="6.798">
        <ele>2453</ele>
        <time>2019-10-06T10:49:57Z</time>
      </trkpt>
      <trkpt lat="45.70963" lon="6.79802">
        <ele>2453</ele>
        <time>2019-10-06T10:49:58Z</time>
      </trkpt>
      <trkpt lat="45.70961" lon="6.79805">
        <ele>2453</ele>
        <time>2019-10-06T10:50:00Z</time>
      </trkpt>
      <trkpt lat="45.70959" lon="6.79809">
        <ele>2453</ele>
        <time>2019-10-06T10:50:02Z</time>
      </trkpt>
      <trkpt lat="45.70958" lon="6.79811">
        <ele>2453</ele>
        <time>2019-10-06T10:50:03Z</time>
      </trkpt>
      <trkpt lat="45.70957" lon="6.79814">
        <ele>2452</ele>
        <time>2019-10-06T10:50:04Z</time>
      </trkpt>
      <trkpt lat="45.70956" lon="6.79816">
        <ele>2452</ele>
        <time>2019-10-06T10:50:05Z</time>
      </trkpt>
      <trkpt lat="45.70955" lon="6.79819">
        <ele>2452</ele>
        <time>2019-10-06T10:50:06Z</time>
      </trkpt>
      <trkpt lat="45.70955" lon="6.79822">
        <ele>2451</ele>
        <time>2019-10-06T10:50:07Z</time>
      </trkpt>
      <trkpt lat="45.70954" lon="6.79825">
        <ele>2451</ele>
        <time>2019-10-06T10:50:08Z</time>
      </trkpt>
      <trkpt lat="45.70953" lon="6.7983">
        <ele>2451</ele>
        <time>2019-10-06T10:50:10Z</time>
      </trkpt>
      <trkpt lat="45.70952" lon="6.79832">
        <ele>2451</ele>
        <time>2019-10-06T10:50:11Z</time>
      </trkpt>
      <trkpt lat="45.70952" lon="6.79834">
        <ele>2450</ele>
        <time>2019-10-06T10:50:12Z</time>
      </trkpt>
      <trkpt lat="45.70951" lon="6.79838">
        <ele>2449</ele>
        <time>2019-10-06T10:50:13Z</time>
      </trkpt>
      <trkpt lat="45.70949" lon="6.79843">
        <ele>2449</ele>
        <time>2019-10-06T10:50:14Z</time>
      </trkpt>
      <trkpt lat="45.70949" lon="6.79845">
        <ele>2449</ele>
        <time>2019-10-06T10:50:15Z</time>
      </trkpt>
      <trkpt lat="45.70947" lon="6.79847">
        <ele>2448</ele>
        <time>2019-10-06T10:50:16Z</time>
      </trkpt>
      <trkpt lat="45.70946" lon="6.7985">
        <ele>2448</ele>
        <time>2019-10-06T10:50:17Z</time>
      </trkpt>
      <trkpt lat="45.70945" lon="6.79853">
        <ele>2448</ele>
        <time>2019-10-06T10:50:18Z</time>
      </trkpt>
      <trkpt lat="45.70943" lon="6.79855">
        <ele>2448</ele>
        <time>2019-10-06T10:50:19Z</time>
      </trkpt>
      <trkpt lat="45.70942" lon="6.79858">
        <ele>2448</ele>
        <time>2019-10-06T10:50:20Z</time>
      </trkpt>
      <trkpt lat="45.70941" lon="6.79861">
        <ele>2448</ele>
        <time>2019-10-06T10:50:21Z</time>
      </trkpt>
      <trkpt lat="45.70939" lon="6.79863">
        <ele>2448</ele>
        <time>2019-10-06T10:50:22Z</time>
      </trkpt>
      <trkpt lat="45.70938" lon="6.79866">
        <ele>2448</ele>
        <time>2019-10-06T10:50:23Z</time>
      </trkpt>
      <trkpt lat="45.70937" lon="6.79869">
        <ele>2447</ele>
        <time>2019-10-06T10:50:24Z</time>
      </trkpt>
      <trkpt lat="45.70935" lon="6.79872">
        <ele>2446</ele>
        <time>2019-10-06T10:50:25Z</time>
      </trkpt>
      <trkpt lat="45.70934" lon="6.79875">
        <ele>2446</ele>
        <time>2019-10-06T10:50:26Z</time>
      </trkpt>
      <trkpt lat="45.70933" lon="6.79877">
        <ele>2446</ele>
        <time>2019-10-06T10:50:27Z</time>
      </trkpt>
      <trkpt lat="45.70931" lon="6.79881">
        <ele>2446</ele>
        <time>2019-10-06T10:50:28Z</time>
      </trkpt>
      <trkpt lat="45.70931" lon="6.79882">
        <ele>2446</ele>
        <time>2019-10-06T10:50:29Z</time>
      </trkpt>
      <trkpt lat="45.7093" lon="6.79885">
        <ele>2445</ele>
        <time>2019-10-06T10:50:30Z</time>
      </trkpt>
      <trkpt lat="45.70929" lon="6.79888">
        <ele>2444</ele>
        <time>2019-10-06T10:50:31Z</time>
      </trkpt>
      <trkpt lat="45.70928" lon="6.79891">
        <ele>2444</ele>
        <time>2019-10-06T10:50:32Z</time>
      </trkpt>
      <trkpt lat="45.70927" lon="6.79894">
        <ele>2444</ele>
        <time>2019-10-06T10:50:33Z</time>
      </trkpt>
      <trkpt lat="45.70926" lon="6.79897">
        <ele>2444</ele>
        <time>2019-10-06T10:50:34Z</time>
      </trkpt>
      <trkpt lat="45.70925" lon="6.799">
        <ele>2444</ele>
        <time>2019-10-06T10:50:35Z</time>
      </trkpt>
      <trkpt lat="45.70924" lon="6.79904">
        <ele>2443</ele>
        <time>2019-10-06T10:50:36Z</time>
      </trkpt>
      <trkpt lat="45.70923" lon="6.79906">
        <ele>2443</ele>
        <time>2019-10-06T10:50:37Z</time>
      </trkpt>
      <trkpt lat="45.70922" lon="6.79909">
        <ele>2443</ele>
        <time>2019-10-06T10:50:38Z</time>
      </trkpt>
      <trkpt lat="45.70921" lon="6.79911">
        <ele>2442</ele>
        <time>2019-10-06T10:50:39Z</time>
      </trkpt>
      <trkpt lat="45.7092" lon="6.79914">
        <ele>2441</ele>
        <time>2019-10-06T10:50:40Z</time>
      </trkpt>
      <trkpt lat="45.70919" lon="6.79917">
        <ele>2441</ele>
        <time>2019-10-06T10:50:41Z</time>
      </trkpt>
      <trkpt lat="45.70917" lon="6.79919">
        <ele>2441</ele>
        <time>2019-10-06T10:50:42Z</time>
      </trkpt>
      <trkpt lat="45.70915" lon="6.79921">
        <ele>2440</ele>
        <time>2019-10-06T10:50:43Z</time>
      </trkpt>
      <trkpt lat="45.70913" lon="6.79923">
        <ele>2440</ele>
        <time>2019-10-06T10:50:44Z</time>
      </trkpt>
      <trkpt lat="45.70911" lon="6.79925">
        <ele>2440</ele>
        <time>2019-10-06T10:50:45Z</time>
      </trkpt>
      <trkpt lat="45.70909" lon="6.79926">
        <ele>2440</ele>
        <time>2019-10-06T10:50:46Z</time>
      </trkpt>
      <trkpt lat="45.70907" lon="6.79928">
        <ele>2440</ele>
        <time>2019-10-06T10:50:47Z</time>
      </trkpt>
      <trkpt lat="45.70906" lon="6.7993">
        <ele>2440</ele>
        <time>2019-10-06T10:50:48Z</time>
      </trkpt>
      <trkpt lat="45.70905" lon="6.79932">
        <ele>2440</ele>
        <time>2019-10-06T10:50:49Z</time>
      </trkpt>
      <trkpt lat="45.70903" lon="6.79934">
        <ele>2440</ele>
        <time>2019-10-06T10:50:50Z</time>
      </trkpt>
      <trkpt lat="45.70901" lon="6.79936">
        <ele>2439</ele>
        <time>2019-10-06T10:50:51Z</time>
      </trkpt>
      <trkpt lat="45.70899" lon="6.79937">
        <ele>2439</ele>
        <time>2019-10-06T10:50:52Z</time>
      </trkpt>
      <trkpt lat="45.70896" lon="6.79938">
        <ele>2439</ele>
        <time>2019-10-06T10:50:53Z</time>
      </trkpt>
      <trkpt lat="45.70894" lon="6.7994">
        <ele>2439</ele>
        <time>2019-10-06T10:50:54Z</time>
      </trkpt>
      <trkpt lat="45.70893" lon="6.79942">
        <ele>2438</ele>
        <time>2019-10-06T10:50:55Z</time>
      </trkpt>
      <trkpt lat="45.70891" lon="6.79944">
        <ele>2438</ele>
        <time>2019-10-06T10:50:56Z</time>
      </trkpt>
      <trkpt lat="45.70889" lon="6.79945">
        <ele>2438</ele>
        <time>2019-10-06T10:50:57Z</time>
      </trkpt>
      <trkpt lat="45.70888" lon="6.79946">
        <ele>2437</ele>
        <time>2019-10-06T10:50:58Z</time>
      </trkpt>
      <trkpt lat="45.70885" lon="6.79949">
        <ele>2435</ele>
        <time>2019-10-06T10:51:00Z</time>
      </trkpt>
      <trkpt lat="45.70883" lon="6.7995">
        <ele>2436</ele>
        <time>2019-10-06T10:51:01Z</time>
      </trkpt>
      <trkpt lat="45.70881" lon="6.79952">
        <ele>2436</ele>
        <time>2019-10-06T10:51:02Z</time>
      </trkpt>
      <trkpt lat="45.70879" lon="6.79953">
        <ele>2436</ele>
        <time>2019-10-06T10:51:03Z</time>
      </trkpt>
      <trkpt lat="45.70878" lon="6.79954">
        <ele>2435</ele>
        <time>2019-10-06T10:51:04Z</time>
      </trkpt>
      <trkpt lat="45.70874" lon="6.79955">
        <ele>2434</ele>
        <time>2019-10-06T10:51:05Z</time>
      </trkpt>
      <trkpt lat="45.70873" lon="6.79955">
        <ele>2434</ele>
        <time>2019-10-06T10:51:06Z</time>
      </trkpt>
      <trkpt lat="45.70871" lon="6.79955">
        <ele>2434</ele>
        <time>2019-10-06T10:51:07Z</time>
      </trkpt>
      <trkpt lat="45.70867" lon="6.79955">
        <ele>2434</ele>
        <time>2019-10-06T10:51:09Z</time>
      </trkpt>
      <trkpt lat="45.70866" lon="6.79955">
        <ele>2434</ele>
        <time>2019-10-06T10:51:10Z</time>
      </trkpt>
      <trkpt lat="45.70864" lon="6.79955">
        <ele>2433</ele>
        <time>2019-10-06T10:51:11Z</time>
      </trkpt>
      <trkpt lat="45.70863" lon="6.79957">
        <ele>2432</ele>
        <time>2019-10-06T10:51:12Z</time>
      </trkpt>
      <trkpt lat="45.70861" lon="6.79957">
        <ele>2432</ele>
        <time>2019-10-06T10:51:13Z</time>
      </trkpt>
      <trkpt lat="45.70859" lon="6.79957">
        <ele>2432</ele>
        <time>2019-10-06T10:51:14Z</time>
      </trkpt>
      <trkpt lat="45.70856" lon="6.79958">
        <ele>2431</ele>
        <time>2019-10-06T10:51:16Z</time>
      </trkpt>
      <trkpt lat="45.70853" lon="6.79959">
        <ele>2431</ele>
        <time>2019-10-06T10:51:18Z</time>
      </trkpt>
      <trkpt lat="45.7085" lon="6.79961">
        <ele>2430</ele>
        <time>2019-10-06T10:51:20Z</time>
      </trkpt>
      <trkpt lat="45.70847" lon="6.79962">
        <ele>2428</ele>
        <time>2019-10-06T10:51:22Z</time>
      </trkpt>
      <trkpt lat="45.70845" lon="6.7996">
        <ele>2428</ele>
        <time>2019-10-06T10:51:24Z</time>
      </trkpt>
      <trkpt lat="45.70842" lon="6.79959">
        <ele>2428</ele>
        <time>2019-10-06T10:51:26Z</time>
      </trkpt>
      <trkpt lat="45.70842" lon="6.79959">
        <ele>2427</ele>
        <time>2019-10-06T10:51:28Z</time>
      </trkpt>
      <trkpt lat="45.70841" lon="6.7996">
        <ele>2427</ele>
        <time>2019-10-06T10:51:29Z</time>
      </trkpt>
      <trkpt lat="45.70838" lon="6.7996">
        <ele>2426</ele>
        <time>2019-10-06T10:51:31Z</time>
      </trkpt>
      <trkpt lat="45.70837" lon="6.79957">
        <ele>2426</ele>
        <time>2019-10-06T10:51:33Z</time>
      </trkpt>
      <trkpt lat="45.70836" lon="6.79955">
        <ele>2426</ele>
        <time>2019-10-06T10:51:35Z</time>
      </trkpt>
      <trkpt lat="45.70834" lon="6.79954">
        <ele>2426</ele>
        <time>2019-10-06T10:51:37Z</time>
      </trkpt>
      <trkpt lat="45.70834" lon="6.79954">
        <ele>2426</ele>
        <time>2019-10-06T10:51:39Z</time>
      </trkpt>
      <trkpt lat="45.70831" lon="6.79954">
        <ele>2426</ele>
        <time>2019-10-06T10:51:40Z</time>
      </trkpt>
      <trkpt lat="45.70829" lon="6.79954">
        <ele>2426</ele>
        <time>2019-10-06T10:51:42Z</time>
      </trkpt>
      <trkpt lat="45.70827" lon="6.79954">
        <ele>2426</ele>
        <time>2019-10-06T10:51:44Z</time>
      </trkpt>
      <trkpt lat="45.70824" lon="6.79955">
        <ele>2426</ele>
        <time>2019-10-06T10:51:46Z</time>
      </trkpt>
      <trkpt lat="45.70823" lon="6.79957">
        <ele>2426</ele>
        <time>2019-10-06T10:51:47Z</time>
      </trkpt>
      <trkpt lat="45.70822" lon="6.79959">
        <ele>2426</ele>
        <time>2019-10-06T10:51:48Z</time>
      </trkpt>
      <trkpt lat="45.70819" lon="6.79963">
        <ele>2425</ele>
        <time>2019-10-06T10:51:50Z</time>
      </trkpt>
      <trkpt lat="45.70817" lon="6.79964">
        <ele>2425</ele>
        <time>2019-10-06T10:51:51Z</time>
      </trkpt>
      <trkpt lat="45.70816" lon="6.79965">
        <ele>2425</ele>
        <time>2019-10-06T10:51:52Z</time>
      </trkpt>
      <trkpt lat="45.70813" lon="6.79968">
        <ele>2425</ele>
        <time>2019-10-06T10:51:54Z</time>
      </trkpt>
      <trkpt lat="45.70811" lon="6.7997">
        <ele>2425</ele>
        <time>2019-10-06T10:51:56Z</time>
      </trkpt>
      <trkpt lat="45.7081" lon="6.79971">
        <ele>2425</ele>
        <time>2019-10-06T10:51:57Z</time>
      </trkpt>
      <trkpt lat="45.70809" lon="6.79972">
        <ele>2424</ele>
        <time>2019-10-06T10:51:58Z</time>
      </trkpt>
      <trkpt lat="45.70807" lon="6.79973">
        <ele>2424</ele>
        <time>2019-10-06T10:51:59Z</time>
      </trkpt>
      <trkpt lat="45.70805" lon="6.79976">
        <ele>2423</ele>
        <time>2019-10-06T10:52:00Z</time>
      </trkpt>
      <trkpt lat="45.70804" lon="6.79977">
        <ele>2423</ele>
        <time>2019-10-06T10:52:01Z</time>
      </trkpt>
      <trkpt lat="45.70804" lon="6.79978">
        <ele>2423</ele>
        <time>2019-10-06T10:52:02Z</time>
      </trkpt>
      <trkpt lat="45.70802" lon="6.7998">
        <ele>2422</ele>
        <time>2019-10-06T10:52:03Z</time>
      </trkpt>
      <trkpt lat="45.70801" lon="6.79982">
        <ele>2421</ele>
        <time>2019-10-06T10:52:04Z</time>
      </trkpt>
      <trkpt lat="45.708" lon="6.79985">
        <ele>2420</ele>
        <time>2019-10-06T10:52:05Z</time>
      </trkpt>
      <trkpt lat="45.70799" lon="6.79988">
        <ele>2420</ele>
        <time>2019-10-06T10:52:06Z</time>
      </trkpt>
      <trkpt lat="45.70798" lon="6.7999">
        <ele>2420</ele>
        <time>2019-10-06T10:52:07Z</time>
      </trkpt>
      <trkpt lat="45.70796" lon="6.79993">
        <ele>2420</ele>
        <time>2019-10-06T10:52:08Z</time>
      </trkpt>
      <trkpt lat="45.70795" lon="6.79995">
        <ele>2419</ele>
        <time>2019-10-06T10:52:09Z</time>
      </trkpt>
      <trkpt lat="45.70793" lon="6.79997">
        <ele>2419</ele>
        <time>2019-10-06T10:52:10Z</time>
      </trkpt>
      <trkpt lat="45.70792" lon="6.79999">
        <ele>2419</ele>
        <time>2019-10-06T10:52:11Z</time>
      </trkpt>
      <trkpt lat="45.7079" lon="6.8">
        <ele>2419</ele>
        <time>2019-10-06T10:52:12Z</time>
      </trkpt>
      <trkpt lat="45.70788" lon="6.80002">
        <ele>2419</ele>
        <time>2019-10-06T10:52:13Z</time>
      </trkpt>
      <trkpt lat="45.70787" lon="6.80004">
        <ele>2419</ele>
        <time>2019-10-06T10:52:14Z</time>
      </trkpt>
      <trkpt lat="45.70785" lon="6.80005">
        <ele>2419</ele>
        <time>2019-10-06T10:52:15Z</time>
      </trkpt>
      <trkpt lat="45.70783" lon="6.80008">
        <ele>2418</ele>
        <time>2019-10-06T10:52:16Z</time>
      </trkpt>
      <trkpt lat="45.70782" lon="6.80009">
        <ele>2418</ele>
        <time>2019-10-06T10:52:17Z</time>
      </trkpt>
      <trkpt lat="45.70781" lon="6.80011">
        <ele>2417</ele>
        <time>2019-10-06T10:52:18Z</time>
      </trkpt>
      <trkpt lat="45.70779" lon="6.80012">
        <ele>2417</ele>
        <time>2019-10-06T10:52:19Z</time>
      </trkpt>
      <trkpt lat="45.70777" lon="6.80014">
        <ele>2417</ele>
        <time>2019-10-06T10:52:20Z</time>
      </trkpt>
      <trkpt lat="45.70776" lon="6.80015">
        <ele>2416</ele>
        <time>2019-10-06T10:52:21Z</time>
      </trkpt>
      <trkpt lat="45.70774" lon="6.80016">
        <ele>2416</ele>
        <time>2019-10-06T10:52:22Z</time>
      </trkpt>
      <trkpt lat="45.70773" lon="6.80017">
        <ele>2416</ele>
        <time>2019-10-06T10:52:23Z</time>
      </trkpt>
      <trkpt lat="45.70771" lon="6.80018">
        <ele>2416</ele>
        <time>2019-10-06T10:52:24Z</time>
      </trkpt>
      <trkpt lat="45.70769" lon="6.80019">
        <ele>2415</ele>
        <time>2019-10-06T10:52:25Z</time>
      </trkpt>
      <trkpt lat="45.70767" lon="6.8002">
        <ele>2415</ele>
        <time>2019-10-06T10:52:26Z</time>
      </trkpt>
      <trkpt lat="45.70765" lon="6.80021">
        <ele>2415</ele>
        <time>2019-10-06T10:52:27Z</time>
      </trkpt>
      <trkpt lat="45.70762" lon="6.80023">
        <ele>2415</ele>
        <time>2019-10-06T10:52:28Z</time>
      </trkpt>
      <trkpt lat="45.70761" lon="6.80024">
        <ele>2415</ele>
        <time>2019-10-06T10:52:29Z</time>
      </trkpt>
      <trkpt lat="45.7076" lon="6.80025">
        <ele>2415</ele>
        <time>2019-10-06T10:52:30Z</time>
      </trkpt>
      <trkpt lat="45.70758" lon="6.80026">
        <ele>2414</ele>
        <time>2019-10-06T10:52:31Z</time>
      </trkpt>
      <trkpt lat="45.70755" lon="6.80029">
        <ele>2414</ele>
        <time>2019-10-06T10:52:33Z</time>
      </trkpt>
      <trkpt lat="45.70753" lon="6.8003">
        <ele>2414</ele>
        <time>2019-10-06T10:52:34Z</time>
      </trkpt>
      <trkpt lat="45.7075" lon="6.80033">
        <ele>2413</ele>
        <time>2019-10-06T10:52:36Z</time>
      </trkpt>
      <trkpt lat="45.70748" lon="6.80034">
        <ele>2413</ele>
        <time>2019-10-06T10:52:37Z</time>
      </trkpt>
      <trkpt lat="45.70746" lon="6.80035">
        <ele>2413</ele>
        <time>2019-10-06T10:52:38Z</time>
      </trkpt>
      <trkpt lat="45.70743" lon="6.80038">
        <ele>2412</ele>
        <time>2019-10-06T10:52:40Z</time>
      </trkpt>
      <trkpt lat="45.7074" lon="6.8004">
        <ele>2412</ele>
        <time>2019-10-06T10:52:42Z</time>
      </trkpt>
      <trkpt lat="45.70737" lon="6.80041">
        <ele>2411</ele>
        <time>2019-10-06T10:52:44Z</time>
      </trkpt>
      <trkpt lat="45.70734" lon="6.80043">
        <ele>2410</ele>
        <time>2019-10-06T10:52:46Z</time>
      </trkpt>
      <trkpt lat="45.70732" lon="6.80044">
        <ele>2410</ele>
        <time>2019-10-06T10:52:47Z</time>
      </trkpt>
      <trkpt lat="45.70729" lon="6.80046">
        <ele>2410</ele>
        <time>2019-10-06T10:52:49Z</time>
      </trkpt>
      <trkpt lat="45.70728" lon="6.80048">
        <ele>2408</ele>
        <time>2019-10-06T10:52:51Z</time>
      </trkpt>
      <trkpt lat="45.70726" lon="6.8005">
        <ele>2408</ele>
        <time>2019-10-06T10:52:53Z</time>
      </trkpt>
      <trkpt lat="45.70724" lon="6.8005">
        <ele>2407</ele>
        <time>2019-10-06T10:52:55Z</time>
      </trkpt>
      <trkpt lat="45.70721" lon="6.80049">
        <ele>2405</ele>
        <time>2019-10-06T10:52:57Z</time>
      </trkpt>
      <trkpt lat="45.70718" lon="6.80049">
        <ele>2405</ele>
        <time>2019-10-06T10:52:59Z</time>
      </trkpt>
      <trkpt lat="45.70716" lon="6.80052">
        <ele>2405</ele>
        <time>2019-10-06T10:53:01Z</time>
      </trkpt>
      <trkpt lat="45.70713" lon="6.80054">
        <ele>2405</ele>
        <time>2019-10-06T10:53:03Z</time>
      </trkpt>
      <trkpt lat="45.7071" lon="6.80056">
        <ele>2405</ele>
        <time>2019-10-06T10:53:05Z</time>
      </trkpt>
      <trkpt lat="45.70707" lon="6.80058">
        <ele>2405</ele>
        <time>2019-10-06T10:53:07Z</time>
      </trkpt>
      <trkpt lat="45.70705" lon="6.8006">
        <ele>2404</ele>
        <time>2019-10-06T10:53:09Z</time>
      </trkpt>
      <trkpt lat="45.70701" lon="6.80062">
        <ele>2404</ele>
        <time>2019-10-06T10:53:11Z</time>
      </trkpt>
      <trkpt lat="45.70699" lon="6.80065">
        <ele>2404</ele>
        <time>2019-10-06T10:53:13Z</time>
      </trkpt>
      <trkpt lat="45.70697" lon="6.80068">
        <ele>2404</ele>
        <time>2019-10-06T10:53:15Z</time>
      </trkpt>
      <trkpt lat="45.70694" lon="6.80071">
        <ele>2402</ele>
        <time>2019-10-06T10:53:17Z</time>
      </trkpt>
      <trkpt lat="45.70692" lon="6.80073">
        <ele>2402</ele>
        <time>2019-10-06T10:53:18Z</time>
      </trkpt>
      <trkpt lat="45.70689" lon="6.80075">
        <ele>2402</ele>
        <time>2019-10-06T10:53:20Z</time>
      </trkpt>
      <trkpt lat="45.70687" lon="6.80076">
        <ele>2401</ele>
        <time>2019-10-06T10:53:21Z</time>
      </trkpt>
      <trkpt lat="45.70685" lon="6.80077">
        <ele>2401</ele>
        <time>2019-10-06T10:53:22Z</time>
      </trkpt>
      <trkpt lat="45.70683" lon="6.80077">
        <ele>2401</ele>
        <time>2019-10-06T10:53:23Z</time>
      </trkpt>
      <trkpt lat="45.7068" lon="6.80079">
        <ele>2400</ele>
        <time>2019-10-06T10:53:25Z</time>
      </trkpt>
      <trkpt lat="45.70679" lon="6.8008">
        <ele>2400</ele>
        <time>2019-10-06T10:53:26Z</time>
      </trkpt>
      <trkpt lat="45.70676" lon="6.80082">
        <ele>2400</ele>
        <time>2019-10-06T10:53:28Z</time>
      </trkpt>
      <trkpt lat="45.70673" lon="6.80083">
        <ele>2399</ele>
        <time>2019-10-06T10:53:30Z</time>
      </trkpt>
      <trkpt lat="45.70671" lon="6.80084">
        <ele>2399</ele>
        <time>2019-10-06T10:53:31Z</time>
      </trkpt>
      <trkpt lat="45.70669" lon="6.80085">
        <ele>2399</ele>
        <time>2019-10-06T10:53:32Z</time>
      </trkpt>
      <trkpt lat="45.70668" lon="6.80086">
        <ele>2399</ele>
        <time>2019-10-06T10:53:33Z</time>
      </trkpt>
      <trkpt lat="45.70665" lon="6.80088">
        <ele>2398</ele>
        <time>2019-10-06T10:53:34Z</time>
      </trkpt>
      <trkpt lat="45.70664" lon="6.80089">
        <ele>2397</ele>
        <time>2019-10-06T10:53:35Z</time>
      </trkpt>
      <trkpt lat="45.70662" lon="6.8009">
        <ele>2397</ele>
        <time>2019-10-06T10:53:36Z</time>
      </trkpt>
      <trkpt lat="45.7066" lon="6.80091">
        <ele>2397</ele>
        <time>2019-10-06T10:53:37Z</time>
      </trkpt>
      <trkpt lat="45.70657" lon="6.80092">
        <ele>2397</ele>
        <time>2019-10-06T10:53:38Z</time>
      </trkpt>
      <trkpt lat="45.70655" lon="6.80093">
        <ele>2397</ele>
        <time>2019-10-06T10:53:39Z</time>
      </trkpt>
      <trkpt lat="45.70653" lon="6.80094">
        <ele>2397</ele>
        <time>2019-10-06T10:53:40Z</time>
      </trkpt>
      <trkpt lat="45.70651" lon="6.80095">
        <ele>2397</ele>
        <time>2019-10-06T10:53:41Z</time>
      </trkpt>
      <trkpt lat="45.70649" lon="6.80096">
        <ele>2397</ele>
        <time>2019-10-06T10:53:42Z</time>
      </trkpt>
      <trkpt lat="45.70645" lon="6.80099">
        <ele>2396</ele>
        <time>2019-10-06T10:53:44Z</time>
      </trkpt>
      <trkpt lat="45.70644" lon="6.801">
        <ele>2396</ele>
        <time>2019-10-06T10:53:45Z</time>
      </trkpt>
      <trkpt lat="45.70642" lon="6.80101">
        <ele>2396</ele>
        <time>2019-10-06T10:53:46Z</time>
      </trkpt>
      <trkpt lat="45.7064" lon="6.80102">
        <ele>2396</ele>
        <time>2019-10-06T10:53:47Z</time>
      </trkpt>
      <trkpt lat="45.70638" lon="6.80103">
        <ele>2396</ele>
        <time>2019-10-06T10:53:48Z</time>
      </trkpt>
      <trkpt lat="45.70636" lon="6.80104">
        <ele>2395</ele>
        <time>2019-10-06T10:53:49Z</time>
      </trkpt>
      <trkpt lat="45.70633" lon="6.80106">
        <ele>2395</ele>
        <time>2019-10-06T10:53:51Z</time>
      </trkpt>
      <trkpt lat="45.70631" lon="6.80108">
        <ele>2395</ele>
        <time>2019-10-06T10:53:52Z</time>
      </trkpt>
      <trkpt lat="45.7063" lon="6.80109">
        <ele>2395</ele>
        <time>2019-10-06T10:53:53Z</time>
      </trkpt>
      <trkpt lat="45.70628" lon="6.8011">
        <ele>2395</ele>
        <time>2019-10-06T10:53:54Z</time>
      </trkpt>
      <trkpt lat="45.70626" lon="6.80111">
        <ele>2395</ele>
        <time>2019-10-06T10:53:55Z</time>
      </trkpt>
      <trkpt lat="45.70623" lon="6.80113">
        <ele>2395</ele>
        <time>2019-10-06T10:53:57Z</time>
      </trkpt>
      <trkpt lat="45.70621" lon="6.80116">
        <ele>2395</ele>
        <time>2019-10-06T10:53:59Z</time>
      </trkpt>
      <trkpt lat="45.70619" lon="6.80117">
        <ele>2394</ele>
        <time>2019-10-06T10:54:00Z</time>
      </trkpt>
      <trkpt lat="45.70618" lon="6.80118">
        <ele>2394</ele>
        <time>2019-10-06T10:54:01Z</time>
      </trkpt>
      <trkpt lat="45.70616" lon="6.80119">
        <ele>2394</ele>
        <time>2019-10-06T10:54:02Z</time>
      </trkpt>
      <trkpt lat="45.70613" lon="6.80122">
        <ele>2393</ele>
        <time>2019-10-06T10:54:04Z</time>
      </trkpt>
      <trkpt lat="45.70612" lon="6.80123">
        <ele>2393</ele>
        <time>2019-10-06T10:54:05Z</time>
      </trkpt>
      <trkpt lat="45.7061" lon="6.80124">
        <ele>2393</ele>
        <time>2019-10-06T10:54:06Z</time>
      </trkpt>
      <trkpt lat="45.70609" lon="6.80126">
        <ele>2393</ele>
        <time>2019-10-06T10:54:07Z</time>
      </trkpt>
      <trkpt lat="45.70606" lon="6.80128">
        <ele>2392</ele>
        <time>2019-10-06T10:54:09Z</time>
      </trkpt>
      <trkpt lat="45.70604" lon="6.80129">
        <ele>2391</ele>
        <time>2019-10-06T10:54:10Z</time>
      </trkpt>
      <trkpt lat="45.70602" lon="6.80132">
        <ele>2391</ele>
        <time>2019-10-06T10:54:12Z</time>
      </trkpt>
      <trkpt lat="45.70599" lon="6.80135">
        <ele>2389</ele>
        <time>2019-10-06T10:54:14Z</time>
      </trkpt>
      <trkpt lat="45.70597" lon="6.80136">
        <ele>2389</ele>
        <time>2019-10-06T10:54:15Z</time>
      </trkpt>
      <trkpt lat="45.70596" lon="6.80137">
        <ele>2389</ele>
        <time>2019-10-06T10:54:16Z</time>
      </trkpt>
      <trkpt lat="45.70593" lon="6.80141">
        <ele>2389</ele>
        <time>2019-10-06T10:54:18Z</time>
      </trkpt>
      <trkpt lat="45.70592" lon="6.80143">
        <ele>2388</ele>
        <time>2019-10-06T10:54:19Z</time>
      </trkpt>
      <trkpt lat="45.70589" lon="6.80147">
        <ele>2388</ele>
        <time>2019-10-06T10:54:21Z</time>
      </trkpt>
      <trkpt lat="45.70588" lon="6.80149">
        <ele>2388</ele>
        <time>2019-10-06T10:54:22Z</time>
      </trkpt>
      <trkpt lat="45.70587" lon="6.80151">
        <ele>2389</ele>
        <time>2019-10-06T10:54:23Z</time>
      </trkpt>
      <trkpt lat="45.70584" lon="6.80155">
        <ele>2388</ele>
        <time>2019-10-06T10:54:25Z</time>
      </trkpt>
      <trkpt lat="45.70582" lon="6.80156">
        <ele>2388</ele>
        <time>2019-10-06T10:54:26Z</time>
      </trkpt>
      <trkpt lat="45.70579" lon="6.80159">
        <ele>2387</ele>
        <time>2019-10-06T10:54:28Z</time>
      </trkpt>
      <trkpt lat="45.70577" lon="6.80162">
        <ele>2387</ele>
        <time>2019-10-06T10:54:29Z</time>
      </trkpt>
      <trkpt lat="45.70576" lon="6.80163">
        <ele>2387</ele>
        <time>2019-10-06T10:54:30Z</time>
      </trkpt>
      <trkpt lat="45.70574" lon="6.80164">
        <ele>2386</ele>
        <time>2019-10-06T10:54:31Z</time>
      </trkpt>
      <trkpt lat="45.70573" lon="6.80167">
        <ele>2386</ele>
        <time>2019-10-06T10:54:32Z</time>
      </trkpt>
      <trkpt lat="45.70571" lon="6.80169">
        <ele>2386</ele>
        <time>2019-10-06T10:54:33Z</time>
      </trkpt>
      <trkpt lat="45.7057" lon="6.80171">
        <ele>2385</ele>
        <time>2019-10-06T10:54:34Z</time>
      </trkpt>
      <trkpt lat="45.70569" lon="6.80173">
        <ele>2384</ele>
        <time>2019-10-06T10:54:35Z</time>
      </trkpt>
      <trkpt lat="45.70567" lon="6.80174">
        <ele>2385</ele>
        <time>2019-10-06T10:54:36Z</time>
      </trkpt>
      <trkpt lat="45.70565" lon="6.80175">
        <ele>2385</ele>
        <time>2019-10-06T10:54:37Z</time>
      </trkpt>
      <trkpt lat="45.70562" lon="6.80177">
        <ele>2385</ele>
        <time>2019-10-06T10:54:38Z</time>
      </trkpt>
      <trkpt lat="45.70561" lon="6.80178">
        <ele>2384</ele>
        <time>2019-10-06T10:54:39Z</time>
      </trkpt>
      <trkpt lat="45.7056" lon="6.80179">
        <ele>2384</ele>
        <time>2019-10-06T10:54:40Z</time>
      </trkpt>
      <trkpt lat="45.70558" lon="6.80181">
        <ele>2384</ele>
        <time>2019-10-06T10:54:41Z</time>
      </trkpt>
      <trkpt lat="45.70557" lon="6.80183">
        <ele>2383</ele>
        <time>2019-10-06T10:54:42Z</time>
      </trkpt>
      <trkpt lat="45.70555" lon="6.80185">
        <ele>2383</ele>
        <time>2019-10-06T10:54:43Z</time>
      </trkpt>
      <trkpt lat="45.70554" lon="6.80186">
        <ele>2383</ele>
        <time>2019-10-06T10:54:44Z</time>
      </trkpt>
      <trkpt lat="45.70551" lon="6.8019">
        <ele>2382</ele>
        <time>2019-10-06T10:54:46Z</time>
      </trkpt>
      <trkpt lat="45.70549" lon="6.80191">
        <ele>2382</ele>
        <time>2019-10-06T10:54:47Z</time>
      </trkpt>
      <trkpt lat="45.70547" lon="6.80193">
        <ele>2382</ele>
        <time>2019-10-06T10:54:48Z</time>
      </trkpt>
      <trkpt lat="45.70545" lon="6.80194">
        <ele>2381</ele>
        <time>2019-10-06T10:54:49Z</time>
      </trkpt>
      <trkpt lat="45.70543" lon="6.80195">
        <ele>2380</ele>
        <time>2019-10-06T10:54:50Z</time>
      </trkpt>
      <trkpt lat="45.70541" lon="6.80196">
        <ele>2380</ele>
        <time>2019-10-06T10:54:51Z</time>
      </trkpt>
      <trkpt lat="45.7054" lon="6.80198">
        <ele>2380</ele>
        <time>2019-10-06T10:54:52Z</time>
      </trkpt>
      <trkpt lat="45.70537" lon="6.802">
        <ele>2379</ele>
        <time>2019-10-06T10:54:54Z</time>
      </trkpt>
      <trkpt lat="45.70535" lon="6.80201">
        <ele>2379</ele>
        <time>2019-10-06T10:54:55Z</time>
      </trkpt>
      <trkpt lat="45.70533" lon="6.80203">
        <ele>2379</ele>
        <time>2019-10-06T10:54:56Z</time>
      </trkpt>
      <trkpt lat="45.70532" lon="6.80205">
        <ele>2379</ele>
        <time>2019-10-06T10:54:57Z</time>
      </trkpt>
      <trkpt lat="45.7053" lon="6.80207">
        <ele>2378</ele>
        <time>2019-10-06T10:54:58Z</time>
      </trkpt>
      <trkpt lat="45.70529" lon="6.80209">
        <ele>2378</ele>
        <time>2019-10-06T10:54:59Z</time>
      </trkpt>
      <trkpt lat="45.70528" lon="6.80211">
        <ele>2376</ele>
        <time>2019-10-06T10:55:00Z</time>
      </trkpt>
      <trkpt lat="45.70526" lon="6.80213">
        <ele>2376</ele>
        <time>2019-10-06T10:55:01Z</time>
      </trkpt>
      <trkpt lat="45.70525" lon="6.80215">
        <ele>2376</ele>
        <time>2019-10-06T10:55:02Z</time>
      </trkpt>
      <trkpt lat="45.70524" lon="6.80217">
        <ele>2376</ele>
        <time>2019-10-06T10:55:03Z</time>
      </trkpt>
      <trkpt lat="45.70522" lon="6.80221">
        <ele>2376</ele>
        <time>2019-10-06T10:55:05Z</time>
      </trkpt>
      <trkpt lat="45.7052" lon="6.80225">
        <ele>2375</ele>
        <time>2019-10-06T10:55:07Z</time>
      </trkpt>
      <trkpt lat="45.7052" lon="6.80228">
        <ele>2374</ele>
        <time>2019-10-06T10:55:08Z</time>
      </trkpt>
      <trkpt lat="45.70518" lon="6.8023">
        <ele>2373</ele>
        <time>2019-10-06T10:55:09Z</time>
      </trkpt>
      <trkpt lat="45.70516" lon="6.80233">
        <ele>2373</ele>
        <time>2019-10-06T10:55:11Z</time>
      </trkpt>
      <trkpt lat="45.70515" lon="6.80235">
        <ele>2373</ele>
        <time>2019-10-06T10:55:12Z</time>
      </trkpt>
      <trkpt lat="45.70513" lon="6.80237">
        <ele>2372</ele>
        <time>2019-10-06T10:55:13Z</time>
      </trkpt>
      <trkpt lat="45.70511" lon="6.80241">
        <ele>2372</ele>
        <time>2019-10-06T10:55:15Z</time>
      </trkpt>
      <trkpt lat="45.70509" lon="6.80245">
        <ele>2371</ele>
        <time>2019-10-06T10:55:17Z</time>
      </trkpt>
      <trkpt lat="45.70507" lon="6.80247">
        <ele>2370</ele>
        <time>2019-10-06T10:55:18Z</time>
      </trkpt>
      <trkpt lat="45.70506" lon="6.80248">
        <ele>2370</ele>
        <time>2019-10-06T10:55:19Z</time>
      </trkpt>
      <trkpt lat="45.70504" lon="6.80251">
        <ele>2370</ele>
        <time>2019-10-06T10:55:20Z</time>
      </trkpt>
      <trkpt lat="45.70502" lon="6.80253">
        <ele>2370</ele>
        <time>2019-10-06T10:55:21Z</time>
      </trkpt>
      <trkpt lat="45.70501" lon="6.80255">
        <ele>2369</ele>
        <time>2019-10-06T10:55:22Z</time>
      </trkpt>
      <trkpt lat="45.70499" lon="6.80257">
        <ele>2368</ele>
        <time>2019-10-06T10:55:23Z</time>
      </trkpt>
      <trkpt lat="45.70496" lon="6.80261">
        <ele>2368</ele>
        <time>2019-10-06T10:55:25Z</time>
      </trkpt>
      <trkpt lat="45.70495" lon="6.80264">
        <ele>2368</ele>
        <time>2019-10-06T10:55:26Z</time>
      </trkpt>
      <trkpt lat="45.70493" lon="6.80265">
        <ele>2367</ele>
        <time>2019-10-06T10:55:27Z</time>
      </trkpt>
      <trkpt lat="45.70491" lon="6.80267">
        <ele>2366</ele>
        <time>2019-10-06T10:55:28Z</time>
      </trkpt>
      <trkpt lat="45.7049" lon="6.80268">
        <ele>2366</ele>
        <time>2019-10-06T10:55:29Z</time>
      </trkpt>
      <trkpt lat="45.70488" lon="6.8027">
        <ele>2366</ele>
        <time>2019-10-06T10:55:30Z</time>
      </trkpt>
      <trkpt lat="45.70486" lon="6.80272">
        <ele>2366</ele>
        <time>2019-10-06T10:55:31Z</time>
      </trkpt>
      <trkpt lat="45.70485" lon="6.80274">
        <ele>2366</ele>
        <time>2019-10-06T10:55:32Z</time>
      </trkpt>
      <trkpt lat="45.70483" lon="6.80276">
        <ele>2365</ele>
        <time>2019-10-06T10:55:33Z</time>
      </trkpt>
      <trkpt lat="45.70481" lon="6.80279">
        <ele>2364</ele>
        <time>2019-10-06T10:55:35Z</time>
      </trkpt>
      <trkpt lat="45.70478" lon="6.80281">
        <ele>2364</ele>
        <time>2019-10-06T10:55:37Z</time>
      </trkpt>
      <trkpt lat="45.70475" lon="6.80284">
        <ele>2363</ele>
        <time>2019-10-06T10:55:39Z</time>
      </trkpt>
      <trkpt lat="45.70473" lon="6.80288">
        <ele>2363</ele>
        <time>2019-10-06T10:55:41Z</time>
      </trkpt>
      <trkpt lat="45.70471" lon="6.80291">
        <ele>2363</ele>
        <time>2019-10-06T10:55:43Z</time>
      </trkpt>
      <trkpt lat="45.70469" lon="6.80293">
        <ele>2363</ele>
        <time>2019-10-06T10:55:44Z</time>
      </trkpt>
      <trkpt lat="45.70468" lon="6.80295">
        <ele>2362</ele>
        <time>2019-10-06T10:55:45Z</time>
      </trkpt>
      <trkpt lat="45.70466" lon="6.80297">
        <ele>2361</ele>
        <time>2019-10-06T10:55:46Z</time>
      </trkpt>
      <trkpt lat="45.70465" lon="6.80299">
        <ele>2361</ele>
        <time>2019-10-06T10:55:47Z</time>
      </trkpt>
      <trkpt lat="45.70463" lon="6.80302">
        <ele>2360</ele>
        <time>2019-10-06T10:55:48Z</time>
      </trkpt>
      <trkpt lat="45.70462" lon="6.80304">
        <ele>2360</ele>
        <time>2019-10-06T10:55:49Z</time>
      </trkpt>
      <trkpt lat="45.7046" lon="6.80308">
        <ele>2359</ele>
        <time>2019-10-06T10:55:51Z</time>
      </trkpt>
      <trkpt lat="45.70458" lon="6.8031">
        <ele>2358</ele>
        <time>2019-10-06T10:55:52Z</time>
      </trkpt>
      <trkpt lat="45.70457" lon="6.80312">
        <ele>2358</ele>
        <time>2019-10-06T10:55:53Z</time>
      </trkpt>
      <trkpt lat="45.70455" lon="6.80317">
        <ele>2358</ele>
        <time>2019-10-06T10:55:55Z</time>
      </trkpt>
      <trkpt lat="45.70454" lon="6.80319">
        <ele>2358</ele>
        <time>2019-10-06T10:55:56Z</time>
      </trkpt>
      <trkpt lat="45.70453" lon="6.80321">
        <ele>2358</ele>
        <time>2019-10-06T10:55:57Z</time>
      </trkpt>
      <trkpt lat="45.70451" lon="6.80323">
        <ele>2357</ele>
        <time>2019-10-06T10:55:58Z</time>
      </trkpt>
      <trkpt lat="45.7045" lon="6.80324">
        <ele>2356</ele>
        <time>2019-10-06T10:55:59Z</time>
      </trkpt>
      <trkpt lat="45.70448" lon="6.80326">
        <ele>2355</ele>
        <time>2019-10-06T10:56:00Z</time>
      </trkpt>
      <trkpt lat="45.70446" lon="6.80327">
        <ele>2355</ele>
        <time>2019-10-06T10:56:01Z</time>
      </trkpt>
      <trkpt lat="45.70444" lon="6.80328">
        <ele>2355</ele>
        <time>2019-10-06T10:56:02Z</time>
      </trkpt>
      <trkpt lat="45.70442" lon="6.80331">
        <ele>2355</ele>
        <time>2019-10-06T10:56:04Z</time>
      </trkpt>
      <trkpt lat="45.70441" lon="6.80335">
        <ele>2354</ele>
        <time>2019-10-06T10:56:06Z</time>
      </trkpt>
      <trkpt lat="45.7044" lon="6.80337">
        <ele>2354</ele>
        <time>2019-10-06T10:56:07Z</time>
      </trkpt>
      <trkpt lat="45.70438" lon="6.80338">
        <ele>2354</ele>
        <time>2019-10-06T10:56:08Z</time>
      </trkpt>
      <trkpt lat="45.70436" lon="6.80341">
        <ele>2354</ele>
        <time>2019-10-06T10:56:10Z</time>
      </trkpt>
      <trkpt lat="45.70433" lon="6.80344">
        <ele>2352</ele>
        <time>2019-10-06T10:56:12Z</time>
      </trkpt>
      <trkpt lat="45.70431" lon="6.80348">
        <ele>2350</ele>
        <time>2019-10-06T10:56:14Z</time>
      </trkpt>
      <trkpt lat="45.70429" lon="6.80351">
        <ele>2349</ele>
        <time>2019-10-06T10:56:15Z</time>
      </trkpt>
      <trkpt lat="45.70428" lon="6.80351">
        <ele>2349</ele>
        <time>2019-10-06T10:56:16Z</time>
      </trkpt>
      <trkpt lat="45.70426" lon="6.80353">
        <ele>2349</ele>
        <time>2019-10-06T10:56:17Z</time>
      </trkpt>
      <trkpt lat="45.70424" lon="6.80355">
        <ele>2348</ele>
        <time>2019-10-06T10:56:18Z</time>
      </trkpt>
      <trkpt lat="45.70423" lon="6.80357">
        <ele>2347</ele>
        <time>2019-10-06T10:56:19Z</time>
      </trkpt>
      <trkpt lat="45.70419" lon="6.80359">
        <ele>2347</ele>
        <time>2019-10-06T10:56:21Z</time>
      </trkpt>
      <trkpt lat="45.70418" lon="6.8036">
        <ele>2347</ele>
        <time>2019-10-06T10:56:22Z</time>
      </trkpt>
      <trkpt lat="45.70416" lon="6.80361">
        <ele>2347</ele>
        <time>2019-10-06T10:56:23Z</time>
      </trkpt>
      <trkpt lat="45.70413" lon="6.80365">
        <ele>2346</ele>
        <time>2019-10-06T10:56:25Z</time>
      </trkpt>
      <trkpt lat="45.70412" lon="6.80367">
        <ele>2345</ele>
        <time>2019-10-06T10:56:26Z</time>
      </trkpt>
      <trkpt lat="45.7041" lon="6.80368">
        <ele>2345</ele>
        <time>2019-10-06T10:56:27Z</time>
      </trkpt>
      <trkpt lat="45.70409" lon="6.8037">
        <ele>2344</ele>
        <time>2019-10-06T10:56:28Z</time>
      </trkpt>
      <trkpt lat="45.70407" lon="6.80374">
        <ele>2344</ele>
        <time>2019-10-06T10:56:30Z</time>
      </trkpt>
      <trkpt lat="45.70404" lon="6.80377">
        <ele>2343</ele>
        <time>2019-10-06T10:56:32Z</time>
      </trkpt>
      <trkpt lat="45.70402" lon="6.8038">
        <ele>2342</ele>
        <time>2019-10-06T10:56:34Z</time>
      </trkpt>
      <trkpt lat="45.70401" lon="6.80384">
        <ele>2341</ele>
        <time>2019-10-06T10:56:36Z</time>
      </trkpt>
      <trkpt lat="45.70401" lon="6.80388">
        <ele>2340</ele>
        <time>2019-10-06T10:56:38Z</time>
      </trkpt>
      <trkpt lat="45.70401" lon="6.80393">
        <ele>2339</ele>
        <time>2019-10-06T10:56:40Z</time>
      </trkpt>
      <trkpt lat="45.704" lon="6.80395">
        <ele>2339</ele>
        <time>2019-10-06T10:56:41Z</time>
      </trkpt>
      <trkpt lat="45.70399" lon="6.80399">
        <ele>2338</ele>
        <time>2019-10-06T10:56:43Z</time>
      </trkpt>
      <trkpt lat="45.70398" lon="6.80401">
        <ele>2337</ele>
        <time>2019-10-06T10:56:44Z</time>
      </trkpt>
      <trkpt lat="45.70395" lon="6.80405">
        <ele>2337</ele>
        <time>2019-10-06T10:56:46Z</time>
      </trkpt>
      <trkpt lat="45.70394" lon="6.80409">
        <ele>2336</ele>
        <time>2019-10-06T10:56:48Z</time>
      </trkpt>
      <trkpt lat="45.70393" lon="6.80414">
        <ele>2336</ele>
        <time>2019-10-06T10:56:50Z</time>
      </trkpt>
      <trkpt lat="45.70392" lon="6.80418">
        <ele>2335</ele>
        <time>2019-10-06T10:56:52Z</time>
      </trkpt>
      <trkpt lat="45.7039" lon="6.80419">
        <ele>2334</ele>
        <time>2019-10-06T10:56:53Z</time>
      </trkpt>
      <trkpt lat="45.70389" lon="6.80422">
        <ele>2334</ele>
        <time>2019-10-06T10:56:54Z</time>
      </trkpt>
      <trkpt lat="45.70387" lon="6.80425">
        <ele>2333</ele>
        <time>2019-10-06T10:56:56Z</time>
      </trkpt>
      <trkpt lat="45.70386" lon="6.80426">
        <ele>2332</ele>
        <time>2019-10-06T10:56:57Z</time>
      </trkpt>
      <trkpt lat="45.70384" lon="6.80427">
        <ele>2332</ele>
        <time>2019-10-06T10:56:58Z</time>
      </trkpt>
      <trkpt lat="45.70382" lon="6.80429">
        <ele>2332</ele>
        <time>2019-10-06T10:56:59Z</time>
      </trkpt>
      <trkpt lat="45.70381" lon="6.80431">
        <ele>2332</ele>
        <time>2019-10-06T10:57:00Z</time>
      </trkpt>
      <trkpt lat="45.7038" lon="6.80434">
        <ele>2332</ele>
        <time>2019-10-06T10:57:01Z</time>
      </trkpt>
      <trkpt lat="45.70379" lon="6.80436">
        <ele>2331</ele>
        <time>2019-10-06T10:57:02Z</time>
      </trkpt>
      <trkpt lat="45.70378" lon="6.80438">
        <ele>2331</ele>
        <time>2019-10-06T10:57:03Z</time>
      </trkpt>
      <trkpt lat="45.70376" lon="6.8044">
        <ele>2331</ele>
        <time>2019-10-06T10:57:04Z</time>
      </trkpt>
      <trkpt lat="45.70374" lon="6.80442">
        <ele>2331</ele>
        <time>2019-10-06T10:57:05Z</time>
      </trkpt>
      <trkpt lat="45.70373" lon="6.80444">
        <ele>2331</ele>
        <time>2019-10-06T10:57:06Z</time>
      </trkpt>
      <trkpt lat="45.70372" lon="6.80447">
        <ele>2330</ele>
        <time>2019-10-06T10:57:07Z</time>
      </trkpt>
      <trkpt lat="45.7037" lon="6.80451">
        <ele>2330</ele>
        <time>2019-10-06T10:57:09Z</time>
      </trkpt>
      <trkpt lat="45.70368" lon="6.80454">
        <ele>2329</ele>
        <time>2019-10-06T10:57:11Z</time>
      </trkpt>
      <trkpt lat="45.70366" lon="6.80455">
        <ele>2329</ele>
        <time>2019-10-06T10:57:12Z</time>
      </trkpt>
      <trkpt lat="45.70364" lon="6.80456">
        <ele>2328</ele>
        <time>2019-10-06T10:57:13Z</time>
      </trkpt>
      <trkpt lat="45.70362" lon="6.80458">
        <ele>2328</ele>
        <time>2019-10-06T10:57:14Z</time>
      </trkpt>
      <trkpt lat="45.7036" lon="6.80462">
        <ele>2328</ele>
        <time>2019-10-06T10:57:16Z</time>
      </trkpt>
      <trkpt lat="45.70358" lon="6.80466">
        <ele>2328</ele>
        <time>2019-10-06T10:57:18Z</time>
      </trkpt>
      <trkpt lat="45.70356" lon="6.80469">
        <ele>2327</ele>
        <time>2019-10-06T10:57:20Z</time>
      </trkpt>
      <trkpt lat="45.70354" lon="6.80474">
        <ele>2327</ele>
        <time>2019-10-06T10:57:22Z</time>
      </trkpt>
      <trkpt lat="45.70353" lon="6.80478">
        <ele>2327</ele>
        <time>2019-10-06T10:57:24Z</time>
      </trkpt>
      <trkpt lat="45.70353" lon="6.80481">
        <ele>2326</ele>
        <time>2019-10-06T10:57:25Z</time>
      </trkpt>
      <trkpt lat="45.70352" lon="6.80483">
        <ele>2326</ele>
        <time>2019-10-06T10:57:26Z</time>
      </trkpt>
      <trkpt lat="45.70351" lon="6.80486">
        <ele>2326</ele>
        <time>2019-10-06T10:57:27Z</time>
      </trkpt>
      <trkpt lat="45.70349" lon="6.80489">
        <ele>2326</ele>
        <time>2019-10-06T10:57:29Z</time>
      </trkpt>
      <trkpt lat="45.70348" lon="6.80492">
        <ele>2324</ele>
        <time>2019-10-06T10:57:30Z</time>
      </trkpt>
      <trkpt lat="45.70346" lon="6.80496">
        <ele>2324</ele>
        <time>2019-10-06T10:57:32Z</time>
      </trkpt>
      <trkpt lat="45.70345" lon="6.80498">
        <ele>2324</ele>
        <time>2019-10-06T10:57:33Z</time>
      </trkpt>
      <trkpt lat="45.70343" lon="6.805">
        <ele>2324</ele>
        <time>2019-10-06T10:57:34Z</time>
      </trkpt>
      <trkpt lat="45.70342" lon="6.80503">
        <ele>2323</ele>
        <time>2019-10-06T10:57:35Z</time>
      </trkpt>
      <trkpt lat="45.7034" lon="6.80505">
        <ele>2323</ele>
        <time>2019-10-06T10:57:36Z</time>
      </trkpt>
      <trkpt lat="45.70339" lon="6.80507">
        <ele>2322</ele>
        <time>2019-10-06T10:57:37Z</time>
      </trkpt>
      <trkpt lat="45.70338" lon="6.8051">
        <ele>2322</ele>
        <time>2019-10-06T10:57:38Z</time>
      </trkpt>
      <trkpt lat="45.70336" lon="6.80513">
        <ele>2322</ele>
        <time>2019-10-06T10:57:39Z</time>
      </trkpt>
      <trkpt lat="45.70335" lon="6.80516">
        <ele>2322</ele>
        <time>2019-10-06T10:57:40Z</time>
      </trkpt>
      <trkpt lat="45.70334" lon="6.8052">
        <ele>2322</ele>
        <time>2019-10-06T10:57:41Z</time>
      </trkpt>
      <trkpt lat="45.70334" lon="6.80521">
        <ele>2322</ele>
        <time>2019-10-06T10:57:42Z</time>
      </trkpt>
      <trkpt lat="45.70332" lon="6.80526">
        <ele>2322</ele>
        <time>2019-10-06T10:57:43Z</time>
      </trkpt>
      <trkpt lat="45.70331" lon="6.80527">
        <ele>2322</ele>
        <time>2019-10-06T10:57:44Z</time>
      </trkpt>
      <trkpt lat="45.7033" lon="6.8053">
        <ele>2321</ele>
        <time>2019-10-06T10:57:45Z</time>
      </trkpt>
      <trkpt lat="45.70328" lon="6.80534">
        <ele>2321</ele>
        <time>2019-10-06T10:57:46Z</time>
      </trkpt>
      <trkpt lat="45.70327" lon="6.80535">
        <ele>2321</ele>
        <time>2019-10-06T10:57:47Z</time>
      </trkpt>
      <trkpt lat="45.70326" lon="6.80537">
        <ele>2321</ele>
        <time>2019-10-06T10:57:48Z</time>
      </trkpt>
      <trkpt lat="45.70323" lon="6.8054">
        <ele>2321</ele>
        <time>2019-10-06T10:57:49Z</time>
      </trkpt>
      <trkpt lat="45.70322" lon="6.80541">
        <ele>2321</ele>
        <time>2019-10-06T10:57:50Z</time>
      </trkpt>
      <trkpt lat="45.7032" lon="6.80544">
        <ele>2321</ele>
        <time>2019-10-06T10:57:51Z</time>
      </trkpt>
      <trkpt lat="45.7032" lon="6.80545">
        <ele>2321</ele>
        <time>2019-10-06T10:57:52Z</time>
      </trkpt>
      <trkpt lat="45.70318" lon="6.80547">
        <ele>2321</ele>
        <time>2019-10-06T10:57:53Z</time>
      </trkpt>
      <trkpt lat="45.70316" lon="6.80549">
        <ele>2321</ele>
        <time>2019-10-06T10:57:54Z</time>
      </trkpt>
      <trkpt lat="45.70314" lon="6.8055">
        <ele>2320</ele>
        <time>2019-10-06T10:57:55Z</time>
      </trkpt>
      <trkpt lat="45.70311" lon="6.80551">
        <ele>2320</ele>
        <time>2019-10-06T10:57:56Z</time>
      </trkpt>
      <trkpt lat="45.70309" lon="6.80551">
        <ele>2320</ele>
        <time>2019-10-06T10:57:57Z</time>
      </trkpt>
      <trkpt lat="45.70307" lon="6.80553">
        <ele>2320</ele>
        <time>2019-10-06T10:57:58Z</time>
      </trkpt>
      <trkpt lat="45.70306" lon="6.80554">
        <ele>2320</ele>
        <time>2019-10-06T10:57:59Z</time>
      </trkpt>
      <trkpt lat="45.70304" lon="6.80556">
        <ele>2318</ele>
        <time>2019-10-06T10:58:00Z</time>
      </trkpt>
      <trkpt lat="45.70302" lon="6.80557">
        <ele>2318</ele>
        <time>2019-10-06T10:58:01Z</time>
      </trkpt>
      <trkpt lat="45.703" lon="6.80558">
        <ele>2318</ele>
        <time>2019-10-06T10:58:02Z</time>
      </trkpt>
      <trkpt lat="45.70298" lon="6.8056">
        <ele>2318</ele>
        <time>2019-10-06T10:58:03Z</time>
      </trkpt>
      <trkpt lat="45.70295" lon="6.80561">
        <ele>2318</ele>
        <time>2019-10-06T10:58:04Z</time>
      </trkpt>
      <trkpt lat="45.70293" lon="6.80563">
        <ele>2318</ele>
        <time>2019-10-06T10:58:05Z</time>
      </trkpt>
      <trkpt lat="45.70291" lon="6.80564">
        <ele>2318</ele>
        <time>2019-10-06T10:58:06Z</time>
      </trkpt>
      <trkpt lat="45.70289" lon="6.80566">
        <ele>2318</ele>
        <time>2019-10-06T10:58:07Z</time>
      </trkpt>
      <trkpt lat="45.70287" lon="6.80567">
        <ele>2317</ele>
        <time>2019-10-06T10:58:08Z</time>
      </trkpt>
      <trkpt lat="45.70285" lon="6.80567">
        <ele>2317</ele>
        <time>2019-10-06T10:58:09Z</time>
      </trkpt>
      <trkpt lat="45.70283" lon="6.80566">
        <ele>2317</ele>
        <time>2019-10-06T10:58:10Z</time>
      </trkpt>
      <trkpt lat="45.70281" lon="6.80566">
        <ele>2316</ele>
        <time>2019-10-06T10:58:11Z</time>
      </trkpt>
      <trkpt lat="45.70279" lon="6.80566">
        <ele>2316</ele>
        <time>2019-10-06T10:58:12Z</time>
      </trkpt>
      <trkpt lat="45.70276" lon="6.80566">
        <ele>2316</ele>
        <time>2019-10-06T10:58:13Z</time>
      </trkpt>
      <trkpt lat="45.70274" lon="6.80565">
        <ele>2316</ele>
        <time>2019-10-06T10:58:14Z</time>
      </trkpt>
      <trkpt lat="45.70272" lon="6.80566">
        <ele>2316</ele>
        <time>2019-10-06T10:58:15Z</time>
      </trkpt>
      <trkpt lat="45.7027" lon="6.80565">
        <ele>2316</ele>
        <time>2019-10-06T10:58:16Z</time>
      </trkpt>
      <trkpt lat="45.70268" lon="6.80565">
        <ele>2316</ele>
        <time>2019-10-06T10:58:17Z</time>
      </trkpt>
      <trkpt lat="45.70266" lon="6.80565">
        <ele>2316</ele>
        <time>2019-10-06T10:58:18Z</time>
      </trkpt>
      <trkpt lat="45.70264" lon="6.80566">
        <ele>2315</ele>
        <time>2019-10-06T10:58:19Z</time>
      </trkpt>
      <trkpt lat="45.70262" lon="6.80566">
        <ele>2315</ele>
        <time>2019-10-06T10:58:20Z</time>
      </trkpt>
      <trkpt lat="45.7026" lon="6.80566">
        <ele>2315</ele>
        <time>2019-10-06T10:58:21Z</time>
      </trkpt>
      <trkpt lat="45.70256" lon="6.80567">
        <ele>2315</ele>
        <time>2019-10-06T10:58:23Z</time>
      </trkpt>
      <trkpt lat="45.70252" lon="6.8057">
        <ele>2315</ele>
        <time>2019-10-06T10:58:25Z</time>
      </trkpt>
      <trkpt lat="45.70251" lon="6.8057">
        <ele>2315</ele>
        <time>2019-10-06T10:58:26Z</time>
      </trkpt>
      <trkpt lat="45.7025" lon="6.80571">
        <ele>2315</ele>
        <time>2019-10-06T10:58:27Z</time>
      </trkpt>
      <trkpt lat="45.70248" lon="6.80572">
        <ele>2315</ele>
        <time>2019-10-06T10:58:28Z</time>
      </trkpt>
      <trkpt lat="45.70245" lon="6.80573">
        <ele>2315</ele>
        <time>2019-10-06T10:58:30Z</time>
      </trkpt>
      <trkpt lat="45.70242" lon="6.80574">
        <ele>2315</ele>
        <time>2019-10-06T10:58:32Z</time>
      </trkpt>
      <trkpt lat="45.7024" lon="6.80575">
        <ele>2315</ele>
        <time>2019-10-06T10:58:33Z</time>
      </trkpt>
      <trkpt lat="45.70237" lon="6.80575">
        <ele>2315</ele>
        <time>2019-10-06T10:58:34Z</time>
      </trkpt>
      <trkpt lat="45.70235" lon="6.80576">
        <ele>2315</ele>
        <time>2019-10-06T10:58:35Z</time>
      </trkpt>
      <trkpt lat="45.70233" lon="6.80576">
        <ele>2314</ele>
        <time>2019-10-06T10:58:36Z</time>
      </trkpt>
      <trkpt lat="45.70231" lon="6.80577">
        <ele>2314</ele>
        <time>2019-10-06T10:58:37Z</time>
      </trkpt>
      <trkpt lat="45.70229" lon="6.80577">
        <ele>2314</ele>
        <time>2019-10-06T10:58:38Z</time>
      </trkpt>
      <trkpt lat="45.70227" lon="6.80578">
        <ele>2313</ele>
        <time>2019-10-06T10:58:39Z</time>
      </trkpt>
      <trkpt lat="45.70225" lon="6.80579">
        <ele>2313</ele>
        <time>2019-10-06T10:58:40Z</time>
      </trkpt>
      <trkpt lat="45.70223" lon="6.80578">
        <ele>2312</ele>
        <time>2019-10-06T10:58:41Z</time>
      </trkpt>
      <trkpt lat="45.70221" lon="6.80578">
        <ele>2312</ele>
        <time>2019-10-06T10:58:42Z</time>
      </trkpt>
      <trkpt lat="45.70219" lon="6.80579">
        <ele>2312</ele>
        <time>2019-10-06T10:58:43Z</time>
      </trkpt>
      <trkpt lat="45.70217" lon="6.80581">
        <ele>2312</ele>
        <time>2019-10-06T10:58:44Z</time>
      </trkpt>
      <trkpt lat="45.70216" lon="6.80582">
        <ele>2312</ele>
        <time>2019-10-06T10:58:45Z</time>
      </trkpt>
      <trkpt lat="45.70214" lon="6.80584">
        <ele>2312</ele>
        <time>2019-10-06T10:58:46Z</time>
      </trkpt>
      <trkpt lat="45.70212" lon="6.80585">
        <ele>2312</ele>
        <time>2019-10-06T10:58:47Z</time>
      </trkpt>
      <trkpt lat="45.70211" lon="6.80587">
        <ele>2312</ele>
        <time>2019-10-06T10:58:48Z</time>
      </trkpt>
      <trkpt lat="45.70209" lon="6.80589">
        <ele>2312</ele>
        <time>2019-10-06T10:58:49Z</time>
      </trkpt>
      <trkpt lat="45.70207" lon="6.80591">
        <ele>2312</ele>
        <time>2019-10-06T10:58:50Z</time>
      </trkpt>
      <trkpt lat="45.70205" lon="6.80592">
        <ele>2311</ele>
        <time>2019-10-06T10:58:51Z</time>
      </trkpt>
      <trkpt lat="45.70204" lon="6.80594">
        <ele>2311</ele>
        <time>2019-10-06T10:58:52Z</time>
      </trkpt>
      <trkpt lat="45.70202" lon="6.80596">
        <ele>2311</ele>
        <time>2019-10-06T10:58:53Z</time>
      </trkpt>
      <trkpt lat="45.70201" lon="6.80598">
        <ele>2311</ele>
        <time>2019-10-06T10:58:54Z</time>
      </trkpt>
      <trkpt lat="45.70199" lon="6.80599">
        <ele>2311</ele>
        <time>2019-10-06T10:58:55Z</time>
      </trkpt>
      <trkpt lat="45.70197" lon="6.806">
        <ele>2311</ele>
        <time>2019-10-06T10:58:56Z</time>
      </trkpt>
      <trkpt lat="45.70194" lon="6.80602">
        <ele>2312</ele>
        <time>2019-10-06T10:58:58Z</time>
      </trkpt>
      <trkpt lat="45.70191" lon="6.80603">
        <ele>2312</ele>
        <time>2019-10-06T10:59:00Z</time>
      </trkpt>
      <trkpt lat="45.70188" lon="6.80606">
        <ele>2312</ele>
        <time>2019-10-06T10:59:02Z</time>
      </trkpt>
      <trkpt lat="45.70187" lon="6.80608">
        <ele>2312</ele>
        <time>2019-10-06T10:59:03Z</time>
      </trkpt>
      <trkpt lat="45.70185" lon="6.8061">
        <ele>2311</ele>
        <time>2019-10-06T10:59:04Z</time>
      </trkpt>
      <trkpt lat="45.70183" lon="6.80614">
        <ele>2311</ele>
        <time>2019-10-06T10:59:06Z</time>
      </trkpt>
      <trkpt lat="45.70182" lon="6.80616">
        <ele>2311</ele>
        <time>2019-10-06T10:59:07Z</time>
      </trkpt>
      <trkpt lat="45.7018" lon="6.80617">
        <ele>2310</ele>
        <time>2019-10-06T10:59:08Z</time>
      </trkpt>
      <trkpt lat="45.70178" lon="6.80619">
        <ele>2309</ele>
        <time>2019-10-06T10:59:09Z</time>
      </trkpt>
      <trkpt lat="45.70177" lon="6.8062">
        <ele>2309</ele>
        <time>2019-10-06T10:59:10Z</time>
      </trkpt>
      <trkpt lat="45.70175" lon="6.80621">
        <ele>2310</ele>
        <time>2019-10-06T10:59:11Z</time>
      </trkpt>
      <trkpt lat="45.70172" lon="6.80623">
        <ele>2310</ele>
        <time>2019-10-06T10:59:12Z</time>
      </trkpt>
      <trkpt lat="45.7017" lon="6.80624">
        <ele>2310</ele>
        <time>2019-10-06T10:59:13Z</time>
      </trkpt>
      <trkpt lat="45.70168" lon="6.80625">
        <ele>2309</ele>
        <time>2019-10-06T10:59:14Z</time>
      </trkpt>
      <trkpt lat="45.70165" lon="6.80626">
        <ele>2308</ele>
        <time>2019-10-06T10:59:15Z</time>
      </trkpt>
      <trkpt lat="45.70163" lon="6.80628">
        <ele>2308</ele>
        <time>2019-10-06T10:59:16Z</time>
      </trkpt>
      <trkpt lat="45.70161" lon="6.80629">
        <ele>2307</ele>
        <time>2019-10-06T10:59:17Z</time>
      </trkpt>
      <trkpt lat="45.70159" lon="6.8063">
        <ele>2306</ele>
        <time>2019-10-06T10:59:18Z</time>
      </trkpt>
      <trkpt lat="45.70156" lon="6.80632">
        <ele>2305</ele>
        <time>2019-10-06T10:59:19Z</time>
      </trkpt>
      <trkpt lat="45.70155" lon="6.80632">
        <ele>2305</ele>
        <time>2019-10-06T10:59:20Z</time>
      </trkpt>
      <trkpt lat="45.70153" lon="6.80632">
        <ele>2305</ele>
        <time>2019-10-06T10:59:21Z</time>
      </trkpt>
      <trkpt lat="45.70151" lon="6.80633">
        <ele>2304</ele>
        <time>2019-10-06T10:59:22Z</time>
      </trkpt>
      <trkpt lat="45.70149" lon="6.80633">
        <ele>2304</ele>
        <time>2019-10-06T10:59:23Z</time>
      </trkpt>
      <trkpt lat="45.70147" lon="6.80632">
        <ele>2305</ele>
        <time>2019-10-06T10:59:24Z</time>
      </trkpt>
      <trkpt lat="45.70145" lon="6.80633">
        <ele>2305</ele>
        <time>2019-10-06T10:59:25Z</time>
      </trkpt>
      <trkpt lat="45.70142" lon="6.80635">
        <ele>2305</ele>
        <time>2019-10-06T10:59:26Z</time>
      </trkpt>
      <trkpt lat="45.70141" lon="6.80635">
        <ele>2304</ele>
        <time>2019-10-06T10:59:27Z</time>
      </trkpt>
      <trkpt lat="45.7014" lon="6.80636">
        <ele>2303</ele>
        <time>2019-10-06T10:59:28Z</time>
      </trkpt>
      <trkpt lat="45.70138" lon="6.80638">
        <ele>2303</ele>
        <time>2019-10-06T10:59:29Z</time>
      </trkpt>
      <trkpt lat="45.70136" lon="6.80639">
        <ele>2303</ele>
        <time>2019-10-06T10:59:30Z</time>
      </trkpt>
      <trkpt lat="45.70133" lon="6.80641">
        <ele>2303</ele>
        <time>2019-10-06T10:59:31Z</time>
      </trkpt>
      <trkpt lat="45.70132" lon="6.80642">
        <ele>2303</ele>
        <time>2019-10-06T10:59:32Z</time>
      </trkpt>
      <trkpt lat="45.70129" lon="6.80644">
        <ele>2300</ele>
        <time>2019-10-06T10:59:33Z</time>
      </trkpt>
      <trkpt lat="45.70128" lon="6.80645">
        <ele>2298</ele>
        <time>2019-10-06T10:59:34Z</time>
      </trkpt>
      <trkpt lat="45.70126" lon="6.80646">
        <ele>2298</ele>
        <time>2019-10-06T10:59:35Z</time>
      </trkpt>
      <trkpt lat="45.70124" lon="6.80648">
        <ele>2298</ele>
        <time>2019-10-06T10:59:36Z</time>
      </trkpt>
      <trkpt lat="45.70122" lon="6.80652">
        <ele>2298</ele>
        <time>2019-10-06T10:59:37Z</time>
      </trkpt>
      <trkpt lat="45.70121" lon="6.80653">
        <ele>2298</ele>
        <time>2019-10-06T10:59:38Z</time>
      </trkpt>
      <trkpt lat="45.70119" lon="6.80655">
        <ele>2297</ele>
        <time>2019-10-06T10:59:39Z</time>
      </trkpt>
      <trkpt lat="45.70118" lon="6.80657">
        <ele>2297</ele>
        <time>2019-10-06T10:59:40Z</time>
      </trkpt>
      <trkpt lat="45.70116" lon="6.80659">
        <ele>2296</ele>
        <time>2019-10-06T10:59:41Z</time>
      </trkpt>
      <trkpt lat="45.70114" lon="6.80661">
        <ele>2296</ele>
        <time>2019-10-06T10:59:42Z</time>
      </trkpt>
      <trkpt lat="45.70113" lon="6.80662">
        <ele>2295</ele>
        <time>2019-10-06T10:59:43Z</time>
      </trkpt>
      <trkpt lat="45.70111" lon="6.80664">
        <ele>2295</ele>
        <time>2019-10-06T10:59:44Z</time>
      </trkpt>
      <trkpt lat="45.70109" lon="6.80666">
        <ele>2294</ele>
        <time>2019-10-06T10:59:45Z</time>
      </trkpt>
      <trkpt lat="45.70108" lon="6.80667">
        <ele>2293</ele>
        <time>2019-10-06T10:59:46Z</time>
      </trkpt>
      <trkpt lat="45.70105" lon="6.8067">
        <ele>2293</ele>
        <time>2019-10-06T10:59:47Z</time>
      </trkpt>
      <trkpt lat="45.70104" lon="6.80671">
        <ele>2293</ele>
        <time>2019-10-06T10:59:48Z</time>
      </trkpt>
      <trkpt lat="45.70102" lon="6.80672">
        <ele>2293</ele>
        <time>2019-10-06T10:59:49Z</time>
      </trkpt>
      <trkpt lat="45.70101" lon="6.80674">
        <ele>2292</ele>
        <time>2019-10-06T10:59:50Z</time>
      </trkpt>
      <trkpt lat="45.70098" lon="6.80676">
        <ele>2292</ele>
        <time>2019-10-06T10:59:52Z</time>
      </trkpt>
      <trkpt lat="45.70096" lon="6.80678">
        <ele>2292</ele>
        <time>2019-10-06T10:59:53Z</time>
      </trkpt>
      <trkpt lat="45.70094" lon="6.80679">
        <ele>2291</ele>
        <time>2019-10-06T10:59:54Z</time>
      </trkpt>
      <trkpt lat="45.70093" lon="6.8068">
        <ele>2291</ele>
        <time>2019-10-06T10:59:55Z</time>
      </trkpt>
      <trkpt lat="45.70091" lon="6.80681">
        <ele>2290</ele>
        <time>2019-10-06T10:59:56Z</time>
      </trkpt>
      <trkpt lat="45.70089" lon="6.80683">
        <ele>2291</ele>
        <time>2019-10-06T10:59:57Z</time>
      </trkpt>
      <trkpt lat="45.70087" lon="6.80686">
        <ele>2291</ele>
        <time>2019-10-06T10:59:58Z</time>
      </trkpt>
      <trkpt lat="45.70086" lon="6.80687">
        <ele>2290</ele>
        <time>2019-10-06T10:59:59Z</time>
      </trkpt>
      <trkpt lat="45.70084" lon="6.80688">
        <ele>2290</ele>
        <time>2019-10-06T11:00:00Z</time>
      </trkpt>
      <trkpt lat="45.70082" lon="6.8069">
        <ele>2290</ele>
        <time>2019-10-06T11:00:01Z</time>
      </trkpt>
      <trkpt lat="45.70079" lon="6.80692">
        <ele>2290</ele>
        <time>2019-10-06T11:00:03Z</time>
      </trkpt>
      <trkpt lat="45.70077" lon="6.80696">
        <ele>2290</ele>
        <time>2019-10-06T11:00:05Z</time>
      </trkpt>
      <trkpt lat="45.70074" lon="6.80699">
        <ele>2290</ele>
        <time>2019-10-06T11:00:07Z</time>
      </trkpt>
      <trkpt lat="45.70072" lon="6.80701">
        <ele>2290</ele>
        <time>2019-10-06T11:00:08Z</time>
      </trkpt>
      <trkpt lat="45.7007" lon="6.80703">
        <ele>2290</ele>
        <time>2019-10-06T11:00:09Z</time>
      </trkpt>
      <trkpt lat="45.70069" lon="6.80705">
        <ele>2290</ele>
        <time>2019-10-06T11:00:10Z</time>
      </trkpt>
      <trkpt lat="45.70067" lon="6.80706">
        <ele>2291</ele>
        <time>2019-10-06T11:00:11Z</time>
      </trkpt>
      <trkpt lat="45.70065" lon="6.80708">
        <ele>2291</ele>
        <time>2019-10-06T11:00:12Z</time>
      </trkpt>
      <trkpt lat="45.70063" lon="6.8071">
        <ele>2290</ele>
        <time>2019-10-06T11:00:13Z</time>
      </trkpt>
      <trkpt lat="45.70061" lon="6.80712">
        <ele>2289</ele>
        <time>2019-10-06T11:00:14Z</time>
      </trkpt>
      <trkpt lat="45.7006" lon="6.80713">
        <ele>2289</ele>
        <time>2019-10-06T11:00:15Z</time>
      </trkpt>
      <trkpt lat="45.70058" lon="6.80715">
        <ele>2289</ele>
        <time>2019-10-06T11:00:16Z</time>
      </trkpt>
      <trkpt lat="45.70057" lon="6.80717">
        <ele>2289</ele>
        <time>2019-10-06T11:00:17Z</time>
      </trkpt>
      <trkpt lat="45.70054" lon="6.8072">
        <ele>2288</ele>
        <time>2019-10-06T11:00:18Z</time>
      </trkpt>
      <trkpt lat="45.70053" lon="6.80721">
        <ele>2289</ele>
        <time>2019-10-06T11:00:19Z</time>
      </trkpt>
      <trkpt lat="45.70052" lon="6.80723">
        <ele>2289</ele>
        <time>2019-10-06T11:00:20Z</time>
      </trkpt>
      <trkpt lat="45.7005" lon="6.80724">
        <ele>2289</ele>
        <time>2019-10-06T11:00:21Z</time>
      </trkpt>
      <trkpt lat="45.70048" lon="6.80727">
        <ele>2289</ele>
        <time>2019-10-06T11:00:22Z</time>
      </trkpt>
      <trkpt lat="45.70047" lon="6.80729">
        <ele>2289</ele>
        <time>2019-10-06T11:00:23Z</time>
      </trkpt>
      <trkpt lat="45.70044" lon="6.80731">
        <ele>2288</ele>
        <time>2019-10-06T11:00:24Z</time>
      </trkpt>
      <trkpt lat="45.70042" lon="6.80732">
        <ele>2288</ele>
        <time>2019-10-06T11:00:25Z</time>
      </trkpt>
      <trkpt lat="45.7004" lon="6.80734">
        <ele>2287</ele>
        <time>2019-10-06T11:00:26Z</time>
      </trkpt>
      <trkpt lat="45.70039" lon="6.80735">
        <ele>2286</ele>
        <time>2019-10-06T11:00:27Z</time>
      </trkpt>
      <trkpt lat="45.70037" lon="6.80736">
        <ele>2285</ele>
        <time>2019-10-06T11:00:28Z</time>
      </trkpt>
      <trkpt lat="45.70035" lon="6.80736">
        <ele>2285</ele>
        <time>2019-10-06T11:00:29Z</time>
      </trkpt>
      <trkpt lat="45.70033" lon="6.80737">
        <ele>2285</ele>
        <time>2019-10-06T11:00:30Z</time>
      </trkpt>
      <trkpt lat="45.7003" lon="6.80738">
        <ele>2284</ele>
        <time>2019-10-06T11:00:31Z</time>
      </trkpt>
      <trkpt lat="45.70028" lon="6.80738">
        <ele>2283</ele>
        <time>2019-10-06T11:00:32Z</time>
      </trkpt>
      <trkpt lat="45.70027" lon="6.80739">
        <ele>2283</ele>
        <time>2019-10-06T11:00:33Z</time>
      </trkpt>
      <trkpt lat="45.70025" lon="6.80742">
        <ele>2283</ele>
        <time>2019-10-06T11:00:35Z</time>
      </trkpt>
      <trkpt lat="45.70027" lon="6.80744">
        <ele>2283</ele>
        <time>2019-10-06T11:00:37Z</time>
      </trkpt>
      <trkpt lat="45.70029" lon="6.80746">
        <ele>2282</ele>
        <time>2019-10-06T11:00:38Z</time>
      </trkpt>
      <trkpt lat="45.70032" lon="6.80748">
        <ele>2282</ele>
        <time>2019-10-06T11:00:39Z</time>
      </trkpt>
      <trkpt lat="45.70034" lon="6.80748">
        <ele>2282</ele>
        <time>2019-10-06T11:00:40Z</time>
      </trkpt>
      <trkpt lat="45.70037" lon="6.80748">
        <ele>2282</ele>
        <time>2019-10-06T11:00:42Z</time>
      </trkpt>
      <trkpt lat="45.70039" lon="6.8075">
        <ele>2282</ele>
        <time>2019-10-06T11:00:44Z</time>
      </trkpt>
      <trkpt lat="45.70042" lon="6.80752">
        <ele>2281</ele>
        <time>2019-10-06T11:00:46Z</time>
      </trkpt>
      <trkpt lat="45.70045" lon="6.80754">
        <ele>2280</ele>
        <time>2019-10-06T11:00:48Z</time>
      </trkpt>
      <trkpt lat="45.70046" lon="6.80756">
        <ele>2279</ele>
        <time>2019-10-06T11:00:49Z</time>
      </trkpt>
      <trkpt lat="45.70048" lon="6.80758">
        <ele>2278</ele>
        <time>2019-10-06T11:00:50Z</time>
      </trkpt>
      <trkpt lat="45.70049" lon="6.8076">
        <ele>2278</ele>
        <time>2019-10-06T11:00:51Z</time>
      </trkpt>
      <trkpt lat="45.70051" lon="6.80761">
        <ele>2278</ele>
        <time>2019-10-06T11:00:52Z</time>
      </trkpt>
      <trkpt lat="45.70053" lon="6.80764">
        <ele>2278</ele>
        <time>2019-10-06T11:00:54Z</time>
      </trkpt>
      <trkpt lat="45.70054" lon="6.80767">
        <ele>2278</ele>
        <time>2019-10-06T11:00:57Z</time>
      </trkpt>
      <trkpt lat="45.70054" lon="6.80767">
        <ele>2278</ele>
        <time>2019-10-06T11:00:58Z</time>
      </trkpt>
      <trkpt lat="45.70054" lon="6.80767">
        <ele>2278</ele>
        <time>2019-10-06T11:01:02Z</time>
      </trkpt>
      <trkpt lat="45.70056" lon="6.80767">
        <ele>2278</ele>
        <time>2019-10-06T11:01:04Z</time>
      </trkpt>
      <trkpt lat="45.70056" lon="6.8077">
        <ele>2278</ele>
        <time>2019-10-06T11:01:06Z</time>
      </trkpt>
      <trkpt lat="45.70054" lon="6.80772">
        <ele>2278</ele>
        <time>2019-10-06T11:01:08Z</time>
      </trkpt>
      <trkpt lat="45.70052" lon="6.80773">
        <ele>2278</ele>
        <time>2019-10-06T11:01:10Z</time>
      </trkpt>
      <trkpt lat="45.7005" lon="6.80774">
        <ele>2278</ele>
        <time>2019-10-06T11:01:12Z</time>
      </trkpt>
      <trkpt lat="45.70047" lon="6.80776">
        <ele>2278</ele>
        <time>2019-10-06T11:01:14Z</time>
      </trkpt>
      <trkpt lat="45.70045" lon="6.80777">
        <ele>2278</ele>
        <time>2019-10-06T11:01:16Z</time>
      </trkpt>
      <trkpt lat="45.70042" lon="6.80777">
        <ele>2279</ele>
        <time>2019-10-06T11:01:18Z</time>
      </trkpt>
      <trkpt lat="45.7004" lon="6.80777">
        <ele>2279</ele>
        <time>2019-10-06T11:01:20Z</time>
      </trkpt>
      <trkpt lat="45.70038" lon="6.80778">
        <ele>2279</ele>
        <time>2019-10-06T11:01:22Z</time>
      </trkpt>
      <trkpt lat="45.70036" lon="6.80778">
        <ele>2279</ele>
        <time>2019-10-06T11:01:24Z</time>
      </trkpt>
      <trkpt lat="45.70033" lon="6.80776">
        <ele>2279</ele>
        <time>2019-10-06T11:01:26Z</time>
      </trkpt>
      <trkpt lat="45.70031" lon="6.80775">
        <ele>2279</ele>
        <time>2019-10-06T11:01:28Z</time>
      </trkpt>
      <trkpt lat="45.70028" lon="6.80776">
        <ele>2279</ele>
        <time>2019-10-06T11:01:30Z</time>
      </trkpt>
      <trkpt lat="45.70025" lon="6.80778">
        <ele>2279</ele>
        <time>2019-10-06T11:01:32Z</time>
      </trkpt>
      <trkpt lat="45.70023" lon="6.80779">
        <ele>2278</ele>
        <time>2019-10-06T11:01:33Z</time>
      </trkpt>
      <trkpt lat="45.70021" lon="6.8078">
        <ele>2278</ele>
        <time>2019-10-06T11:01:34Z</time>
      </trkpt>
      <trkpt lat="45.70019" lon="6.8078">
        <ele>2278</ele>
        <time>2019-10-06T11:01:35Z</time>
      </trkpt>
      <trkpt lat="45.70016" lon="6.8078">
        <ele>2278</ele>
        <time>2019-10-06T11:01:36Z</time>
      </trkpt>
      <trkpt lat="45.70014" lon="6.8078">
        <ele>2278</ele>
        <time>2019-10-06T11:01:37Z</time>
      </trkpt>
      <trkpt lat="45.70012" lon="6.80781">
        <ele>2278</ele>
        <time>2019-10-06T11:01:38Z</time>
      </trkpt>
      <trkpt lat="45.7001" lon="6.80782">
        <ele>2278</ele>
        <time>2019-10-06T11:01:39Z</time>
      </trkpt>
      <trkpt lat="45.70008" lon="6.80783">
        <ele>2278</ele>
        <time>2019-10-06T11:01:40Z</time>
      </trkpt>
      <trkpt lat="45.70006" lon="6.80784">
        <ele>2278</ele>
        <time>2019-10-06T11:01:41Z</time>
      </trkpt>
      <trkpt lat="45.70004" lon="6.80785">
        <ele>2278</ele>
        <time>2019-10-06T11:01:42Z</time>
      </trkpt>
      <trkpt lat="45.70003" lon="6.80786">
        <ele>2278</ele>
        <time>2019-10-06T11:01:43Z</time>
      </trkpt>
      <trkpt lat="45.70001" lon="6.80787">
        <ele>2278</ele>
        <time>2019-10-06T11:01:44Z</time>
      </trkpt>
      <trkpt lat="45.69999" lon="6.80787">
        <ele>2278</ele>
        <time>2019-10-06T11:01:45Z</time>
      </trkpt>
      <trkpt lat="45.69997" lon="6.80788">
        <ele>2279</ele>
        <time>2019-10-06T11:01:46Z</time>
      </trkpt>
      <trkpt lat="45.69992" lon="6.8079">
        <ele>2279</ele>
        <time>2019-10-06T11:01:48Z</time>
      </trkpt>
      <trkpt lat="45.69991" lon="6.8079">
        <ele>2278</ele>
        <time>2019-10-06T11:01:49Z</time>
      </trkpt>
      <trkpt lat="45.69989" lon="6.80791">
        <ele>2278</ele>
        <time>2019-10-06T11:01:50Z</time>
      </trkpt>
      <trkpt lat="45.69986" lon="6.80791">
        <ele>2278</ele>
        <time>2019-10-06T11:01:51Z</time>
      </trkpt>
      <trkpt lat="45.69985" lon="6.80791">
        <ele>2278</ele>
        <time>2019-10-06T11:01:52Z</time>
      </trkpt>
      <trkpt lat="45.69983" lon="6.80791">
        <ele>2278</ele>
        <time>2019-10-06T11:01:53Z</time>
      </trkpt>
      <trkpt lat="45.69981" lon="6.80792">
        <ele>2278</ele>
        <time>2019-10-06T11:01:55Z</time>
      </trkpt>
      <trkpt lat="45.69978" lon="6.80792">
        <ele>2278</ele>
        <time>2019-10-06T11:01:57Z</time>
      </trkpt>
      <trkpt lat="45.69975" lon="6.80792">
        <ele>2278</ele>
        <time>2019-10-06T11:01:59Z</time>
      </trkpt>
      <trkpt lat="45.69973" lon="6.80793">
        <ele>2278</ele>
        <time>2019-10-06T11:02:01Z</time>
      </trkpt>
      <trkpt lat="45.69971" lon="6.80794">
        <ele>2278</ele>
        <time>2019-10-06T11:02:03Z</time>
      </trkpt>
      <trkpt lat="45.69969" lon="6.80794">
        <ele>2278</ele>
        <time>2019-10-06T11:02:04Z</time>
      </trkpt>
      <trkpt lat="45.69967" lon="6.80795">
        <ele>2278</ele>
        <time>2019-10-06T11:02:05Z</time>
      </trkpt>
      <trkpt lat="45.69965" lon="6.80796">
        <ele>2278</ele>
        <time>2019-10-06T11:02:06Z</time>
      </trkpt>
      <trkpt lat="45.69963" lon="6.80798">
        <ele>2278</ele>
        <time>2019-10-06T11:02:08Z</time>
      </trkpt>
      <trkpt lat="45.69962" lon="6.808">
        <ele>2278</ele>
        <time>2019-10-06T11:02:10Z</time>
      </trkpt>
      <trkpt lat="45.69959" lon="6.80801">
        <ele>2278</ele>
        <time>2019-10-06T11:02:12Z</time>
      </trkpt>
      <trkpt lat="45.69955" lon="6.80802">
        <ele>2278</ele>
        <time>2019-10-06T11:02:14Z</time>
      </trkpt>
      <trkpt lat="45.69954" lon="6.80802">
        <ele>2278</ele>
        <time>2019-10-06T11:02:15Z</time>
      </trkpt>
      <trkpt lat="45.69953" lon="6.80802">
        <ele>2278</ele>
        <time>2019-10-06T11:02:16Z</time>
      </trkpt>
      <trkpt lat="45.69951" lon="6.80803">
        <ele>2278</ele>
        <time>2019-10-06T11:02:17Z</time>
      </trkpt>
      <trkpt lat="45.69949" lon="6.80803">
        <ele>2278</ele>
        <time>2019-10-06T11:02:18Z</time>
      </trkpt>
      <trkpt lat="45.69947" lon="6.80804">
        <ele>2277</ele>
        <time>2019-10-06T11:02:19Z</time>
      </trkpt>
      <trkpt lat="45.69945" lon="6.80804">
        <ele>2277</ele>
        <time>2019-10-06T11:02:20Z</time>
      </trkpt>
      <trkpt lat="45.69943" lon="6.80805">
        <ele>2277</ele>
        <time>2019-10-06T11:02:21Z</time>
      </trkpt>
      <trkpt lat="45.69941" lon="6.80806">
        <ele>2277</ele>
        <time>2019-10-06T11:02:22Z</time>
      </trkpt>
      <trkpt lat="45.69939" lon="6.80808">
        <ele>2277</ele>
        <time>2019-10-06T11:02:23Z</time>
      </trkpt>
      <trkpt lat="45.69938" lon="6.80809">
        <ele>2276</ele>
        <time>2019-10-06T11:02:24Z</time>
      </trkpt>
      <trkpt lat="45.69936" lon="6.80811">
        <ele>2276</ele>
        <time>2019-10-06T11:02:25Z</time>
      </trkpt>
      <trkpt lat="45.69933" lon="6.80811">
        <ele>2275</ele>
        <time>2019-10-06T11:02:26Z</time>
      </trkpt>
      <trkpt lat="45.69931" lon="6.80812">
        <ele>2275</ele>
        <time>2019-10-06T11:02:27Z</time>
      </trkpt>
      <trkpt lat="45.69929" lon="6.80813">
        <ele>2275</ele>
        <time>2019-10-06T11:02:28Z</time>
      </trkpt>
      <trkpt lat="45.69927" lon="6.80812">
        <ele>2275</ele>
        <time>2019-10-06T11:02:29Z</time>
      </trkpt>
      <trkpt lat="45.69924" lon="6.80812">
        <ele>2274</ele>
        <time>2019-10-06T11:02:30Z</time>
      </trkpt>
      <trkpt lat="45.69921" lon="6.80812">
        <ele>2274</ele>
        <time>2019-10-06T11:02:31Z</time>
      </trkpt>
      <trkpt lat="45.6992" lon="6.80812">
        <ele>2274</ele>
        <time>2019-10-06T11:02:32Z</time>
      </trkpt>
      <trkpt lat="45.69918" lon="6.80812">
        <ele>2274</ele>
        <time>2019-10-06T11:02:33Z</time>
      </trkpt>
      <trkpt lat="45.69916" lon="6.80813">
        <ele>2274</ele>
        <time>2019-10-06T11:02:34Z</time>
      </trkpt>
      <trkpt lat="45.69915" lon="6.80814">
        <ele>2272</ele>
        <time>2019-10-06T11:02:35Z</time>
      </trkpt>
      <trkpt lat="45.69913" lon="6.80816">
        <ele>2274</ele>
        <time>2019-10-06T11:02:36Z</time>
      </trkpt>
      <trkpt lat="45.69911" lon="6.80817">
        <ele>2274</ele>
        <time>2019-10-06T11:02:37Z</time>
      </trkpt>
      <trkpt lat="45.69909" lon="6.80818">
        <ele>2274</ele>
        <time>2019-10-06T11:02:38Z</time>
      </trkpt>
      <trkpt lat="45.69908" lon="6.80818">
        <ele>2272</ele>
        <time>2019-10-06T11:02:39Z</time>
      </trkpt>
      <trkpt lat="45.69906" lon="6.80819">
        <ele>2274</ele>
        <time>2019-10-06T11:02:40Z</time>
      </trkpt>
      <trkpt lat="45.69904" lon="6.80821">
        <ele>2274</ele>
        <time>2019-10-06T11:02:41Z</time>
      </trkpt>
      <trkpt lat="45.699" lon="6.80823">
        <ele>2272</ele>
        <time>2019-10-06T11:02:43Z</time>
      </trkpt>
      <trkpt lat="45.69898" lon="6.80824">
        <ele>2272</ele>
        <time>2019-10-06T11:02:44Z</time>
      </trkpt>
      <trkpt lat="45.69896" lon="6.80827">
        <ele>2272</ele>
        <time>2019-10-06T11:02:45Z</time>
      </trkpt>
      <trkpt lat="45.69895" lon="6.80828">
        <ele>2271</ele>
        <time>2019-10-06T11:02:46Z</time>
      </trkpt>
      <trkpt lat="45.69893" lon="6.8083">
        <ele>2271</ele>
        <time>2019-10-06T11:02:47Z</time>
      </trkpt>
      <trkpt lat="45.69891" lon="6.80831">
        <ele>2271</ele>
        <time>2019-10-06T11:02:48Z</time>
      </trkpt>
      <trkpt lat="45.6989" lon="6.80834">
        <ele>2271</ele>
        <time>2019-10-06T11:02:49Z</time>
      </trkpt>
      <trkpt lat="45.69888" lon="6.80836">
        <ele>2271</ele>
        <time>2019-10-06T11:02:50Z</time>
      </trkpt>
      <trkpt lat="45.69887" lon="6.80838">
        <ele>2271</ele>
        <time>2019-10-06T11:02:51Z</time>
      </trkpt>
      <trkpt lat="45.69885" lon="6.8084">
        <ele>2271</ele>
        <time>2019-10-06T11:02:52Z</time>
      </trkpt>
      <trkpt lat="45.69884" lon="6.80842">
        <ele>2271</ele>
        <time>2019-10-06T11:02:53Z</time>
      </trkpt>
      <trkpt lat="45.69882" lon="6.80845">
        <ele>2270</ele>
        <time>2019-10-06T11:02:55Z</time>
      </trkpt>
      <trkpt lat="45.6988" lon="6.80848">
        <ele>2270</ele>
        <time>2019-10-06T11:02:57Z</time>
      </trkpt>
      <trkpt lat="45.69877" lon="6.8085">
        <ele>2271</ele>
        <time>2019-10-06T11:02:59Z</time>
      </trkpt>
      <trkpt lat="45.69875" lon="6.80851">
        <ele>2271</ele>
        <time>2019-10-06T11:03:00Z</time>
      </trkpt>
      <trkpt lat="45.69873" lon="6.80852">
        <ele>2271</ele>
        <time>2019-10-06T11:03:01Z</time>
      </trkpt>
      <trkpt lat="45.69872" lon="6.80854">
        <ele>2271</ele>
        <time>2019-10-06T11:03:02Z</time>
      </trkpt>
      <trkpt lat="45.6987" lon="6.80855">
        <ele>2270</ele>
        <time>2019-10-06T11:03:03Z</time>
      </trkpt>
      <trkpt lat="45.69868" lon="6.80857">
        <ele>2270</ele>
        <time>2019-10-06T11:03:04Z</time>
      </trkpt>
      <trkpt lat="45.69866" lon="6.80859">
        <ele>2270</ele>
        <time>2019-10-06T11:03:05Z</time>
      </trkpt>
      <trkpt lat="45.69864" lon="6.8086">
        <ele>2269</ele>
        <time>2019-10-06T11:03:06Z</time>
      </trkpt>
      <trkpt lat="45.69862" lon="6.80862">
        <ele>2269</ele>
        <time>2019-10-06T11:03:07Z</time>
      </trkpt>
      <trkpt lat="45.6986" lon="6.80863">
        <ele>2269</ele>
        <time>2019-10-06T11:03:08Z</time>
      </trkpt>
      <trkpt lat="45.69858" lon="6.80863">
        <ele>2269</ele>
        <time>2019-10-06T11:03:09Z</time>
      </trkpt>
      <trkpt lat="45.69856" lon="6.80864">
        <ele>2269</ele>
        <time>2019-10-06T11:03:10Z</time>
      </trkpt>
      <trkpt lat="45.69854" lon="6.80866">
        <ele>2269</ele>
        <time>2019-10-06T11:03:11Z</time>
      </trkpt>
      <trkpt lat="45.69852" lon="6.80867">
        <ele>2269</ele>
        <time>2019-10-06T11:03:12Z</time>
      </trkpt>
      <trkpt lat="45.6985" lon="6.80868">
        <ele>2268</ele>
        <time>2019-10-06T11:03:13Z</time>
      </trkpt>
      <trkpt lat="45.69848" lon="6.8087">
        <ele>2268</ele>
        <time>2019-10-06T11:03:14Z</time>
      </trkpt>
      <trkpt lat="45.69846" lon="6.80871">
        <ele>2268</ele>
        <time>2019-10-06T11:03:15Z</time>
      </trkpt>
      <trkpt lat="45.69844" lon="6.80872">
        <ele>2268</ele>
        <time>2019-10-06T11:03:16Z</time>
      </trkpt>
      <trkpt lat="45.69842" lon="6.80872">
        <ele>2268</ele>
        <time>2019-10-06T11:03:17Z</time>
      </trkpt>
      <trkpt lat="45.6984" lon="6.80873">
        <ele>2267</ele>
        <time>2019-10-06T11:03:18Z</time>
      </trkpt>
      <trkpt lat="45.69837" lon="6.80874">
        <ele>2267</ele>
        <time>2019-10-06T11:03:19Z</time>
      </trkpt>
      <trkpt lat="45.69835" lon="6.80874">
        <ele>2267</ele>
        <time>2019-10-06T11:03:20Z</time>
      </trkpt>
      <trkpt lat="45.69832" lon="6.80875">
        <ele>2267</ele>
        <time>2019-10-06T11:03:21Z</time>
      </trkpt>
      <trkpt lat="45.6983" lon="6.80875">
        <ele>2267</ele>
        <time>2019-10-06T11:03:22Z</time>
      </trkpt>
      <trkpt lat="45.69828" lon="6.80876">
        <ele>2267</ele>
        <time>2019-10-06T11:03:23Z</time>
      </trkpt>
      <trkpt lat="45.69826" lon="6.80878">
        <ele>2267</ele>
        <time>2019-10-06T11:03:24Z</time>
      </trkpt>
      <trkpt lat="45.69825" lon="6.80879">
        <ele>2266</ele>
        <time>2019-10-06T11:03:25Z</time>
      </trkpt>
      <trkpt lat="45.69822" lon="6.8088">
        <ele>2266</ele>
        <time>2019-10-06T11:03:26Z</time>
      </trkpt>
      <trkpt lat="45.6982" lon="6.80881">
        <ele>2266</ele>
        <time>2019-10-06T11:03:27Z</time>
      </trkpt>
      <trkpt lat="45.69818" lon="6.80882">
        <ele>2266</ele>
        <time>2019-10-06T11:03:28Z</time>
      </trkpt>
      <trkpt lat="45.69817" lon="6.80883">
        <ele>2266</ele>
        <time>2019-10-06T11:03:29Z</time>
      </trkpt>
      <trkpt lat="45.69814" lon="6.80885">
        <ele>2264</ele>
        <time>2019-10-06T11:03:31Z</time>
      </trkpt>
      <trkpt lat="45.69812" lon="6.80886">
        <ele>2264</ele>
        <time>2019-10-06T11:03:32Z</time>
      </trkpt>
      <trkpt lat="45.6981" lon="6.80888">
        <ele>2264</ele>
        <time>2019-10-06T11:03:33Z</time>
      </trkpt>
      <trkpt lat="45.69809" lon="6.8089">
        <ele>2264</ele>
        <time>2019-10-06T11:03:34Z</time>
      </trkpt>
      <trkpt lat="45.69807" lon="6.80891">
        <ele>2263</ele>
        <time>2019-10-06T11:03:35Z</time>
      </trkpt>
      <trkpt lat="45.69805" lon="6.80892">
        <ele>2263</ele>
        <time>2019-10-06T11:03:36Z</time>
      </trkpt>
      <trkpt lat="45.69804" lon="6.80893">
        <ele>2263</ele>
        <time>2019-10-06T11:03:37Z</time>
      </trkpt>
      <trkpt lat="45.69802" lon="6.80895">
        <ele>2263</ele>
        <time>2019-10-06T11:03:38Z</time>
      </trkpt>
      <trkpt lat="45.698" lon="6.80898">
        <ele>2262</ele>
        <time>2019-10-06T11:03:40Z</time>
      </trkpt>
      <trkpt lat="45.69798" lon="6.809">
        <ele>2261</ele>
        <time>2019-10-06T11:03:41Z</time>
      </trkpt>
      <trkpt lat="45.69797" lon="6.80902">
        <ele>2261</ele>
        <time>2019-10-06T11:03:42Z</time>
      </trkpt>
      <trkpt lat="45.69793" lon="6.80904">
        <ele>2262</ele>
        <time>2019-10-06T11:03:44Z</time>
      </trkpt>
      <trkpt lat="45.69791" lon="6.80905">
        <ele>2261</ele>
        <time>2019-10-06T11:03:45Z</time>
      </trkpt>
      <trkpt lat="45.69788" lon="6.80907">
        <ele>2261</ele>
        <time>2019-10-06T11:03:47Z</time>
      </trkpt>
      <trkpt lat="45.69787" lon="6.80909">
        <ele>2259</ele>
        <time>2019-10-06T11:03:49Z</time>
      </trkpt>
      <trkpt lat="45.69787" lon="6.80909">
        <ele>2259</ele>
        <time>2019-10-06T11:03:51Z</time>
      </trkpt>
      <trkpt lat="45.69787" lon="6.80912">
        <ele>2259</ele>
        <time>2019-10-06T11:03:53Z</time>
      </trkpt>
      <trkpt lat="45.69785" lon="6.80916">
        <ele>2259</ele>
        <time>2019-10-06T11:03:56Z</time>
      </trkpt>
      <trkpt lat="45.69785" lon="6.80916">
        <ele>2259</ele>
        <time>2019-10-06T11:03:57Z</time>
      </trkpt>
      <trkpt lat="45.69784" lon="6.80918">
        <ele>2259</ele>
        <time>2019-10-06T11:03:58Z</time>
      </trkpt>
      <trkpt lat="45.69782" lon="6.8092">
        <ele>2259</ele>
        <time>2019-10-06T11:04:00Z</time>
      </trkpt>
      <trkpt lat="45.69781" lon="6.80923">
        <ele>2259</ele>
        <time>2019-10-06T11:04:02Z</time>
      </trkpt>
      <trkpt lat="45.69781" lon="6.80923">
        <ele>2259</ele>
        <time>2019-10-06T11:04:04Z</time>
      </trkpt>
      <trkpt lat="45.69778" lon="6.80925">
        <ele>2259</ele>
        <time>2019-10-06T11:04:05Z</time>
      </trkpt>
      <trkpt lat="45.69775" lon="6.80927">
        <ele>2259</ele>
        <time>2019-10-06T11:04:07Z</time>
      </trkpt>
      <trkpt lat="45.69773" lon="6.80927">
        <ele>2259</ele>
        <time>2019-10-06T11:04:08Z</time>
      </trkpt>
      <trkpt lat="45.69771" lon="6.80927">
        <ele>2258</ele>
        <time>2019-10-06T11:04:09Z</time>
      </trkpt>
      <trkpt lat="45.69769" lon="6.80927">
        <ele>2258</ele>
        <time>2019-10-06T11:04:10Z</time>
      </trkpt>
      <trkpt lat="45.69767" lon="6.80927">
        <ele>2258</ele>
        <time>2019-10-06T11:04:11Z</time>
      </trkpt>
      <trkpt lat="45.69764" lon="6.80928">
        <ele>2257</ele>
        <time>2019-10-06T11:04:13Z</time>
      </trkpt>
      <trkpt lat="45.69762" lon="6.80931">
        <ele>2257</ele>
        <time>2019-10-06T11:04:15Z</time>
      </trkpt>
      <trkpt lat="45.69761" lon="6.80935">
        <ele>2257</ele>
        <time>2019-10-06T11:04:17Z</time>
      </trkpt>
      <trkpt lat="45.69761" lon="6.80938">
        <ele>2257</ele>
        <time>2019-10-06T11:04:19Z</time>
      </trkpt>
      <trkpt lat="45.69761" lon="6.80938">
        <ele>2257</ele>
        <time>2019-10-06T11:04:21Z</time>
      </trkpt>
      <trkpt lat="45.69759" lon="6.80941">
        <ele>2257</ele>
        <time>2019-10-06T11:04:22Z</time>
      </trkpt>
      <trkpt lat="45.69756" lon="6.80942">
        <ele>2257</ele>
        <time>2019-10-06T11:04:24Z</time>
      </trkpt>
      <trkpt lat="45.69753" lon="6.80941">
        <ele>2257</ele>
        <time>2019-10-06T11:04:26Z</time>
      </trkpt>
      <trkpt lat="45.6975" lon="6.80941">
        <ele>2257</ele>
        <time>2019-10-06T11:04:27Z</time>
      </trkpt>
      <trkpt lat="45.69748" lon="6.80941">
        <ele>2256</ele>
        <time>2019-10-06T11:04:28Z</time>
      </trkpt>
      <trkpt lat="45.69746" lon="6.8094">
        <ele>2256</ele>
        <time>2019-10-06T11:04:29Z</time>
      </trkpt>
      <trkpt lat="45.69744" lon="6.8094">
        <ele>2256</ele>
        <time>2019-10-06T11:04:30Z</time>
      </trkpt>
      <trkpt lat="45.69741" lon="6.80941">
        <ele>2255</ele>
        <time>2019-10-06T11:04:31Z</time>
      </trkpt>
      <trkpt lat="45.69739" lon="6.80941">
        <ele>2255</ele>
        <time>2019-10-06T11:04:32Z</time>
      </trkpt>
      <trkpt lat="45.69737" lon="6.80943">
        <ele>2255</ele>
        <time>2019-10-06T11:04:33Z</time>
      </trkpt>
      <trkpt lat="45.69735" lon="6.80944">
        <ele>2254</ele>
        <time>2019-10-06T11:04:34Z</time>
      </trkpt>
      <trkpt lat="45.69733" lon="6.80945">
        <ele>2254</ele>
        <time>2019-10-06T11:04:35Z</time>
      </trkpt>
      <trkpt lat="45.69731" lon="6.80946">
        <ele>2254</ele>
        <time>2019-10-06T11:04:36Z</time>
      </trkpt>
      <trkpt lat="45.69728" lon="6.80946">
        <ele>2254</ele>
        <time>2019-10-06T11:04:37Z</time>
      </trkpt>
      <trkpt lat="45.69727" lon="6.80946">
        <ele>2254</ele>
        <time>2019-10-06T11:04:38Z</time>
      </trkpt>
      <trkpt lat="45.69724" lon="6.80946">
        <ele>2253</ele>
        <time>2019-10-06T11:04:39Z</time>
      </trkpt>
      <trkpt lat="45.69722" lon="6.80946">
        <ele>2252</ele>
        <time>2019-10-06T11:04:40Z</time>
      </trkpt>
      <trkpt lat="45.6972" lon="6.80947">
        <ele>2252</ele>
        <time>2019-10-06T11:04:41Z</time>
      </trkpt>
      <trkpt lat="45.69718" lon="6.80947">
        <ele>2252</ele>
        <time>2019-10-06T11:04:42Z</time>
      </trkpt>
      <trkpt lat="45.69716" lon="6.80948">
        <ele>2251</ele>
        <time>2019-10-06T11:04:43Z</time>
      </trkpt>
      <trkpt lat="45.69715" lon="6.80949">
        <ele>2251</ele>
        <time>2019-10-06T11:04:44Z</time>
      </trkpt>
      <trkpt lat="45.69711" lon="6.8095">
        <ele>2251</ele>
        <time>2019-10-06T11:04:46Z</time>
      </trkpt>
      <trkpt lat="45.69709" lon="6.80953">
        <ele>2251</ele>
        <time>2019-10-06T11:04:48Z</time>
      </trkpt>
      <trkpt lat="45.69707" lon="6.80955">
        <ele>2250</ele>
        <time>2019-10-06T11:04:50Z</time>
      </trkpt>
      <trkpt lat="45.69705" lon="6.80955">
        <ele>2251</ele>
        <time>2019-10-06T11:04:52Z</time>
      </trkpt>
      <trkpt lat="45.69703" lon="6.80956">
        <ele>2250</ele>
        <time>2019-10-06T11:04:54Z</time>
      </trkpt>
      <trkpt lat="45.697" lon="6.80958">
        <ele>2249</ele>
        <time>2019-10-06T11:04:56Z</time>
      </trkpt>
      <trkpt lat="45.69699" lon="6.80959">
        <ele>2249</ele>
        <time>2019-10-06T11:04:57Z</time>
      </trkpt>
      <trkpt lat="45.69696" lon="6.8096">
        <ele>2249</ele>
        <time>2019-10-06T11:04:58Z</time>
      </trkpt>
      <trkpt lat="45.69694" lon="6.80959">
        <ele>2249</ele>
        <time>2019-10-06T11:04:59Z</time>
      </trkpt>
      <trkpt lat="45.69692" lon="6.80959">
        <ele>2248</ele>
        <time>2019-10-06T11:05:00Z</time>
      </trkpt>
      <trkpt lat="45.69691" lon="6.80958">
        <ele>2248</ele>
        <time>2019-10-06T11:05:01Z</time>
      </trkpt>
      <trkpt lat="45.69689" lon="6.80958">
        <ele>2246</ele>
        <time>2019-10-06T11:05:02Z</time>
      </trkpt>
      <trkpt lat="45.69687" lon="6.80958">
        <ele>2246</ele>
        <time>2019-10-06T11:05:03Z</time>
      </trkpt>
      <trkpt lat="45.69685" lon="6.80958">
        <ele>2246</ele>
        <time>2019-10-06T11:05:04Z</time>
      </trkpt>
      <trkpt lat="45.69682" lon="6.8096">
        <ele>2246</ele>
        <time>2019-10-06T11:05:06Z</time>
      </trkpt>
      <trkpt lat="45.6968" lon="6.8096">
        <ele>2246</ele>
        <time>2019-10-06T11:05:07Z</time>
      </trkpt>
      <trkpt lat="45.69678" lon="6.8096">
        <ele>2246</ele>
        <time>2019-10-06T11:05:08Z</time>
      </trkpt>
      <trkpt lat="45.69675" lon="6.8096">
        <ele>2246</ele>
        <time>2019-10-06T11:05:09Z</time>
      </trkpt>
      <trkpt lat="45.69673" lon="6.8096">
        <ele>2246</ele>
        <time>2019-10-06T11:05:10Z</time>
      </trkpt>
      <trkpt lat="45.6967" lon="6.8096">
        <ele>2245</ele>
        <time>2019-10-06T11:05:11Z</time>
      </trkpt>
      <trkpt lat="45.69667" lon="6.80961">
        <ele>2245</ele>
        <time>2019-10-06T11:05:12Z</time>
      </trkpt>
      <trkpt lat="45.69665" lon="6.80962">
        <ele>2245</ele>
        <time>2019-10-06T11:05:13Z</time>
      </trkpt>
      <trkpt lat="45.69663" lon="6.80963">
        <ele>2245</ele>
        <time>2019-10-06T11:05:14Z</time>
      </trkpt>
      <trkpt lat="45.69661" lon="6.80963">
        <ele>2244</ele>
        <time>2019-10-06T11:05:15Z</time>
      </trkpt>
      <trkpt lat="45.69659" lon="6.80963">
        <ele>2243</ele>
        <time>2019-10-06T11:05:16Z</time>
      </trkpt>
      <trkpt lat="45.69656" lon="6.80963">
        <ele>2243</ele>
        <time>2019-10-06T11:05:17Z</time>
      </trkpt>
      <trkpt lat="45.69654" lon="6.80964">
        <ele>2243</ele>
        <time>2019-10-06T11:05:18Z</time>
      </trkpt>
      <trkpt lat="45.69652" lon="6.80964">
        <ele>2242</ele>
        <time>2019-10-06T11:05:19Z</time>
      </trkpt>
      <trkpt lat="45.6965" lon="6.80965">
        <ele>2242</ele>
        <time>2019-10-06T11:05:20Z</time>
      </trkpt>
      <trkpt lat="45.69647" lon="6.80966">
        <ele>2242</ele>
        <time>2019-10-06T11:05:22Z</time>
      </trkpt>
      <trkpt lat="45.69645" lon="6.80968">
        <ele>2242</ele>
        <time>2019-10-06T11:05:24Z</time>
      </trkpt>
      <trkpt lat="45.69643" lon="6.80968">
        <ele>2242</ele>
        <time>2019-10-06T11:05:25Z</time>
      </trkpt>
      <trkpt lat="45.69641" lon="6.80969">
        <ele>2241</ele>
        <time>2019-10-06T11:05:26Z</time>
      </trkpt>
      <trkpt lat="45.6964" lon="6.8097">
        <ele>2241</ele>
        <time>2019-10-06T11:05:27Z</time>
      </trkpt>
      <trkpt lat="45.69637" lon="6.80972">
        <ele>2240</ele>
        <time>2019-10-06T11:05:29Z</time>
      </trkpt>
      <trkpt lat="45.69635" lon="6.80975">
        <ele>2240</ele>
        <time>2019-10-06T11:05:31Z</time>
      </trkpt>
      <trkpt lat="45.69633" lon="6.80977">
        <ele>2240</ele>
        <time>2019-10-06T11:05:33Z</time>
      </trkpt>
      <trkpt lat="45.69632" lon="6.80977">
        <ele>2240</ele>
        <time>2019-10-06T11:05:34Z</time>
      </trkpt>
      <trkpt lat="45.69631" lon="6.80978">
        <ele>2239</ele>
        <time>2019-10-06T11:05:35Z</time>
      </trkpt>
      <trkpt lat="45.69629" lon="6.80978">
        <ele>2239</ele>
        <time>2019-10-06T11:05:36Z</time>
      </trkpt>
      <trkpt lat="45.69627" lon="6.80979">
        <ele>2239</ele>
        <time>2019-10-06T11:05:37Z</time>
      </trkpt>
      <trkpt lat="45.69625" lon="6.8098">
        <ele>2239</ele>
        <time>2019-10-06T11:05:38Z</time>
      </trkpt>
      <trkpt lat="45.69623" lon="6.80981">
        <ele>2238</ele>
        <time>2019-10-06T11:05:39Z</time>
      </trkpt>
      <trkpt lat="45.69621" lon="6.80982">
        <ele>2238</ele>
        <time>2019-10-06T11:05:40Z</time>
      </trkpt>
      <trkpt lat="45.69618" lon="6.80983">
        <ele>2238</ele>
        <time>2019-10-06T11:05:42Z</time>
      </trkpt>
      <trkpt lat="45.69616" lon="6.80983">
        <ele>2238</ele>
        <time>2019-10-06T11:05:44Z</time>
      </trkpt>
      <trkpt lat="45.69613" lon="6.80984">
        <ele>2238</ele>
        <time>2019-10-06T11:05:46Z</time>
      </trkpt>
      <trkpt lat="45.6961" lon="6.80986">
        <ele>2238</ele>
        <time>2019-10-06T11:05:48Z</time>
      </trkpt>
      <trkpt lat="45.69607" lon="6.80988">
        <ele>2238</ele>
        <time>2019-10-06T11:05:50Z</time>
      </trkpt>
      <trkpt lat="45.69604" lon="6.8099">
        <ele>2238</ele>
        <time>2019-10-06T11:05:52Z</time>
      </trkpt>
      <trkpt lat="45.696" lon="6.8099">
        <ele>2238</ele>
        <time>2019-10-06T11:05:54Z</time>
      </trkpt>
      <trkpt lat="45.69599" lon="6.80991">
        <ele>2238</ele>
        <time>2019-10-06T11:05:55Z</time>
      </trkpt>
      <trkpt lat="45.69595" lon="6.80991">
        <ele>2238</ele>
        <time>2019-10-06T11:05:57Z</time>
      </trkpt>
      <trkpt lat="45.69593" lon="6.80992">
        <ele>2239</ele>
        <time>2019-10-06T11:05:58Z</time>
      </trkpt>
      <trkpt lat="45.69591" lon="6.80992">
        <ele>2239</ele>
        <time>2019-10-06T11:05:59Z</time>
      </trkpt>
      <trkpt lat="45.69589" lon="6.80992">
        <ele>2239</ele>
        <time>2019-10-06T11:06:00Z</time>
      </trkpt>
      <trkpt lat="45.69587" lon="6.80993">
        <ele>2239</ele>
        <time>2019-10-06T11:06:01Z</time>
      </trkpt>
      <trkpt lat="45.69585" lon="6.80994">
        <ele>2239</ele>
        <time>2019-10-06T11:06:02Z</time>
      </trkpt>
      <trkpt lat="45.69581" lon="6.80996">
        <ele>2239</ele>
        <time>2019-10-06T11:06:03Z</time>
      </trkpt>
      <trkpt lat="45.6958" lon="6.80996">
        <ele>2238</ele>
        <time>2019-10-06T11:06:04Z</time>
      </trkpt>
      <trkpt lat="45.69578" lon="6.80996">
        <ele>2238</ele>
        <time>2019-10-06T11:06:05Z</time>
      </trkpt>
      <trkpt lat="45.69576" lon="6.80997">
        <ele>2238</ele>
        <time>2019-10-06T11:06:06Z</time>
      </trkpt>
      <trkpt lat="45.69572" lon="6.80998">
        <ele>2238</ele>
        <time>2019-10-06T11:06:08Z</time>
      </trkpt>
      <trkpt lat="45.69571" lon="6.80999">
        <ele>2239</ele>
        <time>2019-10-06T11:06:09Z</time>
      </trkpt>
      <trkpt lat="45.69569" lon="6.80999">
        <ele>2239</ele>
        <time>2019-10-06T11:06:10Z</time>
      </trkpt>
      <trkpt lat="45.69565" lon="6.80999">
        <ele>2239</ele>
        <time>2019-10-06T11:06:12Z</time>
      </trkpt>
      <trkpt lat="45.69563" lon="6.81">
        <ele>2240</ele>
        <time>2019-10-06T11:06:13Z</time>
      </trkpt>
      <trkpt lat="45.69561" lon="6.81">
        <ele>2239</ele>
        <time>2019-10-06T11:06:14Z</time>
      </trkpt>
      <trkpt lat="45.69559" lon="6.81">
        <ele>2238</ele>
        <time>2019-10-06T11:06:15Z</time>
      </trkpt>
      <trkpt lat="45.69556" lon="6.81001">
        <ele>2238</ele>
        <time>2019-10-06T11:06:17Z</time>
      </trkpt>
      <trkpt lat="45.69554" lon="6.81002">
        <ele>2238</ele>
        <time>2019-10-06T11:06:19Z</time>
      </trkpt>
      <trkpt lat="45.69552" lon="6.81005">
        <ele>2238</ele>
        <time>2019-10-06T11:06:21Z</time>
      </trkpt>
      <trkpt lat="45.69551" lon="6.81007">
        <ele>2239</ele>
        <time>2019-10-06T11:06:22Z</time>
      </trkpt>
      <trkpt lat="45.69549" lon="6.81009">
        <ele>2239</ele>
        <time>2019-10-06T11:06:23Z</time>
      </trkpt>
      <trkpt lat="45.69547" lon="6.81011">
        <ele>2238</ele>
        <time>2019-10-06T11:06:24Z</time>
      </trkpt>
      <trkpt lat="45.69546" lon="6.81012">
        <ele>2237</ele>
        <time>2019-10-06T11:06:25Z</time>
      </trkpt>
      <trkpt lat="45.69544" lon="6.81017">
        <ele>2237</ele>
        <time>2019-10-06T11:06:27Z</time>
      </trkpt>
      <trkpt lat="45.69542" lon="6.81021">
        <ele>2237</ele>
        <time>2019-10-06T11:06:29Z</time>
      </trkpt>
      <trkpt lat="45.69541" lon="6.81025">
        <ele>2237</ele>
        <time>2019-10-06T11:06:31Z</time>
      </trkpt>
      <trkpt lat="45.69539" lon="6.81027">
        <ele>2237</ele>
        <time>2019-10-06T11:06:32Z</time>
      </trkpt>
      <trkpt lat="45.69538" lon="6.81029">
        <ele>2236</ele>
        <time>2019-10-06T11:06:33Z</time>
      </trkpt>
      <trkpt lat="45.69537" lon="6.81031">
        <ele>2236</ele>
        <time>2019-10-06T11:06:34Z</time>
      </trkpt>
      <trkpt lat="45.69534" lon="6.81034">
        <ele>2235</ele>
        <time>2019-10-06T11:06:36Z</time>
      </trkpt>
      <trkpt lat="45.69533" lon="6.81037">
        <ele>2235</ele>
        <time>2019-10-06T11:06:38Z</time>
      </trkpt>
      <trkpt lat="45.69532" lon="6.8104">
        <ele>2235</ele>
        <time>2019-10-06T11:06:40Z</time>
      </trkpt>
      <trkpt lat="45.69531" lon="6.81041">
        <ele>2235</ele>
        <time>2019-10-06T11:06:43Z</time>
      </trkpt>
      <trkpt lat="45.69531" lon="6.81041">
        <ele>2235</ele>
        <time>2019-10-06T11:06:44Z</time>
      </trkpt>
      <trkpt lat="45.69529" lon="6.81043">
        <ele>2235</ele>
        <time>2019-10-06T11:06:45Z</time>
      </trkpt>
      <trkpt lat="45.69526" lon="6.81044">
        <ele>2234</ele>
        <time>2019-10-06T11:06:47Z</time>
      </trkpt>
      <trkpt lat="45.69524" lon="6.81046">
        <ele>2234</ele>
        <time>2019-10-06T11:06:49Z</time>
      </trkpt>
      <trkpt lat="45.69521" lon="6.81045">
        <ele>2234</ele>
        <time>2019-10-06T11:06:51Z</time>
      </trkpt>
      <trkpt lat="45.69518" lon="6.81044">
        <ele>2234</ele>
        <time>2019-10-06T11:06:53Z</time>
      </trkpt>
      <trkpt lat="45.69516" lon="6.81044">
        <ele>2234</ele>
        <time>2019-10-06T11:06:55Z</time>
      </trkpt>
      <trkpt lat="45.69514" lon="6.81044">
        <ele>2235</ele>
        <time>2019-10-06T11:06:57Z</time>
      </trkpt>
      <trkpt lat="45.69511" lon="6.81046">
        <ele>2235</ele>
        <time>2019-10-06T11:06:59Z</time>
      </trkpt>
      <trkpt lat="45.69507" lon="6.81048">
        <ele>2235</ele>
        <time>2019-10-06T11:07:01Z</time>
      </trkpt>
      <trkpt lat="45.69506" lon="6.81049">
        <ele>2234</ele>
        <time>2019-10-06T11:07:02Z</time>
      </trkpt>
      <trkpt lat="45.69504" lon="6.8105">
        <ele>2234</ele>
        <time>2019-10-06T11:07:03Z</time>
      </trkpt>
      <trkpt lat="45.69502" lon="6.81052">
        <ele>2234</ele>
        <time>2019-10-06T11:07:04Z</time>
      </trkpt>
      <trkpt lat="45.69501" lon="6.81053">
        <ele>2234</ele>
        <time>2019-10-06T11:07:05Z</time>
      </trkpt>
      <trkpt lat="45.69499" lon="6.81054">
        <ele>2234</ele>
        <time>2019-10-06T11:07:06Z</time>
      </trkpt>
      <trkpt lat="45.69497" lon="6.81055">
        <ele>2234</ele>
        <time>2019-10-06T11:07:07Z</time>
      </trkpt>
      <trkpt lat="45.69494" lon="6.81057">
        <ele>2234</ele>
        <time>2019-10-06T11:07:09Z</time>
      </trkpt>
      <trkpt lat="45.69491" lon="6.8106">
        <ele>2233</ele>
        <time>2019-10-06T11:07:11Z</time>
      </trkpt>
      <trkpt lat="45.69489" lon="6.81061">
        <ele>2233</ele>
        <time>2019-10-06T11:07:12Z</time>
      </trkpt>
      <trkpt lat="45.69486" lon="6.81063">
        <ele>2232</ele>
        <time>2019-10-06T11:07:14Z</time>
      </trkpt>
      <trkpt lat="45.69485" lon="6.81063">
        <ele>2232</ele>
        <time>2019-10-06T11:07:15Z</time>
      </trkpt>
      <trkpt lat="45.69482" lon="6.81065">
        <ele>2232</ele>
        <time>2019-10-06T11:07:17Z</time>
      </trkpt>
      <trkpt lat="45.6948" lon="6.81066">
        <ele>2232</ele>
        <time>2019-10-06T11:07:18Z</time>
      </trkpt>
      <trkpt lat="45.69478" lon="6.81067">
        <ele>2231</ele>
        <time>2019-10-06T11:07:19Z</time>
      </trkpt>
      <trkpt lat="45.69474" lon="6.81067">
        <ele>2231</ele>
        <time>2019-10-06T11:07:21Z</time>
      </trkpt>
      <trkpt lat="45.69471" lon="6.81069">
        <ele>2231</ele>
        <time>2019-10-06T11:07:23Z</time>
      </trkpt>
      <trkpt lat="45.69468" lon="6.81071">
        <ele>2231</ele>
        <time>2019-10-06T11:07:25Z</time>
      </trkpt>
      <trkpt lat="45.69466" lon="6.81073">
        <ele>2231</ele>
        <time>2019-10-06T11:07:26Z</time>
      </trkpt>
      <trkpt lat="45.69465" lon="6.81076">
        <ele>2231</ele>
        <time>2019-10-06T11:07:28Z</time>
      </trkpt>
      <trkpt lat="45.69462" lon="6.81077">
        <ele>2230</ele>
        <time>2019-10-06T11:07:30Z</time>
      </trkpt>
      <trkpt lat="45.6946" lon="6.81078">
        <ele>2229</ele>
        <time>2019-10-06T11:07:31Z</time>
      </trkpt>
      <trkpt lat="45.69458" lon="6.8108">
        <ele>2229</ele>
        <time>2019-10-06T11:07:32Z</time>
      </trkpt>
      <trkpt lat="45.69456" lon="6.81081">
        <ele>2229</ele>
        <time>2019-10-06T11:07:33Z</time>
      </trkpt>
      <trkpt lat="45.69454" lon="6.81082">
        <ele>2229</ele>
        <time>2019-10-06T11:07:34Z</time>
      </trkpt>
      <trkpt lat="45.69451" lon="6.81084">
        <ele>2229</ele>
        <time>2019-10-06T11:07:36Z</time>
      </trkpt>
      <trkpt lat="45.69448" lon="6.81086">
        <ele>2229</ele>
        <time>2019-10-06T11:07:38Z</time>
      </trkpt>
      <trkpt lat="45.69445" lon="6.81088">
        <ele>2229</ele>
        <time>2019-10-06T11:07:40Z</time>
      </trkpt>
      <trkpt lat="45.69442" lon="6.8109">
        <ele>2228</ele>
        <time>2019-10-06T11:07:42Z</time>
      </trkpt>
      <trkpt lat="45.69439" lon="6.81093">
        <ele>2229</ele>
        <time>2019-10-06T11:07:44Z</time>
      </trkpt>
      <trkpt lat="45.69436" lon="6.81095">
        <ele>2229</ele>
        <time>2019-10-06T11:07:46Z</time>
      </trkpt>
      <trkpt lat="45.69435" lon="6.81096">
        <ele>2229</ele>
        <time>2019-10-06T11:07:47Z</time>
      </trkpt>
      <trkpt lat="45.69433" lon="6.81098">
        <ele>2228</ele>
        <time>2019-10-06T11:07:48Z</time>
      </trkpt>
      <trkpt lat="45.69432" lon="6.81099">
        <ele>2228</ele>
        <time>2019-10-06T11:07:49Z</time>
      </trkpt>
      <trkpt lat="45.6943" lon="6.81101">
        <ele>2228</ele>
        <time>2019-10-06T11:07:50Z</time>
      </trkpt>
      <trkpt lat="45.69429" lon="6.81102">
        <ele>2228</ele>
        <time>2019-10-06T11:07:51Z</time>
      </trkpt>
      <trkpt lat="45.69426" lon="6.81105">
        <ele>2227</ele>
        <time>2019-10-06T11:07:53Z</time>
      </trkpt>
      <trkpt lat="45.69423" lon="6.81107">
        <ele>2227</ele>
        <time>2019-10-06T11:07:55Z</time>
      </trkpt>
      <trkpt lat="45.69421" lon="6.8111">
        <ele>2226</ele>
        <time>2019-10-06T11:07:57Z</time>
      </trkpt>
      <trkpt lat="45.6942" lon="6.81112">
        <ele>2226</ele>
        <time>2019-10-06T11:07:58Z</time>
      </trkpt>
      <trkpt lat="45.69418" lon="6.81113">
        <ele>2226</ele>
        <time>2019-10-06T11:07:59Z</time>
      </trkpt>
      <trkpt lat="45.69416" lon="6.81114">
        <ele>2225</ele>
        <time>2019-10-06T11:08:00Z</time>
      </trkpt>
      <trkpt lat="45.69413" lon="6.81117">
        <ele>2225</ele>
        <time>2019-10-06T11:08:02Z</time>
      </trkpt>
      <trkpt lat="45.69412" lon="6.81119">
        <ele>2225</ele>
        <time>2019-10-06T11:08:03Z</time>
      </trkpt>
      <trkpt lat="45.6941" lon="6.8112">
        <ele>2225</ele>
        <time>2019-10-06T11:08:04Z</time>
      </trkpt>
      <trkpt lat="45.69409" lon="6.81121">
        <ele>2225</ele>
        <time>2019-10-06T11:08:05Z</time>
      </trkpt>
      <trkpt lat="45.69407" lon="6.81122">
        <ele>2225</ele>
        <time>2019-10-06T11:08:06Z</time>
      </trkpt>
      <trkpt lat="45.69404" lon="6.81124">
        <ele>2225</ele>
        <time>2019-10-06T11:08:08Z</time>
      </trkpt>
      <trkpt lat="45.69403" lon="6.81125">
        <ele>2225</ele>
        <time>2019-10-06T11:08:09Z</time>
      </trkpt>
      <trkpt lat="45.69402" lon="6.81126">
        <ele>2226</ele>
        <time>2019-10-06T11:08:10Z</time>
      </trkpt>
      <trkpt lat="45.694" lon="6.81128">
        <ele>2226</ele>
        <time>2019-10-06T11:08:11Z</time>
      </trkpt>
      <trkpt lat="45.69399" lon="6.8113">
        <ele>2226</ele>
        <time>2019-10-06T11:08:12Z</time>
      </trkpt>
      <trkpt lat="45.69397" lon="6.81131">
        <ele>2226</ele>
        <time>2019-10-06T11:08:13Z</time>
      </trkpt>
      <trkpt lat="45.69395" lon="6.81133">
        <ele>2226</ele>
        <time>2019-10-06T11:08:14Z</time>
      </trkpt>
      <trkpt lat="45.69393" lon="6.81135">
        <ele>2226</ele>
        <time>2019-10-06T11:08:16Z</time>
      </trkpt>
      <trkpt lat="45.6939" lon="6.81136">
        <ele>2226</ele>
        <time>2019-10-06T11:08:18Z</time>
      </trkpt>
      <trkpt lat="45.69387" lon="6.81137">
        <ele>2225</ele>
        <time>2019-10-06T11:08:20Z</time>
      </trkpt>
      <trkpt lat="45.69384" lon="6.81139">
        <ele>2225</ele>
        <time>2019-10-06T11:08:22Z</time>
      </trkpt>
      <trkpt lat="45.69381" lon="6.81142">
        <ele>2226</ele>
        <time>2019-10-06T11:08:24Z</time>
      </trkpt>
      <trkpt lat="45.69379" lon="6.81143">
        <ele>2225</ele>
        <time>2019-10-06T11:08:26Z</time>
      </trkpt>
      <trkpt lat="45.69376" lon="6.81144">
        <ele>2225</ele>
        <time>2019-10-06T11:08:28Z</time>
      </trkpt>
      <trkpt lat="45.69373" lon="6.81144">
        <ele>2225</ele>
        <time>2019-10-06T11:08:30Z</time>
      </trkpt>
      <trkpt lat="45.69371" lon="6.81146">
        <ele>2225</ele>
        <time>2019-10-06T11:08:32Z</time>
      </trkpt>
      <trkpt lat="45.69367" lon="6.81147">
        <ele>2225</ele>
        <time>2019-10-06T11:08:34Z</time>
      </trkpt>
      <trkpt lat="45.69366" lon="6.81148">
        <ele>2225</ele>
        <time>2019-10-06T11:08:35Z</time>
      </trkpt>
      <trkpt lat="45.69364" lon="6.8115">
        <ele>2224</ele>
        <time>2019-10-06T11:08:36Z</time>
      </trkpt>
      <trkpt lat="45.69361" lon="6.81153">
        <ele>2224</ele>
        <time>2019-10-06T11:08:38Z</time>
      </trkpt>
      <trkpt lat="45.69359" lon="6.81154">
        <ele>2224</ele>
        <time>2019-10-06T11:08:39Z</time>
      </trkpt>
      <trkpt lat="45.69357" lon="6.81156">
        <ele>2223</ele>
        <time>2019-10-06T11:08:40Z</time>
      </trkpt>
      <trkpt lat="45.69355" lon="6.81157">
        <ele>2222</ele>
        <time>2019-10-06T11:08:41Z</time>
      </trkpt>
      <trkpt lat="45.69352" lon="6.81158">
        <ele>2220</ele>
        <time>2019-10-06T11:08:42Z</time>
      </trkpt>
      <trkpt lat="45.69351" lon="6.81158">
        <ele>2222</ele>
        <time>2019-10-06T11:08:43Z</time>
      </trkpt>
      <trkpt lat="45.6935" lon="6.8116">
        <ele>2222</ele>
        <time>2019-10-06T11:08:44Z</time>
      </trkpt>
      <trkpt lat="45.69348" lon="6.81161">
        <ele>2220</ele>
        <time>2019-10-06T11:08:45Z</time>
      </trkpt>
      <trkpt lat="45.69347" lon="6.81163">
        <ele>2220</ele>
        <time>2019-10-06T11:08:46Z</time>
      </trkpt>
      <trkpt lat="45.69344" lon="6.81164">
        <ele>2220</ele>
        <time>2019-10-06T11:08:47Z</time>
      </trkpt>
      <trkpt lat="45.69342" lon="6.81165">
        <ele>2220</ele>
        <time>2019-10-06T11:08:48Z</time>
      </trkpt>
      <trkpt lat="45.6934" lon="6.81166">
        <ele>2220</ele>
        <time>2019-10-06T11:08:49Z</time>
      </trkpt>
      <trkpt lat="45.69339" lon="6.81168">
        <ele>2219</ele>
        <time>2019-10-06T11:08:50Z</time>
      </trkpt>
      <trkpt lat="45.69337" lon="6.8117">
        <ele>2218</ele>
        <time>2019-10-06T11:08:51Z</time>
      </trkpt>
      <trkpt lat="45.69335" lon="6.81171">
        <ele>2218</ele>
        <time>2019-10-06T11:08:52Z</time>
      </trkpt>
      <trkpt lat="45.69333" lon="6.81173">
        <ele>2218</ele>
        <time>2019-10-06T11:08:53Z</time>
      </trkpt>
      <trkpt lat="45.69331" lon="6.81175">
        <ele>2218</ele>
        <time>2019-10-06T11:08:54Z</time>
      </trkpt>
      <trkpt lat="45.69328" lon="6.81176">
        <ele>2218</ele>
        <time>2019-10-06T11:08:55Z</time>
      </trkpt>
      <trkpt lat="45.69326" lon="6.81178">
        <ele>2218</ele>
        <time>2019-10-06T11:08:56Z</time>
      </trkpt>
      <trkpt lat="45.69324" lon="6.8118">
        <ele>2217</ele>
        <time>2019-10-06T11:08:57Z</time>
      </trkpt>
      <trkpt lat="45.69322" lon="6.81181">
        <ele>2217</ele>
        <time>2019-10-06T11:08:58Z</time>
      </trkpt>
      <trkpt lat="45.69321" lon="6.81183">
        <ele>2217</ele>
        <time>2019-10-06T11:08:59Z</time>
      </trkpt>
      <trkpt lat="45.69319" lon="6.81185">
        <ele>2216</ele>
        <time>2019-10-06T11:09:00Z</time>
      </trkpt>
      <trkpt lat="45.69317" lon="6.81186">
        <ele>2216</ele>
        <time>2019-10-06T11:09:01Z</time>
      </trkpt>
      <trkpt lat="45.69314" lon="6.81188">
        <ele>2216</ele>
        <time>2019-10-06T11:09:03Z</time>
      </trkpt>
      <trkpt lat="45.69312" lon="6.8119">
        <ele>2215</ele>
        <time>2019-10-06T11:09:05Z</time>
      </trkpt>
      <trkpt lat="45.69311" lon="6.81192">
        <ele>2215</ele>
        <time>2019-10-06T11:09:06Z</time>
      </trkpt>
      <trkpt lat="45.6931" lon="6.81194">
        <ele>2214</ele>
        <time>2019-10-06T11:09:07Z</time>
      </trkpt>
      <trkpt lat="45.69308" lon="6.81196">
        <ele>2214</ele>
        <time>2019-10-06T11:09:08Z</time>
      </trkpt>
      <trkpt lat="45.69306" lon="6.81198">
        <ele>2214</ele>
        <time>2019-10-06T11:09:09Z</time>
      </trkpt>
      <trkpt lat="45.69305" lon="6.81199">
        <ele>2214</ele>
        <time>2019-10-06T11:09:10Z</time>
      </trkpt>
      <trkpt lat="45.69302" lon="6.812">
        <ele>2214</ele>
        <time>2019-10-06T11:09:12Z</time>
      </trkpt>
      <trkpt lat="45.69299" lon="6.81201">
        <ele>2214</ele>
        <time>2019-10-06T11:09:14Z</time>
      </trkpt>
      <trkpt lat="45.69297" lon="6.81202">
        <ele>2215</ele>
        <time>2019-10-06T11:09:16Z</time>
      </trkpt>
      <trkpt lat="45.69295" lon="6.81203">
        <ele>2214</ele>
        <time>2019-10-06T11:09:18Z</time>
      </trkpt>
      <trkpt lat="45.69293" lon="6.81205">
        <ele>2214</ele>
        <time>2019-10-06T11:09:19Z</time>
      </trkpt>
      <trkpt lat="45.69291" lon="6.81206">
        <ele>2214</ele>
        <time>2019-10-06T11:09:20Z</time>
      </trkpt>
      <trkpt lat="45.69288" lon="6.81208">
        <ele>2214</ele>
        <time>2019-10-06T11:09:22Z</time>
      </trkpt>
      <trkpt lat="45.69286" lon="6.8121">
        <ele>2214</ele>
        <time>2019-10-06T11:09:24Z</time>
      </trkpt>
      <trkpt lat="45.69283" lon="6.81212">
        <ele>2213</ele>
        <time>2019-10-06T11:09:26Z</time>
      </trkpt>
      <trkpt lat="45.6928" lon="6.81212">
        <ele>2214</ele>
        <time>2019-10-06T11:09:28Z</time>
      </trkpt>
      <trkpt lat="45.69278" lon="6.81213">
        <ele>2214</ele>
        <time>2019-10-06T11:09:30Z</time>
      </trkpt>
      <trkpt lat="45.69276" lon="6.81214">
        <ele>2214</ele>
        <time>2019-10-06T11:09:32Z</time>
      </trkpt>
      <trkpt lat="45.69273" lon="6.81215">
        <ele>2214</ele>
        <time>2019-10-06T11:09:34Z</time>
      </trkpt>
      <trkpt lat="45.6927" lon="6.81215">
        <ele>2214</ele>
        <time>2019-10-06T11:09:36Z</time>
      </trkpt>
      <trkpt lat="45.69268" lon="6.81216">
        <ele>2214</ele>
        <time>2019-10-06T11:09:38Z</time>
      </trkpt>
      <trkpt lat="45.69267" lon="6.8122">
        <ele>2213</ele>
        <time>2019-10-06T11:09:40Z</time>
      </trkpt>
      <trkpt lat="45.69267" lon="6.81222">
        <ele>2212</ele>
        <time>2019-10-06T11:09:41Z</time>
      </trkpt>
      <trkpt lat="45.69267" lon="6.81225">
        <ele>2211</ele>
        <time>2019-10-06T11:09:42Z</time>
      </trkpt>
      <trkpt lat="45.69266" lon="6.81228">
        <ele>2211</ele>
        <time>2019-10-06T11:09:43Z</time>
      </trkpt>
      <trkpt lat="45.69263" lon="6.81231">
        <ele>2210</ele>
        <time>2019-10-06T11:09:45Z</time>
      </trkpt>
      <trkpt lat="45.69262" lon="6.81231">
        <ele>2210</ele>
        <time>2019-10-06T11:09:46Z</time>
      </trkpt>
      <trkpt lat="45.69261" lon="6.81232">
        <ele>2210</ele>
        <time>2019-10-06T11:09:47Z</time>
      </trkpt>
      <trkpt lat="45.69259" lon="6.81233">
        <ele>2210</ele>
        <time>2019-10-06T11:09:48Z</time>
      </trkpt>
      <trkpt lat="45.69257" lon="6.81236">
        <ele>2210</ele>
        <time>2019-10-06T11:09:49Z</time>
      </trkpt>
      <trkpt lat="45.69255" lon="6.81237">
        <ele>2210</ele>
        <time>2019-10-06T11:09:50Z</time>
      </trkpt>
      <trkpt lat="45.69254" lon="6.81239">
        <ele>2210</ele>
        <time>2019-10-06T11:09:51Z</time>
      </trkpt>
      <trkpt lat="45.69252" lon="6.8124">
        <ele>2209</ele>
        <time>2019-10-06T11:09:52Z</time>
      </trkpt>
      <trkpt lat="45.69251" lon="6.81241">
        <ele>2209</ele>
        <time>2019-10-06T11:09:53Z</time>
      </trkpt>
      <trkpt lat="45.69249" lon="6.81242">
        <ele>2209</ele>
        <time>2019-10-06T11:09:54Z</time>
      </trkpt>
      <trkpt lat="45.69247" lon="6.81244">
        <ele>2210</ele>
        <time>2019-10-06T11:09:55Z</time>
      </trkpt>
      <trkpt lat="45.69246" lon="6.81246">
        <ele>2210</ele>
        <time>2019-10-06T11:09:56Z</time>
      </trkpt>
      <trkpt lat="45.69244" lon="6.8125">
        <ele>2210</ele>
        <time>2019-10-06T11:09:58Z</time>
      </trkpt>
      <trkpt lat="45.69243" lon="6.81254">
        <ele>2209</ele>
        <time>2019-10-06T11:10:00Z</time>
      </trkpt>
      <trkpt lat="45.69241" lon="6.81258">
        <ele>2209</ele>
        <time>2019-10-06T11:10:02Z</time>
      </trkpt>
      <trkpt lat="45.69238" lon="6.81259">
        <ele>2208</ele>
        <time>2019-10-06T11:10:04Z</time>
      </trkpt>
      <trkpt lat="45.69235" lon="6.81259">
        <ele>2208</ele>
        <time>2019-10-06T11:10:06Z</time>
      </trkpt>
      <trkpt lat="45.69232" lon="6.8126">
        <ele>2209</ele>
        <time>2019-10-06T11:10:08Z</time>
      </trkpt>
      <trkpt lat="45.6923" lon="6.81262">
        <ele>2209</ele>
        <time>2019-10-06T11:10:10Z</time>
      </trkpt>
      <trkpt lat="45.69226" lon="6.81264">
        <ele>2208</ele>
        <time>2019-10-06T11:10:12Z</time>
      </trkpt>
      <trkpt lat="45.69223" lon="6.81265">
        <ele>2208</ele>
        <time>2019-10-06T11:10:14Z</time>
      </trkpt>
      <trkpt lat="45.69221" lon="6.81265">
        <ele>2208</ele>
        <time>2019-10-06T11:10:15Z</time>
      </trkpt>
      <trkpt lat="45.69219" lon="6.81264">
        <ele>2208</ele>
        <time>2019-10-06T11:10:16Z</time>
      </trkpt>
      <trkpt lat="45.69217" lon="6.81264">
        <ele>2208</ele>
        <time>2019-10-06T11:10:18Z</time>
      </trkpt>
      <trkpt lat="45.69214" lon="6.81266">
        <ele>2207</ele>
        <time>2019-10-06T11:10:20Z</time>
      </trkpt>
      <trkpt lat="45.69211" lon="6.81268">
        <ele>2207</ele>
        <time>2019-10-06T11:10:22Z</time>
      </trkpt>
      <trkpt lat="45.69208" lon="6.8127">
        <ele>2205</ele>
        <time>2019-10-06T11:10:24Z</time>
      </trkpt>
      <trkpt lat="45.69206" lon="6.81273">
        <ele>2205</ele>
        <time>2019-10-06T11:10:26Z</time>
      </trkpt>
      <trkpt lat="45.69203" lon="6.81276">
        <ele>2205</ele>
        <time>2019-10-06T11:10:28Z</time>
      </trkpt>
      <trkpt lat="45.69204" lon="6.81279">
        <ele>2204</ele>
        <time>2019-10-06T11:10:30Z</time>
      </trkpt>
      <trkpt lat="45.69204" lon="6.81283">
        <ele>2203</ele>
        <time>2019-10-06T11:10:33Z</time>
      </trkpt>
      <trkpt lat="45.69204" lon="6.81283">
        <ele>2203</ele>
        <time>2019-10-06T11:10:34Z</time>
      </trkpt>
      <trkpt lat="45.69207" lon="6.81286">
        <ele>2202</ele>
        <time>2019-10-06T11:10:35Z</time>
      </trkpt>
      <trkpt lat="45.69208" lon="6.8129">
        <ele>2201</ele>
        <time>2019-10-06T11:10:37Z</time>
      </trkpt>
      <trkpt lat="45.69209" lon="6.81292">
        <ele>2201</ele>
        <time>2019-10-06T11:10:40Z</time>
      </trkpt>
      <trkpt lat="45.69209" lon="6.81292">
        <ele>2201</ele>
        <time>2019-10-06T11:10:41Z</time>
      </trkpt>
      <trkpt lat="45.69208" lon="6.81296">
        <ele>2200</ele>
        <time>2019-10-06T11:10:44Z</time>
      </trkpt>
      <trkpt lat="45.69208" lon="6.81296">
        <ele>2199</ele>
        <time>2019-10-06T11:10:46Z</time>
      </trkpt>
      <trkpt lat="45.69207" lon="6.813">
        <ele>2199</ele>
        <time>2019-10-06T11:10:47Z</time>
      </trkpt>
      <trkpt lat="45.69206" lon="6.81303">
        <ele>2199</ele>
        <time>2019-10-06T11:10:49Z</time>
      </trkpt>
      <trkpt lat="45.69205" lon="6.81304">
        <ele>2199</ele>
        <time>2019-10-06T11:10:51Z</time>
      </trkpt>
      <trkpt lat="45.69203" lon="6.81305">
        <ele>2200</ele>
        <time>2019-10-06T11:10:53Z</time>
      </trkpt>
      <trkpt lat="45.69201" lon="6.81307">
        <ele>2201</ele>
        <time>2019-10-06T11:10:55Z</time>
      </trkpt>
      <trkpt lat="45.692" lon="6.8131">
        <ele>2201</ele>
        <time>2019-10-06T11:10:57Z</time>
      </trkpt>
      <trkpt lat="45.69199" lon="6.81311">
        <ele>2202</ele>
        <time>2019-10-06T11:10:59Z</time>
      </trkpt>
      <trkpt lat="45.69199" lon="6.81311">
        <ele>2201</ele>
        <time>2019-10-06T11:11:01Z</time>
      </trkpt>
      <trkpt lat="45.69196" lon="6.81314">
        <ele>2201</ele>
        <time>2019-10-06T11:11:02Z</time>
      </trkpt>
      <trkpt lat="45.69194" lon="6.81315">
        <ele>2201</ele>
        <time>2019-10-06T11:11:03Z</time>
      </trkpt>
      <trkpt lat="45.69193" lon="6.81317">
        <ele>2201</ele>
        <time>2019-10-06T11:11:04Z</time>
      </trkpt>
      <trkpt lat="45.69191" lon="6.81319">
        <ele>2201</ele>
        <time>2019-10-06T11:11:05Z</time>
      </trkpt>
      <trkpt lat="45.69189" lon="6.81321">
        <ele>2201</ele>
        <time>2019-10-06T11:11:06Z</time>
      </trkpt>
      <trkpt lat="45.69188" lon="6.81323">
        <ele>2201</ele>
        <time>2019-10-06T11:11:07Z</time>
      </trkpt>
      <trkpt lat="45.69186" lon="6.81325">
        <ele>2200</ele>
        <time>2019-10-06T11:11:08Z</time>
      </trkpt>
      <trkpt lat="45.69184" lon="6.81327">
        <ele>2200</ele>
        <time>2019-10-06T11:11:09Z</time>
      </trkpt>
      <trkpt lat="45.69182" lon="6.81329">
        <ele>2200</ele>
        <time>2019-10-06T11:11:10Z</time>
      </trkpt>
      <trkpt lat="45.6918" lon="6.81331">
        <ele>2200</ele>
        <time>2019-10-06T11:11:11Z</time>
      </trkpt>
      <trkpt lat="45.69179" lon="6.81333">
        <ele>2200</ele>
        <time>2019-10-06T11:11:12Z</time>
      </trkpt>
      <trkpt lat="45.69177" lon="6.81334">
        <ele>2200</ele>
        <time>2019-10-06T11:11:13Z</time>
      </trkpt>
      <trkpt lat="45.69174" lon="6.81338">
        <ele>2199</ele>
        <time>2019-10-06T11:11:14Z</time>
      </trkpt>
      <trkpt lat="45.69172" lon="6.81339">
        <ele>2199</ele>
        <time>2019-10-06T11:11:15Z</time>
      </trkpt>
      <trkpt lat="45.6917" lon="6.81341">
        <ele>2199</ele>
        <time>2019-10-06T11:11:16Z</time>
      </trkpt>
      <trkpt lat="45.69168" lon="6.81342">
        <ele>2198</ele>
        <time>2019-10-06T11:11:17Z</time>
      </trkpt>
      <trkpt lat="45.69165" lon="6.81344">
        <ele>2198</ele>
        <time>2019-10-06T11:11:18Z</time>
      </trkpt>
      <trkpt lat="45.69163" lon="6.81345">
        <ele>2197</ele>
        <time>2019-10-06T11:11:19Z</time>
      </trkpt>
      <trkpt lat="45.69161" lon="6.81346">
        <ele>2196</ele>
        <time>2019-10-06T11:11:20Z</time>
      </trkpt>
      <trkpt lat="45.69158" lon="6.81348">
        <ele>2196</ele>
        <time>2019-10-06T11:11:21Z</time>
      </trkpt>
      <trkpt lat="45.69156" lon="6.81349">
        <ele>2196</ele>
        <time>2019-10-06T11:11:22Z</time>
      </trkpt>
      <trkpt lat="45.69154" lon="6.81351">
        <ele>2196</ele>
        <time>2019-10-06T11:11:23Z</time>
      </trkpt>
      <trkpt lat="45.69151" lon="6.81352">
        <ele>2194</ele>
        <time>2019-10-06T11:11:24Z</time>
      </trkpt>
      <trkpt lat="45.69148" lon="6.81354">
        <ele>2194</ele>
        <time>2019-10-06T11:11:25Z</time>
      </trkpt>
      <trkpt lat="45.69147" lon="6.81355">
        <ele>2194</ele>
        <time>2019-10-06T11:11:26Z</time>
      </trkpt>
      <trkpt lat="45.69143" lon="6.81357">
        <ele>2194</ele>
        <time>2019-10-06T11:11:27Z</time>
      </trkpt>
      <trkpt lat="45.69142" lon="6.81358">
        <ele>2193</ele>
        <time>2019-10-06T11:11:28Z</time>
      </trkpt>
      <trkpt lat="45.69138" lon="6.81361">
        <ele>2193</ele>
        <time>2019-10-06T11:11:29Z</time>
      </trkpt>
      <trkpt lat="45.69137" lon="6.81362">
        <ele>2193</ele>
        <time>2019-10-06T11:11:30Z</time>
      </trkpt>
      <trkpt lat="45.69136" lon="6.81364">
        <ele>2192</ele>
        <time>2019-10-06T11:11:31Z</time>
      </trkpt>
      <trkpt lat="45.69134" lon="6.81366">
        <ele>2191</ele>
        <time>2019-10-06T11:11:32Z</time>
      </trkpt>
      <trkpt lat="45.69132" lon="6.81368">
        <ele>2191</ele>
        <time>2019-10-06T11:11:33Z</time>
      </trkpt>
      <trkpt lat="45.6913" lon="6.8137">
        <ele>2191</ele>
        <time>2019-10-06T11:11:34Z</time>
      </trkpt>
      <trkpt lat="45.69128" lon="6.81372">
        <ele>2191</ele>
        <time>2019-10-06T11:11:35Z</time>
      </trkpt>
      <trkpt lat="45.69127" lon="6.81375">
        <ele>2191</ele>
        <time>2019-10-06T11:11:36Z</time>
      </trkpt>
      <trkpt lat="45.69125" lon="6.81377">
        <ele>2191</ele>
        <time>2019-10-06T11:11:37Z</time>
      </trkpt>
      <trkpt lat="45.69123" lon="6.81379">
        <ele>2190</ele>
        <time>2019-10-06T11:11:38Z</time>
      </trkpt>
      <trkpt lat="45.69122" lon="6.81381">
        <ele>2190</ele>
        <time>2019-10-06T11:11:39Z</time>
      </trkpt>
      <trkpt lat="45.6912" lon="6.81384">
        <ele>2189</ele>
        <time>2019-10-06T11:11:40Z</time>
      </trkpt>
      <trkpt lat="45.69118" lon="6.81386">
        <ele>2189</ele>
        <time>2019-10-06T11:11:41Z</time>
      </trkpt>
      <trkpt lat="45.69115" lon="6.8139">
        <ele>2189</ele>
        <time>2019-10-06T11:11:42Z</time>
      </trkpt>
      <trkpt lat="45.69114" lon="6.81391">
        <ele>2189</ele>
        <time>2019-10-06T11:11:43Z</time>
      </trkpt>
      <trkpt lat="45.69112" lon="6.81394">
        <ele>2189</ele>
        <time>2019-10-06T11:11:44Z</time>
      </trkpt>
      <trkpt lat="45.69109" lon="6.81396">
        <ele>2189</ele>
        <time>2019-10-06T11:11:45Z</time>
      </trkpt>
      <trkpt lat="45.69108" lon="6.81398">
        <ele>2188</ele>
        <time>2019-10-06T11:11:46Z</time>
      </trkpt>
      <trkpt lat="45.69106" lon="6.814">
        <ele>2187</ele>
        <time>2019-10-06T11:11:47Z</time>
      </trkpt>
      <trkpt lat="45.69104" lon="6.81402">
        <ele>2187</ele>
        <time>2019-10-06T11:11:48Z</time>
      </trkpt>
      <trkpt lat="45.69102" lon="6.81404">
        <ele>2186</ele>
        <time>2019-10-06T11:11:49Z</time>
      </trkpt>
      <trkpt lat="45.691" lon="6.81406">
        <ele>2185</ele>
        <time>2019-10-06T11:11:50Z</time>
      </trkpt>
      <trkpt lat="45.69098" lon="6.81408">
        <ele>2185</ele>
        <time>2019-10-06T11:11:51Z</time>
      </trkpt>
      <trkpt lat="45.69096" lon="6.8141">
        <ele>2185</ele>
        <time>2019-10-06T11:11:52Z</time>
      </trkpt>
      <trkpt lat="45.69094" lon="6.81413">
        <ele>2185</ele>
        <time>2019-10-06T11:11:53Z</time>
      </trkpt>
      <trkpt lat="45.69093" lon="6.81415">
        <ele>2185</ele>
        <time>2019-10-06T11:11:54Z</time>
      </trkpt>
      <trkpt lat="45.69091" lon="6.81418">
        <ele>2185</ele>
        <time>2019-10-06T11:11:55Z</time>
      </trkpt>
      <trkpt lat="45.6909" lon="6.81421">
        <ele>2185</ele>
        <time>2019-10-06T11:11:56Z</time>
      </trkpt>
      <trkpt lat="45.69088" lon="6.81424">
        <ele>2185</ele>
        <time>2019-10-06T11:11:57Z</time>
      </trkpt>
      <trkpt lat="45.69087" lon="6.81426">
        <ele>2185</ele>
        <time>2019-10-06T11:11:58Z</time>
      </trkpt>
      <trkpt lat="45.69085" lon="6.81429">
        <ele>2185</ele>
        <time>2019-10-06T11:11:59Z</time>
      </trkpt>
      <trkpt lat="45.69083" lon="6.81433">
        <ele>2184</ele>
        <time>2019-10-06T11:12:00Z</time>
      </trkpt>
      <trkpt lat="45.69082" lon="6.81434">
        <ele>2184</ele>
        <time>2019-10-06T11:12:01Z</time>
      </trkpt>
      <trkpt lat="45.69081" lon="6.81437">
        <ele>2184</ele>
        <time>2019-10-06T11:12:02Z</time>
      </trkpt>
      <trkpt lat="45.69079" lon="6.8144">
        <ele>2184</ele>
        <time>2019-10-06T11:12:03Z</time>
      </trkpt>
      <trkpt lat="45.69078" lon="6.81443">
        <ele>2183</ele>
        <time>2019-10-06T11:12:04Z</time>
      </trkpt>
      <trkpt lat="45.69077" lon="6.81447">
        <ele>2183</ele>
        <time>2019-10-06T11:12:05Z</time>
      </trkpt>
      <trkpt lat="45.69077" lon="6.8145">
        <ele>2183</ele>
        <time>2019-10-06T11:12:06Z</time>
      </trkpt>
      <trkpt lat="45.69076" lon="6.81454">
        <ele>2183</ele>
        <time>2019-10-06T11:12:07Z</time>
      </trkpt>
      <trkpt lat="45.69076" lon="6.81457">
        <ele>2183</ele>
        <time>2019-10-06T11:12:08Z</time>
      </trkpt>
      <trkpt lat="45.69075" lon="6.8146">
        <ele>2183</ele>
        <time>2019-10-06T11:12:09Z</time>
      </trkpt>
      <trkpt lat="45.69074" lon="6.81463">
        <ele>2183</ele>
        <time>2019-10-06T11:12:10Z</time>
      </trkpt>
      <trkpt lat="45.69073" lon="6.81466">
        <ele>2183</ele>
        <time>2019-10-06T11:12:11Z</time>
      </trkpt>
      <trkpt lat="45.69072" lon="6.81469">
        <ele>2183</ele>
        <time>2019-10-06T11:12:12Z</time>
      </trkpt>
      <trkpt lat="45.69071" lon="6.81472">
        <ele>2183</ele>
        <time>2019-10-06T11:12:13Z</time>
      </trkpt>
      <trkpt lat="45.6907" lon="6.81475">
        <ele>2183</ele>
        <time>2019-10-06T11:12:14Z</time>
      </trkpt>
      <trkpt lat="45.69069" lon="6.81478">
        <ele>2183</ele>
        <time>2019-10-06T11:12:15Z</time>
      </trkpt>
      <trkpt lat="45.69067" lon="6.81481">
        <ele>2183</ele>
        <time>2019-10-06T11:12:16Z</time>
      </trkpt>
      <trkpt lat="45.69065" lon="6.81483">
        <ele>2183</ele>
        <time>2019-10-06T11:12:17Z</time>
      </trkpt>
      <trkpt lat="45.69064" lon="6.81486">
        <ele>2182</ele>
        <time>2019-10-06T11:12:18Z</time>
      </trkpt>
      <trkpt lat="45.69062" lon="6.81488">
        <ele>2182</ele>
        <time>2019-10-06T11:12:19Z</time>
      </trkpt>
      <trkpt lat="45.6906" lon="6.8149">
        <ele>2182</ele>
        <time>2019-10-06T11:12:20Z</time>
      </trkpt>
      <trkpt lat="45.69058" lon="6.81491">
        <ele>2182</ele>
        <time>2019-10-06T11:12:21Z</time>
      </trkpt>
      <trkpt lat="45.69056" lon="6.81493">
        <ele>2182</ele>
        <time>2019-10-06T11:12:22Z</time>
      </trkpt>
      <trkpt lat="45.69054" lon="6.81495">
        <ele>2181</ele>
        <time>2019-10-06T11:12:23Z</time>
      </trkpt>
      <trkpt lat="45.69052" lon="6.81497">
        <ele>2181</ele>
        <time>2019-10-06T11:12:24Z</time>
      </trkpt>
      <trkpt lat="45.6905" lon="6.81498">
        <ele>2180</ele>
        <time>2019-10-06T11:12:25Z</time>
      </trkpt>
      <trkpt lat="45.69048" lon="6.815">
        <ele>2181</ele>
        <time>2019-10-06T11:12:26Z</time>
      </trkpt>
      <trkpt lat="45.69045" lon="6.81502">
        <ele>2181</ele>
        <time>2019-10-06T11:12:27Z</time>
      </trkpt>
      <trkpt lat="45.69044" lon="6.81503">
        <ele>2181</ele>
        <time>2019-10-06T11:12:28Z</time>
      </trkpt>
      <trkpt lat="45.69042" lon="6.81505">
        <ele>2181</ele>
        <time>2019-10-06T11:12:29Z</time>
      </trkpt>
      <trkpt lat="45.6904" lon="6.81507">
        <ele>2181</ele>
        <time>2019-10-06T11:12:30Z</time>
      </trkpt>
      <trkpt lat="45.69038" lon="6.81509">
        <ele>2181</ele>
        <time>2019-10-06T11:12:31Z</time>
      </trkpt>
      <trkpt lat="45.69036" lon="6.81511">
        <ele>2180</ele>
        <time>2019-10-06T11:12:32Z</time>
      </trkpt>
      <trkpt lat="45.69034" lon="6.81513">
        <ele>2181</ele>
        <time>2019-10-06T11:12:33Z</time>
      </trkpt>
      <trkpt lat="45.69032" lon="6.81515">
        <ele>2181</ele>
        <time>2019-10-06T11:12:34Z</time>
      </trkpt>
      <trkpt lat="45.6903" lon="6.81517">
        <ele>2181</ele>
        <time>2019-10-06T11:12:35Z</time>
      </trkpt>
      <trkpt lat="45.69029" lon="6.81519">
        <ele>2181</ele>
        <time>2019-10-06T11:12:36Z</time>
      </trkpt>
      <trkpt lat="45.69026" lon="6.81521">
        <ele>2181</ele>
        <time>2019-10-06T11:12:37Z</time>
      </trkpt>
      <trkpt lat="45.69025" lon="6.81522">
        <ele>2180</ele>
        <time>2019-10-06T11:12:38Z</time>
      </trkpt>
      <trkpt lat="45.69023" lon="6.81524">
        <ele>2180</ele>
        <time>2019-10-06T11:12:39Z</time>
      </trkpt>
      <trkpt lat="45.69021" lon="6.81525">
        <ele>2180</ele>
        <time>2019-10-06T11:12:40Z</time>
      </trkpt>
      <trkpt lat="45.69019" lon="6.81527">
        <ele>2180</ele>
        <time>2019-10-06T11:12:41Z</time>
      </trkpt>
      <trkpt lat="45.69017" lon="6.81529">
        <ele>2180</ele>
        <time>2019-10-06T11:12:42Z</time>
      </trkpt>
      <trkpt lat="45.69015" lon="6.81532">
        <ele>2180</ele>
        <time>2019-10-06T11:12:43Z</time>
      </trkpt>
      <trkpt lat="45.69013" lon="6.81534">
        <ele>2180</ele>
        <time>2019-10-06T11:12:44Z</time>
      </trkpt>
      <trkpt lat="45.69011" lon="6.81536">
        <ele>2180</ele>
        <time>2019-10-06T11:12:45Z</time>
      </trkpt>
      <trkpt lat="45.69009" lon="6.81538">
        <ele>2181</ele>
        <time>2019-10-06T11:12:46Z</time>
      </trkpt>
      <trkpt lat="45.69007" lon="6.8154">
        <ele>2181</ele>
        <time>2019-10-06T11:12:47Z</time>
      </trkpt>
      <trkpt lat="45.69006" lon="6.81541">
        <ele>2180</ele>
        <time>2019-10-06T11:12:48Z</time>
      </trkpt>
      <trkpt lat="45.69004" lon="6.81543">
        <ele>2180</ele>
        <time>2019-10-06T11:12:49Z</time>
      </trkpt>
      <trkpt lat="45.69001" lon="6.81544">
        <ele>2180</ele>
        <time>2019-10-06T11:12:50Z</time>
      </trkpt>
      <trkpt lat="45.69" lon="6.81546">
        <ele>2180</ele>
        <time>2019-10-06T11:12:51Z</time>
      </trkpt>
      <trkpt lat="45.68998" lon="6.81548">
        <ele>2180</ele>
        <time>2019-10-06T11:12:52Z</time>
      </trkpt>
      <trkpt lat="45.68996" lon="6.8155">
        <ele>2179</ele>
        <time>2019-10-06T11:12:53Z</time>
      </trkpt>
      <trkpt lat="45.68995" lon="6.81552">
        <ele>2179</ele>
        <time>2019-10-06T11:12:54Z</time>
      </trkpt>
      <trkpt lat="45.68993" lon="6.81554">
        <ele>2179</ele>
        <time>2019-10-06T11:12:55Z</time>
      </trkpt>
      <trkpt lat="45.68991" lon="6.81556">
        <ele>2179</ele>
        <time>2019-10-06T11:12:56Z</time>
      </trkpt>
      <trkpt lat="45.68989" lon="6.81559">
        <ele>2179</ele>
        <time>2019-10-06T11:12:57Z</time>
      </trkpt>
      <trkpt lat="45.68988" lon="6.81561">
        <ele>2179</ele>
        <time>2019-10-06T11:12:58Z</time>
      </trkpt>
      <trkpt lat="45.68986" lon="6.81564">
        <ele>2179</ele>
        <time>2019-10-06T11:12:59Z</time>
      </trkpt>
      <trkpt lat="45.68984" lon="6.81566">
        <ele>2179</ele>
        <time>2019-10-06T11:13:00Z</time>
      </trkpt>
      <trkpt lat="45.68983" lon="6.81569">
        <ele>2179</ele>
        <time>2019-10-06T11:13:01Z</time>
      </trkpt>
      <trkpt lat="45.68981" lon="6.81571">
        <ele>2179</ele>
        <time>2019-10-06T11:13:02Z</time>
      </trkpt>
      <trkpt lat="45.68979" lon="6.81573">
        <ele>2179</ele>
        <time>2019-10-06T11:13:03Z</time>
      </trkpt>
      <trkpt lat="45.68977" lon="6.81576">
        <ele>2178</ele>
        <time>2019-10-06T11:13:04Z</time>
      </trkpt>
      <trkpt lat="45.68974" lon="6.81579">
        <ele>2178</ele>
        <time>2019-10-06T11:13:05Z</time>
      </trkpt>
      <trkpt lat="45.68973" lon="6.81579">
        <ele>2177</ele>
        <time>2019-10-06T11:13:06Z</time>
      </trkpt>
      <trkpt lat="45.68971" lon="6.81581">
        <ele>2177</ele>
        <time>2019-10-06T11:13:07Z</time>
      </trkpt>
      <trkpt lat="45.68968" lon="6.81583">
        <ele>2177</ele>
        <time>2019-10-06T11:13:08Z</time>
      </trkpt>
      <trkpt lat="45.68966" lon="6.81584">
        <ele>2177</ele>
        <time>2019-10-06T11:13:09Z</time>
      </trkpt>
      <trkpt lat="45.68962" lon="6.81587">
        <ele>2176</ele>
        <time>2019-10-06T11:13:10Z</time>
      </trkpt>
      <trkpt lat="45.68961" lon="6.81587">
        <ele>2175</ele>
        <time>2019-10-06T11:13:11Z</time>
      </trkpt>
      <trkpt lat="45.68958" lon="6.81588">
        <ele>2175</ele>
        <time>2019-10-06T11:13:12Z</time>
      </trkpt>
      <trkpt lat="45.68956" lon="6.8159">
        <ele>2175</ele>
        <time>2019-10-06T11:13:13Z</time>
      </trkpt>
      <trkpt lat="45.68953" lon="6.81591">
        <ele>2175</ele>
        <time>2019-10-06T11:13:14Z</time>
      </trkpt>
      <trkpt lat="45.6895" lon="6.81592">
        <ele>2174</ele>
        <time>2019-10-06T11:13:15Z</time>
      </trkpt>
      <trkpt lat="45.68948" lon="6.81592">
        <ele>2174</ele>
        <time>2019-10-06T11:13:16Z</time>
      </trkpt>
      <trkpt lat="45.68945" lon="6.81593">
        <ele>2174</ele>
        <time>2019-10-06T11:13:17Z</time>
      </trkpt>
      <trkpt lat="45.68943" lon="6.81594">
        <ele>2173</ele>
        <time>2019-10-06T11:13:18Z</time>
      </trkpt>
      <trkpt lat="45.68941" lon="6.81595">
        <ele>2173</ele>
        <time>2019-10-06T11:13:19Z</time>
      </trkpt>
      <trkpt lat="45.68938" lon="6.81596">
        <ele>2173</ele>
        <time>2019-10-06T11:13:20Z</time>
      </trkpt>
      <trkpt lat="45.68936" lon="6.81598">
        <ele>2173</ele>
        <time>2019-10-06T11:13:21Z</time>
      </trkpt>
      <trkpt lat="45.68934" lon="6.81599">
        <ele>2173</ele>
        <time>2019-10-06T11:13:22Z</time>
      </trkpt>
      <trkpt lat="45.68931" lon="6.816">
        <ele>2173</ele>
        <time>2019-10-06T11:13:23Z</time>
      </trkpt>
      <trkpt lat="45.68929" lon="6.81601">
        <ele>2172</ele>
        <time>2019-10-06T11:13:24Z</time>
      </trkpt>
      <trkpt lat="45.68927" lon="6.81601">
        <ele>2172</ele>
        <time>2019-10-06T11:13:25Z</time>
      </trkpt>
      <trkpt lat="45.68925" lon="6.81603">
        <ele>2172</ele>
        <time>2019-10-06T11:13:26Z</time>
      </trkpt>
      <trkpt lat="45.68924" lon="6.81605">
        <ele>2171</ele>
        <time>2019-10-06T11:13:27Z</time>
      </trkpt>
      <trkpt lat="45.68922" lon="6.81607">
        <ele>2171</ele>
        <time>2019-10-06T11:13:28Z</time>
      </trkpt>
      <trkpt lat="45.6892" lon="6.8161">
        <ele>2171</ele>
        <time>2019-10-06T11:13:29Z</time>
      </trkpt>
      <trkpt lat="45.68919" lon="6.81611">
        <ele>2170</ele>
        <time>2019-10-06T11:13:30Z</time>
      </trkpt>
      <trkpt lat="45.68916" lon="6.81615">
        <ele>2170</ele>
        <time>2019-10-06T11:13:31Z</time>
      </trkpt>
      <trkpt lat="45.68916" lon="6.81616">
        <ele>2170</ele>
        <time>2019-10-06T11:13:32Z</time>
      </trkpt>
      <trkpt lat="45.68914" lon="6.81618">
        <ele>2170</ele>
        <time>2019-10-06T11:13:33Z</time>
      </trkpt>
      <trkpt lat="45.68912" lon="6.81621">
        <ele>2170</ele>
        <time>2019-10-06T11:13:34Z</time>
      </trkpt>
      <trkpt lat="45.6891" lon="6.81623">
        <ele>2171</ele>
        <time>2019-10-06T11:13:35Z</time>
      </trkpt>
      <trkpt lat="45.68908" lon="6.81625">
        <ele>2171</ele>
        <time>2019-10-06T11:13:36Z</time>
      </trkpt>
      <trkpt lat="45.68906" lon="6.81627">
        <ele>2170</ele>
        <time>2019-10-06T11:13:37Z</time>
      </trkpt>
      <trkpt lat="45.68904" lon="6.81628">
        <ele>2170</ele>
        <time>2019-10-06T11:13:38Z</time>
      </trkpt>
      <trkpt lat="45.68901" lon="6.8163">
        <ele>2168</ele>
        <time>2019-10-06T11:13:39Z</time>
      </trkpt>
      <trkpt lat="45.68899" lon="6.81631">
        <ele>2168</ele>
        <time>2019-10-06T11:13:40Z</time>
      </trkpt>
      <trkpt lat="45.68896" lon="6.81632">
        <ele>2168</ele>
        <time>2019-10-06T11:13:41Z</time>
      </trkpt>
      <trkpt lat="45.68894" lon="6.81633">
        <ele>2168</ele>
        <time>2019-10-06T11:13:42Z</time>
      </trkpt>
      <trkpt lat="45.68892" lon="6.81634">
        <ele>2170</ele>
        <time>2019-10-06T11:13:43Z</time>
      </trkpt>
      <trkpt lat="45.6889" lon="6.81636">
        <ele>2170</ele>
        <time>2019-10-06T11:13:44Z</time>
      </trkpt>
      <trkpt lat="45.68888" lon="6.81637">
        <ele>2170</ele>
        <time>2019-10-06T11:13:45Z</time>
      </trkpt>
      <trkpt lat="45.68886" lon="6.81639">
        <ele>2170</ele>
        <time>2019-10-06T11:13:46Z</time>
      </trkpt>
      <trkpt lat="45.68884" lon="6.81641">
        <ele>2170</ele>
        <time>2019-10-06T11:13:47Z</time>
      </trkpt>
      <trkpt lat="45.68882" lon="6.81642">
        <ele>2168</ele>
        <time>2019-10-06T11:13:48Z</time>
      </trkpt>
      <trkpt lat="45.6888" lon="6.81644">
        <ele>2168</ele>
        <time>2019-10-06T11:13:49Z</time>
      </trkpt>
      <trkpt lat="45.68877" lon="6.81646">
        <ele>2168</ele>
        <time>2019-10-06T11:13:50Z</time>
      </trkpt>
      <trkpt lat="45.68876" lon="6.81647">
        <ele>2167</ele>
        <time>2019-10-06T11:13:51Z</time>
      </trkpt>
      <trkpt lat="45.68874" lon="6.81648">
        <ele>2167</ele>
        <time>2019-10-06T11:13:52Z</time>
      </trkpt>
      <trkpt lat="45.68871" lon="6.81651">
        <ele>2168</ele>
        <time>2019-10-06T11:13:53Z</time>
      </trkpt>
      <trkpt lat="45.6887" lon="6.81652">
        <ele>2168</ele>
        <time>2019-10-06T11:13:54Z</time>
      </trkpt>
      <trkpt lat="45.68866" lon="6.81654">
        <ele>2168</ele>
        <time>2019-10-06T11:13:55Z</time>
      </trkpt>
      <trkpt lat="45.68865" lon="6.81655">
        <ele>2167</ele>
        <time>2019-10-06T11:13:56Z</time>
      </trkpt>
      <trkpt lat="45.68863" lon="6.81656">
        <ele>2167</ele>
        <time>2019-10-06T11:13:57Z</time>
      </trkpt>
      <trkpt lat="45.6886" lon="6.81657">
        <ele>2167</ele>
        <time>2019-10-06T11:13:58Z</time>
      </trkpt>
      <trkpt lat="45.68858" lon="6.81658">
        <ele>2166</ele>
        <time>2019-10-06T11:13:59Z</time>
      </trkpt>
      <trkpt lat="45.68855" lon="6.81658">
        <ele>2166</ele>
        <time>2019-10-06T11:14:00Z</time>
      </trkpt>
      <trkpt lat="45.68853" lon="6.81659">
        <ele>2166</ele>
        <time>2019-10-06T11:14:01Z</time>
      </trkpt>
      <trkpt lat="45.6885" lon="6.81659">
        <ele>2166</ele>
        <time>2019-10-06T11:14:02Z</time>
      </trkpt>
      <trkpt lat="45.68848" lon="6.81659">
        <ele>2166</ele>
        <time>2019-10-06T11:14:03Z</time>
      </trkpt>
      <trkpt lat="45.68845" lon="6.81659">
        <ele>2166</ele>
        <time>2019-10-06T11:14:04Z</time>
      </trkpt>
      <trkpt lat="45.68843" lon="6.81659">
        <ele>2166</ele>
        <time>2019-10-06T11:14:05Z</time>
      </trkpt>
      <trkpt lat="45.6884" lon="6.8166">
        <ele>2166</ele>
        <time>2019-10-06T11:14:06Z</time>
      </trkpt>
      <trkpt lat="45.68837" lon="6.81661">
        <ele>2165</ele>
        <time>2019-10-06T11:14:07Z</time>
      </trkpt>
      <trkpt lat="45.68835" lon="6.81661">
        <ele>2164</ele>
        <time>2019-10-06T11:14:08Z</time>
      </trkpt>
      <trkpt lat="45.68832" lon="6.81663">
        <ele>2164</ele>
        <time>2019-10-06T11:14:09Z</time>
      </trkpt>
      <trkpt lat="45.6883" lon="6.81663">
        <ele>2164</ele>
        <time>2019-10-06T11:14:10Z</time>
      </trkpt>
      <trkpt lat="45.68828" lon="6.81664">
        <ele>2164</ele>
        <time>2019-10-06T11:14:11Z</time>
      </trkpt>
      <trkpt lat="45.68825" lon="6.81667">
        <ele>2164</ele>
        <time>2019-10-06T11:14:12Z</time>
      </trkpt>
      <trkpt lat="45.68824" lon="6.81667">
        <ele>2163</ele>
        <time>2019-10-06T11:14:13Z</time>
      </trkpt>
      <trkpt lat="45.68821" lon="6.81669">
        <ele>2164</ele>
        <time>2019-10-06T11:14:14Z</time>
      </trkpt>
      <trkpt lat="45.68819" lon="6.81671">
        <ele>2164</ele>
        <time>2019-10-06T11:14:15Z</time>
      </trkpt>
      <trkpt lat="45.68817" lon="6.81673">
        <ele>2164</ele>
        <time>2019-10-06T11:14:16Z</time>
      </trkpt>
      <trkpt lat="45.68815" lon="6.81675">
        <ele>2164</ele>
        <time>2019-10-06T11:14:17Z</time>
      </trkpt>
      <trkpt lat="45.68813" lon="6.81677">
        <ele>2164</ele>
        <time>2019-10-06T11:14:18Z</time>
      </trkpt>
      <trkpt lat="45.68811" lon="6.81678">
        <ele>2163</ele>
        <time>2019-10-06T11:14:19Z</time>
      </trkpt>
      <trkpt lat="45.68809" lon="6.8168">
        <ele>2162</ele>
        <time>2019-10-06T11:14:20Z</time>
      </trkpt>
      <trkpt lat="45.68807" lon="6.81682">
        <ele>2163</ele>
        <time>2019-10-06T11:14:21Z</time>
      </trkpt>
      <trkpt lat="45.68805" lon="6.81685">
        <ele>2163</ele>
        <time>2019-10-06T11:14:22Z</time>
      </trkpt>
      <trkpt lat="45.68803" lon="6.81686">
        <ele>2163</ele>
        <time>2019-10-06T11:14:23Z</time>
      </trkpt>
      <trkpt lat="45.68802" lon="6.81689">
        <ele>2162</ele>
        <time>2019-10-06T11:14:24Z</time>
      </trkpt>
      <trkpt lat="45.688" lon="6.81691">
        <ele>2162</ele>
        <time>2019-10-06T11:14:25Z</time>
      </trkpt>
      <trkpt lat="45.68798" lon="6.81693">
        <ele>2162</ele>
        <time>2019-10-06T11:14:26Z</time>
      </trkpt>
      <trkpt lat="45.68796" lon="6.81694">
        <ele>2162</ele>
        <time>2019-10-06T11:14:27Z</time>
      </trkpt>
      <trkpt lat="45.68794" lon="6.81696">
        <ele>2162</ele>
        <time>2019-10-06T11:14:28Z</time>
      </trkpt>
      <trkpt lat="45.68791" lon="6.81697">
        <ele>2162</ele>
        <time>2019-10-06T11:14:29Z</time>
      </trkpt>
      <trkpt lat="45.68789" lon="6.81697">
        <ele>2162</ele>
        <time>2019-10-06T11:14:30Z</time>
      </trkpt>
      <trkpt lat="45.68787" lon="6.81698">
        <ele>2163</ele>
        <time>2019-10-06T11:14:31Z</time>
      </trkpt>
      <trkpt lat="45.68784" lon="6.81698">
        <ele>2163</ele>
        <time>2019-10-06T11:14:32Z</time>
      </trkpt>
      <trkpt lat="45.68781" lon="6.81699">
        <ele>2163</ele>
        <time>2019-10-06T11:14:33Z</time>
      </trkpt>
      <trkpt lat="45.6878" lon="6.81699">
        <ele>2163</ele>
        <time>2019-10-06T11:14:34Z</time>
      </trkpt>
      <trkpt lat="45.68777" lon="6.81699">
        <ele>2163</ele>
        <time>2019-10-06T11:14:35Z</time>
      </trkpt>
      <trkpt lat="45.68775" lon="6.817">
        <ele>2163</ele>
        <time>2019-10-06T11:14:36Z</time>
      </trkpt>
      <trkpt lat="45.68773" lon="6.817">
        <ele>2162</ele>
        <time>2019-10-06T11:14:37Z</time>
      </trkpt>
      <trkpt lat="45.6877" lon="6.81701">
        <ele>2162</ele>
        <time>2019-10-06T11:14:38Z</time>
      </trkpt>
      <trkpt lat="45.68768" lon="6.81701">
        <ele>2162</ele>
        <time>2019-10-06T11:14:39Z</time>
      </trkpt>
      <trkpt lat="45.68764" lon="6.81702">
        <ele>2162</ele>
        <time>2019-10-06T11:14:40Z</time>
      </trkpt>
      <trkpt lat="45.68763" lon="6.81702">
        <ele>2162</ele>
        <time>2019-10-06T11:14:41Z</time>
      </trkpt>
      <trkpt lat="45.68761" lon="6.81703">
        <ele>2162</ele>
        <time>2019-10-06T11:14:42Z</time>
      </trkpt>
      <trkpt lat="45.68758" lon="6.81704">
        <ele>2162</ele>
        <time>2019-10-06T11:14:43Z</time>
      </trkpt>
      <trkpt lat="45.68756" lon="6.81704">
        <ele>2162</ele>
        <time>2019-10-06T11:14:44Z</time>
      </trkpt>
      <trkpt lat="45.68754" lon="6.81705">
        <ele>2162</ele>
        <time>2019-10-06T11:14:45Z</time>
      </trkpt>
      <trkpt lat="45.68752" lon="6.81704">
        <ele>2161</ele>
        <time>2019-10-06T11:14:46Z</time>
      </trkpt>
      <trkpt lat="45.68749" lon="6.81704">
        <ele>2161</ele>
        <time>2019-10-06T11:14:47Z</time>
      </trkpt>
      <trkpt lat="45.68747" lon="6.81704">
        <ele>2161</ele>
        <time>2019-10-06T11:14:48Z</time>
      </trkpt>
      <trkpt lat="45.68745" lon="6.81704">
        <ele>2160</ele>
        <time>2019-10-06T11:14:49Z</time>
      </trkpt>
      <trkpt lat="45.68742" lon="6.81704">
        <ele>2161</ele>
        <time>2019-10-06T11:14:50Z</time>
      </trkpt>
      <trkpt lat="45.6874" lon="6.81703">
        <ele>2161</ele>
        <time>2019-10-06T11:14:51Z</time>
      </trkpt>
      <trkpt lat="45.68738" lon="6.81703">
        <ele>2161</ele>
        <time>2019-10-06T11:14:52Z</time>
      </trkpt>
      <trkpt lat="45.68735" lon="6.81704">
        <ele>2160</ele>
        <time>2019-10-06T11:14:53Z</time>
      </trkpt>
      <trkpt lat="45.68733" lon="6.81704">
        <ele>2160</ele>
        <time>2019-10-06T11:14:54Z</time>
      </trkpt>
      <trkpt lat="45.6873" lon="6.81704">
        <ele>2160</ele>
        <time>2019-10-06T11:14:55Z</time>
      </trkpt>
      <trkpt lat="45.68728" lon="6.81704">
        <ele>2159</ele>
        <time>2019-10-06T11:14:56Z</time>
      </trkpt>
      <trkpt lat="45.68725" lon="6.81703">
        <ele>2158</ele>
        <time>2019-10-06T11:14:57Z</time>
      </trkpt>
      <trkpt lat="45.68723" lon="6.81703">
        <ele>2158</ele>
        <time>2019-10-06T11:14:58Z</time>
      </trkpt>
      <trkpt lat="45.68719" lon="6.81702">
        <ele>2158</ele>
        <time>2019-10-06T11:14:59Z</time>
      </trkpt>
      <trkpt lat="45.68718" lon="6.81701">
        <ele>2158</ele>
        <time>2019-10-06T11:15:00Z</time>
      </trkpt>
      <trkpt lat="45.68716" lon="6.817">
        <ele>2158</ele>
        <time>2019-10-06T11:15:01Z</time>
      </trkpt>
      <trkpt lat="45.68714" lon="6.81699">
        <ele>2158</ele>
        <time>2019-10-06T11:15:02Z</time>
      </trkpt>
      <trkpt lat="45.68711" lon="6.81698">
        <ele>2158</ele>
        <time>2019-10-06T11:15:03Z</time>
      </trkpt>
      <trkpt lat="45.68709" lon="6.81697">
        <ele>2158</ele>
        <time>2019-10-06T11:15:04Z</time>
      </trkpt>
      <trkpt lat="45.68707" lon="6.81696">
        <ele>2157</ele>
        <time>2019-10-06T11:15:05Z</time>
      </trkpt>
      <trkpt lat="45.68704" lon="6.81697">
        <ele>2157</ele>
        <time>2019-10-06T11:15:06Z</time>
      </trkpt>
      <trkpt lat="45.68701" lon="6.81697">
        <ele>2157</ele>
        <time>2019-10-06T11:15:07Z</time>
      </trkpt>
      <trkpt lat="45.687" lon="6.81697">
        <ele>2156</ele>
        <time>2019-10-06T11:15:08Z</time>
      </trkpt>
      <trkpt lat="45.68698" lon="6.81698">
        <ele>2156</ele>
        <time>2019-10-06T11:15:09Z</time>
      </trkpt>
      <trkpt lat="45.68696" lon="6.81699">
        <ele>2156</ele>
        <time>2019-10-06T11:15:10Z</time>
      </trkpt>
      <trkpt lat="45.68693" lon="6.81701">
        <ele>2156</ele>
        <time>2019-10-06T11:15:11Z</time>
      </trkpt>
      <trkpt lat="45.68691" lon="6.81701">
        <ele>2156</ele>
        <time>2019-10-06T11:15:12Z</time>
      </trkpt>
      <trkpt lat="45.68689" lon="6.81702">
        <ele>2156</ele>
        <time>2019-10-06T11:15:13Z</time>
      </trkpt>
      <trkpt lat="45.68687" lon="6.81702">
        <ele>2156</ele>
        <time>2019-10-06T11:15:14Z</time>
      </trkpt>
      <trkpt lat="45.68685" lon="6.81702">
        <ele>2156</ele>
        <time>2019-10-06T11:15:15Z</time>
      </trkpt>
      <trkpt lat="45.68683" lon="6.81701">
        <ele>2155</ele>
        <time>2019-10-06T11:15:16Z</time>
      </trkpt>
      <trkpt lat="45.68681" lon="6.81701">
        <ele>2155</ele>
        <time>2019-10-06T11:15:17Z</time>
      </trkpt>
      <trkpt lat="45.6868" lon="6.81701">
        <ele>2155</ele>
        <time>2019-10-06T11:15:18Z</time>
      </trkpt>
      <trkpt lat="45.68678" lon="6.81701">
        <ele>2154</ele>
        <time>2019-10-06T11:15:19Z</time>
      </trkpt>
      <trkpt lat="45.68675" lon="6.81701">
        <ele>2154</ele>
        <time>2019-10-06T11:15:21Z</time>
      </trkpt>
      <trkpt lat="45.68673" lon="6.81701">
        <ele>2153</ele>
        <time>2019-10-06T11:15:24Z</time>
      </trkpt>
      <trkpt lat="45.68673" lon="6.81701">
        <ele>2153</ele>
        <time>2019-10-06T11:15:25Z</time>
      </trkpt>
      <trkpt lat="45.68673" lon="6.81701">
        <ele>2153</ele>
        <time>2019-10-06T11:15:29Z</time>
      </trkpt>
      <trkpt lat="45.68673" lon="6.81701">
        <ele>2153</ele>
        <time>2019-10-06T11:15:33Z</time>
      </trkpt>
      <trkpt lat="45.68673" lon="6.81701">
        <ele>2153</ele>
        <time>2019-10-06T11:15:37Z</time>
      </trkpt>
      <trkpt lat="45.68673" lon="6.81701">
        <ele>2153</ele>
        <time>2019-10-06T11:15:41Z</time>
      </trkpt>
      <trkpt lat="45.68673" lon="6.81701">
        <ele>2153</ele>
        <time>2019-10-06T11:15:45Z</time>
      </trkpt>
      <trkpt lat="45.68673" lon="6.81701">
        <ele>2153</ele>
        <time>2019-10-06T11:15:49Z</time>
      </trkpt>
      <trkpt lat="45.68673" lon="6.81701">
        <ele>2153</ele>
        <time>2019-10-06T11:15:53Z</time>
      </trkpt>
      <trkpt lat="45.68673" lon="6.81701">
        <ele>2152</ele>
        <time>2019-10-06T11:15:57Z</time>
      </trkpt>
      <trkpt lat="45.68673" lon="6.81701">
        <ele>2152</ele>
        <time>2019-10-06T11:16:01Z</time>
      </trkpt>
      <trkpt lat="45.68673" lon="6.81701">
        <ele>2153</ele>
        <time>2019-10-06T11:16:05Z</time>
      </trkpt>
      <trkpt lat="45.68673" lon="6.81701">
        <ele>2153</ele>
        <time>2019-10-06T11:16:09Z</time>
      </trkpt>
      <trkpt lat="45.68673" lon="6.81701">
        <ele>2153</ele>
        <time>2019-10-06T11:16:13Z</time>
      </trkpt>
      <trkpt lat="45.68673" lon="6.81701">
        <ele>2153</ele>
        <time>2019-10-06T11:16:17Z</time>
      </trkpt>
      <trkpt lat="45.68675" lon="6.81703">
        <ele>2153</ele>
        <time>2019-10-06T11:16:19Z</time>
      </trkpt>
      <trkpt lat="45.68675" lon="6.81703">
        <ele>2153</ele>
        <time>2019-10-06T11:16:22Z</time>
      </trkpt>
      <trkpt lat="45.68675" lon="6.81703">
        <ele>2153</ele>
        <time>2019-10-06T11:16:26Z</time>
      </trkpt>
      <trkpt lat="45.68675" lon="6.81703">
        <ele>2153</ele>
        <time>2019-10-06T11:16:30Z</time>
      </trkpt>
      <trkpt lat="45.68675" lon="6.81703">
        <ele>2153</ele>
        <time>2019-10-06T11:16:34Z</time>
      </trkpt>
      <trkpt lat="45.68675" lon="6.81703">
        <ele>2153</ele>
        <time>2019-10-06T11:16:38Z</time>
      </trkpt>
      <trkpt lat="45.68675" lon="6.81703">
        <ele>2153</ele>
        <time>2019-10-06T11:16:42Z</time>
      </trkpt>
      <trkpt lat="45.68675" lon="6.81703">
        <ele>2153</ele>
        <time>2019-10-06T11:16:46Z</time>
      </trkpt>
      <trkpt lat="45.68675" lon="6.81703">
        <ele>2153</ele>
        <time>2019-10-06T11:16:50Z</time>
      </trkpt>
      <trkpt lat="45.68675" lon="6.81703">
        <ele>2153</ele>
        <time>2019-10-06T11:16:54Z</time>
      </trkpt>
      <trkpt lat="45.68675" lon="6.81703">
        <ele>2153</ele>
        <time>2019-10-06T11:16:58Z</time>
      </trkpt>
      <trkpt lat="45.68675" lon="6.81703">
        <ele>2153</ele>
        <time>2019-10-06T11:17:02Z</time>
      </trkpt>
      <trkpt lat="45.68675" lon="6.81703">
        <ele>2153</ele>
        <time>2019-10-06T11:17:06Z</time>
      </trkpt>
      <trkpt lat="45.68675" lon="6.81703">
        <ele>2153</ele>
        <time>2019-10-06T11:17:10Z</time>
      </trkpt>
      <trkpt lat="45.68675" lon="6.81703">
        <ele>2153</ele>
        <time>2019-10-06T11:17:14Z</time>
      </trkpt>
      <trkpt lat="45.68675" lon="6.81703">
        <ele>2153</ele>
        <time>2019-10-06T11:17:18Z</time>
      </trkpt>
      <trkpt lat="45.68675" lon="6.81703">
        <ele>2153</ele>
        <time>2019-10-06T11:17:22Z</time>
      </trkpt>
      <trkpt lat="45.68675" lon="6.81703">
        <ele>2153</ele>
        <time>2019-10-06T11:17:26Z</time>
      </trkpt>
      <trkpt lat="45.68675" lon="6.81703">
        <ele>2153</ele>
        <time>2019-10-06T11:17:30Z</time>
      </trkpt>
      <trkpt lat="45.68675" lon="6.81703">
        <ele>2153</ele>
        <time>2019-10-06T11:17:34Z</time>
      </trkpt>
      <trkpt lat="45.68675" lon="6.81703">
        <ele>2153</ele>
        <time>2019-10-06T11:17:38Z</time>
      </trkpt>
      <trkpt lat="45.68675" lon="6.81703">
        <ele>2153</ele>
        <time>2019-10-06T11:17:42Z</time>
      </trkpt>
      <trkpt lat="45.68675" lon="6.81703">
        <ele>2153</ele>
        <time>2019-10-06T11:17:46Z</time>
      </trkpt>
      <trkpt lat="45.68673" lon="6.81702">
        <ele>2154</ele>
        <time>2019-10-06T11:17:49Z</time>
      </trkpt>
      <trkpt lat="45.68673" lon="6.81702">
        <ele>2154</ele>
        <time>2019-10-06T11:17:51Z</time>
      </trkpt>
      <trkpt lat="45.68673" lon="6.81702">
        <ele>2153</ele>
        <time>2019-10-06T11:17:55Z</time>
      </trkpt>
      <trkpt lat="45.68671" lon="6.81702">
        <ele>2153</ele>
        <time>2019-10-06T11:17:58Z</time>
      </trkpt>
      <trkpt lat="45.68671" lon="6.81702">
        <ele>2153</ele>
        <time>2019-10-06T11:18:00Z</time>
      </trkpt>
      <trkpt lat="45.68671" lon="6.81702">
        <ele>2153</ele>
        <time>2019-10-06T11:18:04Z</time>
      </trkpt>
      <trkpt lat="45.68671" lon="6.81702">
        <ele>2153</ele>
        <time>2019-10-06T11:18:08Z</time>
      </trkpt>
      <trkpt lat="45.68671" lon="6.81702">
        <ele>2153</ele>
        <time>2019-10-06T11:18:12Z</time>
      </trkpt>
      <trkpt lat="45.68671" lon="6.81702">
        <ele>2153</ele>
        <time>2019-10-06T11:18:16Z</time>
      </trkpt>
      <trkpt lat="45.68671" lon="6.81702">
        <ele>2153</ele>
        <time>2019-10-06T11:18:20Z</time>
      </trkpt>
      <trkpt lat="45.68671" lon="6.81702">
        <ele>2153</ele>
        <time>2019-10-06T11:18:24Z</time>
      </trkpt>
      <trkpt lat="45.68671" lon="6.81702">
        <ele>2153</ele>
        <time>2019-10-06T11:18:28Z</time>
      </trkpt>
      <trkpt lat="45.68671" lon="6.81702">
        <ele>2153</ele>
        <time>2019-10-06T11:18:32Z</time>
      </trkpt>
      <trkpt lat="45.68671" lon="6.81702">
        <ele>2153</ele>
        <time>2019-10-06T11:18:36Z</time>
      </trkpt>
      <trkpt lat="45.68671" lon="6.81702">
        <ele>2153</ele>
        <time>2019-10-06T11:18:40Z</time>
      </trkpt>
      <trkpt lat="45.68671" lon="6.81702">
        <ele>2153</ele>
        <time>2019-10-06T11:18:44Z</time>
      </trkpt>
      <trkpt lat="45.68671" lon="6.81702">
        <ele>2153</ele>
        <time>2019-10-06T11:18:48Z</time>
      </trkpt>
      <trkpt lat="45.68671" lon="6.81702">
        <ele>2153</ele>
        <time>2019-10-06T11:18:52Z</time>
      </trkpt>
      <trkpt lat="45.68671" lon="6.81702">
        <ele>2153</ele>
        <time>2019-10-06T11:18:56Z</time>
      </trkpt>
      <trkpt lat="45.68671" lon="6.81702">
        <ele>2153</ele>
        <time>2019-10-06T11:19:00Z</time>
      </trkpt>
      <trkpt lat="45.68671" lon="6.81702">
        <ele>2153</ele>
        <time>2019-10-06T11:19:04Z</time>
      </trkpt>
      <trkpt lat="45.68671" lon="6.81702">
        <ele>2154</ele>
        <time>2019-10-06T11:19:08Z</time>
      </trkpt>
      <trkpt lat="45.68671" lon="6.81702">
        <ele>2154</ele>
        <time>2019-10-06T11:19:12Z</time>
      </trkpt>
      <trkpt lat="45.68671" lon="6.81702">
        <ele>2153</ele>
        <time>2019-10-06T11:19:16Z</time>
      </trkpt>
      <trkpt lat="45.68671" lon="6.81702">
        <ele>2153</ele>
        <time>2019-10-06T11:19:20Z</time>
      </trkpt>
      <trkpt lat="45.68671" lon="6.81702">
        <ele>2153</ele>
        <time>2019-10-06T11:19:24Z</time>
      </trkpt>
      <trkpt lat="45.68671" lon="6.81702">
        <ele>2154</ele>
        <time>2019-10-06T11:19:28Z</time>
      </trkpt>
      <trkpt lat="45.68671" lon="6.81702">
        <ele>2154</ele>
        <time>2019-10-06T11:19:32Z</time>
      </trkpt>
      <trkpt lat="45.68671" lon="6.81702">
        <ele>2154</ele>
        <time>2019-10-06T11:19:36Z</time>
      </trkpt>
      <trkpt lat="45.68671" lon="6.81702">
        <ele>2154</ele>
        <time>2019-10-06T11:19:40Z</time>
      </trkpt>
      <trkpt lat="45.68671" lon="6.81702">
        <ele>2153</ele>
        <time>2019-10-06T11:19:44Z</time>
      </trkpt>
      <trkpt lat="45.68671" lon="6.81702">
        <ele>2154</ele>
        <time>2019-10-06T11:19:48Z</time>
      </trkpt>
      <trkpt lat="45.68671" lon="6.81702">
        <ele>2154</ele>
        <time>2019-10-06T11:19:52Z</time>
      </trkpt>
      <trkpt lat="45.68671" lon="6.81702">
        <ele>2154</ele>
        <time>2019-10-06T11:19:56Z</time>
      </trkpt>
      <trkpt lat="45.68671" lon="6.81702">
        <ele>2154</ele>
        <time>2019-10-06T11:20:00Z</time>
      </trkpt>
      <trkpt lat="45.68671" lon="6.81702">
        <ele>2154</ele>
        <time>2019-10-06T11:20:04Z</time>
      </trkpt>
      <trkpt lat="45.68671" lon="6.81702">
        <ele>2154</ele>
        <time>2019-10-06T11:20:08Z</time>
      </trkpt>
      <trkpt lat="45.6867" lon="6.817">
        <ele>2154</ele>
        <time>2019-10-06T11:20:10Z</time>
      </trkpt>
      <trkpt lat="45.68668" lon="6.81698">
        <ele>2153</ele>
        <time>2019-10-06T11:20:12Z</time>
      </trkpt>
      <trkpt lat="45.68668" lon="6.81698">
        <ele>2153</ele>
        <time>2019-10-06T11:20:14Z</time>
      </trkpt>
      <trkpt lat="45.68668" lon="6.81698">
        <ele>2154</ele>
        <time>2019-10-06T11:20:18Z</time>
      </trkpt>
      <trkpt lat="45.6867" lon="6.81699">
        <ele>2154</ele>
        <time>2019-10-06T11:20:19Z</time>
      </trkpt>
      <trkpt lat="45.6867" lon="6.81699">
        <ele>2154</ele>
        <time>2019-10-06T11:20:23Z</time>
      </trkpt>
      <trkpt lat="45.6867" lon="6.81699">
        <ele>2153</ele>
        <time>2019-10-06T11:20:27Z</time>
      </trkpt>
      <trkpt lat="45.6867" lon="6.81699">
        <ele>2153</ele>
        <time>2019-10-06T11:20:31Z</time>
      </trkpt>
      <trkpt lat="45.6867" lon="6.81699">
        <ele>2153</ele>
        <time>2019-10-06T11:20:35Z</time>
      </trkpt>
      <trkpt lat="45.6867" lon="6.81699">
        <ele>2153</ele>
        <time>2019-10-06T11:20:39Z</time>
      </trkpt>
      <trkpt lat="45.6867" lon="6.81699">
        <ele>2154</ele>
        <time>2019-10-06T11:20:43Z</time>
      </trkpt>
      <trkpt lat="45.6867" lon="6.81699">
        <ele>2153</ele>
        <time>2019-10-06T11:20:47Z</time>
      </trkpt>
      <trkpt lat="45.6867" lon="6.81699">
        <ele>2153</ele>
        <time>2019-10-06T11:20:51Z</time>
      </trkpt>
      <trkpt lat="45.6867" lon="6.81699">
        <ele>2153</ele>
        <time>2019-10-06T11:20:55Z</time>
      </trkpt>
      <trkpt lat="45.6867" lon="6.81699">
        <ele>2153</ele>
        <time>2019-10-06T11:20:59Z</time>
      </trkpt>
      <trkpt lat="45.6867" lon="6.81699">
        <ele>2154</ele>
        <time>2019-10-06T11:21:03Z</time>
      </trkpt>
      <trkpt lat="45.6867" lon="6.81699">
        <ele>2154</ele>
        <time>2019-10-06T11:21:07Z</time>
      </trkpt>
      <trkpt lat="45.6867" lon="6.81699">
        <ele>2154</ele>
        <time>2019-10-06T11:21:11Z</time>
      </trkpt>
      <trkpt lat="45.6867" lon="6.81699">
        <ele>2154</ele>
        <time>2019-10-06T11:21:15Z</time>
      </trkpt>
      <trkpt lat="45.68671" lon="6.81702">
        <ele>2154</ele>
        <time>2019-10-06T11:21:18Z</time>
      </trkpt>
      <trkpt lat="45.68671" lon="6.81702">
        <ele>2153</ele>
        <time>2019-10-06T11:21:20Z</time>
      </trkpt>
      <trkpt lat="45.68671" lon="6.81702">
        <ele>2153</ele>
        <time>2019-10-06T11:21:24Z</time>
      </trkpt>
      <trkpt lat="45.68671" lon="6.81702">
        <ele>2153</ele>
        <time>2019-10-06T11:21:28Z</time>
      </trkpt>
      <trkpt lat="45.68671" lon="6.81702">
        <ele>2153</ele>
        <time>2019-10-06T11:21:32Z</time>
      </trkpt>
      <trkpt lat="45.68671" lon="6.81702">
        <ele>2154</ele>
        <time>2019-10-06T11:21:36Z</time>
      </trkpt>
      <trkpt lat="45.68671" lon="6.81702">
        <ele>2154</ele>
        <time>2019-10-06T11:21:40Z</time>
      </trkpt>
      <trkpt lat="45.68672" lon="6.81705">
        <ele>2154</ele>
        <time>2019-10-06T11:21:43Z</time>
      </trkpt>
      <trkpt lat="45.68672" lon="6.81705">
        <ele>2154</ele>
        <time>2019-10-06T11:21:45Z</time>
      </trkpt>
      <trkpt lat="45.68672" lon="6.81705">
        <ele>2154</ele>
        <time>2019-10-06T11:21:49Z</time>
      </trkpt>
      <trkpt lat="45.68672" lon="6.81705">
        <ele>2155</ele>
        <time>2019-10-06T11:21:53Z</time>
      </trkpt>
      <trkpt lat="45.68672" lon="6.81705">
        <ele>2154</ele>
        <time>2019-10-06T11:21:57Z</time>
      </trkpt>
      <trkpt lat="45.68672" lon="6.81705">
        <ele>2154</ele>
        <time>2019-10-06T11:22:01Z</time>
      </trkpt>
      <trkpt lat="45.68672" lon="6.81705">
        <ele>2154</ele>
        <time>2019-10-06T11:22:05Z</time>
      </trkpt>
      <trkpt lat="45.68672" lon="6.81705">
        <ele>2154</ele>
        <time>2019-10-06T11:22:09Z</time>
      </trkpt>
      <trkpt lat="45.68672" lon="6.81705">
        <ele>2154</ele>
        <time>2019-10-06T11:22:13Z</time>
      </trkpt>
      <trkpt lat="45.68672" lon="6.81705">
        <ele>2154</ele>
        <time>2019-10-06T11:22:17Z</time>
      </trkpt>
      <trkpt lat="45.68672" lon="6.81705">
        <ele>2155</ele>
        <time>2019-10-06T11:22:21Z</time>
      </trkpt>
      <trkpt lat="45.68672" lon="6.81705">
        <ele>2153</ele>
        <time>2019-10-06T11:22:25Z</time>
      </trkpt>
      <trkpt lat="45.68672" lon="6.81705">
        <ele>2153</ele>
        <time>2019-10-06T11:22:29Z</time>
      </trkpt>
      <trkpt lat="45.68672" lon="6.81705">
        <ele>2154</ele>
        <time>2019-10-06T11:22:33Z</time>
      </trkpt>
      <trkpt lat="45.68672" lon="6.81705">
        <ele>2154</ele>
        <time>2019-10-06T11:22:37Z</time>
      </trkpt>
      <trkpt lat="45.68672" lon="6.81705">
        <ele>2155</ele>
        <time>2019-10-06T11:22:41Z</time>
      </trkpt>
      <trkpt lat="45.68672" lon="6.81705">
        <ele>2155</ele>
        <time>2019-10-06T11:22:45Z</time>
      </trkpt>
      <trkpt lat="45.68672" lon="6.81705">
        <ele>2155</ele>
        <time>2019-10-06T11:22:49Z</time>
      </trkpt>
      <trkpt lat="45.68671" lon="6.81702">
        <ele>2154</ele>
        <time>2019-10-06T11:22:53Z</time>
      </trkpt>
      <trkpt lat="45.68671" lon="6.81702">
        <ele>2154</ele>
        <time>2019-10-06T11:22:54Z</time>
      </trkpt>
      <trkpt lat="45.68671" lon="6.81702">
        <ele>2154</ele>
        <time>2019-10-06T11:22:58Z</time>
      </trkpt>
      <trkpt lat="45.68671" lon="6.81702">
        <ele>2155</ele>
        <time>2019-10-06T11:23:02Z</time>
      </trkpt>
      <trkpt lat="45.68671" lon="6.81702">
        <ele>2155</ele>
        <time>2019-10-06T11:23:06Z</time>
      </trkpt>
      <trkpt lat="45.68671" lon="6.81702">
        <ele>2155</ele>
        <time>2019-10-06T11:23:10Z</time>
      </trkpt>
      <trkpt lat="45.68671" lon="6.81702">
        <ele>2155</ele>
        <time>2019-10-06T11:23:14Z</time>
      </trkpt>
      <trkpt lat="45.68671" lon="6.81702">
        <ele>2155</ele>
        <time>2019-10-06T11:23:18Z</time>
      </trkpt>
      <trkpt lat="45.68671" lon="6.81702">
        <ele>2155</ele>
        <time>2019-10-06T11:23:22Z</time>
      </trkpt>
      <trkpt lat="45.68671" lon="6.81702">
        <ele>2154</ele>
        <time>2019-10-06T11:23:26Z</time>
      </trkpt>
      <trkpt lat="45.68671" lon="6.81702">
        <ele>2155</ele>
        <time>2019-10-06T11:23:30Z</time>
      </trkpt>
      <trkpt lat="45.68671" lon="6.81702">
        <ele>2155</ele>
        <time>2019-10-06T11:23:34Z</time>
      </trkpt>
      <trkpt lat="45.68671" lon="6.81702">
        <ele>2155</ele>
        <time>2019-10-06T11:23:38Z</time>
      </trkpt>
      <trkpt lat="45.68671" lon="6.81702">
        <ele>2155</ele>
        <time>2019-10-06T11:23:42Z</time>
      </trkpt>
      <trkpt lat="45.68671" lon="6.81702">
        <ele>2155</ele>
        <time>2019-10-06T11:23:46Z</time>
      </trkpt>
      <trkpt lat="45.68671" lon="6.81702">
        <ele>2155</ele>
        <time>2019-10-06T11:23:50Z</time>
      </trkpt>
      <trkpt lat="45.68671" lon="6.81702">
        <ele>2154</ele>
        <time>2019-10-06T11:23:54Z</time>
      </trkpt>
      <trkpt lat="45.68671" lon="6.81702">
        <ele>2155</ele>
        <time>2019-10-06T11:23:58Z</time>
      </trkpt>
      <trkpt lat="45.68671" lon="6.81702">
        <ele>2154</ele>
        <time>2019-10-06T11:24:02Z</time>
      </trkpt>
      <trkpt lat="45.68671" lon="6.81702">
        <ele>2154</ele>
        <time>2019-10-06T11:24:06Z</time>
      </trkpt>
      <trkpt lat="45.68671" lon="6.81702">
        <ele>2154</ele>
        <time>2019-10-06T11:24:10Z</time>
      </trkpt>
      <trkpt lat="45.68671" lon="6.81702">
        <ele>2154</ele>
        <time>2019-10-06T11:24:14Z</time>
      </trkpt>
      <trkpt lat="45.68671" lon="6.81702">
        <ele>2154</ele>
        <time>2019-10-06T11:24:18Z</time>
      </trkpt>
      <trkpt lat="45.68671" lon="6.81702">
        <ele>2155</ele>
        <time>2019-10-06T11:24:22Z</time>
      </trkpt>
      <trkpt lat="45.68671" lon="6.81702">
        <ele>2155</ele>
        <time>2019-10-06T11:24:26Z</time>
      </trkpt>
      <trkpt lat="45.68671" lon="6.81702">
        <ele>2155</ele>
        <time>2019-10-06T11:24:30Z</time>
      </trkpt>
      <trkpt lat="45.68671" lon="6.81702">
        <ele>2154</ele>
        <time>2019-10-06T11:24:34Z</time>
      </trkpt>
      <trkpt lat="45.6867" lon="6.817">
        <ele>2154</ele>
        <time>2019-10-06T11:24:36Z</time>
      </trkpt>
      <trkpt lat="45.6867" lon="6.817">
        <ele>2154</ele>
        <time>2019-10-06T11:24:39Z</time>
      </trkpt>
      <trkpt lat="45.6867" lon="6.817">
        <ele>2155</ele>
        <time>2019-10-06T11:24:43Z</time>
      </trkpt>
      <trkpt lat="45.6867" lon="6.817">
        <ele>2154</ele>
        <time>2019-10-06T11:24:47Z</time>
      </trkpt>
      <trkpt lat="45.6867" lon="6.817">
        <ele>2154</ele>
        <time>2019-10-06T11:24:51Z</time>
      </trkpt>
      <trkpt lat="45.6867" lon="6.817">
        <ele>2155</ele>
        <time>2019-10-06T11:24:55Z</time>
      </trkpt>
      <trkpt lat="45.6867" lon="6.817">
        <ele>2155</ele>
        <time>2019-10-06T11:24:59Z</time>
      </trkpt>
      <trkpt lat="45.6867" lon="6.817">
        <ele>2155</ele>
        <time>2019-10-06T11:25:03Z</time>
      </trkpt>
      <trkpt lat="45.6867" lon="6.817">
        <ele>2155</ele>
        <time>2019-10-06T11:25:07Z</time>
      </trkpt>
      <trkpt lat="45.6867" lon="6.817">
        <ele>2155</ele>
        <time>2019-10-06T11:25:11Z</time>
      </trkpt>
      <trkpt lat="45.6867" lon="6.817">
        <ele>2155</ele>
        <time>2019-10-06T11:25:15Z</time>
      </trkpt>
      <trkpt lat="45.6867" lon="6.817">
        <ele>2155</ele>
        <time>2019-10-06T11:25:19Z</time>
      </trkpt>
      <trkpt lat="45.6867" lon="6.817">
        <ele>2155</ele>
        <time>2019-10-06T11:25:23Z</time>
      </trkpt>
      <trkpt lat="45.6867" lon="6.817">
        <ele>2155</ele>
        <time>2019-10-06T11:25:27Z</time>
      </trkpt>
      <trkpt lat="45.6867" lon="6.817">
        <ele>2155</ele>
        <time>2019-10-06T11:25:31Z</time>
      </trkpt>
      <trkpt lat="45.6867" lon="6.817">
        <ele>2155</ele>
        <time>2019-10-06T11:25:35Z</time>
      </trkpt>
      <trkpt lat="45.6867" lon="6.817">
        <ele>2155</ele>
        <time>2019-10-06T11:25:39Z</time>
      </trkpt>
      <trkpt lat="45.6867" lon="6.817">
        <ele>2155</ele>
        <time>2019-10-06T11:25:43Z</time>
      </trkpt>
      <trkpt lat="45.6867" lon="6.817">
        <ele>2155</ele>
        <time>2019-10-06T11:25:47Z</time>
      </trkpt>
      <trkpt lat="45.6867" lon="6.817">
        <ele>2155</ele>
        <time>2019-10-06T11:25:51Z</time>
      </trkpt>
      <trkpt lat="45.6867" lon="6.817">
        <ele>2155</ele>
        <time>2019-10-06T11:25:55Z</time>
      </trkpt>
      <trkpt lat="45.6867" lon="6.817">
        <ele>2154</ele>
        <time>2019-10-06T11:25:59Z</time>
      </trkpt>
      <trkpt lat="45.6867" lon="6.817">
        <ele>2155</ele>
        <time>2019-10-06T11:26:03Z</time>
      </trkpt>
      <trkpt lat="45.6867" lon="6.817">
        <ele>2155</ele>
        <time>2019-10-06T11:26:07Z</time>
      </trkpt>
      <trkpt lat="45.6867" lon="6.817">
        <ele>2155</ele>
        <time>2019-10-06T11:26:11Z</time>
      </trkpt>
      <trkpt lat="45.6867" lon="6.817">
        <ele>2155</ele>
        <time>2019-10-06T11:26:15Z</time>
      </trkpt>
      <trkpt lat="45.6867" lon="6.817">
        <ele>2155</ele>
        <time>2019-10-06T11:26:19Z</time>
      </trkpt>
      <trkpt lat="45.6867" lon="6.817">
        <ele>2155</ele>
        <time>2019-10-06T11:26:23Z</time>
      </trkpt>
      <trkpt lat="45.6867" lon="6.817">
        <ele>2155</ele>
        <time>2019-10-06T11:26:27Z</time>
      </trkpt>
      <trkpt lat="45.6867" lon="6.817">
        <ele>2155</ele>
        <time>2019-10-06T11:26:31Z</time>
      </trkpt>
      <trkpt lat="45.68671" lon="6.81702">
        <ele>2154</ele>
        <time>2019-10-06T11:26:34Z</time>
      </trkpt>
      <trkpt lat="45.68671" lon="6.81702">
        <ele>2154</ele>
        <time>2019-10-06T11:26:36Z</time>
      </trkpt>
      <trkpt lat="45.68671" lon="6.81702">
        <ele>2155</ele>
        <time>2019-10-06T11:26:40Z</time>
      </trkpt>
      <trkpt lat="45.68671" lon="6.81702">
        <ele>2155</ele>
        <time>2019-10-06T11:26:44Z</time>
      </trkpt>
      <trkpt lat="45.68669" lon="6.81702">
        <ele>2154</ele>
        <time>2019-10-06T11:26:45Z</time>
      </trkpt>
      <trkpt lat="45.68669" lon="6.81702">
        <ele>2154</ele>
        <time>2019-10-06T11:26:49Z</time>
      </trkpt>
      <trkpt lat="45.68667" lon="6.81702">
        <ele>2154</ele>
        <time>2019-10-06T11:26:52Z</time>
      </trkpt>
      <trkpt lat="45.68667" lon="6.81702">
        <ele>2154</ele>
        <time>2019-10-06T11:26:54Z</time>
      </trkpt>
      <trkpt lat="45.68665" lon="6.81703">
        <ele>2154</ele>
        <time>2019-10-06T11:26:55Z</time>
      </trkpt>
      <trkpt lat="45.68664" lon="6.81705">
        <ele>2155</ele>
        <time>2019-10-06T11:26:59Z</time>
      </trkpt>
      <trkpt lat="45.68664" lon="6.81705">
        <ele>2155</ele>
        <time>2019-10-06T11:27:00Z</time>
      </trkpt>
      <trkpt lat="45.68664" lon="6.81705">
        <ele>2155</ele>
        <time>2019-10-06T11:27:04Z</time>
      </trkpt>
      <trkpt lat="45.68664" lon="6.81705">
        <ele>2155</ele>
        <time>2019-10-06T11:27:08Z</time>
      </trkpt>
      <trkpt lat="45.68664" lon="6.81705">
        <ele>2156</ele>
        <time>2019-10-06T11:27:12Z</time>
      </trkpt>
      <trkpt lat="45.68664" lon="6.81705">
        <ele>2156</ele>
        <time>2019-10-06T11:27:16Z</time>
      </trkpt>
      <trkpt lat="45.68664" lon="6.81705">
        <ele>2155</ele>
        <time>2019-10-06T11:27:20Z</time>
      </trkpt>
      <trkpt lat="45.68664" lon="6.81705">
        <ele>2155</ele>
        <time>2019-10-06T11:27:24Z</time>
      </trkpt>
      <trkpt lat="45.68664" lon="6.81705">
        <ele>2155</ele>
        <time>2019-10-06T11:27:28Z</time>
      </trkpt>
      <trkpt lat="45.68664" lon="6.81705">
        <ele>2155</ele>
        <time>2019-10-06T11:27:32Z</time>
      </trkpt>
      <trkpt lat="45.68664" lon="6.81705">
        <ele>2155</ele>
        <time>2019-10-06T11:27:36Z</time>
      </trkpt>
      <trkpt lat="45.68664" lon="6.81705">
        <ele>2155</ele>
        <time>2019-10-06T11:27:40Z</time>
      </trkpt>
      <trkpt lat="45.68664" lon="6.81705">
        <ele>2155</ele>
        <time>2019-10-06T11:27:44Z</time>
      </trkpt>
      <trkpt lat="45.68664" lon="6.81705">
        <ele>2155</ele>
        <time>2019-10-06T11:27:48Z</time>
      </trkpt>
      <trkpt lat="45.68666" lon="6.81703">
        <ele>2155</ele>
        <time>2019-10-06T11:27:49Z</time>
      </trkpt>
      <trkpt lat="45.68666" lon="6.81703">
        <ele>2156</ele>
        <time>2019-10-06T11:27:53Z</time>
      </trkpt>
      <trkpt lat="45.68666" lon="6.81703">
        <ele>2156</ele>
        <time>2019-10-06T11:27:57Z</time>
      </trkpt>
      <trkpt lat="45.68668" lon="6.81702">
        <ele>2156</ele>
        <time>2019-10-06T11:27:59Z</time>
      </trkpt>
      <trkpt lat="45.68668" lon="6.81702">
        <ele>2156</ele>
        <time>2019-10-06T11:28:02Z</time>
      </trkpt>
      <trkpt lat="45.68668" lon="6.81702">
        <ele>2155</ele>
        <time>2019-10-06T11:28:06Z</time>
      </trkpt>
      <trkpt lat="45.68668" lon="6.81702">
        <ele>2155</ele>
        <time>2019-10-06T11:28:10Z</time>
      </trkpt>
      <trkpt lat="45.68668" lon="6.81702">
        <ele>2155</ele>
        <time>2019-10-06T11:28:14Z</time>
      </trkpt>
      <trkpt lat="45.68668" lon="6.81702">
        <ele>2155</ele>
        <time>2019-10-06T11:28:18Z</time>
      </trkpt>
      <trkpt lat="45.68668" lon="6.81702">
        <ele>2155</ele>
        <time>2019-10-06T11:28:22Z</time>
      </trkpt>
      <trkpt lat="45.68668" lon="6.81702">
        <ele>2156</ele>
        <time>2019-10-06T11:28:26Z</time>
      </trkpt>
      <trkpt lat="45.68668" lon="6.81702">
        <ele>2156</ele>
        <time>2019-10-06T11:28:30Z</time>
      </trkpt>
      <trkpt lat="45.68668" lon="6.81702">
        <ele>2155</ele>
        <time>2019-10-06T11:28:34Z</time>
      </trkpt>
      <trkpt lat="45.68668" lon="6.81702">
        <ele>2155</ele>
        <time>2019-10-06T11:28:38Z</time>
      </trkpt>
      <trkpt lat="45.68668" lon="6.81702">
        <ele>2155</ele>
        <time>2019-10-06T11:28:42Z</time>
      </trkpt>
      <trkpt lat="45.68668" lon="6.81702">
        <ele>2156</ele>
        <time>2019-10-06T11:28:46Z</time>
      </trkpt>
      <trkpt lat="45.68668" lon="6.81702">
        <ele>2156</ele>
        <time>2019-10-06T11:28:50Z</time>
      </trkpt>
      <trkpt lat="45.68668" lon="6.81702">
        <ele>2156</ele>
        <time>2019-10-06T11:28:54Z</time>
      </trkpt>
      <trkpt lat="45.68668" lon="6.81702">
        <ele>2155</ele>
        <time>2019-10-06T11:28:58Z</time>
      </trkpt>
      <trkpt lat="45.68668" lon="6.81702">
        <ele>2155</ele>
        <time>2019-10-06T11:29:02Z</time>
      </trkpt>
      <trkpt lat="45.68668" lon="6.81702">
        <ele>2155</ele>
        <time>2019-10-06T11:29:06Z</time>
      </trkpt>
      <trkpt lat="45.68668" lon="6.81702">
        <ele>2156</ele>
        <time>2019-10-06T11:29:10Z</time>
      </trkpt>
      <trkpt lat="45.68668" lon="6.81702">
        <ele>2156</ele>
        <time>2019-10-06T11:29:14Z</time>
      </trkpt>
      <trkpt lat="45.68668" lon="6.81702">
        <ele>2155</ele>
        <time>2019-10-06T11:29:18Z</time>
      </trkpt>
      <trkpt lat="45.68668" lon="6.81702">
        <ele>2156</ele>
        <time>2019-10-06T11:29:22Z</time>
      </trkpt>
      <trkpt lat="45.68668" lon="6.81702">
        <ele>2156</ele>
        <time>2019-10-06T11:29:26Z</time>
      </trkpt>
      <trkpt lat="45.68668" lon="6.81702">
        <ele>2156</ele>
        <time>2019-10-06T11:29:30Z</time>
      </trkpt>
      <trkpt lat="45.68668" lon="6.81702">
        <ele>2156</ele>
        <time>2019-10-06T11:29:34Z</time>
      </trkpt>
      <trkpt lat="45.68668" lon="6.81702">
        <ele>2156</ele>
        <time>2019-10-06T11:29:38Z</time>
      </trkpt>
      <trkpt lat="45.68668" lon="6.81702">
        <ele>2156</ele>
        <time>2019-10-06T11:29:42Z</time>
      </trkpt>
      <trkpt lat="45.68668" lon="6.81702">
        <ele>2156</ele>
        <time>2019-10-06T11:29:46Z</time>
      </trkpt>
      <trkpt lat="45.68668" lon="6.81702">
        <ele>2156</ele>
        <time>2019-10-06T11:29:50Z</time>
      </trkpt>
      <trkpt lat="45.68668" lon="6.81702">
        <ele>2156</ele>
        <time>2019-10-06T11:29:54Z</time>
      </trkpt>
      <trkpt lat="45.68668" lon="6.81702">
        <ele>2156</ele>
        <time>2019-10-06T11:29:58Z</time>
      </trkpt>
      <trkpt lat="45.68668" lon="6.81702">
        <ele>2156</ele>
        <time>2019-10-06T11:30:02Z</time>
      </trkpt>
      <trkpt lat="45.68668" lon="6.81702">
        <ele>2156</ele>
        <time>2019-10-06T11:30:06Z</time>
      </trkpt>
      <trkpt lat="45.68668" lon="6.81702">
        <ele>2156</ele>
        <time>2019-10-06T11:30:10Z</time>
      </trkpt>
      <trkpt lat="45.68668" lon="6.81702">
        <ele>2156</ele>
        <time>2019-10-06T11:30:14Z</time>
      </trkpt>
      <trkpt lat="45.68668" lon="6.81702">
        <ele>2156</ele>
        <time>2019-10-06T11:30:18Z</time>
      </trkpt>
      <trkpt lat="45.68668" lon="6.81702">
        <ele>2156</ele>
        <time>2019-10-06T11:30:22Z</time>
      </trkpt>
      <trkpt lat="45.68665" lon="6.81703">
        <ele>2156</ele>
        <time>2019-10-06T11:30:24Z</time>
      </trkpt>
      <trkpt lat="45.68664" lon="6.81704">
        <ele>2156</ele>
        <time>2019-10-06T11:30:26Z</time>
      </trkpt>
      <trkpt lat="45.68664" lon="6.81704">
        <ele>2156</ele>
        <time>2019-10-06T11:30:28Z</time>
      </trkpt>
      <trkpt lat="45.68662" lon="6.81707">
        <ele>2156</ele>
        <time>2019-10-06T11:30:29Z</time>
      </trkpt>
      <trkpt lat="45.6866" lon="6.81708">
        <ele>2156</ele>
        <time>2019-10-06T11:30:31Z</time>
      </trkpt>
      <trkpt lat="45.68658" lon="6.8171">
        <ele>2156</ele>
        <time>2019-10-06T11:30:34Z</time>
      </trkpt>
      <trkpt lat="45.68658" lon="6.8171">
        <ele>2156</ele>
        <time>2019-10-06T11:30:35Z</time>
      </trkpt>
      <trkpt lat="45.68656" lon="6.81712">
        <ele>2156</ele>
        <time>2019-10-06T11:30:37Z</time>
      </trkpt>
      <trkpt lat="45.68654" lon="6.81714">
        <ele>2156</ele>
        <time>2019-10-06T11:30:40Z</time>
      </trkpt>
      <trkpt lat="45.68654" lon="6.81714">
        <ele>2156</ele>
        <time>2019-10-06T11:30:41Z</time>
      </trkpt>
      <trkpt lat="45.68652" lon="6.81716">
        <ele>2156</ele>
        <time>2019-10-06T11:30:42Z</time>
      </trkpt>
      <trkpt lat="45.6865" lon="6.81717">
        <ele>2156</ele>
        <time>2019-10-06T11:30:44Z</time>
      </trkpt>
      <trkpt lat="45.68647" lon="6.81718">
        <ele>2156</ele>
        <time>2019-10-06T11:30:46Z</time>
      </trkpt>
      <trkpt lat="45.68644" lon="6.81719">
        <ele>2156</ele>
        <time>2019-10-06T11:30:48Z</time>
      </trkpt>
      <trkpt lat="45.68641" lon="6.81719">
        <ele>2156</ele>
        <time>2019-10-06T11:30:50Z</time>
      </trkpt>
      <trkpt lat="45.68638" lon="6.8172">
        <ele>2156</ele>
        <time>2019-10-06T11:30:52Z</time>
      </trkpt>
      <trkpt lat="45.68636" lon="6.81719">
        <ele>2156</ele>
        <time>2019-10-06T11:30:53Z</time>
      </trkpt>
      <trkpt lat="45.68634" lon="6.81719">
        <ele>2156</ele>
        <time>2019-10-06T11:30:54Z</time>
      </trkpt>
      <trkpt lat="45.68632" lon="6.81719">
        <ele>2156</ele>
        <time>2019-10-06T11:30:55Z</time>
      </trkpt>
      <trkpt lat="45.6863" lon="6.81719">
        <ele>2156</ele>
        <time>2019-10-06T11:30:56Z</time>
      </trkpt>
      <trkpt lat="45.68628" lon="6.81719">
        <ele>2156</ele>
        <time>2019-10-06T11:30:57Z</time>
      </trkpt>
      <trkpt lat="45.68626" lon="6.81718">
        <ele>2156</ele>
        <time>2019-10-06T11:30:58Z</time>
      </trkpt>
      <trkpt lat="45.68624" lon="6.81718">
        <ele>2156</ele>
        <time>2019-10-06T11:30:59Z</time>
      </trkpt>
      <trkpt lat="45.68622" lon="6.81718">
        <ele>2156</ele>
        <time>2019-10-06T11:31:00Z</time>
      </trkpt>
      <trkpt lat="45.6862" lon="6.81719">
        <ele>2156</ele>
        <time>2019-10-06T11:31:01Z</time>
      </trkpt>
      <trkpt lat="45.68618" lon="6.81719">
        <ele>2156</ele>
        <time>2019-10-06T11:31:02Z</time>
      </trkpt>
      <trkpt lat="45.68615" lon="6.81719">
        <ele>2156</ele>
        <time>2019-10-06T11:31:03Z</time>
      </trkpt>
      <trkpt lat="45.68613" lon="6.8172">
        <ele>2156</ele>
        <time>2019-10-06T11:31:04Z</time>
      </trkpt>
      <trkpt lat="45.68611" lon="6.81721">
        <ele>2156</ele>
        <time>2019-10-06T11:31:05Z</time>
      </trkpt>
      <trkpt lat="45.68609" lon="6.81722">
        <ele>2156</ele>
        <time>2019-10-06T11:31:06Z</time>
      </trkpt>
      <trkpt lat="45.68607" lon="6.81722">
        <ele>2156</ele>
        <time>2019-10-06T11:31:07Z</time>
      </trkpt>
      <trkpt lat="45.68604" lon="6.81723">
        <ele>2156</ele>
        <time>2019-10-06T11:31:08Z</time>
      </trkpt>
      <trkpt lat="45.68601" lon="6.81723">
        <ele>2156</ele>
        <time>2019-10-06T11:31:09Z</time>
      </trkpt>
      <trkpt lat="45.686" lon="6.81723">
        <ele>2156</ele>
        <time>2019-10-06T11:31:10Z</time>
      </trkpt>
      <trkpt lat="45.68598" lon="6.81724">
        <ele>2156</ele>
        <time>2019-10-06T11:31:11Z</time>
      </trkpt>
      <trkpt lat="45.68596" lon="6.81724">
        <ele>2156</ele>
        <time>2019-10-06T11:31:12Z</time>
      </trkpt>
      <trkpt lat="45.68593" lon="6.81724">
        <ele>2156</ele>
        <time>2019-10-06T11:31:13Z</time>
      </trkpt>
      <trkpt lat="45.68591" lon="6.81725">
        <ele>2156</ele>
        <time>2019-10-06T11:31:14Z</time>
      </trkpt>
      <trkpt lat="45.68588" lon="6.81725">
        <ele>2156</ele>
        <time>2019-10-06T11:31:15Z</time>
      </trkpt>
      <trkpt lat="45.68586" lon="6.81725">
        <ele>2156</ele>
        <time>2019-10-06T11:31:16Z</time>
      </trkpt>
      <trkpt lat="45.68584" lon="6.81726">
        <ele>2156</ele>
        <time>2019-10-06T11:31:17Z</time>
      </trkpt>
      <trkpt lat="45.68581" lon="6.81726">
        <ele>2156</ele>
        <time>2019-10-06T11:31:18Z</time>
      </trkpt>
      <trkpt lat="45.68578" lon="6.81726">
        <ele>2156</ele>
        <time>2019-10-06T11:31:19Z</time>
      </trkpt>
      <trkpt lat="45.68576" lon="6.81726">
        <ele>2156</ele>
        <time>2019-10-06T11:31:20Z</time>
      </trkpt>
      <trkpt lat="45.68573" lon="6.81726">
        <ele>2156</ele>
        <time>2019-10-06T11:31:21Z</time>
      </trkpt>
      <trkpt lat="45.68571" lon="6.81725">
        <ele>2156</ele>
        <time>2019-10-06T11:31:22Z</time>
      </trkpt>
      <trkpt lat="45.68569" lon="6.81724">
        <ele>2156</ele>
        <time>2019-10-06T11:31:23Z</time>
      </trkpt>
      <trkpt lat="45.68567" lon="6.81723">
        <ele>2156</ele>
        <time>2019-10-06T11:31:24Z</time>
      </trkpt>
      <trkpt lat="45.68564" lon="6.81722">
        <ele>2156</ele>
        <time>2019-10-06T11:31:25Z</time>
      </trkpt>
      <trkpt lat="45.68562" lon="6.81721">
        <ele>2156</ele>
        <time>2019-10-06T11:31:26Z</time>
      </trkpt>
      <trkpt lat="45.6856" lon="6.81719">
        <ele>2156</ele>
        <time>2019-10-06T11:31:27Z</time>
      </trkpt>
      <trkpt lat="45.68558" lon="6.81718">
        <ele>2156</ele>
        <time>2019-10-06T11:31:28Z</time>
      </trkpt>
      <trkpt lat="45.68555" lon="6.81718">
        <ele>2156</ele>
        <time>2019-10-06T11:31:29Z</time>
      </trkpt>
      <trkpt lat="45.68553" lon="6.81717">
        <ele>2156</ele>
        <time>2019-10-06T11:31:30Z</time>
      </trkpt>
      <trkpt lat="45.68551" lon="6.81717">
        <ele>2156</ele>
        <time>2019-10-06T11:31:31Z</time>
      </trkpt>
      <trkpt lat="45.68549" lon="6.81716">
        <ele>2156</ele>
        <time>2019-10-06T11:31:32Z</time>
      </trkpt>
      <trkpt lat="45.68546" lon="6.81716">
        <ele>2151</ele>
        <time>2019-10-06T11:31:33Z</time>
      </trkpt>
      <trkpt lat="45.68544" lon="6.81714">
        <ele>2151</ele>
        <time>2019-10-06T11:31:34Z</time>
      </trkpt>
      <trkpt lat="45.68542" lon="6.81713">
        <ele>2151</ele>
        <time>2019-10-06T11:31:35Z</time>
      </trkpt>
      <trkpt lat="45.6854" lon="6.81712">
        <ele>2152</ele>
        <time>2019-10-06T11:31:36Z</time>
      </trkpt>
      <trkpt lat="45.68538" lon="6.81711">
        <ele>2152</ele>
        <time>2019-10-06T11:31:37Z</time>
      </trkpt>
      <trkpt lat="45.68536" lon="6.8171">
        <ele>2152</ele>
        <time>2019-10-06T11:31:38Z</time>
      </trkpt>
      <trkpt lat="45.68533" lon="6.81709">
        <ele>2152</ele>
        <time>2019-10-06T11:31:39Z</time>
      </trkpt>
      <trkpt lat="45.68531" lon="6.81708">
        <ele>2152</ele>
        <time>2019-10-06T11:31:40Z</time>
      </trkpt>
      <trkpt lat="45.68529" lon="6.81707">
        <ele>2152</ele>
        <time>2019-10-06T11:31:41Z</time>
      </trkpt>
      <trkpt lat="45.68527" lon="6.81706">
        <ele>2152</ele>
        <time>2019-10-06T11:31:42Z</time>
      </trkpt>
      <trkpt lat="45.68524" lon="6.81704">
        <ele>2152</ele>
        <time>2019-10-06T11:31:43Z</time>
      </trkpt>
      <trkpt lat="45.68523" lon="6.81704">
        <ele>2152</ele>
        <time>2019-10-06T11:31:44Z</time>
      </trkpt>
      <trkpt lat="45.68521" lon="6.81703">
        <ele>2152</ele>
        <time>2019-10-06T11:31:45Z</time>
      </trkpt>
      <trkpt lat="45.68519" lon="6.81702">
        <ele>2152</ele>
        <time>2019-10-06T11:31:46Z</time>
      </trkpt>
      <trkpt lat="45.68517" lon="6.81701">
        <ele>2152</ele>
        <time>2019-10-06T11:31:47Z</time>
      </trkpt>
      <trkpt lat="45.68515" lon="6.817">
        <ele>2152</ele>
        <time>2019-10-06T11:31:48Z</time>
      </trkpt>
      <trkpt lat="45.68513" lon="6.81699">
        <ele>2152</ele>
        <time>2019-10-06T11:31:49Z</time>
      </trkpt>
      <trkpt lat="45.68511" lon="6.81698">
        <ele>2152</ele>
        <time>2019-10-06T11:31:50Z</time>
      </trkpt>
      <trkpt lat="45.68509" lon="6.81697">
        <ele>2152</ele>
        <time>2019-10-06T11:31:51Z</time>
      </trkpt>
      <trkpt lat="45.68506" lon="6.81696">
        <ele>2152</ele>
        <time>2019-10-06T11:31:52Z</time>
      </trkpt>
      <trkpt lat="45.68504" lon="6.81696">
        <ele>2152</ele>
        <time>2019-10-06T11:31:53Z</time>
      </trkpt>
      <trkpt lat="45.68502" lon="6.81695">
        <ele>2152</ele>
        <time>2019-10-06T11:31:54Z</time>
      </trkpt>
      <trkpt lat="45.685" lon="6.81694">
        <ele>2152</ele>
        <time>2019-10-06T11:31:55Z</time>
      </trkpt>
      <trkpt lat="45.68496" lon="6.81692">
        <ele>2152</ele>
        <time>2019-10-06T11:31:56Z</time>
      </trkpt>
      <trkpt lat="45.68495" lon="6.81692">
        <ele>2152</ele>
        <time>2019-10-06T11:31:57Z</time>
      </trkpt>
      <trkpt lat="45.68493" lon="6.81691">
        <ele>2151</ele>
        <time>2019-10-06T11:31:58Z</time>
      </trkpt>
      <trkpt lat="45.68491" lon="6.8169">
        <ele>2151</ele>
        <time>2019-10-06T11:31:59Z</time>
      </trkpt>
      <trkpt lat="45.68489" lon="6.81689">
        <ele>2151</ele>
        <time>2019-10-06T11:32:00Z</time>
      </trkpt>
      <trkpt lat="45.68487" lon="6.81688">
        <ele>2151</ele>
        <time>2019-10-06T11:32:01Z</time>
      </trkpt>
      <trkpt lat="45.68484" lon="6.81686">
        <ele>2151</ele>
        <time>2019-10-06T11:32:02Z</time>
      </trkpt>
      <trkpt lat="45.68483" lon="6.81686">
        <ele>2151</ele>
        <time>2019-10-06T11:32:03Z</time>
      </trkpt>
      <trkpt lat="45.68481" lon="6.81685">
        <ele>2151</ele>
        <time>2019-10-06T11:32:04Z</time>
      </trkpt>
      <trkpt lat="45.68479" lon="6.81685">
        <ele>2151</ele>
        <time>2019-10-06T11:32:05Z</time>
      </trkpt>
      <trkpt lat="45.68476" lon="6.81684">
        <ele>2151</ele>
        <time>2019-10-06T11:32:06Z</time>
      </trkpt>
      <trkpt lat="45.68474" lon="6.81684">
        <ele>2151</ele>
        <time>2019-10-06T11:32:07Z</time>
      </trkpt>
      <trkpt lat="45.68472" lon="6.81684">
        <ele>2151</ele>
        <time>2019-10-06T11:32:08Z</time>
      </trkpt>
      <trkpt lat="45.68471" lon="6.81684">
        <ele>2151</ele>
        <time>2019-10-06T11:32:09Z</time>
      </trkpt>
      <trkpt lat="45.68468" lon="6.81685">
        <ele>2151</ele>
        <time>2019-10-06T11:32:10Z</time>
      </trkpt>
      <trkpt lat="45.68467" lon="6.81685">
        <ele>2151</ele>
        <time>2019-10-06T11:32:11Z</time>
      </trkpt>
      <trkpt lat="45.68465" lon="6.81686">
        <ele>2151</ele>
        <time>2019-10-06T11:32:12Z</time>
      </trkpt>
      <trkpt lat="45.68462" lon="6.81687">
        <ele>2152</ele>
        <time>2019-10-06T11:32:14Z</time>
      </trkpt>
      <trkpt lat="45.68459" lon="6.81689">
        <ele>2152</ele>
        <time>2019-10-06T11:32:16Z</time>
      </trkpt>
      <trkpt lat="45.68456" lon="6.8169">
        <ele>2152</ele>
        <time>2019-10-06T11:32:18Z</time>
      </trkpt>
      <trkpt lat="45.68454" lon="6.81692">
        <ele>2152</ele>
        <time>2019-10-06T11:32:20Z</time>
      </trkpt>
      <trkpt lat="45.68452" lon="6.81694">
        <ele>2152</ele>
        <time>2019-10-06T11:32:22Z</time>
      </trkpt>
      <trkpt lat="45.68449" lon="6.81696">
        <ele>2153</ele>
        <time>2019-10-06T11:32:24Z</time>
      </trkpt>
      <trkpt lat="45.68447" lon="6.81697">
        <ele>2153</ele>
        <time>2019-10-06T11:32:26Z</time>
      </trkpt>
      <trkpt lat="45.68444" lon="6.81698">
        <ele>2153</ele>
        <time>2019-10-06T11:32:28Z</time>
      </trkpt>
      <trkpt lat="45.68442" lon="6.81699">
        <ele>2154</ele>
        <time>2019-10-06T11:32:30Z</time>
      </trkpt>
      <trkpt lat="45.68439" lon="6.81699">
        <ele>2155</ele>
        <time>2019-10-06T11:32:32Z</time>
      </trkpt>
      <trkpt lat="45.68437" lon="6.81698">
        <ele>2155</ele>
        <time>2019-10-06T11:32:34Z</time>
      </trkpt>
      <trkpt lat="45.68435" lon="6.81696">
        <ele>2155</ele>
        <time>2019-10-06T11:32:36Z</time>
      </trkpt>
      <trkpt lat="45.68432" lon="6.81695">
        <ele>2156</ele>
        <time>2019-10-06T11:32:38Z</time>
      </trkpt>
      <trkpt lat="45.6843" lon="6.81693">
        <ele>2156</ele>
        <time>2019-10-06T11:32:40Z</time>
      </trkpt>
      <trkpt lat="45.68428" lon="6.81692">
        <ele>2156</ele>
        <time>2019-10-06T11:32:42Z</time>
      </trkpt>
      <trkpt lat="45.68426" lon="6.81691">
        <ele>2157</ele>
        <time>2019-10-06T11:32:44Z</time>
      </trkpt>
      <trkpt lat="45.68423" lon="6.81691">
        <ele>2157</ele>
        <time>2019-10-06T11:32:46Z</time>
      </trkpt>
      <trkpt lat="45.68421" lon="6.81691">
        <ele>2157</ele>
        <time>2019-10-06T11:32:48Z</time>
      </trkpt>
      <trkpt lat="45.68419" lon="6.81692">
        <ele>2159</ele>
        <time>2019-10-06T11:32:50Z</time>
      </trkpt>
      <trkpt lat="45.68416" lon="6.81693">
        <ele>2159</ele>
        <time>2019-10-06T11:32:53Z</time>
      </trkpt>
      <trkpt lat="45.68416" lon="6.81693">
        <ele>2159</ele>
        <time>2019-10-06T11:32:54Z</time>
      </trkpt>
      <trkpt lat="45.68414" lon="6.81693">
        <ele>2159</ele>
        <time>2019-10-06T11:32:55Z</time>
      </trkpt>
      <trkpt lat="45.68412" lon="6.81695">
        <ele>2159</ele>
        <time>2019-10-06T11:32:58Z</time>
      </trkpt>
      <trkpt lat="45.6841" lon="6.81696">
        <ele>2159</ele>
        <time>2019-10-06T11:33:00Z</time>
      </trkpt>
      <trkpt lat="45.68408" lon="6.81699">
        <ele>2159</ele>
        <time>2019-10-06T11:33:02Z</time>
      </trkpt>
      <trkpt lat="45.68407" lon="6.81702">
        <ele>2159</ele>
        <time>2019-10-06T11:33:04Z</time>
      </trkpt>
      <trkpt lat="45.68407" lon="6.81706">
        <ele>2159</ele>
        <time>2019-10-06T11:33:06Z</time>
      </trkpt>
      <trkpt lat="45.68406" lon="6.8171">
        <ele>2160</ele>
        <time>2019-10-06T11:33:08Z</time>
      </trkpt>
      <trkpt lat="45.68405" lon="6.81713">
        <ele>2160</ele>
        <time>2019-10-06T11:33:10Z</time>
      </trkpt>
      <trkpt lat="45.68404" lon="6.81717">
        <ele>2160</ele>
        <time>2019-10-06T11:33:12Z</time>
      </trkpt>
      <trkpt lat="45.68403" lon="6.8172">
        <ele>2160</ele>
        <time>2019-10-06T11:33:14Z</time>
      </trkpt>
      <trkpt lat="45.68402" lon="6.81723">
        <ele>2160</ele>
        <time>2019-10-06T11:33:16Z</time>
      </trkpt>
      <trkpt lat="45.684" lon="6.81726">
        <ele>2160</ele>
        <time>2019-10-06T11:33:18Z</time>
      </trkpt>
      <trkpt lat="45.68399" lon="6.81729">
        <ele>2161</ele>
        <time>2019-10-06T11:33:20Z</time>
      </trkpt>
      <trkpt lat="45.68398" lon="6.81731">
        <ele>2161</ele>
        <time>2019-10-06T11:33:22Z</time>
      </trkpt>
      <trkpt lat="45.68396" lon="6.81732">
        <ele>2161</ele>
        <time>2019-10-06T11:33:24Z</time>
      </trkpt>
      <trkpt lat="45.68394" lon="6.81734">
        <ele>2162</ele>
        <time>2019-10-06T11:33:27Z</time>
      </trkpt>
      <trkpt lat="45.68394" lon="6.81734">
        <ele>2162</ele>
        <time>2019-10-06T11:33:28Z</time>
      </trkpt>
      <trkpt lat="45.68392" lon="6.81737">
        <ele>2162</ele>
        <time>2019-10-06T11:33:29Z</time>
      </trkpt>
      <trkpt lat="45.6839" lon="6.81739">
        <ele>2163</ele>
        <time>2019-10-06T11:33:31Z</time>
      </trkpt>
      <trkpt lat="45.68389" lon="6.81742">
        <ele>2163</ele>
        <time>2019-10-06T11:33:33Z</time>
      </trkpt>
      <trkpt lat="45.68387" lon="6.81744">
        <ele>2163</ele>
        <time>2019-10-06T11:33:35Z</time>
      </trkpt>
      <trkpt lat="45.68385" lon="6.81746">
        <ele>2163</ele>
        <time>2019-10-06T11:33:37Z</time>
      </trkpt>
      <trkpt lat="45.68383" lon="6.81749">
        <ele>2163</ele>
        <time>2019-10-06T11:33:39Z</time>
      </trkpt>
      <trkpt lat="45.68382" lon="6.81751">
        <ele>2163</ele>
        <time>2019-10-06T11:33:41Z</time>
      </trkpt>
      <trkpt lat="45.68379" lon="6.81752">
        <ele>2165</ele>
        <time>2019-10-06T11:33:43Z</time>
      </trkpt>
      <trkpt lat="45.68377" lon="6.81753">
        <ele>2165</ele>
        <time>2019-10-06T11:33:45Z</time>
      </trkpt>
      <trkpt lat="45.68375" lon="6.81753">
        <ele>2166</ele>
        <time>2019-10-06T11:33:47Z</time>
      </trkpt>
      <trkpt lat="45.68373" lon="6.81754">
        <ele>2166</ele>
        <time>2019-10-06T11:33:49Z</time>
      </trkpt>
      <trkpt lat="45.68371" lon="6.81755">
        <ele>2167</ele>
        <time>2019-10-06T11:33:51Z</time>
      </trkpt>
      <trkpt lat="45.6837" lon="6.81755">
        <ele>2167</ele>
        <time>2019-10-06T11:33:53Z</time>
      </trkpt>
      <trkpt lat="45.68368" lon="6.81754">
        <ele>2167</ele>
        <time>2019-10-06T11:33:55Z</time>
      </trkpt>
      <trkpt lat="45.68366" lon="6.81754">
        <ele>2168</ele>
        <time>2019-10-06T11:33:58Z</time>
      </trkpt>
      <trkpt lat="45.68366" lon="6.81754">
        <ele>2168</ele>
        <time>2019-10-06T11:33:59Z</time>
      </trkpt>
      <trkpt lat="45.68363" lon="6.81754">
        <ele>2168</ele>
        <time>2019-10-06T11:34:01Z</time>
      </trkpt>
      <trkpt lat="45.68361" lon="6.81754">
        <ele>2170</ele>
        <time>2019-10-06T11:34:04Z</time>
      </trkpt>
      <trkpt lat="45.68361" lon="6.81754">
        <ele>2171</ele>
        <time>2019-10-06T11:34:05Z</time>
      </trkpt>
      <trkpt lat="45.68359" lon="6.81753">
        <ele>2171</ele>
        <time>2019-10-06T11:34:06Z</time>
      </trkpt>
      <trkpt lat="45.68357" lon="6.81753">
        <ele>2171</ele>
        <time>2019-10-06T11:34:08Z</time>
      </trkpt>
      <trkpt lat="45.68354" lon="6.81752">
        <ele>2171</ele>
        <time>2019-10-06T11:34:10Z</time>
      </trkpt>
      <trkpt lat="45.68352" lon="6.81752">
        <ele>2171</ele>
        <time>2019-10-06T11:34:12Z</time>
      </trkpt>
      <trkpt lat="45.6835" lon="6.81752">
        <ele>2172</ele>
        <time>2019-10-06T11:34:14Z</time>
      </trkpt>
      <trkpt lat="45.6835" lon="6.81752">
        <ele>2172</ele>
        <time>2019-10-06T11:34:16Z</time>
      </trkpt>
      <trkpt lat="45.68347" lon="6.81753">
        <ele>2173</ele>
        <time>2019-10-06T11:34:17Z</time>
      </trkpt>
      <trkpt lat="45.68345" lon="6.81753">
        <ele>2174</ele>
        <time>2019-10-06T11:34:19Z</time>
      </trkpt>
      <trkpt lat="45.68342" lon="6.81754">
        <ele>2174</ele>
        <time>2019-10-06T11:34:21Z</time>
      </trkpt>
      <trkpt lat="45.68339" lon="6.81755">
        <ele>2174</ele>
        <time>2019-10-06T11:34:23Z</time>
      </trkpt>
      <trkpt lat="45.68336" lon="6.81756">
        <ele>2174</ele>
        <time>2019-10-06T11:34:25Z</time>
      </trkpt>
      <trkpt lat="45.68333" lon="6.81757">
        <ele>2173</ele>
        <time>2019-10-06T11:34:27Z</time>
      </trkpt>
      <trkpt lat="45.68331" lon="6.81757">
        <ele>2173</ele>
        <time>2019-10-06T11:34:29Z</time>
      </trkpt>
      <trkpt lat="45.68328" lon="6.81757">
        <ele>2173</ele>
        <time>2019-10-06T11:34:31Z</time>
      </trkpt>
      <trkpt lat="45.68325" lon="6.81759">
        <ele>2173</ele>
        <time>2019-10-06T11:34:33Z</time>
      </trkpt>
      <trkpt lat="45.68323" lon="6.8176">
        <ele>2173</ele>
        <time>2019-10-06T11:34:35Z</time>
      </trkpt>
      <trkpt lat="45.68321" lon="6.81761">
        <ele>2174</ele>
        <time>2019-10-06T11:34:37Z</time>
      </trkpt>
      <trkpt lat="45.68318" lon="6.81763">
        <ele>2174</ele>
        <time>2019-10-06T11:34:39Z</time>
      </trkpt>
      <trkpt lat="45.68316" lon="6.81764">
        <ele>2174</ele>
        <time>2019-10-06T11:34:41Z</time>
      </trkpt>
      <trkpt lat="45.68314" lon="6.81767">
        <ele>2175</ele>
        <time>2019-10-06T11:34:43Z</time>
      </trkpt>
      <trkpt lat="45.68312" lon="6.8177">
        <ele>2175</ele>
        <time>2019-10-06T11:34:45Z</time>
      </trkpt>
      <trkpt lat="45.68311" lon="6.81774">
        <ele>2175</ele>
        <time>2019-10-06T11:34:47Z</time>
      </trkpt>
      <trkpt lat="45.68311" lon="6.81774">
        <ele>2175</ele>
        <time>2019-10-06T11:34:50Z</time>
      </trkpt>
      <trkpt lat="45.68311" lon="6.81774">
        <ele>2175</ele>
        <time>2019-10-06T11:34:54Z</time>
      </trkpt>
      <trkpt lat="45.68311" lon="6.81774">
        <ele>2175</ele>
        <time>2019-10-06T11:34:58Z</time>
      </trkpt>
      <trkpt lat="45.6831" lon="6.81776">
        <ele>2175</ele>
        <time>2019-10-06T11:35:00Z</time>
      </trkpt>
      <trkpt lat="45.6831" lon="6.81779">
        <ele>2175</ele>
        <time>2019-10-06T11:35:02Z</time>
      </trkpt>
      <trkpt lat="45.68309" lon="6.81783">
        <ele>2175</ele>
        <time>2019-10-06T11:35:04Z</time>
      </trkpt>
      <trkpt lat="45.68309" lon="6.81787">
        <ele>2174</ele>
        <time>2019-10-06T11:35:06Z</time>
      </trkpt>
      <trkpt lat="45.68309" lon="6.81791">
        <ele>2174</ele>
        <time>2019-10-06T11:35:08Z</time>
      </trkpt>
      <trkpt lat="45.6831" lon="6.81795">
        <ele>2173</ele>
        <time>2019-10-06T11:35:10Z</time>
      </trkpt>
      <trkpt lat="45.6831" lon="6.81799">
        <ele>2173</ele>
        <time>2019-10-06T11:35:12Z</time>
      </trkpt>
      <trkpt lat="45.6831" lon="6.81803">
        <ele>2173</ele>
        <time>2019-10-06T11:35:14Z</time>
      </trkpt>
      <trkpt lat="45.6831" lon="6.81807">
        <ele>2173</ele>
        <time>2019-10-06T11:35:16Z</time>
      </trkpt>
      <trkpt lat="45.6831" lon="6.8181">
        <ele>2173</ele>
        <time>2019-10-06T11:35:18Z</time>
      </trkpt>
      <trkpt lat="45.68309" lon="6.81812">
        <ele>2173</ele>
        <time>2019-10-06T11:35:20Z</time>
      </trkpt>
      <trkpt lat="45.68307" lon="6.81812">
        <ele>2173</ele>
        <time>2019-10-06T11:35:22Z</time>
      </trkpt>
      <trkpt lat="45.68304" lon="6.81812">
        <ele>2173</ele>
        <time>2019-10-06T11:35:24Z</time>
      </trkpt>
      <trkpt lat="45.68301" lon="6.81812">
        <ele>2173</ele>
        <time>2019-10-06T11:35:26Z</time>
      </trkpt>
      <trkpt lat="45.68299" lon="6.81813">
        <ele>2173</ele>
        <time>2019-10-06T11:35:28Z</time>
      </trkpt>
      <trkpt lat="45.68297" lon="6.81814">
        <ele>2173</ele>
        <time>2019-10-06T11:35:30Z</time>
      </trkpt>
      <trkpt lat="45.68297" lon="6.81814">
        <ele>2174</ele>
        <time>2019-10-06T11:35:32Z</time>
      </trkpt>
      <trkpt lat="45.68295" lon="6.81814">
        <ele>2174</ele>
        <time>2019-10-06T11:35:33Z</time>
      </trkpt>
      <trkpt lat="45.68293" lon="6.81813">
        <ele>2175</ele>
        <time>2019-10-06T11:35:36Z</time>
      </trkpt>
      <trkpt lat="45.68293" lon="6.81813">
        <ele>2175</ele>
        <time>2019-10-06T11:35:38Z</time>
      </trkpt>
      <trkpt lat="45.68291" lon="6.81813">
        <ele>2176</ele>
        <time>2019-10-06T11:35:39Z</time>
      </trkpt>
      <trkpt lat="45.68289" lon="6.81815">
        <ele>2176</ele>
        <time>2019-10-06T11:35:41Z</time>
      </trkpt>
      <trkpt lat="45.68287" lon="6.81816">
        <ele>2177</ele>
        <time>2019-10-06T11:35:44Z</time>
      </trkpt>
      <trkpt lat="45.68287" lon="6.81816">
        <ele>2177</ele>
        <time>2019-10-06T11:35:45Z</time>
      </trkpt>
      <trkpt lat="45.68285" lon="6.81817">
        <ele>2178</ele>
        <time>2019-10-06T11:35:48Z</time>
      </trkpt>
      <trkpt lat="45.68285" lon="6.81817">
        <ele>2179</ele>
        <time>2019-10-06T11:35:50Z</time>
      </trkpt>
      <trkpt lat="45.68283" lon="6.81819">
        <ele>2179</ele>
        <time>2019-10-06T11:35:51Z</time>
      </trkpt>
      <trkpt lat="45.6828" lon="6.8182">
        <ele>2179</ele>
        <time>2019-10-06T11:35:53Z</time>
      </trkpt>
      <trkpt lat="45.68278" lon="6.8182">
        <ele>2179</ele>
        <time>2019-10-06T11:35:55Z</time>
      </trkpt>
      <trkpt lat="45.68276" lon="6.8182">
        <ele>2179</ele>
        <time>2019-10-06T11:35:57Z</time>
      </trkpt>
      <trkpt lat="45.68273" lon="6.8182">
        <ele>2179</ele>
        <time>2019-10-06T11:36:00Z</time>
      </trkpt>
      <trkpt lat="45.68273" lon="6.8182">
        <ele>2180</ele>
        <time>2019-10-06T11:36:01Z</time>
      </trkpt>
      <trkpt lat="45.68271" lon="6.8182">
        <ele>2180</ele>
        <time>2019-10-06T11:36:02Z</time>
      </trkpt>
      <trkpt lat="45.68269" lon="6.8182">
        <ele>2180</ele>
        <time>2019-10-06T11:36:04Z</time>
      </trkpt>
      <trkpt lat="45.68267" lon="6.81821">
        <ele>2181</ele>
        <time>2019-10-06T11:36:06Z</time>
      </trkpt>
      <trkpt lat="45.68267" lon="6.81821">
        <ele>2182</ele>
        <time>2019-10-06T11:36:08Z</time>
      </trkpt>
      <trkpt lat="45.68265" lon="6.81821">
        <ele>2182</ele>
        <time>2019-10-06T11:36:09Z</time>
      </trkpt>
      <trkpt lat="45.68263" lon="6.81822">
        <ele>2182</ele>
        <time>2019-10-06T11:36:11Z</time>
      </trkpt>
      <trkpt lat="45.6826" lon="6.81822">
        <ele>2182</ele>
        <time>2019-10-06T11:36:14Z</time>
      </trkpt>
      <trkpt lat="45.6826" lon="6.81822">
        <ele>2183</ele>
        <time>2019-10-06T11:36:15Z</time>
      </trkpt>
      <trkpt lat="45.68258" lon="6.81823">
        <ele>2183</ele>
        <time>2019-10-06T11:36:16Z</time>
      </trkpt>
      <trkpt lat="45.68256" lon="6.81824">
        <ele>2184</ele>
        <time>2019-10-06T11:36:19Z</time>
      </trkpt>
      <trkpt lat="45.68256" lon="6.81824">
        <ele>2184</ele>
        <time>2019-10-06T11:36:21Z</time>
      </trkpt>
      <trkpt lat="45.68254" lon="6.81825">
        <ele>2184</ele>
        <time>2019-10-06T11:36:22Z</time>
      </trkpt>
      <trkpt lat="45.68252" lon="6.81826">
        <ele>2185</ele>
        <time>2019-10-06T11:36:25Z</time>
      </trkpt>
      <trkpt lat="45.68252" lon="6.81826">
        <ele>2185</ele>
        <time>2019-10-06T11:36:27Z</time>
      </trkpt>
      <trkpt lat="45.6825" lon="6.81826">
        <ele>2185</ele>
        <time>2019-10-06T11:36:28Z</time>
      </trkpt>
      <trkpt lat="45.68248" lon="6.81827">
        <ele>2185</ele>
        <time>2019-10-06T11:36:31Z</time>
      </trkpt>
      <trkpt lat="45.68248" lon="6.81827">
        <ele>2185</ele>
        <time>2019-10-06T11:36:33Z</time>
      </trkpt>
      <trkpt lat="45.68245" lon="6.81826">
        <ele>2186</ele>
        <time>2019-10-06T11:36:35Z</time>
      </trkpt>
      <trkpt lat="45.68243" lon="6.81825">
        <ele>2187</ele>
        <time>2019-10-06T11:36:38Z</time>
      </trkpt>
      <trkpt lat="45.68243" lon="6.81825">
        <ele>2187</ele>
        <time>2019-10-06T11:36:39Z</time>
      </trkpt>
      <trkpt lat="45.68241" lon="6.81826">
        <ele>2187</ele>
        <time>2019-10-06T11:36:41Z</time>
      </trkpt>
      <trkpt lat="45.68239" lon="6.81826">
        <ele>2188</ele>
        <time>2019-10-06T11:36:44Z</time>
      </trkpt>
      <trkpt lat="45.68239" lon="6.81826">
        <ele>2189</ele>
        <time>2019-10-06T11:36:45Z</time>
      </trkpt>
      <trkpt lat="45.68236" lon="6.81825">
        <ele>2190</ele>
        <time>2019-10-06T11:36:47Z</time>
      </trkpt>
      <trkpt lat="45.68235" lon="6.81825">
        <ele>2190</ele>
        <time>2019-10-06T11:36:50Z</time>
      </trkpt>
      <trkpt lat="45.68235" lon="6.81825">
        <ele>2190</ele>
        <time>2019-10-06T11:36:51Z</time>
      </trkpt>
      <trkpt lat="45.68233" lon="6.81824">
        <ele>2191</ele>
        <time>2019-10-06T11:36:53Z</time>
      </trkpt>
      <trkpt lat="45.68231" lon="6.81823">
        <ele>2191</ele>
        <time>2019-10-06T11:36:56Z</time>
      </trkpt>
      <trkpt lat="45.68231" lon="6.81823">
        <ele>2191</ele>
        <time>2019-10-06T11:36:57Z</time>
      </trkpt>
      <trkpt lat="45.68229" lon="6.81825">
        <ele>2192</ele>
        <time>2019-10-06T11:36:59Z</time>
      </trkpt>
      <trkpt lat="45.68228" lon="6.81827">
        <ele>2192</ele>
        <time>2019-10-06T11:37:01Z</time>
      </trkpt>
      <trkpt lat="45.68228" lon="6.81827">
        <ele>2193</ele>
        <time>2019-10-06T11:37:03Z</time>
      </trkpt>
      <trkpt lat="45.68226" lon="6.8183">
        <ele>2193</ele>
        <time>2019-10-06T11:37:04Z</time>
      </trkpt>
      <trkpt lat="45.68224" lon="6.81831">
        <ele>2193</ele>
        <time>2019-10-06T11:37:07Z</time>
      </trkpt>
      <trkpt lat="45.68224" lon="6.81831">
        <ele>2194</ele>
        <time>2019-10-06T11:37:09Z</time>
      </trkpt>
      <trkpt lat="45.68222" lon="6.81832">
        <ele>2194</ele>
        <time>2019-10-06T11:37:10Z</time>
      </trkpt>
      <trkpt lat="45.6822" lon="6.81834">
        <ele>2194</ele>
        <time>2019-10-06T11:37:13Z</time>
      </trkpt>
      <trkpt lat="45.6822" lon="6.81834">
        <ele>2196</ele>
        <time>2019-10-06T11:37:15Z</time>
      </trkpt>
      <trkpt lat="45.68218" lon="6.81836">
        <ele>2197</ele>
        <time>2019-10-06T11:37:16Z</time>
      </trkpt>
      <trkpt lat="45.68216" lon="6.81836">
        <ele>2198</ele>
        <time>2019-10-06T11:37:19Z</time>
      </trkpt>
      <trkpt lat="45.68216" lon="6.81836">
        <ele>2198</ele>
        <time>2019-10-06T11:37:21Z</time>
      </trkpt>
      <trkpt lat="45.68214" lon="6.81839">
        <ele>2198</ele>
        <time>2019-10-06T11:37:22Z</time>
      </trkpt>
      <trkpt lat="45.68212" lon="6.81838">
        <ele>2198</ele>
        <time>2019-10-06T11:37:25Z</time>
      </trkpt>
      <trkpt lat="45.68212" lon="6.81838">
        <ele>2199</ele>
        <time>2019-10-06T11:37:27Z</time>
      </trkpt>
      <trkpt lat="45.6821" lon="6.81837">
        <ele>2200</ele>
        <time>2019-10-06T11:37:29Z</time>
      </trkpt>
      <trkpt lat="45.68208" lon="6.81836">
        <ele>2200</ele>
        <time>2019-10-06T11:37:32Z</time>
      </trkpt>
      <trkpt lat="45.68208" lon="6.81836">
        <ele>2200</ele>
        <time>2019-10-06T11:37:33Z</time>
      </trkpt>
      <trkpt lat="45.68206" lon="6.81837">
        <ele>2200</ele>
        <time>2019-10-06T11:37:35Z</time>
      </trkpt>
      <trkpt lat="45.68204" lon="6.81838">
        <ele>2201</ele>
        <time>2019-10-06T11:37:38Z</time>
      </trkpt>
      <trkpt lat="45.68204" lon="6.81838">
        <ele>2202</ele>
        <time>2019-10-06T11:37:39Z</time>
      </trkpt>
      <trkpt lat="45.68202" lon="6.81839">
        <ele>2202</ele>
        <time>2019-10-06T11:37:40Z</time>
      </trkpt>
      <trkpt lat="45.68199" lon="6.81841">
        <ele>2203</ele>
        <time>2019-10-06T11:37:43Z</time>
      </trkpt>
      <trkpt lat="45.68199" lon="6.81841">
        <ele>2203</ele>
        <time>2019-10-06T11:37:45Z</time>
      </trkpt>
      <trkpt lat="45.68197" lon="6.81843">
        <ele>2203</ele>
        <time>2019-10-06T11:37:46Z</time>
      </trkpt>
      <trkpt lat="45.68195" lon="6.81843">
        <ele>2204</ele>
        <time>2019-10-06T11:37:49Z</time>
      </trkpt>
      <trkpt lat="45.68195" lon="6.81843">
        <ele>2204</ele>
        <time>2019-10-06T11:37:51Z</time>
      </trkpt>
      <trkpt lat="45.68193" lon="6.81843">
        <ele>2204</ele>
        <time>2019-10-06T11:37:52Z</time>
      </trkpt>
      <trkpt lat="45.68191" lon="6.81845">
        <ele>2205</ele>
        <time>2019-10-06T11:37:55Z</time>
      </trkpt>
      <trkpt lat="45.68191" lon="6.81845">
        <ele>2205</ele>
        <time>2019-10-06T11:37:57Z</time>
      </trkpt>
      <trkpt lat="45.68189" lon="6.81846">
        <ele>2205</ele>
        <time>2019-10-06T11:37:58Z</time>
      </trkpt>
      <trkpt lat="45.68187" lon="6.81847">
        <ele>2205</ele>
        <time>2019-10-06T11:38:00Z</time>
      </trkpt>
      <trkpt lat="45.68185" lon="6.81848">
        <ele>2207</ele>
        <time>2019-10-06T11:38:03Z</time>
      </trkpt>
      <trkpt lat="45.68185" lon="6.81848">
        <ele>2207</ele>
        <time>2019-10-06T11:38:04Z</time>
      </trkpt>
      <trkpt lat="45.68182" lon="6.8185">
        <ele>2207</ele>
        <time>2019-10-06T11:38:06Z</time>
      </trkpt>
      <trkpt lat="45.6818" lon="6.81851">
        <ele>2208</ele>
        <time>2019-10-06T11:38:09Z</time>
      </trkpt>
      <trkpt lat="45.6818" lon="6.81851">
        <ele>2208</ele>
        <time>2019-10-06T11:38:10Z</time>
      </trkpt>
      <trkpt lat="45.68178" lon="6.81852">
        <ele>2208</ele>
        <time>2019-10-06T11:38:12Z</time>
      </trkpt>
      <trkpt lat="45.68176" lon="6.81853">
        <ele>2209</ele>
        <time>2019-10-06T11:38:15Z</time>
      </trkpt>
      <trkpt lat="45.68176" lon="6.81853">
        <ele>2209</ele>
        <time>2019-10-06T11:38:16Z</time>
      </trkpt>
      <trkpt lat="45.68175" lon="6.81855">
        <ele>2210</ele>
        <time>2019-10-06T11:38:18Z</time>
      </trkpt>
      <trkpt lat="45.68173" lon="6.81856">
        <ele>2210</ele>
        <time>2019-10-06T11:38:21Z</time>
      </trkpt>
      <trkpt lat="45.68173" lon="6.81856">
        <ele>2210</ele>
        <time>2019-10-06T11:38:22Z</time>
      </trkpt>
      <trkpt lat="45.68171" lon="6.81856">
        <ele>2211</ele>
        <time>2019-10-06T11:38:24Z</time>
      </trkpt>
      <trkpt lat="45.68168" lon="6.81856">
        <ele>2211</ele>
        <time>2019-10-06T11:38:27Z</time>
      </trkpt>
      <trkpt lat="45.68168" lon="6.81856">
        <ele>2211</ele>
        <time>2019-10-06T11:38:28Z</time>
      </trkpt>
      <trkpt lat="45.68166" lon="6.81856">
        <ele>2212</ele>
        <time>2019-10-06T11:38:30Z</time>
      </trkpt>
      <trkpt lat="45.68163" lon="6.81856">
        <ele>2212</ele>
        <time>2019-10-06T11:38:33Z</time>
      </trkpt>
      <trkpt lat="45.68163" lon="6.81856">
        <ele>2212</ele>
        <time>2019-10-06T11:38:34Z</time>
      </trkpt>
      <trkpt lat="45.68161" lon="6.81857">
        <ele>2213</ele>
        <time>2019-10-06T11:38:36Z</time>
      </trkpt>
      <trkpt lat="45.68159" lon="6.81857">
        <ele>2213</ele>
        <time>2019-10-06T11:38:39Z</time>
      </trkpt>
      <trkpt lat="45.68159" lon="6.81857">
        <ele>2213</ele>
        <time>2019-10-06T11:38:40Z</time>
      </trkpt>
      <trkpt lat="45.68157" lon="6.81858">
        <ele>2214</ele>
        <time>2019-10-06T11:38:42Z</time>
      </trkpt>
      <trkpt lat="45.68154" lon="6.81858">
        <ele>2214</ele>
        <time>2019-10-06T11:38:45Z</time>
      </trkpt>
      <trkpt lat="45.68154" lon="6.81858">
        <ele>2215</ele>
        <time>2019-10-06T11:38:46Z</time>
      </trkpt>
      <trkpt lat="45.68152" lon="6.81859">
        <ele>2215</ele>
        <time>2019-10-06T11:38:48Z</time>
      </trkpt>
      <trkpt lat="45.68151" lon="6.8186">
        <ele>2216</ele>
        <time>2019-10-06T11:38:51Z</time>
      </trkpt>
      <trkpt lat="45.68151" lon="6.8186">
        <ele>2216</ele>
        <time>2019-10-06T11:38:52Z</time>
      </trkpt>
      <trkpt lat="45.68149" lon="6.81862">
        <ele>2217</ele>
        <time>2019-10-06T11:38:54Z</time>
      </trkpt>
      <trkpt lat="45.68148" lon="6.81865">
        <ele>2217</ele>
        <time>2019-10-06T11:38:57Z</time>
      </trkpt>
      <trkpt lat="45.68148" lon="6.81865">
        <ele>2217</ele>
        <time>2019-10-06T11:38:58Z</time>
      </trkpt>
      <trkpt lat="45.68146" lon="6.81867">
        <ele>2217</ele>
        <time>2019-10-06T11:38:59Z</time>
      </trkpt>
      <trkpt lat="45.68144" lon="6.8187">
        <ele>2218</ele>
        <time>2019-10-06T11:39:02Z</time>
      </trkpt>
      <trkpt lat="45.68144" lon="6.8187">
        <ele>2218</ele>
        <time>2019-10-06T11:39:04Z</time>
      </trkpt>
      <trkpt lat="45.68143" lon="6.81873">
        <ele>2218</ele>
        <time>2019-10-06T11:39:05Z</time>
      </trkpt>
      <trkpt lat="45.68142" lon="6.81875">
        <ele>2219</ele>
        <time>2019-10-06T11:39:07Z</time>
      </trkpt>
      <trkpt lat="45.68141" lon="6.81879">
        <ele>2219</ele>
        <time>2019-10-06T11:39:10Z</time>
      </trkpt>
      <trkpt lat="45.68141" lon="6.81879">
        <ele>2219</ele>
        <time>2019-10-06T11:39:11Z</time>
      </trkpt>
      <trkpt lat="45.68139" lon="6.81881">
        <ele>2220</ele>
        <time>2019-10-06T11:39:13Z</time>
      </trkpt>
      <trkpt lat="45.68137" lon="6.81884">
        <ele>2222</ele>
        <time>2019-10-06T11:39:16Z</time>
      </trkpt>
      <trkpt lat="45.68137" lon="6.81884">
        <ele>2222</ele>
        <time>2019-10-06T11:39:17Z</time>
      </trkpt>
      <trkpt lat="45.68136" lon="6.81886">
        <ele>2223</ele>
        <time>2019-10-06T11:39:19Z</time>
      </trkpt>
      <trkpt lat="45.68135" lon="6.81888">
        <ele>2223</ele>
        <time>2019-10-06T11:39:21Z</time>
      </trkpt>
      <trkpt lat="45.68133" lon="6.81889">
        <ele>2223</ele>
        <time>2019-10-06T11:39:23Z</time>
      </trkpt>
      <trkpt lat="45.6813" lon="6.81891">
        <ele>2223</ele>
        <time>2019-10-06T11:39:25Z</time>
      </trkpt>
      <trkpt lat="45.68128" lon="6.81891">
        <ele>2223</ele>
        <time>2019-10-06T11:39:27Z</time>
      </trkpt>
      <trkpt lat="45.68125" lon="6.81893">
        <ele>2223</ele>
        <time>2019-10-06T11:39:29Z</time>
      </trkpt>
      <trkpt lat="45.68124" lon="6.81895">
        <ele>2223</ele>
        <time>2019-10-06T11:39:31Z</time>
      </trkpt>
      <trkpt lat="45.68122" lon="6.81898">
        <ele>2224</ele>
        <time>2019-10-06T11:39:33Z</time>
      </trkpt>
      <trkpt lat="45.68122" lon="6.81901">
        <ele>2224</ele>
        <time>2019-10-06T11:39:35Z</time>
      </trkpt>
      <trkpt lat="45.68121" lon="6.81903">
        <ele>2224</ele>
        <time>2019-10-06T11:39:37Z</time>
      </trkpt>
      <trkpt lat="45.68119" lon="6.81905">
        <ele>2225</ele>
        <time>2019-10-06T11:39:39Z</time>
      </trkpt>
      <trkpt lat="45.68118" lon="6.81908">
        <ele>2225</ele>
        <time>2019-10-06T11:39:41Z</time>
      </trkpt>
      <trkpt lat="45.68116" lon="6.81909">
        <ele>2226</ele>
        <time>2019-10-06T11:39:43Z</time>
      </trkpt>
      <trkpt lat="45.68114" lon="6.8191">
        <ele>2226</ele>
        <time>2019-10-06T11:39:46Z</time>
      </trkpt>
      <trkpt lat="45.68114" lon="6.8191">
        <ele>2226</ele>
        <time>2019-10-06T11:39:47Z</time>
      </trkpt>
      <trkpt lat="45.68113" lon="6.81913">
        <ele>2226</ele>
        <time>2019-10-06T11:39:48Z</time>
      </trkpt>
      <trkpt lat="45.68112" lon="6.81916">
        <ele>2227</ele>
        <time>2019-10-06T11:39:51Z</time>
      </trkpt>
      <trkpt lat="45.68112" lon="6.81916">
        <ele>2227</ele>
        <time>2019-10-06T11:39:53Z</time>
      </trkpt>
      <trkpt lat="45.68112" lon="6.8192">
        <ele>2227</ele>
        <time>2019-10-06T11:39:54Z</time>
      </trkpt>
      <trkpt lat="45.68111" lon="6.81923">
        <ele>2227</ele>
        <time>2019-10-06T11:39:56Z</time>
      </trkpt>
      <trkpt lat="45.6811" lon="6.81926">
        <ele>2228</ele>
        <time>2019-10-06T11:39:58Z</time>
      </trkpt>
      <trkpt lat="45.68108" lon="6.81927">
        <ele>2228</ele>
        <time>2019-10-06T11:40:00Z</time>
      </trkpt>
      <trkpt lat="45.68106" lon="6.81929">
        <ele>2228</ele>
        <time>2019-10-06T11:40:02Z</time>
      </trkpt>
      <trkpt lat="45.68104" lon="6.81931">
        <ele>2228</ele>
        <time>2019-10-06T11:40:04Z</time>
      </trkpt>
      <trkpt lat="45.68103" lon="6.81933">
        <ele>2229</ele>
        <time>2019-10-06T11:40:06Z</time>
      </trkpt>
      <trkpt lat="45.68102" lon="6.81936">
        <ele>2229</ele>
        <time>2019-10-06T11:40:08Z</time>
      </trkpt>
      <trkpt lat="45.68101" lon="6.81939">
        <ele>2229</ele>
        <time>2019-10-06T11:40:10Z</time>
      </trkpt>
      <trkpt lat="45.68101" lon="6.81942">
        <ele>2229</ele>
        <time>2019-10-06T11:40:12Z</time>
      </trkpt>
      <trkpt lat="45.68099" lon="6.81945">
        <ele>2229</ele>
        <time>2019-10-06T11:40:14Z</time>
      </trkpt>
      <trkpt lat="45.68097" lon="6.81947">
        <ele>2229</ele>
        <time>2019-10-06T11:40:16Z</time>
      </trkpt>
      <trkpt lat="45.68095" lon="6.81948">
        <ele>2229</ele>
        <time>2019-10-06T11:40:18Z</time>
      </trkpt>
      <trkpt lat="45.68093" lon="6.8195">
        <ele>2228</ele>
        <time>2019-10-06T11:40:20Z</time>
      </trkpt>
      <trkpt lat="45.68091" lon="6.81953">
        <ele>2229</ele>
        <time>2019-10-06T11:40:22Z</time>
      </trkpt>
      <trkpt lat="45.68089" lon="6.81956">
        <ele>2229</ele>
        <time>2019-10-06T11:40:24Z</time>
      </trkpt>
      <trkpt lat="45.68085" lon="6.81957">
        <ele>2229</ele>
        <time>2019-10-06T11:40:26Z</time>
      </trkpt>
      <trkpt lat="45.68083" lon="6.81958">
        <ele>2229</ele>
        <time>2019-10-06T11:40:27Z</time>
      </trkpt>
      <trkpt lat="45.68081" lon="6.81958">
        <ele>2229</ele>
        <time>2019-10-06T11:40:28Z</time>
      </trkpt>
      <trkpt lat="45.68078" lon="6.8196">
        <ele>2229</ele>
        <time>2019-10-06T11:40:30Z</time>
      </trkpt>
      <trkpt lat="45.68076" lon="6.81961">
        <ele>2229</ele>
        <time>2019-10-06T11:40:31Z</time>
      </trkpt>
      <trkpt lat="45.68074" lon="6.81962">
        <ele>2229</ele>
        <time>2019-10-06T11:40:32Z</time>
      </trkpt>
      <trkpt lat="45.68073" lon="6.81963">
        <ele>2229</ele>
        <time>2019-10-06T11:40:33Z</time>
      </trkpt>
      <trkpt lat="45.68071" lon="6.81964">
        <ele>2229</ele>
        <time>2019-10-06T11:40:34Z</time>
      </trkpt>
      <trkpt lat="45.68068" lon="6.81965">
        <ele>2229</ele>
        <time>2019-10-06T11:40:36Z</time>
      </trkpt>
      <trkpt lat="45.68064" lon="6.81966">
        <ele>2229</ele>
        <time>2019-10-06T11:40:38Z</time>
      </trkpt>
      <trkpt lat="45.68061" lon="6.81968">
        <ele>2229</ele>
        <time>2019-10-06T11:40:40Z</time>
      </trkpt>
      <trkpt lat="45.68059" lon="6.81968">
        <ele>2229</ele>
        <time>2019-10-06T11:40:41Z</time>
      </trkpt>
      <trkpt lat="45.68057" lon="6.81968">
        <ele>2229</ele>
        <time>2019-10-06T11:40:42Z</time>
      </trkpt>
      <trkpt lat="45.68055" lon="6.81969">
        <ele>2229</ele>
        <time>2019-10-06T11:40:43Z</time>
      </trkpt>
      <trkpt lat="45.68052" lon="6.81971">
        <ele>2229</ele>
        <time>2019-10-06T11:40:45Z</time>
      </trkpt>
      <trkpt lat="45.68049" lon="6.81974">
        <ele>2229</ele>
        <time>2019-10-06T11:40:47Z</time>
      </trkpt>
      <trkpt lat="45.68048" lon="6.81975">
        <ele>2229</ele>
        <time>2019-10-06T11:40:48Z</time>
      </trkpt>
      <trkpt lat="45.68046" lon="6.81979">
        <ele>2229</ele>
        <time>2019-10-06T11:40:50Z</time>
      </trkpt>
      <trkpt lat="45.68044" lon="6.81981">
        <ele>2230</ele>
        <time>2019-10-06T11:40:52Z</time>
      </trkpt>
      <trkpt lat="45.68044" lon="6.81981">
        <ele>2230</ele>
        <time>2019-10-06T11:40:54Z</time>
      </trkpt>
      <trkpt lat="45.68042" lon="6.8198">
        <ele>2230</ele>
        <time>2019-10-06T11:40:55Z</time>
      </trkpt>
      <trkpt lat="45.6804" lon="6.8198">
        <ele>2230</ele>
        <time>2019-10-06T11:40:57Z</time>
      </trkpt>
      <trkpt lat="45.68037" lon="6.8198">
        <ele>2230</ele>
        <time>2019-10-06T11:40:59Z</time>
      </trkpt>
      <trkpt lat="45.68035" lon="6.81981">
        <ele>2230</ele>
        <time>2019-10-06T11:41:01Z</time>
      </trkpt>
      <trkpt lat="45.68033" lon="6.81983">
        <ele>2230</ele>
        <time>2019-10-06T11:41:03Z</time>
      </trkpt>
      <trkpt lat="45.68031" lon="6.81984">
        <ele>2230</ele>
        <time>2019-10-06T11:41:05Z</time>
      </trkpt>
      <trkpt lat="45.68028" lon="6.81985">
        <ele>2230</ele>
        <time>2019-10-06T11:41:07Z</time>
      </trkpt>
      <trkpt lat="45.68026" lon="6.81987">
        <ele>2230</ele>
        <time>2019-10-06T11:41:09Z</time>
      </trkpt>
      <trkpt lat="45.68024" lon="6.81988">
        <ele>2230</ele>
        <time>2019-10-06T11:41:11Z</time>
      </trkpt>
      <trkpt lat="45.68022" lon="6.8199">
        <ele>2230</ele>
        <time>2019-10-06T11:41:13Z</time>
      </trkpt>
      <trkpt lat="45.6802" lon="6.81993">
        <ele>2231</ele>
        <time>2019-10-06T11:41:15Z</time>
      </trkpt>
      <trkpt lat="45.68018" lon="6.81996">
        <ele>2230</ele>
        <time>2019-10-06T11:41:17Z</time>
      </trkpt>
      <trkpt lat="45.68016" lon="6.82">
        <ele>2231</ele>
        <time>2019-10-06T11:41:19Z</time>
      </trkpt>
      <trkpt lat="45.68014" lon="6.82003">
        <ele>2231</ele>
        <time>2019-10-06T11:41:21Z</time>
      </trkpt>
      <trkpt lat="45.68013" lon="6.82006">
        <ele>2231</ele>
        <time>2019-10-06T11:41:23Z</time>
      </trkpt>
      <trkpt lat="45.68011" lon="6.82008">
        <ele>2231</ele>
        <time>2019-10-06T11:41:25Z</time>
      </trkpt>
      <trkpt lat="45.68009" lon="6.8201">
        <ele>2231</ele>
        <time>2019-10-06T11:41:27Z</time>
      </trkpt>
      <trkpt lat="45.68008" lon="6.82012">
        <ele>2231</ele>
        <time>2019-10-06T11:41:29Z</time>
      </trkpt>
      <trkpt lat="45.68006" lon="6.82013">
        <ele>2232</ele>
        <time>2019-10-06T11:41:31Z</time>
      </trkpt>
      <trkpt lat="45.68003" lon="6.82014">
        <ele>2232</ele>
        <time>2019-10-06T11:41:33Z</time>
      </trkpt>
      <trkpt lat="45.68001" lon="6.82014">
        <ele>2232</ele>
        <time>2019-10-06T11:41:35Z</time>
      </trkpt>
      <trkpt lat="45.67998" lon="6.82015">
        <ele>2232</ele>
        <time>2019-10-06T11:41:37Z</time>
      </trkpt>
      <trkpt lat="45.67995" lon="6.82016">
        <ele>2232</ele>
        <time>2019-10-06T11:41:39Z</time>
      </trkpt>
      <trkpt lat="45.67992" lon="6.82018">
        <ele>2232</ele>
        <time>2019-10-06T11:41:41Z</time>
      </trkpt>
      <trkpt lat="45.67989" lon="6.82019">
        <ele>2232</ele>
        <time>2019-10-06T11:41:43Z</time>
      </trkpt>
      <trkpt lat="45.67987" lon="6.82019">
        <ele>2232</ele>
        <time>2019-10-06T11:41:44Z</time>
      </trkpt>
      <trkpt lat="45.67983" lon="6.82019">
        <ele>2232</ele>
        <time>2019-10-06T11:41:46Z</time>
      </trkpt>
      <trkpt lat="45.67982" lon="6.8202">
        <ele>2232</ele>
        <time>2019-10-06T11:41:47Z</time>
      </trkpt>
      <trkpt lat="45.6798" lon="6.82021">
        <ele>2232</ele>
        <time>2019-10-06T11:41:48Z</time>
      </trkpt>
      <trkpt lat="45.67978" lon="6.82022">
        <ele>2232</ele>
        <time>2019-10-06T11:41:49Z</time>
      </trkpt>
      <trkpt lat="45.67976" lon="6.82024">
        <ele>2232</ele>
        <time>2019-10-06T11:41:50Z</time>
      </trkpt>
      <trkpt lat="45.67975" lon="6.82025">
        <ele>2232</ele>
        <time>2019-10-06T11:41:51Z</time>
      </trkpt>
      <trkpt lat="45.67973" lon="6.82025">
        <ele>2232</ele>
        <time>2019-10-06T11:41:52Z</time>
      </trkpt>
      <trkpt lat="45.67971" lon="6.82026">
        <ele>2232</ele>
        <time>2019-10-06T11:41:53Z</time>
      </trkpt>
      <trkpt lat="45.67969" lon="6.82027">
        <ele>2232</ele>
        <time>2019-10-06T11:41:54Z</time>
      </trkpt>
      <trkpt lat="45.67966" lon="6.82028">
        <ele>2232</ele>
        <time>2019-10-06T11:41:56Z</time>
      </trkpt>
      <trkpt lat="45.67964" lon="6.8203">
        <ele>2232</ele>
        <time>2019-10-06T11:41:58Z</time>
      </trkpt>
      <trkpt lat="45.6796" lon="6.82031">
        <ele>2232</ele>
        <time>2019-10-06T11:42:00Z</time>
      </trkpt>
      <trkpt lat="45.67959" lon="6.82032">
        <ele>2232</ele>
        <time>2019-10-06T11:42:01Z</time>
      </trkpt>
      <trkpt lat="45.67956" lon="6.82035">
        <ele>2233</ele>
        <time>2019-10-06T11:42:03Z</time>
      </trkpt>
      <trkpt lat="45.67954" lon="6.82036">
        <ele>2233</ele>
        <time>2019-10-06T11:42:04Z</time>
      </trkpt>
      <trkpt lat="45.67952" lon="6.82037">
        <ele>2233</ele>
        <time>2019-10-06T11:42:05Z</time>
      </trkpt>
      <trkpt lat="45.67951" lon="6.82038">
        <ele>2233</ele>
        <time>2019-10-06T11:42:06Z</time>
      </trkpt>
      <trkpt lat="45.67949" lon="6.82039">
        <ele>2233</ele>
        <time>2019-10-06T11:42:07Z</time>
      </trkpt>
      <trkpt lat="45.67946" lon="6.82041">
        <ele>2233</ele>
        <time>2019-10-06T11:42:09Z</time>
      </trkpt>
      <trkpt lat="45.67943" lon="6.82044">
        <ele>2233</ele>
        <time>2019-10-06T11:42:11Z</time>
      </trkpt>
      <trkpt lat="45.67941" lon="6.82047">
        <ele>2233</ele>
        <time>2019-10-06T11:42:13Z</time>
      </trkpt>
      <trkpt lat="45.67939" lon="6.82049">
        <ele>2233</ele>
        <time>2019-10-06T11:42:15Z</time>
      </trkpt>
      <trkpt lat="45.67936" lon="6.82048">
        <ele>2234</ele>
        <time>2019-10-06T11:42:17Z</time>
      </trkpt>
      <trkpt lat="45.67934" lon="6.82046">
        <ele>2234</ele>
        <time>2019-10-06T11:42:19Z</time>
      </trkpt>
      <trkpt lat="45.67932" lon="6.82045">
        <ele>2234</ele>
        <time>2019-10-06T11:42:20Z</time>
      </trkpt>
      <trkpt lat="45.67929" lon="6.82046">
        <ele>2234</ele>
        <time>2019-10-06T11:42:22Z</time>
      </trkpt>
      <trkpt lat="45.67925" lon="6.82046">
        <ele>2234</ele>
        <time>2019-10-06T11:42:24Z</time>
      </trkpt>
      <trkpt lat="45.67923" lon="6.82045">
        <ele>2234</ele>
        <time>2019-10-06T11:42:25Z</time>
      </trkpt>
      <trkpt lat="45.6792" lon="6.82046">
        <ele>2234</ele>
        <time>2019-10-06T11:42:27Z</time>
      </trkpt>
      <trkpt lat="45.67918" lon="6.82045">
        <ele>2234</ele>
        <time>2019-10-06T11:42:29Z</time>
      </trkpt>
      <trkpt lat="45.67915" lon="6.82044">
        <ele>2234</ele>
        <time>2019-10-06T11:42:31Z</time>
      </trkpt>
      <trkpt lat="45.67913" lon="6.82044">
        <ele>2234</ele>
        <time>2019-10-06T11:42:33Z</time>
      </trkpt>
      <trkpt lat="45.67911" lon="6.82046">
        <ele>2234</ele>
        <time>2019-10-06T11:42:35Z</time>
      </trkpt>
      <trkpt lat="45.6791" lon="6.82048">
        <ele>2234</ele>
        <time>2019-10-06T11:42:37Z</time>
      </trkpt>
      <trkpt lat="45.67907" lon="6.8205">
        <ele>2234</ele>
        <time>2019-10-06T11:42:39Z</time>
      </trkpt>
      <trkpt lat="45.67904" lon="6.82052">
        <ele>2235</ele>
        <time>2019-10-06T11:42:41Z</time>
      </trkpt>
      <trkpt lat="45.67902" lon="6.82053">
        <ele>2235</ele>
        <time>2019-10-06T11:42:43Z</time>
      </trkpt>
      <trkpt lat="45.67899" lon="6.82053">
        <ele>2235</ele>
        <time>2019-10-06T11:42:45Z</time>
      </trkpt>
      <trkpt lat="45.67896" lon="6.82054">
        <ele>2235</ele>
        <time>2019-10-06T11:42:47Z</time>
      </trkpt>
      <trkpt lat="45.67893" lon="6.82055">
        <ele>2235</ele>
        <time>2019-10-06T11:42:49Z</time>
      </trkpt>
      <trkpt lat="45.6789" lon="6.82056">
        <ele>2235</ele>
        <time>2019-10-06T11:42:51Z</time>
      </trkpt>
      <trkpt lat="45.67887" lon="6.82057">
        <ele>2235</ele>
        <time>2019-10-06T11:42:53Z</time>
      </trkpt>
      <trkpt lat="45.67885" lon="6.82059">
        <ele>2235</ele>
        <time>2019-10-06T11:42:55Z</time>
      </trkpt>
      <trkpt lat="45.67883" lon="6.82062">
        <ele>2235</ele>
        <time>2019-10-06T11:42:57Z</time>
      </trkpt>
      <trkpt lat="45.67881" lon="6.82065">
        <ele>2235</ele>
        <time>2019-10-06T11:42:59Z</time>
      </trkpt>
      <trkpt lat="45.67879" lon="6.82067">
        <ele>2236</ele>
        <time>2019-10-06T11:43:01Z</time>
      </trkpt>
      <trkpt lat="45.67877" lon="6.82069">
        <ele>2236</ele>
        <time>2019-10-06T11:43:03Z</time>
      </trkpt>
      <trkpt lat="45.67875" lon="6.82071">
        <ele>2236</ele>
        <time>2019-10-06T11:43:05Z</time>
      </trkpt>
      <trkpt lat="45.67872" lon="6.82074">
        <ele>2236</ele>
        <time>2019-10-06T11:43:07Z</time>
      </trkpt>
      <trkpt lat="45.67871" lon="6.82077">
        <ele>2236</ele>
        <time>2019-10-06T11:43:09Z</time>
      </trkpt>
      <trkpt lat="45.6787" lon="6.8208">
        <ele>2236</ele>
        <time>2019-10-06T11:43:11Z</time>
      </trkpt>
      <trkpt lat="45.67869" lon="6.82084">
        <ele>2236</ele>
        <time>2019-10-06T11:43:13Z</time>
      </trkpt>
      <trkpt lat="45.67868" lon="6.82087">
        <ele>2236</ele>
        <time>2019-10-06T11:43:15Z</time>
      </trkpt>
      <trkpt lat="45.67867" lon="6.82089">
        <ele>2237</ele>
        <time>2019-10-06T11:43:17Z</time>
      </trkpt>
      <trkpt lat="45.67867" lon="6.82089">
        <ele>2237</ele>
        <time>2019-10-06T11:43:19Z</time>
      </trkpt>
      <trkpt lat="45.67865" lon="6.82091">
        <ele>2237</ele>
        <time>2019-10-06T11:43:20Z</time>
      </trkpt>
      <trkpt lat="45.67863" lon="6.82093">
        <ele>2238</ele>
        <time>2019-10-06T11:43:22Z</time>
      </trkpt>
      <trkpt lat="45.67861" lon="6.82094">
        <ele>2238</ele>
        <time>2019-10-06T11:43:24Z</time>
      </trkpt>
      <trkpt lat="45.67859" lon="6.82096">
        <ele>2238</ele>
        <time>2019-10-06T11:43:26Z</time>
      </trkpt>
      <trkpt lat="45.67857" lon="6.82097">
        <ele>2238</ele>
        <time>2019-10-06T11:43:27Z</time>
      </trkpt>
      <trkpt lat="45.67855" lon="6.82097">
        <ele>2238</ele>
        <time>2019-10-06T11:43:28Z</time>
      </trkpt>
      <trkpt lat="45.67853" lon="6.82097">
        <ele>2238</ele>
        <time>2019-10-06T11:43:29Z</time>
      </trkpt>
      <trkpt lat="45.67851" lon="6.82097">
        <ele>2238</ele>
        <time>2019-10-06T11:43:30Z</time>
      </trkpt>
      <trkpt lat="45.67849" lon="6.82097">
        <ele>2237</ele>
        <time>2019-10-06T11:43:31Z</time>
      </trkpt>
      <trkpt lat="45.67847" lon="6.82096">
        <ele>2237</ele>
        <time>2019-10-06T11:43:32Z</time>
      </trkpt>
      <trkpt lat="45.67845" lon="6.82095">
        <ele>2237</ele>
        <time>2019-10-06T11:43:33Z</time>
      </trkpt>
      <trkpt lat="45.67842" lon="6.82093">
        <ele>2236</ele>
        <time>2019-10-06T11:43:35Z</time>
      </trkpt>
      <trkpt lat="45.6784" lon="6.82093">
        <ele>2236</ele>
        <time>2019-10-06T11:43:36Z</time>
      </trkpt>
      <trkpt lat="45.67837" lon="6.82094">
        <ele>2236</ele>
        <time>2019-10-06T11:43:38Z</time>
      </trkpt>
      <trkpt lat="45.67835" lon="6.82095">
        <ele>2236</ele>
        <time>2019-10-06T11:43:39Z</time>
      </trkpt>
      <trkpt lat="45.67833" lon="6.82095">
        <ele>2236</ele>
        <time>2019-10-06T11:43:40Z</time>
      </trkpt>
      <trkpt lat="45.67831" lon="6.82096">
        <ele>2236</ele>
        <time>2019-10-06T11:43:41Z</time>
      </trkpt>
      <trkpt lat="45.67828" lon="6.82096">
        <ele>2236</ele>
        <time>2019-10-06T11:43:42Z</time>
      </trkpt>
      <trkpt lat="45.67827" lon="6.82095">
        <ele>2235</ele>
        <time>2019-10-06T11:43:43Z</time>
      </trkpt>
      <trkpt lat="45.67823" lon="6.82094">
        <ele>2235</ele>
        <time>2019-10-06T11:43:45Z</time>
      </trkpt>
      <trkpt lat="45.67821" lon="6.82092">
        <ele>2234</ele>
        <time>2019-10-06T11:43:47Z</time>
      </trkpt>
      <trkpt lat="45.67819" lon="6.82093">
        <ele>2234</ele>
        <time>2019-10-06T11:43:48Z</time>
      </trkpt>
      <trkpt lat="45.67817" lon="6.82093">
        <ele>2234</ele>
        <time>2019-10-06T11:43:49Z</time>
      </trkpt>
      <trkpt lat="45.67815" lon="6.82093">
        <ele>2234</ele>
        <time>2019-10-06T11:43:50Z</time>
      </trkpt>
      <trkpt lat="45.67812" lon="6.82092">
        <ele>2233</ele>
        <time>2019-10-06T11:43:51Z</time>
      </trkpt>
      <trkpt lat="45.6781" lon="6.82092">
        <ele>2233</ele>
        <time>2019-10-06T11:43:52Z</time>
      </trkpt>
      <trkpt lat="45.67808" lon="6.82092">
        <ele>2233</ele>
        <time>2019-10-06T11:43:53Z</time>
      </trkpt>
      <trkpt lat="45.67806" lon="6.82093">
        <ele>2232</ele>
        <time>2019-10-06T11:43:54Z</time>
      </trkpt>
      <trkpt lat="45.67804" lon="6.82094">
        <ele>2233</ele>
        <time>2019-10-06T11:43:55Z</time>
      </trkpt>
      <trkpt lat="45.67802" lon="6.82096">
        <ele>2233</ele>
        <time>2019-10-06T11:43:56Z</time>
      </trkpt>
      <trkpt lat="45.678" lon="6.821">
        <ele>2233</ele>
        <time>2019-10-06T11:43:58Z</time>
      </trkpt>
      <trkpt lat="45.678" lon="6.82104">
        <ele>2233</ele>
        <time>2019-10-06T11:44:00Z</time>
      </trkpt>
      <trkpt lat="45.67801" lon="6.82108">
        <ele>2234</ele>
        <time>2019-10-06T11:44:02Z</time>
      </trkpt>
      <trkpt lat="45.678" lon="6.82111">
        <ele>2234</ele>
        <time>2019-10-06T11:44:04Z</time>
      </trkpt>
      <trkpt lat="45.67799" lon="6.82113">
        <ele>2235</ele>
        <time>2019-10-06T11:44:06Z</time>
      </trkpt>
      <trkpt lat="45.67797" lon="6.82115">
        <ele>2236</ele>
        <time>2019-10-06T11:44:08Z</time>
      </trkpt>
      <trkpt lat="45.67795" lon="6.82116">
        <ele>2235</ele>
        <time>2019-10-06T11:44:10Z</time>
      </trkpt>
      <trkpt lat="45.67792" lon="6.82118">
        <ele>2235</ele>
        <time>2019-10-06T11:44:12Z</time>
      </trkpt>
      <trkpt lat="45.6779" lon="6.82119">
        <ele>2235</ele>
        <time>2019-10-06T11:44:13Z</time>
      </trkpt>
      <trkpt lat="45.67787" lon="6.82117">
        <ele>2234</ele>
        <time>2019-10-06T11:44:15Z</time>
      </trkpt>
      <trkpt lat="45.67784" lon="6.82119">
        <ele>2234</ele>
        <time>2019-10-06T11:44:17Z</time>
      </trkpt>
      <trkpt lat="45.67781" lon="6.82122">
        <ele>2234</ele>
        <time>2019-10-06T11:44:19Z</time>
      </trkpt>
      <trkpt lat="45.6778" lon="6.82124">
        <ele>2234</ele>
        <time>2019-10-06T11:44:20Z</time>
      </trkpt>
      <trkpt lat="45.67777" lon="6.82127">
        <ele>2234</ele>
        <time>2019-10-06T11:44:22Z</time>
      </trkpt>
      <trkpt lat="45.67776" lon="6.8213">
        <ele>2235</ele>
        <time>2019-10-06T11:44:24Z</time>
      </trkpt>
      <trkpt lat="45.67774" lon="6.82132">
        <ele>2236</ele>
        <time>2019-10-06T11:44:26Z</time>
      </trkpt>
      <trkpt lat="45.67772" lon="6.82132">
        <ele>2236</ele>
        <time>2019-10-06T11:44:28Z</time>
      </trkpt>
      <trkpt lat="45.67771" lon="6.82134">
        <ele>2236</ele>
        <time>2019-10-06T11:44:30Z</time>
      </trkpt>
      <trkpt lat="45.67769" lon="6.82137">
        <ele>2236</ele>
        <time>2019-10-06T11:44:32Z</time>
      </trkpt>
      <trkpt lat="45.67768" lon="6.8214">
        <ele>2235</ele>
        <time>2019-10-06T11:44:34Z</time>
      </trkpt>
      <trkpt lat="45.67766" lon="6.82143">
        <ele>2235</ele>
        <time>2019-10-06T11:44:36Z</time>
      </trkpt>
      <trkpt lat="45.67764" lon="6.82144">
        <ele>2235</ele>
        <time>2019-10-06T11:44:38Z</time>
      </trkpt>
      <trkpt lat="45.67761" lon="6.82144">
        <ele>2235</ele>
        <time>2019-10-06T11:44:40Z</time>
      </trkpt>
      <trkpt lat="45.67759" lon="6.82145">
        <ele>2235</ele>
        <time>2019-10-06T11:44:42Z</time>
      </trkpt>
      <trkpt lat="45.67756" lon="6.82145">
        <ele>2235</ele>
        <time>2019-10-06T11:44:44Z</time>
      </trkpt>
      <trkpt lat="45.67752" lon="6.82144">
        <ele>2235</ele>
        <time>2019-10-06T11:44:46Z</time>
      </trkpt>
      <trkpt lat="45.67749" lon="6.82143">
        <ele>2235</ele>
        <time>2019-10-06T11:44:48Z</time>
      </trkpt>
      <trkpt lat="45.67746" lon="6.82143">
        <ele>2235</ele>
        <time>2019-10-06T11:44:50Z</time>
      </trkpt>
      <trkpt lat="45.67744" lon="6.82144">
        <ele>2234</ele>
        <time>2019-10-06T11:44:52Z</time>
      </trkpt>
      <trkpt lat="45.67742" lon="6.82147">
        <ele>2234</ele>
        <time>2019-10-06T11:44:54Z</time>
      </trkpt>
      <trkpt lat="45.67741" lon="6.82151">
        <ele>2234</ele>
        <time>2019-10-06T11:44:56Z</time>
      </trkpt>
      <trkpt lat="45.67739" lon="6.82153">
        <ele>2233</ele>
        <time>2019-10-06T11:44:58Z</time>
      </trkpt>
      <trkpt lat="45.67736" lon="6.82155">
        <ele>2233</ele>
        <time>2019-10-06T11:45:00Z</time>
      </trkpt>
      <trkpt lat="45.67734" lon="6.82155">
        <ele>2232</ele>
        <time>2019-10-06T11:45:02Z</time>
      </trkpt>
      <trkpt lat="45.67731" lon="6.82154">
        <ele>2231</ele>
        <time>2019-10-06T11:45:04Z</time>
      </trkpt>
      <trkpt lat="45.67731" lon="6.82154">
        <ele>2230</ele>
        <time>2019-10-06T11:45:06Z</time>
      </trkpt>
      <trkpt lat="45.67729" lon="6.82153">
        <ele>2230</ele>
        <time>2019-10-06T11:45:07Z</time>
      </trkpt>
      <trkpt lat="45.67727" lon="6.82154">
        <ele>2230</ele>
        <time>2019-10-06T11:45:09Z</time>
      </trkpt>
      <trkpt lat="45.67725" lon="6.82155">
        <ele>2230</ele>
        <time>2019-10-06T11:45:11Z</time>
      </trkpt>
      <trkpt lat="45.67722" lon="6.82156">
        <ele>2230</ele>
        <time>2019-10-06T11:45:13Z</time>
      </trkpt>
      <trkpt lat="45.6772" lon="6.82157">
        <ele>2230</ele>
        <time>2019-10-06T11:45:15Z</time>
      </trkpt>
      <trkpt lat="45.67718" lon="6.82159">
        <ele>2230</ele>
        <time>2019-10-06T11:45:16Z</time>
      </trkpt>
      <trkpt lat="45.67716" lon="6.8216">
        <ele>2228</ele>
        <time>2019-10-06T11:45:18Z</time>
      </trkpt>
      <trkpt lat="45.67718" lon="6.82164">
        <ele>2227</ele>
        <time>2019-10-06T11:45:20Z</time>
      </trkpt>
      <trkpt lat="45.67719" lon="6.82166">
        <ele>2227</ele>
        <time>2019-10-06T11:45:21Z</time>
      </trkpt>
      <trkpt lat="45.67721" lon="6.82167">
        <ele>2226</ele>
        <time>2019-10-06T11:45:22Z</time>
      </trkpt>
      <trkpt lat="45.67723" lon="6.82167">
        <ele>2225</ele>
        <time>2019-10-06T11:45:23Z</time>
      </trkpt>
      <trkpt lat="45.67725" lon="6.82168">
        <ele>2225</ele>
        <time>2019-10-06T11:45:24Z</time>
      </trkpt>
      <trkpt lat="45.67726" lon="6.8217">
        <ele>2225</ele>
        <time>2019-10-06T11:45:25Z</time>
      </trkpt>
      <trkpt lat="45.67728" lon="6.82172">
        <ele>2225</ele>
        <time>2019-10-06T11:45:26Z</time>
      </trkpt>
      <trkpt lat="45.6773" lon="6.82175">
        <ele>2225</ele>
        <time>2019-10-06T11:45:27Z</time>
      </trkpt>
      <trkpt lat="45.67731" lon="6.82178">
        <ele>2225</ele>
        <time>2019-10-06T11:45:28Z</time>
      </trkpt>
      <trkpt lat="45.67732" lon="6.82181">
        <ele>2224</ele>
        <time>2019-10-06T11:45:29Z</time>
      </trkpt>
      <trkpt lat="45.67733" lon="6.82185">
        <ele>2224</ele>
        <time>2019-10-06T11:45:30Z</time>
      </trkpt>
      <trkpt lat="45.67735" lon="6.82188">
        <ele>2224</ele>
        <time>2019-10-06T11:45:31Z</time>
      </trkpt>
      <trkpt lat="45.67736" lon="6.82191">
        <ele>2224</ele>
        <time>2019-10-06T11:45:32Z</time>
      </trkpt>
      <trkpt lat="45.67737" lon="6.82194">
        <ele>2224</ele>
        <time>2019-10-06T11:45:33Z</time>
      </trkpt>
      <trkpt lat="45.67738" lon="6.82197">
        <ele>2224</ele>
        <time>2019-10-06T11:45:34Z</time>
      </trkpt>
      <trkpt lat="45.6774" lon="6.822">
        <ele>2224</ele>
        <time>2019-10-06T11:45:35Z</time>
      </trkpt>
      <trkpt lat="45.6774" lon="6.82202">
        <ele>2224</ele>
        <time>2019-10-06T11:45:36Z</time>
      </trkpt>
      <trkpt lat="45.67741" lon="6.82205">
        <ele>2223</ele>
        <time>2019-10-06T11:45:37Z</time>
      </trkpt>
      <trkpt lat="45.67741" lon="6.82208">
        <ele>2223</ele>
        <time>2019-10-06T11:45:39Z</time>
      </trkpt>
      <trkpt lat="45.6774" lon="6.82211">
        <ele>2222</ele>
        <time>2019-10-06T11:45:42Z</time>
      </trkpt>
      <trkpt lat="45.6774" lon="6.82211">
        <ele>2222</ele>
        <time>2019-10-06T11:45:43Z</time>
      </trkpt>
      <trkpt lat="45.67739" lon="6.82213">
        <ele>2222</ele>
        <time>2019-10-06T11:45:45Z</time>
      </trkpt>
      <trkpt lat="45.67737" lon="6.82215">
        <ele>2222</ele>
        <time>2019-10-06T11:45:48Z</time>
      </trkpt>
      <trkpt lat="45.67737" lon="6.82215">
        <ele>2222</ele>
        <time>2019-10-06T11:45:49Z</time>
      </trkpt>
      <trkpt lat="45.67735" lon="6.82217">
        <ele>2220</ele>
        <time>2019-10-06T11:45:51Z</time>
      </trkpt>
      <trkpt lat="45.67733" lon="6.82218">
        <ele>2219</ele>
        <time>2019-10-06T11:45:53Z</time>
      </trkpt>
      <trkpt lat="45.67731" lon="6.82219">
        <ele>2219</ele>
        <time>2019-10-06T11:45:54Z</time>
      </trkpt>
      <trkpt lat="45.67729" lon="6.82221">
        <ele>2219</ele>
        <time>2019-10-06T11:45:55Z</time>
      </trkpt>
      <trkpt lat="45.67727" lon="6.82222">
        <ele>2219</ele>
        <time>2019-10-06T11:45:56Z</time>
      </trkpt>
      <trkpt lat="45.67725" lon="6.82222">
        <ele>2219</ele>
        <time>2019-10-06T11:45:57Z</time>
      </trkpt>
      <trkpt lat="45.67723" lon="6.82223">
        <ele>2218</ele>
        <time>2019-10-06T11:45:58Z</time>
      </trkpt>
      <trkpt lat="45.6772" lon="6.82224">
        <ele>2216</ele>
        <time>2019-10-06T11:46:00Z</time>
      </trkpt>
      <trkpt lat="45.67717" lon="6.82223">
        <ele>2217</ele>
        <time>2019-10-06T11:46:02Z</time>
      </trkpt>
      <trkpt lat="45.67715" lon="6.82225">
        <ele>2217</ele>
        <time>2019-10-06T11:46:04Z</time>
      </trkpt>
      <trkpt lat="45.67713" lon="6.82226">
        <ele>2217</ele>
        <time>2019-10-06T11:46:05Z</time>
      </trkpt>
      <trkpt lat="45.67711" lon="6.82226">
        <ele>2216</ele>
        <time>2019-10-06T11:46:06Z</time>
      </trkpt>
      <trkpt lat="45.67708" lon="6.82225">
        <ele>2214</ele>
        <time>2019-10-06T11:46:08Z</time>
      </trkpt>
      <trkpt lat="45.67705" lon="6.82226">
        <ele>2213</ele>
        <time>2019-10-06T11:46:10Z</time>
      </trkpt>
      <trkpt lat="45.67705" lon="6.8223">
        <ele>2212</ele>
        <time>2019-10-06T11:46:12Z</time>
      </trkpt>
      <trkpt lat="45.67702" lon="6.82232">
        <ele>2210</ele>
        <time>2019-10-06T11:46:14Z</time>
      </trkpt>
      <trkpt lat="45.677" lon="6.82233">
        <ele>2209</ele>
        <time>2019-10-06T11:46:15Z</time>
      </trkpt>
      <trkpt lat="45.67696" lon="6.82233">
        <ele>2209</ele>
        <time>2019-10-06T11:46:17Z</time>
      </trkpt>
      <trkpt lat="45.67694" lon="6.82233">
        <ele>2207</ele>
        <time>2019-10-06T11:46:19Z</time>
      </trkpt>
      <trkpt lat="45.67691" lon="6.82235">
        <ele>2207</ele>
        <time>2019-10-06T11:46:21Z</time>
      </trkpt>
      <trkpt lat="45.67688" lon="6.82238">
        <ele>2205</ele>
        <time>2019-10-06T11:46:23Z</time>
      </trkpt>
      <trkpt lat="45.67686" lon="6.82239">
        <ele>2205</ele>
        <time>2019-10-06T11:46:24Z</time>
      </trkpt>
      <trkpt lat="45.67684" lon="6.82241">
        <ele>2205</ele>
        <time>2019-10-06T11:46:25Z</time>
      </trkpt>
      <trkpt lat="45.67682" lon="6.82241">
        <ele>2205</ele>
        <time>2019-10-06T11:46:26Z</time>
      </trkpt>
      <trkpt lat="45.67679" lon="6.82242">
        <ele>2204</ele>
        <time>2019-10-06T11:46:27Z</time>
      </trkpt>
      <trkpt lat="45.67677" lon="6.82243">
        <ele>2204</ele>
        <time>2019-10-06T11:46:28Z</time>
      </trkpt>
      <trkpt lat="45.67674" lon="6.82245">
        <ele>2204</ele>
        <time>2019-10-06T11:46:29Z</time>
      </trkpt>
      <trkpt lat="45.67672" lon="6.82247">
        <ele>2204</ele>
        <time>2019-10-06T11:46:30Z</time>
      </trkpt>
      <trkpt lat="45.6767" lon="6.82248">
        <ele>2204</ele>
        <time>2019-10-06T11:46:31Z</time>
      </trkpt>
      <trkpt lat="45.67668" lon="6.8225">
        <ele>2203</ele>
        <time>2019-10-06T11:46:32Z</time>
      </trkpt>
      <trkpt lat="45.67666" lon="6.82252">
        <ele>2202</ele>
        <time>2019-10-06T11:46:33Z</time>
      </trkpt>
      <trkpt lat="45.67664" lon="6.82253">
        <ele>2202</ele>
        <time>2019-10-06T11:46:34Z</time>
      </trkpt>
      <trkpt lat="45.67663" lon="6.82255">
        <ele>2202</ele>
        <time>2019-10-06T11:46:35Z</time>
      </trkpt>
      <trkpt lat="45.6766" lon="6.82257">
        <ele>2202</ele>
        <time>2019-10-06T11:46:37Z</time>
      </trkpt>
      <trkpt lat="45.67657" lon="6.8226">
        <ele>2202</ele>
        <time>2019-10-06T11:46:39Z</time>
      </trkpt>
      <trkpt lat="45.67655" lon="6.82262">
        <ele>2202</ele>
        <time>2019-10-06T11:46:40Z</time>
      </trkpt>
      <trkpt lat="45.67654" lon="6.82264">
        <ele>2201</ele>
        <time>2019-10-06T11:46:41Z</time>
      </trkpt>
      <trkpt lat="45.67652" lon="6.82266">
        <ele>2201</ele>
        <time>2019-10-06T11:46:42Z</time>
      </trkpt>
      <trkpt lat="45.6765" lon="6.82267">
        <ele>2201</ele>
        <time>2019-10-06T11:46:43Z</time>
      </trkpt>
      <trkpt lat="45.67649" lon="6.82269">
        <ele>2201</ele>
        <time>2019-10-06T11:46:44Z</time>
      </trkpt>
      <trkpt lat="45.67647" lon="6.82271">
        <ele>2201</ele>
        <time>2019-10-06T11:46:45Z</time>
      </trkpt>
      <trkpt lat="45.67646" lon="6.82273">
        <ele>2201</ele>
        <time>2019-10-06T11:46:46Z</time>
      </trkpt>
      <trkpt lat="45.67645" lon="6.82275">
        <ele>2201</ele>
        <time>2019-10-06T11:46:47Z</time>
      </trkpt>
      <trkpt lat="45.67644" lon="6.82278">
        <ele>2201</ele>
        <time>2019-10-06T11:46:48Z</time>
      </trkpt>
      <trkpt lat="45.67643" lon="6.8228">
        <ele>2201</ele>
        <time>2019-10-06T11:46:49Z</time>
      </trkpt>
      <trkpt lat="45.67642" lon="6.82283">
        <ele>2201</ele>
        <time>2019-10-06T11:46:50Z</time>
      </trkpt>
      <trkpt lat="45.67642" lon="6.82285">
        <ele>2201</ele>
        <time>2019-10-06T11:46:51Z</time>
      </trkpt>
      <trkpt lat="45.67641" lon="6.82287">
        <ele>2201</ele>
        <time>2019-10-06T11:46:52Z</time>
      </trkpt>
      <trkpt lat="45.6764" lon="6.8229">
        <ele>2201</ele>
        <time>2019-10-06T11:46:53Z</time>
      </trkpt>
      <trkpt lat="45.67639" lon="6.82293">
        <ele>2201</ele>
        <time>2019-10-06T11:46:54Z</time>
      </trkpt>
      <trkpt lat="45.67639" lon="6.82295">
        <ele>2201</ele>
        <time>2019-10-06T11:46:55Z</time>
      </trkpt>
      <trkpt lat="45.67638" lon="6.823">
        <ele>2201</ele>
        <time>2019-10-06T11:46:57Z</time>
      </trkpt>
      <trkpt lat="45.67636" lon="6.82302">
        <ele>2201</ele>
        <time>2019-10-06T11:46:58Z</time>
      </trkpt>
      <trkpt lat="45.67635" lon="6.82304">
        <ele>2201</ele>
        <time>2019-10-06T11:46:59Z</time>
      </trkpt>
      <trkpt lat="45.67633" lon="6.82306">
        <ele>2201</ele>
        <time>2019-10-06T11:47:00Z</time>
      </trkpt>
      <trkpt lat="45.67632" lon="6.82308">
        <ele>2201</ele>
        <time>2019-10-06T11:47:01Z</time>
      </trkpt>
      <trkpt lat="45.67631" lon="6.8231">
        <ele>2200</ele>
        <time>2019-10-06T11:47:03Z</time>
      </trkpt>
      <trkpt lat="45.67629" lon="6.82313">
        <ele>2200</ele>
        <time>2019-10-06T11:47:05Z</time>
      </trkpt>
      <trkpt lat="45.67628" lon="6.82315">
        <ele>2201</ele>
        <time>2019-10-06T11:47:07Z</time>
      </trkpt>
      <trkpt lat="45.67626" lon="6.82317">
        <ele>2200</ele>
        <time>2019-10-06T11:47:09Z</time>
      </trkpt>
      <trkpt lat="45.67625" lon="6.8232">
        <ele>2200</ele>
        <time>2019-10-06T11:47:11Z</time>
      </trkpt>
      <trkpt lat="45.67624" lon="6.82323">
        <ele>2200</ele>
        <time>2019-10-06T11:47:13Z</time>
      </trkpt>
      <trkpt lat="45.67622" lon="6.82324">
        <ele>2200</ele>
        <time>2019-10-06T11:47:15Z</time>
      </trkpt>
      <trkpt lat="45.6762" lon="6.82325">
        <ele>2200</ele>
        <time>2019-10-06T11:47:17Z</time>
      </trkpt>
      <trkpt lat="45.67618" lon="6.82326">
        <ele>2200</ele>
        <time>2019-10-06T11:47:19Z</time>
      </trkpt>
      <trkpt lat="45.67616" lon="6.82329">
        <ele>2199</ele>
        <time>2019-10-06T11:47:22Z</time>
      </trkpt>
      <trkpt lat="45.67616" lon="6.82329">
        <ele>2199</ele>
        <time>2019-10-06T11:47:23Z</time>
      </trkpt>
      <trkpt lat="45.67615" lon="6.82332">
        <ele>2199</ele>
        <time>2019-10-06T11:47:24Z</time>
      </trkpt>
      <trkpt lat="45.67614" lon="6.82334">
        <ele>2199</ele>
        <time>2019-10-06T11:47:26Z</time>
      </trkpt>
      <trkpt lat="45.67612" lon="6.82335">
        <ele>2199</ele>
        <time>2019-10-06T11:47:28Z</time>
      </trkpt>
      <trkpt lat="45.67612" lon="6.82335">
        <ele>2198</ele>
        <time>2019-10-06T11:47:30Z</time>
      </trkpt>
      <trkpt lat="45.6761" lon="6.82338">
        <ele>2199</ele>
        <time>2019-10-06T11:47:31Z</time>
      </trkpt>
      <trkpt lat="45.67609" lon="6.82341">
        <ele>2199</ele>
        <time>2019-10-06T11:47:34Z</time>
      </trkpt>
      <trkpt lat="45.67609" lon="6.82341">
        <ele>2199</ele>
        <time>2019-10-06T11:47:36Z</time>
      </trkpt>
      <trkpt lat="45.67607" lon="6.82344">
        <ele>2199</ele>
        <time>2019-10-06T11:47:37Z</time>
      </trkpt>
      <trkpt lat="45.67605" lon="6.82346">
        <ele>2199</ele>
        <time>2019-10-06T11:47:39Z</time>
      </trkpt>
      <trkpt lat="45.67603" lon="6.82347">
        <ele>2199</ele>
        <time>2019-10-06T11:47:41Z</time>
      </trkpt>
      <trkpt lat="45.67601" lon="6.82349">
        <ele>2199</ele>
        <time>2019-10-06T11:47:43Z</time>
      </trkpt>
      <trkpt lat="45.67599" lon="6.8235">
        <ele>2199</ele>
        <time>2019-10-06T11:47:45Z</time>
      </trkpt>
      <trkpt lat="45.67596" lon="6.8235">
        <ele>2199</ele>
        <time>2019-10-06T11:47:47Z</time>
      </trkpt>
      <trkpt lat="45.67594" lon="6.82351">
        <ele>2199</ele>
        <time>2019-10-06T11:47:49Z</time>
      </trkpt>
      <trkpt lat="45.67594" lon="6.82351">
        <ele>2200</ele>
        <time>2019-10-06T11:47:51Z</time>
      </trkpt>
      <trkpt lat="45.67591" lon="6.82352">
        <ele>2200</ele>
        <time>2019-10-06T11:47:52Z</time>
      </trkpt>
      <trkpt lat="45.67589" lon="6.82352">
        <ele>2200</ele>
        <time>2019-10-06T11:47:54Z</time>
      </trkpt>
      <trkpt lat="45.67587" lon="6.82354">
        <ele>2200</ele>
        <time>2019-10-06T11:47:56Z</time>
      </trkpt>
      <trkpt lat="45.67585" lon="6.82355">
        <ele>2200</ele>
        <time>2019-10-06T11:47:58Z</time>
      </trkpt>
      <trkpt lat="45.67583" lon="6.82356">
        <ele>2200</ele>
        <time>2019-10-06T11:48:00Z</time>
      </trkpt>
      <trkpt lat="45.67581" lon="6.82358">
        <ele>2200</ele>
        <time>2019-10-06T11:48:02Z</time>
      </trkpt>
      <trkpt lat="45.67579" lon="6.82359">
        <ele>2200</ele>
        <time>2019-10-06T11:48:04Z</time>
      </trkpt>
      <trkpt lat="45.67577" lon="6.8236">
        <ele>2200</ele>
        <time>2019-10-06T11:48:06Z</time>
      </trkpt>
      <trkpt lat="45.67575" lon="6.82361">
        <ele>2200</ele>
        <time>2019-10-06T11:48:08Z</time>
      </trkpt>
      <trkpt lat="45.67572" lon="6.82362">
        <ele>2200</ele>
        <time>2019-10-06T11:48:10Z</time>
      </trkpt>
      <trkpt lat="45.67571" lon="6.82363">
        <ele>2200</ele>
        <time>2019-10-06T11:48:12Z</time>
      </trkpt>
      <trkpt lat="45.67568" lon="6.82364">
        <ele>2200</ele>
        <time>2019-10-06T11:48:14Z</time>
      </trkpt>
      <trkpt lat="45.67566" lon="6.82365">
        <ele>2200</ele>
        <time>2019-10-06T11:48:16Z</time>
      </trkpt>
      <trkpt lat="45.67563" lon="6.82366">
        <ele>2200</ele>
        <time>2019-10-06T11:48:19Z</time>
      </trkpt>
      <trkpt lat="45.67561" lon="6.82368">
        <ele>2200</ele>
        <time>2019-10-06T11:48:21Z</time>
      </trkpt>
      <trkpt lat="45.67559" lon="6.82369">
        <ele>2200</ele>
        <time>2019-10-06T11:48:23Z</time>
      </trkpt>
      <trkpt lat="45.67557" lon="6.8237">
        <ele>2200</ele>
        <time>2019-10-06T11:48:25Z</time>
      </trkpt>
      <trkpt lat="45.67555" lon="6.82371">
        <ele>2200</ele>
        <time>2019-10-06T11:48:27Z</time>
      </trkpt>
      <trkpt lat="45.67552" lon="6.82372">
        <ele>2200</ele>
        <time>2019-10-06T11:48:29Z</time>
      </trkpt>
      <trkpt lat="45.6755" lon="6.82373">
        <ele>2200</ele>
        <time>2019-10-06T11:48:31Z</time>
      </trkpt>
      <trkpt lat="45.67548" lon="6.82374">
        <ele>2200</ele>
        <time>2019-10-06T11:48:33Z</time>
      </trkpt>
      <trkpt lat="45.67546" lon="6.82375">
        <ele>2200</ele>
        <time>2019-10-06T11:48:35Z</time>
      </trkpt>
      <trkpt lat="45.67543" lon="6.82376">
        <ele>2200</ele>
        <time>2019-10-06T11:48:37Z</time>
      </trkpt>
      <trkpt lat="45.67541" lon="6.82378">
        <ele>2200</ele>
        <time>2019-10-06T11:48:39Z</time>
      </trkpt>
      <trkpt lat="45.67538" lon="6.82378">
        <ele>2201</ele>
        <time>2019-10-06T11:48:41Z</time>
      </trkpt>
      <trkpt lat="45.67535" lon="6.82378">
        <ele>2201</ele>
        <time>2019-10-06T11:48:43Z</time>
      </trkpt>
      <trkpt lat="45.67533" lon="6.82379">
        <ele>2201</ele>
        <time>2019-10-06T11:48:45Z</time>
      </trkpt>
      <trkpt lat="45.67531" lon="6.82379">
        <ele>2201</ele>
        <time>2019-10-06T11:48:47Z</time>
      </trkpt>
      <trkpt lat="45.67529" lon="6.82379">
        <ele>2201</ele>
        <time>2019-10-06T11:48:49Z</time>
      </trkpt>
      <trkpt lat="45.67526" lon="6.8238">
        <ele>2201</ele>
        <time>2019-10-06T11:48:51Z</time>
      </trkpt>
      <trkpt lat="45.67524" lon="6.82381">
        <ele>2201</ele>
        <time>2019-10-06T11:48:53Z</time>
      </trkpt>
      <trkpt lat="45.67521" lon="6.82382">
        <ele>2201</ele>
        <time>2019-10-06T11:48:55Z</time>
      </trkpt>
      <trkpt lat="45.67519" lon="6.82383">
        <ele>2201</ele>
        <time>2019-10-06T11:48:57Z</time>
      </trkpt>
      <trkpt lat="45.67517" lon="6.82383">
        <ele>2201</ele>
        <time>2019-10-06T11:48:59Z</time>
      </trkpt>
      <trkpt lat="45.67515" lon="6.82383">
        <ele>2201</ele>
        <time>2019-10-06T11:49:01Z</time>
      </trkpt>
      <trkpt lat="45.67513" lon="6.82384">
        <ele>2201</ele>
        <time>2019-10-06T11:49:03Z</time>
      </trkpt>
      <trkpt lat="45.67511" lon="6.82385">
        <ele>2200</ele>
        <time>2019-10-06T11:49:06Z</time>
      </trkpt>
      <trkpt lat="45.67511" lon="6.82385">
        <ele>2200</ele>
        <time>2019-10-06T11:49:07Z</time>
      </trkpt>
      <trkpt lat="45.67508" lon="6.82386">
        <ele>2200</ele>
        <time>2019-10-06T11:49:09Z</time>
      </trkpt>
      <trkpt lat="45.67505" lon="6.82387">
        <ele>2201</ele>
        <time>2019-10-06T11:49:11Z</time>
      </trkpt>
      <trkpt lat="45.67503" lon="6.82388">
        <ele>2201</ele>
        <time>2019-10-06T11:49:13Z</time>
      </trkpt>
      <trkpt lat="45.675" lon="6.82389">
        <ele>2201</ele>
        <time>2019-10-06T11:49:15Z</time>
      </trkpt>
      <trkpt lat="45.67497" lon="6.8239">
        <ele>2201</ele>
        <time>2019-10-06T11:49:17Z</time>
      </trkpt>
      <trkpt lat="45.67494" lon="6.82391">
        <ele>2200</ele>
        <time>2019-10-06T11:49:19Z</time>
      </trkpt>
      <trkpt lat="45.67492" lon="6.82392">
        <ele>2201</ele>
        <time>2019-10-06T11:49:21Z</time>
      </trkpt>
      <trkpt lat="45.6749" lon="6.82392">
        <ele>2201</ele>
        <time>2019-10-06T11:49:23Z</time>
      </trkpt>
      <trkpt lat="45.67488" lon="6.82392">
        <ele>2201</ele>
        <time>2019-10-06T11:49:25Z</time>
      </trkpt>
      <trkpt lat="45.67485" lon="6.82393">
        <ele>2201</ele>
        <time>2019-10-06T11:49:27Z</time>
      </trkpt>
      <trkpt lat="45.67482" lon="6.82393">
        <ele>2202</ele>
        <time>2019-10-06T11:49:29Z</time>
      </trkpt>
      <trkpt lat="45.6748" lon="6.82393">
        <ele>2201</ele>
        <time>2019-10-06T11:49:30Z</time>
      </trkpt>
      <trkpt lat="45.67478" lon="6.82393">
        <ele>2201</ele>
        <time>2019-10-06T11:49:31Z</time>
      </trkpt>
      <trkpt lat="45.67476" lon="6.82393">
        <ele>2201</ele>
        <time>2019-10-06T11:49:32Z</time>
      </trkpt>
      <trkpt lat="45.67474" lon="6.82393">
        <ele>2201</ele>
        <time>2019-10-06T11:49:33Z</time>
      </trkpt>
      <trkpt lat="45.67472" lon="6.82394">
        <ele>2201</ele>
        <time>2019-10-06T11:49:34Z</time>
      </trkpt>
      <trkpt lat="45.6747" lon="6.82395">
        <ele>2201</ele>
        <time>2019-10-06T11:49:35Z</time>
      </trkpt>
      <trkpt lat="45.67468" lon="6.82395">
        <ele>2201</ele>
        <time>2019-10-06T11:49:36Z</time>
      </trkpt>
      <trkpt lat="45.67465" lon="6.82396">
        <ele>2201</ele>
        <time>2019-10-06T11:49:38Z</time>
      </trkpt>
      <trkpt lat="45.67463" lon="6.82397">
        <ele>2201</ele>
        <time>2019-10-06T11:49:39Z</time>
      </trkpt>
      <trkpt lat="45.67461" lon="6.82397">
        <ele>2201</ele>
        <time>2019-10-06T11:49:40Z</time>
      </trkpt>
      <trkpt lat="45.67459" lon="6.82397">
        <ele>2201</ele>
        <time>2019-10-06T11:49:41Z</time>
      </trkpt>
      <trkpt lat="45.67457" lon="6.82397">
        <ele>2201</ele>
        <time>2019-10-06T11:49:42Z</time>
      </trkpt>
      <trkpt lat="45.67455" lon="6.82397">
        <ele>2201</ele>
        <time>2019-10-06T11:49:43Z</time>
      </trkpt>
      <trkpt lat="45.67453" lon="6.82398">
        <ele>2201</ele>
        <time>2019-10-06T11:49:44Z</time>
      </trkpt>
      <trkpt lat="45.67452" lon="6.82398">
        <ele>2201</ele>
        <time>2019-10-06T11:49:45Z</time>
      </trkpt>
      <trkpt lat="45.6745" lon="6.82399">
        <ele>2201</ele>
        <time>2019-10-06T11:49:46Z</time>
      </trkpt>
      <trkpt lat="45.67448" lon="6.82399">
        <ele>2201</ele>
        <time>2019-10-06T11:49:47Z</time>
      </trkpt>
      <trkpt lat="45.67446" lon="6.824">
        <ele>2201</ele>
        <time>2019-10-06T11:49:48Z</time>
      </trkpt>
      <trkpt lat="45.67444" lon="6.82401">
        <ele>2201</ele>
        <time>2019-10-06T11:49:49Z</time>
      </trkpt>
      <trkpt lat="45.67441" lon="6.82401">
        <ele>2201</ele>
        <time>2019-10-06T11:49:51Z</time>
      </trkpt>
      <trkpt lat="45.67437" lon="6.82402">
        <ele>2201</ele>
        <time>2019-10-06T11:49:53Z</time>
      </trkpt>
      <trkpt lat="45.67435" lon="6.82403">
        <ele>2201</ele>
        <time>2019-10-06T11:49:54Z</time>
      </trkpt>
      <trkpt lat="45.67432" lon="6.82405">
        <ele>2201</ele>
        <time>2019-10-06T11:49:56Z</time>
      </trkpt>
      <trkpt lat="45.67429" lon="6.82406">
        <ele>2201</ele>
        <time>2019-10-06T11:49:58Z</time>
      </trkpt>
      <trkpt lat="45.67426" lon="6.82407">
        <ele>2201</ele>
        <time>2019-10-06T11:50:00Z</time>
      </trkpt>
      <trkpt lat="45.67424" lon="6.82409">
        <ele>2201</ele>
        <time>2019-10-06T11:50:02Z</time>
      </trkpt>
      <trkpt lat="45.67422" lon="6.8241">
        <ele>2202</ele>
        <time>2019-10-06T11:50:04Z</time>
      </trkpt>
      <trkpt lat="45.6742" lon="6.82412">
        <ele>2202</ele>
        <time>2019-10-06T11:50:06Z</time>
      </trkpt>
      <trkpt lat="45.67417" lon="6.82413">
        <ele>2202</ele>
        <time>2019-10-06T11:50:08Z</time>
      </trkpt>
      <trkpt lat="45.67415" lon="6.82415">
        <ele>2202</ele>
        <time>2019-10-06T11:50:10Z</time>
      </trkpt>
      <trkpt lat="45.67413" lon="6.82417">
        <ele>2202</ele>
        <time>2019-10-06T11:50:12Z</time>
      </trkpt>
      <trkpt lat="45.67411" lon="6.82419">
        <ele>2202</ele>
        <time>2019-10-06T11:50:14Z</time>
      </trkpt>
      <trkpt lat="45.67408" lon="6.8242">
        <ele>2203</ele>
        <time>2019-10-06T11:50:16Z</time>
      </trkpt>
      <trkpt lat="45.67406" lon="6.82422">
        <ele>2203</ele>
        <time>2019-10-06T11:50:18Z</time>
      </trkpt>
      <trkpt lat="45.67404" lon="6.82424">
        <ele>2203</ele>
        <time>2019-10-06T11:50:20Z</time>
      </trkpt>
      <trkpt lat="45.67402" lon="6.82425">
        <ele>2203</ele>
        <time>2019-10-06T11:50:22Z</time>
      </trkpt>
      <trkpt lat="45.674" lon="6.82426">
        <ele>2203</ele>
        <time>2019-10-06T11:50:24Z</time>
      </trkpt>
      <trkpt lat="45.67398" lon="6.82428">
        <ele>2203</ele>
        <time>2019-10-06T11:50:26Z</time>
      </trkpt>
      <trkpt lat="45.67395" lon="6.82429">
        <ele>2203</ele>
        <time>2019-10-06T11:50:28Z</time>
      </trkpt>
      <trkpt lat="45.67392" lon="6.82431">
        <ele>2203</ele>
        <time>2019-10-06T11:50:30Z</time>
      </trkpt>
      <trkpt lat="45.6739" lon="6.82432">
        <ele>2203</ele>
        <time>2019-10-06T11:50:32Z</time>
      </trkpt>
      <trkpt lat="45.67388" lon="6.82434">
        <ele>2203</ele>
        <time>2019-10-06T11:50:34Z</time>
      </trkpt>
      <trkpt lat="45.67387" lon="6.82436">
        <ele>2203</ele>
        <time>2019-10-06T11:50:36Z</time>
      </trkpt>
      <trkpt lat="45.67384" lon="6.82437">
        <ele>2203</ele>
        <time>2019-10-06T11:50:38Z</time>
      </trkpt>
      <trkpt lat="45.67382" lon="6.82439">
        <ele>2203</ele>
        <time>2019-10-06T11:50:40Z</time>
      </trkpt>
      <trkpt lat="45.67379" lon="6.8244">
        <ele>2203</ele>
        <time>2019-10-06T11:50:42Z</time>
      </trkpt>
      <trkpt lat="45.67378" lon="6.82442">
        <ele>2203</ele>
        <time>2019-10-06T11:50:44Z</time>
      </trkpt>
      <trkpt lat="45.67375" lon="6.82443">
        <ele>2203</ele>
        <time>2019-10-06T11:50:46Z</time>
      </trkpt>
      <trkpt lat="45.67373" lon="6.82444">
        <ele>2204</ele>
        <time>2019-10-06T11:50:48Z</time>
      </trkpt>
      <trkpt lat="45.67371" lon="6.82446">
        <ele>2205</ele>
        <time>2019-10-06T11:50:50Z</time>
      </trkpt>
      <trkpt lat="45.67369" lon="6.82447">
        <ele>2205</ele>
        <time>2019-10-06T11:50:52Z</time>
      </trkpt>
      <trkpt lat="45.67367" lon="6.82448">
        <ele>2205</ele>
        <time>2019-10-06T11:50:54Z</time>
      </trkpt>
      <trkpt lat="45.67364" lon="6.82448">
        <ele>2205</ele>
        <time>2019-10-06T11:50:56Z</time>
      </trkpt>
      <trkpt lat="45.67362" lon="6.82448">
        <ele>2206</ele>
        <time>2019-10-06T11:50:58Z</time>
      </trkpt>
      <trkpt lat="45.6736" lon="6.82449">
        <ele>2206</ele>
        <time>2019-10-06T11:51:00Z</time>
      </trkpt>
      <trkpt lat="45.67357" lon="6.82451">
        <ele>2206</ele>
        <time>2019-10-06T11:51:02Z</time>
      </trkpt>
      <trkpt lat="45.67355" lon="6.82453">
        <ele>2206</ele>
        <time>2019-10-06T11:51:04Z</time>
      </trkpt>
      <trkpt lat="45.67354" lon="6.82455">
        <ele>2207</ele>
        <time>2019-10-06T11:51:06Z</time>
      </trkpt>
      <trkpt lat="45.67351" lon="6.82457">
        <ele>2207</ele>
        <time>2019-10-06T11:51:08Z</time>
      </trkpt>
      <trkpt lat="45.6735" lon="6.82459">
        <ele>2207</ele>
        <time>2019-10-06T11:51:10Z</time>
      </trkpt>
      <trkpt lat="45.67348" lon="6.82461">
        <ele>2207</ele>
        <time>2019-10-06T11:51:12Z</time>
      </trkpt>
      <trkpt lat="45.67346" lon="6.82463">
        <ele>2208</ele>
        <time>2019-10-06T11:51:15Z</time>
      </trkpt>
      <trkpt lat="45.67346" lon="6.82463">
        <ele>2208</ele>
        <time>2019-10-06T11:51:16Z</time>
      </trkpt>
      <trkpt lat="45.67345" lon="6.82465">
        <ele>2208</ele>
        <time>2019-10-06T11:51:17Z</time>
      </trkpt>
      <trkpt lat="45.67343" lon="6.82467">
        <ele>2208</ele>
        <time>2019-10-06T11:51:19Z</time>
      </trkpt>
      <trkpt lat="45.67341" lon="6.82468">
        <ele>2208</ele>
        <time>2019-10-06T11:51:21Z</time>
      </trkpt>
      <trkpt lat="45.67339" lon="6.82471">
        <ele>2208</ele>
        <time>2019-10-06T11:51:23Z</time>
      </trkpt>
      <trkpt lat="45.67337" lon="6.82473">
        <ele>2208</ele>
        <time>2019-10-06T11:51:25Z</time>
      </trkpt>
      <trkpt lat="45.67336" lon="6.82475">
        <ele>2208</ele>
        <time>2019-10-06T11:51:27Z</time>
      </trkpt>
      <trkpt lat="45.67334" lon="6.82477">
        <ele>2209</ele>
        <time>2019-10-06T11:51:29Z</time>
      </trkpt>
      <trkpt lat="45.67332" lon="6.82479">
        <ele>2210</ele>
        <time>2019-10-06T11:51:31Z</time>
      </trkpt>
      <trkpt lat="45.6733" lon="6.8248">
        <ele>2210</ele>
        <time>2019-10-06T11:51:33Z</time>
      </trkpt>
      <trkpt lat="45.67328" lon="6.82482">
        <ele>2210</ele>
        <time>2019-10-06T11:51:35Z</time>
      </trkpt>
      <trkpt lat="45.67326" lon="6.82483">
        <ele>2209</ele>
        <time>2019-10-06T11:51:37Z</time>
      </trkpt>
      <trkpt lat="45.67324" lon="6.82485">
        <ele>2209</ele>
        <time>2019-10-06T11:51:39Z</time>
      </trkpt>
      <trkpt lat="45.67322" lon="6.82487">
        <ele>2210</ele>
        <time>2019-10-06T11:51:41Z</time>
      </trkpt>
      <trkpt lat="45.6732" lon="6.82489">
        <ele>2209</ele>
        <time>2019-10-06T11:51:43Z</time>
      </trkpt>
      <trkpt lat="45.67318" lon="6.82491">
        <ele>2209</ele>
        <time>2019-10-06T11:51:45Z</time>
      </trkpt>
      <trkpt lat="45.67317" lon="6.82492">
        <ele>2209</ele>
        <time>2019-10-06T11:51:47Z</time>
      </trkpt>
      <trkpt lat="45.67315" lon="6.82493">
        <ele>2210</ele>
        <time>2019-10-06T11:51:49Z</time>
      </trkpt>
      <trkpt lat="45.67313" lon="6.82494">
        <ele>2210</ele>
        <time>2019-10-06T11:51:51Z</time>
      </trkpt>
      <trkpt lat="45.67311" lon="6.82494">
        <ele>2210</ele>
        <time>2019-10-06T11:51:53Z</time>
      </trkpt>
      <trkpt lat="45.67309" lon="6.82495">
        <ele>2210</ele>
        <time>2019-10-06T11:51:55Z</time>
      </trkpt>
      <trkpt lat="45.67307" lon="6.82497">
        <ele>2211</ele>
        <time>2019-10-06T11:51:58Z</time>
      </trkpt>
      <trkpt lat="45.67307" lon="6.82497">
        <ele>2211</ele>
        <time>2019-10-06T11:51:59Z</time>
      </trkpt>
      <trkpt lat="45.67305" lon="6.82498">
        <ele>2211</ele>
        <time>2019-10-06T11:52:00Z</time>
      </trkpt>
      <trkpt lat="45.67303" lon="6.82499">
        <ele>2211</ele>
        <time>2019-10-06T11:52:02Z</time>
      </trkpt>
      <trkpt lat="45.67301" lon="6.825">
        <ele>2212</ele>
        <time>2019-10-06T11:52:05Z</time>
      </trkpt>
      <trkpt lat="45.67301" lon="6.825">
        <ele>2212</ele>
        <time>2019-10-06T11:52:06Z</time>
      </trkpt>
      <trkpt lat="45.67299" lon="6.825">
        <ele>2212</ele>
        <time>2019-10-06T11:52:07Z</time>
      </trkpt>
      <trkpt lat="45.67297" lon="6.82501">
        <ele>2211</ele>
        <time>2019-10-06T11:52:09Z</time>
      </trkpt>
      <trkpt lat="45.67295" lon="6.82501">
        <ele>2211</ele>
        <time>2019-10-06T11:52:11Z</time>
      </trkpt>
      <trkpt lat="45.67293" lon="6.82502">
        <ele>2211</ele>
        <time>2019-10-06T11:52:13Z</time>
      </trkpt>
      <trkpt lat="45.6729" lon="6.82503">
        <ele>2211</ele>
        <time>2019-10-06T11:52:15Z</time>
      </trkpt>
      <trkpt lat="45.67288" lon="6.82503">
        <ele>2211</ele>
        <time>2019-10-06T11:52:17Z</time>
      </trkpt>
      <trkpt lat="45.67285" lon="6.82503">
        <ele>2211</ele>
        <time>2019-10-06T11:52:19Z</time>
      </trkpt>
      <trkpt lat="45.67283" lon="6.82504">
        <ele>2210</ele>
        <time>2019-10-06T11:52:21Z</time>
      </trkpt>
      <trkpt lat="45.6728" lon="6.82503">
        <ele>2210</ele>
        <time>2019-10-06T11:52:23Z</time>
      </trkpt>
      <trkpt lat="45.67278" lon="6.82502">
        <ele>2210</ele>
        <time>2019-10-06T11:52:25Z</time>
      </trkpt>
      <trkpt lat="45.67276" lon="6.82503">
        <ele>2210</ele>
        <time>2019-10-06T11:52:27Z</time>
      </trkpt>
      <trkpt lat="45.67273" lon="6.82503">
        <ele>2210</ele>
        <time>2019-10-06T11:52:29Z</time>
      </trkpt>
      <trkpt lat="45.67271" lon="6.82502">
        <ele>2210</ele>
        <time>2019-10-06T11:52:31Z</time>
      </trkpt>
      <trkpt lat="45.67268" lon="6.825">
        <ele>2210</ele>
        <time>2019-10-06T11:52:33Z</time>
      </trkpt>
      <trkpt lat="45.67266" lon="6.82498">
        <ele>2210</ele>
        <time>2019-10-06T11:52:35Z</time>
      </trkpt>
      <trkpt lat="45.67264" lon="6.82497">
        <ele>2210</ele>
        <time>2019-10-06T11:52:37Z</time>
      </trkpt>
      <trkpt lat="45.67261" lon="6.82496">
        <ele>2210</ele>
        <time>2019-10-06T11:52:39Z</time>
      </trkpt>
      <trkpt lat="45.67259" lon="6.82495">
        <ele>2209</ele>
        <time>2019-10-06T11:52:41Z</time>
      </trkpt>
      <trkpt lat="45.67257" lon="6.82498">
        <ele>2209</ele>
        <time>2019-10-06T11:52:44Z</time>
      </trkpt>
      <trkpt lat="45.67257" lon="6.82498">
        <ele>2209</ele>
        <time>2019-10-06T11:52:45Z</time>
      </trkpt>
      <trkpt lat="45.67255" lon="6.825">
        <ele>2210</ele>
        <time>2019-10-06T11:52:46Z</time>
      </trkpt>
      <trkpt lat="45.67254" lon="6.82501">
        <ele>2210</ele>
        <time>2019-10-06T11:52:48Z</time>
      </trkpt>
      <trkpt lat="45.67252" lon="6.82502">
        <ele>2210</ele>
        <time>2019-10-06T11:52:50Z</time>
      </trkpt>
      <trkpt lat="45.67249" lon="6.82502">
        <ele>2210</ele>
        <time>2019-10-06T11:52:52Z</time>
      </trkpt>
      <trkpt lat="45.67247" lon="6.82502">
        <ele>2210</ele>
        <time>2019-10-06T11:52:54Z</time>
      </trkpt>
      <trkpt lat="45.67244" lon="6.82503">
        <ele>2210</ele>
        <time>2019-10-06T11:52:56Z</time>
      </trkpt>
      <trkpt lat="45.67242" lon="6.82503">
        <ele>2210</ele>
        <time>2019-10-06T11:52:58Z</time>
      </trkpt>
      <trkpt lat="45.6724" lon="6.82504">
        <ele>2210</ele>
        <time>2019-10-06T11:53:00Z</time>
      </trkpt>
      <trkpt lat="45.67237" lon="6.82505">
        <ele>2210</ele>
        <time>2019-10-06T11:53:02Z</time>
      </trkpt>
      <trkpt lat="45.67236" lon="6.82507">
        <ele>2210</ele>
        <time>2019-10-06T11:53:04Z</time>
      </trkpt>
      <trkpt lat="45.67235" lon="6.8251">
        <ele>2211</ele>
        <time>2019-10-06T11:53:07Z</time>
      </trkpt>
      <trkpt lat="45.67235" lon="6.8251">
        <ele>2211</ele>
        <time>2019-10-06T11:53:08Z</time>
      </trkpt>
      <trkpt lat="45.67232" lon="6.82511">
        <ele>2211</ele>
        <time>2019-10-06T11:53:10Z</time>
      </trkpt>
      <trkpt lat="45.67231" lon="6.8251">
        <ele>2212</ele>
        <time>2019-10-06T11:53:12Z</time>
      </trkpt>
      <trkpt lat="45.67231" lon="6.8251">
        <ele>2213</ele>
        <time>2019-10-06T11:53:14Z</time>
      </trkpt>
      <trkpt lat="45.67228" lon="6.8251">
        <ele>2213</ele>
        <time>2019-10-06T11:53:15Z</time>
      </trkpt>
      <trkpt lat="45.67226" lon="6.82511">
        <ele>2214</ele>
        <time>2019-10-06T11:53:18Z</time>
      </trkpt>
      <trkpt lat="45.67226" lon="6.82511">
        <ele>2214</ele>
        <time>2019-10-06T11:53:20Z</time>
      </trkpt>
      <trkpt lat="45.67224" lon="6.82514">
        <ele>2214</ele>
        <time>2019-10-06T11:53:21Z</time>
      </trkpt>
      <trkpt lat="45.67223" lon="6.82517">
        <ele>2214</ele>
        <time>2019-10-06T11:53:24Z</time>
      </trkpt>
      <trkpt lat="45.67223" lon="6.82517">
        <ele>2215</ele>
        <time>2019-10-06T11:53:26Z</time>
      </trkpt>
      <trkpt lat="45.67222" lon="6.82519">
        <ele>2215</ele>
        <time>2019-10-06T11:53:27Z</time>
      </trkpt>
      <trkpt lat="45.67221" lon="6.82522">
        <ele>2216</ele>
        <time>2019-10-06T11:53:30Z</time>
      </trkpt>
      <trkpt lat="45.67221" lon="6.82522">
        <ele>2216</ele>
        <time>2019-10-06T11:53:32Z</time>
      </trkpt>
      <trkpt lat="45.67219" lon="6.82524">
        <ele>2216</ele>
        <time>2019-10-06T11:53:33Z</time>
      </trkpt>
      <trkpt lat="45.67218" lon="6.82526">
        <ele>2217</ele>
        <time>2019-10-06T11:53:36Z</time>
      </trkpt>
      <trkpt lat="45.67218" lon="6.82526">
        <ele>2217</ele>
        <time>2019-10-06T11:53:38Z</time>
      </trkpt>
      <trkpt lat="45.67217" lon="6.82528">
        <ele>2218</ele>
        <time>2019-10-06T11:53:40Z</time>
      </trkpt>
      <trkpt lat="45.67217" lon="6.82528">
        <ele>2219</ele>
        <time>2019-10-06T11:53:43Z</time>
      </trkpt>
      <trkpt lat="45.67215" lon="6.8253">
        <ele>2219</ele>
        <time>2019-10-06T11:53:44Z</time>
      </trkpt>
      <trkpt lat="45.67214" lon="6.82532">
        <ele>2220</ele>
        <time>2019-10-06T11:53:47Z</time>
      </trkpt>
      <trkpt lat="45.67214" lon="6.82532">
        <ele>2220</ele>
        <time>2019-10-06T11:53:49Z</time>
      </trkpt>
      <trkpt lat="45.67212" lon="6.82534">
        <ele>2220</ele>
        <time>2019-10-06T11:53:50Z</time>
      </trkpt>
      <trkpt lat="45.6721" lon="6.82535">
        <ele>2222</ele>
        <time>2019-10-06T11:53:53Z</time>
      </trkpt>
      <trkpt lat="45.6721" lon="6.82535">
        <ele>2222</ele>
        <time>2019-10-06T11:53:55Z</time>
      </trkpt>
      <trkpt lat="45.67208" lon="6.82536">
        <ele>2222</ele>
        <time>2019-10-06T11:53:56Z</time>
      </trkpt>
      <trkpt lat="45.67206" lon="6.82536">
        <ele>2223</ele>
        <time>2019-10-06T11:53:59Z</time>
      </trkpt>
      <trkpt lat="45.67206" lon="6.82536">
        <ele>2223</ele>
        <time>2019-10-06T11:54:01Z</time>
      </trkpt>
      <trkpt lat="45.67205" lon="6.82538">
        <ele>2223</ele>
        <time>2019-10-06T11:54:02Z</time>
      </trkpt>
      <trkpt lat="45.67203" lon="6.8254">
        <ele>2224</ele>
        <time>2019-10-06T11:54:05Z</time>
      </trkpt>
      <trkpt lat="45.67203" lon="6.8254">
        <ele>2224</ele>
        <time>2019-10-06T11:54:07Z</time>
      </trkpt>
      <trkpt lat="45.67202" lon="6.82542">
        <ele>2224</ele>
        <time>2019-10-06T11:54:08Z</time>
      </trkpt>
      <trkpt lat="45.672" lon="6.82544">
        <ele>2225</ele>
        <time>2019-10-06T11:54:12Z</time>
      </trkpt>
      <trkpt lat="45.672" lon="6.82544">
        <ele>2225</ele>
        <time>2019-10-06T11:54:13Z</time>
      </trkpt>
      <trkpt lat="45.67199" lon="6.82546">
        <ele>2227</ele>
        <time>2019-10-06T11:54:16Z</time>
      </trkpt>
      <trkpt lat="45.67199" lon="6.82546">
        <ele>2227</ele>
        <time>2019-10-06T11:54:18Z</time>
      </trkpt>
      <trkpt lat="45.67196" lon="6.82547">
        <ele>2228</ele>
        <time>2019-10-06T11:54:20Z</time>
      </trkpt>
      <trkpt lat="45.67196" lon="6.82547">
        <ele>2228</ele>
        <time>2019-10-06T11:54:23Z</time>
      </trkpt>
      <trkpt lat="45.67195" lon="6.82548">
        <ele>2228</ele>
        <time>2019-10-06T11:54:24Z</time>
      </trkpt>
      <trkpt lat="45.67193" lon="6.82549">
        <ele>2230</ele>
        <time>2019-10-06T11:54:28Z</time>
      </trkpt>
      <trkpt lat="45.67193" lon="6.82549">
        <ele>2230</ele>
        <time>2019-10-06T11:54:29Z</time>
      </trkpt>
      <trkpt lat="45.67191" lon="6.8255">
        <ele>2230</ele>
        <time>2019-10-06T11:54:33Z</time>
      </trkpt>
      <trkpt lat="45.67191" lon="6.8255">
        <ele>2230</ele>
        <time>2019-10-06T11:54:34Z</time>
      </trkpt>
      <trkpt lat="45.67189" lon="6.82552">
        <ele>2231</ele>
        <time>2019-10-06T11:54:38Z</time>
      </trkpt>
      <trkpt lat="45.67189" lon="6.82552">
        <ele>2231</ele>
        <time>2019-10-06T11:54:39Z</time>
      </trkpt>
      <trkpt lat="45.67187" lon="6.82553">
        <ele>2231</ele>
        <time>2019-10-06T11:54:42Z</time>
      </trkpt>
      <trkpt lat="45.67187" lon="6.82553">
        <ele>2232</ele>
        <time>2019-10-06T11:54:44Z</time>
      </trkpt>
      <trkpt lat="45.67185" lon="6.82552">
        <ele>2232</ele>
        <time>2019-10-06T11:54:45Z</time>
      </trkpt>
      <trkpt lat="45.67185" lon="6.82552">
        <ele>2233</ele>
        <time>2019-10-06T11:54:49Z</time>
      </trkpt>
      <trkpt lat="45.67183" lon="6.82552">
        <ele>2233</ele>
        <time>2019-10-06T11:54:50Z</time>
      </trkpt>
      <trkpt lat="45.67181" lon="6.82552">
        <ele>2234</ele>
        <time>2019-10-06T11:54:53Z</time>
      </trkpt>
      <trkpt lat="45.67181" lon="6.82552">
        <ele>2234</ele>
        <time>2019-10-06T11:54:55Z</time>
      </trkpt>
      <trkpt lat="45.67179" lon="6.82551">
        <ele>2234</ele>
        <time>2019-10-06T11:54:56Z</time>
      </trkpt>
      <trkpt lat="45.67177" lon="6.8255">
        <ele>2234</ele>
        <time>2019-10-06T11:54:59Z</time>
      </trkpt>
      <trkpt lat="45.67177" lon="6.8255">
        <ele>2234</ele>
        <time>2019-10-06T11:55:01Z</time>
      </trkpt>
      <trkpt lat="45.67174" lon="6.82551">
        <ele>2236</ele>
        <time>2019-10-06T11:55:03Z</time>
      </trkpt>
      <trkpt lat="45.67174" lon="6.82551">
        <ele>2236</ele>
        <time>2019-10-06T11:55:06Z</time>
      </trkpt>
      <trkpt lat="45.67172" lon="6.82552">
        <ele>2236</ele>
        <time>2019-10-06T11:55:07Z</time>
      </trkpt>
      <trkpt lat="45.6717" lon="6.82552">
        <ele>2238</ele>
        <time>2019-10-06T11:55:10Z</time>
      </trkpt>
      <trkpt lat="45.6717" lon="6.82552">
        <ele>2238</ele>
        <time>2019-10-06T11:55:12Z</time>
      </trkpt>
      <trkpt lat="45.67167" lon="6.82552">
        <ele>2238</ele>
        <time>2019-10-06T11:55:13Z</time>
      </trkpt>
      <trkpt lat="45.67165" lon="6.82553">
        <ele>2239</ele>
        <time>2019-10-06T11:55:17Z</time>
      </trkpt>
      <trkpt lat="45.67165" lon="6.82553">
        <ele>2239</ele>
        <time>2019-10-06T11:55:18Z</time>
      </trkpt>
      <trkpt lat="45.67163" lon="6.82554">
        <ele>2240</ele>
        <time>2019-10-06T11:55:21Z</time>
      </trkpt>
      <trkpt lat="45.67163" lon="6.82554">
        <ele>2241</ele>
        <time>2019-10-06T11:55:23Z</time>
      </trkpt>
      <trkpt lat="45.67161" lon="6.82555">
        <ele>2241</ele>
        <time>2019-10-06T11:55:24Z</time>
      </trkpt>
      <trkpt lat="45.6716" lon="6.82556">
        <ele>2242</ele>
        <time>2019-10-06T11:55:28Z</time>
      </trkpt>
      <trkpt lat="45.6716" lon="6.82556">
        <ele>2243</ele>
        <time>2019-10-06T11:55:29Z</time>
      </trkpt>
      <trkpt lat="45.67158" lon="6.82558">
        <ele>2243</ele>
        <time>2019-10-06T11:55:32Z</time>
      </trkpt>
      <trkpt lat="45.67158" lon="6.82558">
        <ele>2243</ele>
        <time>2019-10-06T11:55:34Z</time>
      </trkpt>
      <trkpt lat="45.67156" lon="6.82559">
        <ele>2244</ele>
        <time>2019-10-06T11:55:36Z</time>
      </trkpt>
      <trkpt lat="45.67156" lon="6.82559">
        <ele>2245</ele>
        <time>2019-10-06T11:55:39Z</time>
      </trkpt>
      <trkpt lat="45.67155" lon="6.82562">
        <ele>2245</ele>
        <time>2019-10-06T11:55:40Z</time>
      </trkpt>
      <trkpt lat="45.67154" lon="6.82565">
        <ele>2246</ele>
        <time>2019-10-06T11:55:44Z</time>
      </trkpt>
      <trkpt lat="45.67154" lon="6.82565">
        <ele>2246</ele>
        <time>2019-10-06T11:55:45Z</time>
      </trkpt>
      <trkpt lat="45.67153" lon="6.82567">
        <ele>2246</ele>
        <time>2019-10-06T11:55:47Z</time>
      </trkpt>
      <trkpt lat="45.67153" lon="6.82567">
        <ele>2248</ele>
        <time>2019-10-06T11:55:50Z</time>
      </trkpt>
      <trkpt lat="45.67151" lon="6.82568">
        <ele>2248</ele>
        <time>2019-10-06T11:55:51Z</time>
      </trkpt>
      <trkpt lat="45.6715" lon="6.82569">
        <ele>2249</ele>
        <time>2019-10-06T11:55:55Z</time>
      </trkpt>
      <trkpt lat="45.6715" lon="6.82569">
        <ele>2249</ele>
        <time>2019-10-06T11:55:56Z</time>
      </trkpt>
      <trkpt lat="45.67148" lon="6.82571">
        <ele>2249</ele>
        <time>2019-10-06T11:55:59Z</time>
      </trkpt>
      <trkpt lat="45.67148" lon="6.82571">
        <ele>2249</ele>
        <time>2019-10-06T11:56:01Z</time>
      </trkpt>
      <trkpt lat="45.67146" lon="6.82572">
        <ele>2250</ele>
        <time>2019-10-06T11:56:03Z</time>
      </trkpt>
      <trkpt lat="45.67146" lon="6.82572">
        <ele>2250</ele>
        <time>2019-10-06T11:56:06Z</time>
      </trkpt>
      <trkpt lat="45.67144" lon="6.82573">
        <ele>2250</ele>
        <time>2019-10-06T11:56:07Z</time>
      </trkpt>
      <trkpt lat="45.67142" lon="6.82573">
        <ele>2251</ele>
        <time>2019-10-06T11:56:10Z</time>
      </trkpt>
      <trkpt lat="45.67142" lon="6.82573">
        <ele>2252</ele>
        <time>2019-10-06T11:56:12Z</time>
      </trkpt>
      <trkpt lat="45.6714" lon="6.82574">
        <ele>2251</ele>
        <time>2019-10-06T11:56:15Z</time>
      </trkpt>
      <trkpt lat="45.67138" lon="6.82576">
        <ele>2251</ele>
        <time>2019-10-06T11:56:17Z</time>
      </trkpt>
      <trkpt lat="45.67137" lon="6.82578">
        <ele>2252</ele>
        <time>2019-10-06T11:56:20Z</time>
      </trkpt>
      <trkpt lat="45.67137" lon="6.82578">
        <ele>2252</ele>
        <time>2019-10-06T11:56:21Z</time>
      </trkpt>
      <trkpt lat="45.67137" lon="6.82578">
        <ele>2254</ele>
        <time>2019-10-06T11:56:25Z</time>
      </trkpt>
      <trkpt lat="45.67135" lon="6.82579">
        <ele>2254</ele>
        <time>2019-10-06T11:56:27Z</time>
      </trkpt>
      <trkpt lat="45.67135" lon="6.82579">
        <ele>2254</ele>
        <time>2019-10-06T11:56:30Z</time>
      </trkpt>
      <trkpt lat="45.67135" lon="6.82582">
        <ele>2255</ele>
        <time>2019-10-06T11:56:32Z</time>
      </trkpt>
      <trkpt lat="45.67135" lon="6.82582">
        <ele>2256</ele>
        <time>2019-10-06T11:56:35Z</time>
      </trkpt>
      <trkpt lat="45.67134" lon="6.82585">
        <ele>2256</ele>
        <time>2019-10-06T11:56:37Z</time>
      </trkpt>
      <trkpt lat="45.67134" lon="6.82585">
        <ele>2256</ele>
        <time>2019-10-06T11:56:40Z</time>
      </trkpt>
      <trkpt lat="45.67134" lon="6.82587">
        <ele>2256</ele>
        <time>2019-10-06T11:56:41Z</time>
      </trkpt>
      <trkpt lat="45.67133" lon="6.8259">
        <ele>2258</ele>
        <time>2019-10-06T11:56:45Z</time>
      </trkpt>
      <trkpt lat="45.67133" lon="6.8259">
        <ele>2258</ele>
        <time>2019-10-06T11:56:46Z</time>
      </trkpt>
      <trkpt lat="45.67132" lon="6.82593">
        <ele>2258</ele>
        <time>2019-10-06T11:56:49Z</time>
      </trkpt>
      <trkpt lat="45.67132" lon="6.82593">
        <ele>2258</ele>
        <time>2019-10-06T11:56:51Z</time>
      </trkpt>
      <trkpt lat="45.67131" lon="6.82595">
        <ele>2259</ele>
        <time>2019-10-06T11:56:54Z</time>
      </trkpt>
      <trkpt lat="45.67131" lon="6.82595">
        <ele>2259</ele>
        <time>2019-10-06T11:56:56Z</time>
      </trkpt>
      <trkpt lat="45.6713" lon="6.82598">
        <ele>2260</ele>
        <time>2019-10-06T11:56:59Z</time>
      </trkpt>
      <trkpt lat="45.6713" lon="6.82598">
        <ele>2261</ele>
        <time>2019-10-06T11:57:01Z</time>
      </trkpt>
      <trkpt lat="45.67129" lon="6.82599">
        <ele>2261</ele>
        <time>2019-10-06T11:57:05Z</time>
      </trkpt>
      <trkpt lat="45.67129" lon="6.82599">
        <ele>2262</ele>
        <time>2019-10-06T11:57:06Z</time>
      </trkpt>
      <trkpt lat="45.67127" lon="6.82602">
        <ele>2262</ele>
        <time>2019-10-06T11:57:10Z</time>
      </trkpt>
      <trkpt lat="45.67127" lon="6.82602">
        <ele>2262</ele>
        <time>2019-10-06T11:57:11Z</time>
      </trkpt>
      <trkpt lat="45.67127" lon="6.82602">
        <ele>2263</ele>
        <time>2019-10-06T11:57:15Z</time>
      </trkpt>
      <trkpt lat="45.67126" lon="6.82604">
        <ele>2263</ele>
        <time>2019-10-06T11:57:16Z</time>
      </trkpt>
      <trkpt lat="45.67124" lon="6.82602">
        <ele>2264</ele>
        <time>2019-10-06T11:57:20Z</time>
      </trkpt>
      <trkpt lat="45.67124" lon="6.82602">
        <ele>2264</ele>
        <time>2019-10-06T11:57:21Z</time>
      </trkpt>
      <trkpt lat="45.67122" lon="6.826">
        <ele>2265</ele>
        <time>2019-10-06T11:57:25Z</time>
      </trkpt>
      <trkpt lat="45.67122" lon="6.826">
        <ele>2265</ele>
        <time>2019-10-06T11:57:26Z</time>
      </trkpt>
      <trkpt lat="45.67121" lon="6.82598">
        <ele>2265</ele>
        <time>2019-10-06T11:57:28Z</time>
      </trkpt>
      <trkpt lat="45.67121" lon="6.82598">
        <ele>2266</ele>
        <time>2019-10-06T11:57:31Z</time>
      </trkpt>
      <trkpt lat="45.67119" lon="6.82595">
        <ele>2266</ele>
        <time>2019-10-06T11:57:32Z</time>
      </trkpt>
      <trkpt lat="45.67118" lon="6.82593">
        <ele>2267</ele>
        <time>2019-10-06T11:57:35Z</time>
      </trkpt>
      <trkpt lat="45.67118" lon="6.82593">
        <ele>2267</ele>
        <time>2019-10-06T11:57:37Z</time>
      </trkpt>
      <trkpt lat="45.67117" lon="6.82591">
        <ele>2267</ele>
        <time>2019-10-06T11:57:38Z</time>
      </trkpt>
      <trkpt lat="45.67115" lon="6.82589">
        <ele>2268</ele>
        <time>2019-10-06T11:57:41Z</time>
      </trkpt>
      <trkpt lat="45.67115" lon="6.82589">
        <ele>2268</ele>
        <time>2019-10-06T11:57:43Z</time>
      </trkpt>
      <trkpt lat="45.67113" lon="6.82587">
        <ele>2268</ele>
        <time>2019-10-06T11:57:45Z</time>
      </trkpt>
      <trkpt lat="45.67112" lon="6.82586">
        <ele>2269</ele>
        <time>2019-10-06T11:57:48Z</time>
      </trkpt>
      <trkpt lat="45.67112" lon="6.82586">
        <ele>2269</ele>
        <time>2019-10-06T11:57:49Z</time>
      </trkpt>
      <trkpt lat="45.6711" lon="6.82585">
        <ele>2269</ele>
        <time>2019-10-06T11:57:51Z</time>
      </trkpt>
      <trkpt lat="45.67108" lon="6.82583">
        <ele>2270</ele>
        <time>2019-10-06T11:57:54Z</time>
      </trkpt>
      <trkpt lat="45.67108" lon="6.82583">
        <ele>2270</ele>
        <time>2019-10-06T11:57:55Z</time>
      </trkpt>
      <trkpt lat="45.67106" lon="6.82584">
        <ele>2270</ele>
        <time>2019-10-06T11:57:57Z</time>
      </trkpt>
      <trkpt lat="45.67104" lon="6.82584">
        <ele>2270</ele>
        <time>2019-10-06T11:58:00Z</time>
      </trkpt>
      <trkpt lat="45.67104" lon="6.82584">
        <ele>2270</ele>
        <time>2019-10-06T11:58:01Z</time>
      </trkpt>
      <trkpt lat="45.67101" lon="6.82585">
        <ele>2270</ele>
        <time>2019-10-06T11:58:03Z</time>
      </trkpt>
      <trkpt lat="45.67099" lon="6.82584">
        <ele>2270</ele>
        <time>2019-10-06T11:58:05Z</time>
      </trkpt>
      <trkpt lat="45.67099" lon="6.82584">
        <ele>2271</ele>
        <time>2019-10-06T11:58:07Z</time>
      </trkpt>
      <trkpt lat="45.67097" lon="6.82581">
        <ele>2271</ele>
        <time>2019-10-06T11:58:08Z</time>
      </trkpt>
      <trkpt lat="45.67095" lon="6.8258">
        <ele>2272</ele>
        <time>2019-10-06T11:58:12Z</time>
      </trkpt>
      <trkpt lat="45.67095" lon="6.8258">
        <ele>2272</ele>
        <time>2019-10-06T11:58:13Z</time>
      </trkpt>
      <trkpt lat="45.67093" lon="6.82581">
        <ele>2274</ele>
        <time>2019-10-06T11:58:16Z</time>
      </trkpt>
      <trkpt lat="45.67091" lon="6.82584">
        <ele>2274</ele>
        <time>2019-10-06T11:58:18Z</time>
      </trkpt>
      <trkpt lat="45.67089" lon="6.82586">
        <ele>2274</ele>
        <time>2019-10-06T11:58:20Z</time>
      </trkpt>
      <trkpt lat="45.67087" lon="6.82588">
        <ele>2274</ele>
        <time>2019-10-06T11:58:22Z</time>
      </trkpt>
      <trkpt lat="45.67085" lon="6.82591">
        <ele>2274</ele>
        <time>2019-10-06T11:58:24Z</time>
      </trkpt>
      <trkpt lat="45.67083" lon="6.82593">
        <ele>2274</ele>
        <time>2019-10-06T11:58:26Z</time>
      </trkpt>
      <trkpt lat="45.67081" lon="6.82595">
        <ele>2274</ele>
        <time>2019-10-06T11:58:28Z</time>
      </trkpt>
      <trkpt lat="45.67079" lon="6.82597">
        <ele>2274</ele>
        <time>2019-10-06T11:58:30Z</time>
      </trkpt>
      <trkpt lat="45.67077" lon="6.82598">
        <ele>2274</ele>
        <time>2019-10-06T11:58:32Z</time>
      </trkpt>
      <trkpt lat="45.67075" lon="6.826">
        <ele>2274</ele>
        <time>2019-10-06T11:58:34Z</time>
      </trkpt>
      <trkpt lat="45.67073" lon="6.82602">
        <ele>2274</ele>
        <time>2019-10-06T11:58:36Z</time>
      </trkpt>
      <trkpt lat="45.6707" lon="6.82603">
        <ele>2274</ele>
        <time>2019-10-06T11:58:38Z</time>
      </trkpt>
      <trkpt lat="45.67068" lon="6.82603">
        <ele>2274</ele>
        <time>2019-10-06T11:58:40Z</time>
      </trkpt>
      <trkpt lat="45.67066" lon="6.82604">
        <ele>2274</ele>
        <time>2019-10-06T11:58:42Z</time>
      </trkpt>
      <trkpt lat="45.67064" lon="6.82606">
        <ele>2275</ele>
        <time>2019-10-06T11:58:45Z</time>
      </trkpt>
      <trkpt lat="45.67064" lon="6.82606">
        <ele>2275</ele>
        <time>2019-10-06T11:58:46Z</time>
      </trkpt>
      <trkpt lat="45.67062" lon="6.82608">
        <ele>2276</ele>
        <time>2019-10-06T11:58:48Z</time>
      </trkpt>
      <trkpt lat="45.6706" lon="6.82611">
        <ele>2276</ele>
        <time>2019-10-06T11:58:51Z</time>
      </trkpt>
      <trkpt lat="45.6706" lon="6.82611">
        <ele>2276</ele>
        <time>2019-10-06T11:58:52Z</time>
      </trkpt>
      <trkpt lat="45.67059" lon="6.82613">
        <ele>2276</ele>
        <time>2019-10-06T11:58:55Z</time>
      </trkpt>
      <trkpt lat="45.67059" lon="6.82613">
        <ele>2276</ele>
        <time>2019-10-06T11:58:57Z</time>
      </trkpt>
      <trkpt lat="45.67058" lon="6.82616">
        <ele>2277</ele>
        <time>2019-10-06T11:58:58Z</time>
      </trkpt>
      <trkpt lat="45.67056" lon="6.82617">
        <ele>2277</ele>
        <time>2019-10-06T11:59:01Z</time>
      </trkpt>
      <trkpt lat="45.67056" lon="6.82617">
        <ele>2278</ele>
        <time>2019-10-06T11:59:03Z</time>
      </trkpt>
      <trkpt lat="45.67054" lon="6.82619">
        <ele>2278</ele>
        <time>2019-10-06T11:59:04Z</time>
      </trkpt>
      <trkpt lat="45.67053" lon="6.82622">
        <ele>2279</ele>
        <time>2019-10-06T11:59:08Z</time>
      </trkpt>
      <trkpt lat="45.67053" lon="6.82622">
        <ele>2279</ele>
        <time>2019-10-06T11:59:09Z</time>
      </trkpt>
      <trkpt lat="45.67052" lon="6.82624">
        <ele>2279</ele>
        <time>2019-10-06T11:59:11Z</time>
      </trkpt>
      <trkpt lat="45.67052" lon="6.82624">
        <ele>2279</ele>
        <time>2019-10-06T11:59:14Z</time>
      </trkpt>
      <trkpt lat="45.67051" lon="6.82627">
        <ele>2279</ele>
        <time>2019-10-06T11:59:15Z</time>
      </trkpt>
      <trkpt lat="45.67048" lon="6.82627">
        <ele>2279</ele>
        <time>2019-10-06T11:59:18Z</time>
      </trkpt>
      <trkpt lat="45.67048" lon="6.82627">
        <ele>2279</ele>
        <time>2019-10-06T11:59:20Z</time>
      </trkpt>
      <trkpt lat="45.67046" lon="6.82626">
        <ele>2279</ele>
        <time>2019-10-06T11:59:21Z</time>
      </trkpt>
      <trkpt lat="45.67045" lon="6.82624">
        <ele>2279</ele>
        <time>2019-10-06T11:59:24Z</time>
      </trkpt>
      <trkpt lat="45.67045" lon="6.82624">
        <ele>2280</ele>
        <time>2019-10-06T11:59:26Z</time>
      </trkpt>
      <trkpt lat="45.67043" lon="6.82621">
        <ele>2280</ele>
        <time>2019-10-06T11:59:27Z</time>
      </trkpt>
      <trkpt lat="45.67041" lon="6.82619">
        <ele>2280</ele>
        <time>2019-10-06T11:59:30Z</time>
      </trkpt>
      <trkpt lat="45.67041" lon="6.82619">
        <ele>2280</ele>
        <time>2019-10-06T11:59:32Z</time>
      </trkpt>
      <trkpt lat="45.67039" lon="6.82617">
        <ele>2280</ele>
        <time>2019-10-06T11:59:33Z</time>
      </trkpt>
      <trkpt lat="45.67038" lon="6.82614">
        <ele>2281</ele>
        <time>2019-10-06T11:59:36Z</time>
      </trkpt>
      <trkpt lat="45.67038" lon="6.82614">
        <ele>2282</ele>
        <time>2019-10-06T11:59:38Z</time>
      </trkpt>
      <trkpt lat="45.67037" lon="6.82612">
        <ele>2282</ele>
        <time>2019-10-06T11:59:39Z</time>
      </trkpt>
      <trkpt lat="45.67036" lon="6.8261">
        <ele>2282</ele>
        <time>2019-10-06T11:59:42Z</time>
      </trkpt>
      <trkpt lat="45.67036" lon="6.8261">
        <ele>2283</ele>
        <time>2019-10-06T11:59:44Z</time>
      </trkpt>
      <trkpt lat="45.67034" lon="6.82608">
        <ele>2283</ele>
        <time>2019-10-06T11:59:45Z</time>
      </trkpt>
      <trkpt lat="45.67033" lon="6.82606">
        <ele>2284</ele>
        <time>2019-10-06T11:59:49Z</time>
      </trkpt>
      <trkpt lat="45.67033" lon="6.82606">
        <ele>2284</ele>
        <time>2019-10-06T11:59:50Z</time>
      </trkpt>
      <trkpt lat="45.67031" lon="6.82603">
        <ele>2285</ele>
        <time>2019-10-06T11:59:53Z</time>
      </trkpt>
      <trkpt lat="45.67031" lon="6.82603">
        <ele>2286</ele>
        <time>2019-10-06T11:59:55Z</time>
      </trkpt>
      <trkpt lat="45.6703" lon="6.826">
        <ele>2286</ele>
        <time>2019-10-06T11:59:56Z</time>
      </trkpt>
      <trkpt lat="45.6703" lon="6.82596">
        <ele>2286</ele>
        <time>2019-10-06T11:59:59Z</time>
      </trkpt>
      <trkpt lat="45.6703" lon="6.82596">
        <ele>2286</ele>
        <time>2019-10-06T12:00:01Z</time>
      </trkpt>
      <trkpt lat="45.67028" lon="6.82594">
        <ele>2286</ele>
        <time>2019-10-06T12:00:02Z</time>
      </trkpt>
      <trkpt lat="45.67027" lon="6.82592">
        <ele>2287</ele>
        <time>2019-10-06T12:00:05Z</time>
      </trkpt>
      <trkpt lat="45.67027" lon="6.82592">
        <ele>2287</ele>
        <time>2019-10-06T12:00:07Z</time>
      </trkpt>
      <trkpt lat="45.67026" lon="6.8259">
        <ele>2287</ele>
        <time>2019-10-06T12:00:08Z</time>
      </trkpt>
      <trkpt lat="45.67025" lon="6.82587">
        <ele>2288</ele>
        <time>2019-10-06T12:00:11Z</time>
      </trkpt>
      <trkpt lat="45.67025" lon="6.82587">
        <ele>2289</ele>
        <time>2019-10-06T12:00:13Z</time>
      </trkpt>
      <trkpt lat="45.67023" lon="6.82585">
        <ele>2289</ele>
        <time>2019-10-06T12:00:15Z</time>
      </trkpt>
      <trkpt lat="45.67023" lon="6.82585">
        <ele>2290</ele>
        <time>2019-10-06T12:00:18Z</time>
      </trkpt>
      <trkpt lat="45.67022" lon="6.82584">
        <ele>2290</ele>
        <time>2019-10-06T12:00:19Z</time>
      </trkpt>
      <trkpt lat="45.67021" lon="6.82581">
        <ele>2291</ele>
        <time>2019-10-06T12:00:23Z</time>
      </trkpt>
      <trkpt lat="45.67021" lon="6.82581">
        <ele>2291</ele>
        <time>2019-10-06T12:00:24Z</time>
      </trkpt>
      <trkpt lat="45.6702" lon="6.82578">
        <ele>2291</ele>
        <time>2019-10-06T12:00:26Z</time>
      </trkpt>
      <trkpt lat="45.6702" lon="6.82578">
        <ele>2292</ele>
        <time>2019-10-06T12:00:29Z</time>
      </trkpt>
      <trkpt lat="45.67018" lon="6.82578">
        <ele>2292</ele>
        <time>2019-10-06T12:00:30Z</time>
      </trkpt>
      <trkpt lat="45.67016" lon="6.82578">
        <ele>2293</ele>
        <time>2019-10-06T12:00:34Z</time>
      </trkpt>
      <trkpt lat="45.67016" lon="6.82578">
        <ele>2293</ele>
        <time>2019-10-06T12:00:35Z</time>
      </trkpt>
      <trkpt lat="45.67014" lon="6.8258">
        <ele>2293</ele>
        <time>2019-10-06T12:00:37Z</time>
      </trkpt>
      <trkpt lat="45.67013" lon="6.82582">
        <ele>2294</ele>
        <time>2019-10-06T12:00:40Z</time>
      </trkpt>
      <trkpt lat="45.67013" lon="6.82582">
        <ele>2294</ele>
        <time>2019-10-06T12:00:41Z</time>
      </trkpt>
      <trkpt lat="45.67012" lon="6.82585">
        <ele>2295</ele>
        <time>2019-10-06T12:00:43Z</time>
      </trkpt>
      <trkpt lat="45.67012" lon="6.82587">
        <ele>2296</ele>
        <time>2019-10-06T12:00:46Z</time>
      </trkpt>
      <trkpt lat="45.67012" lon="6.82587">
        <ele>2296</ele>
        <time>2019-10-06T12:00:47Z</time>
      </trkpt>
      <trkpt lat="45.67011" lon="6.8259">
        <ele>2296</ele>
        <time>2019-10-06T12:00:49Z</time>
      </trkpt>
      <trkpt lat="45.67009" lon="6.82592">
        <ele>2297</ele>
        <time>2019-10-06T12:00:52Z</time>
      </trkpt>
      <trkpt lat="45.67009" lon="6.82592">
        <ele>2297</ele>
        <time>2019-10-06T12:00:53Z</time>
      </trkpt>
      <trkpt lat="45.67008" lon="6.82594">
        <ele>2297</ele>
        <time>2019-10-06T12:00:55Z</time>
      </trkpt>
      <trkpt lat="45.67006" lon="6.82597">
        <ele>2297</ele>
        <time>2019-10-06T12:00:58Z</time>
      </trkpt>
      <trkpt lat="45.67006" lon="6.82597">
        <ele>2297</ele>
        <time>2019-10-06T12:00:59Z</time>
      </trkpt>
      <trkpt lat="45.67005" lon="6.82599">
        <ele>2297</ele>
        <time>2019-10-06T12:01:01Z</time>
      </trkpt>
      <trkpt lat="45.67004" lon="6.82602">
        <ele>2298</ele>
        <time>2019-10-06T12:01:04Z</time>
      </trkpt>
      <trkpt lat="45.67004" lon="6.82602">
        <ele>2298</ele>
        <time>2019-10-06T12:01:05Z</time>
      </trkpt>
      <trkpt lat="45.67003" lon="6.82605">
        <ele>2300</ele>
        <time>2019-10-06T12:01:07Z</time>
      </trkpt>
      <trkpt lat="45.67003" lon="6.82607">
        <ele>2301</ele>
        <time>2019-10-06T12:01:10Z</time>
      </trkpt>
      <trkpt lat="45.67003" lon="6.82607">
        <ele>2301</ele>
        <time>2019-10-06T12:01:11Z</time>
      </trkpt>
      <trkpt lat="45.67003" lon="6.8261">
        <ele>2301</ele>
        <time>2019-10-06T12:01:13Z</time>
      </trkpt>
      <trkpt lat="45.67003" lon="6.82613">
        <ele>2302</ele>
        <time>2019-10-06T12:01:16Z</time>
      </trkpt>
      <trkpt lat="45.67003" lon="6.82613">
        <ele>2302</ele>
        <time>2019-10-06T12:01:17Z</time>
      </trkpt>
      <trkpt lat="45.67003" lon="6.82617">
        <ele>2302</ele>
        <time>2019-10-06T12:01:19Z</time>
      </trkpt>
      <trkpt lat="45.67003" lon="6.8262">
        <ele>2303</ele>
        <time>2019-10-06T12:01:22Z</time>
      </trkpt>
      <trkpt lat="45.67003" lon="6.8262">
        <ele>2303</ele>
        <time>2019-10-06T12:01:23Z</time>
      </trkpt>
      <trkpt lat="45.67003" lon="6.82624">
        <ele>2304</ele>
        <time>2019-10-06T12:01:25Z</time>
      </trkpt>
      <trkpt lat="45.67003" lon="6.82626">
        <ele>2304</ele>
        <time>2019-10-06T12:01:28Z</time>
      </trkpt>
      <trkpt lat="45.67003" lon="6.82626">
        <ele>2304</ele>
        <time>2019-10-06T12:01:29Z</time>
      </trkpt>
      <trkpt lat="45.67004" lon="6.82629">
        <ele>2305</ele>
        <time>2019-10-06T12:01:31Z</time>
      </trkpt>
      <trkpt lat="45.67003" lon="6.82632">
        <ele>2305</ele>
        <time>2019-10-06T12:01:34Z</time>
      </trkpt>
      <trkpt lat="45.67003" lon="6.82632">
        <ele>2305</ele>
        <time>2019-10-06T12:01:35Z</time>
      </trkpt>
      <trkpt lat="45.67003" lon="6.82635">
        <ele>2306</ele>
        <time>2019-10-06T12:01:37Z</time>
      </trkpt>
      <trkpt lat="45.67003" lon="6.82635">
        <ele>2306</ele>
        <time>2019-10-06T12:01:40Z</time>
      </trkpt>
      <trkpt lat="45.67003" lon="6.82638">
        <ele>2306</ele>
        <time>2019-10-06T12:01:41Z</time>
      </trkpt>
      <trkpt lat="45.67003" lon="6.82641">
        <ele>2307</ele>
        <time>2019-10-06T12:01:45Z</time>
      </trkpt>
      <trkpt lat="45.67003" lon="6.82641">
        <ele>2307</ele>
        <time>2019-10-06T12:01:46Z</time>
      </trkpt>
      <trkpt lat="45.67002" lon="6.82644">
        <ele>2308</ele>
        <time>2019-10-06T12:01:49Z</time>
      </trkpt>
      <trkpt lat="45.67002" lon="6.82644">
        <ele>2308</ele>
        <time>2019-10-06T12:01:51Z</time>
      </trkpt>
      <trkpt lat="45.67001" lon="6.82647">
        <ele>2308</ele>
        <time>2019-10-06T12:01:53Z</time>
      </trkpt>
      <trkpt lat="45.67001" lon="6.82647">
        <ele>2309</ele>
        <time>2019-10-06T12:01:56Z</time>
      </trkpt>
      <trkpt lat="45.67" lon="6.8265">
        <ele>2309</ele>
        <time>2019-10-06T12:01:57Z</time>
      </trkpt>
      <trkpt lat="45.67" lon="6.82653">
        <ele>2309</ele>
        <time>2019-10-06T12:02:01Z</time>
      </trkpt>
      <trkpt lat="45.67" lon="6.82653">
        <ele>2310</ele>
        <time>2019-10-06T12:02:02Z</time>
      </trkpt>
      <trkpt lat="45.67" lon="6.82655">
        <ele>2311</ele>
        <time>2019-10-06T12:02:04Z</time>
      </trkpt>
      <trkpt lat="45.66998" lon="6.82657">
        <ele>2311</ele>
        <time>2019-10-06T12:02:07Z</time>
      </trkpt>
      <trkpt lat="45.66998" lon="6.82657">
        <ele>2311</ele>
        <time>2019-10-06T12:02:08Z</time>
      </trkpt>
      <trkpt lat="45.66998" lon="6.8266">
        <ele>2312</ele>
        <time>2019-10-06T12:02:10Z</time>
      </trkpt>
      <trkpt lat="45.66998" lon="6.82663">
        <ele>2312</ele>
        <time>2019-10-06T12:02:13Z</time>
      </trkpt>
      <trkpt lat="45.66998" lon="6.82663">
        <ele>2312</ele>
        <time>2019-10-06T12:02:14Z</time>
      </trkpt>
      <trkpt lat="45.66998" lon="6.82666">
        <ele>2313</ele>
        <time>2019-10-06T12:02:16Z</time>
      </trkpt>
      <trkpt lat="45.66998" lon="6.82666">
        <ele>2314</ele>
        <time>2019-10-06T12:02:19Z</time>
      </trkpt>
      <trkpt lat="45.66997" lon="6.82668">
        <ele>2314</ele>
        <time>2019-10-06T12:02:20Z</time>
      </trkpt>
      <trkpt lat="45.66996" lon="6.8267">
        <ele>2314</ele>
        <time>2019-10-06T12:02:24Z</time>
      </trkpt>
      <trkpt lat="45.66996" lon="6.8267">
        <ele>2315</ele>
        <time>2019-10-06T12:02:25Z</time>
      </trkpt>
      <trkpt lat="45.66996" lon="6.82673">
        <ele>2315</ele>
        <time>2019-10-06T12:02:27Z</time>
      </trkpt>
      <trkpt lat="45.66996" lon="6.82673">
        <ele>2315</ele>
        <time>2019-10-06T12:02:30Z</time>
      </trkpt>
      <trkpt lat="45.66995" lon="6.82676">
        <ele>2316</ele>
        <time>2019-10-06T12:02:31Z</time>
      </trkpt>
      <trkpt lat="45.66996" lon="6.82678">
        <ele>2316</ele>
        <time>2019-10-06T12:02:35Z</time>
      </trkpt>
      <trkpt lat="45.66996" lon="6.82678">
        <ele>2317</ele>
        <time>2019-10-06T12:02:36Z</time>
      </trkpt>
      <trkpt lat="45.66997" lon="6.82681">
        <ele>2317</ele>
        <time>2019-10-06T12:02:39Z</time>
      </trkpt>
      <trkpt lat="45.66997" lon="6.82681">
        <ele>2318</ele>
        <time>2019-10-06T12:02:41Z</time>
      </trkpt>
      <trkpt lat="45.66998" lon="6.82684">
        <ele>2318</ele>
        <time>2019-10-06T12:02:43Z</time>
      </trkpt>
      <trkpt lat="45.66998" lon="6.82686">
        <ele>2318</ele>
        <time>2019-10-06T12:02:46Z</time>
      </trkpt>
      <trkpt lat="45.66998" lon="6.82686">
        <ele>2318</ele>
        <time>2019-10-06T12:02:47Z</time>
      </trkpt>
      <trkpt lat="45.66999" lon="6.82689">
        <ele>2319</ele>
        <time>2019-10-06T12:02:50Z</time>
      </trkpt>
      <trkpt lat="45.66999" lon="6.82689">
        <ele>2319</ele>
        <time>2019-10-06T12:02:52Z</time>
      </trkpt>
      <trkpt lat="45.67" lon="6.82691">
        <ele>2320</ele>
        <time>2019-10-06T12:02:54Z</time>
      </trkpt>
      <trkpt lat="45.67" lon="6.82691">
        <ele>2320</ele>
        <time>2019-10-06T12:02:57Z</time>
      </trkpt>
      <trkpt lat="45.67001" lon="6.82693">
        <ele>2320</ele>
        <time>2019-10-06T12:02:58Z</time>
      </trkpt>
      <trkpt lat="45.67001" lon="6.82696">
        <ele>2321</ele>
        <time>2019-10-06T12:03:02Z</time>
      </trkpt>
      <trkpt lat="45.67001" lon="6.82696">
        <ele>2321</ele>
        <time>2019-10-06T12:03:03Z</time>
      </trkpt>
      <trkpt lat="45.67001" lon="6.82699">
        <ele>2322</ele>
        <time>2019-10-06T12:03:07Z</time>
      </trkpt>
      <trkpt lat="45.67001" lon="6.82699">
        <ele>2322</ele>
        <time>2019-10-06T12:03:08Z</time>
      </trkpt>
      <trkpt lat="45.66999" lon="6.827">
        <ele>2323</ele>
        <time>2019-10-06T12:03:12Z</time>
      </trkpt>
      <trkpt lat="45.66999" lon="6.827">
        <ele>2323</ele>
        <time>2019-10-06T12:03:13Z</time>
      </trkpt>
      <trkpt lat="45.66999" lon="6.827">
        <ele>2323</ele>
        <time>2019-10-06T12:03:17Z</time>
      </trkpt>
      <trkpt lat="45.66998" lon="6.82703">
        <ele>2324</ele>
        <time>2019-10-06T12:03:19Z</time>
      </trkpt>
      <trkpt lat="45.66998" lon="6.82703">
        <ele>2324</ele>
        <time>2019-10-06T12:03:22Z</time>
      </trkpt>
      <trkpt lat="45.66997" lon="6.82705">
        <ele>2324</ele>
        <time>2019-10-06T12:03:23Z</time>
      </trkpt>
      <trkpt lat="45.66997" lon="6.82705">
        <ele>2326</ele>
        <time>2019-10-06T12:03:27Z</time>
      </trkpt>
      <trkpt lat="45.66996" lon="6.82708">
        <ele>2327</ele>
        <time>2019-10-06T12:03:29Z</time>
      </trkpt>
      <trkpt lat="45.66996" lon="6.82708">
        <ele>2327</ele>
        <time>2019-10-06T12:03:32Z</time>
      </trkpt>
      <trkpt lat="45.66995" lon="6.82711">
        <ele>2327</ele>
        <time>2019-10-06T12:03:33Z</time>
      </trkpt>
      <trkpt lat="45.66995" lon="6.82711">
        <ele>2328</ele>
        <time>2019-10-06T12:03:37Z</time>
      </trkpt>
      <trkpt lat="45.66996" lon="6.82714">
        <ele>2328</ele>
        <time>2019-10-06T12:03:39Z</time>
      </trkpt>
      <trkpt lat="45.66996" lon="6.82714">
        <ele>2329</ele>
        <time>2019-10-06T12:03:42Z</time>
      </trkpt>
      <trkpt lat="45.66997" lon="6.82716">
        <ele>2329</ele>
        <time>2019-10-06T12:03:43Z</time>
      </trkpt>
      <trkpt lat="45.66998" lon="6.82719">
        <ele>2330</ele>
        <time>2019-10-06T12:03:47Z</time>
      </trkpt>
      <trkpt lat="45.66998" lon="6.82719">
        <ele>2330</ele>
        <time>2019-10-06T12:03:48Z</time>
      </trkpt>
      <trkpt lat="45.66999" lon="6.82721">
        <ele>2330</ele>
        <time>2019-10-06T12:03:51Z</time>
      </trkpt>
      <trkpt lat="45.66999" lon="6.82721">
        <ele>2331</ele>
        <time>2019-10-06T12:03:53Z</time>
      </trkpt>
      <trkpt lat="45.66998" lon="6.82724">
        <ele>2332</ele>
        <time>2019-10-06T12:03:57Z</time>
      </trkpt>
      <trkpt lat="45.66998" lon="6.82724">
        <ele>2332</ele>
        <time>2019-10-06T12:03:58Z</time>
      </trkpt>
      <trkpt lat="45.66998" lon="6.82727">
        <ele>2333</ele>
        <time>2019-10-06T12:04:01Z</time>
      </trkpt>
      <trkpt lat="45.66998" lon="6.82727">
        <ele>2333</ele>
        <time>2019-10-06T12:04:03Z</time>
      </trkpt>
      <trkpt lat="45.66998" lon="6.8273">
        <ele>2333</ele>
        <time>2019-10-06T12:04:06Z</time>
      </trkpt>
      <trkpt lat="45.66998" lon="6.8273">
        <ele>2333</ele>
        <time>2019-10-06T12:04:08Z</time>
      </trkpt>
      <trkpt lat="45.66996" lon="6.82731">
        <ele>2334</ele>
        <time>2019-10-06T12:04:10Z</time>
      </trkpt>
      <trkpt lat="45.66995" lon="6.82733">
        <ele>2334</ele>
        <time>2019-10-06T12:04:13Z</time>
      </trkpt>
      <trkpt lat="45.66995" lon="6.82733">
        <ele>2334</ele>
        <time>2019-10-06T12:04:14Z</time>
      </trkpt>
      <trkpt lat="45.66995" lon="6.82733">
        <ele>2334</ele>
        <time>2019-10-06T12:04:18Z</time>
      </trkpt>
      <trkpt lat="45.66994" lon="6.82735">
        <ele>2334</ele>
        <time>2019-10-06T12:04:19Z</time>
      </trkpt>
      <trkpt lat="45.66994" lon="6.82735">
        <ele>2335</ele>
        <time>2019-10-06T12:04:23Z</time>
      </trkpt>
      <trkpt lat="45.66996" lon="6.82738">
        <ele>2336</ele>
        <time>2019-10-06T12:04:24Z</time>
      </trkpt>
      <trkpt lat="45.66996" lon="6.82741">
        <ele>2336</ele>
        <time>2019-10-06T12:04:28Z</time>
      </trkpt>
      <trkpt lat="45.66996" lon="6.82741">
        <ele>2337</ele>
        <time>2019-10-06T12:04:29Z</time>
      </trkpt>
      <trkpt lat="45.66998" lon="6.82743">
        <ele>2337</ele>
        <time>2019-10-06T12:04:31Z</time>
      </trkpt>
      <trkpt lat="45.66998" lon="6.82743">
        <ele>2338</ele>
        <time>2019-10-06T12:04:34Z</time>
      </trkpt>
      <trkpt lat="45.66998" lon="6.82746">
        <ele>2338</ele>
        <time>2019-10-06T12:04:35Z</time>
      </trkpt>
      <trkpt lat="45.66999" lon="6.82749">
        <ele>2338</ele>
        <time>2019-10-06T12:04:39Z</time>
      </trkpt>
      <trkpt lat="45.66999" lon="6.82749">
        <ele>2338</ele>
        <time>2019-10-06T12:04:40Z</time>
      </trkpt>
      <trkpt lat="45.66999" lon="6.82752">
        <ele>2339</ele>
        <time>2019-10-06T12:04:43Z</time>
      </trkpt>
      <trkpt lat="45.66999" lon="6.82752">
        <ele>2340</ele>
        <time>2019-10-06T12:04:45Z</time>
      </trkpt>
      <trkpt lat="45.67" lon="6.82754">
        <ele>2340</ele>
        <time>2019-10-06T12:04:47Z</time>
      </trkpt>
      <trkpt lat="45.67001" lon="6.82757">
        <ele>2340</ele>
        <time>2019-10-06T12:04:50Z</time>
      </trkpt>
      <trkpt lat="45.67001" lon="6.82757">
        <ele>2340</ele>
        <time>2019-10-06T12:04:51Z</time>
      </trkpt>
      <trkpt lat="45.67001" lon="6.82759">
        <ele>2341</ele>
        <time>2019-10-06T12:04:53Z</time>
      </trkpt>
      <trkpt lat="45.67001" lon="6.82759">
        <ele>2342</ele>
        <time>2019-10-06T12:04:56Z</time>
      </trkpt>
      <trkpt lat="45.66999" lon="6.82761">
        <ele>2342</ele>
        <time>2019-10-06T12:04:57Z</time>
      </trkpt>
      <trkpt lat="45.66997" lon="6.82761">
        <ele>2343</ele>
        <time>2019-10-06T12:05:01Z</time>
      </trkpt>
      <trkpt lat="45.66997" lon="6.82761">
        <ele>2343</ele>
        <time>2019-10-06T12:05:02Z</time>
      </trkpt>
      <trkpt lat="45.66995" lon="6.82762">
        <ele>2344</ele>
        <time>2019-10-06T12:05:05Z</time>
      </trkpt>
      <trkpt lat="45.66995" lon="6.82762">
        <ele>2344</ele>
        <time>2019-10-06T12:05:07Z</time>
      </trkpt>
      <trkpt lat="45.66993" lon="6.82763">
        <ele>2345</ele>
        <time>2019-10-06T12:05:10Z</time>
      </trkpt>
      <trkpt lat="45.66993" lon="6.82763">
        <ele>2345</ele>
        <time>2019-10-06T12:05:12Z</time>
      </trkpt>
      <trkpt lat="45.66993" lon="6.82763">
        <ele>2345</ele>
        <time>2019-10-06T12:05:16Z</time>
      </trkpt>
      <trkpt lat="45.66994" lon="6.82766">
        <ele>2346</ele>
        <time>2019-10-06T12:05:18Z</time>
      </trkpt>
      <trkpt lat="45.66994" lon="6.82766">
        <ele>2346</ele>
        <time>2019-10-06T12:05:21Z</time>
      </trkpt>
      <trkpt lat="45.66993" lon="6.82768">
        <ele>2346</ele>
        <time>2019-10-06T12:05:23Z</time>
      </trkpt>
      <trkpt lat="45.66993" lon="6.82768">
        <ele>2347</ele>
        <time>2019-10-06T12:05:26Z</time>
      </trkpt>
      <trkpt lat="45.66991" lon="6.82769">
        <ele>2347</ele>
        <time>2019-10-06T12:05:27Z</time>
      </trkpt>
      <trkpt lat="45.66991" lon="6.82769">
        <ele>2348</ele>
        <time>2019-10-06T12:05:31Z</time>
      </trkpt>
      <trkpt lat="45.66991" lon="6.82769">
        <ele>2348</ele>
        <time>2019-10-06T12:05:35Z</time>
      </trkpt>
      <trkpt lat="45.66991" lon="6.82772">
        <ele>2348</ele>
        <time>2019-10-06T12:05:36Z</time>
      </trkpt>
      <trkpt lat="45.66991" lon="6.82775">
        <ele>2349</ele>
        <time>2019-10-06T12:05:40Z</time>
      </trkpt>
      <trkpt lat="45.66991" lon="6.82775">
        <ele>2349</ele>
        <time>2019-10-06T12:05:41Z</time>
      </trkpt>
      <trkpt lat="45.6699" lon="6.82778">
        <ele>2350</ele>
        <time>2019-10-06T12:05:43Z</time>
      </trkpt>
      <trkpt lat="45.6699" lon="6.82778">
        <ele>2350</ele>
        <time>2019-10-06T12:05:46Z</time>
      </trkpt>
      <trkpt lat="45.66988" lon="6.82778">
        <ele>2352</ele>
        <time>2019-10-06T12:05:48Z</time>
      </trkpt>
      <trkpt lat="45.66988" lon="6.82778">
        <ele>2353</ele>
        <time>2019-10-06T12:05:51Z</time>
      </trkpt>
      <trkpt lat="45.66986" lon="6.82778">
        <ele>2354</ele>
        <time>2019-10-06T12:05:53Z</time>
      </trkpt>
      <trkpt lat="45.66986" lon="6.82778">
        <ele>2354</ele>
        <time>2019-10-06T12:05:56Z</time>
      </trkpt>
      <trkpt lat="45.66985" lon="6.82781">
        <ele>2354</ele>
        <time>2019-10-06T12:05:59Z</time>
      </trkpt>
      <trkpt lat="45.66985" lon="6.82781">
        <ele>2355</ele>
        <time>2019-10-06T12:06:01Z</time>
      </trkpt>
      <trkpt lat="45.66983" lon="6.82783">
        <ele>2355</ele>
        <time>2019-10-06T12:06:04Z</time>
      </trkpt>
      <trkpt lat="45.66983" lon="6.82783">
        <ele>2356</ele>
        <time>2019-10-06T12:06:06Z</time>
      </trkpt>
      <trkpt lat="45.66982" lon="6.82783">
        <ele>2357</ele>
        <time>2019-10-06T12:06:10Z</time>
      </trkpt>
      <trkpt lat="45.66982" lon="6.82783">
        <ele>2357</ele>
        <time>2019-10-06T12:06:11Z</time>
      </trkpt>
      <trkpt lat="45.66982" lon="6.82783">
        <ele>2357</ele>
        <time>2019-10-06T12:06:15Z</time>
      </trkpt>
      <trkpt lat="45.66982" lon="6.82786">
        <ele>2358</ele>
        <time>2019-10-06T12:06:19Z</time>
      </trkpt>
      <trkpt lat="45.66982" lon="6.82786">
        <ele>2358</ele>
        <time>2019-10-06T12:06:20Z</time>
      </trkpt>
      <trkpt lat="45.66981" lon="6.82789">
        <ele>2359</ele>
        <time>2019-10-06T12:06:24Z</time>
      </trkpt>
      <trkpt lat="45.66981" lon="6.82789">
        <ele>2359</ele>
        <time>2019-10-06T12:06:25Z</time>
      </trkpt>
      <trkpt lat="45.66981" lon="6.82792">
        <ele>2359</ele>
        <time>2019-10-06T12:06:29Z</time>
      </trkpt>
      <trkpt lat="45.66981" lon="6.82792">
        <ele>2359</ele>
        <time>2019-10-06T12:06:30Z</time>
      </trkpt>
      <trkpt lat="45.6698" lon="6.82794">
        <ele>2360</ele>
        <time>2019-10-06T12:06:33Z</time>
      </trkpt>
      <trkpt lat="45.6698" lon="6.82794">
        <ele>2361</ele>
        <time>2019-10-06T12:06:35Z</time>
      </trkpt>
      <trkpt lat="45.66978" lon="6.82793">
        <ele>2361</ele>
        <time>2019-10-06T12:06:37Z</time>
      </trkpt>
      <trkpt lat="45.66978" lon="6.82793">
        <ele>2362</ele>
        <time>2019-10-06T12:06:40Z</time>
      </trkpt>
      <trkpt lat="45.66976" lon="6.82793">
        <ele>2362</ele>
        <time>2019-10-06T12:06:42Z</time>
      </trkpt>
      <trkpt lat="45.66976" lon="6.82793">
        <ele>2363</ele>
        <time>2019-10-06T12:06:45Z</time>
      </trkpt>
      <trkpt lat="45.66974" lon="6.82794">
        <ele>2363</ele>
        <time>2019-10-06T12:06:47Z</time>
      </trkpt>
      <trkpt lat="45.66974" lon="6.82794">
        <ele>2364</ele>
        <time>2019-10-06T12:06:50Z</time>
      </trkpt>
      <trkpt lat="45.66975" lon="6.82797">
        <ele>2364</ele>
        <time>2019-10-06T12:06:53Z</time>
      </trkpt>
      <trkpt lat="45.66975" lon="6.82797">
        <ele>2364</ele>
        <time>2019-10-06T12:06:55Z</time>
      </trkpt>
      <trkpt lat="45.66976" lon="6.828">
        <ele>2364</ele>
        <time>2019-10-06T12:06:56Z</time>
      </trkpt>
      <trkpt lat="45.66976" lon="6.828">
        <ele>2365</ele>
        <time>2019-10-06T12:07:00Z</time>
      </trkpt>
      <trkpt lat="45.66975" lon="6.82803">
        <ele>2366</ele>
        <time>2019-10-06T12:07:03Z</time>
      </trkpt>
      <trkpt lat="45.66975" lon="6.82803">
        <ele>2366</ele>
        <time>2019-10-06T12:07:05Z</time>
      </trkpt>
      <trkpt lat="45.66976" lon="6.82805">
        <ele>2367</ele>
        <time>2019-10-06T12:07:08Z</time>
      </trkpt>
      <trkpt lat="45.66976" lon="6.82805">
        <ele>2367</ele>
        <time>2019-10-06T12:07:10Z</time>
      </trkpt>
      <trkpt lat="45.66974" lon="6.82808">
        <ele>2368</ele>
        <time>2019-10-06T12:07:13Z</time>
      </trkpt>
      <trkpt lat="45.66974" lon="6.82808">
        <ele>2368</ele>
        <time>2019-10-06T12:07:15Z</time>
      </trkpt>
      <trkpt lat="45.66972" lon="6.82808">
        <ele>2369</ele>
        <time>2019-10-06T12:07:18Z</time>
      </trkpt>
      <trkpt lat="45.66972" lon="6.82808">
        <ele>2369</ele>
        <time>2019-10-06T12:07:20Z</time>
      </trkpt>
      <trkpt lat="45.6697" lon="6.82809">
        <ele>2370</ele>
        <time>2019-10-06T12:07:23Z</time>
      </trkpt>
      <trkpt lat="45.6697" lon="6.82809">
        <ele>2370</ele>
        <time>2019-10-06T12:07:25Z</time>
      </trkpt>
      <trkpt lat="45.6697" lon="6.82809">
        <ele>2371</ele>
        <time>2019-10-06T12:07:29Z</time>
      </trkpt>
      <trkpt lat="45.6697" lon="6.82812">
        <ele>2371</ele>
        <time>2019-10-06T12:07:32Z</time>
      </trkpt>
      <trkpt lat="45.6697" lon="6.82812">
        <ele>2371</ele>
        <time>2019-10-06T12:07:34Z</time>
      </trkpt>
      <trkpt lat="45.66971" lon="6.82815">
        <ele>2371</ele>
        <time>2019-10-06T12:07:35Z</time>
      </trkpt>
      <trkpt lat="45.66971" lon="6.82818">
        <ele>2373</ele>
        <time>2019-10-06T12:07:39Z</time>
      </trkpt>
      <trkpt lat="45.66971" lon="6.82818">
        <ele>2373</ele>
        <time>2019-10-06T12:07:40Z</time>
      </trkpt>
      <trkpt lat="45.66972" lon="6.8282">
        <ele>2373</ele>
        <time>2019-10-06T12:07:42Z</time>
      </trkpt>
      <trkpt lat="45.66973" lon="6.82823">
        <ele>2373</ele>
        <time>2019-10-06T12:07:45Z</time>
      </trkpt>
      <trkpt lat="45.66973" lon="6.82823">
        <ele>2374</ele>
        <time>2019-10-06T12:07:46Z</time>
      </trkpt>
      <trkpt lat="45.66973" lon="6.82825">
        <ele>2374</ele>
        <time>2019-10-06T12:07:49Z</time>
      </trkpt>
      <trkpt lat="45.66973" lon="6.82825">
        <ele>2375</ele>
        <time>2019-10-06T12:07:51Z</time>
      </trkpt>
      <trkpt lat="45.66971" lon="6.82824">
        <ele>2375</ele>
        <time>2019-10-06T12:07:53Z</time>
      </trkpt>
      <trkpt lat="45.66971" lon="6.82824">
        <ele>2375</ele>
        <time>2019-10-06T12:07:56Z</time>
      </trkpt>
      <trkpt lat="45.66969" lon="6.82825">
        <ele>2378</ele>
        <time>2019-10-06T12:07:59Z</time>
      </trkpt>
      <trkpt lat="45.66969" lon="6.82825">
        <ele>2379</ele>
        <time>2019-10-06T12:08:01Z</time>
      </trkpt>
      <trkpt lat="45.66969" lon="6.82825">
        <ele>2379</ele>
        <time>2019-10-06T12:08:05Z</time>
      </trkpt>
      <trkpt lat="45.66967" lon="6.82827">
        <ele>2379</ele>
        <time>2019-10-06T12:08:07Z</time>
      </trkpt>
      <trkpt lat="45.66967" lon="6.82827">
        <ele>2379</ele>
        <time>2019-10-06T12:08:10Z</time>
      </trkpt>
      <trkpt lat="45.66965" lon="6.82826">
        <ele>2380</ele>
        <time>2019-10-06T12:08:11Z</time>
      </trkpt>
      <trkpt lat="45.66964" lon="6.82827">
        <ele>2380</ele>
        <time>2019-10-06T12:08:15Z</time>
      </trkpt>
      <trkpt lat="45.66964" lon="6.82827">
        <ele>2380</ele>
        <time>2019-10-06T12:08:16Z</time>
      </trkpt>
      <trkpt lat="45.66962" lon="6.82826">
        <ele>2381</ele>
        <time>2019-10-06T12:08:19Z</time>
      </trkpt>
      <trkpt lat="45.66962" lon="6.82826">
        <ele>2381</ele>
        <time>2019-10-06T12:08:21Z</time>
      </trkpt>
      <trkpt lat="45.6696" lon="6.82827">
        <ele>2383</ele>
        <time>2019-10-06T12:08:23Z</time>
      </trkpt>
      <trkpt lat="45.6696" lon="6.82827">
        <ele>2383</ele>
        <time>2019-10-06T12:08:26Z</time>
      </trkpt>
      <trkpt lat="45.66958" lon="6.82828">
        <ele>2383</ele>
        <time>2019-10-06T12:08:27Z</time>
      </trkpt>
      <trkpt lat="45.66958" lon="6.82828">
        <ele>2384</ele>
        <time>2019-10-06T12:08:31Z</time>
      </trkpt>
      <trkpt lat="45.66958" lon="6.82831">
        <ele>2384</ele>
        <time>2019-10-06T12:08:34Z</time>
      </trkpt>
      <trkpt lat="45.66958" lon="6.82831">
        <ele>2384</ele>
        <time>2019-10-06T12:08:36Z</time>
      </trkpt>
      <trkpt lat="45.66959" lon="6.82833">
        <ele>2385</ele>
        <time>2019-10-06T12:08:38Z</time>
      </trkpt>
      <trkpt lat="45.66959" lon="6.82833">
        <ele>2385</ele>
        <time>2019-10-06T12:08:41Z</time>
      </trkpt>
      <trkpt lat="45.6696" lon="6.82835">
        <ele>2385</ele>
        <time>2019-10-06T12:08:42Z</time>
      </trkpt>
      <trkpt lat="45.66961" lon="6.82838">
        <ele>2386</ele>
        <time>2019-10-06T12:08:46Z</time>
      </trkpt>
      <trkpt lat="45.66961" lon="6.82838">
        <ele>2386</ele>
        <time>2019-10-06T12:08:47Z</time>
      </trkpt>
      <trkpt lat="45.66963" lon="6.8284">
        <ele>2386</ele>
        <time>2019-10-06T12:08:50Z</time>
      </trkpt>
      <trkpt lat="45.66963" lon="6.8284">
        <ele>2387</ele>
        <time>2019-10-06T12:08:52Z</time>
      </trkpt>
      <trkpt lat="45.66963" lon="6.82843">
        <ele>2387</ele>
        <time>2019-10-06T12:08:56Z</time>
      </trkpt>
      <trkpt lat="45.66963" lon="6.82843">
        <ele>2388</ele>
        <time>2019-10-06T12:08:57Z</time>
      </trkpt>
      <trkpt lat="45.66964" lon="6.82846">
        <ele>2389</ele>
        <time>2019-10-06T12:09:00Z</time>
      </trkpt>
      <trkpt lat="45.66964" lon="6.82846">
        <ele>2390</ele>
        <time>2019-10-06T12:09:02Z</time>
      </trkpt>
      <trkpt lat="45.66964" lon="6.82849">
        <ele>2390</ele>
        <time>2019-10-06T12:09:04Z</time>
      </trkpt>
      <trkpt lat="45.66964" lon="6.82849">
        <ele>2391</ele>
        <time>2019-10-06T12:09:07Z</time>
      </trkpt>
      <trkpt lat="45.66962" lon="6.8285">
        <ele>2391</ele>
        <time>2019-10-06T12:09:09Z</time>
      </trkpt>
      <trkpt lat="45.66962" lon="6.8285">
        <ele>2391</ele>
        <time>2019-10-06T12:09:12Z</time>
      </trkpt>
      <trkpt lat="45.6696" lon="6.8285">
        <ele>2391</ele>
        <time>2019-10-06T12:09:13Z</time>
      </trkpt>
      <trkpt lat="45.66958" lon="6.82849">
        <ele>2392</ele>
        <time>2019-10-06T12:09:17Z</time>
      </trkpt>
      <trkpt lat="45.66958" lon="6.82849">
        <ele>2392</ele>
        <time>2019-10-06T12:09:18Z</time>
      </trkpt>
      <trkpt lat="45.66957" lon="6.82849">
        <ele>2393</ele>
        <time>2019-10-06T12:09:21Z</time>
      </trkpt>
      <trkpt lat="45.66957" lon="6.82849">
        <ele>2393</ele>
        <time>2019-10-06T12:09:23Z</time>
      </trkpt>
      <trkpt lat="45.66954" lon="6.8285">
        <ele>2394</ele>
        <time>2019-10-06T12:09:26Z</time>
      </trkpt>
      <trkpt lat="45.66954" lon="6.8285">
        <ele>2394</ele>
        <time>2019-10-06T12:09:28Z</time>
      </trkpt>
      <trkpt lat="45.66953" lon="6.82851">
        <ele>2394</ele>
        <time>2019-10-06T12:09:30Z</time>
      </trkpt>
      <trkpt lat="45.66951" lon="6.8285">
        <ele>2395</ele>
        <time>2019-10-06T12:09:33Z</time>
      </trkpt>
      <trkpt lat="45.66951" lon="6.8285">
        <ele>2395</ele>
        <time>2019-10-06T12:09:34Z</time>
      </trkpt>
      <trkpt lat="45.66951" lon="6.8285">
        <ele>2395</ele>
        <time>2019-10-06T12:09:38Z</time>
      </trkpt>
      <trkpt lat="45.66949" lon="6.82852">
        <ele>2396</ele>
        <time>2019-10-06T12:09:41Z</time>
      </trkpt>
      <trkpt lat="45.66949" lon="6.82852">
        <ele>2396</ele>
        <time>2019-10-06T12:09:43Z</time>
      </trkpt>
      <trkpt lat="45.6695" lon="6.82855">
        <ele>2398</ele>
        <time>2019-10-06T12:09:45Z</time>
      </trkpt>
      <trkpt lat="45.6695" lon="6.82855">
        <ele>2398</ele>
        <time>2019-10-06T12:09:48Z</time>
      </trkpt>
      <trkpt lat="45.66952" lon="6.82857">
        <ele>2398</ele>
        <time>2019-10-06T12:09:49Z</time>
      </trkpt>
      <trkpt lat="45.66954" lon="6.82859">
        <ele>2398</ele>
        <time>2019-10-06T12:09:52Z</time>
      </trkpt>
      <trkpt lat="45.66954" lon="6.82859">
        <ele>2398</ele>
        <time>2019-10-06T12:09:54Z</time>
      </trkpt>
      <trkpt lat="45.66955" lon="6.82861">
        <ele>2399</ele>
        <time>2019-10-06T12:09:56Z</time>
      </trkpt>
      <trkpt lat="45.66955" lon="6.82861">
        <ele>2399</ele>
        <time>2019-10-06T12:09:59Z</time>
      </trkpt>
      <trkpt lat="45.66954" lon="6.82864">
        <ele>2399</ele>
        <time>2019-10-06T12:10:00Z</time>
      </trkpt>
      <trkpt lat="45.66954" lon="6.82864">
        <ele>2400</ele>
        <time>2019-10-06T12:10:04Z</time>
      </trkpt>
      <trkpt lat="45.66953" lon="6.82866">
        <ele>2400</ele>
        <time>2019-10-06T12:10:07Z</time>
      </trkpt>
      <trkpt lat="45.66953" lon="6.82866">
        <ele>2401</ele>
        <time>2019-10-06T12:10:09Z</time>
      </trkpt>
      <trkpt lat="45.66953" lon="6.82866">
        <ele>2402</ele>
        <time>2019-10-06T12:10:13Z</time>
      </trkpt>
      <trkpt lat="45.66954" lon="6.82869">
        <ele>2402</ele>
        <time>2019-10-06T12:10:14Z</time>
      </trkpt>
      <trkpt lat="45.66954" lon="6.82869">
        <ele>2404</ele>
        <time>2019-10-06T12:10:18Z</time>
      </trkpt>
      <trkpt lat="45.66954" lon="6.82872">
        <ele>2404</ele>
        <time>2019-10-06T12:10:19Z</time>
      </trkpt>
      <trkpt lat="45.66954" lon="6.82872">
        <ele>2405</ele>
        <time>2019-10-06T12:10:23Z</time>
      </trkpt>
      <trkpt lat="45.66955" lon="6.82875">
        <ele>2405</ele>
        <time>2019-10-06T12:10:24Z</time>
      </trkpt>
      <trkpt lat="45.66955" lon="6.82875">
        <ele>2406</ele>
        <time>2019-10-06T12:10:28Z</time>
      </trkpt>
      <trkpt lat="45.66956" lon="6.82877">
        <ele>2406</ele>
        <time>2019-10-06T12:10:29Z</time>
      </trkpt>
      <trkpt lat="45.66956" lon="6.82877">
        <ele>2406</ele>
        <time>2019-10-06T12:10:33Z</time>
      </trkpt>
      <trkpt lat="45.66957" lon="6.8288">
        <ele>2407</ele>
        <time>2019-10-06T12:10:35Z</time>
      </trkpt>
      <trkpt lat="45.66957" lon="6.8288">
        <ele>2407</ele>
        <time>2019-10-06T12:10:38Z</time>
      </trkpt>
      <trkpt lat="45.66958" lon="6.82883">
        <ele>2407</ele>
        <time>2019-10-06T12:10:39Z</time>
      </trkpt>
      <trkpt lat="45.66959" lon="6.82886">
        <ele>2407</ele>
        <time>2019-10-06T12:10:43Z</time>
      </trkpt>
      <trkpt lat="45.66959" lon="6.82886">
        <ele>2408</ele>
        <time>2019-10-06T12:10:44Z</time>
      </trkpt>
      <trkpt lat="45.6696" lon="6.82888">
        <ele>2408</ele>
        <time>2019-10-06T12:10:47Z</time>
      </trkpt>
      <trkpt lat="45.6696" lon="6.82888">
        <ele>2408</ele>
        <time>2019-10-06T12:10:49Z</time>
      </trkpt>
      <trkpt lat="45.66959" lon="6.82891">
        <ele>2410</ele>
        <time>2019-10-06T12:10:52Z</time>
      </trkpt>
      <trkpt lat="45.66959" lon="6.82891">
        <ele>2410</ele>
        <time>2019-10-06T12:10:54Z</time>
      </trkpt>
      <trkpt lat="45.66959" lon="6.82893">
        <ele>2411</ele>
        <time>2019-10-06T12:10:57Z</time>
      </trkpt>
      <trkpt lat="45.66959" lon="6.82893">
        <ele>2411</ele>
        <time>2019-10-06T12:10:59Z</time>
      </trkpt>
      <trkpt lat="45.66959" lon="6.82893">
        <ele>2412</ele>
        <time>2019-10-06T12:11:03Z</time>
      </trkpt>
      <trkpt lat="45.66957" lon="6.82894">
        <ele>2412</ele>
        <time>2019-10-06T12:11:04Z</time>
      </trkpt>
      <trkpt lat="45.66957" lon="6.82894">
        <ele>2413</ele>
        <time>2019-10-06T12:11:08Z</time>
      </trkpt>
      <trkpt lat="45.66955" lon="6.82894">
        <ele>2413</ele>
        <time>2019-10-06T12:11:09Z</time>
      </trkpt>
      <trkpt lat="45.66953" lon="6.82894">
        <ele>2414</ele>
        <time>2019-10-06T12:11:13Z</time>
      </trkpt>
      <trkpt lat="45.66953" lon="6.82894">
        <ele>2414</ele>
        <time>2019-10-06T12:11:14Z</time>
      </trkpt>
      <trkpt lat="45.66951" lon="6.82894">
        <ele>2415</ele>
        <time>2019-10-06T12:11:17Z</time>
      </trkpt>
      <trkpt lat="45.66951" lon="6.82894">
        <ele>2415</ele>
        <time>2019-10-06T12:11:19Z</time>
      </trkpt>
      <trkpt lat="45.66949" lon="6.82893">
        <ele>2415</ele>
        <time>2019-10-06T12:11:21Z</time>
      </trkpt>
      <trkpt lat="45.66949" lon="6.82893">
        <ele>2416</ele>
        <time>2019-10-06T12:11:24Z</time>
      </trkpt>
      <trkpt lat="45.66947" lon="6.82894">
        <ele>2416</ele>
        <time>2019-10-06T12:11:26Z</time>
      </trkpt>
      <trkpt lat="45.66947" lon="6.82894">
        <ele>2416</ele>
        <time>2019-10-06T12:11:29Z</time>
      </trkpt>
      <trkpt lat="45.66945" lon="6.82895">
        <ele>2416</ele>
        <time>2019-10-06T12:11:30Z</time>
      </trkpt>
      <trkpt lat="45.66945" lon="6.82895">
        <ele>2417</ele>
        <time>2019-10-06T12:11:34Z</time>
      </trkpt>
      <trkpt lat="45.66944" lon="6.82898">
        <ele>2417</ele>
        <time>2019-10-06T12:11:38Z</time>
      </trkpt>
      <trkpt lat="45.66944" lon="6.82898">
        <ele>2418</ele>
        <time>2019-10-06T12:11:39Z</time>
      </trkpt>
      <trkpt lat="45.66944" lon="6.82898">
        <ele>2419</ele>
        <time>2019-10-06T12:11:43Z</time>
      </trkpt>
      <trkpt lat="45.66945" lon="6.82901">
        <ele>2419</ele>
        <time>2019-10-06T12:11:44Z</time>
      </trkpt>
      <trkpt lat="45.66945" lon="6.82901">
        <ele>2420</ele>
        <time>2019-10-06T12:11:48Z</time>
      </trkpt>
      <trkpt lat="45.66946" lon="6.82903">
        <ele>2420</ele>
        <time>2019-10-06T12:11:49Z</time>
      </trkpt>
      <trkpt lat="45.66946" lon="6.82903">
        <ele>2421</ele>
        <time>2019-10-06T12:11:53Z</time>
      </trkpt>
      <trkpt lat="45.66946" lon="6.82906">
        <ele>2421</ele>
        <time>2019-10-06T12:11:55Z</time>
      </trkpt>
      <trkpt lat="45.66946" lon="6.82906">
        <ele>2421</ele>
        <time>2019-10-06T12:11:58Z</time>
      </trkpt>
      <trkpt lat="45.66946" lon="6.82909">
        <ele>2421</ele>
        <time>2019-10-06T12:12:02Z</time>
      </trkpt>
      <trkpt lat="45.66946" lon="6.82909">
        <ele>2422</ele>
        <time>2019-10-06T12:12:03Z</time>
      </trkpt>
      <trkpt lat="45.66947" lon="6.82912">
        <ele>2423</ele>
        <time>2019-10-06T12:12:07Z</time>
      </trkpt>
      <trkpt lat="45.66947" lon="6.82912">
        <ele>2423</ele>
        <time>2019-10-06T12:12:08Z</time>
      </trkpt>
      <trkpt lat="45.66947" lon="6.82914">
        <ele>2424</ele>
        <time>2019-10-06T12:12:10Z</time>
      </trkpt>
      <trkpt lat="45.66947" lon="6.82914">
        <ele>2424</ele>
        <time>2019-10-06T12:12:13Z</time>
      </trkpt>
      <trkpt lat="45.66945" lon="6.82916">
        <ele>2424</ele>
        <time>2019-10-06T12:12:15Z</time>
      </trkpt>
      <trkpt lat="45.66945" lon="6.82916">
        <ele>2425</ele>
        <time>2019-10-06T12:12:18Z</time>
      </trkpt>
      <trkpt lat="45.66943" lon="6.82917">
        <ele>2425</ele>
        <time>2019-10-06T12:12:20Z</time>
      </trkpt>
      <trkpt lat="45.66943" lon="6.82917">
        <ele>2426</ele>
        <time>2019-10-06T12:12:23Z</time>
      </trkpt>
      <trkpt lat="45.66941" lon="6.82917">
        <ele>2426</ele>
        <time>2019-10-06T12:12:24Z</time>
      </trkpt>
      <trkpt lat="45.66939" lon="6.82916">
        <ele>2426</ele>
        <time>2019-10-06T12:12:28Z</time>
      </trkpt>
      <trkpt lat="45.66939" lon="6.82916">
        <ele>2427</ele>
        <time>2019-10-06T12:12:29Z</time>
      </trkpt>
      <trkpt lat="45.66937" lon="6.82916">
        <ele>2428</ele>
        <time>2019-10-06T12:12:32Z</time>
      </trkpt>
      <trkpt lat="45.66937" lon="6.82916">
        <ele>2428</ele>
        <time>2019-10-06T12:12:34Z</time>
      </trkpt>
      <trkpt lat="45.66936" lon="6.82917">
        <ele>2430</ele>
        <time>2019-10-06T12:12:37Z</time>
      </trkpt>
      <trkpt lat="45.66936" lon="6.82917">
        <ele>2430</ele>
        <time>2019-10-06T12:12:39Z</time>
      </trkpt>
      <trkpt lat="45.66934" lon="6.82916">
        <ele>2430</ele>
        <time>2019-10-06T12:12:40Z</time>
      </trkpt>
      <trkpt lat="45.66934" lon="6.82916">
        <ele>2431</ele>
        <time>2019-10-06T12:12:44Z</time>
      </trkpt>
      <trkpt lat="45.66932" lon="6.82916">
        <ele>2431</ele>
        <time>2019-10-06T12:12:45Z</time>
      </trkpt>
      <trkpt lat="45.66932" lon="6.82916">
        <ele>2432</ele>
        <time>2019-10-06T12:12:49Z</time>
      </trkpt>
      <trkpt lat="45.66932" lon="6.82916">
        <ele>2432</ele>
        <time>2019-10-06T12:12:53Z</time>
      </trkpt>
      <trkpt lat="45.66929" lon="6.82917">
        <ele>2433</ele>
        <time>2019-10-06T12:12:54Z</time>
      </trkpt>
      <trkpt lat="45.66929" lon="6.82917">
        <ele>2433</ele>
        <time>2019-10-06T12:12:58Z</time>
      </trkpt>
      <trkpt lat="45.66928" lon="6.82918">
        <ele>2433</ele>
        <time>2019-10-06T12:13:00Z</time>
      </trkpt>
      <trkpt lat="45.66928" lon="6.82918">
        <ele>2434</ele>
        <time>2019-10-06T12:13:03Z</time>
      </trkpt>
      <trkpt lat="45.66929" lon="6.82921">
        <ele>2434</ele>
        <time>2019-10-06T12:13:05Z</time>
      </trkpt>
      <trkpt lat="45.66929" lon="6.82921">
        <ele>2435</ele>
        <time>2019-10-06T12:13:08Z</time>
      </trkpt>
      <trkpt lat="45.66929" lon="6.82923">
        <ele>2435</ele>
        <time>2019-10-06T12:13:09Z</time>
      </trkpt>
      <trkpt lat="45.6693" lon="6.82926">
        <ele>2435</ele>
        <time>2019-10-06T12:13:13Z</time>
      </trkpt>
      <trkpt lat="45.6693" lon="6.82926">
        <ele>2436</ele>
        <time>2019-10-06T12:13:14Z</time>
      </trkpt>
      <trkpt lat="45.66929" lon="6.82928">
        <ele>2437</ele>
        <time>2019-10-06T12:13:17Z</time>
      </trkpt>
      <trkpt lat="45.66929" lon="6.82928">
        <ele>2437</ele>
        <time>2019-10-06T12:13:19Z</time>
      </trkpt>
      <trkpt lat="45.66927" lon="6.82927">
        <ele>2437</ele>
        <time>2019-10-06T12:13:20Z</time>
      </trkpt>
      <trkpt lat="45.66925" lon="6.82926">
        <ele>2437</ele>
        <time>2019-10-06T12:13:23Z</time>
      </trkpt>
      <trkpt lat="45.66925" lon="6.82926">
        <ele>2438</ele>
        <time>2019-10-06T12:13:25Z</time>
      </trkpt>
      <trkpt lat="45.66923" lon="6.82924">
        <ele>2438</ele>
        <time>2019-10-06T12:13:26Z</time>
      </trkpt>
      <trkpt lat="45.66921" lon="6.82922">
        <ele>2439</ele>
        <time>2019-10-06T12:13:28Z</time>
      </trkpt>
      <trkpt lat="45.66919" lon="6.82921">
        <ele>2439</ele>
        <time>2019-10-06T12:13:31Z</time>
      </trkpt>
      <trkpt lat="45.66919" lon="6.82921">
        <ele>2439</ele>
        <time>2019-10-06T12:13:32Z</time>
      </trkpt>
      <trkpt lat="45.66918" lon="6.8292">
        <ele>2439</ele>
        <time>2019-10-06T12:13:34Z</time>
      </trkpt>
      <trkpt lat="45.66918" lon="6.8292">
        <ele>2440</ele>
        <time>2019-10-06T12:13:37Z</time>
      </trkpt>
      <trkpt lat="45.66916" lon="6.82919">
        <ele>2440</ele>
        <time>2019-10-06T12:13:38Z</time>
      </trkpt>
      <trkpt lat="45.66916" lon="6.82919">
        <ele>2440</ele>
        <time>2019-10-06T12:13:42Z</time>
      </trkpt>
      <trkpt lat="45.66914" lon="6.8292">
        <ele>2440</ele>
        <time>2019-10-06T12:13:43Z</time>
      </trkpt>
      <trkpt lat="45.66911" lon="6.8292">
        <ele>2441</ele>
        <time>2019-10-06T12:13:47Z</time>
      </trkpt>
      <trkpt lat="45.66911" lon="6.8292">
        <ele>2442</ele>
        <time>2019-10-06T12:13:48Z</time>
      </trkpt>
      <trkpt lat="45.66909" lon="6.82919">
        <ele>2442</ele>
        <time>2019-10-06T12:13:50Z</time>
      </trkpt>
      <trkpt lat="45.66909" lon="6.82919">
        <ele>2442</ele>
        <time>2019-10-06T12:13:53Z</time>
      </trkpt>
      <trkpt lat="45.66908" lon="6.82917">
        <ele>2442</ele>
        <time>2019-10-06T12:13:55Z</time>
      </trkpt>
      <trkpt lat="45.66906" lon="6.82916">
        <ele>2442</ele>
        <time>2019-10-06T12:13:58Z</time>
      </trkpt>
      <trkpt lat="45.66906" lon="6.82916">
        <ele>2443</ele>
        <time>2019-10-06T12:13:59Z</time>
      </trkpt>
      <trkpt lat="45.66904" lon="6.82915">
        <ele>2444</ele>
        <time>2019-10-06T12:14:01Z</time>
      </trkpt>
      <trkpt lat="45.66904" lon="6.82915">
        <ele>2444</ele>
        <time>2019-10-06T12:14:04Z</time>
      </trkpt>
      <trkpt lat="45.66902" lon="6.82915">
        <ele>2444</ele>
        <time>2019-10-06T12:14:05Z</time>
      </trkpt>
      <trkpt lat="45.66899" lon="6.82913">
        <ele>2444</ele>
        <time>2019-10-06T12:14:08Z</time>
      </trkpt>
      <trkpt lat="45.66898" lon="6.82912">
        <ele>2445</ele>
        <time>2019-10-06T12:14:10Z</time>
      </trkpt>
      <trkpt lat="45.66896" lon="6.82909">
        <ele>2445</ele>
        <time>2019-10-06T12:14:13Z</time>
      </trkpt>
      <trkpt lat="45.66896" lon="6.82909">
        <ele>2445</ele>
        <time>2019-10-06T12:14:14Z</time>
      </trkpt>
      <trkpt lat="45.66895" lon="6.82907">
        <ele>2446</ele>
        <time>2019-10-06T12:14:16Z</time>
      </trkpt>
      <trkpt lat="45.66894" lon="6.82905">
        <ele>2446</ele>
        <time>2019-10-06T12:14:18Z</time>
      </trkpt>
      <trkpt lat="45.66894" lon="6.82905">
        <ele>2446</ele>
        <time>2019-10-06T12:14:20Z</time>
      </trkpt>
      <trkpt lat="45.66892" lon="6.82903">
        <ele>2446</ele>
        <time>2019-10-06T12:14:21Z</time>
      </trkpt>
      <trkpt lat="45.6689" lon="6.82902">
        <ele>2446</ele>
        <time>2019-10-06T12:14:24Z</time>
      </trkpt>
      <trkpt lat="45.6689" lon="6.82902">
        <ele>2447</ele>
        <time>2019-10-06T12:14:26Z</time>
      </trkpt>
      <trkpt lat="45.66888" lon="6.829">
        <ele>2447</ele>
        <time>2019-10-06T12:14:28Z</time>
      </trkpt>
      <trkpt lat="45.66888" lon="6.829">
        <ele>2448</ele>
        <time>2019-10-06T12:14:31Z</time>
      </trkpt>
      <trkpt lat="45.66887" lon="6.82897">
        <ele>2448</ele>
        <time>2019-10-06T12:14:32Z</time>
      </trkpt>
      <trkpt lat="45.66887" lon="6.82895">
        <ele>2449</ele>
        <time>2019-10-06T12:14:36Z</time>
      </trkpt>
      <trkpt lat="45.66887" lon="6.82895">
        <ele>2449</ele>
        <time>2019-10-06T12:14:37Z</time>
      </trkpt>
      <trkpt lat="45.66886" lon="6.82892">
        <ele>2449</ele>
        <time>2019-10-06T12:14:40Z</time>
      </trkpt>
      <trkpt lat="45.66886" lon="6.82892">
        <ele>2449</ele>
        <time>2019-10-06T12:14:42Z</time>
      </trkpt>
      <trkpt lat="45.66885" lon="6.8289">
        <ele>2449</ele>
        <time>2019-10-06T12:14:43Z</time>
      </trkpt>
      <trkpt lat="45.66883" lon="6.82887">
        <ele>2450</ele>
        <time>2019-10-06T12:14:46Z</time>
      </trkpt>
      <trkpt lat="45.66883" lon="6.82887">
        <ele>2451</ele>
        <time>2019-10-06T12:14:48Z</time>
      </trkpt>
      <trkpt lat="45.66882" lon="6.82884">
        <ele>2451</ele>
        <time>2019-10-06T12:14:49Z</time>
      </trkpt>
      <trkpt lat="45.66881" lon="6.82882">
        <ele>2452</ele>
        <time>2019-10-06T12:14:51Z</time>
      </trkpt>
      <trkpt lat="45.66879" lon="6.82879">
        <ele>2452</ele>
        <time>2019-10-06T12:14:53Z</time>
      </trkpt>
      <trkpt lat="45.66878" lon="6.82877">
        <ele>2452</ele>
        <time>2019-10-06T12:14:55Z</time>
      </trkpt>
      <trkpt lat="45.66876" lon="6.82875">
        <ele>2452</ele>
        <time>2019-10-06T12:14:58Z</time>
      </trkpt>
      <trkpt lat="45.66876" lon="6.82875">
        <ele>2452</ele>
        <time>2019-10-06T12:14:59Z</time>
      </trkpt>
      <trkpt lat="45.66874" lon="6.82876">
        <ele>2452</ele>
        <time>2019-10-06T12:15:02Z</time>
      </trkpt>
      <trkpt lat="45.66874" lon="6.82876">
        <ele>2453</ele>
        <time>2019-10-06T12:15:04Z</time>
      </trkpt>
      <trkpt lat="45.66871" lon="6.82876">
        <ele>2453</ele>
        <time>2019-10-06T12:15:06Z</time>
      </trkpt>
      <trkpt lat="45.6687" lon="6.82874">
        <ele>2456</ele>
        <time>2019-10-06T12:15:09Z</time>
      </trkpt>
      <trkpt lat="45.6687" lon="6.82874">
        <ele>2456</ele>
        <time>2019-10-06T12:15:10Z</time>
      </trkpt>
      <trkpt lat="45.66868" lon="6.82872">
        <ele>2456</ele>
        <time>2019-10-06T12:15:12Z</time>
      </trkpt>
      <trkpt lat="45.66865" lon="6.82871">
        <ele>2456</ele>
        <time>2019-10-06T12:15:15Z</time>
      </trkpt>
      <trkpt lat="45.66865" lon="6.82871">
        <ele>2456</ele>
        <time>2019-10-06T12:15:16Z</time>
      </trkpt>
      <trkpt lat="45.66863" lon="6.82869">
        <ele>2456</ele>
        <time>2019-10-06T12:15:17Z</time>
      </trkpt>
      <trkpt lat="45.66862" lon="6.82867">
        <ele>2457</ele>
        <time>2019-10-06T12:15:20Z</time>
      </trkpt>
      <trkpt lat="45.66862" lon="6.82867">
        <ele>2457</ele>
        <time>2019-10-06T12:15:22Z</time>
      </trkpt>
      <trkpt lat="45.6686" lon="6.82866">
        <ele>2458</ele>
        <time>2019-10-06T12:15:24Z</time>
      </trkpt>
      <trkpt lat="45.6686" lon="6.82866">
        <ele>2458</ele>
        <time>2019-10-06T12:15:27Z</time>
      </trkpt>
      <trkpt lat="45.66858" lon="6.82866">
        <ele>2458</ele>
        <time>2019-10-06T12:15:28Z</time>
      </trkpt>
      <trkpt lat="45.66856" lon="6.82865">
        <ele>2460</ele>
        <time>2019-10-06T12:15:31Z</time>
      </trkpt>
      <trkpt lat="45.66856" lon="6.82865">
        <ele>2460</ele>
        <time>2019-10-06T12:15:33Z</time>
      </trkpt>
      <trkpt lat="45.66854" lon="6.82865">
        <ele>2460</ele>
        <time>2019-10-06T12:15:34Z</time>
      </trkpt>
      <trkpt lat="45.66852" lon="6.82864">
        <ele>2461</ele>
        <time>2019-10-06T12:15:37Z</time>
      </trkpt>
      <trkpt lat="45.66852" lon="6.82864">
        <ele>2461</ele>
        <time>2019-10-06T12:15:39Z</time>
      </trkpt>
      <trkpt lat="45.6685" lon="6.82864">
        <ele>2461</ele>
        <time>2019-10-06T12:15:41Z</time>
      </trkpt>
      <trkpt lat="45.6685" lon="6.82864">
        <ele>2462</ele>
        <time>2019-10-06T12:15:44Z</time>
      </trkpt>
      <trkpt lat="45.66847" lon="6.82864">
        <ele>2462</ele>
        <time>2019-10-06T12:15:45Z</time>
      </trkpt>
      <trkpt lat="45.66845" lon="6.82864">
        <ele>2462</ele>
        <time>2019-10-06T12:15:48Z</time>
      </trkpt>
      <trkpt lat="45.66845" lon="6.82864">
        <ele>2462</ele>
        <time>2019-10-06T12:15:50Z</time>
      </trkpt>
      <trkpt lat="45.66843" lon="6.82863">
        <ele>2462</ele>
        <time>2019-10-06T12:15:51Z</time>
      </trkpt>
      <trkpt lat="45.66841" lon="6.82863">
        <ele>2463</ele>
        <time>2019-10-06T12:15:54Z</time>
      </trkpt>
      <trkpt lat="45.66841" lon="6.82863">
        <ele>2463</ele>
        <time>2019-10-06T12:15:56Z</time>
      </trkpt>
      <trkpt lat="45.66839" lon="6.82861">
        <ele>2463</ele>
        <time>2019-10-06T12:15:57Z</time>
      </trkpt>
      <trkpt lat="45.66837" lon="6.82861">
        <ele>2464</ele>
        <time>2019-10-06T12:16:00Z</time>
      </trkpt>
      <trkpt lat="45.66837" lon="6.82861">
        <ele>2464</ele>
        <time>2019-10-06T12:16:02Z</time>
      </trkpt>
      <trkpt lat="45.66834" lon="6.8286">
        <ele>2465</ele>
        <time>2019-10-06T12:16:04Z</time>
      </trkpt>
      <trkpt lat="45.66832" lon="6.82859">
        <ele>2465</ele>
        <time>2019-10-06T12:16:07Z</time>
      </trkpt>
      <trkpt lat="45.66832" lon="6.82859">
        <ele>2465</ele>
        <time>2019-10-06T12:16:08Z</time>
      </trkpt>
      <trkpt lat="45.6683" lon="6.82858">
        <ele>2465</ele>
        <time>2019-10-06T12:16:10Z</time>
      </trkpt>
      <trkpt lat="45.66828" lon="6.82858">
        <ele>2466</ele>
        <time>2019-10-06T12:16:13Z</time>
      </trkpt>
      <trkpt lat="45.66828" lon="6.82858">
        <ele>2466</ele>
        <time>2019-10-06T12:16:14Z</time>
      </trkpt>
      <trkpt lat="45.66826" lon="6.82857">
        <ele>2466</ele>
        <time>2019-10-06T12:16:16Z</time>
      </trkpt>
      <trkpt lat="45.66824" lon="6.82856">
        <ele>2467</ele>
        <time>2019-10-06T12:16:19Z</time>
      </trkpt>
      <trkpt lat="45.66824" lon="6.82856">
        <ele>2467</ele>
        <time>2019-10-06T12:16:20Z</time>
      </trkpt>
      <trkpt lat="45.66823" lon="6.82854">
        <ele>2467</ele>
        <time>2019-10-06T12:16:22Z</time>
      </trkpt>
      <trkpt lat="45.66822" lon="6.82852">
        <ele>2468</ele>
        <time>2019-10-06T12:16:24Z</time>
      </trkpt>
      <trkpt lat="45.66821" lon="6.82849">
        <ele>2468</ele>
        <time>2019-10-06T12:16:26Z</time>
      </trkpt>
      <trkpt lat="45.66818" lon="6.82847">
        <ele>2468</ele>
        <time>2019-10-06T12:16:29Z</time>
      </trkpt>
      <trkpt lat="45.66818" lon="6.82847">
        <ele>2468</ele>
        <time>2019-10-06T12:16:30Z</time>
      </trkpt>
      <trkpt lat="45.66816" lon="6.82845">
        <ele>2468</ele>
        <time>2019-10-06T12:16:32Z</time>
      </trkpt>
      <trkpt lat="45.66814" lon="6.82844">
        <ele>2468</ele>
        <time>2019-10-06T12:16:35Z</time>
      </trkpt>
      <trkpt lat="45.66814" lon="6.82844">
        <ele>2468</ele>
        <time>2019-10-06T12:16:36Z</time>
      </trkpt>
      <trkpt lat="45.66812" lon="6.82844">
        <ele>2468</ele>
        <time>2019-10-06T12:16:39Z</time>
      </trkpt>
      <trkpt lat="45.66812" lon="6.82844">
        <ele>2469</ele>
        <time>2019-10-06T12:16:41Z</time>
      </trkpt>
      <trkpt lat="45.66812" lon="6.82844">
        <ele>2469</ele>
        <time>2019-10-06T12:16:45Z</time>
      </trkpt>
      <trkpt lat="45.66813" lon="6.82847">
        <ele>2469</ele>
        <time>2019-10-06T12:16:47Z</time>
      </trkpt>
      <trkpt lat="45.66814" lon="6.8285">
        <ele>2470</ele>
        <time>2019-10-06T12:16:50Z</time>
      </trkpt>
      <trkpt lat="45.66814" lon="6.8285">
        <ele>2470</ele>
        <time>2019-10-06T12:16:51Z</time>
      </trkpt>
      <trkpt lat="45.66815" lon="6.82853">
        <ele>2471</ele>
        <time>2019-10-06T12:16:53Z</time>
      </trkpt>
      <trkpt lat="45.66815" lon="6.82853">
        <ele>2471</ele>
        <time>2019-10-06T12:16:56Z</time>
      </trkpt>
      <trkpt lat="45.66815" lon="6.82856">
        <ele>2471</ele>
        <time>2019-10-06T12:16:57Z</time>
      </trkpt>
      <trkpt lat="45.66816" lon="6.82859">
        <ele>2472</ele>
        <time>2019-10-06T12:17:01Z</time>
      </trkpt>
      <trkpt lat="45.66816" lon="6.82859">
        <ele>2472</ele>
        <time>2019-10-06T12:17:02Z</time>
      </trkpt>
      <trkpt lat="45.66816" lon="6.82862">
        <ele>2472</ele>
        <time>2019-10-06T12:17:05Z</time>
      </trkpt>
      <trkpt lat="45.66816" lon="6.82862">
        <ele>2472</ele>
        <time>2019-10-06T12:17:07Z</time>
      </trkpt>
      <trkpt lat="45.66817" lon="6.82865">
        <ele>2475</ele>
        <time>2019-10-06T12:17:09Z</time>
      </trkpt>
      <trkpt lat="45.66817" lon="6.82865">
        <ele>2475</ele>
        <time>2019-10-06T12:17:12Z</time>
      </trkpt>
      <trkpt lat="45.66818" lon="6.82868">
        <ele>2475</ele>
        <time>2019-10-06T12:17:13Z</time>
      </trkpt>
      <trkpt lat="45.66817" lon="6.8287">
        <ele>2476</ele>
        <time>2019-10-06T12:17:17Z</time>
      </trkpt>
      <trkpt lat="45.66817" lon="6.8287">
        <ele>2477</ele>
        <time>2019-10-06T12:17:18Z</time>
      </trkpt>
      <trkpt lat="45.66815" lon="6.82869">
        <ele>2477</ele>
        <time>2019-10-06T12:17:21Z</time>
      </trkpt>
      <trkpt lat="45.66815" lon="6.82869">
        <ele>2478</ele>
        <time>2019-10-06T12:17:23Z</time>
      </trkpt>
      <trkpt lat="45.66813" lon="6.82869">
        <ele>2478</ele>
        <time>2019-10-06T12:17:25Z</time>
      </trkpt>
      <trkpt lat="45.66813" lon="6.82869">
        <ele>2478</ele>
        <time>2019-10-06T12:17:28Z</time>
      </trkpt>
      <trkpt lat="45.66811" lon="6.82869">
        <ele>2479</ele>
        <time>2019-10-06T12:17:30Z</time>
      </trkpt>
      <trkpt lat="45.66811" lon="6.82869">
        <ele>2480</ele>
        <time>2019-10-06T12:17:33Z</time>
      </trkpt>
      <trkpt lat="45.66809" lon="6.82868">
        <ele>2480</ele>
        <time>2019-10-06T12:17:34Z</time>
      </trkpt>
      <trkpt lat="45.66809" lon="6.82868">
        <ele>2480</ele>
        <time>2019-10-06T12:17:38Z</time>
      </trkpt>
      <trkpt lat="45.66809" lon="6.82868">
        <ele>2480</ele>
        <time>2019-10-06T12:17:42Z</time>
      </trkpt>
      <trkpt lat="45.66807" lon="6.82869">
        <ele>2480</ele>
        <time>2019-10-06T12:17:45Z</time>
      </trkpt>
      <trkpt lat="45.66807" lon="6.82869">
        <ele>2481</ele>
        <time>2019-10-06T12:17:47Z</time>
      </trkpt>
      <trkpt lat="45.66808" lon="6.82871">
        <ele>2481</ele>
        <time>2019-10-06T12:17:50Z</time>
      </trkpt>
      <trkpt lat="45.66808" lon="6.82871">
        <ele>2482</ele>
        <time>2019-10-06T12:17:52Z</time>
      </trkpt>
      <trkpt lat="45.66809" lon="6.82874">
        <ele>2482</ele>
        <time>2019-10-06T12:17:54Z</time>
      </trkpt>
      <trkpt lat="45.66809" lon="6.82874">
        <ele>2483</ele>
        <time>2019-10-06T12:17:57Z</time>
      </trkpt>
      <trkpt lat="45.66809" lon="6.82877">
        <ele>2483</ele>
        <time>2019-10-06T12:17:58Z</time>
      </trkpt>
      <trkpt lat="45.66809" lon="6.82877">
        <ele>2483</ele>
        <time>2019-10-06T12:18:02Z</time>
      </trkpt>
      <trkpt lat="45.6681" lon="6.8288">
        <ele>2484</ele>
        <time>2019-10-06T12:18:03Z</time>
      </trkpt>
      <trkpt lat="45.6681" lon="6.8288">
        <ele>2484</ele>
        <time>2019-10-06T12:18:07Z</time>
      </trkpt>
      <trkpt lat="45.66811" lon="6.82882">
        <ele>2484</ele>
        <time>2019-10-06T12:18:08Z</time>
      </trkpt>
      <trkpt lat="45.66811" lon="6.82882">
        <ele>2484</ele>
        <time>2019-10-06T12:18:12Z</time>
      </trkpt>
      <trkpt lat="45.66812" lon="6.82885">
        <ele>2486</ele>
        <time>2019-10-06T12:18:14Z</time>
      </trkpt>
      <trkpt lat="45.66812" lon="6.82885">
        <ele>2486</ele>
        <time>2019-10-06T12:18:17Z</time>
      </trkpt>
      <trkpt lat="45.66813" lon="6.82888">
        <ele>2488</ele>
        <time>2019-10-06T12:18:20Z</time>
      </trkpt>
      <trkpt lat="45.66813" lon="6.82888">
        <ele>2488</ele>
        <time>2019-10-06T12:18:22Z</time>
      </trkpt>
      <trkpt lat="45.66811" lon="6.82889">
        <ele>2489</ele>
        <time>2019-10-06T12:18:26Z</time>
      </trkpt>
      <trkpt lat="45.66811" lon="6.82889">
        <ele>2489</ele>
        <time>2019-10-06T12:18:27Z</time>
      </trkpt>
      <trkpt lat="45.66809" lon="6.82889">
        <ele>2489</ele>
        <time>2019-10-06T12:18:30Z</time>
      </trkpt>
      <trkpt lat="45.66809" lon="6.82889">
        <ele>2489</ele>
        <time>2019-10-06T12:18:32Z</time>
      </trkpt>
      <trkpt lat="45.66807" lon="6.8289">
        <ele>2491</ele>
        <time>2019-10-06T12:18:36Z</time>
      </trkpt>
      <trkpt lat="45.66807" lon="6.8289">
        <ele>2491</ele>
        <time>2019-10-06T12:18:37Z</time>
      </trkpt>
      <trkpt lat="45.66807" lon="6.8289">
        <ele>2492</ele>
        <time>2019-10-06T12:18:41Z</time>
      </trkpt>
      <trkpt lat="45.66806" lon="6.82891">
        <ele>2492</ele>
        <time>2019-10-06T12:18:42Z</time>
      </trkpt>
      <trkpt lat="45.66806" lon="6.82891">
        <ele>2492</ele>
        <time>2019-10-06T12:18:46Z</time>
      </trkpt>
      <trkpt lat="45.66806" lon="6.82891">
        <ele>2493</ele>
        <time>2019-10-06T12:18:50Z</time>
      </trkpt>
      <trkpt lat="45.66804" lon="6.82892">
        <ele>2493</ele>
        <time>2019-10-06T12:18:52Z</time>
      </trkpt>
      <trkpt lat="45.66804" lon="6.82892">
        <ele>2494</ele>
        <time>2019-10-06T12:18:55Z</time>
      </trkpt>
      <trkpt lat="45.66802" lon="6.82894">
        <ele>2494</ele>
        <time>2019-10-06T12:18:57Z</time>
      </trkpt>
      <trkpt lat="45.66802" lon="6.82894">
        <ele>2494</ele>
        <time>2019-10-06T12:19:00Z</time>
      </trkpt>
      <trkpt lat="45.668" lon="6.82894">
        <ele>2495</ele>
        <time>2019-10-06T12:19:02Z</time>
      </trkpt>
      <trkpt lat="45.668" lon="6.82894">
        <ele>2496</ele>
        <time>2019-10-06T12:19:05Z</time>
      </trkpt>
      <trkpt lat="45.66798" lon="6.82894">
        <ele>2495</ele>
        <time>2019-10-06T12:19:06Z</time>
      </trkpt>
      <trkpt lat="45.66795" lon="6.82894">
        <ele>2495</ele>
        <time>2019-10-06T12:19:10Z</time>
      </trkpt>
      <trkpt lat="45.66795" lon="6.82894">
        <ele>2496</ele>
        <time>2019-10-06T12:19:11Z</time>
      </trkpt>
      <trkpt lat="45.66793" lon="6.82894">
        <ele>2498</ele>
        <time>2019-10-06T12:19:14Z</time>
      </trkpt>
      <trkpt lat="45.66793" lon="6.82894">
        <ele>2499</ele>
        <time>2019-10-06T12:19:16Z</time>
      </trkpt>
      <trkpt lat="45.66793" lon="6.82894">
        <ele>2499</ele>
        <time>2019-10-06T12:19:20Z</time>
      </trkpt>
      <trkpt lat="45.66793" lon="6.82894">
        <ele>2499</ele>
        <time>2019-10-06T12:19:24Z</time>
      </trkpt>
      <trkpt lat="45.66794" lon="6.82896">
        <ele>2499</ele>
        <time>2019-10-06T12:19:27Z</time>
      </trkpt>
      <trkpt lat="45.66794" lon="6.82896">
        <ele>2499</ele>
        <time>2019-10-06T12:19:29Z</time>
      </trkpt>
      <trkpt lat="45.66795" lon="6.82899">
        <ele>2500</ele>
        <time>2019-10-06T12:19:31Z</time>
      </trkpt>
      <trkpt lat="45.66797" lon="6.82901">
        <ele>2501</ele>
        <time>2019-10-06T12:19:34Z</time>
      </trkpt>
      <trkpt lat="45.66797" lon="6.82901">
        <ele>2501</ele>
        <time>2019-10-06T12:19:35Z</time>
      </trkpt>
      <trkpt lat="45.66798" lon="6.82903">
        <ele>2501</ele>
        <time>2019-10-06T12:19:38Z</time>
      </trkpt>
      <trkpt lat="45.66798" lon="6.82903">
        <ele>2502</ele>
        <time>2019-10-06T12:19:40Z</time>
      </trkpt>
      <trkpt lat="45.66799" lon="6.82906">
        <ele>2502</ele>
        <time>2019-10-06T12:19:43Z</time>
      </trkpt>
      <trkpt lat="45.66799" lon="6.82906">
        <ele>2503</ele>
        <time>2019-10-06T12:19:45Z</time>
      </trkpt>
      <trkpt lat="45.668" lon="6.82908">
        <ele>2504</ele>
        <time>2019-10-06T12:19:47Z</time>
      </trkpt>
      <trkpt lat="45.668" lon="6.82908">
        <ele>2504</ele>
        <time>2019-10-06T12:19:50Z</time>
      </trkpt>
      <trkpt lat="45.66801" lon="6.8291">
        <ele>2504</ele>
        <time>2019-10-06T12:19:51Z</time>
      </trkpt>
      <trkpt lat="45.66803" lon="6.82912">
        <ele>2504</ele>
        <time>2019-10-06T12:19:55Z</time>
      </trkpt>
      <trkpt lat="45.66803" lon="6.82912">
        <ele>2504</ele>
        <time>2019-10-06T12:19:56Z</time>
      </trkpt>
      <trkpt lat="45.66805" lon="6.82914">
        <ele>2505</ele>
        <time>2019-10-06T12:19:59Z</time>
      </trkpt>
      <trkpt lat="45.66805" lon="6.82914">
        <ele>2505</ele>
        <time>2019-10-06T12:20:01Z</time>
      </trkpt>
      <trkpt lat="45.66807" lon="6.82916">
        <ele>2505</ele>
        <time>2019-10-06T12:20:02Z</time>
      </trkpt>
      <trkpt lat="45.66809" lon="6.82917">
        <ele>2505</ele>
        <time>2019-10-06T12:20:05Z</time>
      </trkpt>
      <trkpt lat="45.66809" lon="6.82917">
        <ele>2505</ele>
        <time>2019-10-06T12:20:07Z</time>
      </trkpt>
      <trkpt lat="45.66811" lon="6.82918">
        <ele>2505</ele>
        <time>2019-10-06T12:20:11Z</time>
      </trkpt>
      <trkpt lat="45.66811" lon="6.82918">
        <ele>2505</ele>
        <time>2019-10-06T12:20:12Z</time>
      </trkpt>
      <trkpt lat="45.66811" lon="6.82921">
        <ele>2506</ele>
        <time>2019-10-06T12:20:16Z</time>
      </trkpt>
      <trkpt lat="45.66811" lon="6.82921">
        <ele>2506</ele>
        <time>2019-10-06T12:20:17Z</time>
      </trkpt>
      <trkpt lat="45.66812" lon="6.82924">
        <ele>2508</ele>
        <time>2019-10-06T12:20:21Z</time>
      </trkpt>
      <trkpt lat="45.66812" lon="6.82924">
        <ele>2508</ele>
        <time>2019-10-06T12:20:22Z</time>
      </trkpt>
      <trkpt lat="45.66814" lon="6.82925">
        <ele>2508</ele>
        <time>2019-10-06T12:20:24Z</time>
      </trkpt>
      <trkpt lat="45.66816" lon="6.82927">
        <ele>2508</ele>
        <time>2019-10-06T12:20:27Z</time>
      </trkpt>
      <trkpt lat="45.66816" lon="6.82927">
        <ele>2510</ele>
        <time>2019-10-06T12:20:28Z</time>
      </trkpt>
      <trkpt lat="45.66817" lon="6.82929">
        <ele>2510</ele>
        <time>2019-10-06T12:20:31Z</time>
      </trkpt>
      <trkpt lat="45.66817" lon="6.82929">
        <ele>2510</ele>
        <time>2019-10-06T12:20:33Z</time>
      </trkpt>
      <trkpt lat="45.66819" lon="6.82932">
        <ele>2510</ele>
        <time>2019-10-06T12:20:34Z</time>
      </trkpt>
      <trkpt lat="45.66819" lon="6.82934">
        <ele>2511</ele>
        <time>2019-10-06T12:20:37Z</time>
      </trkpt>
      <trkpt lat="45.66819" lon="6.82934">
        <ele>2512</ele>
        <time>2019-10-06T12:20:39Z</time>
      </trkpt>
      <trkpt lat="45.66818" lon="6.82936">
        <ele>2512</ele>
        <time>2019-10-06T12:20:41Z</time>
      </trkpt>
      <trkpt lat="45.66816" lon="6.82935">
        <ele>2512</ele>
        <time>2019-10-06T12:20:44Z</time>
      </trkpt>
      <trkpt lat="45.66816" lon="6.82935">
        <ele>2512</ele>
        <time>2019-10-06T12:20:45Z</time>
      </trkpt>
      <trkpt lat="45.66814" lon="6.82935">
        <ele>2513</ele>
        <time>2019-10-06T12:20:47Z</time>
      </trkpt>
      <trkpt lat="45.66814" lon="6.82935">
        <ele>2514</ele>
        <time>2019-10-06T12:20:50Z</time>
      </trkpt>
      <trkpt lat="45.66812" lon="6.82936">
        <ele>2514</ele>
        <time>2019-10-06T12:20:51Z</time>
      </trkpt>
      <trkpt lat="45.6681" lon="6.82936">
        <ele>2514</ele>
        <time>2019-10-06T12:20:54Z</time>
      </trkpt>
      <trkpt lat="45.6681" lon="6.82936">
        <ele>2515</ele>
        <time>2019-10-06T12:20:56Z</time>
      </trkpt>
      <trkpt lat="45.66808" lon="6.82936">
        <ele>2515</ele>
        <time>2019-10-06T12:20:57Z</time>
      </trkpt>
      <trkpt lat="45.66806" lon="6.82934">
        <ele>2515</ele>
        <time>2019-10-06T12:21:00Z</time>
      </trkpt>
      <trkpt lat="45.66806" lon="6.82934">
        <ele>2515</ele>
        <time>2019-10-06T12:21:02Z</time>
      </trkpt>
      <trkpt lat="45.66804" lon="6.82934">
        <ele>2516</ele>
        <time>2019-10-06T12:21:03Z</time>
      </trkpt>
      <trkpt lat="45.66802" lon="6.82933">
        <ele>2516</ele>
        <time>2019-10-06T12:21:07Z</time>
      </trkpt>
      <trkpt lat="45.66802" lon="6.82933">
        <ele>2516</ele>
        <time>2019-10-06T12:21:08Z</time>
      </trkpt>
      <trkpt lat="45.668" lon="6.82934">
        <ele>2517</ele>
        <time>2019-10-06T12:21:12Z</time>
      </trkpt>
      <trkpt lat="45.668" lon="6.82934">
        <ele>2517</ele>
        <time>2019-10-06T12:21:13Z</time>
      </trkpt>
      <trkpt lat="45.66798" lon="6.82935">
        <ele>2518</ele>
        <time>2019-10-06T12:21:17Z</time>
      </trkpt>
      <trkpt lat="45.66798" lon="6.82935">
        <ele>2518</ele>
        <time>2019-10-06T12:21:18Z</time>
      </trkpt>
      <trkpt lat="45.66796" lon="6.82934">
        <ele>2518</ele>
        <time>2019-10-06T12:21:21Z</time>
      </trkpt>
      <trkpt lat="45.66796" lon="6.82934">
        <ele>2519</ele>
        <time>2019-10-06T12:21:23Z</time>
      </trkpt>
      <trkpt lat="45.66794" lon="6.82933">
        <ele>2520</ele>
        <time>2019-10-06T12:21:24Z</time>
      </trkpt>
      <trkpt lat="45.66792" lon="6.82932">
        <ele>2519</ele>
        <time>2019-10-06T12:21:27Z</time>
      </trkpt>
      <trkpt lat="45.66792" lon="6.82932">
        <ele>2520</ele>
        <time>2019-10-06T12:21:29Z</time>
      </trkpt>
      <trkpt lat="45.6679" lon="6.82933">
        <ele>2522</ele>
        <time>2019-10-06T12:21:32Z</time>
      </trkpt>
      <trkpt lat="45.6679" lon="6.82933">
        <ele>2522</ele>
        <time>2019-10-06T12:21:34Z</time>
      </trkpt>
      <trkpt lat="45.66788" lon="6.82935">
        <ele>2522</ele>
        <time>2019-10-06T12:21:36Z</time>
      </trkpt>
      <trkpt lat="45.66788" lon="6.82935">
        <ele>2523</ele>
        <time>2019-10-06T12:21:39Z</time>
      </trkpt>
      <trkpt lat="45.66786" lon="6.82936">
        <ele>2522</ele>
        <time>2019-10-06T12:21:42Z</time>
      </trkpt>
      <trkpt lat="45.66786" lon="6.82936">
        <ele>2523</ele>
        <time>2019-10-06T12:21:44Z</time>
      </trkpt>
      <trkpt lat="45.66784" lon="6.82937">
        <ele>2523</ele>
        <time>2019-10-06T12:21:46Z</time>
      </trkpt>
      <trkpt lat="45.66784" lon="6.82937">
        <ele>2523</ele>
        <time>2019-10-06T12:21:49Z</time>
      </trkpt>
      <trkpt lat="45.66783" lon="6.82938">
        <ele>2523</ele>
        <time>2019-10-06T12:21:50Z</time>
      </trkpt>
      <trkpt lat="45.66781" lon="6.82938">
        <ele>2525</ele>
        <time>2019-10-06T12:21:54Z</time>
      </trkpt>
      <trkpt lat="45.66781" lon="6.82938">
        <ele>2525</ele>
        <time>2019-10-06T12:21:55Z</time>
      </trkpt>
      <trkpt lat="45.66779" lon="6.82939">
        <ele>2525</ele>
        <time>2019-10-06T12:21:59Z</time>
      </trkpt>
      <trkpt lat="45.66779" lon="6.82939">
        <ele>2525</ele>
        <time>2019-10-06T12:22:00Z</time>
      </trkpt>
      <trkpt lat="45.66779" lon="6.82939">
        <ele>2526</ele>
        <time>2019-10-06T12:22:04Z</time>
      </trkpt>
      <trkpt lat="45.66776" lon="6.82938">
        <ele>2526</ele>
        <time>2019-10-06T12:22:06Z</time>
      </trkpt>
      <trkpt lat="45.66776" lon="6.82938">
        <ele>2526</ele>
        <time>2019-10-06T12:22:09Z</time>
      </trkpt>
      <trkpt lat="45.66776" lon="6.82938">
        <ele>2527</ele>
        <time>2019-10-06T12:22:13Z</time>
      </trkpt>
      <trkpt lat="45.66775" lon="6.8294">
        <ele>2527</ele>
        <time>2019-10-06T12:22:16Z</time>
      </trkpt>
      <trkpt lat="45.66775" lon="6.8294">
        <ele>2527</ele>
        <time>2019-10-06T12:22:18Z</time>
      </trkpt>
      <trkpt lat="45.66775" lon="6.8294">
        <ele>2527</ele>
        <time>2019-10-06T12:22:22Z</time>
      </trkpt>
      <trkpt lat="45.66775" lon="6.8294">
        <ele>2528</ele>
        <time>2019-10-06T12:22:26Z</time>
      </trkpt>
      <trkpt lat="45.66775" lon="6.8294">
        <ele>2528</ele>
        <time>2019-10-06T12:22:30Z</time>
      </trkpt>
      <trkpt lat="45.66776" lon="6.82943">
        <ele>2530</ele>
        <time>2019-10-06T12:22:34Z</time>
      </trkpt>
      <trkpt lat="45.66776" lon="6.82943">
        <ele>2530</ele>
        <time>2019-10-06T12:22:35Z</time>
      </trkpt>
      <trkpt lat="45.66776" lon="6.82943">
        <ele>2531</ele>
        <time>2019-10-06T12:22:39Z</time>
      </trkpt>
      <trkpt lat="45.66776" lon="6.82946">
        <ele>2531</ele>
        <time>2019-10-06T12:22:43Z</time>
      </trkpt>
      <trkpt lat="45.66776" lon="6.82946">
        <ele>2531</ele>
        <time>2019-10-06T12:22:44Z</time>
      </trkpt>
      <trkpt lat="45.66777" lon="6.82948">
        <ele>2532</ele>
        <time>2019-10-06T12:22:48Z</time>
      </trkpt>
      <trkpt lat="45.66777" lon="6.82948">
        <ele>2532</ele>
        <time>2019-10-06T12:22:49Z</time>
      </trkpt>
      <trkpt lat="45.66778" lon="6.8295">
        <ele>2533</ele>
        <time>2019-10-06T12:22:53Z</time>
      </trkpt>
      <trkpt lat="45.66778" lon="6.8295">
        <ele>2533</ele>
        <time>2019-10-06T12:22:54Z</time>
      </trkpt>
      <trkpt lat="45.66778" lon="6.8295">
        <ele>2535</ele>
        <time>2019-10-06T12:22:58Z</time>
      </trkpt>
      <trkpt lat="45.66779" lon="6.82953">
        <ele>2535</ele>
        <time>2019-10-06T12:22:59Z</time>
      </trkpt>
      <trkpt lat="45.66781" lon="6.82955">
        <ele>2535</ele>
        <time>2019-10-06T12:23:03Z</time>
      </trkpt>
      <trkpt lat="45.66781" lon="6.82955">
        <ele>2536</ele>
        <time>2019-10-06T12:23:04Z</time>
      </trkpt>
      <trkpt lat="45.66782" lon="6.82956">
        <ele>2536</ele>
        <time>2019-10-06T12:23:06Z</time>
      </trkpt>
      <trkpt lat="45.66782" lon="6.82956">
        <ele>2537</ele>
        <time>2019-10-06T12:23:09Z</time>
      </trkpt>
      <trkpt lat="45.66783" lon="6.82959">
        <ele>2538</ele>
        <time>2019-10-06T12:23:12Z</time>
      </trkpt>
      <trkpt lat="45.66783" lon="6.82959">
        <ele>2538</ele>
        <time>2019-10-06T12:23:14Z</time>
      </trkpt>
      <trkpt lat="45.66783" lon="6.82959">
        <ele>2538</ele>
        <time>2019-10-06T12:23:18Z</time>
      </trkpt>
      <trkpt lat="45.66784" lon="6.82962">
        <ele>2539</ele>
        <time>2019-10-06T12:23:19Z</time>
      </trkpt>
      <trkpt lat="45.66784" lon="6.82962">
        <ele>2540</ele>
        <time>2019-10-06T12:23:23Z</time>
      </trkpt>
      <trkpt lat="45.66782" lon="6.82963">
        <ele>2540</ele>
        <time>2019-10-06T12:23:24Z</time>
      </trkpt>
      <trkpt lat="45.6678" lon="6.82963">
        <ele>2540</ele>
        <time>2019-10-06T12:23:28Z</time>
      </trkpt>
      <trkpt lat="45.6678" lon="6.82963">
        <ele>2541</ele>
        <time>2019-10-06T12:23:29Z</time>
      </trkpt>
      <trkpt lat="45.66778" lon="6.82964">
        <ele>2541</ele>
        <time>2019-10-06T12:23:32Z</time>
      </trkpt>
      <trkpt lat="45.66778" lon="6.82964">
        <ele>2542</ele>
        <time>2019-10-06T12:23:34Z</time>
      </trkpt>
      <trkpt lat="45.66776" lon="6.82964">
        <ele>2542</ele>
        <time>2019-10-06T12:23:36Z</time>
      </trkpt>
      <trkpt lat="45.66776" lon="6.82964">
        <ele>2542</ele>
        <time>2019-10-06T12:23:39Z</time>
      </trkpt>
      <trkpt lat="45.66774" lon="6.82965">
        <ele>2543</ele>
        <time>2019-10-06T12:23:43Z</time>
      </trkpt>
      <trkpt lat="45.66774" lon="6.82965">
        <ele>2543</ele>
        <time>2019-10-06T12:23:44Z</time>
      </trkpt>
      <trkpt lat="45.66774" lon="6.82965">
        <ele>2544</ele>
        <time>2019-10-06T12:23:48Z</time>
      </trkpt>
      <trkpt lat="45.66773" lon="6.82967">
        <ele>2544</ele>
        <time>2019-10-06T12:23:49Z</time>
      </trkpt>
      <trkpt lat="45.66771" lon="6.82968">
        <ele>2544</ele>
        <time>2019-10-06T12:23:53Z</time>
      </trkpt>
      <trkpt lat="45.66771" lon="6.82968">
        <ele>2544</ele>
        <time>2019-10-06T12:23:54Z</time>
      </trkpt>
      <trkpt lat="45.66769" lon="6.82968">
        <ele>2545</ele>
        <time>2019-10-06T12:23:56Z</time>
      </trkpt>
      <trkpt lat="45.66769" lon="6.82968">
        <ele>2547</ele>
        <time>2019-10-06T12:23:59Z</time>
      </trkpt>
      <trkpt lat="45.66766" lon="6.82968">
        <ele>2547</ele>
        <time>2019-10-06T12:24:00Z</time>
      </trkpt>
      <trkpt lat="45.66764" lon="6.82969">
        <ele>2548</ele>
        <time>2019-10-06T12:24:04Z</time>
      </trkpt>
      <trkpt lat="45.66764" lon="6.82969">
        <ele>2548</ele>
        <time>2019-10-06T12:24:05Z</time>
      </trkpt>
      <trkpt lat="45.66764" lon="6.82969">
        <ele>2548</ele>
        <time>2019-10-06T12:24:09Z</time>
      </trkpt>
      <trkpt lat="45.66765" lon="6.8297">
        <ele>2548</ele>
        <time>2019-10-06T12:24:13Z</time>
      </trkpt>
      <trkpt lat="45.66765" lon="6.8297">
        <ele>2548</ele>
        <time>2019-10-06T12:24:14Z</time>
      </trkpt>
      <trkpt lat="45.66765" lon="6.8297">
        <ele>2549</ele>
        <time>2019-10-06T12:24:18Z</time>
      </trkpt>
      <trkpt lat="45.66767" lon="6.82972">
        <ele>2549</ele>
        <time>2019-10-06T12:24:21Z</time>
      </trkpt>
      <trkpt lat="45.66767" lon="6.82972">
        <ele>2549</ele>
        <time>2019-10-06T12:24:23Z</time>
      </trkpt>
      <trkpt lat="45.66767" lon="6.82972">
        <ele>2550</ele>
        <time>2019-10-06T12:24:27Z</time>
      </trkpt>
      <trkpt lat="45.66767" lon="6.82975">
        <ele>2551</ele>
        <time>2019-10-06T12:24:31Z</time>
      </trkpt>
      <trkpt lat="45.66767" lon="6.82975">
        <ele>2551</ele>
        <time>2019-10-06T12:24:32Z</time>
      </trkpt>
      <trkpt lat="45.66767" lon="6.82975">
        <ele>2552</ele>
        <time>2019-10-06T12:24:36Z</time>
      </trkpt>
      <trkpt lat="45.66767" lon="6.82978">
        <ele>2552</ele>
        <time>2019-10-06T12:24:38Z</time>
      </trkpt>
      <trkpt lat="45.66767" lon="6.82978">
        <ele>2553</ele>
        <time>2019-10-06T12:24:41Z</time>
      </trkpt>
      <trkpt lat="45.66768" lon="6.8298">
        <ele>2553</ele>
        <time>2019-10-06T12:24:44Z</time>
      </trkpt>
      <trkpt lat="45.66768" lon="6.8298">
        <ele>2554</ele>
        <time>2019-10-06T12:24:46Z</time>
      </trkpt>
      <trkpt lat="45.66771" lon="6.82983">
        <ele>2554</ele>
        <time>2019-10-06T12:24:48Z</time>
      </trkpt>
      <trkpt lat="45.66773" lon="6.82984">
        <ele>2554</ele>
        <time>2019-10-06T12:24:51Z</time>
      </trkpt>
      <trkpt lat="45.66773" lon="6.82984">
        <ele>2554</ele>
        <time>2019-10-06T12:24:52Z</time>
      </trkpt>
      <trkpt lat="45.66775" lon="6.82985">
        <ele>2554</ele>
        <time>2019-10-06T12:24:54Z</time>
      </trkpt>
      <trkpt lat="45.66776" lon="6.82988">
        <ele>2554</ele>
        <time>2019-10-06T12:24:57Z</time>
      </trkpt>
      <trkpt lat="45.66776" lon="6.82988">
        <ele>2555</ele>
        <time>2019-10-06T12:24:58Z</time>
      </trkpt>
      <trkpt lat="45.66775" lon="6.8299">
        <ele>2556</ele>
        <time>2019-10-06T12:25:01Z</time>
      </trkpt>
      <trkpt lat="45.66775" lon="6.8299">
        <ele>2556</ele>
        <time>2019-10-06T12:25:03Z</time>
      </trkpt>
      <trkpt lat="45.66773" lon="6.82991">
        <ele>2556</ele>
        <time>2019-10-06T12:25:07Z</time>
      </trkpt>
      <trkpt lat="45.66773" lon="6.82991">
        <ele>2557</ele>
        <time>2019-10-06T12:25:08Z</time>
      </trkpt>
      <trkpt lat="45.66773" lon="6.82993">
        <ele>2559</ele>
        <time>2019-10-06T12:25:12Z</time>
      </trkpt>
      <trkpt lat="45.66773" lon="6.82993">
        <ele>2559</ele>
        <time>2019-10-06T12:25:13Z</time>
      </trkpt>
      <trkpt lat="45.66773" lon="6.82996">
        <ele>2560</ele>
        <time>2019-10-06T12:25:17Z</time>
      </trkpt>
      <trkpt lat="45.66773" lon="6.82996">
        <ele>2560</ele>
        <time>2019-10-06T12:25:18Z</time>
      </trkpt>
      <trkpt lat="45.66773" lon="6.82996">
        <ele>2561</ele>
        <time>2019-10-06T12:25:22Z</time>
      </trkpt>
      <trkpt lat="45.66771" lon="6.82998">
        <ele>2561</ele>
        <time>2019-10-06T12:25:24Z</time>
      </trkpt>
      <trkpt lat="45.66771" lon="6.82998">
        <ele>2561</ele>
        <time>2019-10-06T12:25:27Z</time>
      </trkpt>
      <trkpt lat="45.66769" lon="6.82998">
        <ele>2561</ele>
        <time>2019-10-06T12:25:29Z</time>
      </trkpt>
      <trkpt lat="45.66769" lon="6.82998">
        <ele>2562</ele>
        <time>2019-10-06T12:25:32Z</time>
      </trkpt>
      <trkpt lat="45.66767" lon="6.82999">
        <ele>2563</ele>
        <time>2019-10-06T12:25:34Z</time>
      </trkpt>
      <trkpt lat="45.66767" lon="6.82999">
        <ele>2564</ele>
        <time>2019-10-06T12:25:37Z</time>
      </trkpt>
      <trkpt lat="45.66765" lon="6.82999">
        <ele>2564</ele>
        <time>2019-10-06T12:25:39Z</time>
      </trkpt>
      <trkpt lat="45.66765" lon="6.82999">
        <ele>2565</ele>
        <time>2019-10-06T12:25:42Z</time>
      </trkpt>
      <trkpt lat="45.66763" lon="6.83">
        <ele>2565</ele>
        <time>2019-10-06T12:25:44Z</time>
      </trkpt>
      <trkpt lat="45.66763" lon="6.83">
        <ele>2566</ele>
        <time>2019-10-06T12:25:47Z</time>
      </trkpt>
      <trkpt lat="45.66761" lon="6.83001">
        <ele>2566</ele>
        <time>2019-10-06T12:25:49Z</time>
      </trkpt>
      <trkpt lat="45.66761" lon="6.83001">
        <ele>2566</ele>
        <time>2019-10-06T12:25:52Z</time>
      </trkpt>
      <trkpt lat="45.66759" lon="6.83002">
        <ele>2567</ele>
        <time>2019-10-06T12:25:53Z</time>
      </trkpt>
      <trkpt lat="45.66757" lon="6.83002">
        <ele>2567</ele>
        <time>2019-10-06T12:25:56Z</time>
      </trkpt>
      <trkpt lat="45.66757" lon="6.83002">
        <ele>2568</ele>
        <time>2019-10-06T12:25:58Z</time>
      </trkpt>
      <trkpt lat="45.66754" lon="6.83001">
        <ele>2568</ele>
        <time>2019-10-06T12:25:59Z</time>
      </trkpt>
      <trkpt lat="45.66752" lon="6.83001">
        <ele>2568</ele>
        <time>2019-10-06T12:26:02Z</time>
      </trkpt>
      <trkpt lat="45.66752" lon="6.83001">
        <ele>2569</ele>
        <time>2019-10-06T12:26:04Z</time>
      </trkpt>
      <trkpt lat="45.6675" lon="6.83002">
        <ele>2569</ele>
        <time>2019-10-06T12:26:06Z</time>
      </trkpt>
      <trkpt lat="45.6675" lon="6.83002">
        <ele>2569</ele>
        <time>2019-10-06T12:26:09Z</time>
      </trkpt>
      <trkpt lat="45.66748" lon="6.83002">
        <ele>2571</ele>
        <time>2019-10-06T12:26:10Z</time>
      </trkpt>
      <trkpt lat="45.66745" lon="6.83001">
        <ele>2571</ele>
        <time>2019-10-06T12:26:14Z</time>
      </trkpt>
      <trkpt lat="45.66745" lon="6.83001">
        <ele>2571</ele>
        <time>2019-10-06T12:26:15Z</time>
      </trkpt>
      <trkpt lat="45.66743" lon="6.83001">
        <ele>2571</ele>
        <time>2019-10-06T12:26:17Z</time>
      </trkpt>
      <trkpt lat="45.66743" lon="6.83001">
        <ele>2573</ele>
        <time>2019-10-06T12:26:20Z</time>
      </trkpt>
      <trkpt lat="45.6674" lon="6.83001">
        <ele>2573</ele>
        <time>2019-10-06T12:26:21Z</time>
      </trkpt>
      <trkpt lat="45.66738" lon="6.83">
        <ele>2573</ele>
        <time>2019-10-06T12:26:24Z</time>
      </trkpt>
      <trkpt lat="45.66738" lon="6.83">
        <ele>2574</ele>
        <time>2019-10-06T12:26:26Z</time>
      </trkpt>
      <trkpt lat="45.66736" lon="6.83">
        <ele>2574</ele>
        <time>2019-10-06T12:26:27Z</time>
      </trkpt>
      <trkpt lat="45.66734" lon="6.82999">
        <ele>2574</ele>
        <time>2019-10-06T12:26:30Z</time>
      </trkpt>
      <trkpt lat="45.66734" lon="6.82999">
        <ele>2574</ele>
        <time>2019-10-06T12:26:32Z</time>
      </trkpt>
      <trkpt lat="45.66732" lon="6.82998">
        <ele>2575</ele>
        <time>2019-10-06T12:26:33Z</time>
      </trkpt>
      <trkpt lat="45.6673" lon="6.82998">
        <ele>2574</ele>
        <time>2019-10-06T12:26:36Z</time>
      </trkpt>
      <trkpt lat="45.6673" lon="6.82998">
        <ele>2575</ele>
        <time>2019-10-06T12:26:38Z</time>
      </trkpt>
      <trkpt lat="45.66727" lon="6.82997">
        <ele>2575</ele>
        <time>2019-10-06T12:26:40Z</time>
      </trkpt>
      <trkpt lat="45.66725" lon="6.82996">
        <ele>2575</ele>
        <time>2019-10-06T12:26:43Z</time>
      </trkpt>
      <trkpt lat="45.66725" lon="6.82996">
        <ele>2576</ele>
        <time>2019-10-06T12:26:44Z</time>
      </trkpt>
      <trkpt lat="45.66723" lon="6.82994">
        <ele>2576</ele>
        <time>2019-10-06T12:26:46Z</time>
      </trkpt>
      <trkpt lat="45.66721" lon="6.82992">
        <ele>2576</ele>
        <time>2019-10-06T12:26:49Z</time>
      </trkpt>
      <trkpt lat="45.66721" lon="6.82992">
        <ele>2576</ele>
        <time>2019-10-06T12:26:50Z</time>
      </trkpt>
      <trkpt lat="45.6672" lon="6.82992">
        <ele>2576</ele>
        <time>2019-10-06T12:26:52Z</time>
      </trkpt>
      <trkpt lat="45.66718" lon="6.8299">
        <ele>2577</ele>
        <time>2019-10-06T12:26:55Z</time>
      </trkpt>
      <trkpt lat="45.66718" lon="6.8299">
        <ele>2577</ele>
        <time>2019-10-06T12:26:56Z</time>
      </trkpt>
      <trkpt lat="45.66716" lon="6.82989">
        <ele>2577</ele>
        <time>2019-10-06T12:26:58Z</time>
      </trkpt>
      <trkpt lat="45.66714" lon="6.82987">
        <ele>2578</ele>
        <time>2019-10-06T12:27:01Z</time>
      </trkpt>
      <trkpt lat="45.66714" lon="6.82987">
        <ele>2579</ele>
        <time>2019-10-06T12:27:02Z</time>
      </trkpt>
      <trkpt lat="45.66712" lon="6.82986">
        <ele>2579</ele>
        <time>2019-10-06T12:27:05Z</time>
      </trkpt>
      <trkpt lat="45.66712" lon="6.82986">
        <ele>2580</ele>
        <time>2019-10-06T12:27:07Z</time>
      </trkpt>
      <trkpt lat="45.6671" lon="6.82986">
        <ele>2580</ele>
        <time>2019-10-06T12:27:09Z</time>
      </trkpt>
      <trkpt lat="45.6671" lon="6.82986">
        <ele>2580</ele>
        <time>2019-10-06T12:27:12Z</time>
      </trkpt>
      <trkpt lat="45.66709" lon="6.82985">
        <ele>2580</ele>
        <time>2019-10-06T12:27:13Z</time>
      </trkpt>
      <trkpt lat="45.66709" lon="6.82985">
        <ele>2581</ele>
        <time>2019-10-06T12:27:17Z</time>
      </trkpt>
      <trkpt lat="45.66706" lon="6.82984">
        <ele>2581</ele>
        <time>2019-10-06T12:27:18Z</time>
      </trkpt>
      <trkpt lat="45.66705" lon="6.82982">
        <ele>2583</ele>
        <time>2019-10-06T12:27:21Z</time>
      </trkpt>
      <trkpt lat="45.66705" lon="6.82982">
        <ele>2583</ele>
        <time>2019-10-06T12:27:23Z</time>
      </trkpt>
      <trkpt lat="45.66703" lon="6.82981">
        <ele>2583</ele>
        <time>2019-10-06T12:27:25Z</time>
      </trkpt>
      <trkpt lat="45.66703" lon="6.82981">
        <ele>2584</ele>
        <time>2019-10-06T12:27:28Z</time>
      </trkpt>
      <trkpt lat="45.66701" lon="6.8298">
        <ele>2584</ele>
        <time>2019-10-06T12:27:29Z</time>
      </trkpt>
      <trkpt lat="45.66699" lon="6.8298">
        <ele>2584</ele>
        <time>2019-10-06T12:27:33Z</time>
      </trkpt>
      <trkpt lat="45.66699" lon="6.8298">
        <ele>2584</ele>
        <time>2019-10-06T12:27:34Z</time>
      </trkpt>
      <trkpt lat="45.66698" lon="6.82978">
        <ele>2585</ele>
        <time>2019-10-06T12:27:37Z</time>
      </trkpt>
      <trkpt lat="45.66698" lon="6.82978">
        <ele>2585</ele>
        <time>2019-10-06T12:27:39Z</time>
      </trkpt>
      <trkpt lat="45.66697" lon="6.82976">
        <ele>2586</ele>
        <time>2019-10-06T12:27:41Z</time>
      </trkpt>
      <trkpt lat="45.66695" lon="6.82974">
        <ele>2587</ele>
        <time>2019-10-06T12:27:44Z</time>
      </trkpt>
      <trkpt lat="45.66695" lon="6.82974">
        <ele>2587</ele>
        <time>2019-10-06T12:27:45Z</time>
      </trkpt>
      <trkpt lat="45.66693" lon="6.82973">
        <ele>2587</ele>
        <time>2019-10-06T12:27:49Z</time>
      </trkpt>
      <trkpt lat="45.66693" lon="6.82973">
        <ele>2587</ele>
        <time>2019-10-06T12:27:50Z</time>
      </trkpt>
      <trkpt lat="45.66691" lon="6.82972">
        <ele>2587</ele>
        <time>2019-10-06T12:27:54Z</time>
      </trkpt>
      <trkpt lat="45.66691" lon="6.82972">
        <ele>2588</ele>
        <time>2019-10-06T12:27:55Z</time>
      </trkpt>
      <trkpt lat="45.6669" lon="6.8297">
        <ele>2588</ele>
        <time>2019-10-06T12:27:59Z</time>
      </trkpt>
      <trkpt lat="45.6669" lon="6.8297">
        <ele>2589</ele>
        <time>2019-10-06T12:28:00Z</time>
      </trkpt>
      <trkpt lat="45.6669" lon="6.8297">
        <ele>2589</ele>
        <time>2019-10-06T12:28:04Z</time>
      </trkpt>
      <trkpt lat="45.6669" lon="6.8297">
        <ele>2590</ele>
        <time>2019-10-06T12:28:08Z</time>
      </trkpt>
      <trkpt lat="45.66689" lon="6.82968">
        <ele>2590</ele>
        <time>2019-10-06T12:28:09Z</time>
      </trkpt>
      <trkpt lat="45.66689" lon="6.82968">
        <ele>2591</ele>
        <time>2019-10-06T12:28:13Z</time>
      </trkpt>
      <trkpt lat="45.66688" lon="6.82965">
        <ele>2591</ele>
        <time>2019-10-06T12:28:14Z</time>
      </trkpt>
      <trkpt lat="45.66686" lon="6.82964">
        <ele>2592</ele>
        <time>2019-10-06T12:28:17Z</time>
      </trkpt>
      <trkpt lat="45.66684" lon="6.82962">
        <ele>2592</ele>
        <time>2019-10-06T12:28:19Z</time>
      </trkpt>
      <trkpt lat="45.66682" lon="6.8296">
        <ele>2592</ele>
        <time>2019-10-06T12:28:21Z</time>
      </trkpt>
      <trkpt lat="45.66682" lon="6.8296">
        <ele>2593</ele>
        <time>2019-10-06T12:28:23Z</time>
      </trkpt>
      <trkpt lat="45.66681" lon="6.82957">
        <ele>2593</ele>
        <time>2019-10-06T12:28:24Z</time>
      </trkpt>
      <trkpt lat="45.66679" lon="6.82956">
        <ele>2595</ele>
        <time>2019-10-06T12:28:27Z</time>
      </trkpt>
      <trkpt lat="45.66679" lon="6.82956">
        <ele>2595</ele>
        <time>2019-10-06T12:28:29Z</time>
      </trkpt>
      <trkpt lat="45.66677" lon="6.82956">
        <ele>2595</ele>
        <time>2019-10-06T12:28:31Z</time>
      </trkpt>
      <trkpt lat="45.66677" lon="6.82956">
        <ele>2596</ele>
        <time>2019-10-06T12:28:34Z</time>
      </trkpt>
      <trkpt lat="45.66675" lon="6.82954">
        <ele>2596</ele>
        <time>2019-10-06T12:28:35Z</time>
      </trkpt>
      <trkpt lat="45.66674" lon="6.82951">
        <ele>2597</ele>
        <time>2019-10-06T12:28:38Z</time>
      </trkpt>
      <trkpt lat="45.66674" lon="6.82951">
        <ele>2597</ele>
        <time>2019-10-06T12:28:40Z</time>
      </trkpt>
      <trkpt lat="45.66672" lon="6.82949">
        <ele>2597</ele>
        <time>2019-10-06T12:28:41Z</time>
      </trkpt>
      <trkpt lat="45.66671" lon="6.82946">
        <ele>2597</ele>
        <time>2019-10-06T12:28:43Z</time>
      </trkpt>
      <trkpt lat="45.6667" lon="6.82944">
        <ele>2597</ele>
        <time>2019-10-06T12:28:45Z</time>
      </trkpt>
      <trkpt lat="45.66668" lon="6.82943">
        <ele>2598</ele>
        <time>2019-10-06T12:28:47Z</time>
      </trkpt>
      <trkpt lat="45.66666" lon="6.82942">
        <ele>2598</ele>
        <time>2019-10-06T12:28:49Z</time>
      </trkpt>
      <trkpt lat="45.66664" lon="6.82942">
        <ele>2598</ele>
        <time>2019-10-06T12:28:51Z</time>
      </trkpt>
      <trkpt lat="45.66662" lon="6.82942">
        <ele>2598</ele>
        <time>2019-10-06T12:28:53Z</time>
      </trkpt>
      <trkpt lat="45.66659" lon="6.82942">
        <ele>2598</ele>
        <time>2019-10-06T12:28:55Z</time>
      </trkpt>
      <trkpt lat="45.66657" lon="6.82941">
        <ele>2598</ele>
        <time>2019-10-06T12:28:57Z</time>
      </trkpt>
      <trkpt lat="45.66655" lon="6.82942">
        <ele>2598</ele>
        <time>2019-10-06T12:28:59Z</time>
      </trkpt>
      <trkpt lat="45.66652" lon="6.82942">
        <ele>2598</ele>
        <time>2019-10-06T12:29:01Z</time>
      </trkpt>
      <trkpt lat="45.66649" lon="6.82942">
        <ele>2598</ele>
        <time>2019-10-06T12:29:03Z</time>
      </trkpt>
      <trkpt lat="45.66647" lon="6.82942">
        <ele>2597</ele>
        <time>2019-10-06T12:29:05Z</time>
      </trkpt>
      <trkpt lat="45.66644" lon="6.82942">
        <ele>2597</ele>
        <time>2019-10-06T12:29:07Z</time>
      </trkpt>
      <trkpt lat="45.66641" lon="6.82941">
        <ele>2597</ele>
        <time>2019-10-06T12:29:09Z</time>
      </trkpt>
      <trkpt lat="45.66639" lon="6.8294">
        <ele>2597</ele>
        <time>2019-10-06T12:29:11Z</time>
      </trkpt>
      <trkpt lat="45.66637" lon="6.8294">
        <ele>2597</ele>
        <time>2019-10-06T12:29:13Z</time>
      </trkpt>
      <trkpt lat="45.66637" lon="6.8294">
        <ele>2597</ele>
        <time>2019-10-06T12:29:15Z</time>
      </trkpt>
      <trkpt lat="45.66635" lon="6.8294">
        <ele>2597</ele>
        <time>2019-10-06T12:29:16Z</time>
      </trkpt>
      <trkpt lat="45.66633" lon="6.8294">
        <ele>2598</ele>
        <time>2019-10-06T12:29:19Z</time>
      </trkpt>
      <trkpt lat="45.66633" lon="6.8294">
        <ele>2598</ele>
        <time>2019-10-06T12:29:21Z</time>
      </trkpt>
      <trkpt lat="45.6663" lon="6.8294">
        <ele>2599</ele>
        <time>2019-10-06T12:29:22Z</time>
      </trkpt>
      <trkpt lat="45.66628" lon="6.82939">
        <ele>2599</ele>
        <time>2019-10-06T12:29:24Z</time>
      </trkpt>
      <trkpt lat="45.66626" lon="6.82939">
        <ele>2599</ele>
        <time>2019-10-06T12:29:26Z</time>
      </trkpt>
      <trkpt lat="45.66624" lon="6.82938">
        <ele>2600</ele>
        <time>2019-10-06T12:29:28Z</time>
      </trkpt>
      <trkpt lat="45.66622" lon="6.82939">
        <ele>2600</ele>
        <time>2019-10-06T12:29:31Z</time>
      </trkpt>
      <trkpt lat="45.66622" lon="6.82939">
        <ele>2600</ele>
        <time>2019-10-06T12:29:32Z</time>
      </trkpt>
      <trkpt lat="45.66619" lon="6.82939">
        <ele>2601</ele>
        <time>2019-10-06T12:29:34Z</time>
      </trkpt>
      <trkpt lat="45.66618" lon="6.82937">
        <ele>2601</ele>
        <time>2019-10-06T12:29:36Z</time>
      </trkpt>
      <trkpt lat="45.66618" lon="6.82937">
        <ele>2601</ele>
        <time>2019-10-06T12:29:38Z</time>
      </trkpt>
      <trkpt lat="45.66616" lon="6.82935">
        <ele>2601</ele>
        <time>2019-10-06T12:29:39Z</time>
      </trkpt>
      <trkpt lat="45.66614" lon="6.82934">
        <ele>2602</ele>
        <time>2019-10-06T12:29:42Z</time>
      </trkpt>
      <trkpt lat="45.66614" lon="6.82934">
        <ele>2602</ele>
        <time>2019-10-06T12:29:44Z</time>
      </trkpt>
      <trkpt lat="45.66612" lon="6.82932">
        <ele>2602</ele>
        <time>2019-10-06T12:29:45Z</time>
      </trkpt>
      <trkpt lat="45.6661" lon="6.8293">
        <ele>2604</ele>
        <time>2019-10-06T12:29:48Z</time>
      </trkpt>
      <trkpt lat="45.6661" lon="6.8293">
        <ele>2604</ele>
        <time>2019-10-06T12:29:50Z</time>
      </trkpt>
      <trkpt lat="45.66608" lon="6.8293">
        <ele>2604</ele>
        <time>2019-10-06T12:29:52Z</time>
      </trkpt>
      <trkpt lat="45.66606" lon="6.8293">
        <ele>2605</ele>
        <time>2019-10-06T12:29:54Z</time>
      </trkpt>
      <trkpt lat="45.66604" lon="6.8293">
        <ele>2605</ele>
        <time>2019-10-06T12:29:56Z</time>
      </trkpt>
      <trkpt lat="45.66601" lon="6.82931">
        <ele>2605</ele>
        <time>2019-10-06T12:29:58Z</time>
      </trkpt>
      <trkpt lat="45.666" lon="6.82931">
        <ele>2605</ele>
        <time>2019-10-06T12:30:00Z</time>
      </trkpt>
      <trkpt lat="45.66597" lon="6.82931">
        <ele>2605</ele>
        <time>2019-10-06T12:30:02Z</time>
      </trkpt>
      <trkpt lat="45.66595" lon="6.82931">
        <ele>2607</ele>
        <time>2019-10-06T12:30:04Z</time>
      </trkpt>
      <trkpt lat="45.66593" lon="6.82931">
        <ele>2607</ele>
        <time>2019-10-06T12:30:06Z</time>
      </trkpt>
      <trkpt lat="45.6659" lon="6.82932">
        <ele>2607</ele>
        <time>2019-10-06T12:30:08Z</time>
      </trkpt>
      <trkpt lat="45.66588" lon="6.82933">
        <ele>2607</ele>
        <time>2019-10-06T12:30:10Z</time>
      </trkpt>
      <trkpt lat="45.66586" lon="6.82934">
        <ele>2607</ele>
        <time>2019-10-06T12:30:12Z</time>
      </trkpt>
      <trkpt lat="45.66584" lon="6.82936">
        <ele>2607</ele>
        <time>2019-10-06T12:30:14Z</time>
      </trkpt>
      <trkpt lat="45.66581" lon="6.82937">
        <ele>2607</ele>
        <time>2019-10-06T12:30:16Z</time>
      </trkpt>
      <trkpt lat="45.6658" lon="6.82937">
        <ele>2608</ele>
        <time>2019-10-06T12:30:18Z</time>
      </trkpt>
      <trkpt lat="45.66578" lon="6.82937">
        <ele>2608</ele>
        <time>2019-10-06T12:30:20Z</time>
      </trkpt>
      <trkpt lat="45.66576" lon="6.82938">
        <ele>2608</ele>
        <time>2019-10-06T12:30:22Z</time>
      </trkpt>
      <trkpt lat="45.66574" lon="6.82939">
        <ele>2608</ele>
        <time>2019-10-06T12:30:24Z</time>
      </trkpt>
      <trkpt lat="45.66572" lon="6.82941">
        <ele>2608</ele>
        <time>2019-10-06T12:30:27Z</time>
      </trkpt>
      <trkpt lat="45.66572" lon="6.82941">
        <ele>2608</ele>
        <time>2019-10-06T12:30:28Z</time>
      </trkpt>
      <trkpt lat="45.6657" lon="6.82942">
        <ele>2608</ele>
        <time>2019-10-06T12:30:29Z</time>
      </trkpt>
      <trkpt lat="45.66568" lon="6.82943">
        <ele>2609</ele>
        <time>2019-10-06T12:30:31Z</time>
      </trkpt>
      <trkpt lat="45.66566" lon="6.82944">
        <ele>2610</ele>
        <time>2019-10-06T12:30:33Z</time>
      </trkpt>
      <trkpt lat="45.66566" lon="6.82944">
        <ele>2610</ele>
        <time>2019-10-06T12:30:35Z</time>
      </trkpt>
      <trkpt lat="45.66564" lon="6.82947">
        <ele>2610</ele>
        <time>2019-10-06T12:30:36Z</time>
      </trkpt>
      <trkpt lat="45.66562" lon="6.82948">
        <ele>2610</ele>
        <time>2019-10-06T12:30:39Z</time>
      </trkpt>
      <trkpt lat="45.6656" lon="6.82947">
        <ele>2610</ele>
        <time>2019-10-06T12:30:41Z</time>
      </trkpt>
      <trkpt lat="45.66558" lon="6.82948">
        <ele>2611</ele>
        <time>2019-10-06T12:30:44Z</time>
      </trkpt>
      <trkpt lat="45.66558" lon="6.82948">
        <ele>2612</ele>
        <time>2019-10-06T12:30:45Z</time>
      </trkpt>
      <trkpt lat="45.66556" lon="6.82949">
        <ele>2612</ele>
        <time>2019-10-06T12:30:46Z</time>
      </trkpt>
      <trkpt lat="45.66554" lon="6.82949">
        <ele>2612</ele>
        <time>2019-10-06T12:30:48Z</time>
      </trkpt>
      <trkpt lat="45.66552" lon="6.82951">
        <ele>2613</ele>
        <time>2019-10-06T12:30:51Z</time>
      </trkpt>
      <trkpt lat="45.66552" lon="6.82951">
        <ele>2613</ele>
        <time>2019-10-06T12:30:52Z</time>
      </trkpt>
      <trkpt lat="45.6655" lon="6.82952">
        <ele>2613</ele>
        <time>2019-10-06T12:30:53Z</time>
      </trkpt>
      <trkpt lat="45.66548" lon="6.82954">
        <ele>2613</ele>
        <time>2019-10-06T12:30:55Z</time>
      </trkpt>
      <trkpt lat="45.66546" lon="6.82955">
        <ele>2613</ele>
        <time>2019-10-06T12:30:57Z</time>
      </trkpt>
      <trkpt lat="45.66544" lon="6.82959">
        <ele>2613</ele>
        <time>2019-10-06T12:30:59Z</time>
      </trkpt>
      <trkpt lat="45.66543" lon="6.82961">
        <ele>2613</ele>
        <time>2019-10-06T12:31:00Z</time>
      </trkpt>
      <trkpt lat="45.66541" lon="6.82964">
        <ele>2613</ele>
        <time>2019-10-06T12:31:02Z</time>
      </trkpt>
      <trkpt lat="45.66538" lon="6.82968">
        <ele>2613</ele>
        <time>2019-10-06T12:31:04Z</time>
      </trkpt>
      <trkpt lat="45.66536" lon="6.8297">
        <ele>2612</ele>
        <time>2019-10-06T12:31:06Z</time>
      </trkpt>
      <trkpt lat="45.66533" lon="6.8297">
        <ele>2612</ele>
        <time>2019-10-06T12:31:08Z</time>
      </trkpt>
      <trkpt lat="45.6653" lon="6.8297">
        <ele>2612</ele>
        <time>2019-10-06T12:31:10Z</time>
      </trkpt>
      <trkpt lat="45.66528" lon="6.82971">
        <ele>2612</ele>
        <time>2019-10-06T12:31:12Z</time>
      </trkpt>
      <trkpt lat="45.66526" lon="6.82972">
        <ele>2613</ele>
        <time>2019-10-06T12:31:14Z</time>
      </trkpt>
      <trkpt lat="45.66524" lon="6.82974">
        <ele>2613</ele>
        <time>2019-10-06T12:31:17Z</time>
      </trkpt>
      <trkpt lat="45.66524" lon="6.82974">
        <ele>2613</ele>
        <time>2019-10-06T12:31:18Z</time>
      </trkpt>
      <trkpt lat="45.66522" lon="6.82975">
        <ele>2614</ele>
        <time>2019-10-06T12:31:20Z</time>
      </trkpt>
      <trkpt lat="45.66521" lon="6.82977">
        <ele>2615</ele>
        <time>2019-10-06T12:31:23Z</time>
      </trkpt>
      <trkpt lat="45.66521" lon="6.82977">
        <ele>2615</ele>
        <time>2019-10-06T12:31:24Z</time>
      </trkpt>
      <trkpt lat="45.66519" lon="6.82978">
        <ele>2615</ele>
        <time>2019-10-06T12:31:26Z</time>
      </trkpt>
      <trkpt lat="45.66517" lon="6.82979">
        <ele>2617</ele>
        <time>2019-10-06T12:31:29Z</time>
      </trkpt>
      <trkpt lat="45.66517" lon="6.82979">
        <ele>2617</ele>
        <time>2019-10-06T12:31:30Z</time>
      </trkpt>
      <trkpt lat="45.66514" lon="6.82981">
        <ele>2617</ele>
        <time>2019-10-06T12:31:32Z</time>
      </trkpt>
      <trkpt lat="45.66513" lon="6.82983">
        <ele>2617</ele>
        <time>2019-10-06T12:31:34Z</time>
      </trkpt>
      <trkpt lat="45.66512" lon="6.82985">
        <ele>2616</ele>
        <time>2019-10-06T12:31:36Z</time>
      </trkpt>
      <trkpt lat="45.6651" lon="6.82989">
        <ele>2616</ele>
        <time>2019-10-06T12:31:38Z</time>
      </trkpt>
      <trkpt lat="45.6651" lon="6.82992">
        <ele>2616</ele>
        <time>2019-10-06T12:31:39Z</time>
      </trkpt>
      <trkpt lat="45.66509" lon="6.82994">
        <ele>2616</ele>
        <time>2019-10-06T12:31:40Z</time>
      </trkpt>
      <trkpt lat="45.66508" lon="6.82997">
        <ele>2616</ele>
        <time>2019-10-06T12:31:41Z</time>
      </trkpt>
      <trkpt lat="45.66507" lon="6.82999">
        <ele>2615</ele>
        <time>2019-10-06T12:31:42Z</time>
      </trkpt>
      <trkpt lat="45.66505" lon="6.83001">
        <ele>2615</ele>
        <time>2019-10-06T12:31:43Z</time>
      </trkpt>
      <trkpt lat="45.66503" lon="6.83004">
        <ele>2615</ele>
        <time>2019-10-06T12:31:45Z</time>
      </trkpt>
      <trkpt lat="45.66501" lon="6.83007">
        <ele>2614</ele>
        <time>2019-10-06T12:31:47Z</time>
      </trkpt>
      <trkpt lat="45.66499" lon="6.83009">
        <ele>2614</ele>
        <time>2019-10-06T12:31:49Z</time>
      </trkpt>
      <trkpt lat="45.66498" lon="6.83013">
        <ele>2615</ele>
        <time>2019-10-06T12:31:52Z</time>
      </trkpt>
      <trkpt lat="45.66498" lon="6.83013">
        <ele>2615</ele>
        <time>2019-10-06T12:31:53Z</time>
      </trkpt>
      <trkpt lat="45.66497" lon="6.83016">
        <ele>2616</ele>
        <time>2019-10-06T12:31:55Z</time>
      </trkpt>
      <trkpt lat="45.66496" lon="6.83018">
        <ele>2616</ele>
        <time>2019-10-06T12:31:58Z</time>
      </trkpt>
      <trkpt lat="45.66496" lon="6.83018">
        <ele>2616</ele>
        <time>2019-10-06T12:31:59Z</time>
      </trkpt>
      <trkpt lat="45.66495" lon="6.83022">
        <ele>2617</ele>
        <time>2019-10-06T12:32:02Z</time>
      </trkpt>
      <trkpt lat="45.66495" lon="6.83022">
        <ele>2619</ele>
        <time>2019-10-06T12:32:04Z</time>
      </trkpt>
      <trkpt lat="45.66494" lon="6.83025">
        <ele>2619</ele>
        <time>2019-10-06T12:32:05Z</time>
      </trkpt>
      <trkpt lat="45.66493" lon="6.83027">
        <ele>2619</ele>
        <time>2019-10-06T12:32:08Z</time>
      </trkpt>
      <trkpt lat="45.66493" lon="6.83027">
        <ele>2619</ele>
        <time>2019-10-06T12:32:10Z</time>
      </trkpt>
      <trkpt lat="45.66491" lon="6.8303">
        <ele>2619</ele>
        <time>2019-10-06T12:32:11Z</time>
      </trkpt>
      <trkpt lat="45.6649" lon="6.83032">
        <ele>2619</ele>
        <time>2019-10-06T12:32:14Z</time>
      </trkpt>
      <trkpt lat="45.6649" lon="6.83032">
        <ele>2619</ele>
        <time>2019-10-06T12:32:16Z</time>
      </trkpt>
      <trkpt lat="45.66489" lon="6.83034">
        <ele>2620</ele>
        <time>2019-10-06T12:32:17Z</time>
      </trkpt>
      <trkpt lat="45.66488" lon="6.83037">
        <ele>2621</ele>
        <time>2019-10-06T12:32:20Z</time>
      </trkpt>
      <trkpt lat="45.66488" lon="6.83037">
        <ele>2621</ele>
        <time>2019-10-06T12:32:22Z</time>
      </trkpt>
      <trkpt lat="45.66486" lon="6.83039">
        <ele>2621</ele>
        <time>2019-10-06T12:32:24Z</time>
      </trkpt>
      <trkpt lat="45.66485" lon="6.83041">
        <ele>2622</ele>
        <time>2019-10-06T12:32:27Z</time>
      </trkpt>
      <trkpt lat="45.66485" lon="6.83041">
        <ele>2622</ele>
        <time>2019-10-06T12:32:28Z</time>
      </trkpt>
      <trkpt lat="45.66484" lon="6.83043">
        <ele>2622</ele>
        <time>2019-10-06T12:32:30Z</time>
      </trkpt>
      <trkpt lat="45.66484" lon="6.83043">
        <ele>2623</ele>
        <time>2019-10-06T12:32:33Z</time>
      </trkpt>
      <trkpt lat="45.66482" lon="6.83046">
        <ele>2623</ele>
        <time>2019-10-06T12:32:35Z</time>
      </trkpt>
      <trkpt lat="45.66482" lon="6.83046">
        <ele>2623</ele>
        <time>2019-10-06T12:32:38Z</time>
      </trkpt>
      <trkpt lat="45.66481" lon="6.83048">
        <ele>2624</ele>
        <time>2019-10-06T12:32:39Z</time>
      </trkpt>
      <trkpt lat="45.66481" lon="6.83048">
        <ele>2624</ele>
        <time>2019-10-06T12:32:43Z</time>
      </trkpt>
      <trkpt lat="45.6648" lon="6.83051">
        <ele>2624</ele>
        <time>2019-10-06T12:32:44Z</time>
      </trkpt>
      <trkpt lat="45.6648" lon="6.83051">
        <ele>2626</ele>
        <time>2019-10-06T12:32:48Z</time>
      </trkpt>
      <trkpt lat="45.66479" lon="6.83053">
        <ele>2626</ele>
        <time>2019-10-06T12:32:49Z</time>
      </trkpt>
      <trkpt lat="45.66477" lon="6.83055">
        <ele>2626</ele>
        <time>2019-10-06T12:32:53Z</time>
      </trkpt>
      <trkpt lat="45.66477" lon="6.83055">
        <ele>2626</ele>
        <time>2019-10-06T12:32:54Z</time>
      </trkpt>
      <trkpt lat="45.66475" lon="6.83056">
        <ele>2626</ele>
        <time>2019-10-06T12:32:57Z</time>
      </trkpt>
      <trkpt lat="45.66475" lon="6.83056">
        <ele>2627</ele>
        <time>2019-10-06T12:32:59Z</time>
      </trkpt>
      <trkpt lat="45.66473" lon="6.83055">
        <ele>2628</ele>
        <time>2019-10-06T12:33:01Z</time>
      </trkpt>
      <trkpt lat="45.66473" lon="6.83055">
        <ele>2628</ele>
        <time>2019-10-06T12:33:04Z</time>
      </trkpt>
      <trkpt lat="45.66471" lon="6.83056">
        <ele>2629</ele>
        <time>2019-10-06T12:33:05Z</time>
      </trkpt>
      <trkpt lat="45.6647" lon="6.83059">
        <ele>2629</ele>
        <time>2019-10-06T12:33:08Z</time>
      </trkpt>
      <trkpt lat="45.6647" lon="6.83059">
        <ele>2629</ele>
        <time>2019-10-06T12:33:10Z</time>
      </trkpt>
      <trkpt lat="45.6647" lon="6.83059">
        <ele>2628</ele>
        <time>2019-10-06T12:33:14Z</time>
      </trkpt>
      <trkpt lat="45.6647" lon="6.83059">
        <ele>2628</ele>
        <time>2019-10-06T12:33:18Z</time>
      </trkpt>
      <trkpt lat="45.6647" lon="6.83059">
        <ele>2628</ele>
        <time>2019-10-06T12:33:22Z</time>
      </trkpt>
      <trkpt lat="45.6647" lon="6.83059">
        <ele>2628</ele>
        <time>2019-10-06T12:33:26Z</time>
      </trkpt>
      <trkpt lat="45.6647" lon="6.83059">
        <ele>2628</ele>
        <time>2019-10-06T12:33:30Z</time>
      </trkpt>
      <trkpt lat="45.6647" lon="6.83059">
        <ele>2628</ele>
        <time>2019-10-06T12:33:34Z</time>
      </trkpt>
      <trkpt lat="45.6647" lon="6.83059">
        <ele>2628</ele>
        <time>2019-10-06T12:33:38Z</time>
      </trkpt>
      <trkpt lat="45.6647" lon="6.83059">
        <ele>2628</ele>
        <time>2019-10-06T12:33:42Z</time>
      </trkpt>
      <trkpt lat="45.6647" lon="6.83059">
        <ele>2628</ele>
        <time>2019-10-06T12:33:46Z</time>
      </trkpt>
      <trkpt lat="45.6647" lon="6.83059">
        <ele>2628</ele>
        <time>2019-10-06T12:33:50Z</time>
      </trkpt>
      <trkpt lat="45.6647" lon="6.83059">
        <ele>2628</ele>
        <time>2019-10-06T12:33:54Z</time>
      </trkpt>
      <trkpt lat="45.6647" lon="6.83059">
        <ele>2627</ele>
        <time>2019-10-06T12:33:58Z</time>
      </trkpt>
      <trkpt lat="45.6647" lon="6.83059">
        <ele>2628</ele>
        <time>2019-10-06T12:34:02Z</time>
      </trkpt>
      <trkpt lat="45.6647" lon="6.83059">
        <ele>2628</ele>
        <time>2019-10-06T12:34:06Z</time>
      </trkpt>
      <trkpt lat="45.6647" lon="6.83059">
        <ele>2629</ele>
        <time>2019-10-06T12:34:10Z</time>
      </trkpt>
      <trkpt lat="45.6647" lon="6.83059">
        <ele>2629</ele>
        <time>2019-10-06T12:34:14Z</time>
      </trkpt>
      <trkpt lat="45.6647" lon="6.83059">
        <ele>2629</ele>
        <time>2019-10-06T12:34:18Z</time>
      </trkpt>
      <trkpt lat="45.6647" lon="6.83059">
        <ele>2629</ele>
        <time>2019-10-06T12:34:22Z</time>
      </trkpt>
      <trkpt lat="45.6647" lon="6.83059">
        <ele>2628</ele>
        <time>2019-10-06T12:34:26Z</time>
      </trkpt>
      <trkpt lat="45.6647" lon="6.83059">
        <ele>2628</ele>
        <time>2019-10-06T12:34:30Z</time>
      </trkpt>
      <trkpt lat="45.6647" lon="6.83059">
        <ele>2629</ele>
        <time>2019-10-06T12:34:34Z</time>
      </trkpt>
      <trkpt lat="45.6647" lon="6.83059">
        <ele>2628</ele>
        <time>2019-10-06T12:34:38Z</time>
      </trkpt>
      <trkpt lat="45.6647" lon="6.83059">
        <ele>2628</ele>
        <time>2019-10-06T12:34:42Z</time>
      </trkpt>
      <trkpt lat="45.6647" lon="6.83059">
        <ele>2629</ele>
        <time>2019-10-06T12:34:46Z</time>
      </trkpt>
      <trkpt lat="45.6647" lon="6.83059">
        <ele>2629</ele>
        <time>2019-10-06T12:34:50Z</time>
      </trkpt>
      <trkpt lat="45.6647" lon="6.83059">
        <ele>2628</ele>
        <time>2019-10-06T12:34:54Z</time>
      </trkpt>
      <trkpt lat="45.6647" lon="6.83059">
        <ele>2628</ele>
        <time>2019-10-06T12:34:58Z</time>
      </trkpt>
      <trkpt lat="45.6647" lon="6.83059">
        <ele>2628</ele>
        <time>2019-10-06T12:35:02Z</time>
      </trkpt>
      <trkpt lat="45.6647" lon="6.83059">
        <ele>2627</ele>
        <time>2019-10-06T12:35:06Z</time>
      </trkpt>
      <trkpt lat="45.6647" lon="6.83059">
        <ele>2628</ele>
        <time>2019-10-06T12:35:10Z</time>
      </trkpt>
      <trkpt lat="45.6647" lon="6.83059">
        <ele>2628</ele>
        <time>2019-10-06T12:35:14Z</time>
      </trkpt>
      <trkpt lat="45.6647" lon="6.83059">
        <ele>2628</ele>
        <time>2019-10-06T12:35:18Z</time>
      </trkpt>
      <trkpt lat="45.6647" lon="6.83059">
        <ele>2628</ele>
        <time>2019-10-06T12:35:22Z</time>
      </trkpt>
      <trkpt lat="45.6647" lon="6.83059">
        <ele>2627</ele>
        <time>2019-10-06T12:35:26Z</time>
      </trkpt>
      <trkpt lat="45.6647" lon="6.83059">
        <ele>2627</ele>
        <time>2019-10-06T12:35:30Z</time>
      </trkpt>
      <trkpt lat="45.6647" lon="6.83059">
        <ele>2627</ele>
        <time>2019-10-06T12:35:34Z</time>
      </trkpt>
      <trkpt lat="45.6647" lon="6.83059">
        <ele>2627</ele>
        <time>2019-10-06T12:35:38Z</time>
      </trkpt>
      <trkpt lat="45.6647" lon="6.83059">
        <ele>2628</ele>
        <time>2019-10-06T12:35:42Z</time>
      </trkpt>
      <trkpt lat="45.6647" lon="6.83059">
        <ele>2628</ele>
        <time>2019-10-06T12:35:46Z</time>
      </trkpt>
      <trkpt lat="45.6647" lon="6.83059">
        <ele>2628</ele>
        <time>2019-10-06T12:35:50Z</time>
      </trkpt>
      <trkpt lat="45.6647" lon="6.83059">
        <ele>2628</ele>
        <time>2019-10-06T12:35:54Z</time>
      </trkpt>
      <trkpt lat="45.6647" lon="6.83059">
        <ele>2628</ele>
        <time>2019-10-06T12:35:58Z</time>
      </trkpt>
      <trkpt lat="45.6647" lon="6.83059">
        <ele>2627</ele>
        <time>2019-10-06T12:36:02Z</time>
      </trkpt>
      <trkpt lat="45.6647" lon="6.83059">
        <ele>2628</ele>
        <time>2019-10-06T12:36:06Z</time>
      </trkpt>
      <trkpt lat="45.6647" lon="6.83059">
        <ele>2628</ele>
        <time>2019-10-06T12:36:10Z</time>
      </trkpt>
      <trkpt lat="45.6647" lon="6.83059">
        <ele>2628</ele>
        <time>2019-10-06T12:36:14Z</time>
      </trkpt>
      <trkpt lat="45.6647" lon="6.83059">
        <ele>2628</ele>
        <time>2019-10-06T12:36:18Z</time>
      </trkpt>
      <trkpt lat="45.6647" lon="6.83059">
        <ele>2628</ele>
        <time>2019-10-06T12:36:22Z</time>
      </trkpt>
      <trkpt lat="45.6647" lon="6.83059">
        <ele>2628</ele>
        <time>2019-10-06T12:36:26Z</time>
      </trkpt>
      <trkpt lat="45.6647" lon="6.83059">
        <ele>2628</ele>
        <time>2019-10-06T12:36:30Z</time>
      </trkpt>
      <trkpt lat="45.6647" lon="6.83059">
        <ele>2628</ele>
        <time>2019-10-06T12:36:34Z</time>
      </trkpt>
      <trkpt lat="45.66469" lon="6.83058">
        <ele>2628</ele>
        <time>2019-10-06T12:36:36Z</time>
      </trkpt>
      <trkpt lat="45.66469" lon="6.83058">
        <ele>2628</ele>
        <time>2019-10-06T12:36:39Z</time>
      </trkpt>
      <trkpt lat="45.66469" lon="6.83058">
        <ele>2628</ele>
        <time>2019-10-06T12:36:43Z</time>
      </trkpt>
      <trkpt lat="45.66469" lon="6.83058">
        <ele>2628</ele>
        <time>2019-10-06T12:36:47Z</time>
      </trkpt>
      <trkpt lat="45.66469" lon="6.83058">
        <ele>2628</ele>
        <time>2019-10-06T12:36:51Z</time>
      </trkpt>
      <trkpt lat="45.66469" lon="6.83058">
        <ele>2627</ele>
        <time>2019-10-06T12:36:55Z</time>
      </trkpt>
      <trkpt lat="45.66469" lon="6.83058">
        <ele>2628</ele>
        <time>2019-10-06T12:36:59Z</time>
      </trkpt>
      <trkpt lat="45.66469" lon="6.83058">
        <ele>2628</ele>
        <time>2019-10-06T12:37:03Z</time>
      </trkpt>
      <trkpt lat="45.66469" lon="6.83058">
        <ele>2628</ele>
        <time>2019-10-06T12:37:07Z</time>
      </trkpt>
      <trkpt lat="45.66469" lon="6.83058">
        <ele>2628</ele>
        <time>2019-10-06T12:37:11Z</time>
      </trkpt>
      <trkpt lat="45.66469" lon="6.83058">
        <ele>2628</ele>
        <time>2019-10-06T12:37:15Z</time>
      </trkpt>
      <trkpt lat="45.66469" lon="6.83058">
        <ele>2628</ele>
        <time>2019-10-06T12:37:19Z</time>
      </trkpt>
      <trkpt lat="45.66469" lon="6.83058">
        <ele>2628</ele>
        <time>2019-10-06T12:37:23Z</time>
      </trkpt>
      <trkpt lat="45.66469" lon="6.83058">
        <ele>2628</ele>
        <time>2019-10-06T12:37:27Z</time>
      </trkpt>
      <trkpt lat="45.66469" lon="6.83058">
        <ele>2628</ele>
        <time>2019-10-06T12:37:31Z</time>
      </trkpt>
      <trkpt lat="45.66469" lon="6.83058">
        <ele>2628</ele>
        <time>2019-10-06T12:37:35Z</time>
      </trkpt>
      <trkpt lat="45.66469" lon="6.83058">
        <ele>2627</ele>
        <time>2019-10-06T12:37:39Z</time>
      </trkpt>
      <trkpt lat="45.66469" lon="6.83058">
        <ele>2628</ele>
        <time>2019-10-06T12:37:43Z</time>
      </trkpt>
      <trkpt lat="45.66469" lon="6.83058">
        <ele>2627</ele>
        <time>2019-10-06T12:37:47Z</time>
      </trkpt>
      <trkpt lat="45.6647" lon="6.83055">
        <ele>2628</ele>
        <time>2019-10-06T12:37:49Z</time>
      </trkpt>
      <trkpt lat="45.6647" lon="6.83055">
        <ele>2628</ele>
        <time>2019-10-06T12:37:52Z</time>
      </trkpt>
      <trkpt lat="45.6647" lon="6.83055">
        <ele>2628</ele>
        <time>2019-10-06T12:37:56Z</time>
      </trkpt>
      <trkpt lat="45.6647" lon="6.83055">
        <ele>2628</ele>
        <time>2019-10-06T12:38:00Z</time>
      </trkpt>
      <trkpt lat="45.66468" lon="6.83056">
        <ele>2628</ele>
        <time>2019-10-06T12:38:01Z</time>
      </trkpt>
      <trkpt lat="45.66468" lon="6.83056">
        <ele>2628</ele>
        <time>2019-10-06T12:38:05Z</time>
      </trkpt>
      <trkpt lat="45.66466" lon="6.83055">
        <ele>2627</ele>
        <time>2019-10-06T12:38:07Z</time>
      </trkpt>
      <trkpt lat="45.66464" lon="6.83054">
        <ele>2627</ele>
        <time>2019-10-06T12:38:09Z</time>
      </trkpt>
      <trkpt lat="45.66462" lon="6.8305">
        <ele>2626</ele>
        <time>2019-10-06T12:38:11Z</time>
      </trkpt>
      <trkpt lat="45.66461" lon="6.83048">
        <ele>2626</ele>
        <time>2019-10-06T12:38:13Z</time>
      </trkpt>
      <trkpt lat="45.66459" lon="6.83048">
        <ele>2626</ele>
        <time>2019-10-06T12:38:15Z</time>
      </trkpt>
      <trkpt lat="45.66456" lon="6.83047">
        <ele>2626</ele>
        <time>2019-10-06T12:38:17Z</time>
      </trkpt>
      <trkpt lat="45.66454" lon="6.83045">
        <ele>2626</ele>
        <time>2019-10-06T12:38:18Z</time>
      </trkpt>
      <trkpt lat="45.66452" lon="6.83044">
        <ele>2625</ele>
        <time>2019-10-06T12:38:19Z</time>
      </trkpt>
      <trkpt lat="45.66448" lon="6.83043">
        <ele>2625</ele>
        <time>2019-10-06T12:38:21Z</time>
      </trkpt>
      <trkpt lat="45.66446" lon="6.83043">
        <ele>2624</ele>
        <time>2019-10-06T12:38:22Z</time>
      </trkpt>
      <trkpt lat="45.66444" lon="6.83043">
        <ele>2624</ele>
        <time>2019-10-06T12:38:23Z</time>
      </trkpt>
      <trkpt lat="45.66442" lon="6.83043">
        <ele>2624</ele>
        <time>2019-10-06T12:38:24Z</time>
      </trkpt>
      <trkpt lat="45.66439" lon="6.83043">
        <ele>2623</ele>
        <time>2019-10-06T12:38:25Z</time>
      </trkpt>
      <trkpt lat="45.66436" lon="6.83044">
        <ele>2622</ele>
        <time>2019-10-06T12:38:27Z</time>
      </trkpt>
      <trkpt lat="45.66433" lon="6.83044">
        <ele>2622</ele>
        <time>2019-10-06T12:38:28Z</time>
      </trkpt>
      <trkpt lat="45.66431" lon="6.83043">
        <ele>2622</ele>
        <time>2019-10-06T12:38:29Z</time>
      </trkpt>
      <trkpt lat="45.66429" lon="6.83045">
        <ele>2622</ele>
        <time>2019-10-06T12:38:31Z</time>
      </trkpt>
      <trkpt lat="45.66428" lon="6.83047">
        <ele>2621</ele>
        <time>2019-10-06T12:38:32Z</time>
      </trkpt>
      <trkpt lat="45.6643" lon="6.83051">
        <ele>2620</ele>
        <time>2019-10-06T12:38:34Z</time>
      </trkpt>
      <trkpt lat="45.66431" lon="6.83053">
        <ele>2620</ele>
        <time>2019-10-06T12:38:35Z</time>
      </trkpt>
      <trkpt lat="45.66433" lon="6.83055">
        <ele>2620</ele>
        <time>2019-10-06T12:38:36Z</time>
      </trkpt>
      <trkpt lat="45.66434" lon="6.83058">
        <ele>2620</ele>
        <time>2019-10-06T12:38:37Z</time>
      </trkpt>
      <trkpt lat="45.66435" lon="6.83061">
        <ele>2620</ele>
        <time>2019-10-06T12:38:38Z</time>
      </trkpt>
      <trkpt lat="45.66437" lon="6.83065">
        <ele>2620</ele>
        <time>2019-10-06T12:38:40Z</time>
      </trkpt>
      <trkpt lat="45.66437" lon="6.83067">
        <ele>2619</ele>
        <time>2019-10-06T12:38:41Z</time>
      </trkpt>
      <trkpt lat="45.66438" lon="6.83072">
        <ele>2617</ele>
        <time>2019-10-06T12:38:43Z</time>
      </trkpt>
      <trkpt lat="45.6644" lon="6.83075">
        <ele>2617</ele>
        <time>2019-10-06T12:38:45Z</time>
      </trkpt>
      <trkpt lat="45.66441" lon="6.83078">
        <ele>2617</ele>
        <time>2019-10-06T12:38:46Z</time>
      </trkpt>
      <trkpt lat="45.66442" lon="6.8308">
        <ele>2616</ele>
        <time>2019-10-06T12:38:47Z</time>
      </trkpt>
      <trkpt lat="45.66444" lon="6.83083">
        <ele>2615</ele>
        <time>2019-10-06T12:38:49Z</time>
      </trkpt>
      <trkpt lat="45.66444" lon="6.83087">
        <ele>2615</ele>
        <time>2019-10-06T12:38:51Z</time>
      </trkpt>
      <trkpt lat="45.66444" lon="6.83091">
        <ele>2614</ele>
        <time>2019-10-06T12:38:53Z</time>
      </trkpt>
      <trkpt lat="45.66443" lon="6.83094">
        <ele>2614</ele>
        <time>2019-10-06T12:38:54Z</time>
      </trkpt>
      <trkpt lat="45.66442" lon="6.83099">
        <ele>2614</ele>
        <time>2019-10-06T12:38:56Z</time>
      </trkpt>
      <trkpt lat="45.66441" lon="6.83103">
        <ele>2614</ele>
        <time>2019-10-06T12:38:58Z</time>
      </trkpt>
      <trkpt lat="45.6644" lon="6.83106">
        <ele>2613</ele>
        <time>2019-10-06T12:39:00Z</time>
      </trkpt>
      <trkpt lat="45.66439" lon="6.83109">
        <ele>2612</ele>
        <time>2019-10-06T12:39:02Z</time>
      </trkpt>
      <trkpt lat="45.66438" lon="6.83112">
        <ele>2611</ele>
        <time>2019-10-06T12:39:04Z</time>
      </trkpt>
      <trkpt lat="45.66436" lon="6.83116">
        <ele>2610</ele>
        <time>2019-10-06T12:39:06Z</time>
      </trkpt>
      <trkpt lat="45.66436" lon="6.83119">
        <ele>2609</ele>
        <time>2019-10-06T12:39:08Z</time>
      </trkpt>
      <trkpt lat="45.66436" lon="6.83122">
        <ele>2609</ele>
        <time>2019-10-06T12:39:10Z</time>
      </trkpt>
      <trkpt lat="45.66435" lon="6.83125">
        <ele>2608</ele>
        <time>2019-10-06T12:39:12Z</time>
      </trkpt>
      <trkpt lat="45.66435" lon="6.83129">
        <ele>2607</ele>
        <time>2019-10-06T12:39:15Z</time>
      </trkpt>
      <trkpt lat="45.66435" lon="6.83129">
        <ele>2605</ele>
        <time>2019-10-06T12:39:16Z</time>
      </trkpt>
      <trkpt lat="45.66434" lon="6.83132">
        <ele>2605</ele>
        <time>2019-10-06T12:39:18Z</time>
      </trkpt>
      <trkpt lat="45.66435" lon="6.83136">
        <ele>2604</ele>
        <time>2019-10-06T12:39:20Z</time>
      </trkpt>
      <trkpt lat="45.66435" lon="6.83139">
        <ele>2604</ele>
        <time>2019-10-06T12:39:22Z</time>
      </trkpt>
      <trkpt lat="45.66436" lon="6.83141">
        <ele>2604</ele>
        <time>2019-10-06T12:39:24Z</time>
      </trkpt>
      <trkpt lat="45.66437" lon="6.83143">
        <ele>2604</ele>
        <time>2019-10-06T12:39:26Z</time>
      </trkpt>
      <trkpt lat="45.66437" lon="6.83146">
        <ele>2603</ele>
        <time>2019-10-06T12:39:29Z</time>
      </trkpt>
      <trkpt lat="45.66437" lon="6.83146">
        <ele>2603</ele>
        <time>2019-10-06T12:39:30Z</time>
      </trkpt>
      <trkpt lat="45.66438" lon="6.83149">
        <ele>2601</ele>
        <time>2019-10-06T12:39:32Z</time>
      </trkpt>
      <trkpt lat="45.66438" lon="6.83152">
        <ele>2601</ele>
        <time>2019-10-06T12:39:33Z</time>
      </trkpt>
      <trkpt lat="45.66438" lon="6.83155">
        <ele>2600</ele>
        <time>2019-10-06T12:39:34Z</time>
      </trkpt>
      <trkpt lat="45.66439" lon="6.83159">
        <ele>2599</ele>
        <time>2019-10-06T12:39:36Z</time>
      </trkpt>
      <trkpt lat="45.66439" lon="6.83163">
        <ele>2599</ele>
        <time>2019-10-06T12:39:38Z</time>
      </trkpt>
      <trkpt lat="45.66439" lon="6.83167">
        <ele>2599</ele>
        <time>2019-10-06T12:39:40Z</time>
      </trkpt>
      <trkpt lat="45.6644" lon="6.83171">
        <ele>2598</ele>
        <time>2019-10-06T12:39:42Z</time>
      </trkpt>
      <trkpt lat="45.66441" lon="6.83175">
        <ele>2597</ele>
        <time>2019-10-06T12:39:44Z</time>
      </trkpt>
      <trkpt lat="45.66442" lon="6.83177">
        <ele>2597</ele>
        <time>2019-10-06T12:39:45Z</time>
      </trkpt>
      <trkpt lat="45.66445" lon="6.83181">
        <ele>2596</ele>
        <time>2019-10-06T12:39:47Z</time>
      </trkpt>
      <trkpt lat="45.66447" lon="6.83185">
        <ele>2596</ele>
        <time>2019-10-06T12:39:49Z</time>
      </trkpt>
      <trkpt lat="45.66447" lon="6.83189">
        <ele>2595</ele>
        <time>2019-10-06T12:39:51Z</time>
      </trkpt>
      <trkpt lat="45.66448" lon="6.83194">
        <ele>2593</ele>
        <time>2019-10-06T12:39:53Z</time>
      </trkpt>
      <trkpt lat="45.66449" lon="6.83198">
        <ele>2592</ele>
        <time>2019-10-06T12:39:55Z</time>
      </trkpt>
      <trkpt lat="45.6645" lon="6.83202">
        <ele>2591</ele>
        <time>2019-10-06T12:39:57Z</time>
      </trkpt>
      <trkpt lat="45.66452" lon="6.83206">
        <ele>2591</ele>
        <time>2019-10-06T12:39:59Z</time>
      </trkpt>
      <trkpt lat="45.66453" lon="6.8321">
        <ele>2591</ele>
        <time>2019-10-06T12:40:01Z</time>
      </trkpt>
      <trkpt lat="45.66453" lon="6.83215">
        <ele>2589</ele>
        <time>2019-10-06T12:40:03Z</time>
      </trkpt>
      <trkpt lat="45.66452" lon="6.83218">
        <ele>2588</ele>
        <time>2019-10-06T12:40:05Z</time>
      </trkpt>
      <trkpt lat="45.6645" lon="6.83222">
        <ele>2588</ele>
        <time>2019-10-06T12:40:07Z</time>
      </trkpt>
      <trkpt lat="45.6645" lon="6.83226">
        <ele>2588</ele>
        <time>2019-10-06T12:40:09Z</time>
      </trkpt>
      <trkpt lat="45.66449" lon="6.8323">
        <ele>2588</ele>
        <time>2019-10-06T12:40:11Z</time>
      </trkpt>
      <trkpt lat="45.66447" lon="6.83233">
        <ele>2587</ele>
        <time>2019-10-06T12:40:13Z</time>
      </trkpt>
      <trkpt lat="45.66446" lon="6.83236">
        <ele>2585</ele>
        <time>2019-10-06T12:40:15Z</time>
      </trkpt>
      <trkpt lat="45.66445" lon="6.8324">
        <ele>2584</ele>
        <time>2019-10-06T12:40:17Z</time>
      </trkpt>
      <trkpt lat="45.66443" lon="6.83245">
        <ele>2584</ele>
        <time>2019-10-06T12:40:19Z</time>
      </trkpt>
      <trkpt lat="45.66442" lon="6.83247">
        <ele>2584</ele>
        <time>2019-10-06T12:40:20Z</time>
      </trkpt>
      <trkpt lat="45.66442" lon="6.8325">
        <ele>2583</ele>
        <time>2019-10-06T12:40:21Z</time>
      </trkpt>
      <trkpt lat="45.66441" lon="6.83253">
        <ele>2583</ele>
        <time>2019-10-06T12:40:22Z</time>
      </trkpt>
      <trkpt lat="45.66441" lon="6.83258">
        <ele>2583</ele>
        <time>2019-10-06T12:40:24Z</time>
      </trkpt>
      <trkpt lat="45.66442" lon="6.83262">
        <ele>2583</ele>
        <time>2019-10-06T12:40:26Z</time>
      </trkpt>
      <trkpt lat="45.66443" lon="6.83266">
        <ele>2583</ele>
        <time>2019-10-06T12:40:28Z</time>
      </trkpt>
      <trkpt lat="45.66443" lon="6.8327">
        <ele>2583</ele>
        <time>2019-10-06T12:40:29Z</time>
      </trkpt>
      <trkpt lat="45.66443" lon="6.83273">
        <ele>2583</ele>
        <time>2019-10-06T12:40:30Z</time>
      </trkpt>
      <trkpt lat="45.66443" lon="6.83278">
        <ele>2583</ele>
        <time>2019-10-06T12:40:32Z</time>
      </trkpt>
      <trkpt lat="45.66444" lon="6.83282">
        <ele>2583</ele>
        <time>2019-10-06T12:40:34Z</time>
      </trkpt>
      <trkpt lat="45.66445" lon="6.83285">
        <ele>2581</ele>
        <time>2019-10-06T12:40:36Z</time>
      </trkpt>
      <trkpt lat="45.66448" lon="6.83288">
        <ele>2581</ele>
        <time>2019-10-06T12:40:38Z</time>
      </trkpt>
      <trkpt lat="45.6645" lon="6.83292">
        <ele>2581</ele>
        <time>2019-10-06T12:40:40Z</time>
      </trkpt>
      <trkpt lat="45.6645" lon="6.83295">
        <ele>2580</ele>
        <time>2019-10-06T12:40:41Z</time>
      </trkpt>
      <trkpt lat="45.66451" lon="6.83297">
        <ele>2580</ele>
        <time>2019-10-06T12:40:42Z</time>
      </trkpt>
      <trkpt lat="45.66452" lon="6.83299">
        <ele>2580</ele>
        <time>2019-10-06T12:40:43Z</time>
      </trkpt>
      <trkpt lat="45.66453" lon="6.83302">
        <ele>2580</ele>
        <time>2019-10-06T12:40:44Z</time>
      </trkpt>
      <trkpt lat="45.66455" lon="6.83304">
        <ele>2580</ele>
        <time>2019-10-06T12:40:45Z</time>
      </trkpt>
      <trkpt lat="45.66456" lon="6.83306">
        <ele>2580</ele>
        <time>2019-10-06T12:40:46Z</time>
      </trkpt>
      <trkpt lat="45.66457" lon="6.83308">
        <ele>2580</ele>
        <time>2019-10-06T12:40:47Z</time>
      </trkpt>
      <trkpt lat="45.66458" lon="6.83311">
        <ele>2580</ele>
        <time>2019-10-06T12:40:48Z</time>
      </trkpt>
      <trkpt lat="45.66459" lon="6.83313">
        <ele>2580</ele>
        <time>2019-10-06T12:40:49Z</time>
      </trkpt>
      <trkpt lat="45.6646" lon="6.83316">
        <ele>2579</ele>
        <time>2019-10-06T12:40:50Z</time>
      </trkpt>
      <trkpt lat="45.66461" lon="6.83318">
        <ele>2579</ele>
        <time>2019-10-06T12:40:51Z</time>
      </trkpt>
      <trkpt lat="45.66462" lon="6.8332">
        <ele>2579</ele>
        <time>2019-10-06T12:40:52Z</time>
      </trkpt>
      <trkpt lat="45.66463" lon="6.83323">
        <ele>2578</ele>
        <time>2019-10-06T12:40:53Z</time>
      </trkpt>
      <trkpt lat="45.66465" lon="6.83327">
        <ele>2578</ele>
        <time>2019-10-06T12:40:55Z</time>
      </trkpt>
      <trkpt lat="45.66467" lon="6.8333">
        <ele>2577</ele>
        <time>2019-10-06T12:40:56Z</time>
      </trkpt>
      <trkpt lat="45.66468" lon="6.83332">
        <ele>2577</ele>
        <time>2019-10-06T12:40:57Z</time>
      </trkpt>
      <trkpt lat="45.6647" lon="6.83334">
        <ele>2577</ele>
        <time>2019-10-06T12:40:58Z</time>
      </trkpt>
      <trkpt lat="45.66471" lon="6.83337">
        <ele>2577</ele>
        <time>2019-10-06T12:40:59Z</time>
      </trkpt>
      <trkpt lat="45.66472" lon="6.83339">
        <ele>2577</ele>
        <time>2019-10-06T12:41:00Z</time>
      </trkpt>
      <trkpt lat="45.66473" lon="6.83341">
        <ele>2577</ele>
        <time>2019-10-06T12:41:01Z</time>
      </trkpt>
      <trkpt lat="45.66474" lon="6.83343">
        <ele>2576</ele>
        <time>2019-10-06T12:41:02Z</time>
      </trkpt>
      <trkpt lat="45.66476" lon="6.83345">
        <ele>2576</ele>
        <time>2019-10-06T12:41:03Z</time>
      </trkpt>
      <trkpt lat="45.66477" lon="6.83348">
        <ele>2575</ele>
        <time>2019-10-06T12:41:04Z</time>
      </trkpt>
      <trkpt lat="45.66478" lon="6.83352">
        <ele>2575</ele>
        <time>2019-10-06T12:41:06Z</time>
      </trkpt>
      <trkpt lat="45.66479" lon="6.83356">
        <ele>2574</ele>
        <time>2019-10-06T12:41:08Z</time>
      </trkpt>
      <trkpt lat="45.66481" lon="6.8336">
        <ele>2573</ele>
        <time>2019-10-06T12:41:10Z</time>
      </trkpt>
      <trkpt lat="45.66483" lon="6.83364">
        <ele>2573</ele>
        <time>2019-10-06T12:41:12Z</time>
      </trkpt>
      <trkpt lat="45.66485" lon="6.83368">
        <ele>2571</ele>
        <time>2019-10-06T12:41:14Z</time>
      </trkpt>
      <trkpt lat="45.66487" lon="6.83371">
        <ele>2571</ele>
        <time>2019-10-06T12:41:16Z</time>
      </trkpt>
      <trkpt lat="45.66488" lon="6.83375">
        <ele>2568</ele>
        <time>2019-10-06T12:41:18Z</time>
      </trkpt>
      <trkpt lat="45.6649" lon="6.83379">
        <ele>2567</ele>
        <time>2019-10-06T12:41:20Z</time>
      </trkpt>
      <trkpt lat="45.66492" lon="6.83384">
        <ele>2566</ele>
        <time>2019-10-06T12:41:22Z</time>
      </trkpt>
      <trkpt lat="45.66493" lon="6.83386">
        <ele>2566</ele>
        <time>2019-10-06T12:41:23Z</time>
      </trkpt>
      <trkpt lat="45.66494" lon="6.83389">
        <ele>2566</ele>
        <time>2019-10-06T12:41:24Z</time>
      </trkpt>
      <trkpt lat="45.66495" lon="6.83393">
        <ele>2566</ele>
        <time>2019-10-06T12:41:26Z</time>
      </trkpt>
      <trkpt lat="45.66496" lon="6.83396">
        <ele>2565</ele>
        <time>2019-10-06T12:41:27Z</time>
      </trkpt>
      <trkpt lat="45.66497" lon="6.83398">
        <ele>2565</ele>
        <time>2019-10-06T12:41:28Z</time>
      </trkpt>
      <trkpt lat="45.66498" lon="6.834">
        <ele>2565</ele>
        <time>2019-10-06T12:41:29Z</time>
      </trkpt>
      <trkpt lat="45.665" lon="6.83404">
        <ele>2565</ele>
        <time>2019-10-06T12:41:31Z</time>
      </trkpt>
      <trkpt lat="45.66502" lon="6.83408">
        <ele>2564</ele>
        <time>2019-10-06T12:41:33Z</time>
      </trkpt>
      <trkpt lat="45.66503" lon="6.8341">
        <ele>2563</ele>
        <time>2019-10-06T12:41:34Z</time>
      </trkpt>
      <trkpt lat="45.66505" lon="6.83412">
        <ele>2563</ele>
        <time>2019-10-06T12:41:35Z</time>
      </trkpt>
      <trkpt lat="45.66507" lon="6.83414">
        <ele>2563</ele>
        <time>2019-10-06T12:41:36Z</time>
      </trkpt>
      <trkpt lat="45.66508" lon="6.83417">
        <ele>2563</ele>
        <time>2019-10-06T12:41:37Z</time>
      </trkpt>
      <trkpt lat="45.66509" lon="6.83419">
        <ele>2563</ele>
        <time>2019-10-06T12:41:38Z</time>
      </trkpt>
      <trkpt lat="45.66511" lon="6.83423">
        <ele>2563</ele>
        <time>2019-10-06T12:41:40Z</time>
      </trkpt>
      <trkpt lat="45.66512" lon="6.83426">
        <ele>2563</ele>
        <time>2019-10-06T12:41:42Z</time>
      </trkpt>
      <trkpt lat="45.66512" lon="6.83431">
        <ele>2563</ele>
        <time>2019-10-06T12:41:44Z</time>
      </trkpt>
      <trkpt lat="45.66512" lon="6.83434">
        <ele>2563</ele>
        <time>2019-10-06T12:41:46Z</time>
      </trkpt>
      <trkpt lat="45.66512" lon="6.83437">
        <ele>2563</ele>
        <time>2019-10-06T12:41:48Z</time>
      </trkpt>
      <trkpt lat="45.66512" lon="6.8344">
        <ele>2563</ele>
        <time>2019-10-06T12:41:50Z</time>
      </trkpt>
      <trkpt lat="45.66513" lon="6.83444">
        <ele>2561</ele>
        <time>2019-10-06T12:41:52Z</time>
      </trkpt>
      <trkpt lat="45.66514" lon="6.83446">
        <ele>2561</ele>
        <time>2019-10-06T12:41:54Z</time>
      </trkpt>
      <trkpt lat="45.66515" lon="6.83448">
        <ele>2561</ele>
        <time>2019-10-06T12:41:56Z</time>
      </trkpt>
      <trkpt lat="45.66516" lon="6.83451">
        <ele>2561</ele>
        <time>2019-10-06T12:41:58Z</time>
      </trkpt>
      <trkpt lat="45.66516" lon="6.83454">
        <ele>2560</ele>
        <time>2019-10-06T12:42:00Z</time>
      </trkpt>
      <trkpt lat="45.66516" lon="6.83458">
        <ele>2560</ele>
        <time>2019-10-06T12:42:02Z</time>
      </trkpt>
      <trkpt lat="45.66517" lon="6.83462">
        <ele>2557</ele>
        <time>2019-10-06T12:42:04Z</time>
      </trkpt>
      <trkpt lat="45.66519" lon="6.83465">
        <ele>2557</ele>
        <time>2019-10-06T12:42:06Z</time>
      </trkpt>
      <trkpt lat="45.66521" lon="6.83468">
        <ele>2556</ele>
        <time>2019-10-06T12:42:08Z</time>
      </trkpt>
      <trkpt lat="45.66522" lon="6.8347">
        <ele>2554</ele>
        <time>2019-10-06T12:42:10Z</time>
      </trkpt>
      <trkpt lat="45.66522" lon="6.8347">
        <ele>2554</ele>
        <time>2019-10-06T12:42:12Z</time>
      </trkpt>
      <trkpt lat="45.66523" lon="6.83474">
        <ele>2554</ele>
        <time>2019-10-06T12:42:13Z</time>
      </trkpt>
      <trkpt lat="45.66524" lon="6.83477">
        <ele>2554</ele>
        <time>2019-10-06T12:42:15Z</time>
      </trkpt>
      <trkpt lat="45.66526" lon="6.83481">
        <ele>2553</ele>
        <time>2019-10-06T12:42:17Z</time>
      </trkpt>
      <trkpt lat="45.66528" lon="6.83484">
        <ele>2552</ele>
        <time>2019-10-06T12:42:19Z</time>
      </trkpt>
      <trkpt lat="45.66529" lon="6.83488">
        <ele>2551</ele>
        <time>2019-10-06T12:42:21Z</time>
      </trkpt>
      <trkpt lat="45.66531" lon="6.83492">
        <ele>2550</ele>
        <time>2019-10-06T12:42:23Z</time>
      </trkpt>
      <trkpt lat="45.66532" lon="6.83495">
        <ele>2550</ele>
        <time>2019-10-06T12:42:24Z</time>
      </trkpt>
      <trkpt lat="45.66534" lon="6.83497">
        <ele>2550</ele>
        <time>2019-10-06T12:42:25Z</time>
      </trkpt>
      <trkpt lat="45.66536" lon="6.835">
        <ele>2550</ele>
        <time>2019-10-06T12:42:27Z</time>
      </trkpt>
      <trkpt lat="45.66537" lon="6.83502">
        <ele>2550</ele>
        <time>2019-10-06T12:42:28Z</time>
      </trkpt>
      <trkpt lat="45.66538" lon="6.83505">
        <ele>2549</ele>
        <time>2019-10-06T12:42:29Z</time>
      </trkpt>
      <trkpt lat="45.66538" lon="6.83509">
        <ele>2549</ele>
        <time>2019-10-06T12:42:31Z</time>
      </trkpt>
      <trkpt lat="45.66538" lon="6.83513">
        <ele>2548</ele>
        <time>2019-10-06T12:42:33Z</time>
      </trkpt>
      <trkpt lat="45.66539" lon="6.83516">
        <ele>2547</ele>
        <time>2019-10-06T12:42:35Z</time>
      </trkpt>
      <trkpt lat="45.66539" lon="6.83519">
        <ele>2547</ele>
        <time>2019-10-06T12:42:37Z</time>
      </trkpt>
      <trkpt lat="45.6654" lon="6.83523">
        <ele>2545</ele>
        <time>2019-10-06T12:42:39Z</time>
      </trkpt>
      <trkpt lat="45.66541" lon="6.83528">
        <ele>2544</ele>
        <time>2019-10-06T12:42:41Z</time>
      </trkpt>
      <trkpt lat="45.66542" lon="6.83532">
        <ele>2543</ele>
        <time>2019-10-06T12:42:43Z</time>
      </trkpt>
      <trkpt lat="45.66542" lon="6.83537">
        <ele>2542</ele>
        <time>2019-10-06T12:42:45Z</time>
      </trkpt>
      <trkpt lat="45.66543" lon="6.83539">
        <ele>2542</ele>
        <time>2019-10-06T12:42:46Z</time>
      </trkpt>
      <trkpt lat="45.66543" lon="6.83544">
        <ele>2538</ele>
        <time>2019-10-06T12:42:48Z</time>
      </trkpt>
      <trkpt lat="45.66545" lon="6.83547">
        <ele>2538</ele>
        <time>2019-10-06T12:42:50Z</time>
      </trkpt>
      <trkpt lat="45.66546" lon="6.8355">
        <ele>2538</ele>
        <time>2019-10-06T12:42:52Z</time>
      </trkpt>
      <trkpt lat="45.66546" lon="6.83553">
        <ele>2537</ele>
        <time>2019-10-06T12:42:54Z</time>
      </trkpt>
      <trkpt lat="45.66547" lon="6.83556">
        <ele>2536</ele>
        <time>2019-10-06T12:42:56Z</time>
      </trkpt>
      <trkpt lat="45.66549" lon="6.83559">
        <ele>2536</ele>
        <time>2019-10-06T12:42:58Z</time>
      </trkpt>
      <trkpt lat="45.66551" lon="6.83562">
        <ele>2533</ele>
        <time>2019-10-06T12:43:00Z</time>
      </trkpt>
      <trkpt lat="45.66552" lon="6.83565">
        <ele>2533</ele>
        <time>2019-10-06T12:43:02Z</time>
      </trkpt>
      <trkpt lat="45.66554" lon="6.83569">
        <ele>2531</ele>
        <time>2019-10-06T12:43:04Z</time>
      </trkpt>
      <trkpt lat="45.66555" lon="6.83572">
        <ele>2531</ele>
        <time>2019-10-06T12:43:05Z</time>
      </trkpt>
      <trkpt lat="45.66556" lon="6.83574">
        <ele>2531</ele>
        <time>2019-10-06T12:43:06Z</time>
      </trkpt>
      <trkpt lat="45.66557" lon="6.83578">
        <ele>2531</ele>
        <time>2019-10-06T12:43:08Z</time>
      </trkpt>
      <trkpt lat="45.66558" lon="6.83582">
        <ele>2530</ele>
        <time>2019-10-06T12:43:10Z</time>
      </trkpt>
      <trkpt lat="45.6656" lon="6.83586">
        <ele>2528</ele>
        <time>2019-10-06T12:43:12Z</time>
      </trkpt>
      <trkpt lat="45.66561" lon="6.8359">
        <ele>2528</ele>
        <time>2019-10-06T12:43:14Z</time>
      </trkpt>
      <trkpt lat="45.66564" lon="6.83592">
        <ele>2527</ele>
        <time>2019-10-06T12:43:16Z</time>
      </trkpt>
      <trkpt lat="45.66566" lon="6.83594">
        <ele>2527</ele>
        <time>2019-10-06T12:43:18Z</time>
      </trkpt>
      <trkpt lat="45.66568" lon="6.83595">
        <ele>2527</ele>
        <time>2019-10-06T12:43:19Z</time>
      </trkpt>
      <trkpt lat="45.6657" lon="6.83597">
        <ele>2527</ele>
        <time>2019-10-06T12:43:20Z</time>
      </trkpt>
      <trkpt lat="45.66572" lon="6.83599">
        <ele>2527</ele>
        <time>2019-10-06T12:43:21Z</time>
      </trkpt>
      <trkpt lat="45.66573" lon="6.83601">
        <ele>2527</ele>
        <time>2019-10-06T12:43:22Z</time>
      </trkpt>
      <trkpt lat="45.66575" lon="6.83603">
        <ele>2527</ele>
        <time>2019-10-06T12:43:23Z</time>
      </trkpt>
      <trkpt lat="45.66577" lon="6.83605">
        <ele>2527</ele>
        <time>2019-10-06T12:43:24Z</time>
      </trkpt>
      <trkpt lat="45.66578" lon="6.83607">
        <ele>2527</ele>
        <time>2019-10-06T12:43:25Z</time>
      </trkpt>
      <trkpt lat="45.6658" lon="6.83609">
        <ele>2526</ele>
        <time>2019-10-06T12:43:26Z</time>
      </trkpt>
      <trkpt lat="45.66582" lon="6.83612">
        <ele>2526</ele>
        <time>2019-10-06T12:43:27Z</time>
      </trkpt>
      <trkpt lat="45.66583" lon="6.83614">
        <ele>2526</ele>
        <time>2019-10-06T12:43:28Z</time>
      </trkpt>
      <trkpt lat="45.66585" lon="6.83615">
        <ele>2526</ele>
        <time>2019-10-06T12:43:29Z</time>
      </trkpt>
      <trkpt lat="45.66586" lon="6.83616">
        <ele>2526</ele>
        <time>2019-10-06T12:43:30Z</time>
      </trkpt>
      <trkpt lat="45.6659" lon="6.83618">
        <ele>2526</ele>
        <time>2019-10-06T12:43:32Z</time>
      </trkpt>
      <trkpt lat="45.66592" lon="6.83619">
        <ele>2526</ele>
        <time>2019-10-06T12:43:33Z</time>
      </trkpt>
      <trkpt lat="45.66594" lon="6.8362">
        <ele>2526</ele>
        <time>2019-10-06T12:43:34Z</time>
      </trkpt>
      <trkpt lat="45.66596" lon="6.8362">
        <ele>2525</ele>
        <time>2019-10-06T12:43:35Z</time>
      </trkpt>
      <trkpt lat="45.66599" lon="6.83621">
        <ele>2526</ele>
        <time>2019-10-06T12:43:37Z</time>
      </trkpt>
      <trkpt lat="45.66601" lon="6.83622">
        <ele>2526</ele>
        <time>2019-10-06T12:43:39Z</time>
      </trkpt>
      <trkpt lat="45.66603" lon="6.83625">
        <ele>2527</ele>
        <time>2019-10-06T12:43:41Z</time>
      </trkpt>
      <trkpt lat="45.66603" lon="6.8363">
        <ele>2527</ele>
        <time>2019-10-06T12:43:43Z</time>
      </trkpt>
      <trkpt lat="45.66602" lon="6.83633">
        <ele>2527</ele>
        <time>2019-10-06T12:43:45Z</time>
      </trkpt>
      <trkpt lat="45.66601" lon="6.83637">
        <ele>2526</ele>
        <time>2019-10-06T12:43:47Z</time>
      </trkpt>
      <trkpt lat="45.666" lon="6.83641">
        <ele>2526</ele>
        <time>2019-10-06T12:43:49Z</time>
      </trkpt>
      <trkpt lat="45.66599" lon="6.83644">
        <ele>2525</ele>
        <time>2019-10-06T12:43:51Z</time>
      </trkpt>
      <trkpt lat="45.66599" lon="6.83648">
        <ele>2526</ele>
        <time>2019-10-06T12:43:53Z</time>
      </trkpt>
      <trkpt lat="45.66599" lon="6.83652">
        <ele>2526</ele>
        <time>2019-10-06T12:43:55Z</time>
      </trkpt>
      <trkpt lat="45.66598" lon="6.83657">
        <ele>2526</ele>
        <time>2019-10-06T12:43:57Z</time>
      </trkpt>
      <trkpt lat="45.66598" lon="6.83659">
        <ele>2526</ele>
        <time>2019-10-06T12:43:58Z</time>
      </trkpt>
      <trkpt lat="45.66598" lon="6.83662">
        <ele>2526</ele>
        <time>2019-10-06T12:43:59Z</time>
      </trkpt>
      <trkpt lat="45.66598" lon="6.83665">
        <ele>2526</ele>
        <time>2019-10-06T12:44:00Z</time>
      </trkpt>
      <trkpt lat="45.66597" lon="6.83668">
        <ele>2526</ele>
        <time>2019-10-06T12:44:01Z</time>
      </trkpt>
      <trkpt lat="45.66596" lon="6.83671">
        <ele>2526</ele>
        <time>2019-10-06T12:44:02Z</time>
      </trkpt>
      <trkpt lat="45.66596" lon="6.83674">
        <ele>2525</ele>
        <time>2019-10-06T12:44:03Z</time>
      </trkpt>
      <trkpt lat="45.66595" lon="6.83677">
        <ele>2524</ele>
        <time>2019-10-06T12:44:04Z</time>
      </trkpt>
      <trkpt lat="45.66595" lon="6.8368">
        <ele>2524</ele>
        <time>2019-10-06T12:44:05Z</time>
      </trkpt>
      <trkpt lat="45.66594" lon="6.83683">
        <ele>2524</ele>
        <time>2019-10-06T12:44:06Z</time>
      </trkpt>
      <trkpt lat="45.66594" lon="6.83686">
        <ele>2524</ele>
        <time>2019-10-06T12:44:07Z</time>
      </trkpt>
      <trkpt lat="45.66593" lon="6.83689">
        <ele>2524</ele>
        <time>2019-10-06T12:44:08Z</time>
      </trkpt>
      <trkpt lat="45.66593" lon="6.83692">
        <ele>2524</ele>
        <time>2019-10-06T12:44:09Z</time>
      </trkpt>
      <trkpt lat="45.66593" lon="6.83695">
        <ele>2524</ele>
        <time>2019-10-06T12:44:10Z</time>
      </trkpt>
      <trkpt lat="45.66593" lon="6.83698">
        <ele>2524</ele>
        <time>2019-10-06T12:44:11Z</time>
      </trkpt>
      <trkpt lat="45.66593" lon="6.83701">
        <ele>2523</ele>
        <time>2019-10-06T12:44:12Z</time>
      </trkpt>
      <trkpt lat="45.66593" lon="6.83704">
        <ele>2523</ele>
        <time>2019-10-06T12:44:13Z</time>
      </trkpt>
      <trkpt lat="45.66593" lon="6.83706">
        <ele>2522</ele>
        <time>2019-10-06T12:44:14Z</time>
      </trkpt>
      <trkpt lat="45.66594" lon="6.83709">
        <ele>2522</ele>
        <time>2019-10-06T12:44:15Z</time>
      </trkpt>
      <trkpt lat="45.66594" lon="6.83712">
        <ele>2522</ele>
        <time>2019-10-06T12:44:16Z</time>
      </trkpt>
      <trkpt lat="45.66594" lon="6.83715">
        <ele>2520</ele>
        <time>2019-10-06T12:44:17Z</time>
      </trkpt>
      <trkpt lat="45.66594" lon="6.83718">
        <ele>2520</ele>
        <time>2019-10-06T12:44:18Z</time>
      </trkpt>
      <trkpt lat="45.66595" lon="6.83721">
        <ele>2520</ele>
        <time>2019-10-06T12:44:19Z</time>
      </trkpt>
      <trkpt lat="45.66595" lon="6.83724">
        <ele>2520</ele>
        <time>2019-10-06T12:44:20Z</time>
      </trkpt>
      <trkpt lat="45.66596" lon="6.83727">
        <ele>2520</ele>
        <time>2019-10-06T12:44:21Z</time>
      </trkpt>
      <trkpt lat="45.66596" lon="6.8373">
        <ele>2520</ele>
        <time>2019-10-06T12:44:22Z</time>
      </trkpt>
      <trkpt lat="45.66597" lon="6.83733">
        <ele>2519</ele>
        <time>2019-10-06T12:44:23Z</time>
      </trkpt>
      <trkpt lat="45.66598" lon="6.83736">
        <ele>2518</ele>
        <time>2019-10-06T12:44:24Z</time>
      </trkpt>
      <trkpt lat="45.66599" lon="6.83738">
        <ele>2518</ele>
        <time>2019-10-06T12:44:25Z</time>
      </trkpt>
      <trkpt lat="45.666" lon="6.8374">
        <ele>2518</ele>
        <time>2019-10-06T12:44:26Z</time>
      </trkpt>
      <trkpt lat="45.66601" lon="6.83743">
        <ele>2518</ele>
        <time>2019-10-06T12:44:27Z</time>
      </trkpt>
      <trkpt lat="45.66601" lon="6.83746">
        <ele>2517</ele>
        <time>2019-10-06T12:44:28Z</time>
      </trkpt>
      <trkpt lat="45.666" lon="6.83748">
        <ele>2517</ele>
        <time>2019-10-06T12:44:29Z</time>
      </trkpt>
      <trkpt lat="45.666" lon="6.83751">
        <ele>2517</ele>
        <time>2019-10-06T12:44:30Z</time>
      </trkpt>
      <trkpt lat="45.666" lon="6.83754">
        <ele>2517</ele>
        <time>2019-10-06T12:44:31Z</time>
      </trkpt>
      <trkpt lat="45.66601" lon="6.83757">
        <ele>2517</ele>
        <time>2019-10-06T12:44:32Z</time>
      </trkpt>
      <trkpt lat="45.66601" lon="6.8376">
        <ele>2517</ele>
        <time>2019-10-06T12:44:33Z</time>
      </trkpt>
      <trkpt lat="45.66601" lon="6.83763">
        <ele>2517</ele>
        <time>2019-10-06T12:44:34Z</time>
      </trkpt>
      <trkpt lat="45.66601" lon="6.83766">
        <ele>2516</ele>
        <time>2019-10-06T12:44:35Z</time>
      </trkpt>
      <trkpt lat="45.66601" lon="6.83769">
        <ele>2516</ele>
        <time>2019-10-06T12:44:36Z</time>
      </trkpt>
      <trkpt lat="45.66601" lon="6.83772">
        <ele>2516</ele>
        <time>2019-10-06T12:44:37Z</time>
      </trkpt>
      <trkpt lat="45.66601" lon="6.83775">
        <ele>2515</ele>
        <time>2019-10-06T12:44:38Z</time>
      </trkpt>
      <trkpt lat="45.66601" lon="6.83777">
        <ele>2515</ele>
        <time>2019-10-06T12:44:39Z</time>
      </trkpt>
      <trkpt lat="45.66601" lon="6.83781">
        <ele>2514</ele>
        <time>2019-10-06T12:44:41Z</time>
      </trkpt>
      <trkpt lat="45.66603" lon="6.83785">
        <ele>2513</ele>
        <time>2019-10-06T12:44:43Z</time>
      </trkpt>
      <trkpt lat="45.66603" lon="6.83788">
        <ele>2513</ele>
        <time>2019-10-06T12:44:44Z</time>
      </trkpt>
      <trkpt lat="45.66602" lon="6.8379">
        <ele>2513</ele>
        <time>2019-10-06T12:44:45Z</time>
      </trkpt>
      <trkpt lat="45.66601" lon="6.83795">
        <ele>2513</ele>
        <time>2019-10-06T12:44:47Z</time>
      </trkpt>
      <trkpt lat="45.666" lon="6.83799">
        <ele>2513</ele>
        <time>2019-10-06T12:44:49Z</time>
      </trkpt>
      <trkpt lat="45.66598" lon="6.83804">
        <ele>2513</ele>
        <time>2019-10-06T12:44:51Z</time>
      </trkpt>
      <trkpt lat="45.66597" lon="6.83806">
        <ele>2513</ele>
        <time>2019-10-06T12:44:52Z</time>
      </trkpt>
      <trkpt lat="45.66596" lon="6.83809">
        <ele>2513</ele>
        <time>2019-10-06T12:44:53Z</time>
      </trkpt>
      <trkpt lat="45.66596" lon="6.83812">
        <ele>2513</ele>
        <time>2019-10-06T12:44:54Z</time>
      </trkpt>
      <trkpt lat="45.66595" lon="6.83814">
        <ele>2513</ele>
        <time>2019-10-06T12:44:55Z</time>
      </trkpt>
      <trkpt lat="45.66594" lon="6.83817">
        <ele>2513</ele>
        <time>2019-10-06T12:44:56Z</time>
      </trkpt>
      <trkpt lat="45.66594" lon="6.83819">
        <ele>2512</ele>
        <time>2019-10-06T12:44:57Z</time>
      </trkpt>
      <trkpt lat="45.66594" lon="6.83822">
        <ele>2512</ele>
        <time>2019-10-06T12:44:58Z</time>
      </trkpt>
      <trkpt lat="45.66593" lon="6.83825">
        <ele>2512</ele>
        <time>2019-10-06T12:44:59Z</time>
      </trkpt>
      <trkpt lat="45.66593" lon="6.83828">
        <ele>2512</ele>
        <time>2019-10-06T12:45:00Z</time>
      </trkpt>
      <trkpt lat="45.66592" lon="6.83831">
        <ele>2512</ele>
        <time>2019-10-06T12:45:01Z</time>
      </trkpt>
      <trkpt lat="45.66592" lon="6.83833">
        <ele>2511</ele>
        <time>2019-10-06T12:45:02Z</time>
      </trkpt>
      <trkpt lat="45.66592" lon="6.83836">
        <ele>2511</ele>
        <time>2019-10-06T12:45:03Z</time>
      </trkpt>
      <trkpt lat="45.66592" lon="6.83839">
        <ele>2511</ele>
        <time>2019-10-06T12:45:04Z</time>
      </trkpt>
      <trkpt lat="45.66592" lon="6.83841">
        <ele>2511</ele>
        <time>2019-10-06T12:45:05Z</time>
      </trkpt>
      <trkpt lat="45.66592" lon="6.83846">
        <ele>2511</ele>
        <time>2019-10-06T12:45:07Z</time>
      </trkpt>
      <trkpt lat="45.66592" lon="6.83849">
        <ele>2511</ele>
        <time>2019-10-06T12:45:08Z</time>
      </trkpt>
      <trkpt lat="45.66592" lon="6.83852">
        <ele>2510</ele>
        <time>2019-10-06T12:45:09Z</time>
      </trkpt>
      <trkpt lat="45.66592" lon="6.83855">
        <ele>2508</ele>
        <time>2019-10-06T12:45:10Z</time>
      </trkpt>
      <trkpt lat="45.66592" lon="6.83858">
        <ele>2508</ele>
        <time>2019-10-06T12:45:11Z</time>
      </trkpt>
      <trkpt lat="45.66591" lon="6.8386">
        <ele>2508</ele>
        <time>2019-10-06T12:45:12Z</time>
      </trkpt>
      <trkpt lat="45.66591" lon="6.83866">
        <ele>2508</ele>
        <time>2019-10-06T12:45:14Z</time>
      </trkpt>
      <trkpt lat="45.66592" lon="6.83868">
        <ele>2507</ele>
        <time>2019-10-06T12:45:15Z</time>
      </trkpt>
      <trkpt lat="45.66592" lon="6.83871">
        <ele>2507</ele>
        <time>2019-10-06T12:45:16Z</time>
      </trkpt>
      <trkpt lat="45.66593" lon="6.83875">
        <ele>2507</ele>
        <time>2019-10-06T12:45:17Z</time>
      </trkpt>
      <trkpt lat="45.66593" lon="6.83878">
        <ele>2507</ele>
        <time>2019-10-06T12:45:18Z</time>
      </trkpt>
      <trkpt lat="45.66592" lon="6.83883">
        <ele>2507</ele>
        <time>2019-10-06T12:45:20Z</time>
      </trkpt>
      <trkpt lat="45.66592" lon="6.83886">
        <ele>2507</ele>
        <time>2019-10-06T12:45:21Z</time>
      </trkpt>
      <trkpt lat="45.66591" lon="6.83889">
        <ele>2506</ele>
        <time>2019-10-06T12:45:22Z</time>
      </trkpt>
      <trkpt lat="45.66591" lon="6.83892">
        <ele>2506</ele>
        <time>2019-10-06T12:45:23Z</time>
      </trkpt>
      <trkpt lat="45.66592" lon="6.83895">
        <ele>2505</ele>
        <time>2019-10-06T12:45:24Z</time>
      </trkpt>
      <trkpt lat="45.66592" lon="6.83898">
        <ele>2505</ele>
        <time>2019-10-06T12:45:25Z</time>
      </trkpt>
      <trkpt lat="45.66592" lon="6.83901">
        <ele>2505</ele>
        <time>2019-10-06T12:45:26Z</time>
      </trkpt>
      <trkpt lat="45.66593" lon="6.83904">
        <ele>2504</ele>
        <time>2019-10-06T12:45:27Z</time>
      </trkpt>
      <trkpt lat="45.66593" lon="6.83907">
        <ele>2504</ele>
        <time>2019-10-06T12:45:28Z</time>
      </trkpt>
      <trkpt lat="45.66593" lon="6.83909">
        <ele>2504</ele>
        <time>2019-10-06T12:45:29Z</time>
      </trkpt>
      <trkpt lat="45.66593" lon="6.83912">
        <ele>2503</ele>
        <time>2019-10-06T12:45:30Z</time>
      </trkpt>
      <trkpt lat="45.66592" lon="6.83915">
        <ele>2503</ele>
        <time>2019-10-06T12:45:31Z</time>
      </trkpt>
      <trkpt lat="45.66592" lon="6.83918">
        <ele>2503</ele>
        <time>2019-10-06T12:45:32Z</time>
      </trkpt>
      <trkpt lat="45.66592" lon="6.83921">
        <ele>2502</ele>
        <time>2019-10-06T12:45:33Z</time>
      </trkpt>
      <trkpt lat="45.66592" lon="6.83923">
        <ele>2501</ele>
        <time>2019-10-06T12:45:34Z</time>
      </trkpt>
      <trkpt lat="45.66592" lon="6.83926">
        <ele>2501</ele>
        <time>2019-10-06T12:45:35Z</time>
      </trkpt>
      <trkpt lat="45.66592" lon="6.83929">
        <ele>2501</ele>
        <time>2019-10-06T12:45:36Z</time>
      </trkpt>
      <trkpt lat="45.66592" lon="6.83932">
        <ele>2501</ele>
        <time>2019-10-06T12:45:37Z</time>
      </trkpt>
      <trkpt lat="45.66592" lon="6.83935">
        <ele>2500</ele>
        <time>2019-10-06T12:45:38Z</time>
      </trkpt>
      <trkpt lat="45.66592" lon="6.83938">
        <ele>2500</ele>
        <time>2019-10-06T12:45:39Z</time>
      </trkpt>
      <trkpt lat="45.66592" lon="6.83941">
        <ele>2500</ele>
        <time>2019-10-06T12:45:40Z</time>
      </trkpt>
      <trkpt lat="45.66591" lon="6.83944">
        <ele>2499</ele>
        <time>2019-10-06T12:45:41Z</time>
      </trkpt>
      <trkpt lat="45.66592" lon="6.83949">
        <ele>2498</ele>
        <time>2019-10-06T12:45:43Z</time>
      </trkpt>
      <trkpt lat="45.66592" lon="6.83951">
        <ele>2498</ele>
        <time>2019-10-06T12:45:44Z</time>
      </trkpt>
      <trkpt lat="45.66592" lon="6.83956">
        <ele>2498</ele>
        <time>2019-10-06T12:45:45Z</time>
      </trkpt>
      <trkpt lat="45.66592" lon="6.83961">
        <ele>2496</ele>
        <time>2019-10-06T12:45:46Z</time>
      </trkpt>
      <trkpt lat="45.66592" lon="6.83964">
        <ele>2495</ele>
        <time>2019-10-06T12:45:47Z</time>
      </trkpt>
      <trkpt lat="45.66591" lon="6.83968">
        <ele>2495</ele>
        <time>2019-10-06T12:45:48Z</time>
      </trkpt>
      <trkpt lat="45.6659" lon="6.8397">
        <ele>2496</ele>
        <time>2019-10-06T12:45:49Z</time>
      </trkpt>
      <trkpt lat="45.6659" lon="6.83973">
        <ele>2496</ele>
        <time>2019-10-06T12:45:50Z</time>
      </trkpt>
      <trkpt lat="45.66589" lon="6.83976">
        <ele>2496</ele>
        <time>2019-10-06T12:45:51Z</time>
      </trkpt>
      <trkpt lat="45.66588" lon="6.83979">
        <ele>2496</ele>
        <time>2019-10-06T12:45:52Z</time>
      </trkpt>
      <trkpt lat="45.66588" lon="6.83985">
        <ele>2495</ele>
        <time>2019-10-06T12:45:54Z</time>
      </trkpt>
      <trkpt lat="45.66588" lon="6.83988">
        <ele>2495</ele>
        <time>2019-10-06T12:45:55Z</time>
      </trkpt>
      <trkpt lat="45.66588" lon="6.8399">
        <ele>2495</ele>
        <time>2019-10-06T12:45:56Z</time>
      </trkpt>
      <trkpt lat="45.66588" lon="6.83993">
        <ele>2495</ele>
        <time>2019-10-06T12:45:57Z</time>
      </trkpt>
      <trkpt lat="45.66587" lon="6.83996">
        <ele>2494</ele>
        <time>2019-10-06T12:45:58Z</time>
      </trkpt>
      <trkpt lat="45.66587" lon="6.83999">
        <ele>2494</ele>
        <time>2019-10-06T12:45:59Z</time>
      </trkpt>
      <trkpt lat="45.66586" lon="6.84002">
        <ele>2493</ele>
        <time>2019-10-06T12:46:00Z</time>
      </trkpt>
      <trkpt lat="45.66586" lon="6.84005">
        <ele>2493</ele>
        <time>2019-10-06T12:46:01Z</time>
      </trkpt>
      <trkpt lat="45.66587" lon="6.84007">
        <ele>2493</ele>
        <time>2019-10-06T12:46:02Z</time>
      </trkpt>
      <trkpt lat="45.66587" lon="6.8401">
        <ele>2492</ele>
        <time>2019-10-06T12:46:03Z</time>
      </trkpt>
      <trkpt lat="45.66588" lon="6.84012">
        <ele>2491</ele>
        <time>2019-10-06T12:46:04Z</time>
      </trkpt>
      <trkpt lat="45.6659" lon="6.84017">
        <ele>2490</ele>
        <time>2019-10-06T12:46:06Z</time>
      </trkpt>
      <trkpt lat="45.66591" lon="6.84022">
        <ele>2490</ele>
        <time>2019-10-06T12:46:08Z</time>
      </trkpt>
      <trkpt lat="45.66591" lon="6.84025">
        <ele>2490</ele>
        <time>2019-10-06T12:46:09Z</time>
      </trkpt>
      <trkpt lat="45.66592" lon="6.84027">
        <ele>2490</ele>
        <time>2019-10-06T12:46:10Z</time>
      </trkpt>
      <trkpt lat="45.66591" lon="6.84031">
        <ele>2490</ele>
        <time>2019-10-06T12:46:11Z</time>
      </trkpt>
      <trkpt lat="45.66591" lon="6.84034">
        <ele>2490</ele>
        <time>2019-10-06T12:46:12Z</time>
      </trkpt>
      <trkpt lat="45.66591" lon="6.84038">
        <ele>2490</ele>
        <time>2019-10-06T12:46:13Z</time>
      </trkpt>
      <trkpt lat="45.6659" lon="6.84041">
        <ele>2490</ele>
        <time>2019-10-06T12:46:14Z</time>
      </trkpt>
      <trkpt lat="45.6659" lon="6.84045">
        <ele>2490</ele>
        <time>2019-10-06T12:46:15Z</time>
      </trkpt>
      <trkpt lat="45.66589" lon="6.84048">
        <ele>2490</ele>
        <time>2019-10-06T12:46:16Z</time>
      </trkpt>
      <trkpt lat="45.66588" lon="6.84051">
        <ele>2489</ele>
        <time>2019-10-06T12:46:17Z</time>
      </trkpt>
      <trkpt lat="45.66587" lon="6.84054">
        <ele>2489</ele>
        <time>2019-10-06T12:46:18Z</time>
      </trkpt>
      <trkpt lat="45.66587" lon="6.84056">
        <ele>2489</ele>
        <time>2019-10-06T12:46:19Z</time>
      </trkpt>
      <trkpt lat="45.66587" lon="6.84059">
        <ele>2489</ele>
        <time>2019-10-06T12:46:20Z</time>
      </trkpt>
      <trkpt lat="45.66588" lon="6.84062">
        <ele>2489</ele>
        <time>2019-10-06T12:46:21Z</time>
      </trkpt>
      <trkpt lat="45.66588" lon="6.84066">
        <ele>2488</ele>
        <time>2019-10-06T12:46:22Z</time>
      </trkpt>
      <trkpt lat="45.66588" lon="6.8407">
        <ele>2488</ele>
        <time>2019-10-06T12:46:23Z</time>
      </trkpt>
      <trkpt lat="45.66587" lon="6.84073">
        <ele>2488</ele>
        <time>2019-10-06T12:46:24Z</time>
      </trkpt>
      <trkpt lat="45.66587" lon="6.84077">
        <ele>2487</ele>
        <time>2019-10-06T12:46:25Z</time>
      </trkpt>
      <trkpt lat="45.66587" lon="6.8408">
        <ele>2487</ele>
        <time>2019-10-06T12:46:26Z</time>
      </trkpt>
      <trkpt lat="45.66588" lon="6.84085">
        <ele>2484</ele>
        <time>2019-10-06T12:46:28Z</time>
      </trkpt>
      <trkpt lat="45.66588" lon="6.8409">
        <ele>2483</ele>
        <time>2019-10-06T12:46:30Z</time>
      </trkpt>
      <trkpt lat="45.66587" lon="6.84093">
        <ele>2483</ele>
        <time>2019-10-06T12:46:31Z</time>
      </trkpt>
      <trkpt lat="45.66586" lon="6.84095">
        <ele>2483</ele>
        <time>2019-10-06T12:46:32Z</time>
      </trkpt>
      <trkpt lat="45.66585" lon="6.84098">
        <ele>2482</ele>
        <time>2019-10-06T12:46:33Z</time>
      </trkpt>
      <trkpt lat="45.66584" lon="6.841">
        <ele>2482</ele>
        <time>2019-10-06T12:46:34Z</time>
      </trkpt>
      <trkpt lat="45.66582" lon="6.84102">
        <ele>2481</ele>
        <time>2019-10-06T12:46:35Z</time>
      </trkpt>
      <trkpt lat="45.66581" lon="6.84105">
        <ele>2481</ele>
        <time>2019-10-06T12:46:36Z</time>
      </trkpt>
      <trkpt lat="45.6658" lon="6.84107">
        <ele>2480</ele>
        <time>2019-10-06T12:46:37Z</time>
      </trkpt>
      <trkpt lat="45.66579" lon="6.84111">
        <ele>2479</ele>
        <time>2019-10-06T12:46:39Z</time>
      </trkpt>
      <trkpt lat="45.66579" lon="6.84115">
        <ele>2479</ele>
        <time>2019-10-06T12:46:41Z</time>
      </trkpt>
      <trkpt lat="45.66578" lon="6.84119">
        <ele>2479</ele>
        <time>2019-10-06T12:46:43Z</time>
      </trkpt>
      <trkpt lat="45.66577" lon="6.84123">
        <ele>2480</ele>
        <time>2019-10-06T12:46:45Z</time>
      </trkpt>
      <trkpt lat="45.66577" lon="6.84123">
        <ele>2481</ele>
        <time>2019-10-06T12:46:47Z</time>
      </trkpt>
      <trkpt lat="45.66576" lon="6.84125">
        <ele>2481</ele>
        <time>2019-10-06T12:46:48Z</time>
      </trkpt>
      <trkpt lat="45.66573" lon="6.84128">
        <ele>2481</ele>
        <time>2019-10-06T12:46:50Z</time>
      </trkpt>
      <trkpt lat="45.66571" lon="6.84131">
        <ele>2481</ele>
        <time>2019-10-06T12:46:52Z</time>
      </trkpt>
      <trkpt lat="45.66569" lon="6.84133">
        <ele>2481</ele>
        <time>2019-10-06T12:46:53Z</time>
      </trkpt>
      <trkpt lat="45.66568" lon="6.84135">
        <ele>2481</ele>
        <time>2019-10-06T12:46:54Z</time>
      </trkpt>
      <trkpt lat="45.66566" lon="6.84137">
        <ele>2481</ele>
        <time>2019-10-06T12:46:55Z</time>
      </trkpt>
      <trkpt lat="45.66565" lon="6.84139">
        <ele>2481</ele>
        <time>2019-10-06T12:46:56Z</time>
      </trkpt>
      <trkpt lat="45.66563" lon="6.84141">
        <ele>2481</ele>
        <time>2019-10-06T12:46:57Z</time>
      </trkpt>
      <trkpt lat="45.66561" lon="6.84143">
        <ele>2481</ele>
        <time>2019-10-06T12:46:58Z</time>
      </trkpt>
      <trkpt lat="45.66559" lon="6.84145">
        <ele>2480</ele>
        <time>2019-10-06T12:46:59Z</time>
      </trkpt>
      <trkpt lat="45.66557" lon="6.84148">
        <ele>2480</ele>
        <time>2019-10-06T12:47:01Z</time>
      </trkpt>
      <trkpt lat="45.66555" lon="6.84151">
        <ele>2480</ele>
        <time>2019-10-06T12:47:02Z</time>
      </trkpt>
      <trkpt lat="45.66554" lon="6.84154">
        <ele>2480</ele>
        <time>2019-10-06T12:47:03Z</time>
      </trkpt>
      <trkpt lat="45.66552" lon="6.84156">
        <ele>2480</ele>
        <time>2019-10-06T12:47:04Z</time>
      </trkpt>
      <trkpt lat="45.6655" lon="6.84159">
        <ele>2479</ele>
        <time>2019-10-06T12:47:05Z</time>
      </trkpt>
      <trkpt lat="45.66549" lon="6.84162">
        <ele>2479</ele>
        <time>2019-10-06T12:47:06Z</time>
      </trkpt>
      <trkpt lat="45.66548" lon="6.84164">
        <ele>2479</ele>
        <time>2019-10-06T12:47:07Z</time>
      </trkpt>
      <trkpt lat="45.66547" lon="6.84167">
        <ele>2479</ele>
        <time>2019-10-06T12:47:08Z</time>
      </trkpt>
      <trkpt lat="45.66545" lon="6.84169">
        <ele>2479</ele>
        <time>2019-10-06T12:47:09Z</time>
      </trkpt>
      <trkpt lat="45.66544" lon="6.84172">
        <ele>2479</ele>
        <time>2019-10-06T12:47:10Z</time>
      </trkpt>
      <trkpt lat="45.66542" lon="6.84174">
        <ele>2479</ele>
        <time>2019-10-06T12:47:11Z</time>
      </trkpt>
      <trkpt lat="45.66541" lon="6.84177">
        <ele>2479</ele>
        <time>2019-10-06T12:47:12Z</time>
      </trkpt>
      <trkpt lat="45.66539" lon="6.84179">
        <ele>2478</ele>
        <time>2019-10-06T12:47:13Z</time>
      </trkpt>
      <trkpt lat="45.66538" lon="6.84181">
        <ele>2477</ele>
        <time>2019-10-06T12:47:14Z</time>
      </trkpt>
      <trkpt lat="45.66536" lon="6.84182">
        <ele>2477</ele>
        <time>2019-10-06T12:47:15Z</time>
      </trkpt>
      <trkpt lat="45.66534" lon="6.84184">
        <ele>2477</ele>
        <time>2019-10-06T12:47:16Z</time>
      </trkpt>
      <trkpt lat="45.66533" lon="6.84186">
        <ele>2477</ele>
        <time>2019-10-06T12:47:17Z</time>
      </trkpt>
      <trkpt lat="45.66532" lon="6.84189">
        <ele>2477</ele>
        <time>2019-10-06T12:47:18Z</time>
      </trkpt>
      <trkpt lat="45.66531" lon="6.84192">
        <ele>2477</ele>
        <time>2019-10-06T12:47:19Z</time>
      </trkpt>
      <trkpt lat="45.6653" lon="6.84195">
        <ele>2477</ele>
        <time>2019-10-06T12:47:20Z</time>
      </trkpt>
      <trkpt lat="45.66531" lon="6.84198">
        <ele>2476</ele>
        <time>2019-10-06T12:47:21Z</time>
      </trkpt>
      <trkpt lat="45.66531" lon="6.84202">
        <ele>2476</ele>
        <time>2019-10-06T12:47:22Z</time>
      </trkpt>
      <trkpt lat="45.66532" lon="6.84205">
        <ele>2476</ele>
        <time>2019-10-06T12:47:23Z</time>
      </trkpt>
      <trkpt lat="45.66532" lon="6.84208">
        <ele>2475</ele>
        <time>2019-10-06T12:47:24Z</time>
      </trkpt>
      <trkpt lat="45.66533" lon="6.8421">
        <ele>2475</ele>
        <time>2019-10-06T12:47:25Z</time>
      </trkpt>
      <trkpt lat="45.66534" lon="6.84213">
        <ele>2475</ele>
        <time>2019-10-06T12:47:26Z</time>
      </trkpt>
      <trkpt lat="45.66534" lon="6.84216">
        <ele>2475</ele>
        <time>2019-10-06T12:47:27Z</time>
      </trkpt>
      <trkpt lat="45.66535" lon="6.84219">
        <ele>2475</ele>
        <time>2019-10-06T12:47:28Z</time>
      </trkpt>
      <trkpt lat="45.66535" lon="6.84222">
        <ele>2475</ele>
        <time>2019-10-06T12:47:29Z</time>
      </trkpt>
      <trkpt lat="45.66536" lon="6.84225">
        <ele>2475</ele>
        <time>2019-10-06T12:47:30Z</time>
      </trkpt>
      <trkpt lat="45.66536" lon="6.84228">
        <ele>2475</ele>
        <time>2019-10-06T12:47:31Z</time>
      </trkpt>
      <trkpt lat="45.66536" lon="6.8423">
        <ele>2474</ele>
        <time>2019-10-06T12:47:32Z</time>
      </trkpt>
      <trkpt lat="45.66537" lon="6.84235">
        <ele>2472</ele>
        <time>2019-10-06T12:47:34Z</time>
      </trkpt>
      <trkpt lat="45.66537" lon="6.84238">
        <ele>2472</ele>
        <time>2019-10-06T12:47:35Z</time>
      </trkpt>
      <trkpt lat="45.66537" lon="6.8424">
        <ele>2472</ele>
        <time>2019-10-06T12:47:36Z</time>
      </trkpt>
      <trkpt lat="45.66538" lon="6.84243">
        <ele>2472</ele>
        <time>2019-10-06T12:47:37Z</time>
      </trkpt>
      <trkpt lat="45.66539" lon="6.84246">
        <ele>2472</ele>
        <time>2019-10-06T12:47:38Z</time>
      </trkpt>
      <trkpt lat="45.66539" lon="6.84248">
        <ele>2471</ele>
        <time>2019-10-06T12:47:39Z</time>
      </trkpt>
      <trkpt lat="45.6654" lon="6.84251">
        <ele>2471</ele>
        <time>2019-10-06T12:47:40Z</time>
      </trkpt>
      <trkpt lat="45.6654" lon="6.84253">
        <ele>2470</ele>
        <time>2019-10-06T12:47:41Z</time>
      </trkpt>
      <trkpt lat="45.66542" lon="6.84258">
        <ele>2469</ele>
        <time>2019-10-06T12:47:43Z</time>
      </trkpt>
      <trkpt lat="45.66542" lon="6.8426">
        <ele>2469</ele>
        <time>2019-10-06T12:47:44Z</time>
      </trkpt>
      <trkpt lat="45.66542" lon="6.84263">
        <ele>2469</ele>
        <time>2019-10-06T12:47:45Z</time>
      </trkpt>
      <trkpt lat="45.66542" lon="6.84266">
        <ele>2468</ele>
        <time>2019-10-06T12:47:46Z</time>
      </trkpt>
      <trkpt lat="45.66541" lon="6.84269">
        <ele>2468</ele>
        <time>2019-10-06T12:47:47Z</time>
      </trkpt>
      <trkpt lat="45.66541" lon="6.84272">
        <ele>2468</ele>
        <time>2019-10-06T12:47:48Z</time>
      </trkpt>
      <trkpt lat="45.6654" lon="6.84276">
        <ele>2468</ele>
        <time>2019-10-06T12:47:49Z</time>
      </trkpt>
      <trkpt lat="45.66539" lon="6.84279">
        <ele>2468</ele>
        <time>2019-10-06T12:47:50Z</time>
      </trkpt>
      <trkpt lat="45.66538" lon="6.84281">
        <ele>2468</ele>
        <time>2019-10-06T12:47:51Z</time>
      </trkpt>
      <trkpt lat="45.66537" lon="6.84283">
        <ele>2468</ele>
        <time>2019-10-06T12:47:52Z</time>
      </trkpt>
      <trkpt lat="45.66536" lon="6.84286">
        <ele>2468</ele>
        <time>2019-10-06T12:47:53Z</time>
      </trkpt>
      <trkpt lat="45.66535" lon="6.84288">
        <ele>2468</ele>
        <time>2019-10-06T12:47:54Z</time>
      </trkpt>
      <trkpt lat="45.66534" lon="6.84291">
        <ele>2468</ele>
        <time>2019-10-06T12:47:55Z</time>
      </trkpt>
      <trkpt lat="45.66533" lon="6.84293">
        <ele>2467</ele>
        <time>2019-10-06T12:47:56Z</time>
      </trkpt>
      <trkpt lat="45.66531" lon="6.84297">
        <ele>2466</ele>
        <time>2019-10-06T12:47:58Z</time>
      </trkpt>
      <trkpt lat="45.6653" lon="6.84299">
        <ele>2466</ele>
        <time>2019-10-06T12:47:59Z</time>
      </trkpt>
      <trkpt lat="45.66528" lon="6.84301">
        <ele>2465</ele>
        <time>2019-10-06T12:48:00Z</time>
      </trkpt>
      <trkpt lat="45.66527" lon="6.84303">
        <ele>2465</ele>
        <time>2019-10-06T12:48:01Z</time>
      </trkpt>
      <trkpt lat="45.66525" lon="6.84308">
        <ele>2464</ele>
        <time>2019-10-06T12:48:03Z</time>
      </trkpt>
      <trkpt lat="45.66523" lon="6.84311">
        <ele>2463</ele>
        <time>2019-10-06T12:48:05Z</time>
      </trkpt>
      <trkpt lat="45.66521" lon="6.84312">
        <ele>2462</ele>
        <time>2019-10-06T12:48:06Z</time>
      </trkpt>
      <trkpt lat="45.66519" lon="6.84314">
        <ele>2462</ele>
        <time>2019-10-06T12:48:07Z</time>
      </trkpt>
      <trkpt lat="45.66518" lon="6.84316">
        <ele>2461</ele>
        <time>2019-10-06T12:48:08Z</time>
      </trkpt>
      <trkpt lat="45.66517" lon="6.84319">
        <ele>2461</ele>
        <time>2019-10-06T12:48:09Z</time>
      </trkpt>
      <trkpt lat="45.66516" lon="6.84322">
        <ele>2461</ele>
        <time>2019-10-06T12:48:10Z</time>
      </trkpt>
      <trkpt lat="45.66515" lon="6.84324">
        <ele>2461</ele>
        <time>2019-10-06T12:48:11Z</time>
      </trkpt>
      <trkpt lat="45.66513" lon="6.84326">
        <ele>2461</ele>
        <time>2019-10-06T12:48:12Z</time>
      </trkpt>
      <trkpt lat="45.66511" lon="6.84328">
        <ele>2461</ele>
        <time>2019-10-06T12:48:13Z</time>
      </trkpt>
      <trkpt lat="45.6651" lon="6.8433">
        <ele>2461</ele>
        <time>2019-10-06T12:48:14Z</time>
      </trkpt>
      <trkpt lat="45.66508" lon="6.84331">
        <ele>2460</ele>
        <time>2019-10-06T12:48:15Z</time>
      </trkpt>
      <trkpt lat="45.66505" lon="6.84335">
        <ele>2459</ele>
        <time>2019-10-06T12:48:17Z</time>
      </trkpt>
      <trkpt lat="45.66503" lon="6.84337">
        <ele>2458</ele>
        <time>2019-10-06T12:48:18Z</time>
      </trkpt>
      <trkpt lat="45.66501" lon="6.84339">
        <ele>2458</ele>
        <time>2019-10-06T12:48:19Z</time>
      </trkpt>
      <trkpt lat="45.66499" lon="6.84341">
        <ele>2458</ele>
        <time>2019-10-06T12:48:20Z</time>
      </trkpt>
      <trkpt lat="45.66498" lon="6.84342">
        <ele>2457</ele>
        <time>2019-10-06T12:48:21Z</time>
      </trkpt>
      <trkpt lat="45.66496" lon="6.84344">
        <ele>2456</ele>
        <time>2019-10-06T12:48:22Z</time>
      </trkpt>
      <trkpt lat="45.66495" lon="6.84346">
        <ele>2456</ele>
        <time>2019-10-06T12:48:23Z</time>
      </trkpt>
      <trkpt lat="45.66493" lon="6.84348">
        <ele>2456</ele>
        <time>2019-10-06T12:48:24Z</time>
      </trkpt>
      <trkpt lat="45.66491" lon="6.8435">
        <ele>2456</ele>
        <time>2019-10-06T12:48:25Z</time>
      </trkpt>
      <trkpt lat="45.66489" lon="6.84352">
        <ele>2454</ele>
        <time>2019-10-06T12:48:26Z</time>
      </trkpt>
      <trkpt lat="45.66486" lon="6.84356">
        <ele>2454</ele>
        <time>2019-10-06T12:48:28Z</time>
      </trkpt>
      <trkpt lat="45.66485" lon="6.84359">
        <ele>2453</ele>
        <time>2019-10-06T12:48:29Z</time>
      </trkpt>
      <trkpt lat="45.66482" lon="6.84361">
        <ele>2453</ele>
        <time>2019-10-06T12:48:31Z</time>
      </trkpt>
      <trkpt lat="45.66481" lon="6.84362">
        <ele>2452</ele>
        <time>2019-10-06T12:48:32Z</time>
      </trkpt>
      <trkpt lat="45.66479" lon="6.84363">
        <ele>2451</ele>
        <time>2019-10-06T12:48:33Z</time>
      </trkpt>
      <trkpt lat="45.66476" lon="6.84364">
        <ele>2451</ele>
        <time>2019-10-06T12:48:34Z</time>
      </trkpt>
      <trkpt lat="45.66474" lon="6.84366">
        <ele>2451</ele>
        <time>2019-10-06T12:48:35Z</time>
      </trkpt>
      <trkpt lat="45.66472" lon="6.84366">
        <ele>2451</ele>
        <time>2019-10-06T12:48:36Z</time>
      </trkpt>
      <trkpt lat="45.6647" lon="6.84366">
        <ele>2450</ele>
        <time>2019-10-06T12:48:37Z</time>
      </trkpt>
      <trkpt lat="45.66468" lon="6.84366">
        <ele>2450</ele>
        <time>2019-10-06T12:48:38Z</time>
      </trkpt>
      <trkpt lat="45.66466" lon="6.84365">
        <ele>2450</ele>
        <time>2019-10-06T12:48:39Z</time>
      </trkpt>
      <trkpt lat="45.66464" lon="6.84365">
        <ele>2450</ele>
        <time>2019-10-06T12:48:40Z</time>
      </trkpt>
      <trkpt lat="45.66462" lon="6.84365">
        <ele>2450</ele>
        <time>2019-10-06T12:48:41Z</time>
      </trkpt>
      <trkpt lat="45.66459" lon="6.84364">
        <ele>2450</ele>
        <time>2019-10-06T12:48:42Z</time>
      </trkpt>
      <trkpt lat="45.66457" lon="6.84363">
        <ele>2450</ele>
        <time>2019-10-06T12:48:43Z</time>
      </trkpt>
      <trkpt lat="45.66455" lon="6.84362">
        <ele>2449</ele>
        <time>2019-10-06T12:48:44Z</time>
      </trkpt>
      <trkpt lat="45.66453" lon="6.84362">
        <ele>2448</ele>
        <time>2019-10-06T12:48:45Z</time>
      </trkpt>
      <trkpt lat="45.66451" lon="6.84361">
        <ele>2448</ele>
        <time>2019-10-06T12:48:46Z</time>
      </trkpt>
      <trkpt lat="45.66449" lon="6.84361">
        <ele>2448</ele>
        <time>2019-10-06T12:48:47Z</time>
      </trkpt>
      <trkpt lat="45.66447" lon="6.8436">
        <ele>2446</ele>
        <time>2019-10-06T12:48:49Z</time>
      </trkpt>
      <trkpt lat="45.66445" lon="6.8436">
        <ele>2445</ele>
        <time>2019-10-06T12:48:51Z</time>
      </trkpt>
      <trkpt lat="45.66443" lon="6.84358">
        <ele>2444</ele>
        <time>2019-10-06T12:48:53Z</time>
      </trkpt>
      <trkpt lat="45.66441" lon="6.84357">
        <ele>2442</ele>
        <time>2019-10-06T12:48:55Z</time>
      </trkpt>
      <trkpt lat="45.66439" lon="6.84355">
        <ele>2441</ele>
        <time>2019-10-06T12:48:57Z</time>
      </trkpt>
      <trkpt lat="45.66438" lon="6.84353">
        <ele>2441</ele>
        <time>2019-10-06T12:48:58Z</time>
      </trkpt>
      <trkpt lat="45.66437" lon="6.84351">
        <ele>2440</ele>
        <time>2019-10-06T12:48:59Z</time>
      </trkpt>
      <trkpt lat="45.66436" lon="6.84348">
        <ele>2440</ele>
        <time>2019-10-06T12:49:00Z</time>
      </trkpt>
      <trkpt lat="45.66434" lon="6.84347">
        <ele>2440</ele>
        <time>2019-10-06T12:49:02Z</time>
      </trkpt>
      <trkpt lat="45.66431" lon="6.84349">
        <ele>2439</ele>
        <time>2019-10-06T12:49:04Z</time>
      </trkpt>
      <trkpt lat="45.66429" lon="6.84352">
        <ele>2439</ele>
        <time>2019-10-06T12:49:06Z</time>
      </trkpt>
      <trkpt lat="45.66426" lon="6.84354">
        <ele>2437</ele>
        <time>2019-10-06T12:49:08Z</time>
      </trkpt>
      <trkpt lat="45.66423" lon="6.84354">
        <ele>2437</ele>
        <time>2019-10-06T12:49:10Z</time>
      </trkpt>
      <trkpt lat="45.66419" lon="6.84353">
        <ele>2436</ele>
        <time>2019-10-06T12:49:12Z</time>
      </trkpt>
      <trkpt lat="45.66417" lon="6.84353">
        <ele>2435</ele>
        <time>2019-10-06T12:49:13Z</time>
      </trkpt>
      <trkpt lat="45.66414" lon="6.84352">
        <ele>2434</ele>
        <time>2019-10-06T12:49:15Z</time>
      </trkpt>
      <trkpt lat="45.66412" lon="6.8435">
        <ele>2434</ele>
        <time>2019-10-06T12:49:17Z</time>
      </trkpt>
      <trkpt lat="45.66409" lon="6.84349">
        <ele>2433</ele>
        <time>2019-10-06T12:49:19Z</time>
      </trkpt>
      <trkpt lat="45.66407" lon="6.84349">
        <ele>2432</ele>
        <time>2019-10-06T12:49:20Z</time>
      </trkpt>
      <trkpt lat="45.66405" lon="6.8435">
        <ele>2431</ele>
        <time>2019-10-06T12:49:21Z</time>
      </trkpt>
      <trkpt lat="45.66403" lon="6.84352">
        <ele>2430</ele>
        <time>2019-10-06T12:49:22Z</time>
      </trkpt>
      <trkpt lat="45.66402" lon="6.84354">
        <ele>2430</ele>
        <time>2019-10-06T12:49:23Z</time>
      </trkpt>
      <trkpt lat="45.664" lon="6.84356">
        <ele>2428</ele>
        <time>2019-10-06T12:49:24Z</time>
      </trkpt>
      <trkpt lat="45.66398" lon="6.84358">
        <ele>2428</ele>
        <time>2019-10-06T12:49:25Z</time>
      </trkpt>
      <trkpt lat="45.66397" lon="6.84359">
        <ele>2428</ele>
        <time>2019-10-06T12:49:26Z</time>
      </trkpt>
      <trkpt lat="45.66394" lon="6.8436">
        <ele>2428</ele>
        <time>2019-10-06T12:49:27Z</time>
      </trkpt>
      <trkpt lat="45.66392" lon="6.84362">
        <ele>2428</ele>
        <time>2019-10-06T12:49:28Z</time>
      </trkpt>
      <trkpt lat="45.6639" lon="6.84363">
        <ele>2427</ele>
        <time>2019-10-06T12:49:29Z</time>
      </trkpt>
      <trkpt lat="45.66388" lon="6.84364">
        <ele>2427</ele>
        <time>2019-10-06T12:49:30Z</time>
      </trkpt>
      <trkpt lat="45.66385" lon="6.84365">
        <ele>2427</ele>
        <time>2019-10-06T12:49:31Z</time>
      </trkpt>
      <trkpt lat="45.66383" lon="6.84365">
        <ele>2426</ele>
        <time>2019-10-06T12:49:32Z</time>
      </trkpt>
      <trkpt lat="45.66381" lon="6.84366">
        <ele>2425</ele>
        <time>2019-10-06T12:49:33Z</time>
      </trkpt>
      <trkpt lat="45.66379" lon="6.84367">
        <ele>2425</ele>
        <time>2019-10-06T12:49:34Z</time>
      </trkpt>
      <trkpt lat="45.66377" lon="6.84369">
        <ele>2425</ele>
        <time>2019-10-06T12:49:35Z</time>
      </trkpt>
      <trkpt lat="45.66375" lon="6.84371">
        <ele>2424</ele>
        <time>2019-10-06T12:49:36Z</time>
      </trkpt>
      <trkpt lat="45.66373" lon="6.84373">
        <ele>2423</ele>
        <time>2019-10-06T12:49:37Z</time>
      </trkpt>
      <trkpt lat="45.66372" lon="6.84375">
        <ele>2423</ele>
        <time>2019-10-06T12:49:38Z</time>
      </trkpt>
      <trkpt lat="45.6637" lon="6.84377">
        <ele>2423</ele>
        <time>2019-10-06T12:49:39Z</time>
      </trkpt>
      <trkpt lat="45.66369" lon="6.84379">
        <ele>2422</ele>
        <time>2019-10-06T12:49:40Z</time>
      </trkpt>
      <trkpt lat="45.66368" lon="6.84383">
        <ele>2422</ele>
        <time>2019-10-06T12:49:41Z</time>
      </trkpt>
      <trkpt lat="45.66367" lon="6.84385">
        <ele>2422</ele>
        <time>2019-10-06T12:49:42Z</time>
      </trkpt>
      <trkpt lat="45.66365" lon="6.84387">
        <ele>2422</ele>
        <time>2019-10-06T12:49:43Z</time>
      </trkpt>
      <trkpt lat="45.66364" lon="6.8439">
        <ele>2422</ele>
        <time>2019-10-06T12:49:44Z</time>
      </trkpt>
      <trkpt lat="45.66362" lon="6.84392">
        <ele>2421</ele>
        <time>2019-10-06T12:49:45Z</time>
      </trkpt>
      <trkpt lat="45.66361" lon="6.84395">
        <ele>2421</ele>
        <time>2019-10-06T12:49:46Z</time>
      </trkpt>
      <trkpt lat="45.6636" lon="6.84397">
        <ele>2420</ele>
        <time>2019-10-06T12:49:47Z</time>
      </trkpt>
      <trkpt lat="45.66359" lon="6.844">
        <ele>2420</ele>
        <time>2019-10-06T12:49:48Z</time>
      </trkpt>
      <trkpt lat="45.66358" lon="6.84403">
        <ele>2419</ele>
        <time>2019-10-06T12:49:49Z</time>
      </trkpt>
      <trkpt lat="45.66358" lon="6.84405">
        <ele>2419</ele>
        <time>2019-10-06T12:49:50Z</time>
      </trkpt>
      <trkpt lat="45.66357" lon="6.8441">
        <ele>2418</ele>
        <time>2019-10-06T12:49:52Z</time>
      </trkpt>
      <trkpt lat="45.66357" lon="6.84413">
        <ele>2418</ele>
        <time>2019-10-06T12:49:54Z</time>
      </trkpt>
      <trkpt lat="45.66357" lon="6.84413">
        <ele>2418</ele>
        <time>2019-10-06T12:49:56Z</time>
      </trkpt>
      <trkpt lat="45.66359" lon="6.84413">
        <ele>2418</ele>
        <time>2019-10-06T12:49:57Z</time>
      </trkpt>
      <trkpt lat="45.66362" lon="6.8441">
        <ele>2417</ele>
        <time>2019-10-06T12:49:59Z</time>
      </trkpt>
      <trkpt lat="45.66364" lon="6.84409">
        <ele>2416</ele>
        <time>2019-10-06T12:50:01Z</time>
      </trkpt>
      <trkpt lat="45.66366" lon="6.84407">
        <ele>2416</ele>
        <time>2019-10-06T12:50:03Z</time>
      </trkpt>
      <trkpt lat="45.66369" lon="6.84406">
        <ele>2414</ele>
        <time>2019-10-06T12:50:05Z</time>
      </trkpt>
      <trkpt lat="45.66372" lon="6.84405">
        <ele>2413</ele>
        <time>2019-10-06T12:50:07Z</time>
      </trkpt>
      <trkpt lat="45.66374" lon="6.84406">
        <ele>2413</ele>
        <time>2019-10-06T12:50:09Z</time>
      </trkpt>
      <trkpt lat="45.66374" lon="6.84409">
        <ele>2413</ele>
        <time>2019-10-06T12:50:11Z</time>
      </trkpt>
      <trkpt lat="45.66374" lon="6.84413">
        <ele>2413</ele>
        <time>2019-10-06T12:50:13Z</time>
      </trkpt>
      <trkpt lat="45.66375" lon="6.84416">
        <ele>2413</ele>
        <time>2019-10-06T12:50:14Z</time>
      </trkpt>
      <trkpt lat="45.66375" lon="6.84421">
        <ele>2413</ele>
        <time>2019-10-06T12:50:16Z</time>
      </trkpt>
      <trkpt lat="45.66376" lon="6.84425">
        <ele>2414</ele>
        <time>2019-10-06T12:50:18Z</time>
      </trkpt>
      <trkpt lat="45.66376" lon="6.84428">
        <ele>2414</ele>
        <time>2019-10-06T12:50:20Z</time>
      </trkpt>
      <trkpt lat="45.66376" lon="6.84431">
        <ele>2415</ele>
        <time>2019-10-06T12:50:22Z</time>
      </trkpt>
      <trkpt lat="45.66377" lon="6.84435">
        <ele>2416</ele>
        <time>2019-10-06T12:50:24Z</time>
      </trkpt>
      <trkpt lat="45.66378" lon="6.8444">
        <ele>2416</ele>
        <time>2019-10-06T12:50:26Z</time>
      </trkpt>
      <trkpt lat="45.66379" lon="6.84443">
        <ele>2416</ele>
        <time>2019-10-06T12:50:27Z</time>
      </trkpt>
      <trkpt lat="45.66379" lon="6.84445">
        <ele>2416</ele>
        <time>2019-10-06T12:50:28Z</time>
      </trkpt>
      <trkpt lat="45.66379" lon="6.84448">
        <ele>2416</ele>
        <time>2019-10-06T12:50:29Z</time>
      </trkpt>
      <trkpt lat="45.6638" lon="6.84451">
        <ele>2415</ele>
        <time>2019-10-06T12:50:30Z</time>
      </trkpt>
      <trkpt lat="45.6638" lon="6.84454">
        <ele>2414</ele>
        <time>2019-10-06T12:50:31Z</time>
      </trkpt>
      <trkpt lat="45.66381" lon="6.84457">
        <ele>2414</ele>
        <time>2019-10-06T12:50:32Z</time>
      </trkpt>
      <trkpt lat="45.66381" lon="6.8446">
        <ele>2414</ele>
        <time>2019-10-06T12:50:33Z</time>
      </trkpt>
      <trkpt lat="45.66381" lon="6.84462">
        <ele>2414</ele>
        <time>2019-10-06T12:50:34Z</time>
      </trkpt>
      <trkpt lat="45.66382" lon="6.84467">
        <ele>2414</ele>
        <time>2019-10-06T12:50:36Z</time>
      </trkpt>
      <trkpt lat="45.66383" lon="6.84472">
        <ele>2413</ele>
        <time>2019-10-06T12:50:38Z</time>
      </trkpt>
      <trkpt lat="45.66384" lon="6.84475">
        <ele>2413</ele>
        <time>2019-10-06T12:50:39Z</time>
      </trkpt>
      <trkpt lat="45.66384" lon="6.84477">
        <ele>2413</ele>
        <time>2019-10-06T12:50:40Z</time>
      </trkpt>
      <trkpt lat="45.66385" lon="6.8448">
        <ele>2413</ele>
        <time>2019-10-06T12:50:41Z</time>
      </trkpt>
      <trkpt lat="45.66386" lon="6.84482">
        <ele>2413</ele>
        <time>2019-10-06T12:50:42Z</time>
      </trkpt>
      <trkpt lat="45.66387" lon="6.84485">
        <ele>2413</ele>
        <time>2019-10-06T12:50:43Z</time>
      </trkpt>
      <trkpt lat="45.66388" lon="6.84487">
        <ele>2413</ele>
        <time>2019-10-06T12:50:44Z</time>
      </trkpt>
      <trkpt lat="45.6639" lon="6.84489">
        <ele>2413</ele>
        <time>2019-10-06T12:50:45Z</time>
      </trkpt>
      <trkpt lat="45.66391" lon="6.84492">
        <ele>2413</ele>
        <time>2019-10-06T12:50:46Z</time>
      </trkpt>
      <trkpt lat="45.66392" lon="6.84494">
        <ele>2413</ele>
        <time>2019-10-06T12:50:47Z</time>
      </trkpt>
      <trkpt lat="45.66393" lon="6.84496">
        <ele>2413</ele>
        <time>2019-10-06T12:50:48Z</time>
      </trkpt>
      <trkpt lat="45.66395" lon="6.84498">
        <ele>2412</ele>
        <time>2019-10-06T12:50:49Z</time>
      </trkpt>
      <trkpt lat="45.66396" lon="6.845">
        <ele>2411</ele>
        <time>2019-10-06T12:50:50Z</time>
      </trkpt>
      <trkpt lat="45.66398" lon="6.84502">
        <ele>2411</ele>
        <time>2019-10-06T12:50:51Z</time>
      </trkpt>
      <trkpt lat="45.66399" lon="6.84504">
        <ele>2411</ele>
        <time>2019-10-06T12:50:52Z</time>
      </trkpt>
      <trkpt lat="45.664" lon="6.84507">
        <ele>2410</ele>
        <time>2019-10-06T12:50:53Z</time>
      </trkpt>
      <trkpt lat="45.66402" lon="6.84509">
        <ele>2410</ele>
        <time>2019-10-06T12:50:54Z</time>
      </trkpt>
      <trkpt lat="45.66403" lon="6.84513">
        <ele>2410</ele>
        <time>2019-10-06T12:50:55Z</time>
      </trkpt>
      <trkpt lat="45.66403" lon="6.84516">
        <ele>2410</ele>
        <time>2019-10-06T12:50:56Z</time>
      </trkpt>
      <trkpt lat="45.66404" lon="6.84519">
        <ele>2410</ele>
        <time>2019-10-06T12:50:57Z</time>
      </trkpt>
      <trkpt lat="45.66405" lon="6.84522">
        <ele>2409</ele>
        <time>2019-10-06T12:50:58Z</time>
      </trkpt>
      <trkpt lat="45.66405" lon="6.84525">
        <ele>2409</ele>
        <time>2019-10-06T12:50:59Z</time>
      </trkpt>
      <trkpt lat="45.66406" lon="6.84529">
        <ele>2409</ele>
        <time>2019-10-06T12:51:00Z</time>
      </trkpt>
      <trkpt lat="45.66407" lon="6.84532">
        <ele>2409</ele>
        <time>2019-10-06T12:51:01Z</time>
      </trkpt>
      <trkpt lat="45.66407" lon="6.84535">
        <ele>2409</ele>
        <time>2019-10-06T12:51:02Z</time>
      </trkpt>
      <trkpt lat="45.66408" lon="6.84538">
        <ele>2409</ele>
        <time>2019-10-06T12:51:03Z</time>
      </trkpt>
      <trkpt lat="45.66409" lon="6.84541">
        <ele>2408</ele>
        <time>2019-10-06T12:51:04Z</time>
      </trkpt>
      <trkpt lat="45.66409" lon="6.84544">
        <ele>2408</ele>
        <time>2019-10-06T12:51:05Z</time>
      </trkpt>
      <trkpt lat="45.6641" lon="6.84547">
        <ele>2408</ele>
        <time>2019-10-06T12:51:06Z</time>
      </trkpt>
      <trkpt lat="45.66411" lon="6.8455">
        <ele>2408</ele>
        <time>2019-10-06T12:51:07Z</time>
      </trkpt>
      <trkpt lat="45.66412" lon="6.84553">
        <ele>2408</ele>
        <time>2019-10-06T12:51:08Z</time>
      </trkpt>
      <trkpt lat="45.66412" lon="6.84556">
        <ele>2408</ele>
        <time>2019-10-06T12:51:09Z</time>
      </trkpt>
      <trkpt lat="45.66412" lon="6.84559">
        <ele>2408</ele>
        <time>2019-10-06T12:51:10Z</time>
      </trkpt>
      <trkpt lat="45.66412" lon="6.84562">
        <ele>2408</ele>
        <time>2019-10-06T12:51:11Z</time>
      </trkpt>
      <trkpt lat="45.66413" lon="6.84565">
        <ele>2408</ele>
        <time>2019-10-06T12:51:12Z</time>
      </trkpt>
      <trkpt lat="45.66413" lon="6.84568">
        <ele>2408</ele>
        <time>2019-10-06T12:51:13Z</time>
      </trkpt>
      <trkpt lat="45.66413" lon="6.84571">
        <ele>2407</ele>
        <time>2019-10-06T12:51:14Z</time>
      </trkpt>
      <trkpt lat="45.66412" lon="6.84574">
        <ele>2407</ele>
        <time>2019-10-06T12:51:15Z</time>
      </trkpt>
      <trkpt lat="45.66412" lon="6.84577">
        <ele>2407</ele>
        <time>2019-10-06T12:51:16Z</time>
      </trkpt>
      <trkpt lat="45.66411" lon="6.8458">
        <ele>2406</ele>
        <time>2019-10-06T12:51:17Z</time>
      </trkpt>
      <trkpt lat="45.66411" lon="6.84583">
        <ele>2406</ele>
        <time>2019-10-06T12:51:18Z</time>
      </trkpt>
      <trkpt lat="45.66411" lon="6.84586">
        <ele>2406</ele>
        <time>2019-10-06T12:51:19Z</time>
      </trkpt>
      <trkpt lat="45.66411" lon="6.84589">
        <ele>2406</ele>
        <time>2019-10-06T12:51:20Z</time>
      </trkpt>
      <trkpt lat="45.66411" lon="6.84592">
        <ele>2405</ele>
        <time>2019-10-06T12:51:21Z</time>
      </trkpt>
      <trkpt lat="45.66413" lon="6.84594">
        <ele>2405</ele>
        <time>2019-10-06T12:51:22Z</time>
      </trkpt>
      <trkpt lat="45.66414" lon="6.84595">
        <ele>2405</ele>
        <time>2019-10-06T12:51:23Z</time>
      </trkpt>
      <trkpt lat="45.66416" lon="6.84596">
        <ele>2405</ele>
        <time>2019-10-06T12:51:24Z</time>
      </trkpt>
      <trkpt lat="45.66418" lon="6.84599">
        <ele>2404</ele>
        <time>2019-10-06T12:51:26Z</time>
      </trkpt>
      <trkpt lat="45.66419" lon="6.84604">
        <ele>2402</ele>
        <time>2019-10-06T12:51:28Z</time>
      </trkpt>
      <trkpt lat="45.66419" lon="6.84607">
        <ele>2401</ele>
        <time>2019-10-06T12:51:29Z</time>
      </trkpt>
      <trkpt lat="45.66419" lon="6.8461">
        <ele>2400</ele>
        <time>2019-10-06T12:51:30Z</time>
      </trkpt>
      <trkpt lat="45.66419" lon="6.84614">
        <ele>2400</ele>
        <time>2019-10-06T12:51:32Z</time>
      </trkpt>
      <trkpt lat="45.66417" lon="6.84617">
        <ele>2400</ele>
        <time>2019-10-06T12:51:34Z</time>
      </trkpt>
      <trkpt lat="45.66415" lon="6.84621">
        <ele>2401</ele>
        <time>2019-10-06T12:51:36Z</time>
      </trkpt>
      <trkpt lat="45.66414" lon="6.84625">
        <ele>2401</ele>
        <time>2019-10-06T12:51:38Z</time>
      </trkpt>
      <trkpt lat="45.66413" lon="6.84627">
        <ele>2401</ele>
        <time>2019-10-06T12:51:39Z</time>
      </trkpt>
      <trkpt lat="45.66412" lon="6.8463">
        <ele>2400</ele>
        <time>2019-10-06T12:51:40Z</time>
      </trkpt>
      <trkpt lat="45.66413" lon="6.84635">
        <ele>2398</ele>
        <time>2019-10-06T12:51:42Z</time>
      </trkpt>
      <trkpt lat="45.66413" lon="6.84637">
        <ele>2398</ele>
        <time>2019-10-06T12:51:43Z</time>
      </trkpt>
      <trkpt lat="45.66413" lon="6.8464">
        <ele>2397</ele>
        <time>2019-10-06T12:51:44Z</time>
      </trkpt>
      <trkpt lat="45.66413" lon="6.84643">
        <ele>2397</ele>
        <time>2019-10-06T12:51:45Z</time>
      </trkpt>
      <trkpt lat="45.66412" lon="6.84646">
        <ele>2397</ele>
        <time>2019-10-06T12:51:46Z</time>
      </trkpt>
      <trkpt lat="45.66412" lon="6.84649">
        <ele>2397</ele>
        <time>2019-10-06T12:51:47Z</time>
      </trkpt>
      <trkpt lat="45.66411" lon="6.84652">
        <ele>2396</ele>
        <time>2019-10-06T12:51:48Z</time>
      </trkpt>
      <trkpt lat="45.66411" lon="6.84654">
        <ele>2396</ele>
        <time>2019-10-06T12:51:49Z</time>
      </trkpt>
      <trkpt lat="45.66412" lon="6.84657">
        <ele>2395</ele>
        <time>2019-10-06T12:51:50Z</time>
      </trkpt>
      <trkpt lat="45.66412" lon="6.8466">
        <ele>2394</ele>
        <time>2019-10-06T12:51:51Z</time>
      </trkpt>
      <trkpt lat="45.66413" lon="6.84664">
        <ele>2393</ele>
        <time>2019-10-06T12:51:53Z</time>
      </trkpt>
      <trkpt lat="45.66415" lon="6.84668">
        <ele>2392</ele>
        <time>2019-10-06T12:51:55Z</time>
      </trkpt>
      <trkpt lat="45.66417" lon="6.84671">
        <ele>2392</ele>
        <time>2019-10-06T12:51:57Z</time>
      </trkpt>
      <trkpt lat="45.66419" lon="6.84674">
        <ele>2391</ele>
        <time>2019-10-06T12:51:59Z</time>
      </trkpt>
      <trkpt lat="45.6642" lon="6.84677">
        <ele>2391</ele>
        <time>2019-10-06T12:52:01Z</time>
      </trkpt>
      <trkpt lat="45.66422" lon="6.8468">
        <ele>2389</ele>
        <time>2019-10-06T12:52:03Z</time>
      </trkpt>
      <trkpt lat="45.66424" lon="6.84685">
        <ele>2387</ele>
        <time>2019-10-06T12:52:05Z</time>
      </trkpt>
      <trkpt lat="45.66424" lon="6.84688">
        <ele>2387</ele>
        <time>2019-10-06T12:52:06Z</time>
      </trkpt>
      <trkpt lat="45.66423" lon="6.84691">
        <ele>2386</ele>
        <time>2019-10-06T12:52:07Z</time>
      </trkpt>
      <trkpt lat="45.66423" lon="6.84695">
        <ele>2386</ele>
        <time>2019-10-06T12:52:09Z</time>
      </trkpt>
      <trkpt lat="45.66423" lon="6.84699">
        <ele>2385</ele>
        <time>2019-10-06T12:52:11Z</time>
      </trkpt>
      <trkpt lat="45.66423" lon="6.84703">
        <ele>2384</ele>
        <time>2019-10-06T12:52:13Z</time>
      </trkpt>
      <trkpt lat="45.66423" lon="6.84707">
        <ele>2383</ele>
        <time>2019-10-06T12:52:15Z</time>
      </trkpt>
      <trkpt lat="45.66423" lon="6.8471">
        <ele>2383</ele>
        <time>2019-10-06T12:52:17Z</time>
      </trkpt>
      <trkpt lat="45.66424" lon="6.84714">
        <ele>2382</ele>
        <time>2019-10-06T12:52:19Z</time>
      </trkpt>
      <trkpt lat="45.66425" lon="6.84717">
        <ele>2382</ele>
        <time>2019-10-06T12:52:21Z</time>
      </trkpt>
      <trkpt lat="45.66427" lon="6.8472">
        <ele>2382</ele>
        <time>2019-10-06T12:52:23Z</time>
      </trkpt>
      <trkpt lat="45.66428" lon="6.84724">
        <ele>2381</ele>
        <time>2019-10-06T12:52:25Z</time>
      </trkpt>
      <trkpt lat="45.66428" lon="6.84728">
        <ele>2380</ele>
        <time>2019-10-06T12:52:27Z</time>
      </trkpt>
      <trkpt lat="45.6643" lon="6.84733">
        <ele>2379</ele>
        <time>2019-10-06T12:52:29Z</time>
      </trkpt>
      <trkpt lat="45.66432" lon="6.84735">
        <ele>2379</ele>
        <time>2019-10-06T12:52:30Z</time>
      </trkpt>
      <trkpt lat="45.66434" lon="6.84738">
        <ele>2379</ele>
        <time>2019-10-06T12:52:32Z</time>
      </trkpt>
      <trkpt lat="45.66436" lon="6.84741">
        <ele>2378</ele>
        <time>2019-10-06T12:52:34Z</time>
      </trkpt>
      <trkpt lat="45.66436" lon="6.84744">
        <ele>2378</ele>
        <time>2019-10-06T12:52:36Z</time>
      </trkpt>
      <trkpt lat="45.66435" lon="6.84748">
        <ele>2378</ele>
        <time>2019-10-06T12:52:38Z</time>
      </trkpt>
      <trkpt lat="45.66433" lon="6.84753">
        <ele>2378</ele>
        <time>2019-10-06T12:52:40Z</time>
      </trkpt>
      <trkpt lat="45.66433" lon="6.84757">
        <ele>2376</ele>
        <time>2019-10-06T12:52:42Z</time>
      </trkpt>
      <trkpt lat="45.66433" lon="6.8476">
        <ele>2376</ele>
        <time>2019-10-06T12:52:43Z</time>
      </trkpt>
      <trkpt lat="45.66433" lon="6.84763">
        <ele>2376</ele>
        <time>2019-10-06T12:52:44Z</time>
      </trkpt>
      <trkpt lat="45.66433" lon="6.84765">
        <ele>2376</ele>
        <time>2019-10-06T12:52:45Z</time>
      </trkpt>
      <trkpt lat="45.66433" lon="6.8477">
        <ele>2375</ele>
        <time>2019-10-06T12:52:47Z</time>
      </trkpt>
      <trkpt lat="45.66434" lon="6.84774">
        <ele>2374</ele>
        <time>2019-10-06T12:52:49Z</time>
      </trkpt>
      <trkpt lat="45.66435" lon="6.84779">
        <ele>2373</ele>
        <time>2019-10-06T12:52:51Z</time>
      </trkpt>
      <trkpt lat="45.66436" lon="6.84783">
        <ele>2371</ele>
        <time>2019-10-06T12:52:53Z</time>
      </trkpt>
      <trkpt lat="45.66437" lon="6.84785">
        <ele>2371</ele>
        <time>2019-10-06T12:52:54Z</time>
      </trkpt>
      <trkpt lat="45.66437" lon="6.84788">
        <ele>2371</ele>
        <time>2019-10-06T12:52:55Z</time>
      </trkpt>
      <trkpt lat="45.66437" lon="6.84791">
        <ele>2371</ele>
        <time>2019-10-06T12:52:56Z</time>
      </trkpt>
      <trkpt lat="45.66438" lon="6.84794">
        <ele>2371</ele>
        <time>2019-10-06T12:52:57Z</time>
      </trkpt>
      <trkpt lat="45.66438" lon="6.84797">
        <ele>2371</ele>
        <time>2019-10-06T12:52:58Z</time>
      </trkpt>
      <trkpt lat="45.66438" lon="6.848">
        <ele>2371</ele>
        <time>2019-10-06T12:52:59Z</time>
      </trkpt>
      <trkpt lat="45.66437" lon="6.84803">
        <ele>2371</ele>
        <time>2019-10-06T12:53:00Z</time>
      </trkpt>
      <trkpt lat="45.66438" lon="6.84806">
        <ele>2371</ele>
        <time>2019-10-06T12:53:01Z</time>
      </trkpt>
      <trkpt lat="45.66438" lon="6.84809">
        <ele>2371</ele>
        <time>2019-10-06T12:53:02Z</time>
      </trkpt>
      <trkpt lat="45.6644" lon="6.84813">
        <ele>2371</ele>
        <time>2019-10-06T12:53:04Z</time>
      </trkpt>
      <trkpt lat="45.66442" lon="6.84815">
        <ele>2371</ele>
        <time>2019-10-06T12:53:05Z</time>
      </trkpt>
      <trkpt lat="45.66444" lon="6.84818">
        <ele>2369</ele>
        <time>2019-10-06T12:53:07Z</time>
      </trkpt>
      <trkpt lat="45.66447" lon="6.84818">
        <ele>2368</ele>
        <time>2019-10-06T12:53:09Z</time>
      </trkpt>
      <trkpt lat="45.66449" lon="6.84819">
        <ele>2369</ele>
        <time>2019-10-06T12:53:10Z</time>
      </trkpt>
      <trkpt lat="45.6645" lon="6.84823">
        <ele>2369</ele>
        <time>2019-10-06T12:53:12Z</time>
      </trkpt>
      <trkpt lat="45.66449" lon="6.84825">
        <ele>2369</ele>
        <time>2019-10-06T12:53:13Z</time>
      </trkpt>
      <trkpt lat="45.66448" lon="6.84827">
        <ele>2369</ele>
        <time>2019-10-06T12:53:14Z</time>
      </trkpt>
      <trkpt lat="45.66446" lon="6.84829">
        <ele>2368</ele>
        <time>2019-10-06T12:53:15Z</time>
      </trkpt>
      <trkpt lat="45.66445" lon="6.84834">
        <ele>2368</ele>
        <time>2019-10-06T12:53:17Z</time>
      </trkpt>
      <trkpt lat="45.66445" lon="6.84836">
        <ele>2368</ele>
        <time>2019-10-06T12:53:18Z</time>
      </trkpt>
      <trkpt lat="45.66444" lon="6.84839">
        <ele>2367</ele>
        <time>2019-10-06T12:53:19Z</time>
      </trkpt>
      <trkpt lat="45.66444" lon="6.84842">
        <ele>2367</ele>
        <time>2019-10-06T12:53:20Z</time>
      </trkpt>
      <trkpt lat="45.66443" lon="6.84844">
        <ele>2367</ele>
        <time>2019-10-06T12:53:21Z</time>
      </trkpt>
      <trkpt lat="45.66443" lon="6.84847">
        <ele>2367</ele>
        <time>2019-10-06T12:53:22Z</time>
      </trkpt>
      <trkpt lat="45.66443" lon="6.8485">
        <ele>2367</ele>
        <time>2019-10-06T12:53:23Z</time>
      </trkpt>
      <trkpt lat="45.66443" lon="6.84853">
        <ele>2366</ele>
        <time>2019-10-06T12:53:24Z</time>
      </trkpt>
      <trkpt lat="45.66444" lon="6.84855">
        <ele>2366</ele>
        <time>2019-10-06T12:53:25Z</time>
      </trkpt>
      <trkpt lat="45.66444" lon="6.84858">
        <ele>2366</ele>
        <time>2019-10-06T12:53:26Z</time>
      </trkpt>
      <trkpt lat="45.66445" lon="6.8486">
        <ele>2366</ele>
        <time>2019-10-06T12:53:27Z</time>
      </trkpt>
      <trkpt lat="45.66447" lon="6.84863">
        <ele>2366</ele>
        <time>2019-10-06T12:53:28Z</time>
      </trkpt>
      <trkpt lat="45.66448" lon="6.84865">
        <ele>2366</ele>
        <time>2019-10-06T12:53:29Z</time>
      </trkpt>
      <trkpt lat="45.66449" lon="6.84867">
        <ele>2366</ele>
        <time>2019-10-06T12:53:30Z</time>
      </trkpt>
      <trkpt lat="45.66451" lon="6.84869">
        <ele>2365</ele>
        <time>2019-10-06T12:53:31Z</time>
      </trkpt>
      <trkpt lat="45.66452" lon="6.84871">
        <ele>2365</ele>
        <time>2019-10-06T12:53:32Z</time>
      </trkpt>
      <trkpt lat="45.66453" lon="6.84874">
        <ele>2365</ele>
        <time>2019-10-06T12:53:33Z</time>
      </trkpt>
      <trkpt lat="45.66453" lon="6.84877">
        <ele>2365</ele>
        <time>2019-10-06T12:53:34Z</time>
      </trkpt>
      <trkpt lat="45.66453" lon="6.84881">
        <ele>2364</ele>
        <time>2019-10-06T12:53:35Z</time>
      </trkpt>
      <trkpt lat="45.66454" lon="6.84884">
        <ele>2364</ele>
        <time>2019-10-06T12:53:36Z</time>
      </trkpt>
      <trkpt lat="45.66454" lon="6.84887">
        <ele>2364</ele>
        <time>2019-10-06T12:53:37Z</time>
      </trkpt>
      <trkpt lat="45.66453" lon="6.8489">
        <ele>2363</ele>
        <time>2019-10-06T12:53:38Z</time>
      </trkpt>
      <trkpt lat="45.66454" lon="6.84893">
        <ele>2363</ele>
        <time>2019-10-06T12:53:39Z</time>
      </trkpt>
      <trkpt lat="45.66454" lon="6.84897">
        <ele>2363</ele>
        <time>2019-10-06T12:53:40Z</time>
      </trkpt>
      <trkpt lat="45.66453" lon="6.849">
        <ele>2363</ele>
        <time>2019-10-06T12:53:41Z</time>
      </trkpt>
      <trkpt lat="45.66453" lon="6.84903">
        <ele>2363</ele>
        <time>2019-10-06T12:53:42Z</time>
      </trkpt>
      <trkpt lat="45.66453" lon="6.84906">
        <ele>2363</ele>
        <time>2019-10-06T12:53:43Z</time>
      </trkpt>
      <trkpt lat="45.66453" lon="6.8491">
        <ele>2362</ele>
        <time>2019-10-06T12:53:44Z</time>
      </trkpt>
      <trkpt lat="45.66454" lon="6.84912">
        <ele>2362</ele>
        <time>2019-10-06T12:53:45Z</time>
      </trkpt>
      <trkpt lat="45.66454" lon="6.84916">
        <ele>2361</ele>
        <time>2019-10-06T12:53:46Z</time>
      </trkpt>
      <trkpt lat="45.66454" lon="6.84919">
        <ele>2361</ele>
        <time>2019-10-06T12:53:47Z</time>
      </trkpt>
      <trkpt lat="45.66454" lon="6.84923">
        <ele>2361</ele>
        <time>2019-10-06T12:53:48Z</time>
      </trkpt>
      <trkpt lat="45.66454" lon="6.84927">
        <ele>2361</ele>
        <time>2019-10-06T12:53:49Z</time>
      </trkpt>
      <trkpt lat="45.66454" lon="6.84932">
        <ele>2360</ele>
        <time>2019-10-06T12:53:50Z</time>
      </trkpt>
      <trkpt lat="45.66453" lon="6.84935">
        <ele>2360</ele>
        <time>2019-10-06T12:53:51Z</time>
      </trkpt>
      <trkpt lat="45.66453" lon="6.84939">
        <ele>2359</ele>
        <time>2019-10-06T12:53:52Z</time>
      </trkpt>
      <trkpt lat="45.66452" lon="6.84942">
        <ele>2359</ele>
        <time>2019-10-06T12:53:53Z</time>
      </trkpt>
      <trkpt lat="45.66451" lon="6.84946">
        <ele>2358</ele>
        <time>2019-10-06T12:53:54Z</time>
      </trkpt>
      <trkpt lat="45.6645" lon="6.84949">
        <ele>2358</ele>
        <time>2019-10-06T12:53:55Z</time>
      </trkpt>
      <trkpt lat="45.6645" lon="6.84953">
        <ele>2357</ele>
        <time>2019-10-06T12:53:56Z</time>
      </trkpt>
      <trkpt lat="45.66449" lon="6.84957">
        <ele>2357</ele>
        <time>2019-10-06T12:53:57Z</time>
      </trkpt>
      <trkpt lat="45.66449" lon="6.84961">
        <ele>2356</ele>
        <time>2019-10-06T12:53:58Z</time>
      </trkpt>
      <trkpt lat="45.66449" lon="6.84965">
        <ele>2356</ele>
        <time>2019-10-06T12:53:59Z</time>
      </trkpt>
      <trkpt lat="45.6645" lon="6.84969">
        <ele>2356</ele>
        <time>2019-10-06T12:54:00Z</time>
      </trkpt>
      <trkpt lat="45.6645" lon="6.84973">
        <ele>2356</ele>
        <time>2019-10-06T12:54:01Z</time>
      </trkpt>
      <trkpt lat="45.6645" lon="6.84976">
        <ele>2355</ele>
        <time>2019-10-06T12:54:02Z</time>
      </trkpt>
      <trkpt lat="45.66451" lon="6.8498">
        <ele>2355</ele>
        <time>2019-10-06T12:54:03Z</time>
      </trkpt>
      <trkpt lat="45.66452" lon="6.84983">
        <ele>2355</ele>
        <time>2019-10-06T12:54:04Z</time>
      </trkpt>
      <trkpt lat="45.66454" lon="6.84986">
        <ele>2355</ele>
        <time>2019-10-06T12:54:05Z</time>
      </trkpt>
      <trkpt lat="45.66455" lon="6.84989">
        <ele>2355</ele>
        <time>2019-10-06T12:54:06Z</time>
      </trkpt>
      <trkpt lat="45.66455" lon="6.84993">
        <ele>2355</ele>
        <time>2019-10-06T12:54:07Z</time>
      </trkpt>
      <trkpt lat="45.66456" lon="6.84996">
        <ele>2355</ele>
        <time>2019-10-06T12:54:08Z</time>
      </trkpt>
      <trkpt lat="45.66457" lon="6.84999">
        <ele>2355</ele>
        <time>2019-10-06T12:54:09Z</time>
      </trkpt>
      <trkpt lat="45.66458" lon="6.85002">
        <ele>2355</ele>
        <time>2019-10-06T12:54:10Z</time>
      </trkpt>
      <trkpt lat="45.66459" lon="6.85005">
        <ele>2355</ele>
        <time>2019-10-06T12:54:11Z</time>
      </trkpt>
      <trkpt lat="45.6646" lon="6.85009">
        <ele>2355</ele>
        <time>2019-10-06T12:54:12Z</time>
      </trkpt>
      <trkpt lat="45.66461" lon="6.85012">
        <ele>2355</ele>
        <time>2019-10-06T12:54:13Z</time>
      </trkpt>
      <trkpt lat="45.66462" lon="6.85015">
        <ele>2355</ele>
        <time>2019-10-06T12:54:14Z</time>
      </trkpt>
      <trkpt lat="45.66463" lon="6.85018">
        <ele>2355</ele>
        <time>2019-10-06T12:54:15Z</time>
      </trkpt>
      <trkpt lat="45.66464" lon="6.8502">
        <ele>2355</ele>
        <time>2019-10-06T12:54:16Z</time>
      </trkpt>
      <trkpt lat="45.66464" lon="6.85023">
        <ele>2355</ele>
        <time>2019-10-06T12:54:17Z</time>
      </trkpt>
      <trkpt lat="45.66465" lon="6.85027">
        <ele>2355</ele>
        <time>2019-10-06T12:54:18Z</time>
      </trkpt>
      <trkpt lat="45.66466" lon="6.8503">
        <ele>2355</ele>
        <time>2019-10-06T12:54:19Z</time>
      </trkpt>
      <trkpt lat="45.66467" lon="6.85032">
        <ele>2355</ele>
        <time>2019-10-06T12:54:20Z</time>
      </trkpt>
      <trkpt lat="45.66468" lon="6.85035">
        <ele>2355</ele>
        <time>2019-10-06T12:54:21Z</time>
      </trkpt>
      <trkpt lat="45.6647" lon="6.85038">
        <ele>2355</ele>
        <time>2019-10-06T12:54:22Z</time>
      </trkpt>
      <trkpt lat="45.66471" lon="6.85041">
        <ele>2354</ele>
        <time>2019-10-06T12:54:23Z</time>
      </trkpt>
      <trkpt lat="45.66472" lon="6.85044">
        <ele>2354</ele>
        <time>2019-10-06T12:54:24Z</time>
      </trkpt>
      <trkpt lat="45.66473" lon="6.85047">
        <ele>2354</ele>
        <time>2019-10-06T12:54:25Z</time>
      </trkpt>
      <trkpt lat="45.66474" lon="6.8505">
        <ele>2354</ele>
        <time>2019-10-06T12:54:26Z</time>
      </trkpt>
      <trkpt lat="45.66476" lon="6.85052">
        <ele>2354</ele>
        <time>2019-10-06T12:54:27Z</time>
      </trkpt>
      <trkpt lat="45.66477" lon="6.85055">
        <ele>2354</ele>
        <time>2019-10-06T12:54:28Z</time>
      </trkpt>
      <trkpt lat="45.66478" lon="6.85057">
        <ele>2354</ele>
        <time>2019-10-06T12:54:29Z</time>
      </trkpt>
      <trkpt lat="45.66479" lon="6.85059">
        <ele>2354</ele>
        <time>2019-10-06T12:54:30Z</time>
      </trkpt>
      <trkpt lat="45.6648" lon="6.85061">
        <ele>2354</ele>
        <time>2019-10-06T12:54:31Z</time>
      </trkpt>
      <trkpt lat="45.66482" lon="6.85063">
        <ele>2354</ele>
        <time>2019-10-06T12:54:32Z</time>
      </trkpt>
      <trkpt lat="45.66483" lon="6.85065">
        <ele>2354</ele>
        <time>2019-10-06T12:54:33Z</time>
      </trkpt>
      <trkpt lat="45.66485" lon="6.85067">
        <ele>2354</ele>
        <time>2019-10-06T12:54:34Z</time>
      </trkpt>
      <trkpt lat="45.66486" lon="6.85069">
        <ele>2354</ele>
        <time>2019-10-06T12:54:35Z</time>
      </trkpt>
      <trkpt lat="45.66487" lon="6.85072">
        <ele>2354</ele>
        <time>2019-10-06T12:54:36Z</time>
      </trkpt>
      <trkpt lat="45.66488" lon="6.85074">
        <ele>2354</ele>
        <time>2019-10-06T12:54:37Z</time>
      </trkpt>
      <trkpt lat="45.6649" lon="6.85076">
        <ele>2354</ele>
        <time>2019-10-06T12:54:38Z</time>
      </trkpt>
      <trkpt lat="45.66492" lon="6.8508">
        <ele>2355</ele>
        <time>2019-10-06T12:54:40Z</time>
      </trkpt>
      <trkpt lat="45.66494" lon="6.85083">
        <ele>2354</ele>
        <time>2019-10-06T12:54:42Z</time>
      </trkpt>
      <trkpt lat="45.66496" lon="6.85087">
        <ele>2355</ele>
        <time>2019-10-06T12:54:44Z</time>
      </trkpt>
      <trkpt lat="45.66498" lon="6.8509">
        <ele>2355</ele>
        <time>2019-10-06T12:54:46Z</time>
      </trkpt>
      <trkpt lat="45.665" lon="6.85094">
        <ele>2355</ele>
        <time>2019-10-06T12:54:48Z</time>
      </trkpt>
      <trkpt lat="45.66501" lon="6.85097">
        <ele>2356</ele>
        <time>2019-10-06T12:54:50Z</time>
      </trkpt>
      <trkpt lat="45.66502" lon="6.851">
        <ele>2356</ele>
        <time>2019-10-06T12:54:52Z</time>
      </trkpt>
      <trkpt lat="45.66504" lon="6.85103">
        <ele>2356</ele>
        <time>2019-10-06T12:54:54Z</time>
      </trkpt>
      <trkpt lat="45.66506" lon="6.85106">
        <ele>2356</ele>
        <time>2019-10-06T12:54:56Z</time>
      </trkpt>
      <trkpt lat="45.66508" lon="6.85108">
        <ele>2356</ele>
        <time>2019-10-06T12:54:58Z</time>
      </trkpt>
      <trkpt lat="45.6651" lon="6.8511">
        <ele>2356</ele>
        <time>2019-10-06T12:55:00Z</time>
      </trkpt>
      <trkpt lat="45.66513" lon="6.85114">
        <ele>2356</ele>
        <time>2019-10-06T12:55:02Z</time>
      </trkpt>
      <trkpt lat="45.66514" lon="6.85116">
        <ele>2356</ele>
        <time>2019-10-06T12:55:03Z</time>
      </trkpt>
      <trkpt lat="45.66515" lon="6.85119">
        <ele>2356</ele>
        <time>2019-10-06T12:55:04Z</time>
      </trkpt>
      <trkpt lat="45.66516" lon="6.85123">
        <ele>2356</ele>
        <time>2019-10-06T12:55:06Z</time>
      </trkpt>
      <trkpt lat="45.66517" lon="6.85126">
        <ele>2356</ele>
        <time>2019-10-06T12:55:07Z</time>
      </trkpt>
      <trkpt lat="45.66519" lon="6.8513">
        <ele>2356</ele>
        <time>2019-10-06T12:55:09Z</time>
      </trkpt>
      <trkpt lat="45.6652" lon="6.85133">
        <ele>2356</ele>
        <time>2019-10-06T12:55:10Z</time>
      </trkpt>
      <trkpt lat="45.66521" lon="6.85135">
        <ele>2356</ele>
        <time>2019-10-06T12:55:11Z</time>
      </trkpt>
      <trkpt lat="45.66523" lon="6.85137">
        <ele>2356</ele>
        <time>2019-10-06T12:55:12Z</time>
      </trkpt>
      <trkpt lat="45.66524" lon="6.8514">
        <ele>2356</ele>
        <time>2019-10-06T12:55:13Z</time>
      </trkpt>
      <trkpt lat="45.66525" lon="6.85143">
        <ele>2356</ele>
        <time>2019-10-06T12:55:14Z</time>
      </trkpt>
      <trkpt lat="45.66526" lon="6.85146">
        <ele>2356</ele>
        <time>2019-10-06T12:55:15Z</time>
      </trkpt>
      <trkpt lat="45.66528" lon="6.85148">
        <ele>2356</ele>
        <time>2019-10-06T12:55:16Z</time>
      </trkpt>
      <trkpt lat="45.66529" lon="6.85151">
        <ele>2355</ele>
        <time>2019-10-06T12:55:17Z</time>
      </trkpt>
      <trkpt lat="45.66531" lon="6.85154">
        <ele>2355</ele>
        <time>2019-10-06T12:55:18Z</time>
      </trkpt>
      <trkpt lat="45.66532" lon="6.85156">
        <ele>2355</ele>
        <time>2019-10-06T12:55:19Z</time>
      </trkpt>
      <trkpt lat="45.66533" lon="6.85159">
        <ele>2355</ele>
        <time>2019-10-06T12:55:20Z</time>
      </trkpt>
      <trkpt lat="45.66535" lon="6.85162">
        <ele>2355</ele>
        <time>2019-10-06T12:55:21Z</time>
      </trkpt>
      <trkpt lat="45.66536" lon="6.85164">
        <ele>2355</ele>
        <time>2019-10-06T12:55:22Z</time>
      </trkpt>
      <trkpt lat="45.66538" lon="6.85166">
        <ele>2355</ele>
        <time>2019-10-06T12:55:23Z</time>
      </trkpt>
      <trkpt lat="45.66539" lon="6.85168">
        <ele>2355</ele>
        <time>2019-10-06T12:55:24Z</time>
      </trkpt>
      <trkpt lat="45.6654" lon="6.8517">
        <ele>2355</ele>
        <time>2019-10-06T12:55:25Z</time>
      </trkpt>
      <trkpt lat="45.66541" lon="6.85173">
        <ele>2355</ele>
        <time>2019-10-06T12:55:26Z</time>
      </trkpt>
      <trkpt lat="45.66542" lon="6.85175">
        <ele>2355</ele>
        <time>2019-10-06T12:55:27Z</time>
      </trkpt>
      <trkpt lat="45.66543" lon="6.85177">
        <ele>2355</ele>
        <time>2019-10-06T12:55:28Z</time>
      </trkpt>
      <trkpt lat="45.66545" lon="6.8518">
        <ele>2355</ele>
        <time>2019-10-06T12:55:29Z</time>
      </trkpt>
      <trkpt lat="45.66546" lon="6.85182">
        <ele>2355</ele>
        <time>2019-10-06T12:55:30Z</time>
      </trkpt>
      <trkpt lat="45.66548" lon="6.85184">
        <ele>2355</ele>
        <time>2019-10-06T12:55:31Z</time>
      </trkpt>
      <trkpt lat="45.66549" lon="6.85187">
        <ele>2355</ele>
        <time>2019-10-06T12:55:32Z</time>
      </trkpt>
      <trkpt lat="45.6655" lon="6.85189">
        <ele>2355</ele>
        <time>2019-10-06T12:55:33Z</time>
      </trkpt>
      <trkpt lat="45.66552" lon="6.85192">
        <ele>2355</ele>
        <time>2019-10-06T12:55:34Z</time>
      </trkpt>
      <trkpt lat="45.66553" lon="6.85194">
        <ele>2355</ele>
        <time>2019-10-06T12:55:35Z</time>
      </trkpt>
      <trkpt lat="45.66554" lon="6.85197">
        <ele>2355</ele>
        <time>2019-10-06T12:55:36Z</time>
      </trkpt>
      <trkpt lat="45.66556" lon="6.85199">
        <ele>2355</ele>
        <time>2019-10-06T12:55:37Z</time>
      </trkpt>
      <trkpt lat="45.66557" lon="6.85202">
        <ele>2355</ele>
        <time>2019-10-06T12:55:38Z</time>
      </trkpt>
      <trkpt lat="45.66558" lon="6.85204">
        <ele>2355</ele>
        <time>2019-10-06T12:55:39Z</time>
      </trkpt>
      <trkpt lat="45.6656" lon="6.85206">
        <ele>2355</ele>
        <time>2019-10-06T12:55:40Z</time>
      </trkpt>
      <trkpt lat="45.66561" lon="6.85208">
        <ele>2355</ele>
        <time>2019-10-06T12:55:41Z</time>
      </trkpt>
      <trkpt lat="45.66563" lon="6.8521">
        <ele>2355</ele>
        <time>2019-10-06T12:55:42Z</time>
      </trkpt>
      <trkpt lat="45.66564" lon="6.85212">
        <ele>2355</ele>
        <time>2019-10-06T12:55:43Z</time>
      </trkpt>
      <trkpt lat="45.66565" lon="6.85215">
        <ele>2355</ele>
        <time>2019-10-06T12:55:44Z</time>
      </trkpt>
      <trkpt lat="45.66566" lon="6.85217">
        <ele>2355</ele>
        <time>2019-10-06T12:55:45Z</time>
      </trkpt>
      <trkpt lat="45.66567" lon="6.85221">
        <ele>2356</ele>
        <time>2019-10-06T12:55:47Z</time>
      </trkpt>
      <trkpt lat="45.66569" lon="6.85223">
        <ele>2356</ele>
        <time>2019-10-06T12:55:49Z</time>
      </trkpt>
      <trkpt lat="45.6657" lon="6.85227">
        <ele>2356</ele>
        <time>2019-10-06T12:55:51Z</time>
      </trkpt>
      <trkpt lat="45.66571" lon="6.85229">
        <ele>2357</ele>
        <time>2019-10-06T12:55:53Z</time>
      </trkpt>
      <trkpt lat="45.66573" lon="6.85232">
        <ele>2357</ele>
        <time>2019-10-06T12:55:55Z</time>
      </trkpt>
      <trkpt lat="45.66574" lon="6.85234">
        <ele>2357</ele>
        <time>2019-10-06T12:55:57Z</time>
      </trkpt>
      <trkpt lat="45.66576" lon="6.85237">
        <ele>2357</ele>
        <time>2019-10-06T12:55:59Z</time>
      </trkpt>
      <trkpt lat="45.66577" lon="6.85239">
        <ele>2357</ele>
        <time>2019-10-06T12:56:01Z</time>
      </trkpt>
      <trkpt lat="45.66579" lon="6.85241">
        <ele>2358</ele>
        <time>2019-10-06T12:56:03Z</time>
      </trkpt>
      <trkpt lat="45.6658" lon="6.85243">
        <ele>2358</ele>
        <time>2019-10-06T12:56:05Z</time>
      </trkpt>
      <trkpt lat="45.66582" lon="6.85245">
        <ele>2359</ele>
        <time>2019-10-06T12:56:07Z</time>
      </trkpt>
      <trkpt lat="45.66584" lon="6.85247">
        <ele>2359</ele>
        <time>2019-10-06T12:56:09Z</time>
      </trkpt>
      <trkpt lat="45.66585" lon="6.85248">
        <ele>2359</ele>
        <time>2019-10-06T12:56:11Z</time>
      </trkpt>
      <trkpt lat="45.66587" lon="6.8525">
        <ele>2359</ele>
        <time>2019-10-06T12:56:13Z</time>
      </trkpt>
      <trkpt lat="45.66588" lon="6.85253">
        <ele>2359</ele>
        <time>2019-10-06T12:56:15Z</time>
      </trkpt>
      <trkpt lat="45.66589" lon="6.85255">
        <ele>2359</ele>
        <time>2019-10-06T12:56:17Z</time>
      </trkpt>
      <trkpt lat="45.6659" lon="6.85257">
        <ele>2360</ele>
        <time>2019-10-06T12:56:19Z</time>
      </trkpt>
      <trkpt lat="45.66592" lon="6.85259">
        <ele>2360</ele>
        <time>2019-10-06T12:56:21Z</time>
      </trkpt>
      <trkpt lat="45.66593" lon="6.85262">
        <ele>2360</ele>
        <time>2019-10-06T12:56:23Z</time>
      </trkpt>
      <trkpt lat="45.66594" lon="6.85264">
        <ele>2360</ele>
        <time>2019-10-06T12:56:25Z</time>
      </trkpt>
      <trkpt lat="45.66595" lon="6.85266">
        <ele>2361</ele>
        <time>2019-10-06T12:56:27Z</time>
      </trkpt>
      <trkpt lat="45.66597" lon="6.85267">
        <ele>2361</ele>
        <time>2019-10-06T12:56:29Z</time>
      </trkpt>
      <trkpt lat="45.66598" lon="6.8527">
        <ele>2362</ele>
        <time>2019-10-06T12:56:31Z</time>
      </trkpt>
      <trkpt lat="45.66599" lon="6.85272">
        <ele>2363</ele>
        <time>2019-10-06T12:56:33Z</time>
      </trkpt>
      <trkpt lat="45.666" lon="6.85274">
        <ele>2363</ele>
        <time>2019-10-06T12:56:35Z</time>
      </trkpt>
      <trkpt lat="45.66601" lon="6.85277">
        <ele>2363</ele>
        <time>2019-10-06T12:56:37Z</time>
      </trkpt>
      <trkpt lat="45.66602" lon="6.8528">
        <ele>2363</ele>
        <time>2019-10-06T12:56:39Z</time>
      </trkpt>
      <trkpt lat="45.66604" lon="6.85282">
        <ele>2363</ele>
        <time>2019-10-06T12:56:41Z</time>
      </trkpt>
      <trkpt lat="45.66605" lon="6.85284">
        <ele>2364</ele>
        <time>2019-10-06T12:56:43Z</time>
      </trkpt>
      <trkpt lat="45.66607" lon="6.85287">
        <ele>2364</ele>
        <time>2019-10-06T12:56:45Z</time>
      </trkpt>
      <trkpt lat="45.66607" lon="6.85287">
        <ele>2364</ele>
        <time>2019-10-06T12:56:47Z</time>
      </trkpt>
      <trkpt lat="45.66609" lon="6.85289">
        <ele>2364</ele>
        <time>2019-10-06T12:56:48Z</time>
      </trkpt>
      <trkpt lat="45.6661" lon="6.85291">
        <ele>2364</ele>
        <time>2019-10-06T12:56:50Z</time>
      </trkpt>
      <trkpt lat="45.66612" lon="6.85292">
        <ele>2365</ele>
        <time>2019-10-06T12:56:52Z</time>
      </trkpt>
      <trkpt lat="45.66614" lon="6.85293">
        <ele>2365</ele>
        <time>2019-10-06T12:56:54Z</time>
      </trkpt>
      <trkpt lat="45.66616" lon="6.85294">
        <ele>2365</ele>
        <time>2019-10-06T12:56:56Z</time>
      </trkpt>
      <trkpt lat="45.66616" lon="6.85294">
        <ele>2365</ele>
        <time>2019-10-06T12:56:58Z</time>
      </trkpt>
      <trkpt lat="45.66619" lon="6.85294">
        <ele>2365</ele>
        <time>2019-10-06T12:56:59Z</time>
      </trkpt>
      <trkpt lat="45.6662" lon="6.85295">
        <ele>2365</ele>
        <time>2019-10-06T12:57:01Z</time>
      </trkpt>
      <trkpt lat="45.66622" lon="6.85295">
        <ele>2363</ele>
        <time>2019-10-06T12:57:04Z</time>
      </trkpt>
      <trkpt lat="45.66622" lon="6.85295">
        <ele>2363</ele>
        <time>2019-10-06T12:57:05Z</time>
      </trkpt>
      <trkpt lat="45.66625" lon="6.85295">
        <ele>2363</ele>
        <time>2019-10-06T12:57:06Z</time>
      </trkpt>
      <trkpt lat="45.66628" lon="6.85295">
        <ele>2362</ele>
        <time>2019-10-06T12:57:08Z</time>
      </trkpt>
      <trkpt lat="45.66632" lon="6.85295">
        <ele>2362</ele>
        <time>2019-10-06T12:57:10Z</time>
      </trkpt>
      <trkpt lat="45.66635" lon="6.85295">
        <ele>2362</ele>
        <time>2019-10-06T12:57:12Z</time>
      </trkpt>
      <trkpt lat="45.66637" lon="6.85295">
        <ele>2361</ele>
        <time>2019-10-06T12:57:14Z</time>
      </trkpt>
      <trkpt lat="45.66639" lon="6.85295">
        <ele>2361</ele>
        <time>2019-10-06T12:57:16Z</time>
      </trkpt>
      <trkpt lat="45.66641" lon="6.85295">
        <ele>2361</ele>
        <time>2019-10-06T12:57:18Z</time>
      </trkpt>
      <trkpt lat="45.66643" lon="6.85297">
        <ele>2361</ele>
        <time>2019-10-06T12:57:20Z</time>
      </trkpt>
      <trkpt lat="45.66644" lon="6.853">
        <ele>2360</ele>
        <time>2019-10-06T12:57:22Z</time>
      </trkpt>
      <trkpt lat="45.66644" lon="6.85302">
        <ele>2360</ele>
        <time>2019-10-06T12:57:24Z</time>
      </trkpt>
      <trkpt lat="45.66644" lon="6.85306">
        <ele>2360</ele>
        <time>2019-10-06T12:57:26Z</time>
      </trkpt>
      <trkpt lat="45.66643" lon="6.85309">
        <ele>2360</ele>
        <time>2019-10-06T12:57:28Z</time>
      </trkpt>
      <trkpt lat="45.66641" lon="6.85312">
        <ele>2359</ele>
        <time>2019-10-06T12:57:30Z</time>
      </trkpt>
      <trkpt lat="45.6664" lon="6.85317">
        <ele>2358</ele>
        <time>2019-10-06T12:57:32Z</time>
      </trkpt>
      <trkpt lat="45.66639" lon="6.8532">
        <ele>2358</ele>
        <time>2019-10-06T12:57:34Z</time>
      </trkpt>
      <trkpt lat="45.66639" lon="6.85324">
        <ele>2358</ele>
        <time>2019-10-06T12:57:36Z</time>
      </trkpt>
      <trkpt lat="45.6664" lon="6.85327">
        <ele>2359</ele>
        <time>2019-10-06T12:57:39Z</time>
      </trkpt>
      <trkpt lat="45.6664" lon="6.85327">
        <ele>2360</ele>
        <time>2019-10-06T12:57:40Z</time>
      </trkpt>
      <trkpt lat="45.66641" lon="6.85329">
        <ele>2360</ele>
        <time>2019-10-06T12:57:44Z</time>
      </trkpt>
      <trkpt lat="45.66641" lon="6.85329">
        <ele>2360</ele>
        <time>2019-10-06T12:57:45Z</time>
      </trkpt>
      <trkpt lat="45.66641" lon="6.85332">
        <ele>2362</ele>
        <time>2019-10-06T12:57:47Z</time>
      </trkpt>
      <trkpt lat="45.66641" lon="6.85335">
        <ele>2362</ele>
        <time>2019-10-06T12:57:49Z</time>
      </trkpt>
      <trkpt lat="45.66642" lon="6.85338">
        <ele>2362</ele>
        <time>2019-10-06T12:57:51Z</time>
      </trkpt>
      <trkpt lat="45.66643" lon="6.8534">
        <ele>2362</ele>
        <time>2019-10-06T12:57:53Z</time>
      </trkpt>
      <trkpt lat="45.66643" lon="6.85343">
        <ele>2363</ele>
        <time>2019-10-06T12:57:55Z</time>
      </trkpt>
      <trkpt lat="45.66645" lon="6.85345">
        <ele>2363</ele>
        <time>2019-10-06T12:57:58Z</time>
      </trkpt>
      <trkpt lat="45.66645" lon="6.85345">
        <ele>2364</ele>
        <time>2019-10-06T12:57:59Z</time>
      </trkpt>
      <trkpt lat="45.66646" lon="6.85348">
        <ele>2364</ele>
        <time>2019-10-06T12:58:01Z</time>
      </trkpt>
      <trkpt lat="45.66647" lon="6.8535">
        <ele>2364</ele>
        <time>2019-10-06T12:58:03Z</time>
      </trkpt>
      <trkpt lat="45.66647" lon="6.8535">
        <ele>2364</ele>
        <time>2019-10-06T12:58:05Z</time>
      </trkpt>
      <trkpt lat="45.66648" lon="6.85352">
        <ele>2364</ele>
        <time>2019-10-06T12:58:06Z</time>
      </trkpt>
      <trkpt lat="45.6665" lon="6.85354">
        <ele>2364</ele>
        <time>2019-10-06T12:58:08Z</time>
      </trkpt>
      <trkpt lat="45.66652" lon="6.85357">
        <ele>2363</ele>
        <time>2019-10-06T12:58:10Z</time>
      </trkpt>
      <trkpt lat="45.66654" lon="6.85359">
        <ele>2362</ele>
        <time>2019-10-06T12:58:11Z</time>
      </trkpt>
      <trkpt lat="45.66656" lon="6.85361">
        <ele>2362</ele>
        <time>2019-10-06T12:58:12Z</time>
      </trkpt>
      <trkpt lat="45.66657" lon="6.85363">
        <ele>2362</ele>
        <time>2019-10-06T12:58:13Z</time>
      </trkpt>
      <trkpt lat="45.66658" lon="6.85368">
        <ele>2362</ele>
        <time>2019-10-06T12:58:15Z</time>
      </trkpt>
      <trkpt lat="45.66658" lon="6.8537">
        <ele>2362</ele>
        <time>2019-10-06T12:58:17Z</time>
      </trkpt>
      <trkpt lat="45.66658" lon="6.8537">
        <ele>2362</ele>
        <time>2019-10-06T12:58:19Z</time>
      </trkpt>
      <trkpt lat="45.66659" lon="6.85372">
        <ele>2362</ele>
        <time>2019-10-06T12:58:20Z</time>
      </trkpt>
      <trkpt lat="45.6666" lon="6.85375">
        <ele>2363</ele>
        <time>2019-10-06T12:58:23Z</time>
      </trkpt>
      <trkpt lat="45.6666" lon="6.85375">
        <ele>2363</ele>
        <time>2019-10-06T12:58:25Z</time>
      </trkpt>
      <trkpt lat="45.6666" lon="6.85378">
        <ele>2363</ele>
        <time>2019-10-06T12:58:26Z</time>
      </trkpt>
      <trkpt lat="45.66661" lon="6.85381">
        <ele>2363</ele>
        <time>2019-10-06T12:58:28Z</time>
      </trkpt>
      <trkpt lat="45.66663" lon="6.85384">
        <ele>2363</ele>
        <time>2019-10-06T12:58:30Z</time>
      </trkpt>
      <trkpt lat="45.66665" lon="6.85387">
        <ele>2363</ele>
        <time>2019-10-06T12:58:32Z</time>
      </trkpt>
      <trkpt lat="45.66667" lon="6.85389">
        <ele>2363</ele>
        <time>2019-10-06T12:58:34Z</time>
      </trkpt>
      <trkpt lat="45.66669" lon="6.85391">
        <ele>2362</ele>
        <time>2019-10-06T12:58:36Z</time>
      </trkpt>
      <trkpt lat="45.66671" lon="6.85394">
        <ele>2362</ele>
        <time>2019-10-06T12:58:38Z</time>
      </trkpt>
      <trkpt lat="45.66673" lon="6.85396">
        <ele>2362</ele>
        <time>2019-10-06T12:58:39Z</time>
      </trkpt>
      <trkpt lat="45.66675" lon="6.85399">
        <ele>2362</ele>
        <time>2019-10-06T12:58:41Z</time>
      </trkpt>
      <trkpt lat="45.66676" lon="6.85401">
        <ele>2362</ele>
        <time>2019-10-06T12:58:42Z</time>
      </trkpt>
      <trkpt lat="45.66678" lon="6.85403">
        <ele>2362</ele>
        <time>2019-10-06T12:58:43Z</time>
      </trkpt>
      <trkpt lat="45.66679" lon="6.85405">
        <ele>2362</ele>
        <time>2019-10-06T12:58:44Z</time>
      </trkpt>
      <trkpt lat="45.66681" lon="6.85406">
        <ele>2362</ele>
        <time>2019-10-06T12:58:45Z</time>
      </trkpt>
      <trkpt lat="45.66683" lon="6.85408">
        <ele>2362</ele>
        <time>2019-10-06T12:58:46Z</time>
      </trkpt>
      <trkpt lat="45.66685" lon="6.85409">
        <ele>2362</ele>
        <time>2019-10-06T12:58:47Z</time>
      </trkpt>
      <trkpt lat="45.66686" lon="6.85411">
        <ele>2362</ele>
        <time>2019-10-06T12:58:48Z</time>
      </trkpt>
      <trkpt lat="45.66688" lon="6.85413">
        <ele>2362</ele>
        <time>2019-10-06T12:58:49Z</time>
      </trkpt>
      <trkpt lat="45.66689" lon="6.85415">
        <ele>2362</ele>
        <time>2019-10-06T12:58:50Z</time>
      </trkpt>
      <trkpt lat="45.6669" lon="6.85417">
        <ele>2362</ele>
        <time>2019-10-06T12:58:51Z</time>
      </trkpt>
      <trkpt lat="45.66691" lon="6.8542">
        <ele>2362</ele>
        <time>2019-10-06T12:58:52Z</time>
      </trkpt>
      <trkpt lat="45.66693" lon="6.85422">
        <ele>2362</ele>
        <time>2019-10-06T12:58:53Z</time>
      </trkpt>
      <trkpt lat="45.66694" lon="6.85425">
        <ele>2361</ele>
        <time>2019-10-06T12:58:54Z</time>
      </trkpt>
      <trkpt lat="45.66695" lon="6.85428">
        <ele>2361</ele>
        <time>2019-10-06T12:58:55Z</time>
      </trkpt>
      <trkpt lat="45.66696" lon="6.8543">
        <ele>2361</ele>
        <time>2019-10-06T12:58:56Z</time>
      </trkpt>
      <trkpt lat="45.66698" lon="6.85433">
        <ele>2361</ele>
        <time>2019-10-06T12:58:57Z</time>
      </trkpt>
      <trkpt lat="45.66699" lon="6.85435">
        <ele>2361</ele>
        <time>2019-10-06T12:58:58Z</time>
      </trkpt>
      <trkpt lat="45.66701" lon="6.85438">
        <ele>2361</ele>
        <time>2019-10-06T12:58:59Z</time>
      </trkpt>
      <trkpt lat="45.66703" lon="6.85441">
        <ele>2361</ele>
        <time>2019-10-06T12:59:00Z</time>
      </trkpt>
      <trkpt lat="45.66704" lon="6.85444">
        <ele>2361</ele>
        <time>2019-10-06T12:59:01Z</time>
      </trkpt>
      <trkpt lat="45.66705" lon="6.85447">
        <ele>2361</ele>
        <time>2019-10-06T12:59:02Z</time>
      </trkpt>
      <trkpt lat="45.66706" lon="6.85449">
        <ele>2361</ele>
        <time>2019-10-06T12:59:03Z</time>
      </trkpt>
      <trkpt lat="45.66707" lon="6.85451">
        <ele>2361</ele>
        <time>2019-10-06T12:59:04Z</time>
      </trkpt>
      <trkpt lat="45.66708" lon="6.85453">
        <ele>2361</ele>
        <time>2019-10-06T12:59:05Z</time>
      </trkpt>
      <trkpt lat="45.66711" lon="6.85456">
        <ele>2362</ele>
        <time>2019-10-06T12:59:07Z</time>
      </trkpt>
      <trkpt lat="45.66712" lon="6.85458">
        <ele>2362</ele>
        <time>2019-10-06T12:59:08Z</time>
      </trkpt>
      <trkpt lat="45.66713" lon="6.8546">
        <ele>2362</ele>
        <time>2019-10-06T12:59:09Z</time>
      </trkpt>
      <trkpt lat="45.66716" lon="6.85464">
        <ele>2362</ele>
        <time>2019-10-06T12:59:11Z</time>
      </trkpt>
      <trkpt lat="45.66718" lon="6.85465">
        <ele>2362</ele>
        <time>2019-10-06T12:59:12Z</time>
      </trkpt>
      <trkpt lat="45.6672" lon="6.85466">
        <ele>2362</ele>
        <time>2019-10-06T12:59:13Z</time>
      </trkpt>
      <trkpt lat="45.66723" lon="6.85468">
        <ele>2362</ele>
        <time>2019-10-06T12:59:15Z</time>
      </trkpt>
      <trkpt lat="45.66725" lon="6.85471">
        <ele>2361</ele>
        <time>2019-10-06T12:59:17Z</time>
      </trkpt>
      <trkpt lat="45.66726" lon="6.85473">
        <ele>2361</ele>
        <time>2019-10-06T12:59:18Z</time>
      </trkpt>
      <trkpt lat="45.66728" lon="6.85475">
        <ele>2361</ele>
        <time>2019-10-06T12:59:19Z</time>
      </trkpt>
      <trkpt lat="45.6673" lon="6.85476">
        <ele>2361</ele>
        <time>2019-10-06T12:59:20Z</time>
      </trkpt>
      <trkpt lat="45.66731" lon="6.85478">
        <ele>2361</ele>
        <time>2019-10-06T12:59:21Z</time>
      </trkpt>
      <trkpt lat="45.66733" lon="6.8548">
        <ele>2361</ele>
        <time>2019-10-06T12:59:22Z</time>
      </trkpt>
      <trkpt lat="45.66736" lon="6.85482">
        <ele>2361</ele>
        <time>2019-10-06T12:59:24Z</time>
      </trkpt>
      <trkpt lat="45.66738" lon="6.85483">
        <ele>2361</ele>
        <time>2019-10-06T12:59:25Z</time>
      </trkpt>
      <trkpt lat="45.6674" lon="6.85484">
        <ele>2361</ele>
        <time>2019-10-06T12:59:26Z</time>
      </trkpt>
      <trkpt lat="45.66742" lon="6.85485">
        <ele>2361</ele>
        <time>2019-10-06T12:59:27Z</time>
      </trkpt>
      <trkpt lat="45.66743" lon="6.85485">
        <ele>2361</ele>
        <time>2019-10-06T12:59:28Z</time>
      </trkpt>
      <trkpt lat="45.66746" lon="6.85486">
        <ele>2361</ele>
        <time>2019-10-06T12:59:30Z</time>
      </trkpt>
      <trkpt lat="45.66749" lon="6.85489">
        <ele>2361</ele>
        <time>2019-10-06T12:59:32Z</time>
      </trkpt>
      <trkpt lat="45.66751" lon="6.8549">
        <ele>2361</ele>
        <time>2019-10-06T12:59:33Z</time>
      </trkpt>
      <trkpt lat="45.66753" lon="6.85491">
        <ele>2361</ele>
        <time>2019-10-06T12:59:34Z</time>
      </trkpt>
      <trkpt lat="45.66755" lon="6.8549">
        <ele>2361</ele>
        <time>2019-10-06T12:59:35Z</time>
      </trkpt>
      <trkpt lat="45.66757" lon="6.8549">
        <ele>2361</ele>
        <time>2019-10-06T12:59:36Z</time>
      </trkpt>
      <trkpt lat="45.66759" lon="6.8549">
        <ele>2361</ele>
        <time>2019-10-06T12:59:37Z</time>
      </trkpt>
      <trkpt lat="45.66761" lon="6.8549">
        <ele>2361</ele>
        <time>2019-10-06T12:59:38Z</time>
      </trkpt>
      <trkpt lat="45.66763" lon="6.85489">
        <ele>2361</ele>
        <time>2019-10-06T12:59:39Z</time>
      </trkpt>
      <trkpt lat="45.66765" lon="6.85489">
        <ele>2361</ele>
        <time>2019-10-06T12:59:40Z</time>
      </trkpt>
      <trkpt lat="45.66767" lon="6.85489">
        <ele>2361</ele>
        <time>2019-10-06T12:59:41Z</time>
      </trkpt>
      <trkpt lat="45.66771" lon="6.85488">
        <ele>2361</ele>
        <time>2019-10-06T12:59:43Z</time>
      </trkpt>
      <trkpt lat="45.66773" lon="6.85488">
        <ele>2361</ele>
        <time>2019-10-06T12:59:44Z</time>
      </trkpt>
      <trkpt lat="45.66775" lon="6.85489">
        <ele>2361</ele>
        <time>2019-10-06T12:59:45Z</time>
      </trkpt>
      <trkpt lat="45.66777" lon="6.8549">
        <ele>2361</ele>
        <time>2019-10-06T12:59:46Z</time>
      </trkpt>
      <trkpt lat="45.66779" lon="6.85491">
        <ele>2360</ele>
        <time>2019-10-06T12:59:47Z</time>
      </trkpt>
      <trkpt lat="45.6678" lon="6.85494">
        <ele>2359</ele>
        <time>2019-10-06T12:59:48Z</time>
      </trkpt>
      <trkpt lat="45.66782" lon="6.85496">
        <ele>2359</ele>
        <time>2019-10-06T12:59:49Z</time>
      </trkpt>
      <trkpt lat="45.66784" lon="6.85498">
        <ele>2359</ele>
        <time>2019-10-06T12:59:50Z</time>
      </trkpt>
      <trkpt lat="45.66787" lon="6.85499">
        <ele>2358</ele>
        <time>2019-10-06T12:59:51Z</time>
      </trkpt>
      <trkpt lat="45.66789" lon="6.855">
        <ele>2358</ele>
        <time>2019-10-06T12:59:52Z</time>
      </trkpt>
      <trkpt lat="45.6679" lon="6.855">
        <ele>2359</ele>
        <time>2019-10-06T12:59:53Z</time>
      </trkpt>
      <trkpt lat="45.66794" lon="6.855">
        <ele>2359</ele>
        <time>2019-10-06T12:59:55Z</time>
      </trkpt>
      <trkpt lat="45.66797" lon="6.85504">
        <ele>2359</ele>
        <time>2019-10-06T12:59:57Z</time>
      </trkpt>
      <trkpt lat="45.66798" lon="6.85506">
        <ele>2358</ele>
        <time>2019-10-06T12:59:58Z</time>
      </trkpt>
      <trkpt lat="45.66801" lon="6.85507">
        <ele>2357</ele>
        <time>2019-10-06T12:59:59Z</time>
      </trkpt>
      <trkpt lat="45.66803" lon="6.85508">
        <ele>2357</ele>
        <time>2019-10-06T13:00:00Z</time>
      </trkpt>
      <trkpt lat="45.66804" lon="6.85509">
        <ele>2356</ele>
        <time>2019-10-06T13:00:01Z</time>
      </trkpt>
      <trkpt lat="45.66808" lon="6.8551">
        <ele>2355</ele>
        <time>2019-10-06T13:00:03Z</time>
      </trkpt>
      <trkpt lat="45.6681" lon="6.85514">
        <ele>2355</ele>
        <time>2019-10-06T13:00:05Z</time>
      </trkpt>
      <trkpt lat="45.66812" lon="6.85515">
        <ele>2355</ele>
        <time>2019-10-06T13:00:06Z</time>
      </trkpt>
      <trkpt lat="45.66814" lon="6.85516">
        <ele>2355</ele>
        <time>2019-10-06T13:00:07Z</time>
      </trkpt>
      <trkpt lat="45.66816" lon="6.85517">
        <ele>2355</ele>
        <time>2019-10-06T13:00:08Z</time>
      </trkpt>
      <trkpt lat="45.66818" lon="6.85517">
        <ele>2355</ele>
        <time>2019-10-06T13:00:09Z</time>
      </trkpt>
      <trkpt lat="45.6682" lon="6.85517">
        <ele>2355</ele>
        <time>2019-10-06T13:00:10Z</time>
      </trkpt>
      <trkpt lat="45.66822" lon="6.85517">
        <ele>2355</ele>
        <time>2019-10-06T13:00:11Z</time>
      </trkpt>
      <trkpt lat="45.66824" lon="6.85517">
        <ele>2354</ele>
        <time>2019-10-06T13:00:12Z</time>
      </trkpt>
      <trkpt lat="45.66826" lon="6.85518">
        <ele>2353</ele>
        <time>2019-10-06T13:00:13Z</time>
      </trkpt>
      <trkpt lat="45.66829" lon="6.85519">
        <ele>2353</ele>
        <time>2019-10-06T13:00:14Z</time>
      </trkpt>
      <trkpt lat="45.66831" lon="6.85519">
        <ele>2353</ele>
        <time>2019-10-06T13:00:15Z</time>
      </trkpt>
      <trkpt lat="45.66833" lon="6.85519">
        <ele>2352</ele>
        <time>2019-10-06T13:00:16Z</time>
      </trkpt>
      <trkpt lat="45.66834" lon="6.8552">
        <ele>2350</ele>
        <time>2019-10-06T13:00:17Z</time>
      </trkpt>
      <trkpt lat="45.66836" lon="6.85521">
        <ele>2350</ele>
        <time>2019-10-06T13:00:18Z</time>
      </trkpt>
      <trkpt lat="45.66837" lon="6.85523">
        <ele>2350</ele>
        <time>2019-10-06T13:00:19Z</time>
      </trkpt>
      <trkpt lat="45.66838" lon="6.85526">
        <ele>2350</ele>
        <time>2019-10-06T13:00:20Z</time>
      </trkpt>
      <trkpt lat="45.66839" lon="6.85529">
        <ele>2350</ele>
        <time>2019-10-06T13:00:21Z</time>
      </trkpt>
      <trkpt lat="45.6684" lon="6.85532">
        <ele>2350</ele>
        <time>2019-10-06T13:00:22Z</time>
      </trkpt>
      <trkpt lat="45.66841" lon="6.85534">
        <ele>2350</ele>
        <time>2019-10-06T13:00:23Z</time>
      </trkpt>
      <trkpt lat="45.66843" lon="6.85536">
        <ele>2350</ele>
        <time>2019-10-06T13:00:24Z</time>
      </trkpt>
      <trkpt lat="45.66842" lon="6.85539">
        <ele>2350</ele>
        <time>2019-10-06T13:00:25Z</time>
      </trkpt>
      <trkpt lat="45.66841" lon="6.85541">
        <ele>2350</ele>
        <time>2019-10-06T13:00:26Z</time>
      </trkpt>
      <trkpt lat="45.66841" lon="6.85545">
        <ele>2350</ele>
        <time>2019-10-06T13:00:28Z</time>
      </trkpt>
      <trkpt lat="45.66842" lon="6.85548">
        <ele>2350</ele>
        <time>2019-10-06T13:00:29Z</time>
      </trkpt>
      <trkpt lat="45.66843" lon="6.85551">
        <ele>2350</ele>
        <time>2019-10-06T13:00:30Z</time>
      </trkpt>
      <trkpt lat="45.66844" lon="6.85553">
        <ele>2350</ele>
        <time>2019-10-06T13:00:31Z</time>
      </trkpt>
      <trkpt lat="45.66845" lon="6.85556">
        <ele>2350</ele>
        <time>2019-10-06T13:00:32Z</time>
      </trkpt>
      <trkpt lat="45.66846" lon="6.85558">
        <ele>2350</ele>
        <time>2019-10-06T13:00:33Z</time>
      </trkpt>
      <trkpt lat="45.66847" lon="6.8556">
        <ele>2350</ele>
        <time>2019-10-06T13:00:34Z</time>
      </trkpt>
      <trkpt lat="45.66848" lon="6.85563">
        <ele>2349</ele>
        <time>2019-10-06T13:00:35Z</time>
      </trkpt>
      <trkpt lat="45.66848" lon="6.85566">
        <ele>2349</ele>
        <time>2019-10-06T13:00:36Z</time>
      </trkpt>
      <trkpt lat="45.66849" lon="6.85569">
        <ele>2349</ele>
        <time>2019-10-06T13:00:37Z</time>
      </trkpt>
      <trkpt lat="45.6685" lon="6.85573">
        <ele>2349</ele>
        <time>2019-10-06T13:00:39Z</time>
      </trkpt>
      <trkpt lat="45.66852" lon="6.85575">
        <ele>2349</ele>
        <time>2019-10-06T13:00:41Z</time>
      </trkpt>
      <trkpt lat="45.66853" lon="6.85578">
        <ele>2349</ele>
        <time>2019-10-06T13:00:43Z</time>
      </trkpt>
      <trkpt lat="45.66855" lon="6.85581">
        <ele>2350</ele>
        <time>2019-10-06T13:00:45Z</time>
      </trkpt>
      <trkpt lat="45.66856" lon="6.85583">
        <ele>2350</ele>
        <time>2019-10-06T13:00:47Z</time>
      </trkpt>
      <trkpt lat="45.66858" lon="6.85586">
        <ele>2350</ele>
        <time>2019-10-06T13:00:49Z</time>
      </trkpt>
      <trkpt lat="45.66858" lon="6.85589">
        <ele>2350</ele>
        <time>2019-10-06T13:00:51Z</time>
      </trkpt>
      <trkpt lat="45.66858" lon="6.85592">
        <ele>2350</ele>
        <time>2019-10-06T13:00:53Z</time>
      </trkpt>
      <trkpt lat="45.66859" lon="6.85596">
        <ele>2350</ele>
        <time>2019-10-06T13:00:55Z</time>
      </trkpt>
      <trkpt lat="45.66859" lon="6.85599">
        <ele>2350</ele>
        <time>2019-10-06T13:00:57Z</time>
      </trkpt>
      <trkpt lat="45.66859" lon="6.85603">
        <ele>2350</ele>
        <time>2019-10-06T13:00:59Z</time>
      </trkpt>
      <trkpt lat="45.66858" lon="6.85606">
        <ele>2350</ele>
        <time>2019-10-06T13:01:00Z</time>
      </trkpt>
      <trkpt lat="45.66857" lon="6.85609">
        <ele>2350</ele>
        <time>2019-10-06T13:01:01Z</time>
      </trkpt>
      <trkpt lat="45.66857" lon="6.85611">
        <ele>2350</ele>
        <time>2019-10-06T13:01:02Z</time>
      </trkpt>
      <trkpt lat="45.66856" lon="6.85614">
        <ele>2350</ele>
        <time>2019-10-06T13:01:03Z</time>
      </trkpt>
      <trkpt lat="45.66856" lon="6.85617">
        <ele>2350</ele>
        <time>2019-10-06T13:01:04Z</time>
      </trkpt>
      <trkpt lat="45.66856" lon="6.8562">
        <ele>2350</ele>
        <time>2019-10-06T13:01:05Z</time>
      </trkpt>
      <trkpt lat="45.66856" lon="6.85623">
        <ele>2350</ele>
        <time>2019-10-06T13:01:06Z</time>
      </trkpt>
      <trkpt lat="45.66857" lon="6.85625">
        <ele>2350</ele>
        <time>2019-10-06T13:01:07Z</time>
      </trkpt>
      <trkpt lat="45.66858" lon="6.85628">
        <ele>2350</ele>
        <time>2019-10-06T13:01:08Z</time>
      </trkpt>
      <trkpt lat="45.66859" lon="6.8563">
        <ele>2350</ele>
        <time>2019-10-06T13:01:09Z</time>
      </trkpt>
      <trkpt lat="45.66861" lon="6.85632">
        <ele>2349</ele>
        <time>2019-10-06T13:01:10Z</time>
      </trkpt>
      <trkpt lat="45.66862" lon="6.85634">
        <ele>2348</ele>
        <time>2019-10-06T13:01:11Z</time>
      </trkpt>
      <trkpt lat="45.66863" lon="6.85636">
        <ele>2348</ele>
        <time>2019-10-06T13:01:12Z</time>
      </trkpt>
      <trkpt lat="45.66865" lon="6.85638">
        <ele>2348</ele>
        <time>2019-10-06T13:01:13Z</time>
      </trkpt>
      <trkpt lat="45.66867" lon="6.8564">
        <ele>2347</ele>
        <time>2019-10-06T13:01:14Z</time>
      </trkpt>
      <trkpt lat="45.66868" lon="6.85643">
        <ele>2347</ele>
        <time>2019-10-06T13:01:15Z</time>
      </trkpt>
      <trkpt lat="45.6687" lon="6.85645">
        <ele>2347</ele>
        <time>2019-10-06T13:01:16Z</time>
      </trkpt>
      <trkpt lat="45.66871" lon="6.85646">
        <ele>2347</ele>
        <time>2019-10-06T13:01:17Z</time>
      </trkpt>
      <trkpt lat="45.66872" lon="6.85648">
        <ele>2347</ele>
        <time>2019-10-06T13:01:18Z</time>
      </trkpt>
      <trkpt lat="45.66873" lon="6.85653">
        <ele>2347</ele>
        <time>2019-10-06T13:01:20Z</time>
      </trkpt>
      <trkpt lat="45.66872" lon="6.85658">
        <ele>2347</ele>
        <time>2019-10-06T13:01:22Z</time>
      </trkpt>
      <trkpt lat="45.66872" lon="6.8566">
        <ele>2347</ele>
        <time>2019-10-06T13:01:23Z</time>
      </trkpt>
      <trkpt lat="45.66871" lon="6.85663">
        <ele>2347</ele>
        <time>2019-10-06T13:01:24Z</time>
      </trkpt>
      <trkpt lat="45.6687" lon="6.85665">
        <ele>2346</ele>
        <time>2019-10-06T13:01:25Z</time>
      </trkpt>
      <trkpt lat="45.66869" lon="6.85667">
        <ele>2346</ele>
        <time>2019-10-06T13:01:26Z</time>
      </trkpt>
      <trkpt lat="45.66868" lon="6.85671">
        <ele>2346</ele>
        <time>2019-10-06T13:01:28Z</time>
      </trkpt>
      <trkpt lat="45.66865" lon="6.85671">
        <ele>2346</ele>
        <time>2019-10-06T13:01:30Z</time>
      </trkpt>
      <trkpt lat="45.66863" lon="6.85672">
        <ele>2346</ele>
        <time>2019-10-06T13:01:32Z</time>
      </trkpt>
      <trkpt lat="45.6686" lon="6.85673">
        <ele>2346</ele>
        <time>2019-10-06T13:01:34Z</time>
      </trkpt>
      <trkpt lat="45.66857" lon="6.85673">
        <ele>2346</ele>
        <time>2019-10-06T13:01:36Z</time>
      </trkpt>
      <trkpt lat="45.66854" lon="6.85674">
        <ele>2346</ele>
        <time>2019-10-06T13:01:38Z</time>
      </trkpt>
      <trkpt lat="45.66852" lon="6.85676">
        <ele>2345</ele>
        <time>2019-10-06T13:01:39Z</time>
      </trkpt>
      <trkpt lat="45.6685" lon="6.85677">
        <ele>2345</ele>
        <time>2019-10-06T13:01:40Z</time>
      </trkpt>
      <trkpt lat="45.66848" lon="6.85679">
        <ele>2345</ele>
        <time>2019-10-06T13:01:41Z</time>
      </trkpt>
      <trkpt lat="45.66846" lon="6.8568">
        <ele>2345</ele>
        <time>2019-10-06T13:01:42Z</time>
      </trkpt>
      <trkpt lat="45.66844" lon="6.85682">
        <ele>2345</ele>
        <time>2019-10-06T13:01:43Z</time>
      </trkpt>
      <trkpt lat="45.66843" lon="6.85684">
        <ele>2345</ele>
        <time>2019-10-06T13:01:44Z</time>
      </trkpt>
      <trkpt lat="45.66842" lon="6.85687">
        <ele>2345</ele>
        <time>2019-10-06T13:01:45Z</time>
      </trkpt>
      <trkpt lat="45.6684" lon="6.8569">
        <ele>2345</ele>
        <time>2019-10-06T13:01:46Z</time>
      </trkpt>
      <trkpt lat="45.66839" lon="6.85693">
        <ele>2344</ele>
        <time>2019-10-06T13:01:47Z</time>
      </trkpt>
      <trkpt lat="45.66838" lon="6.85696">
        <ele>2344</ele>
        <time>2019-10-06T13:01:48Z</time>
      </trkpt>
      <trkpt lat="45.66837" lon="6.857">
        <ele>2344</ele>
        <time>2019-10-06T13:01:49Z</time>
      </trkpt>
      <trkpt lat="45.66836" lon="6.85703">
        <ele>2344</ele>
        <time>2019-10-06T13:01:50Z</time>
      </trkpt>
      <trkpt lat="45.66835" lon="6.85707">
        <ele>2343</ele>
        <time>2019-10-06T13:01:51Z</time>
      </trkpt>
      <trkpt lat="45.66834" lon="6.85711">
        <ele>2343</ele>
        <time>2019-10-06T13:01:52Z</time>
      </trkpt>
      <trkpt lat="45.66833" lon="6.85714">
        <ele>2342</ele>
        <time>2019-10-06T13:01:53Z</time>
      </trkpt>
      <trkpt lat="45.66832" lon="6.85719">
        <ele>2341</ele>
        <time>2019-10-06T13:01:54Z</time>
      </trkpt>
      <trkpt lat="45.66831" lon="6.85722">
        <ele>2341</ele>
        <time>2019-10-06T13:01:55Z</time>
      </trkpt>
      <trkpt lat="45.6683" lon="6.85725">
        <ele>2341</ele>
        <time>2019-10-06T13:01:56Z</time>
      </trkpt>
      <trkpt lat="45.66829" lon="6.85728">
        <ele>2341</ele>
        <time>2019-10-06T13:01:57Z</time>
      </trkpt>
      <trkpt lat="45.66829" lon="6.85731">
        <ele>2341</ele>
        <time>2019-10-06T13:01:58Z</time>
      </trkpt>
      <trkpt lat="45.66828" lon="6.85734">
        <ele>2340</ele>
        <time>2019-10-06T13:01:59Z</time>
      </trkpt>
      <trkpt lat="45.66826" lon="6.85736">
        <ele>2339</ele>
        <time>2019-10-06T13:02:00Z</time>
      </trkpt>
      <trkpt lat="45.66825" lon="6.85739">
        <ele>2339</ele>
        <time>2019-10-06T13:02:01Z</time>
      </trkpt>
      <trkpt lat="45.66825" lon="6.85741">
        <ele>2339</ele>
        <time>2019-10-06T13:02:02Z</time>
      </trkpt>
      <trkpt lat="45.66825" lon="6.85744">
        <ele>2339</ele>
        <time>2019-10-06T13:02:03Z</time>
      </trkpt>
      <trkpt lat="45.66825" lon="6.85747">
        <ele>2338</ele>
        <time>2019-10-06T13:02:04Z</time>
      </trkpt>
      <trkpt lat="45.66826" lon="6.8575">
        <ele>2338</ele>
        <time>2019-10-06T13:02:05Z</time>
      </trkpt>
      <trkpt lat="45.66826" lon="6.85754">
        <ele>2338</ele>
        <time>2019-10-06T13:02:06Z</time>
      </trkpt>
      <trkpt lat="45.66827" lon="6.85757">
        <ele>2338</ele>
        <time>2019-10-06T13:02:07Z</time>
      </trkpt>
      <trkpt lat="45.66828" lon="6.8576">
        <ele>2338</ele>
        <time>2019-10-06T13:02:08Z</time>
      </trkpt>
      <trkpt lat="45.66829" lon="6.85764">
        <ele>2337</ele>
        <time>2019-10-06T13:02:09Z</time>
      </trkpt>
      <trkpt lat="45.6683" lon="6.85767">
        <ele>2337</ele>
        <time>2019-10-06T13:02:10Z</time>
      </trkpt>
      <trkpt lat="45.6683" lon="6.8577">
        <ele>2337</ele>
        <time>2019-10-06T13:02:11Z</time>
      </trkpt>
      <trkpt lat="45.66832" lon="6.85773">
        <ele>2336</ele>
        <time>2019-10-06T13:02:12Z</time>
      </trkpt>
      <trkpt lat="45.66833" lon="6.85776">
        <ele>2336</ele>
        <time>2019-10-06T13:02:13Z</time>
      </trkpt>
      <trkpt lat="45.66835" lon="6.85778">
        <ele>2336</ele>
        <time>2019-10-06T13:02:14Z</time>
      </trkpt>
      <trkpt lat="45.66836" lon="6.85781">
        <ele>2336</ele>
        <time>2019-10-06T13:02:15Z</time>
      </trkpt>
      <trkpt lat="45.66838" lon="6.85783">
        <ele>2336</ele>
        <time>2019-10-06T13:02:16Z</time>
      </trkpt>
      <trkpt lat="45.6684" lon="6.85786">
        <ele>2336</ele>
        <time>2019-10-06T13:02:17Z</time>
      </trkpt>
      <trkpt lat="45.66841" lon="6.85788">
        <ele>2336</ele>
        <time>2019-10-06T13:02:18Z</time>
      </trkpt>
      <trkpt lat="45.66842" lon="6.85791">
        <ele>2336</ele>
        <time>2019-10-06T13:02:19Z</time>
      </trkpt>
      <trkpt lat="45.66843" lon="6.85794">
        <ele>2335</ele>
        <time>2019-10-06T13:02:20Z</time>
      </trkpt>
      <trkpt lat="45.66844" lon="6.85797">
        <ele>2335</ele>
        <time>2019-10-06T13:02:21Z</time>
      </trkpt>
      <trkpt lat="45.66846" lon="6.85799">
        <ele>2335</ele>
        <time>2019-10-06T13:02:22Z</time>
      </trkpt>
      <trkpt lat="45.66847" lon="6.85801">
        <ele>2335</ele>
        <time>2019-10-06T13:02:23Z</time>
      </trkpt>
      <trkpt lat="45.66849" lon="6.85803">
        <ele>2335</ele>
        <time>2019-10-06T13:02:24Z</time>
      </trkpt>
      <trkpt lat="45.6685" lon="6.85806">
        <ele>2335</ele>
        <time>2019-10-06T13:02:25Z</time>
      </trkpt>
      <trkpt lat="45.66851" lon="6.85809">
        <ele>2335</ele>
        <time>2019-10-06T13:02:26Z</time>
      </trkpt>
      <trkpt lat="45.66852" lon="6.85811">
        <ele>2335</ele>
        <time>2019-10-06T13:02:27Z</time>
      </trkpt>
      <trkpt lat="45.66854" lon="6.85814">
        <ele>2335</ele>
        <time>2019-10-06T13:02:28Z</time>
      </trkpt>
      <trkpt lat="45.66855" lon="6.85816">
        <ele>2335</ele>
        <time>2019-10-06T13:02:29Z</time>
      </trkpt>
      <trkpt lat="45.66857" lon="6.85817">
        <ele>2335</ele>
        <time>2019-10-06T13:02:30Z</time>
      </trkpt>
      <trkpt lat="45.66859" lon="6.85819">
        <ele>2335</ele>
        <time>2019-10-06T13:02:31Z</time>
      </trkpt>
      <trkpt lat="45.66861" lon="6.8582">
        <ele>2335</ele>
        <time>2019-10-06T13:02:32Z</time>
      </trkpt>
      <trkpt lat="45.66863" lon="6.85821">
        <ele>2335</ele>
        <time>2019-10-06T13:02:33Z</time>
      </trkpt>
      <trkpt lat="45.66864" lon="6.85823">
        <ele>2335</ele>
        <time>2019-10-06T13:02:34Z</time>
      </trkpt>
      <trkpt lat="45.66866" lon="6.85825">
        <ele>2335</ele>
        <time>2019-10-06T13:02:35Z</time>
      </trkpt>
      <trkpt lat="45.66867" lon="6.85827">
        <ele>2336</ele>
        <time>2019-10-06T13:02:36Z</time>
      </trkpt>
      <trkpt lat="45.66869" lon="6.85828">
        <ele>2336</ele>
        <time>2019-10-06T13:02:37Z</time>
      </trkpt>
      <trkpt lat="45.66871" lon="6.85828">
        <ele>2336</ele>
        <time>2019-10-06T13:02:38Z</time>
      </trkpt>
      <trkpt lat="45.66873" lon="6.85828">
        <ele>2336</ele>
        <time>2019-10-06T13:02:39Z</time>
      </trkpt>
      <trkpt lat="45.66875" lon="6.85827">
        <ele>2336</ele>
        <time>2019-10-06T13:02:40Z</time>
      </trkpt>
      <trkpt lat="45.66877" lon="6.85827">
        <ele>2336</ele>
        <time>2019-10-06T13:02:41Z</time>
      </trkpt>
      <trkpt lat="45.6688" lon="6.85828">
        <ele>2335</ele>
        <time>2019-10-06T13:02:42Z</time>
      </trkpt>
      <trkpt lat="45.66882" lon="6.85829">
        <ele>2335</ele>
        <time>2019-10-06T13:02:43Z</time>
      </trkpt>
      <trkpt lat="45.66884" lon="6.85831">
        <ele>2334</ele>
        <time>2019-10-06T13:02:44Z</time>
      </trkpt>
      <trkpt lat="45.66886" lon="6.85832">
        <ele>2333</ele>
        <time>2019-10-06T13:02:45Z</time>
      </trkpt>
      <trkpt lat="45.66887" lon="6.85834">
        <ele>2333</ele>
        <time>2019-10-06T13:02:46Z</time>
      </trkpt>
      <trkpt lat="45.66888" lon="6.85838">
        <ele>2333</ele>
        <time>2019-10-06T13:02:48Z</time>
      </trkpt>
      <trkpt lat="45.66888" lon="6.85841">
        <ele>2333</ele>
        <time>2019-10-06T13:02:51Z</time>
      </trkpt>
      <trkpt lat="45.66888" lon="6.85841">
        <ele>2334</ele>
        <time>2019-10-06T13:02:52Z</time>
      </trkpt>
      <trkpt lat="45.66887" lon="6.85846">
        <ele>2334</ele>
        <time>2019-10-06T13:02:53Z</time>
      </trkpt>
      <trkpt lat="45.66888" lon="6.85851">
        <ele>2334</ele>
        <time>2019-10-06T13:02:55Z</time>
      </trkpt>
      <trkpt lat="45.66888" lon="6.85854">
        <ele>2334</ele>
        <time>2019-10-06T13:02:56Z</time>
      </trkpt>
      <trkpt lat="45.66889" lon="6.85857">
        <ele>2334</ele>
        <time>2019-10-06T13:02:57Z</time>
      </trkpt>
      <trkpt lat="45.66889" lon="6.8586">
        <ele>2334</ele>
        <time>2019-10-06T13:02:58Z</time>
      </trkpt>
      <trkpt lat="45.6689" lon="6.85863">
        <ele>2334</ele>
        <time>2019-10-06T13:02:59Z</time>
      </trkpt>
      <trkpt lat="45.66891" lon="6.85866">
        <ele>2334</ele>
        <time>2019-10-06T13:03:00Z</time>
      </trkpt>
      <trkpt lat="45.66891" lon="6.85869">
        <ele>2334</ele>
        <time>2019-10-06T13:03:01Z</time>
      </trkpt>
      <trkpt lat="45.66892" lon="6.85872">
        <ele>2334</ele>
        <time>2019-10-06T13:03:02Z</time>
      </trkpt>
      <trkpt lat="45.66892" lon="6.85875">
        <ele>2334</ele>
        <time>2019-10-06T13:03:03Z</time>
      </trkpt>
      <trkpt lat="45.66893" lon="6.85878">
        <ele>2334</ele>
        <time>2019-10-06T13:03:04Z</time>
      </trkpt>
      <trkpt lat="45.66893" lon="6.85881">
        <ele>2334</ele>
        <time>2019-10-06T13:03:05Z</time>
      </trkpt>
      <trkpt lat="45.66894" lon="6.85884">
        <ele>2334</ele>
        <time>2019-10-06T13:03:06Z</time>
      </trkpt>
      <trkpt lat="45.66895" lon="6.85887">
        <ele>2334</ele>
        <time>2019-10-06T13:03:07Z</time>
      </trkpt>
      <trkpt lat="45.66895" lon="6.8589">
        <ele>2334</ele>
        <time>2019-10-06T13:03:08Z</time>
      </trkpt>
      <trkpt lat="45.66895" lon="6.85893">
        <ele>2334</ele>
        <time>2019-10-06T13:03:09Z</time>
      </trkpt>
      <trkpt lat="45.66895" lon="6.85895">
        <ele>2334</ele>
        <time>2019-10-06T13:03:10Z</time>
      </trkpt>
      <trkpt lat="45.66896" lon="6.85899">
        <ele>2334</ele>
        <time>2019-10-06T13:03:11Z</time>
      </trkpt>
      <trkpt lat="45.66896" lon="6.85901">
        <ele>2334</ele>
        <time>2019-10-06T13:03:12Z</time>
      </trkpt>
      <trkpt lat="45.66897" lon="6.85904">
        <ele>2334</ele>
        <time>2019-10-06T13:03:13Z</time>
      </trkpt>
      <trkpt lat="45.66897" lon="6.85907">
        <ele>2334</ele>
        <time>2019-10-06T13:03:14Z</time>
      </trkpt>
      <trkpt lat="45.66897" lon="6.8591">
        <ele>2334</ele>
        <time>2019-10-06T13:03:15Z</time>
      </trkpt>
      <trkpt lat="45.66899" lon="6.85915">
        <ele>2335</ele>
        <time>2019-10-06T13:03:17Z</time>
      </trkpt>
      <trkpt lat="45.669" lon="6.85917">
        <ele>2335</ele>
        <time>2019-10-06T13:03:18Z</time>
      </trkpt>
      <trkpt lat="45.66901" lon="6.8592">
        <ele>2335</ele>
        <time>2019-10-06T13:03:19Z</time>
      </trkpt>
      <trkpt lat="45.66902" lon="6.85922">
        <ele>2335</ele>
        <time>2019-10-06T13:03:20Z</time>
      </trkpt>
      <trkpt lat="45.66903" lon="6.85924">
        <ele>2335</ele>
        <time>2019-10-06T13:03:21Z</time>
      </trkpt>
      <trkpt lat="45.66905" lon="6.85926">
        <ele>2335</ele>
        <time>2019-10-06T13:03:22Z</time>
      </trkpt>
      <trkpt lat="45.66906" lon="6.85928">
        <ele>2335</ele>
        <time>2019-10-06T13:03:23Z</time>
      </trkpt>
      <trkpt lat="45.66908" lon="6.85929">
        <ele>2335</ele>
        <time>2019-10-06T13:03:24Z</time>
      </trkpt>
      <trkpt lat="45.6691" lon="6.8593">
        <ele>2335</ele>
        <time>2019-10-06T13:03:25Z</time>
      </trkpt>
      <trkpt lat="45.66911" lon="6.85932">
        <ele>2335</ele>
        <time>2019-10-06T13:03:26Z</time>
      </trkpt>
      <trkpt lat="45.66912" lon="6.85935">
        <ele>2335</ele>
        <time>2019-10-06T13:03:27Z</time>
      </trkpt>
      <trkpt lat="45.66914" lon="6.85938">
        <ele>2334</ele>
        <time>2019-10-06T13:03:28Z</time>
      </trkpt>
      <trkpt lat="45.66915" lon="6.85939">
        <ele>2334</ele>
        <time>2019-10-06T13:03:29Z</time>
      </trkpt>
      <trkpt lat="45.66917" lon="6.8594">
        <ele>2333</ele>
        <time>2019-10-06T13:03:30Z</time>
      </trkpt>
      <trkpt lat="45.66919" lon="6.85942">
        <ele>2333</ele>
        <time>2019-10-06T13:03:31Z</time>
      </trkpt>
      <trkpt lat="45.66921" lon="6.85943">
        <ele>2333</ele>
        <time>2019-10-06T13:03:32Z</time>
      </trkpt>
      <trkpt lat="45.66923" lon="6.85945">
        <ele>2333</ele>
        <time>2019-10-06T13:03:33Z</time>
      </trkpt>
      <trkpt lat="45.66925" lon="6.85947">
        <ele>2333</ele>
        <time>2019-10-06T13:03:35Z</time>
      </trkpt>
      <trkpt lat="45.66928" lon="6.85951">
        <ele>2333</ele>
        <time>2019-10-06T13:03:37Z</time>
      </trkpt>
      <trkpt lat="45.66929" lon="6.85953">
        <ele>2333</ele>
        <time>2019-10-06T13:03:39Z</time>
      </trkpt>
      <trkpt lat="45.6693" lon="6.85956">
        <ele>2333</ele>
        <time>2019-10-06T13:03:41Z</time>
      </trkpt>
      <trkpt lat="45.66931" lon="6.85958">
        <ele>2333</ele>
        <time>2019-10-06T13:03:43Z</time>
      </trkpt>
      <trkpt lat="45.66931" lon="6.85961">
        <ele>2334</ele>
        <time>2019-10-06T13:03:45Z</time>
      </trkpt>
      <trkpt lat="45.66931" lon="6.85964">
        <ele>2334</ele>
        <time>2019-10-06T13:03:47Z</time>
      </trkpt>
      <trkpt lat="45.6693" lon="6.85967">
        <ele>2335</ele>
        <time>2019-10-06T13:03:49Z</time>
      </trkpt>
      <trkpt lat="45.66929" lon="6.8597">
        <ele>2335</ele>
        <time>2019-10-06T13:03:51Z</time>
      </trkpt>
      <trkpt lat="45.66929" lon="6.85974">
        <ele>2335</ele>
        <time>2019-10-06T13:03:53Z</time>
      </trkpt>
      <trkpt lat="45.66929" lon="6.85977">
        <ele>2336</ele>
        <time>2019-10-06T13:03:55Z</time>
      </trkpt>
      <trkpt lat="45.66929" lon="6.85981">
        <ele>2336</ele>
        <time>2019-10-06T13:03:57Z</time>
      </trkpt>
      <trkpt lat="45.66929" lon="6.85984">
        <ele>2337</ele>
        <time>2019-10-06T13:03:59Z</time>
      </trkpt>
      <trkpt lat="45.6693" lon="6.85987">
        <ele>2337</ele>
        <time>2019-10-06T13:04:01Z</time>
      </trkpt>
      <trkpt lat="45.66931" lon="6.85991">
        <ele>2337</ele>
        <time>2019-10-06T13:04:03Z</time>
      </trkpt>
      <trkpt lat="45.66933" lon="6.85994">
        <ele>2337</ele>
        <time>2019-10-06T13:04:05Z</time>
      </trkpt>
      <trkpt lat="45.66934" lon="6.85997">
        <ele>2337</ele>
        <time>2019-10-06T13:04:07Z</time>
      </trkpt>
      <trkpt lat="45.66935" lon="6.86">
        <ele>2337</ele>
        <time>2019-10-06T13:04:09Z</time>
      </trkpt>
      <trkpt lat="45.66936" lon="6.86003">
        <ele>2337</ele>
        <time>2019-10-06T13:04:11Z</time>
      </trkpt>
      <trkpt lat="45.66937" lon="6.86006">
        <ele>2337</ele>
        <time>2019-10-06T13:04:13Z</time>
      </trkpt>
      <trkpt lat="45.66938" lon="6.86009">
        <ele>2337</ele>
        <time>2019-10-06T13:04:14Z</time>
      </trkpt>
      <trkpt lat="45.66938" lon="6.86012">
        <ele>2337</ele>
        <time>2019-10-06T13:04:15Z</time>
      </trkpt>
      <trkpt lat="45.66938" lon="6.86016">
        <ele>2336</ele>
        <time>2019-10-06T13:04:16Z</time>
      </trkpt>
      <trkpt lat="45.66939" lon="6.86019">
        <ele>2336</ele>
        <time>2019-10-06T13:04:17Z</time>
      </trkpt>
      <trkpt lat="45.66939" lon="6.86023">
        <ele>2336</ele>
        <time>2019-10-06T13:04:18Z</time>
      </trkpt>
      <trkpt lat="45.6694" lon="6.86026">
        <ele>2336</ele>
        <time>2019-10-06T13:04:19Z</time>
      </trkpt>
      <trkpt lat="45.6694" lon="6.8603">
        <ele>2335</ele>
        <time>2019-10-06T13:04:20Z</time>
      </trkpt>
      <trkpt lat="45.66941" lon="6.86034">
        <ele>2335</ele>
        <time>2019-10-06T13:04:21Z</time>
      </trkpt>
      <trkpt lat="45.66941" lon="6.86038">
        <ele>2335</ele>
        <time>2019-10-06T13:04:22Z</time>
      </trkpt>
      <trkpt lat="45.66941" lon="6.86042">
        <ele>2335</ele>
        <time>2019-10-06T13:04:23Z</time>
      </trkpt>
      <trkpt lat="45.66942" lon="6.86045">
        <ele>2335</ele>
        <time>2019-10-06T13:04:24Z</time>
      </trkpt>
      <trkpt lat="45.66942" lon="6.86049">
        <ele>2335</ele>
        <time>2019-10-06T13:04:25Z</time>
      </trkpt>
      <trkpt lat="45.66942" lon="6.86053">
        <ele>2335</ele>
        <time>2019-10-06T13:04:26Z</time>
      </trkpt>
      <trkpt lat="45.66943" lon="6.86057">
        <ele>2334</ele>
        <time>2019-10-06T13:04:27Z</time>
      </trkpt>
      <trkpt lat="45.66943" lon="6.8606">
        <ele>2334</ele>
        <time>2019-10-06T13:04:28Z</time>
      </trkpt>
      <trkpt lat="45.66945" lon="6.86064">
        <ele>2333</ele>
        <time>2019-10-06T13:04:29Z</time>
      </trkpt>
      <trkpt lat="45.66946" lon="6.86067">
        <ele>2333</ele>
        <time>2019-10-06T13:04:30Z</time>
      </trkpt>
      <trkpt lat="45.66948" lon="6.86069">
        <ele>2333</ele>
        <time>2019-10-06T13:04:31Z</time>
      </trkpt>
      <trkpt lat="45.66949" lon="6.86072">
        <ele>2333</ele>
        <time>2019-10-06T13:04:32Z</time>
      </trkpt>
      <trkpt lat="45.66951" lon="6.86075">
        <ele>2333</ele>
        <time>2019-10-06T13:04:33Z</time>
      </trkpt>
      <trkpt lat="45.66953" lon="6.86078">
        <ele>2332</ele>
        <time>2019-10-06T13:04:34Z</time>
      </trkpt>
      <trkpt lat="45.66955" lon="6.86082">
        <ele>2332</ele>
        <time>2019-10-06T13:04:35Z</time>
      </trkpt>
      <trkpt lat="45.66957" lon="6.86084">
        <ele>2332</ele>
        <time>2019-10-06T13:04:36Z</time>
      </trkpt>
      <trkpt lat="45.66958" lon="6.86088">
        <ele>2332</ele>
        <time>2019-10-06T13:04:37Z</time>
      </trkpt>
      <trkpt lat="45.66959" lon="6.86091">
        <ele>2331</ele>
        <time>2019-10-06T13:04:38Z</time>
      </trkpt>
      <trkpt lat="45.66961" lon="6.86094">
        <ele>2330</ele>
        <time>2019-10-06T13:04:39Z</time>
      </trkpt>
      <trkpt lat="45.66962" lon="6.86097">
        <ele>2330</ele>
        <time>2019-10-06T13:04:40Z</time>
      </trkpt>
      <trkpt lat="45.66963" lon="6.86101">
        <ele>2330</ele>
        <time>2019-10-06T13:04:41Z</time>
      </trkpt>
      <trkpt lat="45.66965" lon="6.86104">
        <ele>2330</ele>
        <time>2019-10-06T13:04:42Z</time>
      </trkpt>
      <trkpt lat="45.66966" lon="6.86108">
        <ele>2329</ele>
        <time>2019-10-06T13:04:43Z</time>
      </trkpt>
      <trkpt lat="45.66967" lon="6.86111">
        <ele>2329</ele>
        <time>2019-10-06T13:04:44Z</time>
      </trkpt>
      <trkpt lat="45.66968" lon="6.86115">
        <ele>2329</ele>
        <time>2019-10-06T13:04:45Z</time>
      </trkpt>
      <trkpt lat="45.6697" lon="6.86118">
        <ele>2328</ele>
        <time>2019-10-06T13:04:46Z</time>
      </trkpt>
      <trkpt lat="45.66971" lon="6.86121">
        <ele>2327</ele>
        <time>2019-10-06T13:04:47Z</time>
      </trkpt>
      <trkpt lat="45.66972" lon="6.86125">
        <ele>2327</ele>
        <time>2019-10-06T13:04:48Z</time>
      </trkpt>
      <trkpt lat="45.66973" lon="6.86128">
        <ele>2327</ele>
        <time>2019-10-06T13:04:49Z</time>
      </trkpt>
      <trkpt lat="45.66974" lon="6.86132">
        <ele>2327</ele>
        <time>2019-10-06T13:04:50Z</time>
      </trkpt>
      <trkpt lat="45.66975" lon="6.86135">
        <ele>2327</ele>
        <time>2019-10-06T13:04:51Z</time>
      </trkpt>
      <trkpt lat="45.66975" lon="6.86139">
        <ele>2327</ele>
        <time>2019-10-06T13:04:52Z</time>
      </trkpt>
      <trkpt lat="45.66976" lon="6.86142">
        <ele>2326</ele>
        <time>2019-10-06T13:04:53Z</time>
      </trkpt>
      <trkpt lat="45.66976" lon="6.86146">
        <ele>2326</ele>
        <time>2019-10-06T13:04:54Z</time>
      </trkpt>
      <trkpt lat="45.66977" lon="6.86149">
        <ele>2326</ele>
        <time>2019-10-06T13:04:55Z</time>
      </trkpt>
      <trkpt lat="45.66978" lon="6.86153">
        <ele>2326</ele>
        <time>2019-10-06T13:04:56Z</time>
      </trkpt>
      <trkpt lat="45.66978" lon="6.86157">
        <ele>2324</ele>
        <time>2019-10-06T13:04:57Z</time>
      </trkpt>
      <trkpt lat="45.66979" lon="6.8616">
        <ele>2324</ele>
        <time>2019-10-06T13:04:58Z</time>
      </trkpt>
      <trkpt lat="45.66979" lon="6.86163">
        <ele>2324</ele>
        <time>2019-10-06T13:04:59Z</time>
      </trkpt>
      <trkpt lat="45.66979" lon="6.86167">
        <ele>2324</ele>
        <time>2019-10-06T13:05:00Z</time>
      </trkpt>
      <trkpt lat="45.6698" lon="6.86171">
        <ele>2324</ele>
        <time>2019-10-06T13:05:01Z</time>
      </trkpt>
      <trkpt lat="45.6698" lon="6.86174">
        <ele>2324</ele>
        <time>2019-10-06T13:05:02Z</time>
      </trkpt>
      <trkpt lat="45.6698" lon="6.86178">
        <ele>2323</ele>
        <time>2019-10-06T13:05:03Z</time>
      </trkpt>
      <trkpt lat="45.66981" lon="6.86181">
        <ele>2323</ele>
        <time>2019-10-06T13:05:04Z</time>
      </trkpt>
      <trkpt lat="45.66981" lon="6.86184">
        <ele>2323</ele>
        <time>2019-10-06T13:05:05Z</time>
      </trkpt>
      <trkpt lat="45.66982" lon="6.86188">
        <ele>2322</ele>
        <time>2019-10-06T13:05:06Z</time>
      </trkpt>
      <trkpt lat="45.66982" lon="6.86191">
        <ele>2322</ele>
        <time>2019-10-06T13:05:07Z</time>
      </trkpt>
      <trkpt lat="45.66983" lon="6.86195">
        <ele>2322</ele>
        <time>2019-10-06T13:05:08Z</time>
      </trkpt>
      <trkpt lat="45.66984" lon="6.86198">
        <ele>2322</ele>
        <time>2019-10-06T13:05:09Z</time>
      </trkpt>
      <trkpt lat="45.66985" lon="6.86201">
        <ele>2322</ele>
        <time>2019-10-06T13:05:10Z</time>
      </trkpt>
      <trkpt lat="45.66987" lon="6.86203">
        <ele>2321</ele>
        <time>2019-10-06T13:05:11Z</time>
      </trkpt>
      <trkpt lat="45.66988" lon="6.86206">
        <ele>2321</ele>
        <time>2019-10-06T13:05:12Z</time>
      </trkpt>
      <trkpt lat="45.6699" lon="6.86209">
        <ele>2321</ele>
        <time>2019-10-06T13:05:13Z</time>
      </trkpt>
      <trkpt lat="45.66992" lon="6.86213">
        <ele>2321</ele>
        <time>2019-10-06T13:05:14Z</time>
      </trkpt>
      <trkpt lat="45.66993" lon="6.86216">
        <ele>2321</ele>
        <time>2019-10-06T13:05:15Z</time>
      </trkpt>
      <trkpt lat="45.66994" lon="6.86219">
        <ele>2321</ele>
        <time>2019-10-06T13:05:16Z</time>
      </trkpt>
      <trkpt lat="45.66996" lon="6.86222">
        <ele>2319</ele>
        <time>2019-10-06T13:05:17Z</time>
      </trkpt>
      <trkpt lat="45.66997" lon="6.86224">
        <ele>2318</ele>
        <time>2019-10-06T13:05:18Z</time>
      </trkpt>
      <trkpt lat="45.66998" lon="6.86228">
        <ele>2318</ele>
        <time>2019-10-06T13:05:19Z</time>
      </trkpt>
      <trkpt lat="45.66999" lon="6.86231">
        <ele>2318</ele>
        <time>2019-10-06T13:05:20Z</time>
      </trkpt>
      <trkpt lat="45.66999" lon="6.86234">
        <ele>2318</ele>
        <time>2019-10-06T13:05:21Z</time>
      </trkpt>
      <trkpt lat="45.67" lon="6.86237">
        <ele>2318</ele>
        <time>2019-10-06T13:05:22Z</time>
      </trkpt>
      <trkpt lat="45.67001" lon="6.8624">
        <ele>2318</ele>
        <time>2019-10-06T13:05:23Z</time>
      </trkpt>
      <trkpt lat="45.67002" lon="6.86244">
        <ele>2318</ele>
        <time>2019-10-06T13:05:24Z</time>
      </trkpt>
      <trkpt lat="45.67003" lon="6.86247">
        <ele>2318</ele>
        <time>2019-10-06T13:05:25Z</time>
      </trkpt>
      <trkpt lat="45.67005" lon="6.8625">
        <ele>2318</ele>
        <time>2019-10-06T13:05:26Z</time>
      </trkpt>
      <trkpt lat="45.67006" lon="6.86253">
        <ele>2318</ele>
        <time>2019-10-06T13:05:27Z</time>
      </trkpt>
      <trkpt lat="45.67008" lon="6.86256">
        <ele>2317</ele>
        <time>2019-10-06T13:05:28Z</time>
      </trkpt>
      <trkpt lat="45.6701" lon="6.86259">
        <ele>2317</ele>
        <time>2019-10-06T13:05:29Z</time>
      </trkpt>
      <trkpt lat="45.67012" lon="6.86261">
        <ele>2317</ele>
        <time>2019-10-06T13:05:30Z</time>
      </trkpt>
      <trkpt lat="45.67014" lon="6.86263">
        <ele>2316</ele>
        <time>2019-10-06T13:05:31Z</time>
      </trkpt>
      <trkpt lat="45.67016" lon="6.86265">
        <ele>2316</ele>
        <time>2019-10-06T13:05:32Z</time>
      </trkpt>
      <trkpt lat="45.67018" lon="6.86267">
        <ele>2315</ele>
        <time>2019-10-06T13:05:33Z</time>
      </trkpt>
      <trkpt lat="45.6702" lon="6.8627">
        <ele>2315</ele>
        <time>2019-10-06T13:05:34Z</time>
      </trkpt>
      <trkpt lat="45.67022" lon="6.86272">
        <ele>2314</ele>
        <time>2019-10-06T13:05:35Z</time>
      </trkpt>
      <trkpt lat="45.67024" lon="6.86275">
        <ele>2313</ele>
        <time>2019-10-06T13:05:36Z</time>
      </trkpt>
      <trkpt lat="45.67025" lon="6.86277">
        <ele>2313</ele>
        <time>2019-10-06T13:05:37Z</time>
      </trkpt>
      <trkpt lat="45.67027" lon="6.8628">
        <ele>2313</ele>
        <time>2019-10-06T13:05:38Z</time>
      </trkpt>
      <trkpt lat="45.6703" lon="6.86282">
        <ele>2313</ele>
        <time>2019-10-06T13:05:39Z</time>
      </trkpt>
      <trkpt lat="45.67032" lon="6.86285">
        <ele>2312</ele>
        <time>2019-10-06T13:05:40Z</time>
      </trkpt>
      <trkpt lat="45.67034" lon="6.86288">
        <ele>2312</ele>
        <time>2019-10-06T13:05:41Z</time>
      </trkpt>
      <trkpt lat="45.67036" lon="6.8629">
        <ele>2312</ele>
        <time>2019-10-06T13:05:42Z</time>
      </trkpt>
      <trkpt lat="45.67038" lon="6.86293">
        <ele>2311</ele>
        <time>2019-10-06T13:05:43Z</time>
      </trkpt>
      <trkpt lat="45.6704" lon="6.86296">
        <ele>2311</ele>
        <time>2019-10-06T13:05:44Z</time>
      </trkpt>
      <trkpt lat="45.67042" lon="6.86299">
        <ele>2311</ele>
        <time>2019-10-06T13:05:45Z</time>
      </trkpt>
      <trkpt lat="45.67044" lon="6.86301">
        <ele>2311</ele>
        <time>2019-10-06T13:05:46Z</time>
      </trkpt>
      <trkpt lat="45.67046" lon="6.86304">
        <ele>2311</ele>
        <time>2019-10-06T13:05:47Z</time>
      </trkpt>
      <trkpt lat="45.67048" lon="6.86306">
        <ele>2311</ele>
        <time>2019-10-06T13:05:48Z</time>
      </trkpt>
      <trkpt lat="45.6705" lon="6.86308">
        <ele>2311</ele>
        <time>2019-10-06T13:05:49Z</time>
      </trkpt>
      <trkpt lat="45.67052" lon="6.8631">
        <ele>2311</ele>
        <time>2019-10-06T13:05:50Z</time>
      </trkpt>
      <trkpt lat="45.67055" lon="6.86311">
        <ele>2310</ele>
        <time>2019-10-06T13:05:51Z</time>
      </trkpt>
      <trkpt lat="45.67057" lon="6.86311">
        <ele>2310</ele>
        <time>2019-10-06T13:05:52Z</time>
      </trkpt>
      <trkpt lat="45.6706" lon="6.86312">
        <ele>2310</ele>
        <time>2019-10-06T13:05:53Z</time>
      </trkpt>
      <trkpt lat="45.67063" lon="6.86313">
        <ele>2309</ele>
        <time>2019-10-06T13:05:54Z</time>
      </trkpt>
      <trkpt lat="45.67065" lon="6.86314">
        <ele>2309</ele>
        <time>2019-10-06T13:05:55Z</time>
      </trkpt>
      <trkpt lat="45.67068" lon="6.86316">
        <ele>2309</ele>
        <time>2019-10-06T13:05:56Z</time>
      </trkpt>
      <trkpt lat="45.6707" lon="6.86317">
        <ele>2309</ele>
        <time>2019-10-06T13:05:57Z</time>
      </trkpt>
      <trkpt lat="45.67073" lon="6.8632">
        <ele>2308</ele>
        <time>2019-10-06T13:05:58Z</time>
      </trkpt>
      <trkpt lat="45.67075" lon="6.86322">
        <ele>2308</ele>
        <time>2019-10-06T13:05:59Z</time>
      </trkpt>
      <trkpt lat="45.67077" lon="6.86325">
        <ele>2308</ele>
        <time>2019-10-06T13:06:00Z</time>
      </trkpt>
      <trkpt lat="45.67079" lon="6.86327">
        <ele>2308</ele>
        <time>2019-10-06T13:06:01Z</time>
      </trkpt>
      <trkpt lat="45.67081" lon="6.86329">
        <ele>2307</ele>
        <time>2019-10-06T13:06:02Z</time>
      </trkpt>
      <trkpt lat="45.67084" lon="6.86331">
        <ele>2307</ele>
        <time>2019-10-06T13:06:03Z</time>
      </trkpt>
      <trkpt lat="45.67086" lon="6.86333">
        <ele>2307</ele>
        <time>2019-10-06T13:06:04Z</time>
      </trkpt>
      <trkpt lat="45.67088" lon="6.86335">
        <ele>2307</ele>
        <time>2019-10-06T13:06:05Z</time>
      </trkpt>
      <trkpt lat="45.67091" lon="6.86337">
        <ele>2307</ele>
        <time>2019-10-06T13:06:06Z</time>
      </trkpt>
      <trkpt lat="45.67093" lon="6.86338">
        <ele>2307</ele>
        <time>2019-10-06T13:06:07Z</time>
      </trkpt>
      <trkpt lat="45.67095" lon="6.86339">
        <ele>2306</ele>
        <time>2019-10-06T13:06:08Z</time>
      </trkpt>
      <trkpt lat="45.67098" lon="6.8634">
        <ele>2306</ele>
        <time>2019-10-06T13:06:09Z</time>
      </trkpt>
      <trkpt lat="45.671" lon="6.8634">
        <ele>2305</ele>
        <time>2019-10-06T13:06:10Z</time>
      </trkpt>
      <trkpt lat="45.67103" lon="6.86341">
        <ele>2305</ele>
        <time>2019-10-06T13:06:11Z</time>
      </trkpt>
      <trkpt lat="45.67105" lon="6.86342">
        <ele>2305</ele>
        <time>2019-10-06T13:06:12Z</time>
      </trkpt>
      <trkpt lat="45.67108" lon="6.86342">
        <ele>2305</ele>
        <time>2019-10-06T13:06:13Z</time>
      </trkpt>
      <trkpt lat="45.6711" lon="6.86343">
        <ele>2305</ele>
        <time>2019-10-06T13:06:14Z</time>
      </trkpt>
      <trkpt lat="45.67112" lon="6.86343">
        <ele>2305</ele>
        <time>2019-10-06T13:06:15Z</time>
      </trkpt>
      <trkpt lat="45.67115" lon="6.86343">
        <ele>2304</ele>
        <time>2019-10-06T13:06:16Z</time>
      </trkpt>
      <trkpt lat="45.67117" lon="6.86344">
        <ele>2304</ele>
        <time>2019-10-06T13:06:17Z</time>
      </trkpt>
      <trkpt lat="45.67119" lon="6.86344">
        <ele>2304</ele>
        <time>2019-10-06T13:06:18Z</time>
      </trkpt>
      <trkpt lat="45.67122" lon="6.86344">
        <ele>2304</ele>
        <time>2019-10-06T13:06:19Z</time>
      </trkpt>
      <trkpt lat="45.67124" lon="6.86345">
        <ele>2304</ele>
        <time>2019-10-06T13:06:20Z</time>
      </trkpt>
      <trkpt lat="45.67126" lon="6.86345">
        <ele>2303</ele>
        <time>2019-10-06T13:06:21Z</time>
      </trkpt>
      <trkpt lat="45.67128" lon="6.86344">
        <ele>2303</ele>
        <time>2019-10-06T13:06:22Z</time>
      </trkpt>
      <trkpt lat="45.67131" lon="6.86344">
        <ele>2303</ele>
        <time>2019-10-06T13:06:24Z</time>
      </trkpt>
      <trkpt lat="45.67133" lon="6.86344">
        <ele>2302</ele>
        <time>2019-10-06T13:06:25Z</time>
      </trkpt>
      <trkpt lat="45.67136" lon="6.86347">
        <ele>2302</ele>
        <time>2019-10-06T13:06:27Z</time>
      </trkpt>
      <trkpt lat="45.67137" lon="6.8635">
        <ele>2302</ele>
        <time>2019-10-06T13:06:28Z</time>
      </trkpt>
      <trkpt lat="45.67136" lon="6.86355">
        <ele>2302</ele>
        <time>2019-10-06T13:06:30Z</time>
      </trkpt>
      <trkpt lat="45.67135" lon="6.86359">
        <ele>2302</ele>
        <time>2019-10-06T13:06:32Z</time>
      </trkpt>
      <trkpt lat="45.67135" lon="6.86359">
        <ele>2302</ele>
        <time>2019-10-06T13:06:34Z</time>
      </trkpt>
      <trkpt lat="45.67133" lon="6.86362">
        <ele>2302</ele>
        <time>2019-10-06T13:06:35Z</time>
      </trkpt>
      <trkpt lat="45.67131" lon="6.86364">
        <ele>2303</ele>
        <time>2019-10-06T13:06:37Z</time>
      </trkpt>
      <trkpt lat="45.67129" lon="6.86367">
        <ele>2303</ele>
        <time>2019-10-06T13:06:39Z</time>
      </trkpt>
      <trkpt lat="45.67127" lon="6.86369">
        <ele>2303</ele>
        <time>2019-10-06T13:06:41Z</time>
      </trkpt>
      <trkpt lat="45.67125" lon="6.86372">
        <ele>2303</ele>
        <time>2019-10-06T13:06:43Z</time>
      </trkpt>
      <trkpt lat="45.67123" lon="6.86375">
        <ele>2303</ele>
        <time>2019-10-06T13:06:45Z</time>
      </trkpt>
      <trkpt lat="45.67122" lon="6.86378">
        <ele>2303</ele>
        <time>2019-10-06T13:06:47Z</time>
      </trkpt>
      <trkpt lat="45.6712" lon="6.86381">
        <ele>2304</ele>
        <time>2019-10-06T13:06:49Z</time>
      </trkpt>
      <trkpt lat="45.67117" lon="6.86383">
        <ele>2305</ele>
        <time>2019-10-06T13:06:51Z</time>
      </trkpt>
      <trkpt lat="45.67115" lon="6.86386">
        <ele>2305</ele>
        <time>2019-10-06T13:06:53Z</time>
      </trkpt>
      <trkpt lat="45.67114" lon="6.8639">
        <ele>2305</ele>
        <time>2019-10-06T13:06:55Z</time>
      </trkpt>
      <trkpt lat="45.67113" lon="6.86392">
        <ele>2305</ele>
        <time>2019-10-06T13:06:56Z</time>
      </trkpt>
      <trkpt lat="45.67111" lon="6.86395">
        <ele>2304</ele>
        <time>2019-10-06T13:06:57Z</time>
      </trkpt>
      <trkpt lat="45.6711" lon="6.86398">
        <ele>2304</ele>
        <time>2019-10-06T13:06:58Z</time>
      </trkpt>
      <trkpt lat="45.67109" lon="6.86401">
        <ele>2304</ele>
        <time>2019-10-06T13:06:59Z</time>
      </trkpt>
      <trkpt lat="45.67108" lon="6.86403">
        <ele>2304</ele>
        <time>2019-10-06T13:07:00Z</time>
      </trkpt>
      <trkpt lat="45.67107" lon="6.86406">
        <ele>2304</ele>
        <time>2019-10-06T13:07:01Z</time>
      </trkpt>
      <trkpt lat="45.67106" lon="6.86409">
        <ele>2304</ele>
        <time>2019-10-06T13:07:02Z</time>
      </trkpt>
      <trkpt lat="45.67104" lon="6.86411">
        <ele>2304</ele>
        <time>2019-10-06T13:07:03Z</time>
      </trkpt>
      <trkpt lat="45.67103" lon="6.86414">
        <ele>2303</ele>
        <time>2019-10-06T13:07:04Z</time>
      </trkpt>
      <trkpt lat="45.67102" lon="6.86417">
        <ele>2303</ele>
        <time>2019-10-06T13:07:05Z</time>
      </trkpt>
      <trkpt lat="45.671" lon="6.86419">
        <ele>2302</ele>
        <time>2019-10-06T13:07:06Z</time>
      </trkpt>
      <trkpt lat="45.67099" lon="6.86422">
        <ele>2302</ele>
        <time>2019-10-06T13:07:07Z</time>
      </trkpt>
      <trkpt lat="45.67097" lon="6.86424">
        <ele>2302</ele>
        <time>2019-10-06T13:07:08Z</time>
      </trkpt>
      <trkpt lat="45.67095" lon="6.86426">
        <ele>2302</ele>
        <time>2019-10-06T13:07:09Z</time>
      </trkpt>
      <trkpt lat="45.67093" lon="6.86429">
        <ele>2300</ele>
        <time>2019-10-06T13:07:10Z</time>
      </trkpt>
      <trkpt lat="45.67091" lon="6.86431">
        <ele>2300</ele>
        <time>2019-10-06T13:07:11Z</time>
      </trkpt>
      <trkpt lat="45.6709" lon="6.86434">
        <ele>2300</ele>
        <time>2019-10-06T13:07:12Z</time>
      </trkpt>
      <trkpt lat="45.67088" lon="6.86436">
        <ele>2300</ele>
        <time>2019-10-06T13:07:13Z</time>
      </trkpt>
      <trkpt lat="45.67086" lon="6.86439">
        <ele>2300</ele>
        <time>2019-10-06T13:07:14Z</time>
      </trkpt>
      <trkpt lat="45.67084" lon="6.86441">
        <ele>2300</ele>
        <time>2019-10-06T13:07:15Z</time>
      </trkpt>
      <trkpt lat="45.67082" lon="6.86444">
        <ele>2300</ele>
        <time>2019-10-06T13:07:16Z</time>
      </trkpt>
      <trkpt lat="45.6708" lon="6.86446">
        <ele>2300</ele>
        <time>2019-10-06T13:07:17Z</time>
      </trkpt>
      <trkpt lat="45.67078" lon="6.86448">
        <ele>2300</ele>
        <time>2019-10-06T13:07:18Z</time>
      </trkpt>
      <trkpt lat="45.67076" lon="6.8645">
        <ele>2300</ele>
        <time>2019-10-06T13:07:19Z</time>
      </trkpt>
      <trkpt lat="45.67074" lon="6.86452">
        <ele>2300</ele>
        <time>2019-10-06T13:07:20Z</time>
      </trkpt>
      <trkpt lat="45.67072" lon="6.86454">
        <ele>2300</ele>
        <time>2019-10-06T13:07:21Z</time>
      </trkpt>
      <trkpt lat="45.6707" lon="6.86456">
        <ele>2300</ele>
        <time>2019-10-06T13:07:22Z</time>
      </trkpt>
      <trkpt lat="45.67067" lon="6.86457">
        <ele>2298</ele>
        <time>2019-10-06T13:07:23Z</time>
      </trkpt>
      <trkpt lat="45.67065" lon="6.86458">
        <ele>2298</ele>
        <time>2019-10-06T13:07:24Z</time>
      </trkpt>
      <trkpt lat="45.67062" lon="6.86459">
        <ele>2297</ele>
        <time>2019-10-06T13:07:25Z</time>
      </trkpt>
      <trkpt lat="45.6706" lon="6.8646">
        <ele>2297</ele>
        <time>2019-10-06T13:07:26Z</time>
      </trkpt>
      <trkpt lat="45.67057" lon="6.86461">
        <ele>2297</ele>
        <time>2019-10-06T13:07:27Z</time>
      </trkpt>
      <trkpt lat="45.67054" lon="6.86461">
        <ele>2297</ele>
        <time>2019-10-06T13:07:28Z</time>
      </trkpt>
      <trkpt lat="45.67052" lon="6.86461">
        <ele>2297</ele>
        <time>2019-10-06T13:07:29Z</time>
      </trkpt>
      <trkpt lat="45.67049" lon="6.8646">
        <ele>2297</ele>
        <time>2019-10-06T13:07:30Z</time>
      </trkpt>
      <trkpt lat="45.67046" lon="6.8646">
        <ele>2296</ele>
        <time>2019-10-06T13:07:31Z</time>
      </trkpt>
      <trkpt lat="45.67044" lon="6.86461">
        <ele>2296</ele>
        <time>2019-10-06T13:07:32Z</time>
      </trkpt>
      <trkpt lat="45.67041" lon="6.86461">
        <ele>2295</ele>
        <time>2019-10-06T13:07:33Z</time>
      </trkpt>
      <trkpt lat="45.67038" lon="6.86462">
        <ele>2295</ele>
        <time>2019-10-06T13:07:34Z</time>
      </trkpt>
      <trkpt lat="45.67036" lon="6.86463">
        <ele>2295</ele>
        <time>2019-10-06T13:07:35Z</time>
      </trkpt>
      <trkpt lat="45.67033" lon="6.86464">
        <ele>2294</ele>
        <time>2019-10-06T13:07:36Z</time>
      </trkpt>
      <trkpt lat="45.6703" lon="6.86465">
        <ele>2294</ele>
        <time>2019-10-06T13:07:37Z</time>
      </trkpt>
      <trkpt lat="45.67028" lon="6.86466">
        <ele>2294</ele>
        <time>2019-10-06T13:07:38Z</time>
      </trkpt>
      <trkpt lat="45.67025" lon="6.86467">
        <ele>2294</ele>
        <time>2019-10-06T13:07:39Z</time>
      </trkpt>
      <trkpt lat="45.67022" lon="6.86467">
        <ele>2293</ele>
        <time>2019-10-06T13:07:40Z</time>
      </trkpt>
      <trkpt lat="45.6702" lon="6.86468">
        <ele>2293</ele>
        <time>2019-10-06T13:07:41Z</time>
      </trkpt>
      <trkpt lat="45.67017" lon="6.86468">
        <ele>2293</ele>
        <time>2019-10-06T13:07:42Z</time>
      </trkpt>
      <trkpt lat="45.67014" lon="6.86469">
        <ele>2293</ele>
        <time>2019-10-06T13:07:43Z</time>
      </trkpt>
      <trkpt lat="45.67012" lon="6.8647">
        <ele>2293</ele>
        <time>2019-10-06T13:07:44Z</time>
      </trkpt>
      <trkpt lat="45.67009" lon="6.86471">
        <ele>2293</ele>
        <time>2019-10-06T13:07:45Z</time>
      </trkpt>
      <trkpt lat="45.67007" lon="6.86473">
        <ele>2292</ele>
        <time>2019-10-06T13:07:46Z</time>
      </trkpt>
      <trkpt lat="45.67005" lon="6.86474">
        <ele>2292</ele>
        <time>2019-10-06T13:07:47Z</time>
      </trkpt>
      <trkpt lat="45.67003" lon="6.86477">
        <ele>2291</ele>
        <time>2019-10-06T13:07:48Z</time>
      </trkpt>
      <trkpt lat="45.67" lon="6.86478">
        <ele>2290</ele>
        <time>2019-10-06T13:07:49Z</time>
      </trkpt>
      <trkpt lat="45.66998" lon="6.8648">
        <ele>2290</ele>
        <time>2019-10-06T13:07:50Z</time>
      </trkpt>
      <trkpt lat="45.66996" lon="6.86482">
        <ele>2290</ele>
        <time>2019-10-06T13:07:51Z</time>
      </trkpt>
      <trkpt lat="45.66993" lon="6.86484">
        <ele>2289</ele>
        <time>2019-10-06T13:07:52Z</time>
      </trkpt>
      <trkpt lat="45.66991" lon="6.86486">
        <ele>2289</ele>
        <time>2019-10-06T13:07:53Z</time>
      </trkpt>
      <trkpt lat="45.66989" lon="6.86488">
        <ele>2289</ele>
        <time>2019-10-06T13:07:54Z</time>
      </trkpt>
      <trkpt lat="45.66986" lon="6.8649">
        <ele>2289</ele>
        <time>2019-10-06T13:07:55Z</time>
      </trkpt>
      <trkpt lat="45.66984" lon="6.86492">
        <ele>2288</ele>
        <time>2019-10-06T13:07:56Z</time>
      </trkpt>
      <trkpt lat="45.66982" lon="6.86493">
        <ele>2288</ele>
        <time>2019-10-06T13:07:57Z</time>
      </trkpt>
      <trkpt lat="45.6698" lon="6.86495">
        <ele>2287</ele>
        <time>2019-10-06T13:07:58Z</time>
      </trkpt>
      <trkpt lat="45.66977" lon="6.86497">
        <ele>2287</ele>
        <time>2019-10-06T13:07:59Z</time>
      </trkpt>
      <trkpt lat="45.66974" lon="6.865">
        <ele>2286</ele>
        <time>2019-10-06T13:08:00Z</time>
      </trkpt>
      <trkpt lat="45.66972" lon="6.86501">
        <ele>2286</ele>
        <time>2019-10-06T13:08:01Z</time>
      </trkpt>
      <trkpt lat="45.66969" lon="6.86503">
        <ele>2286</ele>
        <time>2019-10-06T13:08:02Z</time>
      </trkpt>
      <trkpt lat="45.66967" lon="6.86504">
        <ele>2286</ele>
        <time>2019-10-06T13:08:03Z</time>
      </trkpt>
      <trkpt lat="45.66964" lon="6.86506">
        <ele>2286</ele>
        <time>2019-10-06T13:08:04Z</time>
      </trkpt>
      <trkpt lat="45.66962" lon="6.86506">
        <ele>2285</ele>
        <time>2019-10-06T13:08:05Z</time>
      </trkpt>
      <trkpt lat="45.66959" lon="6.86507">
        <ele>2285</ele>
        <time>2019-10-06T13:08:06Z</time>
      </trkpt>
      <trkpt lat="45.66957" lon="6.86508">
        <ele>2285</ele>
        <time>2019-10-06T13:08:07Z</time>
      </trkpt>
      <trkpt lat="45.66955" lon="6.86509">
        <ele>2285</ele>
        <time>2019-10-06T13:08:08Z</time>
      </trkpt>
      <trkpt lat="45.66953" lon="6.8651">
        <ele>2285</ele>
        <time>2019-10-06T13:08:09Z</time>
      </trkpt>
      <trkpt lat="45.6695" lon="6.86512">
        <ele>2285</ele>
        <time>2019-10-06T13:08:10Z</time>
      </trkpt>
      <trkpt lat="45.66948" lon="6.86513">
        <ele>2284</ele>
        <time>2019-10-06T13:08:11Z</time>
      </trkpt>
      <trkpt lat="45.66945" lon="6.86514">
        <ele>2284</ele>
        <time>2019-10-06T13:08:12Z</time>
      </trkpt>
      <trkpt lat="45.66943" lon="6.86514">
        <ele>2284</ele>
        <time>2019-10-06T13:08:13Z</time>
      </trkpt>
      <trkpt lat="45.66941" lon="6.86515">
        <ele>2283</ele>
        <time>2019-10-06T13:08:14Z</time>
      </trkpt>
      <trkpt lat="45.66938" lon="6.86516">
        <ele>2283</ele>
        <time>2019-10-06T13:08:15Z</time>
      </trkpt>
      <trkpt lat="45.66936" lon="6.86517">
        <ele>2283</ele>
        <time>2019-10-06T13:08:16Z</time>
      </trkpt>
      <trkpt lat="45.66934" lon="6.86517">
        <ele>2282</ele>
        <time>2019-10-06T13:08:17Z</time>
      </trkpt>
      <trkpt lat="45.66931" lon="6.86518">
        <ele>2282</ele>
        <time>2019-10-06T13:08:18Z</time>
      </trkpt>
      <trkpt lat="45.66929" lon="6.86518">
        <ele>2282</ele>
        <time>2019-10-06T13:08:19Z</time>
      </trkpt>
      <trkpt lat="45.66926" lon="6.86519">
        <ele>2281</ele>
        <time>2019-10-06T13:08:20Z</time>
      </trkpt>
      <trkpt lat="45.66924" lon="6.86519">
        <ele>2281</ele>
        <time>2019-10-06T13:08:21Z</time>
      </trkpt>
      <trkpt lat="45.66921" lon="6.8652">
        <ele>2281</ele>
        <time>2019-10-06T13:08:22Z</time>
      </trkpt>
      <trkpt lat="45.66918" lon="6.86521">
        <ele>2281</ele>
        <time>2019-10-06T13:08:23Z</time>
      </trkpt>
      <trkpt lat="45.66916" lon="6.86521">
        <ele>2281</ele>
        <time>2019-10-06T13:08:24Z</time>
      </trkpt>
      <trkpt lat="45.66913" lon="6.86522">
        <ele>2281</ele>
        <time>2019-10-06T13:08:25Z</time>
      </trkpt>
      <trkpt lat="45.66911" lon="6.86523">
        <ele>2281</ele>
        <time>2019-10-06T13:08:26Z</time>
      </trkpt>
      <trkpt lat="45.66908" lon="6.86524">
        <ele>2280</ele>
        <time>2019-10-06T13:08:27Z</time>
      </trkpt>
      <trkpt lat="45.66906" lon="6.86525">
        <ele>2280</ele>
        <time>2019-10-06T13:08:28Z</time>
      </trkpt>
      <trkpt lat="45.66904" lon="6.86525">
        <ele>2279</ele>
        <time>2019-10-06T13:08:29Z</time>
      </trkpt>
      <trkpt lat="45.66901" lon="6.86526">
        <ele>2279</ele>
        <time>2019-10-06T13:08:30Z</time>
      </trkpt>
      <trkpt lat="45.66899" lon="6.86527">
        <ele>2279</ele>
        <time>2019-10-06T13:08:31Z</time>
      </trkpt>
      <trkpt lat="45.66896" lon="6.86527">
        <ele>2278</ele>
        <time>2019-10-06T13:08:32Z</time>
      </trkpt>
      <trkpt lat="45.66894" lon="6.86528">
        <ele>2278</ele>
        <time>2019-10-06T13:08:33Z</time>
      </trkpt>
      <trkpt lat="45.66891" lon="6.86529">
        <ele>2278</ele>
        <time>2019-10-06T13:08:34Z</time>
      </trkpt>
      <trkpt lat="45.66889" lon="6.86531">
        <ele>2278</ele>
        <time>2019-10-06T13:08:35Z</time>
      </trkpt>
      <trkpt lat="45.66887" lon="6.86532">
        <ele>2278</ele>
        <time>2019-10-06T13:08:36Z</time>
      </trkpt>
      <trkpt lat="45.66885" lon="6.86534">
        <ele>2278</ele>
        <time>2019-10-06T13:08:37Z</time>
      </trkpt>
      <trkpt lat="45.66883" lon="6.86536">
        <ele>2278</ele>
        <time>2019-10-06T13:08:38Z</time>
      </trkpt>
      <trkpt lat="45.66881" lon="6.86538">
        <ele>2277</ele>
        <time>2019-10-06T13:08:39Z</time>
      </trkpt>
      <trkpt lat="45.66879" lon="6.8654">
        <ele>2277</ele>
        <time>2019-10-06T13:08:40Z</time>
      </trkpt>
      <trkpt lat="45.66877" lon="6.86543">
        <ele>2277</ele>
        <time>2019-10-06T13:08:41Z</time>
      </trkpt>
      <trkpt lat="45.66876" lon="6.86545">
        <ele>2276</ele>
        <time>2019-10-06T13:08:42Z</time>
      </trkpt>
      <trkpt lat="45.66874" lon="6.86548">
        <ele>2276</ele>
        <time>2019-10-06T13:08:43Z</time>
      </trkpt>
      <trkpt lat="45.66873" lon="6.86551">
        <ele>2276</ele>
        <time>2019-10-06T13:08:44Z</time>
      </trkpt>
      <trkpt lat="45.66872" lon="6.86555">
        <ele>2276</ele>
        <time>2019-10-06T13:08:45Z</time>
      </trkpt>
      <trkpt lat="45.66871" lon="6.86558">
        <ele>2276</ele>
        <time>2019-10-06T13:08:46Z</time>
      </trkpt>
      <trkpt lat="45.66871" lon="6.86562">
        <ele>2275</ele>
        <time>2019-10-06T13:08:47Z</time>
      </trkpt>
      <trkpt lat="45.6687" lon="6.86565">
        <ele>2274</ele>
        <time>2019-10-06T13:08:48Z</time>
      </trkpt>
      <trkpt lat="45.66871" lon="6.86568">
        <ele>2274</ele>
        <time>2019-10-06T13:08:49Z</time>
      </trkpt>
      <trkpt lat="45.66871" lon="6.86571">
        <ele>2274</ele>
        <time>2019-10-06T13:08:50Z</time>
      </trkpt>
      <trkpt lat="45.66871" lon="6.86575">
        <ele>2274</ele>
        <time>2019-10-06T13:08:51Z</time>
      </trkpt>
      <trkpt lat="45.66872" lon="6.86578">
        <ele>2274</ele>
        <time>2019-10-06T13:08:52Z</time>
      </trkpt>
      <trkpt lat="45.66872" lon="6.86582">
        <ele>2272</ele>
        <time>2019-10-06T13:08:53Z</time>
      </trkpt>
      <trkpt lat="45.66872" lon="6.86585">
        <ele>2272</ele>
        <time>2019-10-06T13:08:54Z</time>
      </trkpt>
      <trkpt lat="45.66873" lon="6.86588">
        <ele>2272</ele>
        <time>2019-10-06T13:08:55Z</time>
      </trkpt>
      <trkpt lat="45.66873" lon="6.86592">
        <ele>2272</ele>
        <time>2019-10-06T13:08:56Z</time>
      </trkpt>
      <trkpt lat="45.66874" lon="6.86595">
        <ele>2272</ele>
        <time>2019-10-06T13:08:57Z</time>
      </trkpt>
      <trkpt lat="45.66875" lon="6.86598">
        <ele>2272</ele>
        <time>2019-10-06T13:08:58Z</time>
      </trkpt>
      <trkpt lat="45.66876" lon="6.86601">
        <ele>2271</ele>
        <time>2019-10-06T13:08:59Z</time>
      </trkpt>
      <trkpt lat="45.66878" lon="6.86604">
        <ele>2271</ele>
        <time>2019-10-06T13:09:00Z</time>
      </trkpt>
      <trkpt lat="45.66879" lon="6.86608">
        <ele>2271</ele>
        <time>2019-10-06T13:09:01Z</time>
      </trkpt>
      <trkpt lat="45.6688" lon="6.8661">
        <ele>2271</ele>
        <time>2019-10-06T13:09:02Z</time>
      </trkpt>
      <trkpt lat="45.66882" lon="6.86613">
        <ele>2270</ele>
        <time>2019-10-06T13:09:03Z</time>
      </trkpt>
      <trkpt lat="45.66883" lon="6.86616">
        <ele>2269</ele>
        <time>2019-10-06T13:09:04Z</time>
      </trkpt>
      <trkpt lat="45.66884" lon="6.86619">
        <ele>2269</ele>
        <time>2019-10-06T13:09:05Z</time>
      </trkpt>
      <trkpt lat="45.66885" lon="6.86621">
        <ele>2269</ele>
        <time>2019-10-06T13:09:06Z</time>
      </trkpt>
      <trkpt lat="45.66886" lon="6.86624">
        <ele>2269</ele>
        <time>2019-10-06T13:09:07Z</time>
      </trkpt>
      <trkpt lat="45.66887" lon="6.86626">
        <ele>2269</ele>
        <time>2019-10-06T13:09:08Z</time>
      </trkpt>
      <trkpt lat="45.66889" lon="6.86628">
        <ele>2268</ele>
        <time>2019-10-06T13:09:10Z</time>
      </trkpt>
      <trkpt lat="45.66891" lon="6.8663">
        <ele>2267</ele>
        <time>2019-10-06T13:09:12Z</time>
      </trkpt>
      <trkpt lat="45.66891" lon="6.8663">
        <ele>2267</ele>
        <time>2019-10-06T13:09:14Z</time>
      </trkpt>
      <trkpt lat="45.66894" lon="6.86633">
        <ele>2267</ele>
        <time>2019-10-06T13:09:15Z</time>
      </trkpt>
      <trkpt lat="45.66895" lon="6.86635">
        <ele>2267</ele>
        <time>2019-10-06T13:09:16Z</time>
      </trkpt>
      <trkpt lat="45.66897" lon="6.86638">
        <ele>2267</ele>
        <time>2019-10-06T13:09:17Z</time>
      </trkpt>
      <trkpt lat="45.66898" lon="6.86641">
        <ele>2267</ele>
        <time>2019-10-06T13:09:18Z</time>
      </trkpt>
      <trkpt lat="45.66899" lon="6.86644">
        <ele>2267</ele>
        <time>2019-10-06T13:09:19Z</time>
      </trkpt>
      <trkpt lat="45.66901" lon="6.86647">
        <ele>2267</ele>
        <time>2019-10-06T13:09:20Z</time>
      </trkpt>
      <trkpt lat="45.66902" lon="6.8665">
        <ele>2267</ele>
        <time>2019-10-06T13:09:21Z</time>
      </trkpt>
      <trkpt lat="45.66904" lon="6.86654">
        <ele>2266</ele>
        <time>2019-10-06T13:09:22Z</time>
      </trkpt>
      <trkpt lat="45.66905" lon="6.86657">
        <ele>2266</ele>
        <time>2019-10-06T13:09:23Z</time>
      </trkpt>
      <trkpt lat="45.66906" lon="6.8666">
        <ele>2266</ele>
        <time>2019-10-06T13:09:24Z</time>
      </trkpt>
      <trkpt lat="45.66907" lon="6.86663">
        <ele>2265</ele>
        <time>2019-10-06T13:09:25Z</time>
      </trkpt>
      <trkpt lat="45.66908" lon="6.86666">
        <ele>2265</ele>
        <time>2019-10-06T13:09:26Z</time>
      </trkpt>
      <trkpt lat="45.66909" lon="6.86669">
        <ele>2265</ele>
        <time>2019-10-06T13:09:27Z</time>
      </trkpt>
      <trkpt lat="45.66909" lon="6.86673">
        <ele>2265</ele>
        <time>2019-10-06T13:09:28Z</time>
      </trkpt>
      <trkpt lat="45.6691" lon="6.86676">
        <ele>2265</ele>
        <time>2019-10-06T13:09:29Z</time>
      </trkpt>
      <trkpt lat="45.66911" lon="6.86679">
        <ele>2264</ele>
        <time>2019-10-06T13:09:30Z</time>
      </trkpt>
      <trkpt lat="45.66911" lon="6.86683">
        <ele>2264</ele>
        <time>2019-10-06T13:09:31Z</time>
      </trkpt>
      <trkpt lat="45.66911" lon="6.86686">
        <ele>2264</ele>
        <time>2019-10-06T13:09:32Z</time>
      </trkpt>
      <trkpt lat="45.66911" lon="6.8669">
        <ele>2263</ele>
        <time>2019-10-06T13:09:33Z</time>
      </trkpt>
      <trkpt lat="45.66912" lon="6.86693">
        <ele>2263</ele>
        <time>2019-10-06T13:09:34Z</time>
      </trkpt>
      <trkpt lat="45.66912" lon="6.86697">
        <ele>2263</ele>
        <time>2019-10-06T13:09:35Z</time>
      </trkpt>
      <trkpt lat="45.66912" lon="6.867">
        <ele>2263</ele>
        <time>2019-10-06T13:09:36Z</time>
      </trkpt>
      <trkpt lat="45.66913" lon="6.86704">
        <ele>2263</ele>
        <time>2019-10-06T13:09:37Z</time>
      </trkpt>
      <trkpt lat="45.66912" lon="6.86707">
        <ele>2263</ele>
        <time>2019-10-06T13:09:38Z</time>
      </trkpt>
      <trkpt lat="45.66913" lon="6.86711">
        <ele>2263</ele>
        <time>2019-10-06T13:09:39Z</time>
      </trkpt>
      <trkpt lat="45.66912" lon="6.86714">
        <ele>2262</ele>
        <time>2019-10-06T13:09:40Z</time>
      </trkpt>
      <trkpt lat="45.66912" lon="6.86717">
        <ele>2262</ele>
        <time>2019-10-06T13:09:41Z</time>
      </trkpt>
      <trkpt lat="45.66911" lon="6.86721">
        <ele>2262</ele>
        <time>2019-10-06T13:09:42Z</time>
      </trkpt>
      <trkpt lat="45.6691" lon="6.86724">
        <ele>2262</ele>
        <time>2019-10-06T13:09:43Z</time>
      </trkpt>
      <trkpt lat="45.6691" lon="6.86727">
        <ele>2262</ele>
        <time>2019-10-06T13:09:44Z</time>
      </trkpt>
      <trkpt lat="45.66909" lon="6.86731">
        <ele>2261</ele>
        <time>2019-10-06T13:09:45Z</time>
      </trkpt>
      <trkpt lat="45.66908" lon="6.86734">
        <ele>2261</ele>
        <time>2019-10-06T13:09:46Z</time>
      </trkpt>
      <trkpt lat="45.66908" lon="6.86738">
        <ele>2261</ele>
        <time>2019-10-06T13:09:47Z</time>
      </trkpt>
      <trkpt lat="45.66907" lon="6.86742">
        <ele>2261</ele>
        <time>2019-10-06T13:09:48Z</time>
      </trkpt>
      <trkpt lat="45.66906" lon="6.86745">
        <ele>2261</ele>
        <time>2019-10-06T13:09:49Z</time>
      </trkpt>
      <trkpt lat="45.66906" lon="6.86749">
        <ele>2260</ele>
        <time>2019-10-06T13:09:50Z</time>
      </trkpt>
      <trkpt lat="45.66905" lon="6.86752">
        <ele>2260</ele>
        <time>2019-10-06T13:09:51Z</time>
      </trkpt>
      <trkpt lat="45.66904" lon="6.86756">
        <ele>2260</ele>
        <time>2019-10-06T13:09:52Z</time>
      </trkpt>
      <trkpt lat="45.66904" lon="6.86759">
        <ele>2260</ele>
        <time>2019-10-06T13:09:53Z</time>
      </trkpt>
      <trkpt lat="45.66903" lon="6.86763">
        <ele>2260</ele>
        <time>2019-10-06T13:09:54Z</time>
      </trkpt>
      <trkpt lat="45.66902" lon="6.86767">
        <ele>2260</ele>
        <time>2019-10-06T13:09:55Z</time>
      </trkpt>
      <trkpt lat="45.66902" lon="6.8677">
        <ele>2260</ele>
        <time>2019-10-06T13:09:56Z</time>
      </trkpt>
      <trkpt lat="45.66901" lon="6.86773">
        <ele>2259</ele>
        <time>2019-10-06T13:09:57Z</time>
      </trkpt>
      <trkpt lat="45.669" lon="6.86776">
        <ele>2259</ele>
        <time>2019-10-06T13:09:58Z</time>
      </trkpt>
      <trkpt lat="45.66899" lon="6.86779">
        <ele>2259</ele>
        <time>2019-10-06T13:09:59Z</time>
      </trkpt>
      <trkpt lat="45.66899" lon="6.86782">
        <ele>2259</ele>
        <time>2019-10-06T13:10:00Z</time>
      </trkpt>
      <trkpt lat="45.66897" lon="6.86786">
        <ele>2259</ele>
        <time>2019-10-06T13:10:01Z</time>
      </trkpt>
      <trkpt lat="45.66896" lon="6.86789">
        <ele>2258</ele>
        <time>2019-10-06T13:10:02Z</time>
      </trkpt>
      <trkpt lat="45.66896" lon="6.86792">
        <ele>2258</ele>
        <time>2019-10-06T13:10:03Z</time>
      </trkpt>
      <trkpt lat="45.66895" lon="6.86795">
        <ele>2258</ele>
        <time>2019-10-06T13:10:04Z</time>
      </trkpt>
      <trkpt lat="45.66894" lon="6.86798">
        <ele>2258</ele>
        <time>2019-10-06T13:10:05Z</time>
      </trkpt>
      <trkpt lat="45.66893" lon="6.86801">
        <ele>2258</ele>
        <time>2019-10-06T13:10:06Z</time>
      </trkpt>
      <trkpt lat="45.66893" lon="6.86805">
        <ele>2257</ele>
        <time>2019-10-06T13:10:07Z</time>
      </trkpt>
      <trkpt lat="45.66892" lon="6.86808">
        <ele>2257</ele>
        <time>2019-10-06T13:10:08Z</time>
      </trkpt>
      <trkpt lat="45.66892" lon="6.86811">
        <ele>2257</ele>
        <time>2019-10-06T13:10:09Z</time>
      </trkpt>
      <trkpt lat="45.66891" lon="6.86814">
        <ele>2257</ele>
        <time>2019-10-06T13:10:10Z</time>
      </trkpt>
      <trkpt lat="45.66891" lon="6.86818">
        <ele>2257</ele>
        <time>2019-10-06T13:10:11Z</time>
      </trkpt>
      <trkpt lat="45.66891" lon="6.86821">
        <ele>2256</ele>
        <time>2019-10-06T13:10:12Z</time>
      </trkpt>
      <trkpt lat="45.66891" lon="6.86824">
        <ele>2256</ele>
        <time>2019-10-06T13:10:13Z</time>
      </trkpt>
      <trkpt lat="45.6689" lon="6.86827">
        <ele>2256</ele>
        <time>2019-10-06T13:10:14Z</time>
      </trkpt>
      <trkpt lat="45.6689" lon="6.8683">
        <ele>2256</ele>
        <time>2019-10-06T13:10:15Z</time>
      </trkpt>
      <trkpt lat="45.6689" lon="6.86834">
        <ele>2256</ele>
        <time>2019-10-06T13:10:16Z</time>
      </trkpt>
      <trkpt lat="45.66889" lon="6.86837">
        <ele>2256</ele>
        <time>2019-10-06T13:10:17Z</time>
      </trkpt>
      <trkpt lat="45.66889" lon="6.8684">
        <ele>2256</ele>
        <time>2019-10-06T13:10:18Z</time>
      </trkpt>
      <trkpt lat="45.66888" lon="6.86844">
        <ele>2256</ele>
        <time>2019-10-06T13:10:19Z</time>
      </trkpt>
      <trkpt lat="45.66888" lon="6.86847">
        <ele>2256</ele>
        <time>2019-10-06T13:10:20Z</time>
      </trkpt>
      <trkpt lat="45.66887" lon="6.8685">
        <ele>2255</ele>
        <time>2019-10-06T13:10:21Z</time>
      </trkpt>
      <trkpt lat="45.66886" lon="6.86854">
        <ele>2255</ele>
        <time>2019-10-06T13:10:22Z</time>
      </trkpt>
      <trkpt lat="45.66885" lon="6.86856">
        <ele>2255</ele>
        <time>2019-10-06T13:10:23Z</time>
      </trkpt>
      <trkpt lat="45.66884" lon="6.86859">
        <ele>2255</ele>
        <time>2019-10-06T13:10:24Z</time>
      </trkpt>
      <trkpt lat="45.66883" lon="6.86863">
        <ele>2255</ele>
        <time>2019-10-06T13:10:25Z</time>
      </trkpt>
      <trkpt lat="45.66883" lon="6.86866">
        <ele>2254</ele>
        <time>2019-10-06T13:10:26Z</time>
      </trkpt>
      <trkpt lat="45.66882" lon="6.86869">
        <ele>2254</ele>
        <time>2019-10-06T13:10:27Z</time>
      </trkpt>
      <trkpt lat="45.66881" lon="6.86873">
        <ele>2253</ele>
        <time>2019-10-06T13:10:28Z</time>
      </trkpt>
      <trkpt lat="45.66881" lon="6.86876">
        <ele>2253</ele>
        <time>2019-10-06T13:10:29Z</time>
      </trkpt>
      <trkpt lat="45.6688" lon="6.86879">
        <ele>2252</ele>
        <time>2019-10-06T13:10:30Z</time>
      </trkpt>
      <trkpt lat="45.6688" lon="6.86883">
        <ele>2251</ele>
        <time>2019-10-06T13:10:31Z</time>
      </trkpt>
      <trkpt lat="45.6688" lon="6.86887">
        <ele>2251</ele>
        <time>2019-10-06T13:10:32Z</time>
      </trkpt>
      <trkpt lat="45.66879" lon="6.8689">
        <ele>2251</ele>
        <time>2019-10-06T13:10:33Z</time>
      </trkpt>
      <trkpt lat="45.6688" lon="6.86894">
        <ele>2251</ele>
        <time>2019-10-06T13:10:34Z</time>
      </trkpt>
      <trkpt lat="45.6688" lon="6.86897">
        <ele>2251</ele>
        <time>2019-10-06T13:10:35Z</time>
      </trkpt>
      <trkpt lat="45.6688" lon="6.869">
        <ele>2251</ele>
        <time>2019-10-06T13:10:36Z</time>
      </trkpt>
      <trkpt lat="45.6688" lon="6.86904">
        <ele>2250</ele>
        <time>2019-10-06T13:10:37Z</time>
      </trkpt>
      <trkpt lat="45.6688" lon="6.86907">
        <ele>2250</ele>
        <time>2019-10-06T13:10:38Z</time>
      </trkpt>
      <trkpt lat="45.66881" lon="6.86911">
        <ele>2250</ele>
        <time>2019-10-06T13:10:39Z</time>
      </trkpt>
      <trkpt lat="45.66881" lon="6.86914">
        <ele>2250</ele>
        <time>2019-10-06T13:10:40Z</time>
      </trkpt>
      <trkpt lat="45.66881" lon="6.86917">
        <ele>2249</ele>
        <time>2019-10-06T13:10:41Z</time>
      </trkpt>
      <trkpt lat="45.66882" lon="6.8692">
        <ele>2249</ele>
        <time>2019-10-06T13:10:42Z</time>
      </trkpt>
      <trkpt lat="45.66882" lon="6.86923">
        <ele>2248</ele>
        <time>2019-10-06T13:10:43Z</time>
      </trkpt>
      <trkpt lat="45.66882" lon="6.86926">
        <ele>2248</ele>
        <time>2019-10-06T13:10:44Z</time>
      </trkpt>
      <trkpt lat="45.66883" lon="6.8693">
        <ele>2248</ele>
        <time>2019-10-06T13:10:45Z</time>
      </trkpt>
      <trkpt lat="45.66883" lon="6.86933">
        <ele>2248</ele>
        <time>2019-10-06T13:10:46Z</time>
      </trkpt>
      <trkpt lat="45.66884" lon="6.86936">
        <ele>2248</ele>
        <time>2019-10-06T13:10:47Z</time>
      </trkpt>
      <trkpt lat="45.66884" lon="6.8694">
        <ele>2248</ele>
        <time>2019-10-06T13:10:48Z</time>
      </trkpt>
      <trkpt lat="45.66884" lon="6.86943">
        <ele>2246</ele>
        <time>2019-10-06T13:10:49Z</time>
      </trkpt>
      <trkpt lat="45.66884" lon="6.86946">
        <ele>2246</ele>
        <time>2019-10-06T13:10:50Z</time>
      </trkpt>
      <trkpt lat="45.66884" lon="6.8695">
        <ele>2246</ele>
        <time>2019-10-06T13:10:51Z</time>
      </trkpt>
      <trkpt lat="45.66884" lon="6.86953">
        <ele>2245</ele>
        <time>2019-10-06T13:10:52Z</time>
      </trkpt>
      <trkpt lat="45.66884" lon="6.86956">
        <ele>2245</ele>
        <time>2019-10-06T13:10:53Z</time>
      </trkpt>
      <trkpt lat="45.66885" lon="6.86959">
        <ele>2245</ele>
        <time>2019-10-06T13:10:54Z</time>
      </trkpt>
      <trkpt lat="45.66885" lon="6.86962">
        <ele>2244</ele>
        <time>2019-10-06T13:10:55Z</time>
      </trkpt>
      <trkpt lat="45.66885" lon="6.86965">
        <ele>2244</ele>
        <time>2019-10-06T13:10:56Z</time>
      </trkpt>
      <trkpt lat="45.66885" lon="6.86968">
        <ele>2244</ele>
        <time>2019-10-06T13:10:57Z</time>
      </trkpt>
      <trkpt lat="45.66886" lon="6.86971">
        <ele>2244</ele>
        <time>2019-10-06T13:10:58Z</time>
      </trkpt>
      <trkpt lat="45.66886" lon="6.86975">
        <ele>2244</ele>
        <time>2019-10-06T13:10:59Z</time>
      </trkpt>
      <trkpt lat="45.66887" lon="6.86978">
        <ele>2244</ele>
        <time>2019-10-06T13:11:00Z</time>
      </trkpt>
      <trkpt lat="45.66887" lon="6.86982">
        <ele>2244</ele>
        <time>2019-10-06T13:11:01Z</time>
      </trkpt>
      <trkpt lat="45.66888" lon="6.86985">
        <ele>2243</ele>
        <time>2019-10-06T13:11:02Z</time>
      </trkpt>
      <trkpt lat="45.66888" lon="6.86988">
        <ele>2243</ele>
        <time>2019-10-06T13:11:03Z</time>
      </trkpt>
      <trkpt lat="45.66889" lon="6.86991">
        <ele>2243</ele>
        <time>2019-10-06T13:11:04Z</time>
      </trkpt>
      <trkpt lat="45.66889" lon="6.86995">
        <ele>2242</ele>
        <time>2019-10-06T13:11:05Z</time>
      </trkpt>
      <trkpt lat="45.6689" lon="6.86998">
        <ele>2242</ele>
        <time>2019-10-06T13:11:06Z</time>
      </trkpt>
      <trkpt lat="45.66891" lon="6.87002">
        <ele>2241</ele>
        <time>2019-10-06T13:11:07Z</time>
      </trkpt>
      <trkpt lat="45.66892" lon="6.87005">
        <ele>2241</ele>
        <time>2019-10-06T13:11:08Z</time>
      </trkpt>
      <trkpt lat="45.66893" lon="6.87008">
        <ele>2241</ele>
        <time>2019-10-06T13:11:09Z</time>
      </trkpt>
      <trkpt lat="45.66893" lon="6.87011">
        <ele>2241</ele>
        <time>2019-10-06T13:11:10Z</time>
      </trkpt>
      <trkpt lat="45.66894" lon="6.87015">
        <ele>2240</ele>
        <time>2019-10-06T13:11:11Z</time>
      </trkpt>
      <trkpt lat="45.66894" lon="6.87018">
        <ele>2240</ele>
        <time>2019-10-06T13:11:12Z</time>
      </trkpt>
      <trkpt lat="45.66895" lon="6.87021">
        <ele>2240</ele>
        <time>2019-10-06T13:11:13Z</time>
      </trkpt>
      <trkpt lat="45.66895" lon="6.87025">
        <ele>2240</ele>
        <time>2019-10-06T13:11:14Z</time>
      </trkpt>
      <trkpt lat="45.66896" lon="6.87029">
        <ele>2240</ele>
        <time>2019-10-06T13:11:15Z</time>
      </trkpt>
      <trkpt lat="45.66896" lon="6.87033">
        <ele>2240</ele>
        <time>2019-10-06T13:11:16Z</time>
      </trkpt>
      <trkpt lat="45.66897" lon="6.87036">
        <ele>2239</ele>
        <time>2019-10-06T13:11:17Z</time>
      </trkpt>
      <trkpt lat="45.66898" lon="6.87039">
        <ele>2238</ele>
        <time>2019-10-06T13:11:18Z</time>
      </trkpt>
      <trkpt lat="45.66899" lon="6.87043">
        <ele>2238</ele>
        <time>2019-10-06T13:11:19Z</time>
      </trkpt>
      <trkpt lat="45.669" lon="6.87046">
        <ele>2238</ele>
        <time>2019-10-06T13:11:20Z</time>
      </trkpt>
      <trkpt lat="45.66902" lon="6.87049">
        <ele>2238</ele>
        <time>2019-10-06T13:11:21Z</time>
      </trkpt>
      <trkpt lat="45.66904" lon="6.87051">
        <ele>2238</ele>
        <time>2019-10-06T13:11:22Z</time>
      </trkpt>
      <trkpt lat="45.66905" lon="6.87054">
        <ele>2238</ele>
        <time>2019-10-06T13:11:23Z</time>
      </trkpt>
      <trkpt lat="45.66907" lon="6.87057">
        <ele>2237</ele>
        <time>2019-10-06T13:11:24Z</time>
      </trkpt>
      <trkpt lat="45.66909" lon="6.87059">
        <ele>2237</ele>
        <time>2019-10-06T13:11:25Z</time>
      </trkpt>
      <trkpt lat="45.66911" lon="6.87062">
        <ele>2237</ele>
        <time>2019-10-06T13:11:26Z</time>
      </trkpt>
      <trkpt lat="45.66913" lon="6.87065">
        <ele>2237</ele>
        <time>2019-10-06T13:11:27Z</time>
      </trkpt>
      <trkpt lat="45.66914" lon="6.87067">
        <ele>2237</ele>
        <time>2019-10-06T13:11:28Z</time>
      </trkpt>
      <trkpt lat="45.66916" lon="6.8707">
        <ele>2237</ele>
        <time>2019-10-06T13:11:29Z</time>
      </trkpt>
      <trkpt lat="45.66918" lon="6.87072">
        <ele>2236</ele>
        <time>2019-10-06T13:11:30Z</time>
      </trkpt>
      <trkpt lat="45.66919" lon="6.87075">
        <ele>2236</ele>
        <time>2019-10-06T13:11:31Z</time>
      </trkpt>
      <trkpt lat="45.66921" lon="6.87078">
        <ele>2236</ele>
        <time>2019-10-06T13:11:32Z</time>
      </trkpt>
      <trkpt lat="45.66923" lon="6.8708">
        <ele>2235</ele>
        <time>2019-10-06T13:11:33Z</time>
      </trkpt>
      <trkpt lat="45.66924" lon="6.87083">
        <ele>2235</ele>
        <time>2019-10-06T13:11:34Z</time>
      </trkpt>
      <trkpt lat="45.66925" lon="6.87086">
        <ele>2235</ele>
        <time>2019-10-06T13:11:35Z</time>
      </trkpt>
      <trkpt lat="45.66927" lon="6.87088">
        <ele>2235</ele>
        <time>2019-10-06T13:11:36Z</time>
      </trkpt>
      <trkpt lat="45.66928" lon="6.87091">
        <ele>2234</ele>
        <time>2019-10-06T13:11:37Z</time>
      </trkpt>
      <trkpt lat="45.6693" lon="6.87094">
        <ele>2233</ele>
        <time>2019-10-06T13:11:38Z</time>
      </trkpt>
      <trkpt lat="45.66931" lon="6.87097">
        <ele>2233</ele>
        <time>2019-10-06T13:11:39Z</time>
      </trkpt>
      <trkpt lat="45.66933" lon="6.87099">
        <ele>2233</ele>
        <time>2019-10-06T13:11:40Z</time>
      </trkpt>
      <trkpt lat="45.66935" lon="6.87102">
        <ele>2233</ele>
        <time>2019-10-06T13:11:41Z</time>
      </trkpt>
      <trkpt lat="45.66936" lon="6.87104">
        <ele>2233</ele>
        <time>2019-10-06T13:11:42Z</time>
      </trkpt>
      <trkpt lat="45.66938" lon="6.87107">
        <ele>2233</ele>
        <time>2019-10-06T13:11:43Z</time>
      </trkpt>
      <trkpt lat="45.66939" lon="6.8711">
        <ele>2233</ele>
        <time>2019-10-06T13:11:44Z</time>
      </trkpt>
      <trkpt lat="45.6694" lon="6.87112">
        <ele>2233</ele>
        <time>2019-10-06T13:11:45Z</time>
      </trkpt>
      <trkpt lat="45.66942" lon="6.87115">
        <ele>2233</ele>
        <time>2019-10-06T13:11:46Z</time>
      </trkpt>
      <trkpt lat="45.66944" lon="6.87118">
        <ele>2233</ele>
        <time>2019-10-06T13:11:47Z</time>
      </trkpt>
      <trkpt lat="45.66945" lon="6.87121">
        <ele>2233</ele>
        <time>2019-10-06T13:11:48Z</time>
      </trkpt>
      <trkpt lat="45.66946" lon="6.87124">
        <ele>2233</ele>
        <time>2019-10-06T13:11:49Z</time>
      </trkpt>
      <trkpt lat="45.66947" lon="6.87127">
        <ele>2232</ele>
        <time>2019-10-06T13:11:50Z</time>
      </trkpt>
      <trkpt lat="45.66949" lon="6.8713">
        <ele>2232</ele>
        <time>2019-10-06T13:11:51Z</time>
      </trkpt>
      <trkpt lat="45.6695" lon="6.87133">
        <ele>2233</ele>
        <time>2019-10-06T13:11:52Z</time>
      </trkpt>
      <trkpt lat="45.66951" lon="6.87136">
        <ele>2233</ele>
        <time>2019-10-06T13:11:53Z</time>
      </trkpt>
      <trkpt lat="45.66952" lon="6.87139">
        <ele>2233</ele>
        <time>2019-10-06T13:11:54Z</time>
      </trkpt>
      <trkpt lat="45.66953" lon="6.87142">
        <ele>2233</ele>
        <time>2019-10-06T13:11:55Z</time>
      </trkpt>
      <trkpt lat="45.66954" lon="6.87145">
        <ele>2232</ele>
        <time>2019-10-06T13:11:56Z</time>
      </trkpt>
      <trkpt lat="45.66955" lon="6.87148">
        <ele>2232</ele>
        <time>2019-10-06T13:11:57Z</time>
      </trkpt>
      <trkpt lat="45.66956" lon="6.87151">
        <ele>2232</ele>
        <time>2019-10-06T13:11:58Z</time>
      </trkpt>
      <trkpt lat="45.66957" lon="6.87154">
        <ele>2232</ele>
        <time>2019-10-06T13:11:59Z</time>
      </trkpt>
      <trkpt lat="45.66957" lon="6.87157">
        <ele>2232</ele>
        <time>2019-10-06T13:12:00Z</time>
      </trkpt>
      <trkpt lat="45.66958" lon="6.8716">
        <ele>2232</ele>
        <time>2019-10-06T13:12:01Z</time>
      </trkpt>
      <trkpt lat="45.66959" lon="6.87163">
        <ele>2232</ele>
        <time>2019-10-06T13:12:02Z</time>
      </trkpt>
      <trkpt lat="45.6696" lon="6.87166">
        <ele>2232</ele>
        <time>2019-10-06T13:12:03Z</time>
      </trkpt>
      <trkpt lat="45.66961" lon="6.87169">
        <ele>2232</ele>
        <time>2019-10-06T13:12:04Z</time>
      </trkpt>
      <trkpt lat="45.66962" lon="6.87172">
        <ele>2232</ele>
        <time>2019-10-06T13:12:05Z</time>
      </trkpt>
      <trkpt lat="45.66963" lon="6.87176">
        <ele>2232</ele>
        <time>2019-10-06T13:12:06Z</time>
      </trkpt>
      <trkpt lat="45.66964" lon="6.87179">
        <ele>2232</ele>
        <time>2019-10-06T13:12:07Z</time>
      </trkpt>
      <trkpt lat="45.66965" lon="6.87181">
        <ele>2232</ele>
        <time>2019-10-06T13:12:08Z</time>
      </trkpt>
      <trkpt lat="45.66966" lon="6.87184">
        <ele>2232</ele>
        <time>2019-10-06T13:12:09Z</time>
      </trkpt>
      <trkpt lat="45.66967" lon="6.87187">
        <ele>2231</ele>
        <time>2019-10-06T13:12:10Z</time>
      </trkpt>
      <trkpt lat="45.66968" lon="6.8719">
        <ele>2231</ele>
        <time>2019-10-06T13:12:11Z</time>
      </trkpt>
      <trkpt lat="45.66969" lon="6.87193">
        <ele>2231</ele>
        <time>2019-10-06T13:12:12Z</time>
      </trkpt>
      <trkpt lat="45.6697" lon="6.87196">
        <ele>2231</ele>
        <time>2019-10-06T13:12:13Z</time>
      </trkpt>
      <trkpt lat="45.66971" lon="6.87198">
        <ele>2230</ele>
        <time>2019-10-06T13:12:14Z</time>
      </trkpt>
      <trkpt lat="45.66972" lon="6.87201">
        <ele>2230</ele>
        <time>2019-10-06T13:12:15Z</time>
      </trkpt>
      <trkpt lat="45.66974" lon="6.87203">
        <ele>2230</ele>
        <time>2019-10-06T13:12:16Z</time>
      </trkpt>
      <trkpt lat="45.66975" lon="6.87206">
        <ele>2230</ele>
        <time>2019-10-06T13:12:17Z</time>
      </trkpt>
      <trkpt lat="45.66976" lon="6.87209">
        <ele>2229</ele>
        <time>2019-10-06T13:12:18Z</time>
      </trkpt>
      <trkpt lat="45.66977" lon="6.87211">
        <ele>2229</ele>
        <time>2019-10-06T13:12:19Z</time>
      </trkpt>
      <trkpt lat="45.66978" lon="6.87214">
        <ele>2229</ele>
        <time>2019-10-06T13:12:20Z</time>
      </trkpt>
      <trkpt lat="45.66979" lon="6.87217">
        <ele>2229</ele>
        <time>2019-10-06T13:12:21Z</time>
      </trkpt>
      <trkpt lat="45.6698" lon="6.87219">
        <ele>2229</ele>
        <time>2019-10-06T13:12:22Z</time>
      </trkpt>
      <trkpt lat="45.66981" lon="6.87222">
        <ele>2228</ele>
        <time>2019-10-06T13:12:23Z</time>
      </trkpt>
      <trkpt lat="45.66982" lon="6.87225">
        <ele>2228</ele>
        <time>2019-10-06T13:12:24Z</time>
      </trkpt>
      <trkpt lat="45.66982" lon="6.87228">
        <ele>2228</ele>
        <time>2019-10-06T13:12:25Z</time>
      </trkpt>
      <trkpt lat="45.66983" lon="6.87231">
        <ele>2228</ele>
        <time>2019-10-06T13:12:26Z</time>
      </trkpt>
      <trkpt lat="45.66984" lon="6.87234">
        <ele>2228</ele>
        <time>2019-10-06T13:12:27Z</time>
      </trkpt>
      <trkpt lat="45.66985" lon="6.87236">
        <ele>2228</ele>
        <time>2019-10-06T13:12:28Z</time>
      </trkpt>
      <trkpt lat="45.66987" lon="6.87239">
        <ele>2228</ele>
        <time>2019-10-06T13:12:29Z</time>
      </trkpt>
      <trkpt lat="45.66989" lon="6.87242">
        <ele>2228</ele>
        <time>2019-10-06T13:12:31Z</time>
      </trkpt>
      <trkpt lat="45.66991" lon="6.87244">
        <ele>2228</ele>
        <time>2019-10-06T13:12:32Z</time>
      </trkpt>
      <trkpt lat="45.66992" lon="6.87246">
        <ele>2228</ele>
        <time>2019-10-06T13:12:33Z</time>
      </trkpt>
      <trkpt lat="45.66994" lon="6.87248">
        <ele>2227</ele>
        <time>2019-10-06T13:12:34Z</time>
      </trkpt>
      <trkpt lat="45.66995" lon="6.8725">
        <ele>2227</ele>
        <time>2019-10-06T13:12:35Z</time>
      </trkpt>
      <trkpt lat="45.66997" lon="6.87252">
        <ele>2228</ele>
        <time>2019-10-06T13:12:36Z</time>
      </trkpt>
      <trkpt lat="45.66998" lon="6.87254">
        <ele>2228</ele>
        <time>2019-10-06T13:12:37Z</time>
      </trkpt>
      <trkpt lat="45.66999" lon="6.87257">
        <ele>2228</ele>
        <time>2019-10-06T13:12:38Z</time>
      </trkpt>
      <trkpt lat="45.67" lon="6.8726">
        <ele>2228</ele>
        <time>2019-10-06T13:12:39Z</time>
      </trkpt>
      <trkpt lat="45.67001" lon="6.87265">
        <ele>2228</ele>
        <time>2019-10-06T13:12:41Z</time>
      </trkpt>
      <trkpt lat="45.67001" lon="6.87269">
        <ele>2227</ele>
        <time>2019-10-06T13:12:43Z</time>
      </trkpt>
      <trkpt lat="45.67" lon="6.87272">
        <ele>2227</ele>
        <time>2019-10-06T13:12:45Z</time>
      </trkpt>
      <trkpt lat="45.67" lon="6.87272">
        <ele>2227</ele>
        <time>2019-10-06T13:12:48Z</time>
      </trkpt>
      <trkpt lat="45.67001" lon="6.87275">
        <ele>2227</ele>
        <time>2019-10-06T13:12:50Z</time>
      </trkpt>
      <trkpt lat="45.67004" lon="6.87277">
        <ele>2227</ele>
        <time>2019-10-06T13:12:52Z</time>
      </trkpt>
      <trkpt lat="45.67005" lon="6.87278">
        <ele>2227</ele>
        <time>2019-10-06T13:12:53Z</time>
      </trkpt>
      <trkpt lat="45.67007" lon="6.8728">
        <ele>2228</ele>
        <time>2019-10-06T13:12:54Z</time>
      </trkpt>
      <trkpt lat="45.6701" lon="6.87282">
        <ele>2228</ele>
        <time>2019-10-06T13:12:56Z</time>
      </trkpt>
      <trkpt lat="45.67013" lon="6.87284">
        <ele>2228</ele>
        <time>2019-10-06T13:12:58Z</time>
      </trkpt>
      <trkpt lat="45.67016" lon="6.87285">
        <ele>2228</ele>
        <time>2019-10-06T13:13:00Z</time>
      </trkpt>
      <trkpt lat="45.67018" lon="6.87286">
        <ele>2228</ele>
        <time>2019-10-06T13:13:02Z</time>
      </trkpt>
      <trkpt lat="45.6702" lon="6.87289">
        <ele>2229</ele>
        <time>2019-10-06T13:13:04Z</time>
      </trkpt>
      <trkpt lat="45.67022" lon="6.87292">
        <ele>2229</ele>
        <time>2019-10-06T13:13:06Z</time>
      </trkpt>
      <trkpt lat="45.67025" lon="6.87294">
        <ele>2229</ele>
        <time>2019-10-06T13:13:08Z</time>
      </trkpt>
      <trkpt lat="45.67026" lon="6.87295">
        <ele>2229</ele>
        <time>2019-10-06T13:13:09Z</time>
      </trkpt>
      <trkpt lat="45.67028" lon="6.87297">
        <ele>2229</ele>
        <time>2019-10-06T13:13:10Z</time>
      </trkpt>
      <trkpt lat="45.6703" lon="6.873">
        <ele>2230</ele>
        <time>2019-10-06T13:13:12Z</time>
      </trkpt>
      <trkpt lat="45.67032" lon="6.87302">
        <ele>2230</ele>
        <time>2019-10-06T13:13:13Z</time>
      </trkpt>
      <trkpt lat="45.67034" lon="6.87303">
        <ele>2230</ele>
        <time>2019-10-06T13:13:14Z</time>
      </trkpt>
      <trkpt lat="45.67036" lon="6.87304">
        <ele>2230</ele>
        <time>2019-10-06T13:13:16Z</time>
      </trkpt>
      <trkpt lat="45.67038" lon="6.87304">
        <ele>2230</ele>
        <time>2019-10-06T13:13:18Z</time>
      </trkpt>
      <trkpt lat="45.67041" lon="6.87304">
        <ele>2229</ele>
        <time>2019-10-06T13:13:20Z</time>
      </trkpt>
      <trkpt lat="45.67043" lon="6.87306">
        <ele>2230</ele>
        <time>2019-10-06T13:13:22Z</time>
      </trkpt>
      <trkpt lat="45.67046" lon="6.87307">
        <ele>2230</ele>
        <time>2019-10-06T13:13:24Z</time>
      </trkpt>
      <trkpt lat="45.67047" lon="6.87308">
        <ele>2230</ele>
        <time>2019-10-06T13:13:25Z</time>
      </trkpt>
      <trkpt lat="45.67049" lon="6.8731">
        <ele>2230</ele>
        <time>2019-10-06T13:13:26Z</time>
      </trkpt>
      <trkpt lat="45.6705" lon="6.87312">
        <ele>2230</ele>
        <time>2019-10-06T13:13:27Z</time>
      </trkpt>
      <trkpt lat="45.67052" lon="6.87314">
        <ele>2230</ele>
        <time>2019-10-06T13:13:28Z</time>
      </trkpt>
      <trkpt lat="45.67053" lon="6.87316">
        <ele>2230</ele>
        <time>2019-10-06T13:13:29Z</time>
      </trkpt>
      <trkpt lat="45.67055" lon="6.87318">
        <ele>2230</ele>
        <time>2019-10-06T13:13:31Z</time>
      </trkpt>
      <trkpt lat="45.67057" lon="6.8732">
        <ele>2230</ele>
        <time>2019-10-06T13:13:33Z</time>
      </trkpt>
      <trkpt lat="45.67058" lon="6.87323">
        <ele>2230</ele>
        <time>2019-10-06T13:13:35Z</time>
      </trkpt>
      <trkpt lat="45.67061" lon="6.87325">
        <ele>2230</ele>
        <time>2019-10-06T13:13:37Z</time>
      </trkpt>
      <trkpt lat="45.67063" lon="6.87326">
        <ele>2230</ele>
        <time>2019-10-06T13:13:38Z</time>
      </trkpt>
      <trkpt lat="45.67065" lon="6.87328">
        <ele>2230</ele>
        <time>2019-10-06T13:13:40Z</time>
      </trkpt>
      <trkpt lat="45.67067" lon="6.8733">
        <ele>2230</ele>
        <time>2019-10-06T13:13:42Z</time>
      </trkpt>
      <trkpt lat="45.67069" lon="6.87331">
        <ele>2230</ele>
        <time>2019-10-06T13:13:44Z</time>
      </trkpt>
      <trkpt lat="45.67071" lon="6.87333">
        <ele>2230</ele>
        <time>2019-10-06T13:13:46Z</time>
      </trkpt>
      <trkpt lat="45.67074" lon="6.87335">
        <ele>2230</ele>
        <time>2019-10-06T13:13:48Z</time>
      </trkpt>
      <trkpt lat="45.67076" lon="6.87337">
        <ele>2232</ele>
        <time>2019-10-06T13:13:50Z</time>
      </trkpt>
      <trkpt lat="45.67079" lon="6.87338">
        <ele>2231</ele>
        <time>2019-10-06T13:13:52Z</time>
      </trkpt>
      <trkpt lat="45.67081" lon="6.87339">
        <ele>2231</ele>
        <time>2019-10-06T13:13:54Z</time>
      </trkpt>
      <trkpt lat="45.67084" lon="6.8734">
        <ele>2230</ele>
        <time>2019-10-06T13:13:56Z</time>
      </trkpt>
      <trkpt lat="45.67085" lon="6.87342">
        <ele>2230</ele>
        <time>2019-10-06T13:13:58Z</time>
      </trkpt>
      <trkpt lat="45.67088" lon="6.87344">
        <ele>2230</ele>
        <time>2019-10-06T13:14:00Z</time>
      </trkpt>
      <trkpt lat="45.6709" lon="6.87346">
        <ele>2230</ele>
        <time>2019-10-06T13:14:02Z</time>
      </trkpt>
      <trkpt lat="45.67092" lon="6.87349">
        <ele>2231</ele>
        <time>2019-10-06T13:14:04Z</time>
      </trkpt>
      <trkpt lat="45.67093" lon="6.87349">
        <ele>2231</ele>
        <time>2019-10-06T13:14:06Z</time>
      </trkpt>
      <trkpt lat="45.67096" lon="6.87348">
        <ele>2231</ele>
        <time>2019-10-06T13:14:08Z</time>
      </trkpt>
      <trkpt lat="45.67099" lon="6.87349">
        <ele>2231</ele>
        <time>2019-10-06T13:14:10Z</time>
      </trkpt>
      <trkpt lat="45.671" lon="6.87353">
        <ele>2232</ele>
        <time>2019-10-06T13:14:12Z</time>
      </trkpt>
      <trkpt lat="45.671" lon="6.87357">
        <ele>2232</ele>
        <time>2019-10-06T13:14:14Z</time>
      </trkpt>
      <trkpt lat="45.671" lon="6.87362">
        <ele>2232</ele>
        <time>2019-10-06T13:14:16Z</time>
      </trkpt>
      <trkpt lat="45.671" lon="6.87366">
        <ele>2232</ele>
        <time>2019-10-06T13:14:18Z</time>
      </trkpt>
      <trkpt lat="45.67099" lon="6.87369">
        <ele>2232</ele>
        <time>2019-10-06T13:14:20Z</time>
      </trkpt>
      <trkpt lat="45.671" lon="6.87373">
        <ele>2233</ele>
        <time>2019-10-06T13:14:22Z</time>
      </trkpt>
      <trkpt lat="45.67101" lon="6.87376">
        <ele>2233</ele>
        <time>2019-10-06T13:14:24Z</time>
      </trkpt>
      <trkpt lat="45.67102" lon="6.87378">
        <ele>2233</ele>
        <time>2019-10-06T13:14:26Z</time>
      </trkpt>
      <trkpt lat="45.67103" lon="6.87381">
        <ele>2234</ele>
        <time>2019-10-06T13:14:28Z</time>
      </trkpt>
      <trkpt lat="45.67103" lon="6.87384">
        <ele>2235</ele>
        <time>2019-10-06T13:14:30Z</time>
      </trkpt>
      <trkpt lat="45.67103" lon="6.87384">
        <ele>2235</ele>
        <time>2019-10-06T13:14:32Z</time>
      </trkpt>
      <trkpt lat="45.67102" lon="6.87387">
        <ele>2236</ele>
        <time>2019-10-06T13:14:33Z</time>
      </trkpt>
      <trkpt lat="45.67102" lon="6.8739">
        <ele>2236</ele>
        <time>2019-10-06T13:14:36Z</time>
      </trkpt>
      <trkpt lat="45.67102" lon="6.8739">
        <ele>2236</ele>
        <time>2019-10-06T13:14:38Z</time>
      </trkpt>
      <trkpt lat="45.67103" lon="6.87393">
        <ele>2236</ele>
        <time>2019-10-06T13:14:39Z</time>
      </trkpt>
      <trkpt lat="45.67104" lon="6.87396">
        <ele>2238</ele>
        <time>2019-10-06T13:14:43Z</time>
      </trkpt>
      <trkpt lat="45.67104" lon="6.87396">
        <ele>2238</ele>
        <time>2019-10-06T13:14:44Z</time>
      </trkpt>
      <trkpt lat="45.67106" lon="6.87398">
        <ele>2239</ele>
        <time>2019-10-06T13:14:46Z</time>
      </trkpt>
      <trkpt lat="45.67108" lon="6.874">
        <ele>2239</ele>
        <time>2019-10-06T13:14:49Z</time>
      </trkpt>
      <trkpt lat="45.67108" lon="6.874">
        <ele>2240</ele>
        <time>2019-10-06T13:14:50Z</time>
      </trkpt>
      <trkpt lat="45.6711" lon="6.87402">
        <ele>2240</ele>
        <time>2019-10-06T13:14:52Z</time>
      </trkpt>
      <trkpt lat="45.6711" lon="6.87402">
        <ele>2241</ele>
        <time>2019-10-06T13:14:55Z</time>
      </trkpt>
      <trkpt lat="45.67111" lon="6.87405">
        <ele>2242</ele>
        <time>2019-10-06T13:14:56Z</time>
      </trkpt>
      <trkpt lat="45.67112" lon="6.87408">
        <ele>2242</ele>
        <time>2019-10-06T13:15:00Z</time>
      </trkpt>
      <trkpt lat="45.67112" lon="6.87408">
        <ele>2242</ele>
        <time>2019-10-06T13:15:01Z</time>
      </trkpt>
      <trkpt lat="45.67114" lon="6.87409">
        <ele>2243</ele>
        <time>2019-10-06T13:15:05Z</time>
      </trkpt>
      <trkpt lat="45.67114" lon="6.87409">
        <ele>2243</ele>
        <time>2019-10-06T13:15:06Z</time>
      </trkpt>
      <trkpt lat="45.67116" lon="6.87409">
        <ele>2244</ele>
        <time>2019-10-06T13:15:09Z</time>
      </trkpt>
      <trkpt lat="45.67116" lon="6.87409">
        <ele>2245</ele>
        <time>2019-10-06T13:15:11Z</time>
      </trkpt>
      <trkpt lat="45.67118" lon="6.87407">
        <ele>2245</ele>
        <time>2019-10-06T13:15:12Z</time>
      </trkpt>
      <trkpt lat="45.6712" lon="6.87407">
        <ele>2248</ele>
        <time>2019-10-06T13:15:15Z</time>
      </trkpt>
      <trkpt lat="45.6712" lon="6.87407">
        <ele>2248</ele>
        <time>2019-10-06T13:15:17Z</time>
      </trkpt>
      <trkpt lat="45.67122" lon="6.87409">
        <ele>2248</ele>
        <time>2019-10-06T13:15:18Z</time>
      </trkpt>
      <trkpt lat="45.67123" lon="6.87413">
        <ele>2248</ele>
        <time>2019-10-06T13:15:20Z</time>
      </trkpt>
      <trkpt lat="45.67123" lon="6.87417">
        <ele>2248</ele>
        <time>2019-10-06T13:15:22Z</time>
      </trkpt>
      <trkpt lat="45.67122" lon="6.8742">
        <ele>2248</ele>
        <time>2019-10-06T13:15:24Z</time>
      </trkpt>
      <trkpt lat="45.6712" lon="6.87423">
        <ele>2248</ele>
        <time>2019-10-06T13:15:26Z</time>
      </trkpt>
      <trkpt lat="45.67119" lon="6.87426">
        <ele>2249</ele>
        <time>2019-10-06T13:15:28Z</time>
      </trkpt>
      <trkpt lat="45.67117" lon="6.87427">
        <ele>2250</ele>
        <time>2019-10-06T13:15:30Z</time>
      </trkpt>
      <trkpt lat="45.67117" lon="6.87427">
        <ele>2250</ele>
        <time>2019-10-06T13:15:32Z</time>
      </trkpt>
      <trkpt lat="45.67115" lon="6.8743">
        <ele>2250</ele>
        <time>2019-10-06T13:15:33Z</time>
      </trkpt>
      <trkpt lat="45.67114" lon="6.87433">
        <ele>2250</ele>
        <time>2019-10-06T13:15:35Z</time>
      </trkpt>
      <trkpt lat="45.67114" lon="6.87435">
        <ele>2250</ele>
        <time>2019-10-06T13:15:36Z</time>
      </trkpt>
      <trkpt lat="45.67114" lon="6.87438">
        <ele>2250</ele>
        <time>2019-10-06T13:15:37Z</time>
      </trkpt>
      <trkpt lat="45.67114" lon="6.87441">
        <ele>2250</ele>
        <time>2019-10-06T13:15:38Z</time>
      </trkpt>
      <trkpt lat="45.67115" lon="6.87443">
        <ele>2250</ele>
        <time>2019-10-06T13:15:39Z</time>
      </trkpt>
      <trkpt lat="45.67116" lon="6.87445">
        <ele>2250</ele>
        <time>2019-10-06T13:15:40Z</time>
      </trkpt>
      <trkpt lat="45.67117" lon="6.87448">
        <ele>2250</ele>
        <time>2019-10-06T13:15:41Z</time>
      </trkpt>
      <trkpt lat="45.67119" lon="6.87449">
        <ele>2250</ele>
        <time>2019-10-06T13:15:42Z</time>
      </trkpt>
      <trkpt lat="45.67122" lon="6.87451">
        <ele>2250</ele>
        <time>2019-10-06T13:15:44Z</time>
      </trkpt>
      <trkpt lat="45.67123" lon="6.87453">
        <ele>2251</ele>
        <time>2019-10-06T13:15:46Z</time>
      </trkpt>
      <trkpt lat="45.67125" lon="6.87456">
        <ele>2251</ele>
        <time>2019-10-06T13:15:48Z</time>
      </trkpt>
      <trkpt lat="45.67127" lon="6.87459">
        <ele>2251</ele>
        <time>2019-10-06T13:15:50Z</time>
      </trkpt>
      <trkpt lat="45.67129" lon="6.87462">
        <ele>2251</ele>
        <time>2019-10-06T13:15:52Z</time>
      </trkpt>
      <trkpt lat="45.6713" lon="6.87464">
        <ele>2251</ele>
        <time>2019-10-06T13:15:54Z</time>
      </trkpt>
      <trkpt lat="45.67132" lon="6.87467">
        <ele>2251</ele>
        <time>2019-10-06T13:15:56Z</time>
      </trkpt>
      <trkpt lat="45.67134" lon="6.87469">
        <ele>2251</ele>
        <time>2019-10-06T13:15:57Z</time>
      </trkpt>
      <trkpt lat="45.67135" lon="6.87471">
        <ele>2251</ele>
        <time>2019-10-06T13:15:58Z</time>
      </trkpt>
      <trkpt lat="45.67136" lon="6.87474">
        <ele>2251</ele>
        <time>2019-10-06T13:15:59Z</time>
      </trkpt>
      <trkpt lat="45.67138" lon="6.87476">
        <ele>2251</ele>
        <time>2019-10-06T13:16:00Z</time>
      </trkpt>
      <trkpt lat="45.6714" lon="6.87477">
        <ele>2251</ele>
        <time>2019-10-06T13:16:01Z</time>
      </trkpt>
      <trkpt lat="45.67141" lon="6.87479">
        <ele>2251</ele>
        <time>2019-10-06T13:16:02Z</time>
      </trkpt>
      <trkpt lat="45.67144" lon="6.87483">
        <ele>2252</ele>
        <time>2019-10-06T13:16:04Z</time>
      </trkpt>
      <trkpt lat="45.67146" lon="6.87486">
        <ele>2252</ele>
        <time>2019-10-06T13:16:06Z</time>
      </trkpt>
      <trkpt lat="45.67147" lon="6.87488">
        <ele>2252</ele>
        <time>2019-10-06T13:16:07Z</time>
      </trkpt>
      <trkpt lat="45.67148" lon="6.87491">
        <ele>2252</ele>
        <time>2019-10-06T13:16:08Z</time>
      </trkpt>
      <trkpt lat="45.67151" lon="6.87494">
        <ele>2252</ele>
        <time>2019-10-06T13:16:10Z</time>
      </trkpt>
      <trkpt lat="45.67152" lon="6.87496">
        <ele>2252</ele>
        <time>2019-10-06T13:16:11Z</time>
      </trkpt>
      <trkpt lat="45.67153" lon="6.87499">
        <ele>2252</ele>
        <time>2019-10-06T13:16:12Z</time>
      </trkpt>
      <trkpt lat="45.67154" lon="6.87502">
        <ele>2254</ele>
        <time>2019-10-06T13:16:14Z</time>
      </trkpt>
      <trkpt lat="45.67153" lon="6.87506">
        <ele>2255</ele>
        <time>2019-10-06T13:16:16Z</time>
      </trkpt>
      <trkpt lat="45.67153" lon="6.87509">
        <ele>2255</ele>
        <time>2019-10-06T13:16:18Z</time>
      </trkpt>
      <trkpt lat="45.67155" lon="6.87512">
        <ele>2255</ele>
        <time>2019-10-06T13:16:20Z</time>
      </trkpt>
      <trkpt lat="45.67156" lon="6.87514">
        <ele>2255</ele>
        <time>2019-10-06T13:16:21Z</time>
      </trkpt>
      <trkpt lat="45.67158" lon="6.87516">
        <ele>2255</ele>
        <time>2019-10-06T13:16:22Z</time>
      </trkpt>
      <trkpt lat="45.67159" lon="6.87518">
        <ele>2255</ele>
        <time>2019-10-06T13:16:23Z</time>
      </trkpt>
      <trkpt lat="45.6716" lon="6.87521">
        <ele>2255</ele>
        <time>2019-10-06T13:16:24Z</time>
      </trkpt>
      <trkpt lat="45.67161" lon="6.87523">
        <ele>2255</ele>
        <time>2019-10-06T13:16:25Z</time>
      </trkpt>
      <trkpt lat="45.67163" lon="6.87525">
        <ele>2255</ele>
        <time>2019-10-06T13:16:26Z</time>
      </trkpt>
      <trkpt lat="45.67165" lon="6.87526">
        <ele>2255</ele>
        <time>2019-10-06T13:16:27Z</time>
      </trkpt>
      <trkpt lat="45.67167" lon="6.87527">
        <ele>2255</ele>
        <time>2019-10-06T13:16:28Z</time>
      </trkpt>
      <trkpt lat="45.67169" lon="6.87528">
        <ele>2256</ele>
        <time>2019-10-06T13:16:29Z</time>
      </trkpt>
      <trkpt lat="45.67172" lon="6.8753">
        <ele>2256</ele>
        <time>2019-10-06T13:16:31Z</time>
      </trkpt>
      <trkpt lat="45.67173" lon="6.87531">
        <ele>2256</ele>
        <time>2019-10-06T13:16:32Z</time>
      </trkpt>
      <trkpt lat="45.67175" lon="6.87532">
        <ele>2256</ele>
        <time>2019-10-06T13:16:33Z</time>
      </trkpt>
      <trkpt lat="45.67177" lon="6.87534">
        <ele>2256</ele>
        <time>2019-10-06T13:16:34Z</time>
      </trkpt>
      <trkpt lat="45.67179" lon="6.87535">
        <ele>2256</ele>
        <time>2019-10-06T13:16:35Z</time>
      </trkpt>
      <trkpt lat="45.67181" lon="6.87537">
        <ele>2256</ele>
        <time>2019-10-06T13:16:36Z</time>
      </trkpt>
      <trkpt lat="45.67183" lon="6.87539">
        <ele>2256</ele>
        <time>2019-10-06T13:16:37Z</time>
      </trkpt>
      <trkpt lat="45.67184" lon="6.87542">
        <ele>2256</ele>
        <time>2019-10-06T13:16:38Z</time>
      </trkpt>
      <trkpt lat="45.67185" lon="6.87545">
        <ele>2256</ele>
        <time>2019-10-06T13:16:39Z</time>
      </trkpt>
      <trkpt lat="45.67185" lon="6.87548">
        <ele>2257</ele>
        <time>2019-10-06T13:16:40Z</time>
      </trkpt>
      <trkpt lat="45.67184" lon="6.87551">
        <ele>2257</ele>
        <time>2019-10-06T13:16:41Z</time>
      </trkpt>
      <trkpt lat="45.67183" lon="6.87553">
        <ele>2257</ele>
        <time>2019-10-06T13:16:42Z</time>
      </trkpt>
      <trkpt lat="45.67182" lon="6.87555">
        <ele>2257</ele>
        <time>2019-10-06T13:16:43Z</time>
      </trkpt>
      <trkpt lat="45.67181" lon="6.87558">
        <ele>2257</ele>
        <time>2019-10-06T13:16:44Z</time>
      </trkpt>
      <trkpt lat="45.6718" lon="6.8756">
        <ele>2257</ele>
        <time>2019-10-06T13:16:45Z</time>
      </trkpt>
      <trkpt lat="45.67179" lon="6.87562">
        <ele>2257</ele>
        <time>2019-10-06T13:16:46Z</time>
      </trkpt>
      <trkpt lat="45.67176" lon="6.87563">
        <ele>2257</ele>
        <time>2019-10-06T13:16:48Z</time>
      </trkpt>
      <trkpt lat="45.67174" lon="6.87562">
        <ele>2257</ele>
        <time>2019-10-06T13:16:49Z</time>
      </trkpt>
      <trkpt lat="45.67173" lon="6.8756">
        <ele>2257</ele>
        <time>2019-10-06T13:16:50Z</time>
      </trkpt>
      <trkpt lat="45.67171" lon="6.87558">
        <ele>2257</ele>
        <time>2019-10-06T13:16:51Z</time>
      </trkpt>
      <trkpt lat="45.6717" lon="6.87556">
        <ele>2257</ele>
        <time>2019-10-06T13:16:52Z</time>
      </trkpt>
      <trkpt lat="45.67168" lon="6.87554">
        <ele>2257</ele>
        <time>2019-10-06T13:16:53Z</time>
      </trkpt>
      <trkpt lat="45.67167" lon="6.87552">
        <ele>2257</ele>
        <time>2019-10-06T13:16:54Z</time>
      </trkpt>
      <trkpt lat="45.67165" lon="6.8755">
        <ele>2257</ele>
        <time>2019-10-06T13:16:55Z</time>
      </trkpt>
      <trkpt lat="45.67163" lon="6.87547">
        <ele>2257</ele>
        <time>2019-10-06T13:16:57Z</time>
      </trkpt>
      <trkpt lat="45.67161" lon="6.87544">
        <ele>2257</ele>
        <time>2019-10-06T13:16:59Z</time>
      </trkpt>
      <trkpt lat="45.67161" lon="6.87544">
        <ele>2257</ele>
        <time>2019-10-06T13:17:01Z</time>
      </trkpt>
      <trkpt lat="45.67159" lon="6.87542">
        <ele>2257</ele>
        <time>2019-10-06T13:17:02Z</time>
      </trkpt>
      <trkpt lat="45.67157" lon="6.87543">
        <ele>2257</ele>
        <time>2019-10-06T13:17:05Z</time>
      </trkpt>
      <trkpt lat="45.67157" lon="6.87543">
        <ele>2257</ele>
        <time>2019-10-06T13:17:07Z</time>
        <extensions>
          <visugpx:TrkExtension xmlns:visugpx="https://www.visugpx.com/editgpx/">
            <visugpx:node>1</visugpx:node>
            </visugpx:TrkExtension>
        </extensions>
      </trkpt>
    </trkseg>
  </trk>
</gpx>